<?xml version="1.0" encoding="UTF-8" standalone="no" ?>
<gpx xmlns="http://www.topografix.com/GPX/1/1" xmlns:xsi="http://www.w3.org/2001/XMLSchema-instance" xsi:schemaLocation="http://www.topografix.com/GPX/1/1 http://www.topografix.com/GPX/1/1/gpx.xsd" version="1.1" creator="VisuGPX - https://www.visugpx.com">
  <metadata>
    <name>Ultra Tour Monte Rosa 2019 - UTMR Full Tour sur TraceDeTrail.fr</name>
  </metadata>
  <trk>
    <name><![CDATA[Ultra Tour Monte Rosa 2019 - UTMR Full Tour sur TraceDeTrail.fr]]></name>
    <trkseg>
      <trkpt lat="46.19547" lon="7.83875">
        <ele>1625</ele>
        <time>2000-01-01T01:00:38.000Z</time>
      </trkpt>
      <trkpt lat="46.19565" lon="7.83895">
        <ele>1622</ele>
        <time>2000-01-01T01:00:48.000Z</time>
      </trkpt>
      <trkpt lat="46.1959" lon="7.83902">
        <ele>1621</ele>
        <time>2000-01-01T01:00:58.000Z</time>
      </trkpt>
      <trkpt lat="46.19608" lon="7.83928">
        <ele>1621</ele>
        <time>2000-01-01T01:01:08.000Z</time>
      </trkpt>
      <trkpt lat="46.1963" lon="7.83959">
        <ele>1621</ele>
        <time>2000-01-01T01:01:18.000Z</time>
      </trkpt>
      <trkpt lat="46.19613" lon="7.83992">
        <ele>1623</ele>
        <time>2000-01-01T01:01:28.000Z</time>
      </trkpt>
      <trkpt lat="46.19587" lon="7.84041">
        <ele>1624</ele>
        <time>2000-01-01T01:01:38.000Z</time>
      </trkpt>
      <trkpt lat="46.19576" lon="7.84003">
        <ele>1626</ele>
        <time>2000-01-01T01:01:48.000Z</time>
      </trkpt>
      <trkpt lat="46.1956" lon="7.83945">
        <ele>1626</ele>
        <time>2000-01-01T01:01:58.000Z</time>
      </trkpt>
      <trkpt lat="46.19547" lon="7.83916">
        <ele>1627</ele>
        <time>2000-01-01T01:02:08.000Z</time>
      </trkpt>
      <trkpt lat="46.19531" lon="7.83891">
        <ele>1627</ele>
        <time>2000-01-01T01:02:18.000Z</time>
      </trkpt>
      <trkpt lat="46.19514" lon="7.83866">
        <ele>1626</ele>
        <time>2000-01-01T01:02:28.000Z</time>
      </trkpt>
      <trkpt lat="46.19501" lon="7.8381">
        <ele>1620</ele>
        <time>2000-01-01T01:02:38.000Z</time>
      </trkpt>
      <trkpt lat="46.19469" lon="7.83771">
        <ele>1618</ele>
        <time>2000-01-01T01:02:48.000Z</time>
      </trkpt>
      <trkpt lat="46.19439" lon="7.83738">
        <ele>1617</ele>
        <time>2000-01-01T01:02:58.000Z</time>
      </trkpt>
      <trkpt lat="46.19424" lon="7.83722">
        <ele>1616</ele>
        <time>2000-01-01T01:03:08.000Z</time>
      </trkpt>
      <trkpt lat="46.19414" lon="7.83716">
        <ele>1611.3</ele>
        <time>2000-01-01T01:03:18.000Z</time>
      </trkpt>
      <trkpt lat="46.19401" lon="7.8371">
        <ele>1615</ele>
        <time>2000-01-01T01:03:28.000Z</time>
      </trkpt>
      <trkpt lat="46.19389" lon="7.83708">
        <ele>1610</ele>
        <time>2000-01-01T01:03:38.000Z</time>
      </trkpt>
      <trkpt lat="46.19378" lon="7.83701">
        <ele>1615</ele>
        <time>2000-01-01T01:03:48.000Z</time>
      </trkpt>
      <trkpt lat="46.19367" lon="7.83693">
        <ele>1609.6</ele>
        <time>2000-01-01T01:03:58.000Z</time>
      </trkpt>
      <trkpt lat="46.19356" lon="7.83688">
        <ele>1613</ele>
        <time>2000-01-01T01:04:08.000Z</time>
      </trkpt>
      <trkpt lat="46.19333" lon="7.83674">
        <ele>1613</ele>
        <time>2000-01-01T01:04:18.000Z</time>
      </trkpt>
      <trkpt lat="46.19322" lon="7.83669">
        <ele>1609.3</ele>
        <time>2000-01-01T01:04:28.000Z</time>
      </trkpt>
      <trkpt lat="46.19305" lon="7.83653">
        <ele>1610</ele>
        <time>2000-01-01T01:04:38.000Z</time>
      </trkpt>
      <trkpt lat="46.19297" lon="7.83641">
        <ele>1607.8</ele>
        <time>2000-01-01T01:04:48.000Z</time>
      </trkpt>
      <trkpt lat="46.19282" lon="7.83622">
        <ele>1610</ele>
        <time>2000-01-01T01:04:58.000Z</time>
      </trkpt>
      <trkpt lat="46.19263" lon="7.83602">
        <ele>1610</ele>
        <time>2000-01-01T01:05:08.000Z</time>
      </trkpt>
      <trkpt lat="46.19245" lon="7.83585">
        <ele>1610</ele>
        <time>2000-01-01T01:05:18.000Z</time>
      </trkpt>
      <trkpt lat="46.19225" lon="7.83573">
        <ele>1611</ele>
        <time>2000-01-01T01:05:28.000Z</time>
      </trkpt>
      <trkpt lat="46.19213" lon="7.83558">
        <ele>1610.9</ele>
        <time>2000-01-01T01:05:38.000Z</time>
      </trkpt>
      <trkpt lat="46.19203" lon="7.83552">
        <ele>1610</ele>
        <time>2000-01-01T01:05:48.000Z</time>
      </trkpt>
      <trkpt lat="46.19192" lon="7.83549">
        <ele>1611.4</ele>
        <time>2000-01-01T01:05:58.000Z</time>
      </trkpt>
      <trkpt lat="46.1918" lon="7.83543">
        <ele>1611</ele>
        <time>2000-01-01T01:06:08.000Z</time>
      </trkpt>
      <trkpt lat="46.19171" lon="7.83541">
        <ele>1611.3</ele>
        <time>2000-01-01T01:06:18.000Z</time>
      </trkpt>
      <trkpt lat="46.19161" lon="7.83531">
        <ele>1611</ele>
        <time>2000-01-01T01:06:28.000Z</time>
      </trkpt>
      <trkpt lat="46.19151" lon="7.83526">
        <ele>1609.7</ele>
        <time>2000-01-01T01:06:38.000Z</time>
      </trkpt>
      <trkpt lat="46.1914" lon="7.83527">
        <ele>1611</ele>
        <time>2000-01-01T01:06:48.000Z</time>
      </trkpt>
      <trkpt lat="46.1913" lon="7.83525">
        <ele>1610.1</ele>
        <time>2000-01-01T01:06:58.000Z</time>
      </trkpt>
      <trkpt lat="46.19098" lon="7.83524">
        <ele>1610</ele>
        <time>2000-01-01T01:07:08.000Z</time>
      </trkpt>
      <trkpt lat="46.19087" lon="7.8352">
        <ele>1610.4</ele>
        <time>2000-01-01T01:07:18.000Z</time>
      </trkpt>
      <trkpt lat="46.19075" lon="7.83515">
        <ele>1610</ele>
        <time>2000-01-01T01:07:28.000Z</time>
      </trkpt>
      <trkpt lat="46.19064" lon="7.83511">
        <ele>1609.1</ele>
        <time>2000-01-01T01:07:38.000Z</time>
      </trkpt>
      <trkpt lat="46.19053" lon="7.83516">
        <ele>1613</ele>
        <time>2000-01-01T01:07:48.000Z</time>
      </trkpt>
      <trkpt lat="46.19042" lon="7.83527">
        <ele>1612.3</ele>
        <time>2000-01-01T01:07:58.000Z</time>
      </trkpt>
      <trkpt lat="46.19022" lon="7.83534">
        <ele>1617</ele>
        <time>2000-01-01T01:08:08.000Z</time>
      </trkpt>
      <trkpt lat="46.19013" lon="7.83529">
        <ele>1617.1</ele>
        <time>2000-01-01T01:08:18.000Z</time>
      </trkpt>
      <trkpt lat="46.19005" lon="7.83516">
        <ele>1617</ele>
        <time>2000-01-01T01:08:28.000Z</time>
      </trkpt>
      <trkpt lat="46.19" lon="7.83503">
        <ele>1618.3</ele>
        <time>2000-01-01T01:08:38.000Z</time>
      </trkpt>
      <trkpt lat="46.18993" lon="7.83489">
        <ele>1617</ele>
        <time>2000-01-01T01:08:48.000Z</time>
      </trkpt>
      <trkpt lat="46.18983" lon="7.83477">
        <ele>1615</ele>
        <time>2000-01-01T01:08:58.000Z</time>
      </trkpt>
      <trkpt lat="46.18973" lon="7.83482">
        <ele>1620</ele>
        <time>2000-01-01T01:09:08.000Z</time>
      </trkpt>
      <trkpt lat="46.18961" lon="7.83484">
        <ele>1617.4</ele>
        <time>2000-01-01T01:09:18.000Z</time>
      </trkpt>
      <trkpt lat="46.18928" lon="7.835">
        <ele>1638</ele>
        <time>2000-01-01T01:09:28.000Z</time>
      </trkpt>
      <trkpt lat="46.18916" lon="7.83501">
        <ele>1627.4</ele>
        <time>2000-01-01T01:09:38.000Z</time>
      </trkpt>
      <trkpt lat="46.18905" lon="7.83497">
        <ele>1644</ele>
        <time>2000-01-01T01:09:48.000Z</time>
      </trkpt>
      <trkpt lat="46.18884" lon="7.83494">
        <ele>1644</ele>
        <time>2000-01-01T01:09:58.000Z</time>
      </trkpt>
      <trkpt lat="46.18875" lon="7.83495">
        <ele>1635.9</ele>
        <time>2000-01-01T01:10:08.000Z</time>
      </trkpt>
      <trkpt lat="46.18865" lon="7.835">
        <ele>1647</ele>
        <time>2000-01-01T01:10:18.000Z</time>
      </trkpt>
      <trkpt lat="46.18853" lon="7.83505">
        <ele>1642.7</ele>
        <time>2000-01-01T01:10:28.000Z</time>
      </trkpt>
      <trkpt lat="46.18842" lon="7.83507">
        <ele>1651</ele>
        <time>2000-01-01T01:10:38.000Z</time>
      </trkpt>
      <trkpt lat="46.18833" lon="7.83514">
        <ele>1649.1</ele>
        <time>2000-01-01T01:10:48.000Z</time>
      </trkpt>
      <trkpt lat="46.18823" lon="7.83517">
        <ele>1662</ele>
        <time>2000-01-01T01:10:58.000Z</time>
      </trkpt>
      <trkpt lat="46.18811" lon="7.8352">
        <ele>1654.3</ele>
        <time>2000-01-01T01:11:08.000Z</time>
      </trkpt>
      <trkpt lat="46.18799" lon="7.83523">
        <ele>1673</ele>
        <time>2000-01-01T01:11:18.000Z</time>
      </trkpt>
      <trkpt lat="46.18788" lon="7.83527">
        <ele>1660</ele>
        <time>2000-01-01T01:11:28.000Z</time>
      </trkpt>
      <trkpt lat="46.18779" lon="7.83533">
        <ele>1679</ele>
        <time>2000-01-01T01:11:38.000Z</time>
      </trkpt>
      <trkpt lat="46.18767" lon="7.83535">
        <ele>1666</ele>
        <time>2000-01-01T01:11:48.000Z</time>
      </trkpt>
      <trkpt lat="46.18757" lon="7.83539">
        <ele>1682</ele>
        <time>2000-01-01T01:11:58.000Z</time>
      </trkpt>
      <trkpt lat="46.18746" lon="7.8354">
        <ele>1671.5</ele>
        <time>2000-01-01T01:12:08.000Z</time>
      </trkpt>
      <trkpt lat="46.18723" lon="7.83537">
        <ele>1687</ele>
        <time>2000-01-01T01:12:18.000Z</time>
      </trkpt>
      <trkpt lat="46.18713" lon="7.83533">
        <ele>1676.7</ele>
        <time>2000-01-01T01:12:28.000Z</time>
      </trkpt>
      <trkpt lat="46.18702" lon="7.83532">
        <ele>1691</ele>
        <time>2000-01-01T01:12:38.000Z</time>
      </trkpt>
      <trkpt lat="46.18692" lon="7.83533">
        <ele>1680.2</ele>
        <time>2000-01-01T01:12:48.000Z</time>
      </trkpt>
      <trkpt lat="46.18659" lon="7.83547">
        <ele>1702</ele>
        <time>2000-01-01T01:12:58.000Z</time>
      </trkpt>
      <trkpt lat="46.18638" lon="7.83552">
        <ele>1707</ele>
        <time>2000-01-01T01:13:08.000Z</time>
      </trkpt>
      <trkpt lat="46.18627" lon="7.83556">
        <ele>1694.8</ele>
        <time>2000-01-01T01:13:18.000Z</time>
      </trkpt>
      <trkpt lat="46.18616" lon="7.8355">
        <ele>1708</ele>
        <time>2000-01-01T01:13:28.000Z</time>
      </trkpt>
      <trkpt lat="46.18608" lon="7.8354">
        <ele>1693.8</ele>
        <time>2000-01-01T01:13:38.000Z</time>
      </trkpt>
      <trkpt lat="46.186" lon="7.83535">
        <ele>1708</ele>
        <time>2000-01-01T01:13:48.000Z</time>
      </trkpt>
      <trkpt lat="46.18591" lon="7.83528">
        <ele>1695.1</ele>
        <time>2000-01-01T01:13:58.000Z</time>
      </trkpt>
      <trkpt lat="46.18584" lon="7.83516">
        <ele>1708</ele>
        <time>2000-01-01T01:14:08.000Z</time>
      </trkpt>
      <trkpt lat="46.18574" lon="7.83506">
        <ele>1693.9</ele>
        <time>2000-01-01T01:14:18.000Z</time>
      </trkpt>
      <trkpt lat="46.18567" lon="7.83495">
        <ele>1709</ele>
        <time>2000-01-01T01:14:28.000Z</time>
      </trkpt>
      <trkpt lat="46.18558" lon="7.83486">
        <ele>1694.1</ele>
        <time>2000-01-01T01:14:38.000Z</time>
      </trkpt>
      <trkpt lat="46.18549" lon="7.83479">
        <ele>1711</ele>
        <time>2000-01-01T01:14:48.000Z</time>
      </trkpt>
      <trkpt lat="46.18532" lon="7.83461">
        <ele>1711</ele>
        <time>2000-01-01T01:14:58.000Z</time>
      </trkpt>
      <trkpt lat="46.18513" lon="7.83445">
        <ele>1713</ele>
        <time>2000-01-01T01:15:08.000Z</time>
      </trkpt>
      <trkpt lat="46.18487" lon="7.83413">
        <ele>1712</ele>
        <time>2000-01-01T01:15:18.000Z</time>
      </trkpt>
      <trkpt lat="46.18478" lon="7.83403">
        <ele>1696.9</ele>
        <time>2000-01-01T01:15:28.000Z</time>
      </trkpt>
      <trkpt lat="46.18471" lon="7.83394">
        <ele>1711</ele>
        <time>2000-01-01T01:15:38.000Z</time>
      </trkpt>
      <trkpt lat="46.18453" lon="7.83376">
        <ele>1711</ele>
        <time>2000-01-01T01:15:48.000Z</time>
      </trkpt>
      <trkpt lat="46.18445" lon="7.83366">
        <ele>1697.2</ele>
        <time>2000-01-01T01:15:58.000Z</time>
      </trkpt>
      <trkpt lat="46.18435" lon="7.83357">
        <ele>1712</ele>
        <time>2000-01-01T01:16:08.000Z</time>
      </trkpt>
      <trkpt lat="46.18425" lon="7.83347">
        <ele>1698.4</ele>
        <time>2000-01-01T01:16:18.000Z</time>
      </trkpt>
      <trkpt lat="46.18417" lon="7.83336">
        <ele>1712</ele>
        <time>2000-01-01T01:16:28.000Z</time>
      </trkpt>
      <trkpt lat="46.18408" lon="7.83325">
        <ele>1698.7</ele>
        <time>2000-01-01T01:16:38.000Z</time>
      </trkpt>
      <trkpt lat="46.18399" lon="7.83315">
        <ele>1712</ele>
        <time>2000-01-01T01:16:48.000Z</time>
      </trkpt>
      <trkpt lat="46.18388" lon="7.83316">
        <ele>1700.9</ele>
        <time>2000-01-01T01:16:58.000Z</time>
      </trkpt>
      <trkpt lat="46.18376" lon="7.83307">
        <ele>1712</ele>
        <time>2000-01-01T01:17:08.000Z</time>
      </trkpt>
      <trkpt lat="46.18377" lon="7.83293">
        <ele>1701.9</ele>
        <time>2000-01-01T01:17:18.000Z</time>
      </trkpt>
      <trkpt lat="46.18372" lon="7.83282">
        <ele>1713</ele>
        <time>2000-01-01T01:17:28.000Z</time>
      </trkpt>
      <trkpt lat="46.18367" lon="7.83269">
        <ele>1701.7</ele>
        <time>2000-01-01T01:17:38.000Z</time>
      </trkpt>
      <trkpt lat="46.18359" lon="7.83259">
        <ele>1712</ele>
        <time>2000-01-01T01:17:48.000Z</time>
      </trkpt>
      <trkpt lat="46.18358" lon="7.83244">
        <ele>1700.7</ele>
        <time>2000-01-01T01:17:58.000Z</time>
      </trkpt>
      <trkpt lat="46.18356" lon="7.8323">
        <ele>1712</ele>
        <time>2000-01-01T01:18:08.000Z</time>
      </trkpt>
      <trkpt lat="46.18348" lon="7.8322">
        <ele>1701.9</ele>
        <time>2000-01-01T01:18:18.000Z</time>
      </trkpt>
      <trkpt lat="46.18332" lon="7.83204">
        <ele>1714</ele>
        <time>2000-01-01T01:18:28.000Z</time>
      </trkpt>
      <trkpt lat="46.18324" lon="7.83192">
        <ele>1702.7</ele>
        <time>2000-01-01T01:18:38.000Z</time>
      </trkpt>
      <trkpt lat="46.18318" lon="7.8318">
        <ele>1714</ele>
        <time>2000-01-01T01:18:48.000Z</time>
      </trkpt>
      <trkpt lat="46.18312" lon="7.83169">
        <ele>1703.5</ele>
        <time>2000-01-01T01:18:58.000Z</time>
      </trkpt>
      <trkpt lat="46.18307" lon="7.83157">
        <ele>1714</ele>
        <time>2000-01-01T01:19:08.000Z</time>
      </trkpt>
      <trkpt lat="46.18293" lon="7.83142">
        <ele>1702.4</ele>
        <time>2000-01-01T01:19:18.000Z</time>
      </trkpt>
      <trkpt lat="46.18285" lon="7.83131">
        <ele>1715</ele>
        <time>2000-01-01T01:19:28.000Z</time>
      </trkpt>
      <trkpt lat="46.18276" lon="7.83133">
        <ele>1702.9</ele>
        <time>2000-01-01T01:19:38.000Z</time>
      </trkpt>
      <trkpt lat="46.18266" lon="7.83139">
        <ele>1716</ele>
        <time>2000-01-01T01:19:48.000Z</time>
      </trkpt>
      <trkpt lat="46.18261" lon="7.83127">
        <ele>1704.7</ele>
        <time>2000-01-01T01:19:58.000Z</time>
      </trkpt>
      <trkpt lat="46.18255" lon="7.83116">
        <ele>1718</ele>
        <time>2000-01-01T01:20:08.000Z</time>
      </trkpt>
      <trkpt lat="46.18249" lon="7.83103">
        <ele>1703.4</ele>
        <time>2000-01-01T01:20:18.000Z</time>
      </trkpt>
      <trkpt lat="46.18239" lon="7.83098">
        <ele>1718</ele>
        <time>2000-01-01T01:20:28.000Z</time>
      </trkpt>
      <trkpt lat="46.18229" lon="7.83095">
        <ele>1703.2</ele>
        <time>2000-01-01T01:20:38.000Z</time>
      </trkpt>
      <trkpt lat="46.18221" lon="7.83087">
        <ele>1718</ele>
        <time>2000-01-01T01:20:48.000Z</time>
      </trkpt>
      <trkpt lat="46.18212" lon="7.83077">
        <ele>1698.1</ele>
        <time>2000-01-01T01:20:58.000Z</time>
      </trkpt>
      <trkpt lat="46.18202" lon="7.83081">
        <ele>1720</ele>
        <time>2000-01-01T01:21:08.000Z</time>
      </trkpt>
      <trkpt lat="46.18191" lon="7.8308">
        <ele>1700.2</ele>
        <time>2000-01-01T01:21:18.000Z</time>
      </trkpt>
      <trkpt lat="46.1818" lon="7.83076">
        <ele>1720</ele>
        <time>2000-01-01T01:21:28.000Z</time>
      </trkpt>
      <trkpt lat="46.18169" lon="7.83068">
        <ele>1698.3</ele>
        <time>2000-01-01T01:21:38.000Z</time>
      </trkpt>
      <trkpt lat="46.18139" lon="7.83052">
        <ele>1726</ele>
        <time>2000-01-01T01:21:48.000Z</time>
      </trkpt>
      <trkpt lat="46.1813" lon="7.83044">
        <ele>1703</ele>
        <time>2000-01-01T01:21:58.000Z</time>
      </trkpt>
      <trkpt lat="46.18115" lon="7.8303">
        <ele>1725</ele>
        <time>2000-01-01T01:22:08.000Z</time>
      </trkpt>
      <trkpt lat="46.18107" lon="7.8302">
        <ele>1704.4</ele>
        <time>2000-01-01T01:22:18.000Z</time>
      </trkpt>
      <trkpt lat="46.18101" lon="7.83008">
        <ele>1725</ele>
        <time>2000-01-01T01:22:28.000Z</time>
      </trkpt>
      <trkpt lat="46.18097" lon="7.82995">
        <ele>1704.1</ele>
        <time>2000-01-01T01:22:38.000Z</time>
      </trkpt>
      <trkpt lat="46.1809" lon="7.82982">
        <ele>1732</ele>
        <time>2000-01-01T01:22:48.000Z</time>
      </trkpt>
      <trkpt lat="46.18079" lon="7.82958">
        <ele>1731</ele>
        <time>2000-01-01T01:22:58.000Z</time>
      </trkpt>
      <trkpt lat="46.18077" lon="7.82942">
        <ele>1707.4</ele>
        <time>2000-01-01T01:23:08.000Z</time>
      </trkpt>
      <trkpt lat="46.18072" lon="7.82929">
        <ele>1731</ele>
        <time>2000-01-01T01:23:18.000Z</time>
      </trkpt>
      <trkpt lat="46.18067" lon="7.829">
        <ele>1735</ele>
        <time>2000-01-01T01:23:28.000Z</time>
      </trkpt>
      <trkpt lat="46.18066" lon="7.82884">
        <ele>1711.4</ele>
        <time>2000-01-01T01:23:38.000Z</time>
      </trkpt>
      <trkpt lat="46.18064" lon="7.8287">
        <ele>1735</ele>
        <time>2000-01-01T01:23:48.000Z</time>
      </trkpt>
      <trkpt lat="46.18061" lon="7.82839">
        <ele>1736</ele>
        <time>2000-01-01T01:23:58.000Z</time>
      </trkpt>
      <trkpt lat="46.18057" lon="7.82808">
        <ele>1735</ele>
        <time>2000-01-01T01:24:08.000Z</time>
      </trkpt>
      <trkpt lat="46.18053" lon="7.82794">
        <ele>1714</ele>
        <time>2000-01-01T01:24:18.000Z</time>
      </trkpt>
      <trkpt lat="46.18051" lon="7.82779">
        <ele>1735</ele>
        <time>2000-01-01T01:24:28.000Z</time>
      </trkpt>
      <trkpt lat="46.18053" lon="7.8275">
        <ele>1727</ele>
        <time>2000-01-01T01:24:38.000Z</time>
      </trkpt>
      <trkpt lat="46.1805" lon="7.82735">
        <ele>1712.8</ele>
        <time>2000-01-01T01:24:48.000Z</time>
      </trkpt>
      <trkpt lat="46.18044" lon="7.82723">
        <ele>1720</ele>
        <time>2000-01-01T01:24:58.000Z</time>
      </trkpt>
      <trkpt lat="46.18035" lon="7.82714">
        <ele>1713.6</ele>
        <time>2000-01-01T01:25:08.000Z</time>
      </trkpt>
      <trkpt lat="46.18021" lon="7.8269">
        <ele>1714</ele>
        <time>2000-01-01T01:25:18.000Z</time>
      </trkpt>
      <trkpt lat="46.18012" lon="7.82682">
        <ele>1712.8</ele>
        <time>2000-01-01T01:25:28.000Z</time>
      </trkpt>
      <trkpt lat="46.18002" lon="7.82676">
        <ele>1714</ele>
        <time>2000-01-01T01:25:38.000Z</time>
      </trkpt>
      <trkpt lat="46.17985" lon="7.82666">
        <ele>1712.9</ele>
        <time>2000-01-01T01:25:48.000Z</time>
      </trkpt>
      <trkpt lat="46.17964" lon="7.82663">
        <ele>1713</ele>
        <time>2000-01-01T01:25:58.000Z</time>
      </trkpt>
      <trkpt lat="46.17954" lon="7.8266">
        <ele>1714.9</ele>
        <time>2000-01-01T01:26:08.000Z</time>
      </trkpt>
      <trkpt lat="46.17935" lon="7.82649">
        <ele>1713</ele>
        <time>2000-01-01T01:26:18.000Z</time>
      </trkpt>
      <trkpt lat="46.17913" lon="7.82648">
        <ele>1713</ele>
        <time>2000-01-01T01:26:28.000Z</time>
      </trkpt>
      <trkpt lat="46.17893" lon="7.82651">
        <ele>1713</ele>
        <time>2000-01-01T01:26:38.000Z</time>
      </trkpt>
      <trkpt lat="46.17877" lon="7.82655">
        <ele>1715.7</ele>
        <time>2000-01-01T01:26:48.000Z</time>
      </trkpt>
      <trkpt lat="46.17868" lon="7.82658">
        <ele>1714</ele>
        <time>2000-01-01T01:26:58.000Z</time>
      </trkpt>
      <trkpt lat="46.17859" lon="7.82659">
        <ele>1716</ele>
        <time>2000-01-01T01:27:08.000Z</time>
      </trkpt>
      <trkpt lat="46.17845" lon="7.82667">
        <ele>1716</ele>
        <time>2000-01-01T01:27:18.000Z</time>
      </trkpt>
      <trkpt lat="46.17832" lon="7.82671">
        <ele>1717.9</ele>
        <time>2000-01-01T01:27:28.000Z</time>
      </trkpt>
      <trkpt lat="46.17819" lon="7.82676">
        <ele>1717</ele>
        <time>2000-01-01T01:27:38.000Z</time>
      </trkpt>
      <trkpt lat="46.17807" lon="7.82685">
        <ele>1718.8</ele>
        <time>2000-01-01T01:27:48.000Z</time>
      </trkpt>
      <trkpt lat="46.17782" lon="7.82697">
        <ele>1719</ele>
        <time>2000-01-01T01:27:58.000Z</time>
      </trkpt>
      <trkpt lat="46.17768" lon="7.82703">
        <ele>1719</ele>
        <time>2000-01-01T01:28:08.000Z</time>
      </trkpt>
      <trkpt lat="46.17744" lon="7.82719">
        <ele>1719</ele>
        <time>2000-01-01T01:28:18.000Z</time>
      </trkpt>
      <trkpt lat="46.17731" lon="7.82724">
        <ele>1719.7</ele>
        <time>2000-01-01T01:28:28.000Z</time>
      </trkpt>
      <trkpt lat="46.17717" lon="7.82723">
        <ele>1718</ele>
        <time>2000-01-01T01:28:38.000Z</time>
      </trkpt>
      <trkpt lat="46.17703" lon="7.82719">
        <ele>1719.7</ele>
        <time>2000-01-01T01:28:48.000Z</time>
      </trkpt>
      <trkpt lat="46.17689" lon="7.82716">
        <ele>1718</ele>
        <time>2000-01-01T01:28:58.000Z</time>
      </trkpt>
      <trkpt lat="46.17677" lon="7.82725">
        <ele>1718.7</ele>
        <time>2000-01-01T01:29:08.000Z</time>
      </trkpt>
      <trkpt lat="46.17664" lon="7.82739">
        <ele>1721</ele>
        <time>2000-01-01T01:29:18.000Z</time>
      </trkpt>
      <trkpt lat="46.17645" lon="7.82736">
        <ele>1721</ele>
        <time>2000-01-01T01:29:28.000Z</time>
      </trkpt>
      <trkpt lat="46.17637" lon="7.8273">
        <ele>1719.2</ele>
        <time>2000-01-01T01:29:38.000Z</time>
      </trkpt>
      <trkpt lat="46.17627" lon="7.82729">
        <ele>1718</ele>
        <time>2000-01-01T01:29:48.000Z</time>
      </trkpt>
      <trkpt lat="46.17617" lon="7.8273">
        <ele>1719.3</ele>
        <time>2000-01-01T01:29:58.000Z</time>
      </trkpt>
      <trkpt lat="46.17607" lon="7.82729">
        <ele>1718</ele>
        <time>2000-01-01T01:30:08.000Z</time>
      </trkpt>
      <trkpt lat="46.17573" lon="7.82721">
        <ele>1719</ele>
        <time>2000-01-01T01:30:18.000Z</time>
      </trkpt>
      <trkpt lat="46.17562" lon="7.82714">
        <ele>1719.3</ele>
        <time>2000-01-01T01:30:28.000Z</time>
      </trkpt>
      <trkpt lat="46.17543" lon="7.82694">
        <ele>1718</ele>
        <time>2000-01-01T01:30:38.000Z</time>
      </trkpt>
      <trkpt lat="46.17533" lon="7.82692">
        <ele>1717.6</ele>
        <time>2000-01-01T01:30:48.000Z</time>
      </trkpt>
      <trkpt lat="46.1751" lon="7.82692">
        <ele>1718</ele>
        <time>2000-01-01T01:30:58.000Z</time>
      </trkpt>
      <trkpt lat="46.17499" lon="7.82697">
        <ele>1718.2</ele>
        <time>2000-01-01T01:31:08.000Z</time>
      </trkpt>
      <trkpt lat="46.17488" lon="7.82703">
        <ele>1720</ele>
        <time>2000-01-01T01:31:18.000Z</time>
      </trkpt>
      <trkpt lat="46.1747" lon="7.82716">
        <ele>1720</ele>
        <time>2000-01-01T01:31:28.000Z</time>
      </trkpt>
      <trkpt lat="46.17461" lon="7.82721">
        <ele>1721.7</ele>
        <time>2000-01-01T01:31:38.000Z</time>
      </trkpt>
      <trkpt lat="46.17449" lon="7.82726">
        <ele>1720</ele>
        <time>2000-01-01T01:31:48.000Z</time>
      </trkpt>
      <trkpt lat="46.17431" lon="7.82739">
        <ele>1723</ele>
        <time>2000-01-01T01:31:58.000Z</time>
      </trkpt>
      <trkpt lat="46.17414" lon="7.82761">
        <ele>1723</ele>
        <time>2000-01-01T01:32:08.000Z</time>
      </trkpt>
      <trkpt lat="46.17406" lon="7.8277">
        <ele>1725.2</ele>
        <time>2000-01-01T01:32:18.000Z</time>
      </trkpt>
      <trkpt lat="46.17394" lon="7.82778">
        <ele>1724</ele>
        <time>2000-01-01T01:32:28.000Z</time>
      </trkpt>
      <trkpt lat="46.17384" lon="7.82786">
        <ele>1720.2</ele>
        <time>2000-01-01T01:32:38.000Z</time>
      </trkpt>
      <trkpt lat="46.17375" lon="7.82796">
        <ele>1725</ele>
        <time>2000-01-01T01:32:48.000Z</time>
      </trkpt>
      <trkpt lat="46.17366" lon="7.82808">
        <ele>1722.8</ele>
        <time>2000-01-01T01:32:58.000Z</time>
      </trkpt>
      <trkpt lat="46.17357" lon="7.82816">
        <ele>1734</ele>
        <time>2000-01-01T01:33:08.000Z</time>
      </trkpt>
      <trkpt lat="46.1735" lon="7.82829">
        <ele>1725.7</ele>
        <time>2000-01-01T01:33:18.000Z</time>
      </trkpt>
      <trkpt lat="46.17339" lon="7.82837">
        <ele>1733</ele>
        <time>2000-01-01T01:33:28.000Z</time>
      </trkpt>
      <trkpt lat="46.17328" lon="7.82843">
        <ele>1723.4</ele>
        <time>2000-01-01T01:33:38.000Z</time>
      </trkpt>
      <trkpt lat="46.17319" lon="7.82852">
        <ele>1733</ele>
        <time>2000-01-01T01:33:48.000Z</time>
      </trkpt>
      <trkpt lat="46.17311" lon="7.82861">
        <ele>1724.9</ele>
        <time>2000-01-01T01:33:58.000Z</time>
      </trkpt>
      <trkpt lat="46.17303" lon="7.82874">
        <ele>1730</ele>
        <time>2000-01-01T01:34:08.000Z</time>
      </trkpt>
      <trkpt lat="46.17293" lon="7.82881">
        <ele>1724.1</ele>
        <time>2000-01-01T01:34:18.000Z</time>
      </trkpt>
      <trkpt lat="46.17283" lon="7.82886">
        <ele>1726</ele>
        <time>2000-01-01T01:34:28.000Z</time>
      </trkpt>
      <trkpt lat="46.17273" lon="7.82896">
        <ele>1724</ele>
        <time>2000-01-01T01:34:38.000Z</time>
      </trkpt>
      <trkpt lat="46.17251" lon="7.829">
        <ele>1727</ele>
        <time>2000-01-01T01:34:48.000Z</time>
      </trkpt>
      <trkpt lat="46.17242" lon="7.82908">
        <ele>1722.7</ele>
        <time>2000-01-01T01:34:58.000Z</time>
      </trkpt>
      <trkpt lat="46.17236" lon="7.82922">
        <ele>1728</ele>
        <time>2000-01-01T01:35:08.000Z</time>
      </trkpt>
      <trkpt lat="46.17228" lon="7.82931">
        <ele>1723.2</ele>
        <time>2000-01-01T01:35:18.000Z</time>
      </trkpt>
      <trkpt lat="46.1722" lon="7.8294">
        <ele>1735</ele>
        <time>2000-01-01T01:35:28.000Z</time>
      </trkpt>
      <trkpt lat="46.1721" lon="7.82946">
        <ele>1723</ele>
        <time>2000-01-01T01:35:38.000Z</time>
      </trkpt>
      <trkpt lat="46.17201" lon="7.82951">
        <ele>1729</ele>
        <time>2000-01-01T01:35:48.000Z</time>
      </trkpt>
      <trkpt lat="46.1719" lon="7.82951">
        <ele>1721.4</ele>
        <time>2000-01-01T01:35:58.000Z</time>
      </trkpt>
      <trkpt lat="46.17167" lon="7.82948">
        <ele>1723</ele>
        <time>2000-01-01T01:36:08.000Z</time>
      </trkpt>
      <trkpt lat="46.17155" lon="7.82948">
        <ele>1715.9</ele>
        <time>2000-01-01T01:36:18.000Z</time>
      </trkpt>
      <trkpt lat="46.17145" lon="7.82948">
        <ele>1723</ele>
        <time>2000-01-01T01:36:28.000Z</time>
      </trkpt>
      <trkpt lat="46.17124" lon="7.82951">
        <ele>1721</ele>
        <time>2000-01-01T01:36:38.000Z</time>
      </trkpt>
      <trkpt lat="46.17111" lon="7.82951">
        <ele>1712.4</ele>
        <time>2000-01-01T01:36:48.000Z</time>
      </trkpt>
      <trkpt lat="46.171" lon="7.8295">
        <ele>1722</ele>
        <time>2000-01-01T01:36:58.000Z</time>
      </trkpt>
      <trkpt lat="46.1709" lon="7.82951">
        <ele>1712.4</ele>
        <time>2000-01-01T01:37:08.000Z</time>
      </trkpt>
      <trkpt lat="46.17079" lon="7.82945">
        <ele>1717</ele>
        <time>2000-01-01T01:37:18.000Z</time>
      </trkpt>
      <trkpt lat="46.17082" lon="7.8293">
        <ele>1704.8</ele>
        <time>2000-01-01T01:37:28.000Z</time>
      </trkpt>
      <trkpt lat="46.17103" lon="7.8292">
        <ele>1712</ele>
        <time>2000-01-01T01:37:38.000Z</time>
      </trkpt>
      <trkpt lat="46.17123" lon="7.82913">
        <ele>1711</ele>
        <time>2000-01-01T01:37:48.000Z</time>
      </trkpt>
      <trkpt lat="46.17133" lon="7.82906">
        <ele>1696.9</ele>
        <time>2000-01-01T01:37:58.000Z</time>
      </trkpt>
      <trkpt lat="46.17143" lon="7.82902">
        <ele>1710</ele>
        <time>2000-01-01T01:38:08.000Z</time>
      </trkpt>
      <trkpt lat="46.17154" lon="7.82898">
        <ele>1695</ele>
        <time>2000-01-01T01:38:18.000Z</time>
      </trkpt>
      <trkpt lat="46.17164" lon="7.82892">
        <ele>1707</ele>
        <time>2000-01-01T01:38:28.000Z</time>
      </trkpt>
      <trkpt lat="46.17174" lon="7.82888">
        <ele>1692.5</ele>
        <time>2000-01-01T01:38:38.000Z</time>
      </trkpt>
      <trkpt lat="46.17185" lon="7.82881">
        <ele>1700</ele>
        <time>2000-01-01T01:38:48.000Z</time>
      </trkpt>
      <trkpt lat="46.17194" lon="7.82874">
        <ele>1690.1</ele>
        <time>2000-01-01T01:38:58.000Z</time>
      </trkpt>
      <trkpt lat="46.17203" lon="7.82866">
        <ele>1691</ele>
        <time>2000-01-01T01:39:08.000Z</time>
      </trkpt>
      <trkpt lat="46.17211" lon="7.82857">
        <ele>1689.9</ele>
        <time>2000-01-01T01:39:18.000Z</time>
      </trkpt>
      <trkpt lat="46.17224" lon="7.82833">
        <ele>1688</ele>
        <time>2000-01-01T01:39:28.000Z</time>
      </trkpt>
      <trkpt lat="46.17232" lon="7.82822">
        <ele>1684.8</ele>
        <time>2000-01-01T01:39:38.000Z</time>
      </trkpt>
      <trkpt lat="46.17241" lon="7.82812">
        <ele>1686</ele>
        <time>2000-01-01T01:39:48.000Z</time>
      </trkpt>
      <trkpt lat="46.17248" lon="7.828">
        <ele>1682.8</ele>
        <time>2000-01-01T01:39:58.000Z</time>
      </trkpt>
      <trkpt lat="46.17222" lon="7.82828">
        <ele>1683</ele>
        <time>2000-01-01T01:40:08.000Z</time>
      </trkpt>
      <trkpt lat="46.17202" lon="7.82843">
        <ele>1683</ele>
        <time>2000-01-01T01:40:18.000Z</time>
      </trkpt>
      <trkpt lat="46.17192" lon="7.82848">
        <ele>1680.9</ele>
        <time>2000-01-01T01:40:28.000Z</time>
      </trkpt>
      <trkpt lat="46.17182" lon="7.82853">
        <ele>1683</ele>
        <time>2000-01-01T01:40:38.000Z</time>
      </trkpt>
      <trkpt lat="46.17171" lon="7.82854">
        <ele>1679.4</ele>
        <time>2000-01-01T01:40:48.000Z</time>
      </trkpt>
      <trkpt lat="46.17118" lon="7.82842">
        <ele>1678</ele>
        <time>2000-01-01T01:40:58.000Z</time>
      </trkpt>
      <trkpt lat="46.17096" lon="7.8284">
        <ele>1676</ele>
        <time>2000-01-01T01:41:08.000Z</time>
      </trkpt>
      <trkpt lat="46.17085" lon="7.82834">
        <ele>1674.3</ele>
        <time>2000-01-01T01:41:18.000Z</time>
      </trkpt>
      <trkpt lat="46.17077" lon="7.82823">
        <ele>1677</ele>
        <time>2000-01-01T01:41:28.000Z</time>
      </trkpt>
      <trkpt lat="46.17064" lon="7.82799">
        <ele>1678</ele>
        <time>2000-01-01T01:41:38.000Z</time>
      </trkpt>
      <trkpt lat="46.17059" lon="7.82782">
        <ele>1671.3</ele>
        <time>2000-01-01T01:41:48.000Z</time>
      </trkpt>
      <trkpt lat="46.17058" lon="7.82767">
        <ele>1678</ele>
        <time>2000-01-01T01:41:58.000Z</time>
      </trkpt>
      <trkpt lat="46.1706" lon="7.8275">
        <ele>1668.2</ele>
        <time>2000-01-01T01:42:08.000Z</time>
      </trkpt>
      <trkpt lat="46.17062" lon="7.82736">
        <ele>1678</ele>
        <time>2000-01-01T01:42:18.000Z</time>
      </trkpt>
      <trkpt lat="46.17067" lon="7.8272">
        <ele>1668.5</ele>
        <time>2000-01-01T01:42:28.000Z</time>
      </trkpt>
      <trkpt lat="46.17073" lon="7.82704">
        <ele>1690</ele>
        <time>2000-01-01T01:42:38.000Z</time>
      </trkpt>
      <trkpt lat="46.17086" lon="7.82678">
        <ele>1685</ele>
        <time>2000-01-01T01:42:48.000Z</time>
      </trkpt>
      <trkpt lat="46.17102" lon="7.82657">
        <ele>1681</ele>
        <time>2000-01-01T01:42:58.000Z</time>
      </trkpt>
      <trkpt lat="46.17109" lon="7.82646">
        <ele>1664.6</ele>
        <time>2000-01-01T01:43:08.000Z</time>
      </trkpt>
      <trkpt lat="46.17115" lon="7.82634">
        <ele>1680</ele>
        <time>2000-01-01T01:43:18.000Z</time>
      </trkpt>
      <trkpt lat="46.17123" lon="7.82622">
        <ele>1662</ele>
        <time>2000-01-01T01:43:28.000Z</time>
      </trkpt>
      <trkpt lat="46.17128" lon="7.82609">
        <ele>1680</ele>
        <time>2000-01-01T01:43:38.000Z</time>
      </trkpt>
      <trkpt lat="46.17132" lon="7.82593">
        <ele>1660.7</ele>
        <time>2000-01-01T01:43:48.000Z</time>
      </trkpt>
      <trkpt lat="46.17135" lon="7.82578">
        <ele>1681</ele>
        <time>2000-01-01T01:43:58.000Z</time>
      </trkpt>
      <trkpt lat="46.17136" lon="7.82562">
        <ele>1661.4</ele>
        <time>2000-01-01T01:44:08.000Z</time>
      </trkpt>
      <trkpt lat="46.17145" lon="7.82533">
        <ele>1682</ele>
        <time>2000-01-01T01:44:18.000Z</time>
      </trkpt>
      <trkpt lat="46.17156" lon="7.82506">
        <ele>1683</ele>
        <time>2000-01-01T01:44:28.000Z</time>
      </trkpt>
      <trkpt lat="46.1716" lon="7.82492">
        <ele>1658</ele>
        <time>2000-01-01T01:44:38.000Z</time>
      </trkpt>
      <trkpt lat="46.17168" lon="7.82462">
        <ele>1684</ele>
        <time>2000-01-01T01:44:48.000Z</time>
      </trkpt>
      <trkpt lat="46.17178" lon="7.82435">
        <ele>1681</ele>
        <time>2000-01-01T01:44:58.000Z</time>
      </trkpt>
      <trkpt lat="46.1719" lon="7.82405">
        <ele>1679</ele>
        <time>2000-01-01T01:45:08.000Z</time>
      </trkpt>
      <trkpt lat="46.17196" lon="7.82392">
        <ele>1656.3</ele>
        <time>2000-01-01T01:45:18.000Z</time>
      </trkpt>
      <trkpt lat="46.17203" lon="7.82379">
        <ele>1678</ele>
        <time>2000-01-01T01:45:28.000Z</time>
      </trkpt>
      <trkpt lat="46.17205" lon="7.82363">
        <ele>1656.3</ele>
        <time>2000-01-01T01:45:38.000Z</time>
      </trkpt>
      <trkpt lat="46.17205" lon="7.82347">
        <ele>1678</ele>
        <time>2000-01-01T01:45:48.000Z</time>
      </trkpt>
      <trkpt lat="46.17207" lon="7.82331">
        <ele>1657.1</ele>
        <time>2000-01-01T01:45:58.000Z</time>
      </trkpt>
      <trkpt lat="46.17213" lon="7.82301">
        <ele>1678</ele>
        <time>2000-01-01T01:46:08.000Z</time>
      </trkpt>
      <trkpt lat="46.1721" lon="7.82276">
        <ele>1657.9</ele>
        <time>2000-01-01T01:46:18.000Z</time>
      </trkpt>
      <trkpt lat="46.17201" lon="7.82265">
        <ele>1688</ele>
        <time>2000-01-01T01:46:28.000Z</time>
      </trkpt>
      <trkpt lat="46.17196" lon="7.8225">
        <ele>1657.6</ele>
        <time>2000-01-01T01:46:38.000Z</time>
      </trkpt>
      <trkpt lat="46.17198" lon="7.82232">
        <ele>1690</ele>
        <time>2000-01-01T01:46:48.000Z</time>
      </trkpt>
      <trkpt lat="46.17203" lon="7.82218">
        <ele>1658.4</ele>
        <time>2000-01-01T01:46:58.000Z</time>
      </trkpt>
      <trkpt lat="46.17209" lon="7.82206">
        <ele>1688</ele>
        <time>2000-01-01T01:47:08.000Z</time>
      </trkpt>
      <trkpt lat="46.17215" lon="7.82196">
        <ele>1655</ele>
        <time>2000-01-01T01:47:18.000Z</time>
      </trkpt>
      <trkpt lat="46.17223" lon="7.82182">
        <ele>1689</ele>
        <time>2000-01-01T01:47:28.000Z</time>
      </trkpt>
      <trkpt lat="46.17228" lon="7.8217">
        <ele>1654</ele>
        <time>2000-01-01T01:47:38.000Z</time>
      </trkpt>
      <trkpt lat="46.17238" lon="7.82141">
        <ele>1688</ele>
        <time>2000-01-01T01:47:48.000Z</time>
      </trkpt>
      <trkpt lat="46.17254" lon="7.82117">
        <ele>1688</ele>
        <time>2000-01-01T01:47:58.000Z</time>
      </trkpt>
      <trkpt lat="46.17265" lon="7.82091">
        <ele>1686</ele>
        <time>2000-01-01T01:48:08.000Z</time>
      </trkpt>
      <trkpt lat="46.1727" lon="7.82077">
        <ele>1651.1</ele>
        <time>2000-01-01T01:48:18.000Z</time>
      </trkpt>
      <trkpt lat="46.17274" lon="7.8206">
        <ele>1684</ele>
        <time>2000-01-01T01:48:28.000Z</time>
      </trkpt>
      <trkpt lat="46.17279" lon="7.82047">
        <ele>1649.4</ele>
        <time>2000-01-01T01:48:38.000Z</time>
      </trkpt>
      <trkpt lat="46.17283" lon="7.82033">
        <ele>1680</ele>
        <time>2000-01-01T01:48:48.000Z</time>
      </trkpt>
      <trkpt lat="46.17282" lon="7.82018">
        <ele>1648.5</ele>
        <time>2000-01-01T01:48:58.000Z</time>
      </trkpt>
      <trkpt lat="46.17277" lon="7.82005">
        <ele>1672</ele>
        <time>2000-01-01T01:49:08.000Z</time>
      </trkpt>
      <trkpt lat="46.17272" lon="7.8199">
        <ele>1649.1</ele>
        <time>2000-01-01T01:49:18.000Z</time>
      </trkpt>
      <trkpt lat="46.17271" lon="7.81974">
        <ele>1661</ele>
        <time>2000-01-01T01:49:28.000Z</time>
      </trkpt>
      <trkpt lat="46.17271" lon="7.81957">
        <ele>1647.7</ele>
        <time>2000-01-01T01:49:38.000Z</time>
      </trkpt>
      <trkpt lat="46.17273" lon="7.8194">
        <ele>1655</ele>
        <time>2000-01-01T01:49:48.000Z</time>
      </trkpt>
      <trkpt lat="46.17274" lon="7.81926">
        <ele>1645.5</ele>
        <time>2000-01-01T01:49:58.000Z</time>
      </trkpt>
      <trkpt lat="46.17268" lon="7.81912">
        <ele>1654</ele>
        <time>2000-01-01T01:50:08.000Z</time>
      </trkpt>
      <trkpt lat="46.17259" lon="7.81899">
        <ele>1646.8</ele>
        <time>2000-01-01T01:50:18.000Z</time>
      </trkpt>
      <trkpt lat="46.17244" lon="7.81877">
        <ele>1654</ele>
        <time>2000-01-01T01:50:28.000Z</time>
      </trkpt>
      <trkpt lat="46.17234" lon="7.81869">
        <ele>1643.5</ele>
        <time>2000-01-01T01:50:38.000Z</time>
      </trkpt>
      <trkpt lat="46.17225" lon="7.81861">
        <ele>1667</ele>
        <time>2000-01-01T01:50:48.000Z</time>
      </trkpt>
      <trkpt lat="46.1722" lon="7.81849">
        <ele>1641.3</ele>
        <time>2000-01-01T01:50:58.000Z</time>
      </trkpt>
      <trkpt lat="46.17217" lon="7.81832">
        <ele>1667</ele>
        <time>2000-01-01T01:51:08.000Z</time>
      </trkpt>
      <trkpt lat="46.17211" lon="7.81799">
        <ele>1655</ele>
        <time>2000-01-01T01:51:18.000Z</time>
      </trkpt>
      <trkpt lat="46.1721" lon="7.81785">
        <ele>1639.7</ele>
        <time>2000-01-01T01:51:28.000Z</time>
      </trkpt>
      <trkpt lat="46.1721" lon="7.81769">
        <ele>1656</ele>
        <time>2000-01-01T01:51:38.000Z</time>
      </trkpt>
      <trkpt lat="46.17208" lon="7.8174">
        <ele>1657</ele>
        <time>2000-01-01T01:51:48.000Z</time>
      </trkpt>
      <trkpt lat="46.17208" lon="7.81725">
        <ele>1637.8</ele>
        <time>2000-01-01T01:51:58.000Z</time>
      </trkpt>
      <trkpt lat="46.17209" lon="7.81692">
        <ele>1654</ele>
        <time>2000-01-01T01:52:08.000Z</time>
      </trkpt>
      <trkpt lat="46.17206" lon="7.81674">
        <ele>1633.1</ele>
        <time>2000-01-01T01:52:18.000Z</time>
      </trkpt>
      <trkpt lat="46.17205" lon="7.81658">
        <ele>1655</ele>
        <time>2000-01-01T01:52:28.000Z</time>
      </trkpt>
      <trkpt lat="46.17198" lon="7.81628">
        <ele>1652</ele>
        <time>2000-01-01T01:52:38.000Z</time>
      </trkpt>
      <trkpt lat="46.17195" lon="7.81612">
        <ele>1626.8</ele>
        <time>2000-01-01T01:52:48.000Z</time>
      </trkpt>
      <trkpt lat="46.17193" lon="7.81595">
        <ele>1650</ele>
        <time>2000-01-01T01:52:58.000Z</time>
      </trkpt>
      <trkpt lat="46.1719" lon="7.81579">
        <ele>1623.8</ele>
        <time>2000-01-01T01:53:08.000Z</time>
      </trkpt>
      <trkpt lat="46.17182" lon="7.81534">
        <ele>1638</ele>
        <time>2000-01-01T01:53:18.000Z</time>
      </trkpt>
      <trkpt lat="46.1718" lon="7.81519">
        <ele>1618.4</ele>
        <time>2000-01-01T01:53:28.000Z</time>
      </trkpt>
      <trkpt lat="46.17187" lon="7.81475">
        <ele>1627</ele>
        <time>2000-01-01T01:53:38.000Z</time>
      </trkpt>
      <trkpt lat="46.17185" lon="7.81461">
        <ele>1608.7</ele>
        <time>2000-01-01T01:53:48.000Z</time>
      </trkpt>
      <trkpt lat="46.17185" lon="7.81446">
        <ele>1626</ele>
        <time>2000-01-01T01:53:58.000Z</time>
      </trkpt>
      <trkpt lat="46.17188" lon="7.81417">
        <ele>1621</ele>
        <time>2000-01-01T01:54:08.000Z</time>
      </trkpt>
      <trkpt lat="46.17188" lon="7.81401">
        <ele>1597.7</ele>
        <time>2000-01-01T01:54:18.000Z</time>
      </trkpt>
      <trkpt lat="46.17186" lon="7.81387">
        <ele>1618</ele>
        <time>2000-01-01T01:54:28.000Z</time>
      </trkpt>
      <trkpt lat="46.17179" lon="7.81359">
        <ele>1616</ele>
        <time>2000-01-01T01:54:38.000Z</time>
      </trkpt>
      <trkpt lat="46.17178" lon="7.81343">
        <ele>1589.3</ele>
        <time>2000-01-01T01:54:48.000Z</time>
      </trkpt>
      <trkpt lat="46.17177" lon="7.81328">
        <ele>1612</ele>
        <time>2000-01-01T01:54:58.000Z</time>
      </trkpt>
      <trkpt lat="46.17176" lon="7.81313">
        <ele>1583.9</ele>
        <time>2000-01-01T01:55:08.000Z</time>
      </trkpt>
      <trkpt lat="46.17171" lon="7.81298">
        <ele>1613</ele>
        <time>2000-01-01T01:55:18.000Z</time>
      </trkpt>
      <trkpt lat="46.17164" lon="7.81285">
        <ele>1590.4</ele>
        <time>2000-01-01T01:55:28.000Z</time>
      </trkpt>
      <trkpt lat="46.17159" lon="7.81273">
        <ele>1607</ele>
        <time>2000-01-01T01:55:38.000Z</time>
      </trkpt>
      <trkpt lat="46.17155" lon="7.8126">
        <ele>1592.8</ele>
        <time>2000-01-01T01:55:48.000Z</time>
      </trkpt>
      <trkpt lat="46.17154" lon="7.81244">
        <ele>1605</ele>
        <time>2000-01-01T01:55:58.000Z</time>
      </trkpt>
      <trkpt lat="46.17145" lon="7.81234">
        <ele>1588.5</ele>
        <time>2000-01-01T01:56:08.000Z</time>
      </trkpt>
      <trkpt lat="46.17135" lon="7.81234">
        <ele>1606</ele>
        <time>2000-01-01T01:56:18.000Z</time>
      </trkpt>
      <trkpt lat="46.17124" lon="7.81235">
        <ele>1594.1</ele>
        <time>2000-01-01T01:56:28.000Z</time>
      </trkpt>
      <trkpt lat="46.17114" lon="7.81235">
        <ele>1604</ele>
        <time>2000-01-01T01:56:38.000Z</time>
      </trkpt>
      <trkpt lat="46.17103" lon="7.8123">
        <ele>1592</ele>
        <time>2000-01-01T01:56:48.000Z</time>
      </trkpt>
      <trkpt lat="46.17083" lon="7.81214">
        <ele>1603</ele>
        <time>2000-01-01T01:56:58.000Z</time>
      </trkpt>
      <trkpt lat="46.17073" lon="7.81213">
        <ele>1588.9</ele>
        <time>2000-01-01T01:57:08.000Z</time>
      </trkpt>
      <trkpt lat="46.17061" lon="7.81209">
        <ele>1602</ele>
        <time>2000-01-01T01:57:18.000Z</time>
      </trkpt>
      <trkpt lat="46.17051" lon="7.81202">
        <ele>1587.6</ele>
        <time>2000-01-01T01:57:28.000Z</time>
      </trkpt>
      <trkpt lat="46.17042" lon="7.81192">
        <ele>1602</ele>
        <time>2000-01-01T01:57:38.000Z</time>
      </trkpt>
      <trkpt lat="46.17032" lon="7.81186">
        <ele>1590.6</ele>
        <time>2000-01-01T01:57:48.000Z</time>
      </trkpt>
      <trkpt lat="46.17021" lon="7.81185">
        <ele>1603</ele>
        <time>2000-01-01T01:57:58.000Z</time>
      </trkpt>
      <trkpt lat="46.17014" lon="7.81176">
        <ele>1594.2</ele>
        <time>2000-01-01T01:58:08.000Z</time>
      </trkpt>
      <trkpt lat="46.17005" lon="7.81168">
        <ele>1605</ele>
        <time>2000-01-01T01:58:18.000Z</time>
      </trkpt>
      <trkpt lat="46.16997" lon="7.81158">
        <ele>1594.6</ele>
        <time>2000-01-01T01:58:28.000Z</time>
      </trkpt>
      <trkpt lat="46.16979" lon="7.81144">
        <ele>1606</ele>
        <time>2000-01-01T01:58:38.000Z</time>
      </trkpt>
      <trkpt lat="46.16958" lon="7.81138">
        <ele>1616</ele>
        <time>2000-01-01T01:58:48.000Z</time>
      </trkpt>
      <trkpt lat="46.16948" lon="7.8113">
        <ele>1603.2</ele>
        <time>2000-01-01T01:58:58.000Z</time>
      </trkpt>
      <trkpt lat="46.16938" lon="7.81121">
        <ele>1615</ele>
        <time>2000-01-01T01:59:08.000Z</time>
      </trkpt>
      <trkpt lat="46.16933" lon="7.81108">
        <ele>1601.3</ele>
        <time>2000-01-01T01:59:18.000Z</time>
      </trkpt>
      <trkpt lat="46.16924" lon="7.81098">
        <ele>1615</ele>
        <time>2000-01-01T01:59:28.000Z</time>
      </trkpt>
      <trkpt lat="46.16915" lon="7.8109">
        <ele>1604.9</ele>
        <time>2000-01-01T01:59:38.000Z</time>
      </trkpt>
      <trkpt lat="46.16907" lon="7.81079">
        <ele>1620</ele>
        <time>2000-01-01T01:59:48.000Z</time>
      </trkpt>
      <trkpt lat="46.16899" lon="7.81068">
        <ele>1605.3</ele>
        <time>2000-01-01T01:59:58.000Z</time>
      </trkpt>
      <trkpt lat="46.1689" lon="7.81062">
        <ele>1625</ele>
        <time>2000-01-01T02:00:08.000Z</time>
      </trkpt>
      <trkpt lat="46.16873" lon="7.81044">
        <ele>1630</ele>
        <time>2000-01-01T02:00:18.000Z</time>
      </trkpt>
      <trkpt lat="46.16864" lon="7.81033">
        <ele>1610</ele>
        <time>2000-01-01T02:00:28.000Z</time>
      </trkpt>
      <trkpt lat="46.16858" lon="7.81022">
        <ele>1629</ele>
        <time>2000-01-01T02:00:38.000Z</time>
      </trkpt>
      <trkpt lat="46.1685" lon="7.81013">
        <ele>1610.2</ele>
        <time>2000-01-01T02:00:48.000Z</time>
      </trkpt>
      <trkpt lat="46.16841" lon="7.81006">
        <ele>1629</ele>
        <time>2000-01-01T02:00:58.000Z</time>
      </trkpt>
      <trkpt lat="46.16832" lon="7.80994">
        <ele>1612.3</ele>
        <time>2000-01-01T02:01:08.000Z</time>
      </trkpt>
      <trkpt lat="46.16823" lon="7.80984">
        <ele>1629</ele>
        <time>2000-01-01T02:01:18.000Z</time>
      </trkpt>
      <trkpt lat="46.16814" lon="7.80979">
        <ele>1616.5</ele>
        <time>2000-01-01T02:01:28.000Z</time>
      </trkpt>
      <trkpt lat="46.16805" lon="7.80972">
        <ele>1639</ele>
        <time>2000-01-01T02:01:38.000Z</time>
      </trkpt>
      <trkpt lat="46.16796" lon="7.80963">
        <ele>1620.5</ele>
        <time>2000-01-01T02:01:48.000Z</time>
      </trkpt>
      <trkpt lat="46.16783" lon="7.80951">
        <ele>1636</ele>
        <time>2000-01-01T02:01:58.000Z</time>
      </trkpt>
      <trkpt lat="46.1677" lon="7.80931">
        <ele>1620.9</ele>
        <time>2000-01-01T02:02:08.000Z</time>
      </trkpt>
      <trkpt lat="46.16762" lon="7.8092">
        <ele>1634</ele>
        <time>2000-01-01T02:02:18.000Z</time>
      </trkpt>
      <trkpt lat="46.16756" lon="7.80907">
        <ele>1619.8</ele>
        <time>2000-01-01T02:02:28.000Z</time>
      </trkpt>
      <trkpt lat="46.16748" lon="7.80895">
        <ele>1631</ele>
        <time>2000-01-01T02:02:38.000Z</time>
      </trkpt>
      <trkpt lat="46.16743" lon="7.80881">
        <ele>1618.2</ele>
        <time>2000-01-01T02:02:48.000Z</time>
      </trkpt>
      <trkpt lat="46.16739" lon="7.80867">
        <ele>1630</ele>
        <time>2000-01-01T02:02:58.000Z</time>
      </trkpt>
      <trkpt lat="46.16724" lon="7.80843">
        <ele>1625</ele>
        <time>2000-01-01T02:03:08.000Z</time>
      </trkpt>
      <trkpt lat="46.16715" lon="7.80832">
        <ele>1611.5</ele>
        <time>2000-01-01T02:03:18.000Z</time>
      </trkpt>
      <trkpt lat="46.16709" lon="7.80819">
        <ele>1625</ele>
        <time>2000-01-01T02:03:28.000Z</time>
      </trkpt>
      <trkpt lat="46.167" lon="7.8081">
        <ele>1607.3</ele>
        <time>2000-01-01T02:03:38.000Z</time>
      </trkpt>
      <trkpt lat="46.1669" lon="7.80804">
        <ele>1625</ele>
        <time>2000-01-01T02:03:48.000Z</time>
      </trkpt>
      <trkpt lat="46.16662" lon="7.80784">
        <ele>1621</ele>
        <time>2000-01-01T02:03:58.000Z</time>
      </trkpt>
      <trkpt lat="46.16655" lon="7.80771">
        <ele>1603.7</ele>
        <time>2000-01-01T02:04:08.000Z</time>
      </trkpt>
      <trkpt lat="46.16645" lon="7.80762">
        <ele>1617</ele>
        <time>2000-01-01T02:04:18.000Z</time>
      </trkpt>
      <trkpt lat="46.16636" lon="7.80755">
        <ele>1605.3</ele>
        <time>2000-01-01T02:04:28.000Z</time>
      </trkpt>
      <trkpt lat="46.16619" lon="7.80736">
        <ele>1617</ele>
        <time>2000-01-01T02:04:38.000Z</time>
      </trkpt>
      <trkpt lat="46.16609" lon="7.80726">
        <ele>1603.3</ele>
        <time>2000-01-01T02:04:48.000Z</time>
      </trkpt>
      <trkpt lat="46.166" lon="7.80718">
        <ele>1617</ele>
        <time>2000-01-01T02:04:58.000Z</time>
      </trkpt>
      <trkpt lat="46.16584" lon="7.80698">
        <ele>1616</ele>
        <time>2000-01-01T02:05:08.000Z</time>
      </trkpt>
      <trkpt lat="46.16574" lon="7.80691">
        <ele>1604.3</ele>
        <time>2000-01-01T02:05:18.000Z</time>
      </trkpt>
      <trkpt lat="46.16563" lon="7.80686">
        <ele>1615</ele>
        <time>2000-01-01T02:05:28.000Z</time>
      </trkpt>
      <trkpt lat="46.16543" lon="7.80669">
        <ele>1617</ele>
        <time>2000-01-01T02:05:38.000Z</time>
      </trkpt>
      <trkpt lat="46.1652" lon="7.80668">
        <ele>1617</ele>
        <time>2000-01-01T02:05:48.000Z</time>
      </trkpt>
      <trkpt lat="46.165" lon="7.80657">
        <ele>1618</ele>
        <time>2000-01-01T02:05:58.000Z</time>
      </trkpt>
      <trkpt lat="46.16477" lon="7.80661">
        <ele>1616</ele>
        <time>2000-01-01T02:06:08.000Z</time>
      </trkpt>
      <trkpt lat="46.16454" lon="7.80662">
        <ele>1614</ele>
        <time>2000-01-01T02:06:18.000Z</time>
      </trkpt>
      <trkpt lat="46.16446" lon="7.80671">
        <ele>1604.7</ele>
        <time>2000-01-01T02:06:28.000Z</time>
      </trkpt>
      <trkpt lat="46.16423" lon="7.80709">
        <ele>1608</ele>
        <time>2000-01-01T02:06:38.000Z</time>
      </trkpt>
      <trkpt lat="46.16414" lon="7.8072">
        <ele>1604.3</ele>
        <time>2000-01-01T02:06:48.000Z</time>
      </trkpt>
      <trkpt lat="46.16403" lon="7.80721">
        <ele>1603</ele>
        <time>2000-01-01T02:06:58.000Z</time>
      </trkpt>
      <trkpt lat="46.1638" lon="7.80721">
        <ele>1603</ele>
        <time>2000-01-01T02:07:08.000Z</time>
      </trkpt>
      <trkpt lat="46.16369" lon="7.80721">
        <ele>1594.5</ele>
        <time>2000-01-01T02:07:18.000Z</time>
      </trkpt>
      <trkpt lat="46.16358" lon="7.80719">
        <ele>1601</ele>
        <time>2000-01-01T02:07:28.000Z</time>
      </trkpt>
      <trkpt lat="46.16349" lon="7.80715">
        <ele>1589.1</ele>
        <time>2000-01-01T02:07:38.000Z</time>
      </trkpt>
      <trkpt lat="46.16338" lon="7.80707">
        <ele>1599</ele>
        <time>2000-01-01T02:07:48.000Z</time>
      </trkpt>
      <trkpt lat="46.16327" lon="7.80704">
        <ele>1584.1</ele>
        <time>2000-01-01T02:07:58.000Z</time>
      </trkpt>
      <trkpt lat="46.16316" lon="7.80703">
        <ele>1595</ele>
        <time>2000-01-01T02:08:08.000Z</time>
      </trkpt>
      <trkpt lat="46.16298" lon="7.80688">
        <ele>1582</ele>
        <time>2000-01-01T02:08:18.000Z</time>
      </trkpt>
      <trkpt lat="46.16288" lon="7.80684">
        <ele>1578.9</ele>
        <time>2000-01-01T02:08:28.000Z</time>
      </trkpt>
      <trkpt lat="46.16277" lon="7.80678">
        <ele>1582</ele>
        <time>2000-01-01T02:08:38.000Z</time>
      </trkpt>
      <trkpt lat="46.16266" lon="7.8068">
        <ele>1578</ele>
        <time>2000-01-01T02:08:48.000Z</time>
      </trkpt>
      <trkpt lat="46.16255" lon="7.80681">
        <ele>1581</ele>
        <time>2000-01-01T02:08:58.000Z</time>
      </trkpt>
      <trkpt lat="46.16244" lon="7.80681">
        <ele>1579.3</ele>
        <time>2000-01-01T02:09:08.000Z</time>
      </trkpt>
      <trkpt lat="46.16233" lon="7.80677">
        <ele>1580</ele>
        <time>2000-01-01T02:09:18.000Z</time>
      </trkpt>
      <trkpt lat="46.16224" lon="7.80671">
        <ele>1576.9</ele>
        <time>2000-01-01T02:09:28.000Z</time>
      </trkpt>
      <trkpt lat="46.16213" lon="7.80666">
        <ele>1580</ele>
        <time>2000-01-01T02:09:38.000Z</time>
      </trkpt>
      <trkpt lat="46.16202" lon="7.80667">
        <ele>1576.6</ele>
        <time>2000-01-01T02:09:48.000Z</time>
      </trkpt>
      <trkpt lat="46.16191" lon="7.80666">
        <ele>1580</ele>
        <time>2000-01-01T02:09:58.000Z</time>
      </trkpt>
      <trkpt lat="46.16181" lon="7.80661">
        <ele>1577.8</ele>
        <time>2000-01-01T02:10:08.000Z</time>
      </trkpt>
      <trkpt lat="46.16171" lon="7.80652">
        <ele>1580</ele>
        <time>2000-01-01T02:10:18.000Z</time>
      </trkpt>
      <trkpt lat="46.16161" lon="7.80645">
        <ele>1578</ele>
        <time>2000-01-01T02:10:28.000Z</time>
      </trkpt>
      <trkpt lat="46.16152" lon="7.80635">
        <ele>1579</ele>
        <time>2000-01-01T02:10:38.000Z</time>
      </trkpt>
      <trkpt lat="46.16142" lon="7.80626">
        <ele>1576.5</ele>
        <time>2000-01-01T02:10:48.000Z</time>
      </trkpt>
      <trkpt lat="46.1613" lon="7.80624">
        <ele>1579</ele>
        <time>2000-01-01T02:10:58.000Z</time>
      </trkpt>
      <trkpt lat="46.1612" lon="7.80628">
        <ele>1577.8</ele>
        <time>2000-01-01T02:11:08.000Z</time>
      </trkpt>
      <trkpt lat="46.1611" lon="7.80636">
        <ele>1594</ele>
        <time>2000-01-01T02:11:18.000Z</time>
      </trkpt>
      <trkpt lat="46.161" lon="7.80637">
        <ele>1584</ele>
        <time>2000-01-01T02:11:28.000Z</time>
      </trkpt>
      <trkpt lat="46.16091" lon="7.80631">
        <ele>1592</ele>
        <time>2000-01-01T02:11:38.000Z</time>
      </trkpt>
      <trkpt lat="46.16083" lon="7.80621">
        <ele>1579</ele>
        <time>2000-01-01T02:11:48.000Z</time>
      </trkpt>
      <trkpt lat="46.16073" lon="7.80612">
        <ele>1591</ele>
        <time>2000-01-01T02:11:58.000Z</time>
      </trkpt>
      <trkpt lat="46.16065" lon="7.80602">
        <ele>1573.4</ele>
        <time>2000-01-01T02:12:08.000Z</time>
      </trkpt>
      <trkpt lat="46.16057" lon="7.80591">
        <ele>1575</ele>
        <time>2000-01-01T02:12:18.000Z</time>
      </trkpt>
      <trkpt lat="46.16048" lon="7.80582">
        <ele>1568.2</ele>
        <time>2000-01-01T02:12:28.000Z</time>
      </trkpt>
      <trkpt lat="46.16042" lon="7.8057">
        <ele>1570</ele>
        <time>2000-01-01T02:12:38.000Z</time>
      </trkpt>
      <trkpt lat="46.16038" lon="7.80556">
        <ele>1562.6</ele>
        <time>2000-01-01T02:12:48.000Z</time>
      </trkpt>
      <trkpt lat="46.16032" lon="7.80544">
        <ele>1562</ele>
        <time>2000-01-01T02:12:58.000Z</time>
      </trkpt>
      <trkpt lat="46.16022" lon="7.80544">
        <ele>1558.6</ele>
        <time>2000-01-01T02:13:08.000Z</time>
      </trkpt>
      <trkpt lat="46.16012" lon="7.80551">
        <ele>1559</ele>
        <time>2000-01-01T02:13:18.000Z</time>
      </trkpt>
      <trkpt lat="46.16001" lon="7.80548">
        <ele>1552.2</ele>
        <time>2000-01-01T02:13:28.000Z</time>
      </trkpt>
      <trkpt lat="46.15989" lon="7.80547">
        <ele>1548</ele>
        <time>2000-01-01T02:13:38.000Z</time>
      </trkpt>
      <trkpt lat="46.15978" lon="7.80548">
        <ele>1546.4</ele>
        <time>2000-01-01T02:13:48.000Z</time>
      </trkpt>
      <trkpt lat="46.15947" lon="7.80535">
        <ele>1538</ele>
        <time>2000-01-01T02:13:58.000Z</time>
      </trkpt>
      <trkpt lat="46.15927" lon="7.80529">
        <ele>1537</ele>
        <time>2000-01-01T02:14:08.000Z</time>
      </trkpt>
      <trkpt lat="46.15896" lon="7.80515">
        <ele>1536</ele>
        <time>2000-01-01T02:14:18.000Z</time>
      </trkpt>
      <trkpt lat="46.15886" lon="7.80509">
        <ele>1524</ele>
        <time>2000-01-01T02:14:28.000Z</time>
      </trkpt>
      <trkpt lat="46.15878" lon="7.805">
        <ele>1527</ele>
        <time>2000-01-01T02:14:38.000Z</time>
      </trkpt>
      <trkpt lat="46.15868" lon="7.80502">
        <ele>1521.6</ele>
        <time>2000-01-01T02:14:48.000Z</time>
      </trkpt>
      <trkpt lat="46.15857" lon="7.80499">
        <ele>1525</ele>
        <time>2000-01-01T02:14:58.000Z</time>
      </trkpt>
      <trkpt lat="46.15857" lon="7.80498">
        <ele>1520.7</ele>
        <time>2000-01-01T02:15:08.000Z</time>
      </trkpt>
      <trkpt lat="46.15841" lon="7.80499">
        <ele>1523.4</ele>
        <time>2000-01-01T02:15:18.000Z</time>
      </trkpt>
      <trkpt lat="46.15836" lon="7.80497">
        <ele>1529</ele>
        <time>2000-01-01T02:15:28.000Z</time>
      </trkpt>
      <trkpt lat="46.15825" lon="7.80499">
        <ele>1525.7</ele>
        <time>2000-01-01T02:15:38.000Z</time>
      </trkpt>
      <trkpt lat="46.15814" lon="7.805">
        <ele>1534</ele>
        <time>2000-01-01T02:15:48.000Z</time>
      </trkpt>
      <trkpt lat="46.15811" lon="7.80499">
        <ele>1527.8</ele>
        <time>2000-01-01T02:15:58.000Z</time>
      </trkpt>
      <trkpt lat="46.15805" lon="7.80496">
        <ele>1527.4</ele>
        <time>2000-01-01T02:16:08.000Z</time>
      </trkpt>
      <trkpt lat="46.15795" lon="7.80497">
        <ele>1535</ele>
        <time>2000-01-01T02:16:18.000Z</time>
      </trkpt>
      <trkpt lat="46.15789" lon="7.80493">
        <ele>1530.3</ele>
        <time>2000-01-01T02:16:28.000Z</time>
      </trkpt>
      <trkpt lat="46.15781" lon="7.80493">
        <ele>1532.4</ele>
        <time>2000-01-01T02:16:38.000Z</time>
      </trkpt>
      <trkpt lat="46.15778" lon="7.80492">
        <ele>1532.8</ele>
        <time>2000-01-01T02:16:48.000Z</time>
      </trkpt>
      <trkpt lat="46.15771" lon="7.80488">
        <ele>1542</ele>
        <time>2000-01-01T02:16:58.000Z</time>
      </trkpt>
      <trkpt lat="46.1576" lon="7.80484">
        <ele>1533.5</ele>
        <time>2000-01-01T02:17:08.000Z</time>
      </trkpt>
      <trkpt lat="46.15757" lon="7.80482">
        <ele>1533.4</ele>
        <time>2000-01-01T02:17:18.000Z</time>
      </trkpt>
      <trkpt lat="46.15755" lon="7.80478">
        <ele>1532.2</ele>
        <time>2000-01-01T02:17:28.000Z</time>
      </trkpt>
      <trkpt lat="46.15753" lon="7.80473">
        <ele>1541</ele>
        <time>2000-01-01T02:17:38.000Z</time>
      </trkpt>
      <trkpt lat="46.15752" lon="7.80469">
        <ele>1529.2</ele>
        <time>2000-01-01T02:17:48.000Z</time>
      </trkpt>
      <trkpt lat="46.15749" lon="7.80467">
        <ele>1529</ele>
        <time>2000-01-01T02:17:58.000Z</time>
      </trkpt>
      <trkpt lat="46.15745" lon="7.80465">
        <ele>1529.2</ele>
        <time>2000-01-01T02:18:08.000Z</time>
      </trkpt>
      <trkpt lat="46.15738" lon="7.80466">
        <ele>1531.5</ele>
        <time>2000-01-01T02:18:18.000Z</time>
      </trkpt>
      <trkpt lat="46.15735" lon="7.80464">
        <ele>1541</ele>
        <time>2000-01-01T02:18:28.000Z</time>
      </trkpt>
      <trkpt lat="46.1573" lon="7.80457">
        <ele>1530.3</ele>
        <time>2000-01-01T02:18:38.000Z</time>
      </trkpt>
      <trkpt lat="46.15722" lon="7.80454">
        <ele>1531.5</ele>
        <time>2000-01-01T02:18:48.000Z</time>
      </trkpt>
      <trkpt lat="46.15716" lon="7.8045">
        <ele>1535</ele>
        <time>2000-01-01T02:18:58.000Z</time>
      </trkpt>
      <trkpt lat="46.15712" lon="7.80448">
        <ele>1531.5</ele>
        <time>2000-01-01T02:19:08.000Z</time>
      </trkpt>
      <trkpt lat="46.15705" lon="7.80437">
        <ele>1528.6</ele>
        <time>2000-01-01T02:19:18.000Z</time>
      </trkpt>
      <trkpt lat="46.157" lon="7.80434">
        <ele>1535</ele>
        <time>2000-01-01T02:19:28.000Z</time>
      </trkpt>
      <trkpt lat="46.15692" lon="7.80434">
        <ele>1530.2</ele>
        <time>2000-01-01T02:19:38.000Z</time>
      </trkpt>
      <trkpt lat="46.15685" lon="7.80434">
        <ele>1532.3</ele>
        <time>2000-01-01T02:19:48.000Z</time>
      </trkpt>
      <trkpt lat="46.15676" lon="7.8043">
        <ele>1537</ele>
        <time>2000-01-01T02:19:58.000Z</time>
      </trkpt>
      <trkpt lat="46.15673" lon="7.80428">
        <ele>1533.5</ele>
        <time>2000-01-01T02:20:08.000Z</time>
      </trkpt>
      <trkpt lat="46.15667" lon="7.80421">
        <ele>1532.6</ele>
        <time>2000-01-01T02:20:18.000Z</time>
      </trkpt>
      <trkpt lat="46.15663" lon="7.8042">
        <ele>1533.4</ele>
        <time>2000-01-01T02:20:28.000Z</time>
      </trkpt>
      <trkpt lat="46.15655" lon="7.80415">
        <ele>1539</ele>
        <time>2000-01-01T02:20:38.000Z</time>
      </trkpt>
      <trkpt lat="46.15651" lon="7.80413">
        <ele>1534.1</ele>
        <time>2000-01-01T02:20:48.000Z</time>
      </trkpt>
      <trkpt lat="46.15644" lon="7.80414">
        <ele>1536.5</ele>
        <time>2000-01-01T02:20:58.000Z</time>
      </trkpt>
      <trkpt lat="46.15642" lon="7.8041">
        <ele>1535.5</ele>
        <time>2000-01-01T02:21:08.000Z</time>
      </trkpt>
      <trkpt lat="46.15634" lon="7.80409">
        <ele>1545</ele>
        <time>2000-01-01T02:21:18.000Z</time>
      </trkpt>
      <trkpt lat="46.15628" lon="7.80405">
        <ele>1537.1</ele>
        <time>2000-01-01T02:21:28.000Z</time>
      </trkpt>
      <trkpt lat="46.15626" lon="7.80401">
        <ele>1536</ele>
        <time>2000-01-01T02:21:38.000Z</time>
      </trkpt>
      <trkpt lat="46.15624" lon="7.80398">
        <ele>1535.4</ele>
        <time>2000-01-01T02:21:48.000Z</time>
      </trkpt>
      <trkpt lat="46.15621" lon="7.80397">
        <ele>1535.7</ele>
        <time>2000-01-01T02:21:58.000Z</time>
      </trkpt>
      <trkpt lat="46.15616" lon="7.80397">
        <ele>1555</ele>
        <time>2000-01-01T02:22:08.000Z</time>
      </trkpt>
      <trkpt lat="46.1561" lon="7.80398">
        <ele>1538.9</ele>
        <time>2000-01-01T02:22:18.000Z</time>
      </trkpt>
      <trkpt lat="46.15606" lon="7.80395">
        <ele>1538.9</ele>
        <time>2000-01-01T02:22:28.000Z</time>
      </trkpt>
      <trkpt lat="46.15598" lon="7.80395">
        <ele>1555</ele>
        <time>2000-01-01T02:22:38.000Z</time>
      </trkpt>
      <trkpt lat="46.15595" lon="7.80392">
        <ele>1540.9</ele>
        <time>2000-01-01T02:22:48.000Z</time>
      </trkpt>
      <trkpt lat="46.15589" lon="7.80389">
        <ele>1541.4</ele>
        <time>2000-01-01T02:22:58.000Z</time>
      </trkpt>
      <trkpt lat="46.15586" lon="7.8038">
        <ele>1538.7</ele>
        <time>2000-01-01T02:23:08.000Z</time>
      </trkpt>
      <trkpt lat="46.15584" lon="7.80377">
        <ele>1555</ele>
        <time>2000-01-01T02:23:18.000Z</time>
      </trkpt>
      <trkpt lat="46.15581" lon="7.80374">
        <ele>1537.5</ele>
        <time>2000-01-01T02:23:28.000Z</time>
      </trkpt>
      <trkpt lat="46.15578" lon="7.80376">
        <ele>1538.9</ele>
        <time>2000-01-01T02:23:38.000Z</time>
      </trkpt>
      <trkpt lat="46.15568" lon="7.80373">
        <ele>1539.5</ele>
        <time>2000-01-01T02:23:48.000Z</time>
      </trkpt>
      <trkpt lat="46.15559" lon="7.80374">
        <ele>1552</ele>
        <time>2000-01-01T02:23:58.000Z</time>
      </trkpt>
      <trkpt lat="46.15556" lon="7.8037">
        <ele>1540.4</ele>
        <time>2000-01-01T02:24:08.000Z</time>
      </trkpt>
      <trkpt lat="46.15553" lon="7.80371">
        <ele>1541.7</ele>
        <time>2000-01-01T02:24:18.000Z</time>
      </trkpt>
      <trkpt lat="46.15551" lon="7.8037">
        <ele>1541.9</ele>
        <time>2000-01-01T02:24:28.000Z</time>
      </trkpt>
      <trkpt lat="46.15544" lon="7.80372">
        <ele>1544.7</ele>
        <time>2000-01-01T02:24:38.000Z</time>
      </trkpt>
      <trkpt lat="46.15541" lon="7.80373">
        <ele>1550</ele>
        <time>2000-01-01T02:24:48.000Z</time>
      </trkpt>
      <trkpt lat="46.15538" lon="7.80373">
        <ele>1546.9</ele>
        <time>2000-01-01T02:24:58.000Z</time>
      </trkpt>
      <trkpt lat="46.15536" lon="7.80371">
        <ele>1546.8</ele>
        <time>2000-01-01T02:25:08.000Z</time>
      </trkpt>
      <trkpt lat="46.15533" lon="7.80363">
        <ele>1544.9</ele>
        <time>2000-01-01T02:25:18.000Z</time>
      </trkpt>
      <trkpt lat="46.1553" lon="7.80361">
        <ele>1545.2</ele>
        <time>2000-01-01T02:25:28.000Z</time>
      </trkpt>
      <trkpt lat="46.15527" lon="7.80359">
        <ele>1545.6</ele>
        <time>2000-01-01T02:25:38.000Z</time>
      </trkpt>
      <trkpt lat="46.15529" lon="7.80355">
        <ele>1550</ele>
        <time>2000-01-01T02:25:48.000Z</time>
      </trkpt>
      <trkpt lat="46.15529" lon="7.80351">
        <ele>1541.9</ele>
        <time>2000-01-01T02:25:58.000Z</time>
      </trkpt>
      <trkpt lat="46.15521" lon="7.80351">
        <ele>1545.3</ele>
        <time>2000-01-01T02:26:08.000Z</time>
      </trkpt>
      <trkpt lat="46.15517" lon="7.80348">
        <ele>1545.9</ele>
        <time>2000-01-01T02:26:18.000Z</time>
      </trkpt>
      <trkpt lat="46.15511" lon="7.80346">
        <ele>1554</ele>
        <time>2000-01-01T02:26:28.000Z</time>
      </trkpt>
      <trkpt lat="46.15502" lon="7.80342">
        <ele>1550.3</ele>
        <time>2000-01-01T02:26:38.000Z</time>
      </trkpt>
      <trkpt lat="46.1549" lon="7.80338">
        <ele>1565</ele>
        <time>2000-01-01T02:26:48.000Z</time>
      </trkpt>
      <trkpt lat="46.15487" lon="7.80336">
        <ele>1553.2</ele>
        <time>2000-01-01T02:26:58.000Z</time>
      </trkpt>
      <trkpt lat="46.15484" lon="7.80335">
        <ele>1553.8</ele>
        <time>2000-01-01T02:27:08.000Z</time>
      </trkpt>
      <trkpt lat="46.15482" lon="7.80331">
        <ele>1552.9</ele>
        <time>2000-01-01T02:27:18.000Z</time>
      </trkpt>
      <trkpt lat="46.15473" lon="7.80324">
        <ele>1564</ele>
        <time>2000-01-01T02:27:28.000Z</time>
      </trkpt>
      <trkpt lat="46.1547" lon="7.80322">
        <ele>1553.6</ele>
        <time>2000-01-01T02:27:38.000Z</time>
      </trkpt>
      <trkpt lat="46.15465" lon="7.80313">
        <ele>1551.8</ele>
        <time>2000-01-01T02:27:48.000Z</time>
      </trkpt>
      <trkpt lat="46.15461" lon="7.8031">
        <ele>1551.9</ele>
        <time>2000-01-01T02:27:58.000Z</time>
      </trkpt>
      <trkpt lat="46.15449" lon="7.80308">
        <ele>1565</ele>
        <time>2000-01-01T02:28:08.000Z</time>
      </trkpt>
      <trkpt lat="46.15446" lon="7.80307">
        <ele>1555.1</ele>
        <time>2000-01-01T02:28:18.000Z</time>
      </trkpt>
      <trkpt lat="46.15442" lon="7.80305">
        <ele>1555.1</ele>
        <time>2000-01-01T02:28:28.000Z</time>
      </trkpt>
      <trkpt lat="46.15438" lon="7.80303">
        <ele>1554.7</ele>
        <time>2000-01-01T02:28:38.000Z</time>
      </trkpt>
      <trkpt lat="46.15435" lon="7.80302">
        <ele>1554.7</ele>
        <time>2000-01-01T02:28:48.000Z</time>
      </trkpt>
      <trkpt lat="46.15431" lon="7.80304">
        <ele>1567</ele>
        <time>2000-01-01T02:28:58.000Z</time>
      </trkpt>
      <trkpt lat="46.15424" lon="7.80311">
        <ele>1560.4</ele>
        <time>2000-01-01T02:29:08.000Z</time>
      </trkpt>
      <trkpt lat="46.15421" lon="7.80311">
        <ele>1560.9</ele>
        <time>2000-01-01T02:29:18.000Z</time>
      </trkpt>
      <trkpt lat="46.15415" lon="7.80307">
        <ele>1560.2</ele>
        <time>2000-01-01T02:29:28.000Z</time>
      </trkpt>
      <trkpt lat="46.15415" lon="7.80303">
        <ele>1570</ele>
        <time>2000-01-01T02:29:38.000Z</time>
      </trkpt>
      <trkpt lat="46.15413" lon="7.80298">
        <ele>1557.5</ele>
        <time>2000-01-01T02:29:48.000Z</time>
      </trkpt>
      <trkpt lat="46.15405" lon="7.80287">
        <ele>1556.4</ele>
        <time>2000-01-01T02:29:58.000Z</time>
      </trkpt>
      <trkpt lat="46.15401" lon="7.80284">
        <ele>1574</ele>
        <time>2000-01-01T02:30:08.000Z</time>
      </trkpt>
      <trkpt lat="46.15397" lon="7.80284">
        <ele>1558.2</ele>
        <time>2000-01-01T02:30:18.000Z</time>
      </trkpt>
      <trkpt lat="46.15394" lon="7.80286">
        <ele>1559.9</ele>
        <time>2000-01-01T02:30:28.000Z</time>
      </trkpt>
      <trkpt lat="46.15389" lon="7.80286">
        <ele>1561.6</ele>
        <time>2000-01-01T02:30:38.000Z</time>
      </trkpt>
      <trkpt lat="46.15386" lon="7.80283">
        <ele>1561.3</ele>
        <time>2000-01-01T02:30:48.000Z</time>
      </trkpt>
      <trkpt lat="46.15385" lon="7.80279">
        <ele>1577</ele>
        <time>2000-01-01T02:30:58.000Z</time>
      </trkpt>
      <trkpt lat="46.15385" lon="7.80274">
        <ele>1558.8</ele>
        <time>2000-01-01T02:31:08.000Z</time>
      </trkpt>
      <trkpt lat="46.15382" lon="7.80272">
        <ele>1558.8</ele>
        <time>2000-01-01T02:31:18.000Z</time>
      </trkpt>
      <trkpt lat="46.15367" lon="7.80262">
        <ele>1577</ele>
        <time>2000-01-01T02:31:28.000Z</time>
      </trkpt>
      <trkpt lat="46.1536" lon="7.80251">
        <ele>1557.4</ele>
        <time>2000-01-01T02:31:38.000Z</time>
      </trkpt>
      <trkpt lat="46.15358" lon="7.80246">
        <ele>1555.9</ele>
        <time>2000-01-01T02:31:48.000Z</time>
      </trkpt>
      <trkpt lat="46.15354" lon="7.80244">
        <ele>1570</ele>
        <time>2000-01-01T02:31:58.000Z</time>
      </trkpt>
      <trkpt lat="46.15346" lon="7.80242">
        <ele>1555.5</ele>
        <time>2000-01-01T02:32:08.000Z</time>
      </trkpt>
      <trkpt lat="46.15335" lon="7.80233">
        <ele>1566</ele>
        <time>2000-01-01T02:32:18.000Z</time>
      </trkpt>
      <trkpt lat="46.15325" lon="7.80222">
        <ele>1549.9</ele>
        <time>2000-01-01T02:32:28.000Z</time>
      </trkpt>
      <trkpt lat="46.1532" lon="7.80213">
        <ele>1553</ele>
        <time>2000-01-01T02:32:38.000Z</time>
      </trkpt>
      <trkpt lat="46.15321" lon="7.80208">
        <ele>1544.2</ele>
        <time>2000-01-01T02:32:48.000Z</time>
      </trkpt>
      <trkpt lat="46.15326" lon="7.80207">
        <ele>1544.1</ele>
        <time>2000-01-01T02:32:58.000Z</time>
      </trkpt>
      <trkpt lat="46.15328" lon="7.80203">
        <ele>1542.7</ele>
        <time>2000-01-01T02:33:08.000Z</time>
      </trkpt>
      <trkpt lat="46.15325" lon="7.80199">
        <ele>1540.9</ele>
        <time>2000-01-01T02:33:18.000Z</time>
      </trkpt>
      <trkpt lat="46.15319" lon="7.80192">
        <ele>1541</ele>
        <time>2000-01-01T02:33:28.000Z</time>
      </trkpt>
      <trkpt lat="46.15316" lon="7.80188">
        <ele>1535.6</ele>
        <time>2000-01-01T02:33:38.000Z</time>
      </trkpt>
      <trkpt lat="46.15316" lon="7.80183">
        <ele>1533.6</ele>
        <time>2000-01-01T02:33:48.000Z</time>
      </trkpt>
      <trkpt lat="46.15312" lon="7.80175">
        <ele>1529.8</ele>
        <time>2000-01-01T02:33:58.000Z</time>
      </trkpt>
      <trkpt lat="46.15311" lon="7.8017">
        <ele>1527.5</ele>
        <time>2000-01-01T02:34:08.000Z</time>
      </trkpt>
      <trkpt lat="46.15311" lon="7.80166">
        <ele>1539</ele>
        <time>2000-01-01T02:34:18.000Z</time>
      </trkpt>
      <trkpt lat="46.15312" lon="7.80162">
        <ele>1524.4</ele>
        <time>2000-01-01T02:34:28.000Z</time>
      </trkpt>
      <trkpt lat="46.15317" lon="7.80159">
        <ele>1524.5</ele>
        <time>2000-01-01T02:34:38.000Z</time>
      </trkpt>
      <trkpt lat="46.1532" lon="7.80158">
        <ele>1524.9</ele>
        <time>2000-01-01T02:34:48.000Z</time>
      </trkpt>
      <trkpt lat="46.15338" lon="7.80155">
        <ele>1540</ele>
        <time>2000-01-01T02:34:58.000Z</time>
      </trkpt>
      <trkpt lat="46.15343" lon="7.80156">
        <ele>1526.6</ele>
        <time>2000-01-01T02:35:08.000Z</time>
      </trkpt>
      <trkpt lat="46.15351" lon="7.80164">
        <ele>1528.7</ele>
        <time>2000-01-01T02:35:18.000Z</time>
      </trkpt>
      <trkpt lat="46.15359" lon="7.80164">
        <ele>1537</ele>
        <time>2000-01-01T02:35:28.000Z</time>
      </trkpt>
      <trkpt lat="46.15362" lon="7.80165">
        <ele>1528</ele>
        <time>2000-01-01T02:35:38.000Z</time>
      </trkpt>
      <trkpt lat="46.1537" lon="7.8016">
        <ele>1524.3</ele>
        <time>2000-01-01T02:35:48.000Z</time>
      </trkpt>
      <trkpt lat="46.15371" lon="7.80156">
        <ele>1522.4</ele>
        <time>2000-01-01T02:35:58.000Z</time>
      </trkpt>
      <trkpt lat="46.15368" lon="7.80149">
        <ele>1535</ele>
        <time>2000-01-01T02:36:08.000Z</time>
      </trkpt>
      <trkpt lat="46.15364" lon="7.80143">
        <ele>1517.7</ele>
        <time>2000-01-01T02:36:18.000Z</time>
      </trkpt>
      <trkpt lat="46.15361" lon="7.80141">
        <ele>1517</ele>
        <time>2000-01-01T02:36:28.000Z</time>
      </trkpt>
      <trkpt lat="46.15353" lon="7.8014">
        <ele>1518.5</ele>
        <time>2000-01-01T02:36:38.000Z</time>
      </trkpt>
      <trkpt lat="46.15347" lon="7.80137">
        <ele>1532</ele>
        <time>2000-01-01T02:36:48.000Z</time>
      </trkpt>
      <trkpt lat="46.1533" lon="7.80125">
        <ele>1516.7</ele>
        <time>2000-01-01T02:36:58.000Z</time>
      </trkpt>
      <trkpt lat="46.15328" lon="7.80122">
        <ele>1520</ele>
        <time>2000-01-01T02:37:08.000Z</time>
      </trkpt>
      <trkpt lat="46.15327" lon="7.80118">
        <ele>1513</ele>
        <time>2000-01-01T02:37:18.000Z</time>
      </trkpt>
      <trkpt lat="46.15323" lon="7.80116">
        <ele>1510.7</ele>
        <time>2000-01-01T02:37:28.000Z</time>
      </trkpt>
      <trkpt lat="46.1532" lon="7.80114">
        <ele>1508.8</ele>
        <time>2000-01-01T02:37:38.000Z</time>
      </trkpt>
      <trkpt lat="46.15312" lon="7.80115">
        <ele>1506</ele>
        <time>2000-01-01T02:37:48.000Z</time>
      </trkpt>
      <trkpt lat="46.1531" lon="7.80112">
        <ele>1517</ele>
        <time>2000-01-01T02:37:58.000Z</time>
      </trkpt>
      <trkpt lat="46.15308" lon="7.80115">
        <ele>1504.4</ele>
        <time>2000-01-01T02:38:08.000Z</time>
      </trkpt>
      <trkpt lat="46.15305" lon="7.80121">
        <ele>1505.7</ele>
        <time>2000-01-01T02:38:18.000Z</time>
      </trkpt>
      <trkpt lat="46.15305" lon="7.80125">
        <ele>1507.2</ele>
        <time>2000-01-01T02:38:28.000Z</time>
      </trkpt>
      <trkpt lat="46.15307" lon="7.80127">
        <ele>1508.3</ele>
        <time>2000-01-01T02:38:38.000Z</time>
      </trkpt>
      <trkpt lat="46.1531" lon="7.80127">
        <ele>1509.5</ele>
        <time>2000-01-01T02:38:48.000Z</time>
      </trkpt>
      <trkpt lat="46.15311" lon="7.80128">
        <ele>1510.2</ele>
        <time>2000-01-01T02:38:58.000Z</time>
      </trkpt>
      <trkpt lat="46.15308" lon="7.80131">
        <ele>1517</ele>
        <time>2000-01-01T02:39:08.000Z</time>
      </trkpt>
      <trkpt lat="46.15306" lon="7.80132">
        <ele>1509.7</ele>
        <time>2000-01-01T02:39:18.000Z</time>
      </trkpt>
      <trkpt lat="46.15302" lon="7.80135">
        <ele>1511.7</ele>
        <time>2000-01-01T02:39:28.000Z</time>
      </trkpt>
      <trkpt lat="46.153" lon="7.80138">
        <ele>1513.5</ele>
        <time>2000-01-01T02:39:38.000Z</time>
      </trkpt>
      <trkpt lat="46.15297" lon="7.80138">
        <ele>1514.4</ele>
        <time>2000-01-01T02:39:48.000Z</time>
      </trkpt>
      <trkpt lat="46.15295" lon="7.80135">
        <ele>1513.9</ele>
        <time>2000-01-01T02:39:58.000Z</time>
      </trkpt>
      <trkpt lat="46.15292" lon="7.80133">
        <ele>1517</ele>
        <time>2000-01-01T02:40:08.000Z</time>
      </trkpt>
      <trkpt lat="46.15292" lon="7.80129">
        <ele>1512.5</ele>
        <time>2000-01-01T02:40:18.000Z</time>
      </trkpt>
      <trkpt lat="46.15289" lon="7.80127">
        <ele>1512.6</ele>
        <time>2000-01-01T02:40:28.000Z</time>
      </trkpt>
      <trkpt lat="46.15288" lon="7.80122">
        <ele>1510.8</ele>
        <time>2000-01-01T02:40:38.000Z</time>
      </trkpt>
      <trkpt lat="46.15284" lon="7.80121">
        <ele>1511.5</ele>
        <time>2000-01-01T02:40:48.000Z</time>
      </trkpt>
      <trkpt lat="46.1528" lon="7.80123">
        <ele>1513.5</ele>
        <time>2000-01-01T02:40:58.000Z</time>
      </trkpt>
      <trkpt lat="46.15281" lon="7.80127">
        <ele>1517</ele>
        <time>2000-01-01T02:41:08.000Z</time>
      </trkpt>
      <trkpt lat="46.15283" lon="7.80131">
        <ele>1516</ele>
        <time>2000-01-01T02:41:18.000Z</time>
      </trkpt>
      <trkpt lat="46.1528" lon="7.80134">
        <ele>1518.2</ele>
        <time>2000-01-01T02:41:28.000Z</time>
      </trkpt>
      <trkpt lat="46.15274" lon="7.80136">
        <ele>1519.2</ele>
        <time>2000-01-01T02:41:38.000Z</time>
      </trkpt>
      <trkpt lat="46.15266" lon="7.80137">
        <ele>1528</ele>
        <time>2000-01-01T02:41:48.000Z</time>
      </trkpt>
      <trkpt lat="46.15263" lon="7.80138">
        <ele>1518.5</ele>
        <time>2000-01-01T02:41:58.000Z</time>
      </trkpt>
      <trkpt lat="46.15261" lon="7.80142">
        <ele>1519.7</ele>
        <time>2000-01-01T02:42:08.000Z</time>
      </trkpt>
      <trkpt lat="46.15258" lon="7.80149">
        <ele>1521.9</ele>
        <time>2000-01-01T02:42:18.000Z</time>
      </trkpt>
      <trkpt lat="46.15255" lon="7.80151">
        <ele>1522.4</ele>
        <time>2000-01-01T02:42:28.000Z</time>
      </trkpt>
      <trkpt lat="46.15253" lon="7.80153">
        <ele>1529</ele>
        <time>2000-01-01T02:42:38.000Z</time>
      </trkpt>
      <trkpt lat="46.1525" lon="7.80155">
        <ele>1523.4</ele>
        <time>2000-01-01T02:42:48.000Z</time>
      </trkpt>
      <trkpt lat="46.15248" lon="7.80152">
        <ele>1522</ele>
        <time>2000-01-01T02:42:58.000Z</time>
      </trkpt>
      <trkpt lat="46.15245" lon="7.80154">
        <ele>1522.6</ele>
        <time>2000-01-01T02:43:08.000Z</time>
      </trkpt>
      <trkpt lat="46.15242" lon="7.80157">
        <ele>1523.6</ele>
        <time>2000-01-01T02:43:18.000Z</time>
      </trkpt>
      <trkpt lat="46.15239" lon="7.80159">
        <ele>1524.2</ele>
        <time>2000-01-01T02:43:28.000Z</time>
      </trkpt>
      <trkpt lat="46.15233" lon="7.80159">
        <ele>1526</ele>
        <time>2000-01-01T02:43:38.000Z</time>
      </trkpt>
      <trkpt lat="46.1523" lon="7.80161">
        <ele>1524.3</ele>
        <time>2000-01-01T02:43:48.000Z</time>
      </trkpt>
      <trkpt lat="46.1522" lon="7.80157">
        <ele>1521.9</ele>
        <time>2000-01-01T02:43:58.000Z</time>
      </trkpt>
      <trkpt lat="46.15217" lon="7.80158">
        <ele>1521.8</ele>
        <time>2000-01-01T02:44:08.000Z</time>
      </trkpt>
      <trkpt lat="46.15207" lon="7.80168">
        <ele>1526</ele>
        <time>2000-01-01T02:44:18.000Z</time>
      </trkpt>
      <trkpt lat="46.15201" lon="7.80176">
        <ele>1526.8</ele>
        <time>2000-01-01T02:44:28.000Z</time>
      </trkpt>
      <trkpt lat="46.15198" lon="7.80177">
        <ele>1526.9</ele>
        <time>2000-01-01T02:44:38.000Z</time>
      </trkpt>
      <trkpt lat="46.15195" lon="7.80177">
        <ele>1526.5</ele>
        <time>2000-01-01T02:44:48.000Z</time>
      </trkpt>
      <trkpt lat="46.15192" lon="7.80175">
        <ele>1525.8</ele>
        <time>2000-01-01T02:44:58.000Z</time>
      </trkpt>
      <trkpt lat="46.1519" lon="7.80172">
        <ele>1527</ele>
        <time>2000-01-01T02:45:08.000Z</time>
      </trkpt>
      <trkpt lat="46.15187" lon="7.80173">
        <ele>1525.4</ele>
        <time>2000-01-01T02:45:18.000Z</time>
      </trkpt>
      <trkpt lat="46.15185" lon="7.80177">
        <ele>1527.4</ele>
        <time>2000-01-01T02:45:28.000Z</time>
      </trkpt>
      <trkpt lat="46.15181" lon="7.8018">
        <ele>1529.2</ele>
        <time>2000-01-01T02:45:38.000Z</time>
      </trkpt>
      <trkpt lat="46.15178" lon="7.80181">
        <ele>1530</ele>
        <time>2000-01-01T02:45:48.000Z</time>
      </trkpt>
      <trkpt lat="46.15174" lon="7.80183">
        <ele>1531.4</ele>
        <time>2000-01-01T02:45:58.000Z</time>
      </trkpt>
      <trkpt lat="46.15168" lon="7.80185">
        <ele>1542</ele>
        <time>2000-01-01T02:46:08.000Z</time>
      </trkpt>
      <trkpt lat="46.15164" lon="7.80185">
        <ele>1533.6</ele>
        <time>2000-01-01T02:46:18.000Z</time>
      </trkpt>
      <trkpt lat="46.15158" lon="7.80184">
        <ele>1533.9</ele>
        <time>2000-01-01T02:46:28.000Z</time>
      </trkpt>
      <trkpt lat="46.15155" lon="7.80187">
        <ele>1535.8</ele>
        <time>2000-01-01T02:46:38.000Z</time>
      </trkpt>
      <trkpt lat="46.15148" lon="7.80183">
        <ele>1555</ele>
        <time>2000-01-01T02:46:48.000Z</time>
      </trkpt>
      <trkpt lat="46.15145" lon="7.80183">
        <ele>1535</ele>
        <time>2000-01-01T02:46:58.000Z</time>
      </trkpt>
      <trkpt lat="46.15139" lon="7.80178">
        <ele>1533.1</ele>
        <time>2000-01-01T02:47:08.000Z</time>
      </trkpt>
      <trkpt lat="46.15134" lon="7.80178">
        <ele>1534</ele>
        <time>2000-01-01T02:47:18.000Z</time>
      </trkpt>
      <trkpt lat="46.1513" lon="7.80177">
        <ele>1555</ele>
        <time>2000-01-01T02:47:28.000Z</time>
      </trkpt>
      <trkpt lat="46.15128" lon="7.8018">
        <ele>1536.2</ele>
        <time>2000-01-01T02:47:38.000Z</time>
      </trkpt>
      <trkpt lat="46.15129" lon="7.80184">
        <ele>1538.1</ele>
        <time>2000-01-01T02:47:48.000Z</time>
      </trkpt>
      <trkpt lat="46.15125" lon="7.80186">
        <ele>1539.7</ele>
        <time>2000-01-01T02:47:58.000Z</time>
      </trkpt>
      <trkpt lat="46.15122" lon="7.80184">
        <ele>1539.2</ele>
        <time>2000-01-01T02:48:08.000Z</time>
      </trkpt>
      <trkpt lat="46.1512" lon="7.80181">
        <ele>1538.1</ele>
        <time>2000-01-01T02:48:18.000Z</time>
      </trkpt>
      <trkpt lat="46.15117" lon="7.80181">
        <ele>1552</ele>
        <time>2000-01-01T02:48:28.000Z</time>
      </trkpt>
      <trkpt lat="46.15114" lon="7.80178">
        <ele>1537.8</ele>
        <time>2000-01-01T02:48:38.000Z</time>
      </trkpt>
      <trkpt lat="46.15111" lon="7.80175">
        <ele>1536.9</ele>
        <time>2000-01-01T02:48:48.000Z</time>
      </trkpt>
      <trkpt lat="46.15103" lon="7.80171">
        <ele>1538.2</ele>
        <time>2000-01-01T02:48:58.000Z</time>
      </trkpt>
      <trkpt lat="46.15099" lon="7.80172">
        <ele>1550</ele>
        <time>2000-01-01T02:49:08.000Z</time>
      </trkpt>
      <trkpt lat="46.15095" lon="7.80174">
        <ele>1542.8</ele>
        <time>2000-01-01T02:49:18.000Z</time>
      </trkpt>
      <trkpt lat="46.15092" lon="7.80174">
        <ele>1544</ele>
        <time>2000-01-01T02:49:28.000Z</time>
      </trkpt>
      <trkpt lat="46.15088" lon="7.80172">
        <ele>1544.6</ele>
        <time>2000-01-01T02:49:38.000Z</time>
      </trkpt>
      <trkpt lat="46.15079" lon="7.80168">
        <ele>1550</ele>
        <time>2000-01-01T02:49:48.000Z</time>
      </trkpt>
      <trkpt lat="46.15067" lon="7.80168">
        <ele>1549.4</ele>
        <time>2000-01-01T02:49:58.000Z</time>
      </trkpt>
      <trkpt lat="46.15056" lon="7.80165">
        <ele>1550</ele>
        <time>2000-01-01T02:50:08.000Z</time>
      </trkpt>
      <trkpt lat="46.15049" lon="7.80166">
        <ele>1552.1</ele>
        <time>2000-01-01T02:50:18.000Z</time>
      </trkpt>
      <trkpt lat="46.1504" lon="7.80169">
        <ele>1554.9</ele>
        <time>2000-01-01T02:50:28.000Z</time>
      </trkpt>
      <trkpt lat="46.15038" lon="7.80177">
        <ele>1563</ele>
        <time>2000-01-01T02:50:38.000Z</time>
      </trkpt>
      <trkpt lat="46.1502" lon="7.8018">
        <ele>1571.7</ele>
        <time>2000-01-01T02:50:48.000Z</time>
      </trkpt>
      <trkpt lat="46.15021" lon="7.80178">
        <ele>1571</ele>
        <time>2000-01-01T02:50:58.000Z</time>
      </trkpt>
      <trkpt lat="46.15017" lon="7.80176">
        <ele>1570</ele>
        <time>2000-01-01T02:51:08.000Z</time>
      </trkpt>
      <trkpt lat="46.15015" lon="7.80173">
        <ele>1568.2</ele>
        <time>2000-01-01T02:51:18.000Z</time>
      </trkpt>
      <trkpt lat="46.15014" lon="7.80169">
        <ele>1564.5</ele>
        <time>2000-01-01T02:51:28.000Z</time>
      </trkpt>
      <trkpt lat="46.15015" lon="7.80166">
        <ele>1561</ele>
        <time>2000-01-01T02:51:38.000Z</time>
      </trkpt>
      <trkpt lat="46.15012" lon="7.80164">
        <ele>1561.6</ele>
        <time>2000-01-01T02:51:48.000Z</time>
      </trkpt>
      <trkpt lat="46.15006" lon="7.80168">
        <ele>1571</ele>
        <time>2000-01-01T02:51:58.000Z</time>
      </trkpt>
      <trkpt lat="46.15004" lon="7.80171">
        <ele>1573.2</ele>
        <time>2000-01-01T02:52:08.000Z</time>
      </trkpt>
      <trkpt lat="46.14995" lon="7.80157">
        <ele>1568.4</ele>
        <time>2000-01-01T02:52:18.000Z</time>
      </trkpt>
      <trkpt lat="46.14994" lon="7.80152">
        <ele>1571</ele>
        <time>2000-01-01T02:52:28.000Z</time>
      </trkpt>
      <trkpt lat="46.14993" lon="7.80148">
        <ele>1564.9</ele>
        <time>2000-01-01T02:52:38.000Z</time>
      </trkpt>
      <trkpt lat="46.1497" lon="7.80157">
        <ele>1593</ele>
        <time>2000-01-01T02:52:48.000Z</time>
      </trkpt>
      <trkpt lat="46.14972" lon="7.80154">
        <ele>1586.8</ele>
        <time>2000-01-01T02:52:58.000Z</time>
      </trkpt>
      <trkpt lat="46.14948" lon="7.80127">
        <ele>1601</ele>
        <time>2000-01-01T02:53:08.000Z</time>
      </trkpt>
      <trkpt lat="46.14945" lon="7.80126">
        <ele>1591.6</ele>
        <time>2000-01-01T02:53:18.000Z</time>
      </trkpt>
      <trkpt lat="46.14942" lon="7.80124">
        <ele>1593.2</ele>
        <time>2000-01-01T02:53:28.000Z</time>
      </trkpt>
      <trkpt lat="46.14944" lon="7.80129">
        <ele>1594.4</ele>
        <time>2000-01-01T02:53:38.000Z</time>
      </trkpt>
      <trkpt lat="46.14946" lon="7.80134">
        <ele>1595.7</ele>
        <time>2000-01-01T02:53:48.000Z</time>
      </trkpt>
      <trkpt lat="46.14949" lon="7.80137">
        <ele>1603</ele>
        <time>2000-01-01T02:53:58.000Z</time>
      </trkpt>
      <trkpt lat="46.14947" lon="7.80141">
        <ele>1599.3</ele>
        <time>2000-01-01T02:54:08.000Z</time>
      </trkpt>
      <trkpt lat="46.14943" lon="7.80141">
        <ele>1602.5</ele>
        <time>2000-01-01T02:54:18.000Z</time>
      </trkpt>
      <trkpt lat="46.14941" lon="7.80136">
        <ele>1601.3</ele>
        <time>2000-01-01T02:54:28.000Z</time>
      </trkpt>
      <trkpt lat="46.14938" lon="7.80134">
        <ele>1602.8</ele>
        <time>2000-01-01T02:54:38.000Z</time>
      </trkpt>
      <trkpt lat="46.14935" lon="7.80133">
        <ele>1604.9</ele>
        <time>2000-01-01T02:54:48.000Z</time>
      </trkpt>
      <trkpt lat="46.14932" lon="7.8013">
        <ele>1611</ele>
        <time>2000-01-01T02:54:58.000Z</time>
      </trkpt>
      <trkpt lat="46.14931" lon="7.80126">
        <ele>1604.9</ele>
        <time>2000-01-01T02:55:08.000Z</time>
      </trkpt>
      <trkpt lat="46.14931" lon="7.8013">
        <ele>1607</ele>
        <time>2000-01-01T02:55:18.000Z</time>
      </trkpt>
      <trkpt lat="46.14923" lon="7.8014">
        <ele>1619.2</ele>
        <time>2000-01-01T02:55:28.000Z</time>
      </trkpt>
      <trkpt lat="46.14921" lon="7.80145">
        <ele>1623</ele>
        <time>2000-01-01T02:55:38.000Z</time>
      </trkpt>
      <trkpt lat="46.14918" lon="7.80146">
        <ele>1627</ele>
        <time>2000-01-01T02:55:48.000Z</time>
      </trkpt>
      <trkpt lat="46.14911" lon="7.80146">
        <ele>1629.5</ele>
        <time>2000-01-01T02:55:58.000Z</time>
      </trkpt>
      <trkpt lat="46.14909" lon="7.80146">
        <ele>1630</ele>
        <time>2000-01-01T02:56:08.000Z</time>
      </trkpt>
      <trkpt lat="46.14911" lon="7.80148">
        <ele>1630.7</ele>
        <time>2000-01-01T02:56:18.000Z</time>
      </trkpt>
      <trkpt lat="46.14914" lon="7.8015">
        <ele>1632</ele>
        <time>2000-01-01T02:56:28.000Z</time>
      </trkpt>
      <trkpt lat="46.14913" lon="7.80155">
        <ele>1634.4</ele>
        <time>2000-01-01T02:56:38.000Z</time>
      </trkpt>
      <trkpt lat="46.14914" lon="7.80158">
        <ele>1635.8</ele>
        <time>2000-01-01T02:56:48.000Z</time>
      </trkpt>
      <trkpt lat="46.14913" lon="7.80162">
        <ele>1638.5</ele>
        <time>2000-01-01T02:56:58.000Z</time>
      </trkpt>
      <trkpt lat="46.14911" lon="7.80162">
        <ele>1639.2</ele>
        <time>2000-01-01T02:57:08.000Z</time>
      </trkpt>
      <trkpt lat="46.14916" lon="7.80168">
        <ele>1641.1</ele>
        <time>2000-01-01T02:57:18.000Z</time>
      </trkpt>
      <trkpt lat="46.14913" lon="7.80169">
        <ele>1640</ele>
        <time>2000-01-01T02:57:28.000Z</time>
      </trkpt>
      <trkpt lat="46.14909" lon="7.80169">
        <ele>1644.4</ele>
        <time>2000-01-01T02:57:38.000Z</time>
      </trkpt>
      <trkpt lat="46.14902" lon="7.80165">
        <ele>1644.2</ele>
        <time>2000-01-01T02:57:48.000Z</time>
      </trkpt>
      <trkpt lat="46.14899" lon="7.80164">
        <ele>1644.6</ele>
        <time>2000-01-01T02:57:58.000Z</time>
      </trkpt>
      <trkpt lat="46.14892" lon="7.80169">
        <ele>1650</ele>
        <time>2000-01-01T02:58:08.000Z</time>
      </trkpt>
      <trkpt lat="46.14894" lon="7.80173">
        <ele>1654.1</ele>
        <time>2000-01-01T02:58:18.000Z</time>
      </trkpt>
      <trkpt lat="46.14897" lon="7.80176">
        <ele>1655.4</ele>
        <time>2000-01-01T02:58:28.000Z</time>
      </trkpt>
      <trkpt lat="46.14901" lon="7.80182">
        <ele>1658.4</ele>
        <time>2000-01-01T02:58:38.000Z</time>
      </trkpt>
      <trkpt lat="46.14903" lon="7.80186">
        <ele>1660.5</ele>
        <time>2000-01-01T02:58:48.000Z</time>
      </trkpt>
      <trkpt lat="46.14899" lon="7.80185">
        <ele>1670</ele>
        <time>2000-01-01T02:58:58.000Z</time>
      </trkpt>
      <trkpt lat="46.14893" lon="7.80182">
        <ele>1663.1</ele>
        <time>2000-01-01T02:59:08.000Z</time>
      </trkpt>
      <trkpt lat="46.1489" lon="7.80181">
        <ele>1663.8</ele>
        <time>2000-01-01T02:59:18.000Z</time>
      </trkpt>
      <trkpt lat="46.14885" lon="7.80184">
        <ele>1668.9</ele>
        <time>2000-01-01T02:59:28.000Z</time>
      </trkpt>
      <trkpt lat="46.14888" lon="7.80188">
        <ele>1673</ele>
        <time>2000-01-01T02:59:38.000Z</time>
      </trkpt>
      <trkpt lat="46.14885" lon="7.80185">
        <ele>1669.8</ele>
        <time>2000-01-01T02:59:48.000Z</time>
      </trkpt>
      <trkpt lat="46.14887" lon="7.80189">
        <ele>1672.9</ele>
        <time>2000-01-01T02:59:58.000Z</time>
      </trkpt>
      <trkpt lat="46.14884" lon="7.80191">
        <ele>1675.3</ele>
        <time>2000-01-01T03:00:08.000Z</time>
      </trkpt>
      <trkpt lat="46.14884" lon="7.80195">
        <ele>1678.8</ele>
        <time>2000-01-01T03:00:18.000Z</time>
      </trkpt>
      <trkpt lat="46.1488" lon="7.80195">
        <ele>1679.2</ele>
        <time>2000-01-01T03:00:28.000Z</time>
      </trkpt>
      <trkpt lat="46.14876" lon="7.80194">
        <ele>1686</ele>
        <time>2000-01-01T03:00:38.000Z</time>
      </trkpt>
      <trkpt lat="46.14861" lon="7.80184">
        <ele>1677.5</ele>
        <time>2000-01-01T03:00:48.000Z</time>
      </trkpt>
      <trkpt lat="46.14854" lon="7.80182">
        <ele>1693</ele>
        <time>2000-01-01T03:00:58.000Z</time>
      </trkpt>
      <trkpt lat="46.14854" lon="7.80177">
        <ele>1684.5</ele>
        <time>2000-01-01T03:01:08.000Z</time>
      </trkpt>
      <trkpt lat="46.14852" lon="7.80173">
        <ele>1685.6</ele>
        <time>2000-01-01T03:01:18.000Z</time>
      </trkpt>
      <trkpt lat="46.14847" lon="7.80168">
        <ele>1689.8</ele>
        <time>2000-01-01T03:01:28.000Z</time>
      </trkpt>
      <trkpt lat="46.14838" lon="7.80164">
        <ele>1696</ele>
        <time>2000-01-01T03:01:38.000Z</time>
      </trkpt>
      <trkpt lat="46.1484" lon="7.80163">
        <ele>1695.8</ele>
        <time>2000-01-01T03:01:48.000Z</time>
      </trkpt>
      <trkpt lat="46.14837" lon="7.80159">
        <ele>1697.7</ele>
        <time>2000-01-01T03:01:58.000Z</time>
      </trkpt>
      <trkpt lat="46.14845" lon="7.80161">
        <ele>1689.2</ele>
        <time>2000-01-01T03:02:08.000Z</time>
      </trkpt>
      <trkpt lat="46.14844" lon="7.80157">
        <ele>1688.8</ele>
        <time>2000-01-01T03:02:18.000Z</time>
      </trkpt>
      <trkpt lat="46.14835" lon="7.80153">
        <ele>1693</ele>
        <time>2000-01-01T03:02:28.000Z</time>
      </trkpt>
      <trkpt lat="46.14832" lon="7.80152">
        <ele>1700.1</ele>
        <time>2000-01-01T03:02:38.000Z</time>
      </trkpt>
      <trkpt lat="46.14824" lon="7.80149">
        <ele>1703.9</ele>
        <time>2000-01-01T03:02:48.000Z</time>
      </trkpt>
      <trkpt lat="46.14828" lon="7.80149">
        <ele>1701.4</ele>
        <time>2000-01-01T03:02:58.000Z</time>
      </trkpt>
      <trkpt lat="46.14846" lon="7.80154">
        <ele>1690</ele>
        <time>2000-01-01T03:03:08.000Z</time>
      </trkpt>
      <trkpt lat="46.14851" lon="7.80154">
        <ele>1679.3</ele>
        <time>2000-01-01T03:03:18.000Z</time>
      </trkpt>
      <trkpt lat="46.14854" lon="7.80154">
        <ele>1675.8</ele>
        <time>2000-01-01T03:03:28.000Z</time>
      </trkpt>
      <trkpt lat="46.14846" lon="7.80151">
        <ele>1683.9</ele>
        <time>2000-01-01T03:03:38.000Z</time>
      </trkpt>
      <trkpt lat="46.14842" lon="7.80149">
        <ele>1684</ele>
        <time>2000-01-01T03:03:48.000Z</time>
      </trkpt>
      <trkpt lat="46.1484" lon="7.80146">
        <ele>1689</ele>
        <time>2000-01-01T03:03:58.000Z</time>
      </trkpt>
      <trkpt lat="46.1484" lon="7.80141">
        <ele>1686.9</ele>
        <time>2000-01-01T03:04:08.000Z</time>
      </trkpt>
      <trkpt lat="46.14851" lon="7.80131">
        <ele>1682</ele>
        <time>2000-01-01T03:04:18.000Z</time>
      </trkpt>
      <trkpt lat="46.14851" lon="7.80127">
        <ele>1667.9</ele>
        <time>2000-01-01T03:04:28.000Z</time>
      </trkpt>
      <trkpt lat="46.14843" lon="7.80122">
        <ele>1673.9</ele>
        <time>2000-01-01T03:04:38.000Z</time>
      </trkpt>
      <trkpt lat="46.14833" lon="7.8012">
        <ele>1691</ele>
        <time>2000-01-01T03:04:48.000Z</time>
      </trkpt>
      <trkpt lat="46.14824" lon="7.80119">
        <ele>1686.3</ele>
        <time>2000-01-01T03:04:58.000Z</time>
      </trkpt>
      <trkpt lat="46.14814" lon="7.80115">
        <ele>1700</ele>
        <time>2000-01-01T03:05:08.000Z</time>
      </trkpt>
      <trkpt lat="46.14811" lon="7.80116">
        <ele>1690.6</ele>
        <time>2000-01-01T03:05:18.000Z</time>
      </trkpt>
      <trkpt lat="46.14812" lon="7.8012">
        <ele>1692.7</ele>
        <time>2000-01-01T03:05:28.000Z</time>
      </trkpt>
      <trkpt lat="46.14808" lon="7.8012">
        <ele>1694.6</ele>
        <time>2000-01-01T03:05:38.000Z</time>
      </trkpt>
      <trkpt lat="46.14802" lon="7.80123">
        <ele>1699.6</ele>
        <time>2000-01-01T03:05:48.000Z</time>
      </trkpt>
      <trkpt lat="46.14795" lon="7.8012">
        <ele>1714</ele>
        <time>2000-01-01T03:05:58.000Z</time>
      </trkpt>
      <trkpt lat="46.14791" lon="7.80118">
        <ele>1702.5</ele>
        <time>2000-01-01T03:06:08.000Z</time>
      </trkpt>
      <trkpt lat="46.14783" lon="7.80114">
        <ele>1704.6</ele>
        <time>2000-01-01T03:06:18.000Z</time>
      </trkpt>
      <trkpt lat="46.14781" lon="7.80112">
        <ele>1704.6</ele>
        <time>2000-01-01T03:06:28.000Z</time>
      </trkpt>
      <trkpt lat="46.14771" lon="7.8011">
        <ele>1715</ele>
        <time>2000-01-01T03:06:38.000Z</time>
      </trkpt>
      <trkpt lat="46.14775" lon="7.80108">
        <ele>1707.5</ele>
        <time>2000-01-01T03:06:48.000Z</time>
      </trkpt>
      <trkpt lat="46.14778" lon="7.80104">
        <ele>1705.8</ele>
        <time>2000-01-01T03:06:58.000Z</time>
      </trkpt>
      <trkpt lat="46.14775" lon="7.80096">
        <ele>1707.1</ele>
        <time>2000-01-01T03:07:08.000Z</time>
      </trkpt>
      <trkpt lat="46.14772" lon="7.80088">
        <ele>1716</ele>
        <time>2000-01-01T03:07:18.000Z</time>
      </trkpt>
      <trkpt lat="46.14771" lon="7.80084">
        <ele>1707.8</ele>
        <time>2000-01-01T03:07:28.000Z</time>
      </trkpt>
      <trkpt lat="46.14768" lon="7.80082">
        <ele>1707.6</ele>
        <time>2000-01-01T03:07:38.000Z</time>
      </trkpt>
      <trkpt lat="46.14764" lon="7.80073">
        <ele>1703.5</ele>
        <time>2000-01-01T03:07:48.000Z</time>
      </trkpt>
      <trkpt lat="46.14758" lon="7.80066">
        <ele>1716</ele>
        <time>2000-01-01T03:07:58.000Z</time>
      </trkpt>
      <trkpt lat="46.14756" lon="7.80064">
        <ele>1702.3</ele>
        <time>2000-01-01T03:08:08.000Z</time>
      </trkpt>
      <trkpt lat="46.14753" lon="7.80062">
        <ele>1703</ele>
        <time>2000-01-01T03:08:18.000Z</time>
      </trkpt>
      <trkpt lat="46.14749" lon="7.8006">
        <ele>1703.9</ele>
        <time>2000-01-01T03:08:28.000Z</time>
      </trkpt>
      <trkpt lat="46.14748" lon="7.80056">
        <ele>1702.5</ele>
        <time>2000-01-01T03:08:38.000Z</time>
      </trkpt>
      <trkpt lat="46.14745" lon="7.80054">
        <ele>1701.8</ele>
        <time>2000-01-01T03:08:48.000Z</time>
      </trkpt>
      <trkpt lat="46.14739" lon="7.80056">
        <ele>1716</ele>
        <time>2000-01-01T03:08:58.000Z</time>
      </trkpt>
      <trkpt lat="46.14736" lon="7.80055">
        <ele>1703.7</ele>
        <time>2000-01-01T03:09:08.000Z</time>
      </trkpt>
      <trkpt lat="46.1473" lon="7.80049">
        <ele>1702.1</ele>
        <time>2000-01-01T03:09:18.000Z</time>
      </trkpt>
      <trkpt lat="46.14724" lon="7.80046">
        <ele>1702.4</ele>
        <time>2000-01-01T03:09:28.000Z</time>
      </trkpt>
      <trkpt lat="46.14721" lon="7.80046">
        <ele>1716</ele>
        <time>2000-01-01T03:09:38.000Z</time>
      </trkpt>
      <trkpt lat="46.14718" lon="7.80048">
        <ele>1702.9</ele>
        <time>2000-01-01T03:09:48.000Z</time>
      </trkpt>
      <trkpt lat="46.14716" lon="7.80051">
        <ele>1703.6</ele>
        <time>2000-01-01T03:09:58.000Z</time>
      </trkpt>
      <trkpt lat="46.14714" lon="7.80047">
        <ele>1702</ele>
        <time>2000-01-01T03:10:08.000Z</time>
      </trkpt>
      <trkpt lat="46.1471" lon="7.80048">
        <ele>1701.7</ele>
        <time>2000-01-01T03:10:18.000Z</time>
      </trkpt>
      <trkpt lat="46.14707" lon="7.80051">
        <ele>1702.2</ele>
        <time>2000-01-01T03:10:28.000Z</time>
      </trkpt>
      <trkpt lat="46.14698" lon="7.80052">
        <ele>1716</ele>
        <time>2000-01-01T03:10:38.000Z</time>
      </trkpt>
      <trkpt lat="46.14696" lon="7.80054">
        <ele>1701.7</ele>
        <time>2000-01-01T03:10:48.000Z</time>
      </trkpt>
      <trkpt lat="46.14693" lon="7.80055">
        <ele>1702</ele>
        <time>2000-01-01T03:10:58.000Z</time>
      </trkpt>
      <trkpt lat="46.14685" lon="7.80052">
        <ele>1701.9</ele>
        <time>2000-01-01T03:11:08.000Z</time>
      </trkpt>
      <trkpt lat="46.14678" lon="7.80052">
        <ele>1716</ele>
        <time>2000-01-01T03:11:18.000Z</time>
      </trkpt>
      <trkpt lat="46.14672" lon="7.80047">
        <ele>1701.2</ele>
        <time>2000-01-01T03:11:28.000Z</time>
      </trkpt>
      <trkpt lat="46.1467" lon="7.80044">
        <ele>1699.9</ele>
        <time>2000-01-01T03:11:38.000Z</time>
      </trkpt>
      <trkpt lat="46.14665" lon="7.8004">
        <ele>1698.2</ele>
        <time>2000-01-01T03:11:48.000Z</time>
      </trkpt>
      <trkpt lat="46.14661" lon="7.80038">
        <ele>1716</ele>
        <time>2000-01-01T03:11:58.000Z</time>
      </trkpt>
      <trkpt lat="46.14659" lon="7.80041">
        <ele>1699</ele>
        <time>2000-01-01T03:12:08.000Z</time>
      </trkpt>
      <trkpt lat="46.14647" lon="7.80042">
        <ele>1700.3</ele>
        <time>2000-01-01T03:12:18.000Z</time>
      </trkpt>
      <trkpt lat="46.14641" lon="7.80042">
        <ele>1717</ele>
        <time>2000-01-01T03:12:28.000Z</time>
      </trkpt>
      <trkpt lat="46.14631" lon="7.80037">
        <ele>1697.8</ele>
        <time>2000-01-01T03:12:38.000Z</time>
      </trkpt>
      <trkpt lat="46.14629" lon="7.80034">
        <ele>1695.6</ele>
        <time>2000-01-01T03:12:48.000Z</time>
      </trkpt>
      <trkpt lat="46.14626" lon="7.80032">
        <ele>1694.4</ele>
        <time>2000-01-01T03:12:58.000Z</time>
      </trkpt>
      <trkpt lat="46.14627" lon="7.80034">
        <ele>1696</ele>
        <time>2000-01-01T03:13:08.000Z</time>
      </trkpt>
      <trkpt lat="46.14624" lon="7.8003">
        <ele>1715</ele>
        <time>2000-01-01T03:13:18.000Z</time>
      </trkpt>
      <trkpt lat="46.14627" lon="7.80026">
        <ele>1689.5</ele>
        <time>2000-01-01T03:13:28.000Z</time>
      </trkpt>
      <trkpt lat="46.14624" lon="7.80023">
        <ele>1688.4</ele>
        <time>2000-01-01T03:13:38.000Z</time>
      </trkpt>
      <trkpt lat="46.14623" lon="7.80019">
        <ele>1686.3</ele>
        <time>2000-01-01T03:13:48.000Z</time>
      </trkpt>
      <trkpt lat="46.14621" lon="7.80016">
        <ele>1685.2</ele>
        <time>2000-01-01T03:13:58.000Z</time>
      </trkpt>
      <trkpt lat="46.14613" lon="7.80013">
        <ele>1716</ele>
        <time>2000-01-01T03:14:08.000Z</time>
      </trkpt>
      <trkpt lat="46.14606" lon="7.80011">
        <ele>1687.9</ele>
        <time>2000-01-01T03:14:18.000Z</time>
      </trkpt>
      <trkpt lat="46.14602" lon="7.80013">
        <ele>1690.9</ele>
        <time>2000-01-01T03:14:28.000Z</time>
      </trkpt>
      <trkpt lat="46.14599" lon="7.80011">
        <ele>1691.2</ele>
        <time>2000-01-01T03:14:38.000Z</time>
      </trkpt>
      <trkpt lat="46.14593" lon="7.80007">
        <ele>1717</ele>
        <time>2000-01-01T03:14:48.000Z</time>
      </trkpt>
      <trkpt lat="46.14585" lon="7.80003">
        <ele>1692.4</ele>
        <time>2000-01-01T03:14:58.000Z</time>
      </trkpt>
      <trkpt lat="46.14583" lon="7.79999">
        <ele>1690.8</ele>
        <time>2000-01-01T03:15:08.000Z</time>
      </trkpt>
      <trkpt lat="46.1458" lon="7.79996">
        <ele>1691.1</ele>
        <time>2000-01-01T03:15:18.000Z</time>
      </trkpt>
      <trkpt lat="46.14573" lon="7.79991">
        <ele>1716</ele>
        <time>2000-01-01T03:15:28.000Z</time>
      </trkpt>
      <trkpt lat="46.14571" lon="7.79988">
        <ele>1692.7</ele>
        <time>2000-01-01T03:15:38.000Z</time>
      </trkpt>
      <trkpt lat="46.14564" lon="7.79983">
        <ele>1694.4</ele>
        <time>2000-01-01T03:15:48.000Z</time>
      </trkpt>
      <trkpt lat="46.1456" lon="7.79981">
        <ele>1695.8</ele>
        <time>2000-01-01T03:15:58.000Z</time>
      </trkpt>
      <trkpt lat="46.14559" lon="7.79977">
        <ele>1694.9</ele>
        <time>2000-01-01T03:16:08.000Z</time>
      </trkpt>
      <trkpt lat="46.14562" lon="7.79975">
        <ele>1716</ele>
        <time>2000-01-01T03:16:18.000Z</time>
      </trkpt>
      <trkpt lat="46.14564" lon="7.79977">
        <ele>1692.2</ele>
        <time>2000-01-01T03:16:28.000Z</time>
      </trkpt>
      <trkpt lat="46.14565" lon="7.79973">
        <ele>1690.2</ele>
        <time>2000-01-01T03:16:38.000Z</time>
      </trkpt>
      <trkpt lat="46.14566" lon="7.79964">
        <ele>1686.3</ele>
        <time>2000-01-01T03:16:48.000Z</time>
      </trkpt>
      <trkpt lat="46.14566" lon="7.79959">
        <ele>1684.4</ele>
        <time>2000-01-01T03:16:58.000Z</time>
      </trkpt>
      <trkpt lat="46.14564" lon="7.79956">
        <ele>1711</ele>
        <time>2000-01-01T03:17:08.000Z</time>
      </trkpt>
      <trkpt lat="46.14564" lon="7.79952">
        <ele>1682.9</ele>
        <time>2000-01-01T03:17:18.000Z</time>
      </trkpt>
      <trkpt lat="46.14567" lon="7.7995">
        <ele>1680.5</ele>
        <time>2000-01-01T03:17:28.000Z</time>
      </trkpt>
      <trkpt lat="46.14569" lon="7.79946">
        <ele>1677.8</ele>
        <time>2000-01-01T03:17:38.000Z</time>
      </trkpt>
      <trkpt lat="46.14568" lon="7.79942">
        <ele>1677.5</ele>
        <time>2000-01-01T03:17:48.000Z</time>
      </trkpt>
      <trkpt lat="46.14563" lon="7.79934">
        <ele>1710</ele>
        <time>2000-01-01T03:17:58.000Z</time>
      </trkpt>
      <trkpt lat="46.14561" lon="7.79929">
        <ele>1680.1</ele>
        <time>2000-01-01T03:18:08.000Z</time>
      </trkpt>
      <trkpt lat="46.14561" lon="7.79923">
        <ele>1679.4</ele>
        <time>2000-01-01T03:18:18.000Z</time>
      </trkpt>
      <trkpt lat="46.14562" lon="7.79918">
        <ele>1678.2</ele>
        <time>2000-01-01T03:18:28.000Z</time>
      </trkpt>
      <trkpt lat="46.14559" lon="7.79909">
        <ele>1681.9</ele>
        <time>2000-01-01T03:18:38.000Z</time>
      </trkpt>
      <trkpt lat="46.14556" lon="7.79899">
        <ele>1710</ele>
        <time>2000-01-01T03:18:48.000Z</time>
      </trkpt>
      <trkpt lat="46.1456" lon="7.79896">
        <ele>1684.6</ele>
        <time>2000-01-01T03:18:58.000Z</time>
      </trkpt>
      <trkpt lat="46.14568" lon="7.79896">
        <ele>1678.7</ele>
        <time>2000-01-01T03:19:08.000Z</time>
      </trkpt>
      <trkpt lat="46.14574" lon="7.79887">
        <ele>1708</ele>
        <time>2000-01-01T03:19:18.000Z</time>
      </trkpt>
      <trkpt lat="46.14574" lon="7.79882">
        <ele>1677.2</ele>
        <time>2000-01-01T03:19:28.000Z</time>
      </trkpt>
      <trkpt lat="46.14572" lon="7.79877">
        <ele>1679.9</ele>
        <time>2000-01-01T03:19:38.000Z</time>
      </trkpt>
      <trkpt lat="46.14574" lon="7.79867">
        <ele>1681.2</ele>
        <time>2000-01-01T03:19:48.000Z</time>
      </trkpt>
      <trkpt lat="46.14573" lon="7.79862">
        <ele>1683</ele>
        <time>2000-01-01T03:19:58.000Z</time>
      </trkpt>
      <trkpt lat="46.14567" lon="7.79859">
        <ele>1708</ele>
        <time>2000-01-01T03:20:08.000Z</time>
      </trkpt>
      <trkpt lat="46.14561" lon="7.79858">
        <ele>1688.6</ele>
        <time>2000-01-01T03:20:18.000Z</time>
      </trkpt>
      <trkpt lat="46.14554" lon="7.79864">
        <ele>1692.6</ele>
        <time>2000-01-01T03:20:28.000Z</time>
      </trkpt>
      <trkpt lat="46.14551" lon="7.79861">
        <ele>1694.1</ele>
        <time>2000-01-01T03:20:38.000Z</time>
      </trkpt>
      <trkpt lat="46.1455" lon="7.79855">
        <ele>1709</ele>
        <time>2000-01-01T03:20:48.000Z</time>
      </trkpt>
      <trkpt lat="46.14549" lon="7.79852">
        <ele>1692.6</ele>
        <time>2000-01-01T03:20:58.000Z</time>
      </trkpt>
      <trkpt lat="46.14546" lon="7.7985">
        <ele>1693.4</ele>
        <time>2000-01-01T03:21:08.000Z</time>
      </trkpt>
      <trkpt lat="46.14546" lon="7.79855">
        <ele>1694.8</ele>
        <time>2000-01-01T03:21:18.000Z</time>
      </trkpt>
      <trkpt lat="46.14547" lon="7.79859">
        <ele>1695.4</ele>
        <time>2000-01-01T03:21:28.000Z</time>
      </trkpt>
      <trkpt lat="46.14549" lon="7.79862">
        <ele>1695.1</ele>
        <time>2000-01-01T03:21:38.000Z</time>
      </trkpt>
      <trkpt lat="46.14547" lon="7.79865">
        <ele>1696.2</ele>
        <time>2000-01-01T03:21:48.000Z</time>
      </trkpt>
      <trkpt lat="46.14546" lon="7.79857">
        <ele>1708</ele>
        <time>2000-01-01T03:21:58.000Z</time>
      </trkpt>
      <trkpt lat="46.14534" lon="7.79845">
        <ele>1697.1</ele>
        <time>2000-01-01T03:22:08.000Z</time>
      </trkpt>
      <trkpt lat="46.1453" lon="7.79838">
        <ele>1708</ele>
        <time>2000-01-01T03:22:18.000Z</time>
      </trkpt>
      <trkpt lat="46.14528" lon="7.79836">
        <ele>1696.8</ele>
        <time>2000-01-01T03:22:28.000Z</time>
      </trkpt>
      <trkpt lat="46.14525" lon="7.7984">
        <ele>1699.2</ele>
        <time>2000-01-01T03:22:38.000Z</time>
      </trkpt>
      <trkpt lat="46.14524" lon="7.79837">
        <ele>1698.6</ele>
        <time>2000-01-01T03:22:48.000Z</time>
      </trkpt>
      <trkpt lat="46.14524" lon="7.79831">
        <ele>1696.3</ele>
        <time>2000-01-01T03:22:58.000Z</time>
      </trkpt>
      <trkpt lat="46.14525" lon="7.79827">
        <ele>1693.9</ele>
        <time>2000-01-01T03:23:08.000Z</time>
      </trkpt>
      <trkpt lat="46.14521" lon="7.79827">
        <ele>1710</ele>
        <time>2000-01-01T03:23:18.000Z</time>
      </trkpt>
      <trkpt lat="46.14518" lon="7.79823">
        <ele>1694.5</ele>
        <time>2000-01-01T03:23:28.000Z</time>
      </trkpt>
      <trkpt lat="46.14515" lon="7.7982">
        <ele>1694.1</ele>
        <time>2000-01-01T03:23:38.000Z</time>
      </trkpt>
      <trkpt lat="46.14511" lon="7.79819">
        <ele>1695.1</ele>
        <time>2000-01-01T03:23:48.000Z</time>
      </trkpt>
      <trkpt lat="46.14506" lon="7.7982">
        <ele>1697.5</ele>
        <time>2000-01-01T03:23:58.000Z</time>
      </trkpt>
      <trkpt lat="46.14469" lon="7.79852">
        <ele>1708</ele>
        <time>2000-01-01T03:24:08.000Z</time>
      </trkpt>
      <trkpt lat="46.14462" lon="7.79845">
        <ele>1707</ele>
        <time>2000-01-01T03:24:18.000Z</time>
      </trkpt>
      <trkpt lat="46.1446" lon="7.79841">
        <ele>1705.2</ele>
        <time>2000-01-01T03:24:28.000Z</time>
      </trkpt>
      <trkpt lat="46.14457" lon="7.79841">
        <ele>1704.9</ele>
        <time>2000-01-01T03:24:38.000Z</time>
      </trkpt>
      <trkpt lat="46.14453" lon="7.79842">
        <ele>1706</ele>
        <time>2000-01-01T03:24:48.000Z</time>
      </trkpt>
      <trkpt lat="46.14448" lon="7.79843">
        <ele>1704.8</ele>
        <time>2000-01-01T03:24:58.000Z</time>
      </trkpt>
      <trkpt lat="46.14442" lon="7.79841">
        <ele>1703</ele>
        <time>2000-01-01T03:25:08.000Z</time>
      </trkpt>
      <trkpt lat="46.14439" lon="7.79839">
        <ele>1701.3</ele>
        <time>2000-01-01T03:25:18.000Z</time>
      </trkpt>
      <trkpt lat="46.14434" lon="7.79838">
        <ele>1698</ele>
        <time>2000-01-01T03:25:28.000Z</time>
      </trkpt>
      <trkpt lat="46.14431" lon="7.79839">
        <ele>1698.7</ele>
        <time>2000-01-01T03:25:38.000Z</time>
      </trkpt>
      <trkpt lat="46.14433" lon="7.79836">
        <ele>1698</ele>
        <time>2000-01-01T03:25:48.000Z</time>
      </trkpt>
      <trkpt lat="46.14433" lon="7.79831">
        <ele>1695.6</ele>
        <time>2000-01-01T03:25:58.000Z</time>
      </trkpt>
      <trkpt lat="46.14435" lon="7.79828">
        <ele>1694.7</ele>
        <time>2000-01-01T03:26:08.000Z</time>
      </trkpt>
      <trkpt lat="46.14433" lon="7.79824">
        <ele>1691.9</ele>
        <time>2000-01-01T03:26:18.000Z</time>
      </trkpt>
      <trkpt lat="46.14428" lon="7.79825">
        <ele>1694</ele>
        <time>2000-01-01T03:26:28.000Z</time>
      </trkpt>
      <trkpt lat="46.14416" lon="7.79826">
        <ele>1687.3</ele>
        <time>2000-01-01T03:26:38.000Z</time>
      </trkpt>
      <trkpt lat="46.14415" lon="7.79832">
        <ele>1689.7</ele>
        <time>2000-01-01T03:26:48.000Z</time>
      </trkpt>
      <trkpt lat="46.14413" lon="7.79836">
        <ele>1691</ele>
        <time>2000-01-01T03:26:58.000Z</time>
      </trkpt>
      <trkpt lat="46.14414" lon="7.79847">
        <ele>1697.1</ele>
        <time>2000-01-01T03:27:08.000Z</time>
      </trkpt>
      <trkpt lat="46.14407" lon="7.79845">
        <ele>1692.9</ele>
        <time>2000-01-01T03:27:18.000Z</time>
      </trkpt>
      <trkpt lat="46.14404" lon="7.79844">
        <ele>1691</ele>
        <time>2000-01-01T03:27:28.000Z</time>
      </trkpt>
      <trkpt lat="46.14398" lon="7.79846">
        <ele>1696</ele>
        <time>2000-01-01T03:27:38.000Z</time>
      </trkpt>
      <trkpt lat="46.14389" lon="7.79844">
        <ele>1684.3</ele>
        <time>2000-01-01T03:27:48.000Z</time>
      </trkpt>
      <trkpt lat="46.14394" lon="7.79865">
        <ele>1692</ele>
        <time>2000-01-01T03:27:58.000Z</time>
      </trkpt>
      <trkpt lat="46.14389" lon="7.79857">
        <ele>1689.4</ele>
        <time>2000-01-01T03:28:08.000Z</time>
      </trkpt>
      <trkpt lat="46.14384" lon="7.79849">
        <ele>1685.5</ele>
        <time>2000-01-01T03:28:18.000Z</time>
      </trkpt>
      <trkpt lat="46.14381" lon="7.79846">
        <ele>1683.4</ele>
        <time>2000-01-01T03:28:28.000Z</time>
      </trkpt>
      <trkpt lat="46.14373" lon="7.7984">
        <ele>1688</ele>
        <time>2000-01-01T03:28:38.000Z</time>
      </trkpt>
      <trkpt lat="46.14365" lon="7.79829">
        <ele>1669</ele>
        <time>2000-01-01T03:28:48.000Z</time>
      </trkpt>
      <trkpt lat="46.14361" lon="7.79828">
        <ele>1667.1</ele>
        <time>2000-01-01T03:28:58.000Z</time>
      </trkpt>
      <trkpt lat="46.14352" lon="7.79827">
        <ele>1667</ele>
        <time>2000-01-01T03:29:08.000Z</time>
      </trkpt>
      <trkpt lat="46.14351" lon="7.79823">
        <ele>1662.9</ele>
        <time>2000-01-01T03:29:18.000Z</time>
      </trkpt>
      <trkpt lat="46.14348" lon="7.7982">
        <ele>1660.7</ele>
        <time>2000-01-01T03:29:28.000Z</time>
      </trkpt>
      <trkpt lat="46.14345" lon="7.79818">
        <ele>1658.9</ele>
        <time>2000-01-01T03:29:38.000Z</time>
      </trkpt>
      <trkpt lat="46.14341" lon="7.79818">
        <ele>1657.8</ele>
        <time>2000-01-01T03:29:48.000Z</time>
      </trkpt>
      <trkpt lat="46.14332" lon="7.79814">
        <ele>1653</ele>
        <time>2000-01-01T03:29:58.000Z</time>
      </trkpt>
      <trkpt lat="46.14328" lon="7.79814">
        <ele>1651.3</ele>
        <time>2000-01-01T03:30:08.000Z</time>
      </trkpt>
      <trkpt lat="46.14327" lon="7.7981">
        <ele>1648.6</ele>
        <time>2000-01-01T03:30:18.000Z</time>
      </trkpt>
      <trkpt lat="46.14325" lon="7.79807">
        <ele>1646.1</ele>
        <time>2000-01-01T03:30:28.000Z</time>
      </trkpt>
      <trkpt lat="46.14323" lon="7.79804">
        <ele>1644</ele>
        <time>2000-01-01T03:30:38.000Z</time>
      </trkpt>
      <trkpt lat="46.14325" lon="7.79802">
        <ele>1643.7</ele>
        <time>2000-01-01T03:30:48.000Z</time>
      </trkpt>
      <trkpt lat="46.14323" lon="7.79793">
        <ele>1641</ele>
        <time>2000-01-01T03:30:58.000Z</time>
      </trkpt>
      <trkpt lat="46.14324" lon="7.79789">
        <ele>1637.6</ele>
        <time>2000-01-01T03:31:08.000Z</time>
      </trkpt>
      <trkpt lat="46.14326" lon="7.79785">
        <ele>1636.4</ele>
        <time>2000-01-01T03:31:18.000Z</time>
      </trkpt>
      <trkpt lat="46.14326" lon="7.79779">
        <ele>1633.7</ele>
        <time>2000-01-01T03:31:28.000Z</time>
      </trkpt>
      <trkpt lat="46.14332" lon="7.79747">
        <ele>1629</ele>
        <time>2000-01-01T03:31:38.000Z</time>
      </trkpt>
      <trkpt lat="46.14334" lon="7.79744">
        <ele>1626.5</ele>
        <time>2000-01-01T03:31:48.000Z</time>
      </trkpt>
      <trkpt lat="46.14331" lon="7.7974">
        <ele>1624.3</ele>
        <time>2000-01-01T03:31:58.000Z</time>
      </trkpt>
      <trkpt lat="46.14326" lon="7.79739">
        <ele>1622.4</ele>
        <time>2000-01-01T03:32:08.000Z</time>
      </trkpt>
      <trkpt lat="46.14323" lon="7.79735">
        <ele>1620.1</ele>
        <time>2000-01-01T03:32:18.000Z</time>
      </trkpt>
      <trkpt lat="46.14318" lon="7.79726">
        <ele>1622</ele>
        <time>2000-01-01T03:32:28.000Z</time>
      </trkpt>
      <trkpt lat="46.14315" lon="7.79722">
        <ele>1613.3</ele>
        <time>2000-01-01T03:32:38.000Z</time>
      </trkpt>
      <trkpt lat="46.1431" lon="7.79719">
        <ele>1610.5</ele>
        <time>2000-01-01T03:32:48.000Z</time>
      </trkpt>
      <trkpt lat="46.14306" lon="7.79716">
        <ele>1608.1</ele>
        <time>2000-01-01T03:32:58.000Z</time>
      </trkpt>
      <trkpt lat="46.143" lon="7.79708">
        <ele>1613</ele>
        <time>2000-01-01T03:33:08.000Z</time>
      </trkpt>
      <trkpt lat="46.14288" lon="7.79701">
        <ele>1597.8</ele>
        <time>2000-01-01T03:33:18.000Z</time>
      </trkpt>
      <trkpt lat="46.1428" lon="7.79702">
        <ele>1608</ele>
        <time>2000-01-01T03:33:28.000Z</time>
      </trkpt>
      <trkpt lat="46.14278" lon="7.79705">
        <ele>1595.7</ele>
        <time>2000-01-01T03:33:38.000Z</time>
      </trkpt>
      <trkpt lat="46.1427" lon="7.79707">
        <ele>1593.1</ele>
        <time>2000-01-01T03:33:48.000Z</time>
      </trkpt>
      <trkpt lat="46.14258" lon="7.79707">
        <ele>1602</ele>
        <time>2000-01-01T03:33:58.000Z</time>
      </trkpt>
      <trkpt lat="46.14255" lon="7.79706">
        <ele>1587</ele>
        <time>2000-01-01T03:34:08.000Z</time>
      </trkpt>
      <trkpt lat="46.14251" lon="7.79708">
        <ele>1585.8</ele>
        <time>2000-01-01T03:34:18.000Z</time>
      </trkpt>
      <trkpt lat="46.14248" lon="7.7971">
        <ele>1585</ele>
        <time>2000-01-01T03:34:28.000Z</time>
      </trkpt>
      <trkpt lat="46.14247" lon="7.79715">
        <ele>1585.6</ele>
        <time>2000-01-01T03:34:38.000Z</time>
      </trkpt>
      <trkpt lat="46.14246" lon="7.7972">
        <ele>1586.1</ele>
        <time>2000-01-01T03:34:48.000Z</time>
      </trkpt>
      <trkpt lat="46.14243" lon="7.79724">
        <ele>1596</ele>
        <time>2000-01-01T03:34:58.000Z</time>
      </trkpt>
      <trkpt lat="46.14238" lon="7.79725">
        <ele>1584.6</ele>
        <time>2000-01-01T03:35:08.000Z</time>
      </trkpt>
      <trkpt lat="46.14235" lon="7.79724">
        <ele>1583.2</ele>
        <time>2000-01-01T03:35:18.000Z</time>
      </trkpt>
      <trkpt lat="46.14232" lon="7.7972">
        <ele>1581</ele>
        <time>2000-01-01T03:35:28.000Z</time>
      </trkpt>
      <trkpt lat="46.14227" lon="7.79718">
        <ele>1578.7</ele>
        <time>2000-01-01T03:35:38.000Z</time>
      </trkpt>
      <trkpt lat="46.1422" lon="7.79718">
        <ele>1583</ele>
        <time>2000-01-01T03:35:48.000Z</time>
      </trkpt>
      <trkpt lat="46.14216" lon="7.79717">
        <ele>1574.6</ele>
        <time>2000-01-01T03:35:58.000Z</time>
      </trkpt>
      <trkpt lat="46.14203" lon="7.79712">
        <ele>1568.9</ele>
        <time>2000-01-01T03:36:08.000Z</time>
      </trkpt>
      <trkpt lat="46.142" lon="7.79712">
        <ele>1577</ele>
        <time>2000-01-01T03:36:18.000Z</time>
      </trkpt>
      <trkpt lat="46.14196" lon="7.79714">
        <ele>1567.2</ele>
        <time>2000-01-01T03:36:28.000Z</time>
      </trkpt>
      <trkpt lat="46.14191" lon="7.79718">
        <ele>1566.4</ele>
        <time>2000-01-01T03:36:38.000Z</time>
      </trkpt>
      <trkpt lat="46.14185" lon="7.79719">
        <ele>1564.3</ele>
        <time>2000-01-01T03:36:48.000Z</time>
      </trkpt>
      <trkpt lat="46.14167" lon="7.79717">
        <ele>1576</ele>
        <time>2000-01-01T03:36:58.000Z</time>
      </trkpt>
      <trkpt lat="46.14163" lon="7.79715">
        <ele>1554.5</ele>
        <time>2000-01-01T03:37:08.000Z</time>
      </trkpt>
      <trkpt lat="46.1416" lon="7.79717">
        <ele>1554</ele>
        <time>2000-01-01T03:37:18.000Z</time>
      </trkpt>
      <trkpt lat="46.14159" lon="7.79721">
        <ele>1554.9</ele>
        <time>2000-01-01T03:37:28.000Z</time>
      </trkpt>
      <trkpt lat="46.14153" lon="7.79736">
        <ele>1576</ele>
        <time>2000-01-01T03:37:38.000Z</time>
      </trkpt>
      <trkpt lat="46.14147" lon="7.79746">
        <ele>1560.3</ele>
        <time>2000-01-01T03:37:48.000Z</time>
      </trkpt>
      <trkpt lat="46.14144" lon="7.79749">
        <ele>1560.4</ele>
        <time>2000-01-01T03:37:58.000Z</time>
      </trkpt>
      <trkpt lat="46.1414" lon="7.79751">
        <ele>1559.8</ele>
        <time>2000-01-01T03:38:08.000Z</time>
      </trkpt>
      <trkpt lat="46.14133" lon="7.79749">
        <ele>1564</ele>
        <time>2000-01-01T03:38:18.000Z</time>
      </trkpt>
      <trkpt lat="46.1413" lon="7.79751">
        <ele>1555.8</ele>
        <time>2000-01-01T03:38:28.000Z</time>
      </trkpt>
      <trkpt lat="46.14124" lon="7.79767">
        <ele>1557.2</ele>
        <time>2000-01-01T03:38:38.000Z</time>
      </trkpt>
      <trkpt lat="46.1412" lon="7.79768">
        <ele>1562</ele>
        <time>2000-01-01T03:38:48.000Z</time>
      </trkpt>
      <trkpt lat="46.14119" lon="7.79774">
        <ele>1555.7</ele>
        <time>2000-01-01T03:38:58.000Z</time>
      </trkpt>
      <trkpt lat="46.1412" lon="7.79785">
        <ele>1557.4</ele>
        <time>2000-01-01T03:39:08.000Z</time>
      </trkpt>
      <trkpt lat="46.14121" lon="7.79789">
        <ele>1558.3</ele>
        <time>2000-01-01T03:39:18.000Z</time>
      </trkpt>
      <trkpt lat="46.14122" lon="7.79798">
        <ele>1561</ele>
        <time>2000-01-01T03:39:28.000Z</time>
      </trkpt>
      <trkpt lat="46.1412" lon="7.79806">
        <ele>1558.4</ele>
        <time>2000-01-01T03:39:38.000Z</time>
      </trkpt>
      <trkpt lat="46.14121" lon="7.79816">
        <ele>1559.8</ele>
        <time>2000-01-01T03:39:48.000Z</time>
      </trkpt>
      <trkpt lat="46.14118" lon="7.79818">
        <ele>1557.5</ele>
        <time>2000-01-01T03:39:58.000Z</time>
      </trkpt>
      <trkpt lat="46.14115" lon="7.79818">
        <ele>1557</ele>
        <time>2000-01-01T03:40:08.000Z</time>
      </trkpt>
      <trkpt lat="46.1411" lon="7.79811">
        <ele>1551.1</ele>
        <time>2000-01-01T03:40:18.000Z</time>
      </trkpt>
      <trkpt lat="46.14107" lon="7.79802">
        <ele>1549</ele>
        <time>2000-01-01T03:40:28.000Z</time>
      </trkpt>
      <trkpt lat="46.14103" lon="7.79799">
        <ele>1546.7</ele>
        <time>2000-01-01T03:40:38.000Z</time>
      </trkpt>
      <trkpt lat="46.141" lon="7.79799">
        <ele>1548</ele>
        <time>2000-01-01T03:40:48.000Z</time>
      </trkpt>
      <trkpt lat="46.14097" lon="7.79797">
        <ele>1543.2</ele>
        <time>2000-01-01T03:40:58.000Z</time>
      </trkpt>
      <trkpt lat="46.14093" lon="7.79795">
        <ele>1540.5</ele>
        <time>2000-01-01T03:41:08.000Z</time>
      </trkpt>
      <trkpt lat="46.1409" lon="7.79796">
        <ele>1539</ele>
        <time>2000-01-01T03:41:18.000Z</time>
      </trkpt>
      <trkpt lat="46.14092" lon="7.79792">
        <ele>1539.1</ele>
        <time>2000-01-01T03:41:28.000Z</time>
      </trkpt>
      <trkpt lat="46.14092" lon="7.79785">
        <ele>1541</ele>
        <time>2000-01-01T03:41:38.000Z</time>
      </trkpt>
      <trkpt lat="46.14091" lon="7.79786">
        <ele>1536.7</ele>
        <time>2000-01-01T03:41:48.000Z</time>
      </trkpt>
      <trkpt lat="46.14087" lon="7.79777">
        <ele>1531</ele>
        <time>2000-01-01T03:41:58.000Z</time>
      </trkpt>
      <trkpt lat="46.14083" lon="7.79771">
        <ele>1527.9</ele>
        <time>2000-01-01T03:42:08.000Z</time>
      </trkpt>
      <trkpt lat="46.1408" lon="7.79768">
        <ele>1527.1</ele>
        <time>2000-01-01T03:42:18.000Z</time>
      </trkpt>
      <trkpt lat="46.14077" lon="7.79766">
        <ele>1523</ele>
        <time>2000-01-01T03:42:28.000Z</time>
      </trkpt>
      <trkpt lat="46.14071" lon="7.79764">
        <ele>1522.9</ele>
        <time>2000-01-01T03:42:38.000Z</time>
      </trkpt>
      <trkpt lat="46.14068" lon="7.79764">
        <ele>1521.7</ele>
        <time>2000-01-01T03:42:48.000Z</time>
      </trkpt>
      <trkpt lat="46.1406" lon="7.79767">
        <ele>1520.7</ele>
        <time>2000-01-01T03:42:58.000Z</time>
      </trkpt>
      <trkpt lat="46.14056" lon="7.79765">
        <ele>1524</ele>
        <time>2000-01-01T03:43:08.000Z</time>
      </trkpt>
      <trkpt lat="46.14053" lon="7.79762">
        <ele>1514.6</ele>
        <time>2000-01-01T03:43:18.000Z</time>
      </trkpt>
      <trkpt lat="46.14051" lon="7.79759">
        <ele>1511.8</ele>
        <time>2000-01-01T03:43:28.000Z</time>
      </trkpt>
      <trkpt lat="46.14048" lon="7.79759">
        <ele>1511.6</ele>
        <time>2000-01-01T03:43:38.000Z</time>
      </trkpt>
      <trkpt lat="46.14044" lon="7.79762">
        <ele>1513.7</ele>
        <time>2000-01-01T03:43:48.000Z</time>
      </trkpt>
      <trkpt lat="46.14038" lon="7.79762">
        <ele>1516</ele>
        <time>2000-01-01T03:43:58.000Z</time>
      </trkpt>
      <trkpt lat="46.14035" lon="7.79764">
        <ele>1514.4</ele>
        <time>2000-01-01T03:44:08.000Z</time>
      </trkpt>
      <trkpt lat="46.14032" lon="7.79765">
        <ele>1514.8</ele>
        <time>2000-01-01T03:44:18.000Z</time>
      </trkpt>
      <trkpt lat="46.14024" lon="7.79766">
        <ele>1515.3</ele>
        <time>2000-01-01T03:44:28.000Z</time>
      </trkpt>
      <trkpt lat="46.14021" lon="7.79765">
        <ele>1514.9</ele>
        <time>2000-01-01T03:44:38.000Z</time>
      </trkpt>
      <trkpt lat="46.14017" lon="7.79759">
        <ele>1509</ele>
        <time>2000-01-01T03:44:48.000Z</time>
      </trkpt>
      <trkpt lat="46.14015" lon="7.79756">
        <ele>1510.5</ele>
        <time>2000-01-01T03:44:58.000Z</time>
      </trkpt>
      <trkpt lat="46.14011" lon="7.79748">
        <ele>1507.1</ele>
        <time>2000-01-01T03:45:08.000Z</time>
      </trkpt>
      <trkpt lat="46.14008" lon="7.79745">
        <ele>1506.3</ele>
        <time>2000-01-01T03:45:18.000Z</time>
      </trkpt>
      <trkpt lat="46.14002" lon="7.79742">
        <ele>1506</ele>
        <time>2000-01-01T03:45:28.000Z</time>
      </trkpt>
      <trkpt lat="46.13999" lon="7.79739">
        <ele>1505.2</ele>
        <time>2000-01-01T03:45:38.000Z</time>
      </trkpt>
      <trkpt lat="46.13996" lon="7.79734">
        <ele>1502.1</ele>
        <time>2000-01-01T03:45:48.000Z</time>
      </trkpt>
      <trkpt lat="46.13994" lon="7.79731">
        <ele>1500.2</ele>
        <time>2000-01-01T03:45:58.000Z</time>
      </trkpt>
      <trkpt lat="46.13985" lon="7.79724">
        <ele>1496</ele>
        <time>2000-01-01T03:46:08.000Z</time>
      </trkpt>
      <trkpt lat="46.13978" lon="7.79721">
        <ele>1493.4</ele>
        <time>2000-01-01T03:46:18.000Z</time>
      </trkpt>
      <trkpt lat="46.13968" lon="7.79707">
        <ele>1482</ele>
        <time>2000-01-01T03:46:28.000Z</time>
      </trkpt>
      <trkpt lat="46.13965" lon="7.79703">
        <ele>1483</ele>
        <time>2000-01-01T03:46:38.000Z</time>
      </trkpt>
      <trkpt lat="46.13962" lon="7.79701">
        <ele>1481.3</ele>
        <time>2000-01-01T03:46:48.000Z</time>
      </trkpt>
      <trkpt lat="46.13955" lon="7.79699">
        <ele>1478.2</ele>
        <time>2000-01-01T03:46:58.000Z</time>
      </trkpt>
      <trkpt lat="46.13948" lon="7.79692">
        <ele>1470</ele>
        <time>2000-01-01T03:47:08.000Z</time>
      </trkpt>
      <trkpt lat="46.13941" lon="7.79688">
        <ele>1469.3</ele>
        <time>2000-01-01T03:47:18.000Z</time>
      </trkpt>
      <trkpt lat="46.13934" lon="7.79689">
        <ele>1467.7</ele>
        <time>2000-01-01T03:47:28.000Z</time>
      </trkpt>
      <trkpt lat="46.1393" lon="7.79689">
        <ele>1466.6</ele>
        <time>2000-01-01T03:47:38.000Z</time>
      </trkpt>
      <trkpt lat="46.13928" lon="7.79685">
        <ele>1463</ele>
        <time>2000-01-01T03:47:48.000Z</time>
      </trkpt>
      <trkpt lat="46.13925" lon="7.79683">
        <ele>1462.7</ele>
        <time>2000-01-01T03:47:58.000Z</time>
      </trkpt>
      <trkpt lat="46.13914" lon="7.79686">
        <ele>1460.7</ele>
        <time>2000-01-01T03:48:08.000Z</time>
      </trkpt>
      <trkpt lat="46.13908" lon="7.79691">
        <ele>1460</ele>
        <time>2000-01-01T03:48:18.000Z</time>
      </trkpt>
      <trkpt lat="46.13904" lon="7.79692">
        <ele>1459.1</ele>
        <time>2000-01-01T03:48:28.000Z</time>
      </trkpt>
      <trkpt lat="46.13898" lon="7.79691">
        <ele>1456.4</ele>
        <time>2000-01-01T03:48:38.000Z</time>
      </trkpt>
      <trkpt lat="46.13894" lon="7.79689">
        <ele>1454.2</ele>
        <time>2000-01-01T03:48:48.000Z</time>
      </trkpt>
      <trkpt lat="46.1389" lon="7.79682">
        <ele>1452</ele>
        <time>2000-01-01T03:48:58.000Z</time>
      </trkpt>
      <trkpt lat="46.13887" lon="7.7968">
        <ele>1448.4</ele>
        <time>2000-01-01T03:49:08.000Z</time>
      </trkpt>
      <trkpt lat="46.13878" lon="7.79675">
        <ele>1442.1</ele>
        <time>2000-01-01T03:49:18.000Z</time>
      </trkpt>
      <trkpt lat="46.13869" lon="7.79672">
        <ele>1434</ele>
        <time>2000-01-01T03:49:28.000Z</time>
      </trkpt>
      <trkpt lat="46.13863" lon="7.79667">
        <ele>1430.3</ele>
        <time>2000-01-01T03:49:38.000Z</time>
      </trkpt>
      <trkpt lat="46.13858" lon="7.79665">
        <ele>1427.2</ele>
        <time>2000-01-01T03:49:48.000Z</time>
      </trkpt>
      <trkpt lat="46.13854" lon="7.79662">
        <ele>1424.5</ele>
        <time>2000-01-01T03:49:58.000Z</time>
      </trkpt>
      <trkpt lat="46.1385" lon="7.79661">
        <ele>1426</ele>
        <time>2000-01-01T03:50:08.000Z</time>
      </trkpt>
      <trkpt lat="46.13842" lon="7.79662">
        <ele>1419.3</ele>
        <time>2000-01-01T03:50:18.000Z</time>
      </trkpt>
      <trkpt lat="46.13837" lon="7.79664">
        <ele>1418.2</ele>
        <time>2000-01-01T03:50:28.000Z</time>
      </trkpt>
      <trkpt lat="46.13834" lon="7.79665">
        <ele>1417.4</ele>
        <time>2000-01-01T03:50:38.000Z</time>
      </trkpt>
      <trkpt lat="46.13831" lon="7.7967">
        <ele>1431</ele>
        <time>2000-01-01T03:50:48.000Z</time>
      </trkpt>
      <trkpt lat="46.1383" lon="7.79675">
        <ele>1423.2</ele>
        <time>2000-01-01T03:50:58.000Z</time>
      </trkpt>
      <trkpt lat="46.13828" lon="7.79679">
        <ele>1425.4</ele>
        <time>2000-01-01T03:51:08.000Z</time>
      </trkpt>
      <trkpt lat="46.13825" lon="7.79681">
        <ele>1426.1</ele>
        <time>2000-01-01T03:51:18.000Z</time>
      </trkpt>
      <trkpt lat="46.13822" lon="7.79681">
        <ele>1425.5</ele>
        <time>2000-01-01T03:51:28.000Z</time>
      </trkpt>
      <trkpt lat="46.1382" lon="7.79684">
        <ele>1426.9</ele>
        <time>2000-01-01T03:51:38.000Z</time>
      </trkpt>
      <trkpt lat="46.13817" lon="7.79686">
        <ele>1433</ele>
        <time>2000-01-01T03:51:48.000Z</time>
      </trkpt>
      <trkpt lat="46.13814" lon="7.79684">
        <ele>1425.6</ele>
        <time>2000-01-01T03:51:58.000Z</time>
      </trkpt>
      <trkpt lat="46.13811" lon="7.79681">
        <ele>1423.3</ele>
        <time>2000-01-01T03:52:08.000Z</time>
      </trkpt>
      <trkpt lat="46.13796" lon="7.79671">
        <ele>1433</ele>
        <time>2000-01-01T03:52:18.000Z</time>
      </trkpt>
      <trkpt lat="46.13791" lon="7.79672">
        <ele>1417.9</ele>
        <time>2000-01-01T03:52:28.000Z</time>
      </trkpt>
      <trkpt lat="46.13788" lon="7.79671">
        <ele>1417.5</ele>
        <time>2000-01-01T03:52:38.000Z</time>
      </trkpt>
      <trkpt lat="46.1379" lon="7.7968">
        <ele>1421.5</ele>
        <time>2000-01-01T03:52:48.000Z</time>
      </trkpt>
      <trkpt lat="46.13787" lon="7.7968">
        <ele>1421.4</ele>
        <time>2000-01-01T03:52:58.000Z</time>
      </trkpt>
      <trkpt lat="46.13783" lon="7.79678">
        <ele>1429</ele>
        <time>2000-01-01T03:53:08.000Z</time>
      </trkpt>
      <trkpt lat="46.13775" lon="7.79669">
        <ele>1416.6</ele>
        <time>2000-01-01T03:53:18.000Z</time>
      </trkpt>
      <trkpt lat="46.13768" lon="7.79664">
        <ele>1413.9</ele>
        <time>2000-01-01T03:53:28.000Z</time>
      </trkpt>
      <trkpt lat="46.13766" lon="7.79662">
        <ele>1426</ele>
        <time>2000-01-01T03:53:38.000Z</time>
      </trkpt>
      <trkpt lat="46.13763" lon="7.79662">
        <ele>1412.7</ele>
        <time>2000-01-01T03:53:48.000Z</time>
      </trkpt>
      <trkpt lat="46.13758" lon="7.79661">
        <ele>1411.9</ele>
        <time>2000-01-01T03:53:58.000Z</time>
      </trkpt>
      <trkpt lat="46.13752" lon="7.79658">
        <ele>1410.3</ele>
        <time>2000-01-01T03:54:08.000Z</time>
      </trkpt>
      <trkpt lat="46.1375" lon="7.79654">
        <ele>1408.9</ele>
        <time>2000-01-01T03:54:18.000Z</time>
      </trkpt>
      <trkpt lat="46.13747" lon="7.79652">
        <ele>1425</ele>
        <time>2000-01-01T03:54:28.000Z</time>
      </trkpt>
      <trkpt lat="46.13744" lon="7.79651">
        <ele>1407.1</ele>
        <time>2000-01-01T03:54:38.000Z</time>
      </trkpt>
      <trkpt lat="46.13741" lon="7.79653">
        <ele>1407.3</ele>
        <time>2000-01-01T03:54:48.000Z</time>
      </trkpt>
      <trkpt lat="46.13735" lon="7.79653">
        <ele>1406.4</ele>
        <time>2000-01-01T03:54:58.000Z</time>
      </trkpt>
      <trkpt lat="46.13726" lon="7.79657">
        <ele>1424</ele>
        <time>2000-01-01T03:55:08.000Z</time>
      </trkpt>
      <trkpt lat="46.13723" lon="7.79654">
        <ele>1405</ele>
        <time>2000-01-01T03:55:18.000Z</time>
      </trkpt>
      <trkpt lat="46.13723" lon="7.7965">
        <ele>1403.7</ele>
        <time>2000-01-01T03:55:28.000Z</time>
      </trkpt>
      <trkpt lat="46.1372" lon="7.79642">
        <ele>1401</ele>
        <time>2000-01-01T03:55:38.000Z</time>
      </trkpt>
      <trkpt lat="46.13718" lon="7.79639">
        <ele>1399.9</ele>
        <time>2000-01-01T03:55:48.000Z</time>
      </trkpt>
      <trkpt lat="46.13715" lon="7.79638">
        <ele>1416</ele>
        <time>2000-01-01T03:55:58.000Z</time>
      </trkpt>
      <trkpt lat="46.13713" lon="7.79634">
        <ele>1397.8</ele>
        <time>2000-01-01T03:56:08.000Z</time>
      </trkpt>
      <trkpt lat="46.1371" lon="7.79631">
        <ele>1396.6</ele>
        <time>2000-01-01T03:56:18.000Z</time>
      </trkpt>
      <trkpt lat="46.13708" lon="7.7962">
        <ele>1392.4</ele>
        <time>2000-01-01T03:56:28.000Z</time>
      </trkpt>
      <trkpt lat="46.13706" lon="7.79616">
        <ele>1390.8</ele>
        <time>2000-01-01T03:56:38.000Z</time>
      </trkpt>
      <trkpt lat="46.13703" lon="7.79613">
        <ele>1409</ele>
        <time>2000-01-01T03:56:48.000Z</time>
      </trkpt>
      <trkpt lat="46.13702" lon="7.7961">
        <ele>1388.5</ele>
        <time>2000-01-01T03:56:58.000Z</time>
      </trkpt>
      <trkpt lat="46.13699" lon="7.79604">
        <ele>1386</ele>
        <time>2000-01-01T03:57:08.000Z</time>
      </trkpt>
      <trkpt lat="46.13696" lon="7.79601">
        <ele>1384.7</ele>
        <time>2000-01-01T03:57:18.000Z</time>
      </trkpt>
      <trkpt lat="46.13691" lon="7.79592">
        <ele>1396</ele>
        <time>2000-01-01T03:57:28.000Z</time>
      </trkpt>
      <trkpt lat="46.13684" lon="7.79585">
        <ele>1376.7</ele>
        <time>2000-01-01T03:57:38.000Z</time>
      </trkpt>
      <trkpt lat="46.1368" lon="7.7958">
        <ele>1373.2</ele>
        <time>2000-01-01T03:57:48.000Z</time>
      </trkpt>
      <trkpt lat="46.13677" lon="7.79575">
        <ele>1369.8</ele>
        <time>2000-01-01T03:57:58.000Z</time>
      </trkpt>
      <trkpt lat="46.13675" lon="7.7957">
        <ele>1369</ele>
        <time>2000-01-01T03:58:08.000Z</time>
      </trkpt>
      <trkpt lat="46.13671" lon="7.79561">
        <ele>1362</ele>
        <time>2000-01-01T03:58:18.000Z</time>
      </trkpt>
      <trkpt lat="46.13667" lon="7.79558">
        <ele>1361.2</ele>
        <time>2000-01-01T03:58:28.000Z</time>
      </trkpt>
      <trkpt lat="46.13657" lon="7.79553">
        <ele>1361</ele>
        <time>2000-01-01T03:58:38.000Z</time>
      </trkpt>
      <trkpt lat="46.13654" lon="7.7955">
        <ele>1356.4</ele>
        <time>2000-01-01T03:58:48.000Z</time>
      </trkpt>
      <trkpt lat="46.13649" lon="7.79542">
        <ele>1351.9</ele>
        <time>2000-01-01T03:58:58.000Z</time>
      </trkpt>
      <trkpt lat="46.13647" lon="7.79533">
        <ele>1346.9</ele>
        <time>2000-01-01T03:59:08.000Z</time>
      </trkpt>
      <trkpt lat="46.13643" lon="7.79527">
        <ele>1342</ele>
        <time>2000-01-01T03:59:18.000Z</time>
      </trkpt>
      <trkpt lat="46.13639" lon="7.79523">
        <ele>1340.2</ele>
        <time>2000-01-01T03:59:28.000Z</time>
      </trkpt>
      <trkpt lat="46.13628" lon="7.79522">
        <ele>1338.5</ele>
        <time>2000-01-01T03:59:38.000Z</time>
      </trkpt>
      <trkpt lat="46.1362" lon="7.79524">
        <ele>1340</ele>
        <time>2000-01-01T03:59:48.000Z</time>
      </trkpt>
      <trkpt lat="46.13613" lon="7.79525">
        <ele>1339.3</ele>
        <time>2000-01-01T03:59:58.000Z</time>
      </trkpt>
      <trkpt lat="46.1361" lon="7.79525">
        <ele>1339</ele>
        <time>2000-01-01T04:00:08.000Z</time>
      </trkpt>
      <trkpt lat="46.13607" lon="7.79522">
        <ele>1336.7</ele>
        <time>2000-01-01T04:00:18.000Z</time>
      </trkpt>
      <trkpt lat="46.13605" lon="7.79519">
        <ele>1334.5</ele>
        <time>2000-01-01T04:00:28.000Z</time>
      </trkpt>
      <trkpt lat="46.13601" lon="7.7952">
        <ele>1337</ele>
        <time>2000-01-01T04:00:38.000Z</time>
      </trkpt>
      <trkpt lat="46.13598" lon="7.79519">
        <ele>1333.9</ele>
        <time>2000-01-01T04:00:48.000Z</time>
      </trkpt>
      <trkpt lat="46.13589" lon="7.79522">
        <ele>1335</ele>
        <time>2000-01-01T04:00:58.000Z</time>
      </trkpt>
      <trkpt lat="46.13586" lon="7.79519">
        <ele>1332.9</ele>
        <time>2000-01-01T04:01:08.000Z</time>
      </trkpt>
      <trkpt lat="46.13579" lon="7.79514">
        <ele>1334</ele>
        <time>2000-01-01T04:01:18.000Z</time>
      </trkpt>
      <trkpt lat="46.13576" lon="7.79516">
        <ele>1328.9</ele>
        <time>2000-01-01T04:01:28.000Z</time>
      </trkpt>
      <trkpt lat="46.13568" lon="7.79514">
        <ele>1325.7</ele>
        <time>2000-01-01T04:01:38.000Z</time>
      </trkpt>
      <trkpt lat="46.13565" lon="7.79512">
        <ele>1323.7</ele>
        <time>2000-01-01T04:01:48.000Z</time>
      </trkpt>
      <trkpt lat="46.13562" lon="7.79513">
        <ele>1323.6</ele>
        <time>2000-01-01T04:01:58.000Z</time>
      </trkpt>
      <trkpt lat="46.13559" lon="7.79511">
        <ele>1332</ele>
        <time>2000-01-01T04:02:08.000Z</time>
      </trkpt>
      <trkpt lat="46.13558" lon="7.79508">
        <ele>1319.5</ele>
        <time>2000-01-01T04:02:18.000Z</time>
      </trkpt>
      <trkpt lat="46.1355" lon="7.79502">
        <ele>1315</ele>
        <time>2000-01-01T04:02:28.000Z</time>
      </trkpt>
      <trkpt lat="46.1354" lon="7.79491">
        <ele>1319</ele>
        <time>2000-01-01T04:02:38.000Z</time>
      </trkpt>
      <trkpt lat="46.13539" lon="7.79486">
        <ele>1309.2</ele>
        <time>2000-01-01T04:02:48.000Z</time>
      </trkpt>
      <trkpt lat="46.13536" lon="7.79482">
        <ele>1308.3</ele>
        <time>2000-01-01T04:02:58.000Z</time>
      </trkpt>
      <trkpt lat="46.13534" lon="7.7948">
        <ele>1307.9</ele>
        <time>2000-01-01T04:03:08.000Z</time>
      </trkpt>
      <trkpt lat="46.13524" lon="7.79468">
        <ele>1316</ele>
        <time>2000-01-01T04:03:18.000Z</time>
      </trkpt>
      <trkpt lat="46.13522" lon="7.79465">
        <ele>1307.7</ele>
        <time>2000-01-01T04:03:28.000Z</time>
      </trkpt>
      <trkpt lat="46.1352" lon="7.79454">
        <ele>1306.5</ele>
        <time>2000-01-01T04:03:38.000Z</time>
      </trkpt>
      <trkpt lat="46.13518" lon="7.79452">
        <ele>1306.7</ele>
        <time>2000-01-01T04:03:48.000Z</time>
      </trkpt>
      <trkpt lat="46.13514" lon="7.79462">
        <ele>1313</ele>
        <time>2000-01-01T04:03:58.000Z</time>
      </trkpt>
      <trkpt lat="46.13487" lon="7.79432">
        <ele>1316</ele>
        <time>2000-01-01T04:04:08.000Z</time>
      </trkpt>
      <trkpt lat="46.13484" lon="7.79434">
        <ele>1310.9</ele>
        <time>2000-01-01T04:04:18.000Z</time>
      </trkpt>
      <trkpt lat="46.13483" lon="7.79438">
        <ele>1312.1</ele>
        <time>2000-01-01T04:04:28.000Z</time>
      </trkpt>
      <trkpt lat="46.13481" lon="7.7944">
        <ele>1313</ele>
        <time>2000-01-01T04:04:38.000Z</time>
      </trkpt>
      <trkpt lat="46.13482" lon="7.79445">
        <ele>1314</ele>
        <time>2000-01-01T04:04:48.000Z</time>
      </trkpt>
      <trkpt lat="46.13481" lon="7.7945">
        <ele>1315.4</ele>
        <time>2000-01-01T04:04:58.000Z</time>
      </trkpt>
      <trkpt lat="46.13479" lon="7.79453">
        <ele>1319</ele>
        <time>2000-01-01T04:05:08.000Z</time>
      </trkpt>
      <trkpt lat="46.13473" lon="7.79455">
        <ele>1318.5</ele>
        <time>2000-01-01T04:05:18.000Z</time>
      </trkpt>
      <trkpt lat="46.13471" lon="7.79458">
        <ele>1319.5</ele>
        <time>2000-01-01T04:05:28.000Z</time>
      </trkpt>
      <trkpt lat="46.13467" lon="7.79465">
        <ele>1321.7</ele>
        <time>2000-01-01T04:05:38.000Z</time>
      </trkpt>
      <trkpt lat="46.13465" lon="7.79469">
        <ele>1322</ele>
        <time>2000-01-01T04:05:48.000Z</time>
      </trkpt>
      <trkpt lat="46.13465" lon="7.79474">
        <ele>1324.1</ele>
        <time>2000-01-01T04:05:58.000Z</time>
      </trkpt>
      <trkpt lat="46.13463" lon="7.79477">
        <ele>1325</ele>
        <time>2000-01-01T04:06:08.000Z</time>
      </trkpt>
      <trkpt lat="46.13461" lon="7.79482">
        <ele>1326.4</ele>
        <time>2000-01-01T04:06:18.000Z</time>
      </trkpt>
      <trkpt lat="46.13461" lon="7.79486">
        <ele>1327.3</ele>
        <time>2000-01-01T04:06:28.000Z</time>
      </trkpt>
      <trkpt lat="46.13462" lon="7.79495">
        <ele>1331</ele>
        <time>2000-01-01T04:06:38.000Z</time>
      </trkpt>
      <trkpt lat="46.13461" lon="7.79501">
        <ele>1330.7</ele>
        <time>2000-01-01T04:06:48.000Z</time>
      </trkpt>
      <trkpt lat="46.13455" lon="7.79504">
        <ele>1332.7</ele>
        <time>2000-01-01T04:06:58.000Z</time>
      </trkpt>
      <trkpt lat="46.13455" lon="7.79509">
        <ele>1333.9</ele>
        <time>2000-01-01T04:07:08.000Z</time>
      </trkpt>
      <trkpt lat="46.13453" lon="7.79512">
        <ele>1335</ele>
        <time>2000-01-01T04:07:18.000Z</time>
      </trkpt>
      <trkpt lat="46.1345" lon="7.79515">
        <ele>1338</ele>
        <time>2000-01-01T04:07:28.000Z</time>
      </trkpt>
      <trkpt lat="46.13446" lon="7.79516">
        <ele>1337.7</ele>
        <time>2000-01-01T04:07:38.000Z</time>
      </trkpt>
      <trkpt lat="46.13444" lon="7.79515">
        <ele>1337.9</ele>
        <time>2000-01-01T04:07:48.000Z</time>
      </trkpt>
      <trkpt lat="46.13441" lon="7.79515">
        <ele>1338.4</ele>
        <time>2000-01-01T04:07:58.000Z</time>
      </trkpt>
      <trkpt lat="46.13435" lon="7.79519">
        <ele>1340.5</ele>
        <time>2000-01-01T04:08:08.000Z</time>
      </trkpt>
      <trkpt lat="46.13434" lon="7.79524">
        <ele>1340</ele>
        <time>2000-01-01T04:08:18.000Z</time>
      </trkpt>
      <trkpt lat="46.13434" lon="7.79528">
        <ele>1342.9</ele>
        <time>2000-01-01T04:08:28.000Z</time>
      </trkpt>
      <trkpt lat="46.13431" lon="7.7953">
        <ele>1344</ele>
        <time>2000-01-01T04:08:38.000Z</time>
      </trkpt>
      <trkpt lat="46.13428" lon="7.79531">
        <ele>1344.8</ele>
        <time>2000-01-01T04:08:48.000Z</time>
      </trkpt>
      <trkpt lat="46.13424" lon="7.7954">
        <ele>1347.8</ele>
        <time>2000-01-01T04:08:58.000Z</time>
      </trkpt>
      <trkpt lat="46.13425" lon="7.79544">
        <ele>1362</ele>
        <time>2000-01-01T04:09:08.000Z</time>
      </trkpt>
      <trkpt lat="46.13424" lon="7.7955">
        <ele>1350.3</ele>
        <time>2000-01-01T04:09:18.000Z</time>
      </trkpt>
      <trkpt lat="46.13424" lon="7.79555">
        <ele>1351.5</ele>
        <time>2000-01-01T04:09:28.000Z</time>
      </trkpt>
      <trkpt lat="46.13423" lon="7.79559">
        <ele>1352.9</ele>
        <time>2000-01-01T04:09:38.000Z</time>
      </trkpt>
      <trkpt lat="46.1342" lon="7.79561">
        <ele>1353.9</ele>
        <time>2000-01-01T04:09:48.000Z</time>
      </trkpt>
      <trkpt lat="46.13413" lon="7.79557">
        <ele>1371</ele>
        <time>2000-01-01T04:09:58.000Z</time>
      </trkpt>
      <trkpt lat="46.13411" lon="7.79561">
        <ele>1354.9</ele>
        <time>2000-01-01T04:10:08.000Z</time>
      </trkpt>
      <trkpt lat="46.13411" lon="7.79565">
        <ele>1355.9</ele>
        <time>2000-01-01T04:10:18.000Z</time>
      </trkpt>
      <trkpt lat="46.13397" lon="7.79567">
        <ele>1372</ele>
        <time>2000-01-01T04:10:28.000Z</time>
      </trkpt>
      <trkpt lat="46.13394" lon="7.79569">
        <ele>1358.8</ele>
        <time>2000-01-01T04:10:38.000Z</time>
      </trkpt>
      <trkpt lat="46.13394" lon="7.79574">
        <ele>1360.4</ele>
        <time>2000-01-01T04:10:48.000Z</time>
      </trkpt>
      <trkpt lat="46.1339" lon="7.79583">
        <ele>1363.7</ele>
        <time>2000-01-01T04:10:58.000Z</time>
      </trkpt>
      <trkpt lat="46.13387" lon="7.79585">
        <ele>1364.6</ele>
        <time>2000-01-01T04:11:08.000Z</time>
      </trkpt>
      <trkpt lat="46.13384" lon="7.79585">
        <ele>1373</ele>
        <time>2000-01-01T04:11:18.000Z</time>
      </trkpt>
      <trkpt lat="46.13381" lon="7.79587">
        <ele>1365.6</ele>
        <time>2000-01-01T04:11:28.000Z</time>
      </trkpt>
      <trkpt lat="46.13378" lon="7.79589">
        <ele>1366.4</ele>
        <time>2000-01-01T04:11:38.000Z</time>
      </trkpt>
      <trkpt lat="46.13369" lon="7.79591">
        <ele>1367.6</ele>
        <time>2000-01-01T04:11:48.000Z</time>
      </trkpt>
      <trkpt lat="46.13362" lon="7.79592">
        <ele>1373</ele>
        <time>2000-01-01T04:11:58.000Z</time>
      </trkpt>
      <trkpt lat="46.13359" lon="7.79594">
        <ele>1368.7</ele>
        <time>2000-01-01T04:12:08.000Z</time>
      </trkpt>
      <trkpt lat="46.13358" lon="7.79598">
        <ele>1369.7</ele>
        <time>2000-01-01T04:12:18.000Z</time>
      </trkpt>
      <trkpt lat="46.13357" lon="7.79602">
        <ele>1370.8</ele>
        <time>2000-01-01T04:12:28.000Z</time>
      </trkpt>
      <trkpt lat="46.13355" lon="7.79606">
        <ele>1371.7</ele>
        <time>2000-01-01T04:12:38.000Z</time>
      </trkpt>
      <trkpt lat="46.13351" lon="7.79608">
        <ele>1371.9</ele>
        <time>2000-01-01T04:12:48.000Z</time>
      </trkpt>
      <trkpt lat="46.1335" lon="7.79611">
        <ele>1374</ele>
        <time>2000-01-01T04:12:58.000Z</time>
      </trkpt>
      <trkpt lat="46.13351" lon="7.79616">
        <ele>1374.5</ele>
        <time>2000-01-01T04:13:08.000Z</time>
      </trkpt>
      <trkpt lat="46.1335" lon="7.79626">
        <ele>1377.6</ele>
        <time>2000-01-01T04:13:18.000Z</time>
      </trkpt>
      <trkpt lat="46.13352" lon="7.7963">
        <ele>1379.1</ele>
        <time>2000-01-01T04:13:28.000Z</time>
      </trkpt>
      <trkpt lat="46.13351" lon="7.79634">
        <ele>1380.3</ele>
        <time>2000-01-01T04:13:38.000Z</time>
      </trkpt>
      <trkpt lat="46.13351" lon="7.79642">
        <ele>1388</ele>
        <time>2000-01-01T04:13:48.000Z</time>
      </trkpt>
      <trkpt lat="46.13349" lon="7.79646">
        <ele>1383.6</ele>
        <time>2000-01-01T04:13:58.000Z</time>
      </trkpt>
      <trkpt lat="46.13349" lon="7.79651">
        <ele>1385</ele>
        <time>2000-01-01T04:14:08.000Z</time>
      </trkpt>
      <trkpt lat="46.1335" lon="7.79654">
        <ele>1385.9</ele>
        <time>2000-01-01T04:14:18.000Z</time>
      </trkpt>
      <trkpt lat="46.13344" lon="7.79656">
        <ele>1385.7</ele>
        <time>2000-01-01T04:14:28.000Z</time>
      </trkpt>
      <trkpt lat="46.13344" lon="7.7966">
        <ele>1386.8</ele>
        <time>2000-01-01T04:14:38.000Z</time>
      </trkpt>
      <trkpt lat="46.13346" lon="7.79665">
        <ele>1391</ele>
        <time>2000-01-01T04:14:48.000Z</time>
      </trkpt>
      <trkpt lat="46.13348" lon="7.79669">
        <ele>1389.8</ele>
        <time>2000-01-01T04:14:58.000Z</time>
      </trkpt>
      <trkpt lat="46.13346" lon="7.79671">
        <ele>1390.1</ele>
        <time>2000-01-01T04:15:08.000Z</time>
      </trkpt>
      <trkpt lat="46.13348" lon="7.79675">
        <ele>1391.7</ele>
        <time>2000-01-01T04:15:18.000Z</time>
      </trkpt>
      <trkpt lat="46.13349" lon="7.79684">
        <ele>1394.8</ele>
        <time>2000-01-01T04:15:28.000Z</time>
      </trkpt>
      <trkpt lat="46.13348" lon="7.79687">
        <ele>1395</ele>
        <time>2000-01-01T04:15:38.000Z</time>
      </trkpt>
      <trkpt lat="46.13349" lon="7.79691">
        <ele>1397</ele>
        <time>2000-01-01T04:15:48.000Z</time>
      </trkpt>
      <trkpt lat="46.13349" lon="7.79697">
        <ele>1399</ele>
        <time>2000-01-01T04:15:58.000Z</time>
      </trkpt>
      <trkpt lat="46.1335" lon="7.79705">
        <ele>1402.3</ele>
        <time>2000-01-01T04:16:08.000Z</time>
      </trkpt>
      <trkpt lat="46.13348" lon="7.79724">
        <ele>1405</ele>
        <time>2000-01-01T04:16:18.000Z</time>
      </trkpt>
      <trkpt lat="46.13348" lon="7.79738">
        <ele>1412.4</ele>
        <time>2000-01-01T04:16:28.000Z</time>
      </trkpt>
      <trkpt lat="46.13347" lon="7.79764">
        <ele>1420</ele>
        <time>2000-01-01T04:16:38.000Z</time>
      </trkpt>
      <trkpt lat="46.13345" lon="7.79761">
        <ele>1418.9</ele>
        <time>2000-01-01T04:16:48.000Z</time>
      </trkpt>
      <trkpt lat="46.13343" lon="7.79764">
        <ele>1419.3</ele>
        <time>2000-01-01T04:16:58.000Z</time>
      </trkpt>
      <trkpt lat="46.13342" lon="7.7977">
        <ele>1421.4</ele>
        <time>2000-01-01T04:17:08.000Z</time>
      </trkpt>
      <trkpt lat="46.13342" lon="7.79775">
        <ele>1423.4</ele>
        <time>2000-01-01T04:17:18.000Z</time>
      </trkpt>
      <trkpt lat="46.13343" lon="7.79779">
        <ele>1425.2</ele>
        <time>2000-01-01T04:17:28.000Z</time>
      </trkpt>
      <trkpt lat="46.13344" lon="7.79783">
        <ele>1429</ele>
        <time>2000-01-01T04:17:38.000Z</time>
      </trkpt>
      <trkpt lat="46.13345" lon="7.79787">
        <ele>1428.9</ele>
        <time>2000-01-01T04:17:48.000Z</time>
      </trkpt>
      <trkpt lat="46.13344" lon="7.79785">
        <ele>1427.8</ele>
        <time>2000-01-01T04:17:58.000Z</time>
      </trkpt>
      <trkpt lat="46.13336" lon="7.79783">
        <ele>1424.4</ele>
        <time>2000-01-01T04:18:08.000Z</time>
      </trkpt>
      <trkpt lat="46.13332" lon="7.79781">
        <ele>1423.4</ele>
        <time>2000-01-01T04:18:18.000Z</time>
      </trkpt>
      <trkpt lat="46.13329" lon="7.79774">
        <ele>1434</ele>
        <time>2000-01-01T04:18:28.000Z</time>
      </trkpt>
      <trkpt lat="46.13326" lon="7.79772">
        <ele>1421.8</ele>
        <time>2000-01-01T04:18:38.000Z</time>
      </trkpt>
      <trkpt lat="46.13324" lon="7.79775">
        <ele>1423.8</ele>
        <time>2000-01-01T04:18:48.000Z</time>
      </trkpt>
      <trkpt lat="46.13322" lon="7.79777">
        <ele>1425.3</ele>
        <time>2000-01-01T04:18:58.000Z</time>
      </trkpt>
      <trkpt lat="46.13316" lon="7.79772">
        <ele>1425</ele>
        <time>2000-01-01T04:19:08.000Z</time>
      </trkpt>
      <trkpt lat="46.13309" lon="7.79768">
        <ele>1439</ele>
        <time>2000-01-01T04:19:18.000Z</time>
      </trkpt>
      <trkpt lat="46.13303" lon="7.79768">
        <ele>1427.3</ele>
        <time>2000-01-01T04:19:28.000Z</time>
      </trkpt>
      <trkpt lat="46.13296" lon="7.79765">
        <ele>1428.3</ele>
        <time>2000-01-01T04:19:38.000Z</time>
      </trkpt>
      <trkpt lat="46.1329" lon="7.79766">
        <ele>1443</ele>
        <time>2000-01-01T04:19:48.000Z</time>
      </trkpt>
      <trkpt lat="46.13292" lon="7.79771">
        <ele>1432.8</ele>
        <time>2000-01-01T04:19:58.000Z</time>
      </trkpt>
      <trkpt lat="46.13288" lon="7.79768">
        <ele>1432.7</ele>
        <time>2000-01-01T04:20:08.000Z</time>
      </trkpt>
      <trkpt lat="46.13279" lon="7.79765">
        <ele>1434.2</ele>
        <time>2000-01-01T04:20:18.000Z</time>
      </trkpt>
      <trkpt lat="46.13276" lon="7.79768">
        <ele>1450</ele>
        <time>2000-01-01T04:20:28.000Z</time>
      </trkpt>
      <trkpt lat="46.13273" lon="7.7977">
        <ele>1439.7</ele>
        <time>2000-01-01T04:20:38.000Z</time>
      </trkpt>
      <trkpt lat="46.13271" lon="7.7977">
        <ele>1440.7</ele>
        <time>2000-01-01T04:20:48.000Z</time>
      </trkpt>
      <trkpt lat="46.13268" lon="7.79766">
        <ele>1439.5</ele>
        <time>2000-01-01T04:20:58.000Z</time>
      </trkpt>
      <trkpt lat="46.13264" lon="7.79764">
        <ele>1440</ele>
        <time>2000-01-01T04:21:08.000Z</time>
      </trkpt>
      <trkpt lat="46.13261" lon="7.79765">
        <ele>1442</ele>
        <time>2000-01-01T04:21:18.000Z</time>
      </trkpt>
      <trkpt lat="46.13259" lon="7.79768">
        <ele>1456</ele>
        <time>2000-01-01T04:21:28.000Z</time>
      </trkpt>
      <trkpt lat="46.13251" lon="7.79764">
        <ele>1445.6</ele>
        <time>2000-01-01T04:21:38.000Z</time>
      </trkpt>
      <trkpt lat="46.13244" lon="7.79766">
        <ele>1448.5</ele>
        <time>2000-01-01T04:21:48.000Z</time>
      </trkpt>
      <trkpt lat="46.13228" lon="7.79762">
        <ele>1462</ele>
        <time>2000-01-01T04:21:58.000Z</time>
      </trkpt>
      <trkpt lat="46.13227" lon="7.79766">
        <ele>1451.3</ele>
        <time>2000-01-01T04:22:08.000Z</time>
      </trkpt>
      <trkpt lat="46.13219" lon="7.79765">
        <ele>1452.3</ele>
        <time>2000-01-01T04:22:18.000Z</time>
      </trkpt>
      <trkpt lat="46.13216" lon="7.79763">
        <ele>1452</ele>
        <time>2000-01-01T04:22:28.000Z</time>
      </trkpt>
      <trkpt lat="46.13214" lon="7.79766">
        <ele>1454</ele>
        <time>2000-01-01T04:22:38.000Z</time>
      </trkpt>
      <trkpt lat="46.13215" lon="7.79771">
        <ele>1470</ele>
        <time>2000-01-01T04:22:48.000Z</time>
      </trkpt>
      <trkpt lat="46.13212" lon="7.79775">
        <ele>1458.8</ele>
        <time>2000-01-01T04:22:58.000Z</time>
      </trkpt>
      <trkpt lat="46.13209" lon="7.79775">
        <ele>1459.5</ele>
        <time>2000-01-01T04:23:08.000Z</time>
      </trkpt>
      <trkpt lat="46.13206" lon="7.79777">
        <ele>1461.1</ele>
        <time>2000-01-01T04:23:18.000Z</time>
      </trkpt>
      <trkpt lat="46.13203" lon="7.79775">
        <ele>1460.8</ele>
        <time>2000-01-01T04:23:28.000Z</time>
      </trkpt>
      <trkpt lat="46.132" lon="7.79777">
        <ele>1462.4</ele>
        <time>2000-01-01T04:23:38.000Z</time>
      </trkpt>
      <trkpt lat="46.13197" lon="7.79777">
        <ele>1478</ele>
        <time>2000-01-01T04:23:48.000Z</time>
      </trkpt>
      <trkpt lat="46.13194" lon="7.79776">
        <ele>1463.4</ele>
        <time>2000-01-01T04:23:58.000Z</time>
      </trkpt>
      <trkpt lat="46.13192" lon="7.79773">
        <ele>1462.9</ele>
        <time>2000-01-01T04:24:08.000Z</time>
      </trkpt>
      <trkpt lat="46.13188" lon="7.7978">
        <ele>1468.4</ele>
        <time>2000-01-01T04:24:18.000Z</time>
      </trkpt>
      <trkpt lat="46.13177" lon="7.79778">
        <ele>1484</ele>
        <time>2000-01-01T04:24:28.000Z</time>
      </trkpt>
      <trkpt lat="46.13173" lon="7.79779">
        <ele>1474.6</ele>
        <time>2000-01-01T04:24:38.000Z</time>
      </trkpt>
      <trkpt lat="46.13171" lon="7.79782">
        <ele>1476.8</ele>
        <time>2000-01-01T04:24:48.000Z</time>
      </trkpt>
      <trkpt lat="46.13167" lon="7.79783">
        <ele>1478.9</ele>
        <time>2000-01-01T04:24:58.000Z</time>
      </trkpt>
      <trkpt lat="46.13163" lon="7.79783">
        <ele>1480.5</ele>
        <time>2000-01-01T04:25:08.000Z</time>
      </trkpt>
      <trkpt lat="46.1316" lon="7.79785">
        <ele>1482.4</ele>
        <time>2000-01-01T04:25:18.000Z</time>
      </trkpt>
      <trkpt lat="46.13156" lon="7.79785">
        <ele>1498</ele>
        <time>2000-01-01T04:25:28.000Z</time>
      </trkpt>
      <trkpt lat="46.13154" lon="7.79788">
        <ele>1486.1</ele>
        <time>2000-01-01T04:25:38.000Z</time>
      </trkpt>
      <trkpt lat="46.1315" lon="7.79785">
        <ele>1486.3</ele>
        <time>2000-01-01T04:25:48.000Z</time>
      </trkpt>
      <trkpt lat="46.13146" lon="7.79785">
        <ele>1487.9</ele>
        <time>2000-01-01T04:25:58.000Z</time>
      </trkpt>
      <trkpt lat="46.13144" lon="7.79783">
        <ele>1487.7</ele>
        <time>2000-01-01T04:26:08.000Z</time>
      </trkpt>
      <trkpt lat="46.13138" lon="7.79786">
        <ele>1507</ele>
        <time>2000-01-01T04:26:18.000Z</time>
      </trkpt>
      <trkpt lat="46.1314" lon="7.79789">
        <ele>1492.2</ele>
        <time>2000-01-01T04:26:28.000Z</time>
      </trkpt>
      <trkpt lat="46.13143" lon="7.79791">
        <ele>1492</ele>
        <time>2000-01-01T04:26:38.000Z</time>
      </trkpt>
      <trkpt lat="46.13141" lon="7.79788">
        <ele>1491.3</ele>
        <time>2000-01-01T04:26:48.000Z</time>
      </trkpt>
      <trkpt lat="46.13136" lon="7.79784">
        <ele>1491.3</ele>
        <time>2000-01-01T04:26:58.000Z</time>
      </trkpt>
      <trkpt lat="46.13137" lon="7.79788">
        <ele>1507</ele>
        <time>2000-01-01T04:27:08.000Z</time>
      </trkpt>
      <trkpt lat="46.1314" lon="7.79791">
        <ele>1493.2</ele>
        <time>2000-01-01T04:27:18.000Z</time>
      </trkpt>
      <trkpt lat="46.13141" lon="7.79796">
        <ele>1495.3</ele>
        <time>2000-01-01T04:27:28.000Z</time>
      </trkpt>
      <trkpt lat="46.13138" lon="7.79795">
        <ele>1496</ele>
        <time>2000-01-01T04:27:38.000Z</time>
      </trkpt>
      <trkpt lat="46.13126" lon="7.79788">
        <ele>1511</ele>
        <time>2000-01-01T04:27:48.000Z</time>
      </trkpt>
      <trkpt lat="46.13123" lon="7.79788">
        <ele>1498.4</ele>
        <time>2000-01-01T04:27:58.000Z</time>
      </trkpt>
      <trkpt lat="46.1312" lon="7.79788">
        <ele>1499.6</ele>
        <time>2000-01-01T04:28:08.000Z</time>
      </trkpt>
      <trkpt lat="46.13117" lon="7.7979">
        <ele>1501.6</ele>
        <time>2000-01-01T04:28:18.000Z</time>
      </trkpt>
      <trkpt lat="46.13117" lon="7.79794">
        <ele>1503.3</ele>
        <time>2000-01-01T04:28:28.000Z</time>
      </trkpt>
      <trkpt lat="46.1311" lon="7.79794">
        <ele>1520</ele>
        <time>2000-01-01T04:28:38.000Z</time>
      </trkpt>
      <trkpt lat="46.13107" lon="7.79795">
        <ele>1507.4</ele>
        <time>2000-01-01T04:28:48.000Z</time>
      </trkpt>
      <trkpt lat="46.13104" lon="7.79802">
        <ele>1511.4</ele>
        <time>2000-01-01T04:28:58.000Z</time>
      </trkpt>
      <trkpt lat="46.13105" lon="7.79806">
        <ele>1512.6</ele>
        <time>2000-01-01T04:29:08.000Z</time>
      </trkpt>
      <trkpt lat="46.131" lon="7.79802">
        <ele>1512.9</ele>
        <time>2000-01-01T04:29:18.000Z</time>
      </trkpt>
      <trkpt lat="46.13099" lon="7.79806">
        <ele>1531</ele>
        <time>2000-01-01T04:29:28.000Z</time>
      </trkpt>
      <trkpt lat="46.13099" lon="7.7981">
        <ele>1516.5</ele>
        <time>2000-01-01T04:29:38.000Z</time>
      </trkpt>
      <trkpt lat="46.13098" lon="7.79814">
        <ele>1518.4</ele>
        <time>2000-01-01T04:29:48.000Z</time>
      </trkpt>
      <trkpt lat="46.131" lon="7.79818">
        <ele>1519.1</ele>
        <time>2000-01-01T04:29:58.000Z</time>
      </trkpt>
      <trkpt lat="46.13099" lon="7.79822">
        <ele>1521</ele>
        <time>2000-01-01T04:30:08.000Z</time>
      </trkpt>
      <trkpt lat="46.13096" lon="7.79823">
        <ele>1522.6</ele>
        <time>2000-01-01T04:30:18.000Z</time>
      </trkpt>
      <trkpt lat="46.13095" lon="7.79827">
        <ele>1524.4</ele>
        <time>2000-01-01T04:30:28.000Z</time>
      </trkpt>
      <trkpt lat="46.13093" lon="7.7983">
        <ele>1542</ele>
        <time>2000-01-01T04:30:38.000Z</time>
      </trkpt>
      <trkpt lat="46.13095" lon="7.79835">
        <ele>1527.6</ele>
        <time>2000-01-01T04:30:48.000Z</time>
      </trkpt>
      <trkpt lat="46.13094" lon="7.79839">
        <ele>1529.7</ele>
        <time>2000-01-01T04:30:58.000Z</time>
      </trkpt>
      <trkpt lat="46.13092" lon="7.79841">
        <ele>1531.4</ele>
        <time>2000-01-01T04:31:08.000Z</time>
      </trkpt>
      <trkpt lat="46.13084" lon="7.79839">
        <ele>1533.4</ele>
        <time>2000-01-01T04:31:18.000Z</time>
      </trkpt>
      <trkpt lat="46.13081" lon="7.79841">
        <ele>1549</ele>
        <time>2000-01-01T04:31:28.000Z</time>
      </trkpt>
      <trkpt lat="46.13078" lon="7.7984">
        <ele>1535.5</ele>
        <time>2000-01-01T04:31:38.000Z</time>
      </trkpt>
      <trkpt lat="46.13077" lon="7.79844">
        <ele>1537.6</ele>
        <time>2000-01-01T04:31:48.000Z</time>
      </trkpt>
      <trkpt lat="46.13079" lon="7.79848">
        <ele>1539</ele>
        <time>2000-01-01T04:31:58.000Z</time>
      </trkpt>
      <trkpt lat="46.1308" lon="7.79852">
        <ele>1540.6</ele>
        <time>2000-01-01T04:32:08.000Z</time>
      </trkpt>
      <trkpt lat="46.13076" lon="7.79855">
        <ele>1543</ele>
        <time>2000-01-01T04:32:18.000Z</time>
      </trkpt>
      <trkpt lat="46.13069" lon="7.79854">
        <ele>1563</ele>
        <time>2000-01-01T04:32:28.000Z</time>
      </trkpt>
      <trkpt lat="46.13065" lon="7.79862">
        <ele>1549</ele>
        <time>2000-01-01T04:32:38.000Z</time>
      </trkpt>
      <trkpt lat="46.13062" lon="7.79861">
        <ele>1549.3</ele>
        <time>2000-01-01T04:32:48.000Z</time>
      </trkpt>
      <trkpt lat="46.13059" lon="7.79859">
        <ele>1549.1</ele>
        <time>2000-01-01T04:32:58.000Z</time>
      </trkpt>
      <trkpt lat="46.13059" lon="7.79863">
        <ele>1551.1</ele>
        <time>2000-01-01T04:33:08.000Z</time>
      </trkpt>
      <trkpt lat="46.13058" lon="7.79867">
        <ele>1572</ele>
        <time>2000-01-01T04:33:18.000Z</time>
      </trkpt>
      <trkpt lat="46.1306" lon="7.7987">
        <ele>1554.3</ele>
        <time>2000-01-01T04:33:28.000Z</time>
      </trkpt>
      <trkpt lat="46.13056" lon="7.79871">
        <ele>1555.9</ele>
        <time>2000-01-01T04:33:38.000Z</time>
      </trkpt>
      <trkpt lat="46.13043" lon="7.79866">
        <ele>1575</ele>
        <time>2000-01-01T04:33:48.000Z</time>
      </trkpt>
      <trkpt lat="46.13044" lon="7.79866">
        <ele>1556.4</ele>
        <time>2000-01-01T04:33:58.000Z</time>
      </trkpt>
      <trkpt lat="46.13048" lon="7.7987">
        <ele>1557.4</ele>
        <time>2000-01-01T04:34:08.000Z</time>
      </trkpt>
      <trkpt lat="46.13052" lon="7.79877">
        <ele>1559.9</ele>
        <time>2000-01-01T04:34:18.000Z</time>
      </trkpt>
      <trkpt lat="46.13055" lon="7.79879">
        <ele>1560.2</ele>
        <time>2000-01-01T04:34:28.000Z</time>
      </trkpt>
      <trkpt lat="46.13052" lon="7.79882">
        <ele>1562.4</ele>
        <time>2000-01-01T04:34:38.000Z</time>
      </trkpt>
      <trkpt lat="46.13044" lon="7.79879">
        <ele>1579</ele>
        <time>2000-01-01T04:34:48.000Z</time>
      </trkpt>
      <trkpt lat="46.13042" lon="7.79881">
        <ele>1564.4</ele>
        <time>2000-01-01T04:34:58.000Z</time>
      </trkpt>
      <trkpt lat="46.13037" lon="7.79881">
        <ele>1565.7</ele>
        <time>2000-01-01T04:35:08.000Z</time>
      </trkpt>
      <trkpt lat="46.13034" lon="7.79878">
        <ele>1564.9</ele>
        <time>2000-01-01T04:35:18.000Z</time>
      </trkpt>
      <trkpt lat="46.1303" lon="7.79872">
        <ele>1562.9</ele>
        <time>2000-01-01T04:35:28.000Z</time>
      </trkpt>
      <trkpt lat="46.13028" lon="7.79874">
        <ele>1592</ele>
        <time>2000-01-01T04:35:38.000Z</time>
      </trkpt>
      <trkpt lat="46.13024" lon="7.79874">
        <ele>1566.7</ele>
        <time>2000-01-01T04:35:48.000Z</time>
      </trkpt>
      <trkpt lat="46.13022" lon="7.79871">
        <ele>1566.4</ele>
        <time>2000-01-01T04:35:58.000Z</time>
      </trkpt>
      <trkpt lat="46.13022" lon="7.79867">
        <ele>1564.5</ele>
        <time>2000-01-01T04:36:08.000Z</time>
      </trkpt>
      <trkpt lat="46.13021" lon="7.79871">
        <ele>1567</ele>
        <time>2000-01-01T04:36:18.000Z</time>
      </trkpt>
      <trkpt lat="46.13021" lon="7.79875">
        <ele>1569</ele>
        <time>2000-01-01T04:36:28.000Z</time>
      </trkpt>
      <trkpt lat="46.1301" lon="7.79873">
        <ele>1608</ele>
        <time>2000-01-01T04:36:38.000Z</time>
      </trkpt>
      <trkpt lat="46.13012" lon="7.79875">
        <ele>1574.4</ele>
        <time>2000-01-01T04:36:48.000Z</time>
      </trkpt>
      <trkpt lat="46.13009" lon="7.79875">
        <ele>1576.2</ele>
        <time>2000-01-01T04:36:58.000Z</time>
      </trkpt>
      <trkpt lat="46.13006" lon="7.79872">
        <ele>1576.5</ele>
        <time>2000-01-01T04:37:08.000Z</time>
      </trkpt>
      <trkpt lat="46.13001" lon="7.79874">
        <ele>1580.4</ele>
        <time>2000-01-01T04:37:18.000Z</time>
      </trkpt>
      <trkpt lat="46.12998" lon="7.79877">
        <ele>1583.9</ele>
        <time>2000-01-01T04:37:28.000Z</time>
      </trkpt>
      <trkpt lat="46.12999" lon="7.79882">
        <ele>1612</ele>
        <time>2000-01-01T04:37:38.000Z</time>
      </trkpt>
      <trkpt lat="46.13001" lon="7.79885">
        <ele>1585.6</ele>
        <time>2000-01-01T04:37:48.000Z</time>
      </trkpt>
      <trkpt lat="46.12998" lon="7.79886">
        <ele>1588.3</ele>
        <time>2000-01-01T04:37:58.000Z</time>
      </trkpt>
      <trkpt lat="46.12995" lon="7.79884">
        <ele>1589.8</ele>
        <time>2000-01-01T04:38:08.000Z</time>
      </trkpt>
      <trkpt lat="46.12993" lon="7.7988">
        <ele>1589.3</ele>
        <time>2000-01-01T04:38:18.000Z</time>
      </trkpt>
      <trkpt lat="46.12989" lon="7.79874">
        <ele>1589.1</ele>
        <time>2000-01-01T04:38:28.000Z</time>
      </trkpt>
      <trkpt lat="46.12984" lon="7.79868">
        <ele>1611</ele>
        <time>2000-01-01T04:38:38.000Z</time>
      </trkpt>
      <trkpt lat="46.12979" lon="7.79864">
        <ele>1589.8</ele>
        <time>2000-01-01T04:38:48.000Z</time>
      </trkpt>
      <trkpt lat="46.12976" lon="7.79864">
        <ele>1591.7</ele>
        <time>2000-01-01T04:38:58.000Z</time>
      </trkpt>
      <trkpt lat="46.12974" lon="7.79861">
        <ele>1590.9</ele>
        <time>2000-01-01T04:39:08.000Z</time>
      </trkpt>
      <trkpt lat="46.12971" lon="7.79859">
        <ele>1592</ele>
        <time>2000-01-01T04:39:18.000Z</time>
      </trkpt>
      <trkpt lat="46.12969" lon="7.79856">
        <ele>1592.2</ele>
        <time>2000-01-01T04:39:28.000Z</time>
      </trkpt>
      <trkpt lat="46.1296" lon="7.79855">
        <ele>1610</ele>
        <time>2000-01-01T04:39:38.000Z</time>
      </trkpt>
      <trkpt lat="46.12957" lon="7.79853">
        <ele>1598.6</ele>
        <time>2000-01-01T04:39:48.000Z</time>
      </trkpt>
      <trkpt lat="46.1296" lon="7.7986">
        <ele>1599.5</ele>
        <time>2000-01-01T04:39:58.000Z</time>
      </trkpt>
      <trkpt lat="46.12958" lon="7.79857">
        <ele>1599.6</ele>
        <time>2000-01-01T04:40:08.000Z</time>
      </trkpt>
      <trkpt lat="46.12954" lon="7.79857">
        <ele>1602.1</ele>
        <time>2000-01-01T04:40:18.000Z</time>
      </trkpt>
      <trkpt lat="46.12951" lon="7.79857">
        <ele>1610</ele>
        <time>2000-01-01T04:40:28.000Z</time>
      </trkpt>
      <trkpt lat="46.12944" lon="7.79855">
        <ele>1607.6</ele>
        <time>2000-01-01T04:40:38.000Z</time>
      </trkpt>
      <trkpt lat="46.12943" lon="7.79852">
        <ele>1607</ele>
        <time>2000-01-01T04:40:48.000Z</time>
      </trkpt>
      <trkpt lat="46.12937" lon="7.79851">
        <ele>1610.3</ele>
        <time>2000-01-01T04:40:58.000Z</time>
      </trkpt>
      <trkpt lat="46.12933" lon="7.79852">
        <ele>1615</ele>
        <time>2000-01-01T04:41:08.000Z</time>
      </trkpt>
      <trkpt lat="46.12931" lon="7.7985">
        <ele>1613.7</ele>
        <time>2000-01-01T04:41:18.000Z</time>
      </trkpt>
      <trkpt lat="46.12927" lon="7.7985">
        <ele>1616.3</ele>
        <time>2000-01-01T04:41:28.000Z</time>
      </trkpt>
      <trkpt lat="46.12925" lon="7.79848">
        <ele>1616.9</ele>
        <time>2000-01-01T04:41:38.000Z</time>
      </trkpt>
      <trkpt lat="46.12922" lon="7.79849">
        <ele>1619.1</ele>
        <time>2000-01-01T04:41:48.000Z</time>
      </trkpt>
      <trkpt lat="46.1292" lon="7.79846">
        <ele>1619.5</ele>
        <time>2000-01-01T04:41:58.000Z</time>
      </trkpt>
      <trkpt lat="46.12917" lon="7.79845">
        <ele>1621.1</ele>
        <time>2000-01-01T04:42:08.000Z</time>
      </trkpt>
      <trkpt lat="46.12914" lon="7.79843">
        <ele>1626</ele>
        <time>2000-01-01T04:42:18.000Z</time>
      </trkpt>
      <trkpt lat="46.12911" lon="7.79843">
        <ele>1625.8</ele>
        <time>2000-01-01T04:42:28.000Z</time>
      </trkpt>
      <trkpt lat="46.12909" lon="7.79847">
        <ele>1628.7</ele>
        <time>2000-01-01T04:42:38.000Z</time>
      </trkpt>
      <trkpt lat="46.12907" lon="7.79849">
        <ele>1631</ele>
        <time>2000-01-01T04:42:48.000Z</time>
      </trkpt>
      <trkpt lat="46.12901" lon="7.79846">
        <ele>1635.5</ele>
        <time>2000-01-01T04:42:58.000Z</time>
      </trkpt>
      <trkpt lat="46.12899" lon="7.79847">
        <ele>1637.5</ele>
        <time>2000-01-01T04:43:08.000Z</time>
      </trkpt>
      <trkpt lat="46.12896" lon="7.79851">
        <ele>1646</ele>
        <time>2000-01-01T04:43:18.000Z</time>
      </trkpt>
      <trkpt lat="46.12895" lon="7.79855">
        <ele>1643.1</ele>
        <time>2000-01-01T04:43:28.000Z</time>
      </trkpt>
      <trkpt lat="46.12896" lon="7.79859">
        <ele>1643.3</ele>
        <time>2000-01-01T04:43:38.000Z</time>
      </trkpt>
      <trkpt lat="46.12896" lon="7.79864">
        <ele>1645.2</ele>
        <time>2000-01-01T04:43:48.000Z</time>
      </trkpt>
      <trkpt lat="46.12894" lon="7.79867">
        <ele>1648.4</ele>
        <time>2000-01-01T04:43:58.000Z</time>
      </trkpt>
      <trkpt lat="46.12894" lon="7.79871">
        <ele>1650.4</ele>
        <time>2000-01-01T04:44:08.000Z</time>
      </trkpt>
      <trkpt lat="46.12893" lon="7.79873">
        <ele>1652.2</ele>
        <time>2000-01-01T04:44:18.000Z</time>
      </trkpt>
      <trkpt lat="46.1289" lon="7.79874">
        <ele>1653</ele>
        <time>2000-01-01T04:44:28.000Z</time>
      </trkpt>
      <trkpt lat="46.12889" lon="7.79868">
        <ele>1653.4</ele>
        <time>2000-01-01T04:44:38.000Z</time>
      </trkpt>
      <trkpt lat="46.12886" lon="7.79867">
        <ele>1656.7</ele>
        <time>2000-01-01T04:44:48.000Z</time>
      </trkpt>
      <trkpt lat="46.12882" lon="7.79868">
        <ele>1662.3</ele>
        <time>2000-01-01T04:44:58.000Z</time>
      </trkpt>
      <trkpt lat="46.12879" lon="7.79866">
        <ele>1665.2</ele>
        <time>2000-01-01T04:45:08.000Z</time>
      </trkpt>
      <trkpt lat="46.12876" lon="7.79864">
        <ele>1668.1</ele>
        <time>2000-01-01T04:45:18.000Z</time>
      </trkpt>
      <trkpt lat="46.12879" lon="7.79866">
        <ele>1663</ele>
        <time>2000-01-01T04:45:28.000Z</time>
      </trkpt>
      <trkpt lat="46.1288" lon="7.7987">
        <ele>1665.8</ele>
        <time>2000-01-01T04:45:38.000Z</time>
      </trkpt>
      <trkpt lat="46.12878" lon="7.79872">
        <ele>1669.3</ele>
        <time>2000-01-01T04:45:48.000Z</time>
      </trkpt>
      <trkpt lat="46.12874" lon="7.7987">
        <ele>1673.4</ele>
        <time>2000-01-01T04:45:58.000Z</time>
      </trkpt>
      <trkpt lat="46.12871" lon="7.79867">
        <ele>1675.9</ele>
        <time>2000-01-01T04:46:08.000Z</time>
      </trkpt>
      <trkpt lat="46.1287" lon="7.79863">
        <ele>1675.3</ele>
        <time>2000-01-01T04:46:18.000Z</time>
      </trkpt>
      <trkpt lat="46.1287" lon="7.79858">
        <ele>1674</ele>
        <time>2000-01-01T04:46:28.000Z</time>
      </trkpt>
      <trkpt lat="46.1287" lon="7.79854">
        <ele>1671.8</ele>
        <time>2000-01-01T04:46:38.000Z</time>
      </trkpt>
      <trkpt lat="46.12867" lon="7.79854">
        <ele>1675.6</ele>
        <time>2000-01-01T04:46:48.000Z</time>
      </trkpt>
      <trkpt lat="46.12864" lon="7.79852">
        <ele>1678.5</ele>
        <time>2000-01-01T04:46:58.000Z</time>
      </trkpt>
      <trkpt lat="46.12864" lon="7.79848">
        <ele>1676.8</ele>
        <time>2000-01-01T04:47:08.000Z</time>
      </trkpt>
      <trkpt lat="46.12861" lon="7.7984">
        <ele>1676.9</ele>
        <time>2000-01-01T04:47:18.000Z</time>
      </trkpt>
      <trkpt lat="46.1286" lon="7.79836">
        <ele>1683</ele>
        <time>2000-01-01T04:47:28.000Z</time>
      </trkpt>
      <trkpt lat="46.12854" lon="7.79832">
        <ele>1677.1</ele>
        <time>2000-01-01T04:47:38.000Z</time>
      </trkpt>
      <trkpt lat="46.12855" lon="7.7983">
        <ele>1676.3</ele>
        <time>2000-01-01T04:47:48.000Z</time>
      </trkpt>
      <trkpt lat="46.12856" lon="7.79834">
        <ele>1676.7</ele>
        <time>2000-01-01T04:47:58.000Z</time>
      </trkpt>
      <trkpt lat="46.12853" lon="7.79837">
        <ele>1679.3</ele>
        <time>2000-01-01T04:48:08.000Z</time>
      </trkpt>
      <trkpt lat="46.12855" lon="7.7984">
        <ele>1679.6</ele>
        <time>2000-01-01T04:48:18.000Z</time>
      </trkpt>
      <trkpt lat="46.12853" lon="7.79839">
        <ele>1683</ele>
        <time>2000-01-01T04:48:28.000Z</time>
      </trkpt>
      <trkpt lat="46.12855" lon="7.79837">
        <ele>1678.4</ele>
        <time>2000-01-01T04:48:38.000Z</time>
      </trkpt>
      <trkpt lat="46.12855" lon="7.79842">
        <ele>1680.5</ele>
        <time>2000-01-01T04:48:48.000Z</time>
      </trkpt>
      <trkpt lat="46.12856" lon="7.79846">
        <ele>1681.7</ele>
        <time>2000-01-01T04:48:58.000Z</time>
      </trkpt>
      <trkpt lat="46.12854" lon="7.79849">
        <ele>1683.8</ele>
        <time>2000-01-01T04:49:08.000Z</time>
      </trkpt>
      <trkpt lat="46.1286" lon="7.79854">
        <ele>1683.4</ele>
        <time>2000-01-01T04:49:18.000Z</time>
      </trkpt>
      <trkpt lat="46.12861" lon="7.79858">
        <ele>1684</ele>
        <time>2000-01-01T04:49:28.000Z</time>
      </trkpt>
      <trkpt lat="46.12861" lon="7.79862">
        <ele>1686.4</ele>
        <time>2000-01-01T04:49:38.000Z</time>
      </trkpt>
      <trkpt lat="46.12864" lon="7.79871">
        <ele>1686.6</ele>
        <time>2000-01-01T04:49:48.000Z</time>
      </trkpt>
      <trkpt lat="46.12864" lon="7.79875">
        <ele>1688.4</ele>
        <time>2000-01-01T04:49:58.000Z</time>
      </trkpt>
      <trkpt lat="46.12867" lon="7.79884">
        <ele>1688</ele>
        <time>2000-01-01T04:50:08.000Z</time>
      </trkpt>
      <trkpt lat="46.12868" lon="7.79888">
        <ele>1689.2</ele>
        <time>2000-01-01T04:50:18.000Z</time>
      </trkpt>
      <trkpt lat="46.12871" lon="7.79892">
        <ele>1687</ele>
        <time>2000-01-01T04:50:28.000Z</time>
      </trkpt>
      <trkpt lat="46.12874" lon="7.79899">
        <ele>1686.1</ele>
        <time>2000-01-01T04:50:38.000Z</time>
      </trkpt>
      <trkpt lat="46.12879" lon="7.79905">
        <ele>1688</ele>
        <time>2000-01-01T04:50:48.000Z</time>
      </trkpt>
      <trkpt lat="46.12877" lon="7.79915">
        <ele>1689.3</ele>
        <time>2000-01-01T04:50:58.000Z</time>
      </trkpt>
      <trkpt lat="46.12877" lon="7.7992">
        <ele>1690.1</ele>
        <time>2000-01-01T04:51:08.000Z</time>
      </trkpt>
      <trkpt lat="46.12879" lon="7.79925">
        <ele>1688.3</ele>
        <time>2000-01-01T04:51:18.000Z</time>
      </trkpt>
      <trkpt lat="46.12883" lon="7.79933">
        <ele>1688</ele>
        <time>2000-01-01T04:51:28.000Z</time>
      </trkpt>
      <trkpt lat="46.12882" lon="7.79937">
        <ele>1686.2</ele>
        <time>2000-01-01T04:51:38.000Z</time>
      </trkpt>
      <trkpt lat="46.1288" lon="7.79941">
        <ele>1688.2</ele>
        <time>2000-01-01T04:51:48.000Z</time>
      </trkpt>
      <trkpt lat="46.12873" lon="7.79943">
        <ele>1694.1</ele>
        <time>2000-01-01T04:51:58.000Z</time>
      </trkpt>
      <trkpt lat="46.12872" lon="7.79946">
        <ele>1696</ele>
        <time>2000-01-01T04:52:08.000Z</time>
      </trkpt>
      <trkpt lat="46.12872" lon="7.79952">
        <ele>1703</ele>
        <time>2000-01-01T04:52:18.000Z</time>
      </trkpt>
      <trkpt lat="46.12873" lon="7.79956">
        <ele>1702.1</ele>
        <time>2000-01-01T04:52:28.000Z</time>
      </trkpt>
      <trkpt lat="46.12872" lon="7.7996">
        <ele>1705.6</ele>
        <time>2000-01-01T04:52:38.000Z</time>
      </trkpt>
      <trkpt lat="46.12869" lon="7.79959">
        <ele>1707.4</ele>
        <time>2000-01-01T04:52:48.000Z</time>
      </trkpt>
      <trkpt lat="46.12868" lon="7.79963">
        <ele>1711</ele>
        <time>2000-01-01T04:52:58.000Z</time>
      </trkpt>
      <trkpt lat="46.12869" lon="7.79967">
        <ele>1712.9</ele>
        <time>2000-01-01T04:53:08.000Z</time>
      </trkpt>
      <trkpt lat="46.12864" lon="7.79962">
        <ele>1713</ele>
        <time>2000-01-01T04:53:18.000Z</time>
      </trkpt>
      <trkpt lat="46.12866" lon="7.79958">
        <ele>1709.2</ele>
        <time>2000-01-01T04:53:28.000Z</time>
      </trkpt>
      <trkpt lat="46.12862" lon="7.79955">
        <ele>1710.5</ele>
        <time>2000-01-01T04:53:38.000Z</time>
      </trkpt>
      <trkpt lat="46.12858" lon="7.79955">
        <ele>1712.8</ele>
        <time>2000-01-01T04:53:48.000Z</time>
      </trkpt>
      <trkpt lat="46.12853" lon="7.79956">
        <ele>1715.9</ele>
        <time>2000-01-01T04:53:58.000Z</time>
      </trkpt>
      <trkpt lat="46.12852" lon="7.7996">
        <ele>1720</ele>
        <time>2000-01-01T04:54:08.000Z</time>
      </trkpt>
      <trkpt lat="46.12851" lon="7.79957">
        <ele>1717.4</ele>
        <time>2000-01-01T04:54:18.000Z</time>
      </trkpt>
      <trkpt lat="46.12851" lon="7.79953">
        <ele>1715.3</ele>
        <time>2000-01-01T04:54:28.000Z</time>
      </trkpt>
      <trkpt lat="46.12849" lon="7.79955">
        <ele>1717.4</ele>
        <time>2000-01-01T04:54:38.000Z</time>
      </trkpt>
      <trkpt lat="46.1285" lon="7.79959">
        <ele>1718.8</ele>
        <time>2000-01-01T04:54:48.000Z</time>
      </trkpt>
      <trkpt lat="46.12849" lon="7.79964">
        <ele>1721.7</ele>
        <time>2000-01-01T04:54:58.000Z</time>
      </trkpt>
      <trkpt lat="46.12846" lon="7.79962">
        <ele>1721.9</ele>
        <time>2000-01-01T04:55:08.000Z</time>
      </trkpt>
      <trkpt lat="46.12844" lon="7.79963">
        <ele>1725</ele>
        <time>2000-01-01T04:55:18.000Z</time>
      </trkpt>
      <trkpt lat="46.12841" lon="7.79962">
        <ele>1723.8</ele>
        <time>2000-01-01T04:55:28.000Z</time>
      </trkpt>
      <trkpt lat="46.12835" lon="7.79962">
        <ele>1726.1</ele>
        <time>2000-01-01T04:55:38.000Z</time>
      </trkpt>
      <trkpt lat="46.12833" lon="7.79958">
        <ele>1726</ele>
        <time>2000-01-01T04:55:48.000Z</time>
      </trkpt>
      <trkpt lat="46.12832" lon="7.79954">
        <ele>1725.4</ele>
        <time>2000-01-01T04:55:58.000Z</time>
      </trkpt>
      <trkpt lat="46.12833" lon="7.79957">
        <ele>1725.8</ele>
        <time>2000-01-01T04:56:08.000Z</time>
      </trkpt>
      <trkpt lat="46.12827" lon="7.79953">
        <ele>1726</ele>
        <time>2000-01-01T04:56:18.000Z</time>
      </trkpt>
      <trkpt lat="46.12821" lon="7.79952">
        <ele>1727.8</ele>
        <time>2000-01-01T04:56:28.000Z</time>
      </trkpt>
      <trkpt lat="46.12819" lon="7.79954">
        <ele>1729.1</ele>
        <time>2000-01-01T04:56:38.000Z</time>
      </trkpt>
      <trkpt lat="46.12815" lon="7.79952">
        <ele>1729.4</ele>
        <time>2000-01-01T04:56:48.000Z</time>
      </trkpt>
      <trkpt lat="46.12813" lon="7.79952">
        <ele>1729.9</ele>
        <time>2000-01-01T04:56:58.000Z</time>
      </trkpt>
      <trkpt lat="46.1281" lon="7.79951">
        <ele>1730.2</ele>
        <time>2000-01-01T04:57:08.000Z</time>
      </trkpt>
      <trkpt lat="46.12807" lon="7.79948">
        <ele>1724</ele>
        <time>2000-01-01T04:57:18.000Z</time>
      </trkpt>
      <trkpt lat="46.12804" lon="7.79947">
        <ele>1729.1</ele>
        <time>2000-01-01T04:57:28.000Z</time>
      </trkpt>
      <trkpt lat="46.12799" lon="7.7994">
        <ele>1725.1</ele>
        <time>2000-01-01T04:57:38.000Z</time>
      </trkpt>
      <trkpt lat="46.12798" lon="7.79932">
        <ele>1721.2</ele>
        <time>2000-01-01T04:57:48.000Z</time>
      </trkpt>
      <trkpt lat="46.12796" lon="7.79933">
        <ele>1722</ele>
        <time>2000-01-01T04:57:58.000Z</time>
      </trkpt>
      <trkpt lat="46.12793" lon="7.7993">
        <ele>1719.8</ele>
        <time>2000-01-01T04:58:08.000Z</time>
      </trkpt>
      <trkpt lat="46.12791" lon="7.79927">
        <ele>1718.3</ele>
        <time>2000-01-01T04:58:18.000Z</time>
      </trkpt>
      <trkpt lat="46.12789" lon="7.7993">
        <ele>1719.6</ele>
        <time>2000-01-01T04:58:28.000Z</time>
      </trkpt>
      <trkpt lat="46.12785" lon="7.7993">
        <ele>1719.3</ele>
        <time>2000-01-01T04:58:38.000Z</time>
      </trkpt>
      <trkpt lat="46.12777" lon="7.79926">
        <ele>1720</ele>
        <time>2000-01-01T04:58:48.000Z</time>
      </trkpt>
      <trkpt lat="46.12775" lon="7.79924">
        <ele>1716.1</ele>
        <time>2000-01-01T04:58:58.000Z</time>
      </trkpt>
      <trkpt lat="46.12772" lon="7.79927">
        <ele>1717.4</ele>
        <time>2000-01-01T04:59:08.000Z</time>
      </trkpt>
      <trkpt lat="46.12766" lon="7.79928">
        <ele>1717.8</ele>
        <time>2000-01-01T04:59:18.000Z</time>
      </trkpt>
      <trkpt lat="46.12756" lon="7.79926">
        <ele>1720</ele>
        <time>2000-01-01T04:59:28.000Z</time>
      </trkpt>
      <trkpt lat="46.12753" lon="7.79926">
        <ele>1716.7</ele>
        <time>2000-01-01T04:59:38.000Z</time>
      </trkpt>
      <trkpt lat="46.12745" lon="7.79926">
        <ele>1717.2</ele>
        <time>2000-01-01T04:59:48.000Z</time>
      </trkpt>
      <trkpt lat="46.12729" lon="7.79923">
        <ele>1720</ele>
        <time>2000-01-01T04:59:58.000Z</time>
      </trkpt>
      <trkpt lat="46.12726" lon="7.79925">
        <ele>1718.8</ele>
        <time>2000-01-01T05:00:08.000Z</time>
      </trkpt>
      <trkpt lat="46.12721" lon="7.79925">
        <ele>1719.1</ele>
        <time>2000-01-01T05:00:18.000Z</time>
      </trkpt>
      <trkpt lat="46.12715" lon="7.79925">
        <ele>1718.8</ele>
        <time>2000-01-01T05:00:28.000Z</time>
      </trkpt>
      <trkpt lat="46.12712" lon="7.79927">
        <ele>1719.6</ele>
        <time>2000-01-01T05:00:38.000Z</time>
      </trkpt>
      <trkpt lat="46.12708" lon="7.79927">
        <ele>1720</ele>
        <time>2000-01-01T05:00:48.000Z</time>
      </trkpt>
      <trkpt lat="46.12699" lon="7.79933">
        <ele>1721.4</ele>
        <time>2000-01-01T05:00:58.000Z</time>
      </trkpt>
      <trkpt lat="46.12698" lon="7.79937">
        <ele>1723.1</ele>
        <time>2000-01-01T05:01:08.000Z</time>
      </trkpt>
      <trkpt lat="46.12696" lon="7.79939">
        <ele>1723.8</ele>
        <time>2000-01-01T05:01:18.000Z</time>
      </trkpt>
      <trkpt lat="46.12694" lon="7.79942">
        <ele>1724.8</ele>
        <time>2000-01-01T05:01:28.000Z</time>
      </trkpt>
      <trkpt lat="46.12691" lon="7.79944">
        <ele>1729</ele>
        <time>2000-01-01T05:01:38.000Z</time>
      </trkpt>
      <trkpt lat="46.1269" lon="7.79948">
        <ele>1726.3</ele>
        <time>2000-01-01T05:01:48.000Z</time>
      </trkpt>
      <trkpt lat="46.12687" lon="7.79948">
        <ele>1725.3</ele>
        <time>2000-01-01T05:01:58.000Z</time>
      </trkpt>
      <trkpt lat="46.12684" lon="7.7995">
        <ele>1725.3</ele>
        <time>2000-01-01T05:02:08.000Z</time>
      </trkpt>
      <trkpt lat="46.12682" lon="7.79953">
        <ele>1726.3</ele>
        <time>2000-01-01T05:02:18.000Z</time>
      </trkpt>
      <trkpt lat="46.12682" lon="7.79957">
        <ele>1728.5</ele>
        <time>2000-01-01T05:02:28.000Z</time>
      </trkpt>
      <trkpt lat="46.12676" lon="7.79967">
        <ele>1735</ele>
        <time>2000-01-01T05:02:38.000Z</time>
      </trkpt>
      <trkpt lat="46.12677" lon="7.79971">
        <ele>1734.7</ele>
        <time>2000-01-01T05:02:48.000Z</time>
      </trkpt>
      <trkpt lat="46.1268" lon="7.79973">
        <ele>1736.8</ele>
        <time>2000-01-01T05:02:58.000Z</time>
      </trkpt>
      <trkpt lat="46.12682" lon="7.79976">
        <ele>1739.4</ele>
        <time>2000-01-01T05:03:08.000Z</time>
      </trkpt>
      <trkpt lat="46.12684" lon="7.79979">
        <ele>1741.9</ele>
        <time>2000-01-01T05:03:18.000Z</time>
      </trkpt>
      <trkpt lat="46.1269" lon="7.7998">
        <ele>1744.1</ele>
        <time>2000-01-01T05:03:28.000Z</time>
      </trkpt>
      <trkpt lat="46.12693" lon="7.79979">
        <ele>1744</ele>
        <time>2000-01-01T05:03:38.000Z</time>
      </trkpt>
      <trkpt lat="46.12697" lon="7.79981">
        <ele>1746.1</ele>
        <time>2000-01-01T05:03:48.000Z</time>
      </trkpt>
      <trkpt lat="46.12696" lon="7.79984">
        <ele>1747.6</ele>
        <time>2000-01-01T05:03:58.000Z</time>
      </trkpt>
      <trkpt lat="46.12694" lon="7.79987">
        <ele>1748.9</ele>
        <time>2000-01-01T05:04:08.000Z</time>
      </trkpt>
      <trkpt lat="46.12692" lon="7.79995">
        <ele>1753</ele>
        <time>2000-01-01T05:04:18.000Z</time>
      </trkpt>
      <trkpt lat="46.12687" lon="7.80001">
        <ele>1757</ele>
        <time>2000-01-01T05:04:28.000Z</time>
      </trkpt>
      <trkpt lat="46.12685" lon="7.80003">
        <ele>1757</ele>
        <time>2000-01-01T05:04:38.000Z</time>
      </trkpt>
      <trkpt lat="46.12683" lon="7.80006">
        <ele>1758.6</ele>
        <time>2000-01-01T05:04:48.000Z</time>
      </trkpt>
      <trkpt lat="46.12683" lon="7.80011">
        <ele>1761.5</ele>
        <time>2000-01-01T05:04:58.000Z</time>
      </trkpt>
      <trkpt lat="46.1268" lon="7.80018">
        <ele>1765.3</ele>
        <time>2000-01-01T05:05:08.000Z</time>
      </trkpt>
      <trkpt lat="46.12677" lon="7.80022">
        <ele>1767.4</ele>
        <time>2000-01-01T05:05:18.000Z</time>
      </trkpt>
      <trkpt lat="46.12674" lon="7.80024">
        <ele>1769</ele>
        <time>2000-01-01T05:05:28.000Z</time>
      </trkpt>
      <trkpt lat="46.12671" lon="7.80025">
        <ele>1768.7</ele>
        <time>2000-01-01T05:05:38.000Z</time>
      </trkpt>
      <trkpt lat="46.12663" lon="7.80032">
        <ele>1772.1</ele>
        <time>2000-01-01T05:05:48.000Z</time>
      </trkpt>
      <trkpt lat="46.12661" lon="7.80034">
        <ele>1773.1</ele>
        <time>2000-01-01T05:05:58.000Z</time>
      </trkpt>
      <trkpt lat="46.12662" lon="7.80037">
        <ele>1775.4</ele>
        <time>2000-01-01T05:06:08.000Z</time>
      </trkpt>
      <trkpt lat="46.12661" lon="7.8004">
        <ele>1776</ele>
        <time>2000-01-01T05:06:18.000Z</time>
      </trkpt>
      <trkpt lat="46.12658" lon="7.80041">
        <ele>1777.7</ele>
        <time>2000-01-01T05:06:28.000Z</time>
      </trkpt>
      <trkpt lat="46.12655" lon="7.80044">
        <ele>1779.7</ele>
        <time>2000-01-01T05:06:38.000Z</time>
      </trkpt>
      <trkpt lat="46.12654" lon="7.80048">
        <ele>1782.7</ele>
        <time>2000-01-01T05:06:48.000Z</time>
      </trkpt>
      <trkpt lat="46.12647" lon="7.80054">
        <ele>1787.4</ele>
        <time>2000-01-01T05:06:58.000Z</time>
      </trkpt>
      <trkpt lat="46.12649" lon="7.80056">
        <ele>1789</ele>
        <time>2000-01-01T05:07:08.000Z</time>
      </trkpt>
      <trkpt lat="46.12652" lon="7.80055">
        <ele>1788.1</ele>
        <time>2000-01-01T05:07:18.000Z</time>
      </trkpt>
      <trkpt lat="46.12665" lon="7.8006">
        <ele>1791.9</ele>
        <time>2000-01-01T05:07:28.000Z</time>
      </trkpt>
      <trkpt lat="46.12663" lon="7.80063">
        <ele>1797</ele>
        <time>2000-01-01T05:07:38.000Z</time>
      </trkpt>
      <trkpt lat="46.12658" lon="7.80066">
        <ele>1797</ele>
        <time>2000-01-01T05:07:48.000Z</time>
      </trkpt>
      <trkpt lat="46.12656" lon="7.8007">
        <ele>1800.3</ele>
        <time>2000-01-01T05:07:58.000Z</time>
      </trkpt>
      <trkpt lat="46.12664" lon="7.80077">
        <ele>1806.4</ele>
        <time>2000-01-01T05:08:08.000Z</time>
      </trkpt>
      <trkpt lat="46.1267" lon="7.80079">
        <ele>1804</ele>
        <time>2000-01-01T05:08:18.000Z</time>
      </trkpt>
      <trkpt lat="46.12672" lon="7.80082">
        <ele>1811.9</ele>
        <time>2000-01-01T05:08:28.000Z</time>
      </trkpt>
      <trkpt lat="46.12681" lon="7.80085">
        <ele>1816.1</ele>
        <time>2000-01-01T05:08:38.000Z</time>
      </trkpt>
      <trkpt lat="46.12684" lon="7.80085">
        <ele>1816.8</ele>
        <time>2000-01-01T05:08:48.000Z</time>
      </trkpt>
      <trkpt lat="46.12686" lon="7.80088">
        <ele>1819</ele>
        <time>2000-01-01T05:08:58.000Z</time>
      </trkpt>
      <trkpt lat="46.12689" lon="7.8009">
        <ele>1822</ele>
        <time>2000-01-01T05:09:08.000Z</time>
      </trkpt>
      <trkpt lat="46.12695" lon="7.80092">
        <ele>1823.5</ele>
        <time>2000-01-01T05:09:18.000Z</time>
      </trkpt>
      <trkpt lat="46.12695" lon="7.80091">
        <ele>1822.9</ele>
        <time>2000-01-01T05:09:28.000Z</time>
      </trkpt>
      <trkpt lat="46.12698" lon="7.80091">
        <ele>1823.8</ele>
        <time>2000-01-01T05:09:38.000Z</time>
      </trkpt>
      <trkpt lat="46.12704" lon="7.80093">
        <ele>1826.9</ele>
        <time>2000-01-01T05:09:48.000Z</time>
      </trkpt>
      <trkpt lat="46.12712" lon="7.80091">
        <ele>1830</ele>
        <time>2000-01-01T05:09:58.000Z</time>
      </trkpt>
      <trkpt lat="46.12718" lon="7.80087">
        <ele>1827.8</ele>
        <time>2000-01-01T05:10:08.000Z</time>
      </trkpt>
      <trkpt lat="46.1272" lon="7.80095">
        <ele>1833</ele>
        <time>2000-01-01T05:10:18.000Z</time>
      </trkpt>
      <trkpt lat="46.12719" lon="7.80099">
        <ele>1835</ele>
        <time>2000-01-01T05:10:28.000Z</time>
      </trkpt>
      <trkpt lat="46.1272" lon="7.80103">
        <ele>1837.7</ele>
        <time>2000-01-01T05:10:38.000Z</time>
      </trkpt>
      <trkpt lat="46.12723" lon="7.80102">
        <ele>1840</ele>
        <time>2000-01-01T05:10:48.000Z</time>
      </trkpt>
      <trkpt lat="46.12725" lon="7.80106">
        <ele>1841.4</ele>
        <time>2000-01-01T05:10:58.000Z</time>
      </trkpt>
      <trkpt lat="46.12722" lon="7.80108">
        <ele>1841.1</ele>
        <time>2000-01-01T05:11:08.000Z</time>
      </trkpt>
      <trkpt lat="46.1272" lon="7.80116">
        <ele>1845.6</ele>
        <time>2000-01-01T05:11:18.000Z</time>
      </trkpt>
      <trkpt lat="46.12718" lon="7.80119">
        <ele>1846.9</ele>
        <time>2000-01-01T05:11:28.000Z</time>
      </trkpt>
      <trkpt lat="46.12718" lon="7.80123">
        <ele>1849.5</ele>
        <time>2000-01-01T05:11:38.000Z</time>
      </trkpt>
      <trkpt lat="46.12718" lon="7.80128">
        <ele>1848</ele>
        <time>2000-01-01T05:11:48.000Z</time>
      </trkpt>
      <trkpt lat="46.12717" lon="7.80132">
        <ele>1854.9</ele>
        <time>2000-01-01T05:11:58.000Z</time>
      </trkpt>
      <trkpt lat="46.12714" lon="7.80139">
        <ele>1857.9</ele>
        <time>2000-01-01T05:12:08.000Z</time>
      </trkpt>
      <trkpt lat="46.12713" lon="7.80146">
        <ele>1861.4</ele>
        <time>2000-01-01T05:12:18.000Z</time>
      </trkpt>
      <trkpt lat="46.12714" lon="7.8015">
        <ele>1864.2</ele>
        <time>2000-01-01T05:12:28.000Z</time>
      </trkpt>
      <trkpt lat="46.12719" lon="7.80145">
        <ele>1860</ele>
        <time>2000-01-01T05:12:38.000Z</time>
      </trkpt>
      <trkpt lat="46.12722" lon="7.80144">
        <ele>1864.7</ele>
        <time>2000-01-01T05:12:48.000Z</time>
      </trkpt>
      <trkpt lat="46.12728" lon="7.80145">
        <ele>1868.5</ele>
        <time>2000-01-01T05:12:58.000Z</time>
      </trkpt>
      <trkpt lat="46.1273" lon="7.80148">
        <ele>1871.2</ele>
        <time>2000-01-01T05:13:08.000Z</time>
      </trkpt>
      <trkpt lat="46.12736" lon="7.80145">
        <ele>1872.8</ele>
        <time>2000-01-01T05:13:18.000Z</time>
      </trkpt>
      <trkpt lat="46.12737" lon="7.80148">
        <ele>1869</ele>
        <time>2000-01-01T05:13:28.000Z</time>
      </trkpt>
      <trkpt lat="46.12737" lon="7.80153">
        <ele>1877.9</ele>
        <time>2000-01-01T05:13:38.000Z</time>
      </trkpt>
      <trkpt lat="46.12734" lon="7.80159">
        <ele>1879.5</ele>
        <time>2000-01-01T05:13:48.000Z</time>
      </trkpt>
      <trkpt lat="46.12729" lon="7.80165">
        <ele>1880</ele>
        <time>2000-01-01T05:13:58.000Z</time>
      </trkpt>
      <trkpt lat="46.12725" lon="7.80177">
        <ele>1882</ele>
        <time>2000-01-01T05:14:08.000Z</time>
      </trkpt>
      <trkpt lat="46.12724" lon="7.80181">
        <ele>1887.4</ele>
        <time>2000-01-01T05:14:18.000Z</time>
      </trkpt>
      <trkpt lat="46.12722" lon="7.80193">
        <ele>1894</ele>
        <time>2000-01-01T05:14:28.000Z</time>
      </trkpt>
      <trkpt lat="46.1272" lon="7.80201">
        <ele>1897.3</ele>
        <time>2000-01-01T05:14:38.000Z</time>
      </trkpt>
      <trkpt lat="46.12719" lon="7.80205">
        <ele>1895</ele>
        <time>2000-01-01T05:14:48.000Z</time>
      </trkpt>
      <trkpt lat="46.12716" lon="7.80213">
        <ele>1901.9</ele>
        <time>2000-01-01T05:14:58.000Z</time>
      </trkpt>
      <trkpt lat="46.12716" lon="7.80221">
        <ele>1906.1</ele>
        <time>2000-01-01T05:15:08.000Z</time>
      </trkpt>
      <trkpt lat="46.12715" lon="7.80226">
        <ele>1908.3</ele>
        <time>2000-01-01T05:15:18.000Z</time>
      </trkpt>
      <trkpt lat="46.12714" lon="7.80229">
        <ele>1909.5</ele>
        <time>2000-01-01T05:15:28.000Z</time>
      </trkpt>
      <trkpt lat="46.12717" lon="7.80228">
        <ele>1906</ele>
        <time>2000-01-01T05:15:38.000Z</time>
      </trkpt>
      <trkpt lat="46.12719" lon="7.80225">
        <ele>1909.3</ele>
        <time>2000-01-01T05:15:48.000Z</time>
      </trkpt>
      <trkpt lat="46.12721" lon="7.80224">
        <ele>1909.5</ele>
        <time>2000-01-01T05:15:58.000Z</time>
      </trkpt>
      <trkpt lat="46.12727" lon="7.80224">
        <ele>1912.8</ele>
        <time>2000-01-01T05:16:08.000Z</time>
      </trkpt>
      <trkpt lat="46.12729" lon="7.80221">
        <ele>1912.6</ele>
        <time>2000-01-01T05:16:18.000Z</time>
      </trkpt>
      <trkpt lat="46.12732" lon="7.8022">
        <ele>1913.9</ele>
        <time>2000-01-01T05:16:28.000Z</time>
      </trkpt>
      <trkpt lat="46.12738" lon="7.80218">
        <ele>1912</ele>
        <time>2000-01-01T05:16:38.000Z</time>
      </trkpt>
      <trkpt lat="46.12741" lon="7.80219">
        <ele>1919</ele>
        <time>2000-01-01T05:16:48.000Z</time>
      </trkpt>
      <trkpt lat="46.12745" lon="7.80226">
        <ele>1924.5</ele>
        <time>2000-01-01T05:16:58.000Z</time>
      </trkpt>
      <trkpt lat="46.12744" lon="7.80229">
        <ele>1925.2</ele>
        <time>2000-01-01T05:17:08.000Z</time>
      </trkpt>
      <trkpt lat="46.12747" lon="7.80231">
        <ele>1927.7</ele>
        <time>2000-01-01T05:17:18.000Z</time>
      </trkpt>
      <trkpt lat="46.1275" lon="7.80231">
        <ele>1929.5</ele>
        <time>2000-01-01T05:17:28.000Z</time>
      </trkpt>
      <trkpt lat="46.12753" lon="7.80233">
        <ele>1932</ele>
        <time>2000-01-01T05:17:38.000Z</time>
      </trkpt>
      <trkpt lat="46.12756" lon="7.80233">
        <ele>1932.6</ele>
        <time>2000-01-01T05:17:48.000Z</time>
      </trkpt>
      <trkpt lat="46.1276" lon="7.80226">
        <ele>1931.2</ele>
        <time>2000-01-01T05:17:58.000Z</time>
      </trkpt>
      <trkpt lat="46.12766" lon="7.80221">
        <ele>1931.3</ele>
        <time>2000-01-01T05:18:08.000Z</time>
      </trkpt>
      <trkpt lat="46.12772" lon="7.80223">
        <ele>1936</ele>
        <time>2000-01-01T05:18:18.000Z</time>
      </trkpt>
      <trkpt lat="46.12778" lon="7.80218">
        <ele>1934.4</ele>
        <time>2000-01-01T05:18:28.000Z</time>
      </trkpt>
      <trkpt lat="46.12784" lon="7.80215">
        <ele>1934.5</ele>
        <time>2000-01-01T05:18:38.000Z</time>
      </trkpt>
      <trkpt lat="46.12796" lon="7.80218">
        <ele>1940</ele>
        <time>2000-01-01T05:18:48.000Z</time>
      </trkpt>
      <trkpt lat="46.12798" lon="7.80221">
        <ele>1939.3</ele>
        <time>2000-01-01T05:18:58.000Z</time>
      </trkpt>
      <trkpt lat="46.128" lon="7.80225">
        <ele>1941.9</ele>
        <time>2000-01-01T05:19:08.000Z</time>
      </trkpt>
      <trkpt lat="46.128" lon="7.80229">
        <ele>1944.5</ele>
        <time>2000-01-01T05:19:18.000Z</time>
      </trkpt>
      <trkpt lat="46.12802" lon="7.80233">
        <ele>1947.8</ele>
        <time>2000-01-01T05:19:28.000Z</time>
      </trkpt>
      <trkpt lat="46.12802" lon="7.80237">
        <ele>1950.5</ele>
        <time>2000-01-01T05:19:38.000Z</time>
      </trkpt>
      <trkpt lat="46.128" lon="7.80233">
        <ele>1943</ele>
        <time>2000-01-01T05:19:48.000Z</time>
      </trkpt>
      <trkpt lat="46.12797" lon="7.80231">
        <ele>1945.1</ele>
        <time>2000-01-01T05:19:58.000Z</time>
      </trkpt>
      <trkpt lat="46.12794" lon="7.80232">
        <ele>1944.9</ele>
        <time>2000-01-01T05:20:08.000Z</time>
      </trkpt>
      <trkpt lat="46.12792" lon="7.80235">
        <ele>1946.2</ele>
        <time>2000-01-01T05:20:18.000Z</time>
      </trkpt>
      <trkpt lat="46.12792" lon="7.8024">
        <ele>1949.2</ele>
        <time>2000-01-01T05:20:28.000Z</time>
      </trkpt>
      <trkpt lat="46.12789" lon="7.80241">
        <ele>1948.7</ele>
        <time>2000-01-01T05:20:38.000Z</time>
      </trkpt>
      <trkpt lat="46.12787" lon="7.80245">
        <ele>1946</ele>
        <time>2000-01-01T05:20:48.000Z</time>
      </trkpt>
      <trkpt lat="46.12787" lon="7.80249">
        <ele>1952.4</ele>
        <time>2000-01-01T05:20:58.000Z</time>
      </trkpt>
      <trkpt lat="46.12787" lon="7.80264">
        <ele>1959.7</ele>
        <time>2000-01-01T05:21:08.000Z</time>
      </trkpt>
      <trkpt lat="46.12788" lon="7.80268">
        <ele>1962.1</ele>
        <time>2000-01-01T05:21:18.000Z</time>
      </trkpt>
      <trkpt lat="46.12784" lon="7.8028">
        <ele>1967</ele>
        <time>2000-01-01T05:21:28.000Z</time>
      </trkpt>
      <trkpt lat="46.12789" lon="7.80284">
        <ele>1971.8</ele>
        <time>2000-01-01T05:21:38.000Z</time>
      </trkpt>
      <trkpt lat="46.12792" lon="7.80292">
        <ele>1978.9</ele>
        <time>2000-01-01T05:21:48.000Z</time>
      </trkpt>
      <trkpt lat="46.12795" lon="7.80291">
        <ele>1979.7</ele>
        <time>2000-01-01T05:21:58.000Z</time>
      </trkpt>
      <trkpt lat="46.128" lon="7.80292">
        <ele>1973</ele>
        <time>2000-01-01T05:22:08.000Z</time>
      </trkpt>
      <trkpt lat="46.12803" lon="7.8029">
        <ele>1983.2</ele>
        <time>2000-01-01T05:22:18.000Z</time>
      </trkpt>
      <trkpt lat="46.12806" lon="7.80291">
        <ele>1985</ele>
        <time>2000-01-01T05:22:28.000Z</time>
      </trkpt>
      <trkpt lat="46.12809" lon="7.80293">
        <ele>1985.5</ele>
        <time>2000-01-01T05:22:38.000Z</time>
      </trkpt>
      <trkpt lat="46.12811" lon="7.80291">
        <ele>1984</ele>
        <time>2000-01-01T05:22:48.000Z</time>
      </trkpt>
      <trkpt lat="46.12814" lon="7.80291">
        <ele>1983.3</ele>
        <time>2000-01-01T05:22:58.000Z</time>
      </trkpt>
      <trkpt lat="46.12817" lon="7.8029">
        <ele>1982.2</ele>
        <time>2000-01-01T05:23:08.000Z</time>
      </trkpt>
      <trkpt lat="46.1282" lon="7.80288">
        <ele>1979</ele>
        <time>2000-01-01T05:23:18.000Z</time>
      </trkpt>
      <trkpt lat="46.12826" lon="7.80291">
        <ele>1980.8</ele>
        <time>2000-01-01T05:23:28.000Z</time>
      </trkpt>
      <trkpt lat="46.12826" lon="7.80295">
        <ele>1982.4</ele>
        <time>2000-01-01T05:23:38.000Z</time>
      </trkpt>
      <trkpt lat="46.12824" lon="7.80298">
        <ele>1984.2</ele>
        <time>2000-01-01T05:23:48.000Z</time>
      </trkpt>
      <trkpt lat="46.12818" lon="7.80301">
        <ele>1987.3</ele>
        <time>2000-01-01T05:23:58.000Z</time>
      </trkpt>
      <trkpt lat="46.12816" lon="7.80305">
        <ele>1992</ele>
        <time>2000-01-01T05:24:08.000Z</time>
      </trkpt>
      <trkpt lat="46.12814" lon="7.80309">
        <ele>1993.1</ele>
        <time>2000-01-01T05:24:18.000Z</time>
      </trkpt>
      <trkpt lat="46.1281" lon="7.8031">
        <ele>1994.9</ele>
        <time>2000-01-01T05:24:28.000Z</time>
      </trkpt>
      <trkpt lat="46.12807" lon="7.8031">
        <ele>1995.8</ele>
        <time>2000-01-01T05:24:38.000Z</time>
      </trkpt>
      <trkpt lat="46.12804" lon="7.80311">
        <ele>1996.1</ele>
        <time>2000-01-01T05:24:48.000Z</time>
      </trkpt>
      <trkpt lat="46.12801" lon="7.80313">
        <ele>1995.9</ele>
        <time>2000-01-01T05:24:58.000Z</time>
      </trkpt>
      <trkpt lat="46.12802" lon="7.80317">
        <ele>1996</ele>
        <time>2000-01-01T05:25:08.000Z</time>
      </trkpt>
      <trkpt lat="46.12805" lon="7.80319">
        <ele>2000.6</ele>
        <time>2000-01-01T05:25:18.000Z</time>
      </trkpt>
      <trkpt lat="46.12808" lon="7.8032">
        <ele>2000.9</ele>
        <time>2000-01-01T05:25:28.000Z</time>
      </trkpt>
      <trkpt lat="46.1281" lon="7.80323">
        <ele>2002.2</ele>
        <time>2000-01-01T05:25:38.000Z</time>
      </trkpt>
      <trkpt lat="46.12811" lon="7.80327">
        <ele>2004.4</ele>
        <time>2000-01-01T05:25:48.000Z</time>
      </trkpt>
      <trkpt lat="46.12809" lon="7.80332">
        <ele>2007.3</ele>
        <time>2000-01-01T05:25:58.000Z</time>
      </trkpt>
      <trkpt lat="46.1281" lon="7.80336">
        <ele>2009</ele>
        <time>2000-01-01T05:26:08.000Z</time>
      </trkpt>
      <trkpt lat="46.12813" lon="7.80338">
        <ele>2010.2</ele>
        <time>2000-01-01T05:26:18.000Z</time>
      </trkpt>
      <trkpt lat="46.12813" lon="7.80343">
        <ele>2012.5</ele>
        <time>2000-01-01T05:26:28.000Z</time>
      </trkpt>
      <trkpt lat="46.1281" lon="7.80349">
        <ele>2015.3</ele>
        <time>2000-01-01T05:26:38.000Z</time>
      </trkpt>
      <trkpt lat="46.12808" lon="7.80351">
        <ele>2016.3</ele>
        <time>2000-01-01T05:26:48.000Z</time>
      </trkpt>
      <trkpt lat="46.12806" lon="7.8036">
        <ele>2016</ele>
        <time>2000-01-01T05:26:58.000Z</time>
      </trkpt>
      <trkpt lat="46.12804" lon="7.80363">
        <ele>2021.3</ele>
        <time>2000-01-01T05:27:08.000Z</time>
      </trkpt>
      <trkpt lat="46.12805" lon="7.80367">
        <ele>2023.2</ele>
        <time>2000-01-01T05:27:18.000Z</time>
      </trkpt>
      <trkpt lat="46.12811" lon="7.80372">
        <ele>2025.1</ele>
        <time>2000-01-01T05:27:28.000Z</time>
      </trkpt>
      <trkpt lat="46.12813" lon="7.80369">
        <ele>2023.9</ele>
        <time>2000-01-01T05:27:38.000Z</time>
      </trkpt>
      <trkpt lat="46.12816" lon="7.80369">
        <ele>2023.8</ele>
        <time>2000-01-01T05:27:48.000Z</time>
      </trkpt>
      <trkpt lat="46.1282" lon="7.80374">
        <ele>2028</ele>
        <time>2000-01-01T05:27:58.000Z</time>
      </trkpt>
      <trkpt lat="46.12822" lon="7.80377">
        <ele>2026.3</ele>
        <time>2000-01-01T05:28:08.000Z</time>
      </trkpt>
      <trkpt lat="46.12825" lon="7.80379">
        <ele>2026.7</ele>
        <time>2000-01-01T05:28:18.000Z</time>
      </trkpt>
      <trkpt lat="46.12827" lon="7.80382">
        <ele>2027.5</ele>
        <time>2000-01-01T05:28:28.000Z</time>
      </trkpt>
      <trkpt lat="46.12823" lon="7.80388">
        <ele>2029.8</ele>
        <time>2000-01-01T05:28:38.000Z</time>
      </trkpt>
      <trkpt lat="46.12826" lon="7.8039">
        <ele>2030.3</ele>
        <time>2000-01-01T05:28:48.000Z</time>
      </trkpt>
      <trkpt lat="46.12828" lon="7.8039">
        <ele>2033</ele>
        <time>2000-01-01T05:28:58.000Z</time>
      </trkpt>
      <trkpt lat="46.1283" lon="7.80393">
        <ele>2031.3</ele>
        <time>2000-01-01T05:29:08.000Z</time>
      </trkpt>
      <trkpt lat="46.12828" lon="7.80396">
        <ele>2032.9</ele>
        <time>2000-01-01T05:29:18.000Z</time>
      </trkpt>
      <trkpt lat="46.12825" lon="7.80394">
        <ele>2032.3</ele>
        <time>2000-01-01T05:29:28.000Z</time>
      </trkpt>
      <trkpt lat="46.12823" lon="7.80395">
        <ele>2033</ele>
        <time>2000-01-01T05:29:38.000Z</time>
      </trkpt>
      <trkpt lat="46.12814" lon="7.80397">
        <ele>2036</ele>
        <time>2000-01-01T05:29:48.000Z</time>
      </trkpt>
      <trkpt lat="46.12811" lon="7.80399">
        <ele>2036.1</ele>
        <time>2000-01-01T05:29:58.000Z</time>
      </trkpt>
      <trkpt lat="46.12805" lon="7.80402">
        <ele>2038.2</ele>
        <time>2000-01-01T05:30:08.000Z</time>
      </trkpt>
      <trkpt lat="46.128" lon="7.80398">
        <ele>2036.3</ele>
        <time>2000-01-01T05:30:18.000Z</time>
      </trkpt>
      <trkpt lat="46.12797" lon="7.80402">
        <ele>2042</ele>
        <time>2000-01-01T05:30:28.000Z</time>
      </trkpt>
      <trkpt lat="46.12797" lon="7.80406">
        <ele>2040.5</ele>
        <time>2000-01-01T05:30:38.000Z</time>
      </trkpt>
      <trkpt lat="46.12796" lon="7.8041">
        <ele>2042.6</ele>
        <time>2000-01-01T05:30:48.000Z</time>
      </trkpt>
      <trkpt lat="46.12793" lon="7.80413">
        <ele>2044.4</ele>
        <time>2000-01-01T05:30:58.000Z</time>
      </trkpt>
      <trkpt lat="46.1279" lon="7.80412">
        <ele>2044.1</ele>
        <time>2000-01-01T05:31:08.000Z</time>
      </trkpt>
      <trkpt lat="46.12788" lon="7.80416">
        <ele>2046.5</ele>
        <time>2000-01-01T05:31:18.000Z</time>
      </trkpt>
      <trkpt lat="46.12786" lon="7.80419">
        <ele>2049</ele>
        <time>2000-01-01T05:31:28.000Z</time>
      </trkpt>
      <trkpt lat="46.12786" lon="7.80423">
        <ele>2055</ele>
        <time>2000-01-01T05:31:38.000Z</time>
      </trkpt>
      <trkpt lat="46.1279" lon="7.80424">
        <ele>2052.6</ele>
        <time>2000-01-01T05:31:48.000Z</time>
      </trkpt>
      <trkpt lat="46.1279" lon="7.80428">
        <ele>2055.8</ele>
        <time>2000-01-01T05:31:58.000Z</time>
      </trkpt>
      <trkpt lat="46.12786" lon="7.80437">
        <ele>2063.4</ele>
        <time>2000-01-01T05:32:08.000Z</time>
      </trkpt>
      <trkpt lat="46.12782" lon="7.80443">
        <ele>2070</ele>
        <time>2000-01-01T05:32:18.000Z</time>
      </trkpt>
      <trkpt lat="46.12779" lon="7.80444">
        <ele>2069.6</ele>
        <time>2000-01-01T05:32:28.000Z</time>
      </trkpt>
      <trkpt lat="46.12776" lon="7.80444">
        <ele>2069.4</ele>
        <time>2000-01-01T05:32:38.000Z</time>
      </trkpt>
      <trkpt lat="46.12769" lon="7.80451">
        <ele>2074.8</ele>
        <time>2000-01-01T05:32:48.000Z</time>
      </trkpt>
      <trkpt lat="46.12777" lon="7.8045">
        <ele>2076</ele>
        <time>2000-01-01T05:32:58.000Z</time>
      </trkpt>
      <trkpt lat="46.12775" lon="7.80454">
        <ele>2077.8</ele>
        <time>2000-01-01T05:33:08.000Z</time>
      </trkpt>
      <trkpt lat="46.12776" lon="7.80458">
        <ele>2081.2</ele>
        <time>2000-01-01T05:33:18.000Z</time>
      </trkpt>
      <trkpt lat="46.12775" lon="7.80462">
        <ele>2084.6</ele>
        <time>2000-01-01T05:33:28.000Z</time>
      </trkpt>
      <trkpt lat="46.12778" lon="7.80469">
        <ele>2090.3</ele>
        <time>2000-01-01T05:33:38.000Z</time>
      </trkpt>
      <trkpt lat="46.12778" lon="7.80474">
        <ele>2095</ele>
        <time>2000-01-01T05:33:48.000Z</time>
      </trkpt>
      <trkpt lat="46.1278" lon="7.80477">
        <ele>2095</ele>
        <time>2000-01-01T05:33:58.000Z</time>
      </trkpt>
      <trkpt lat="46.1278" lon="7.80481">
        <ele>2102.1</ele>
        <time>2000-01-01T05:34:08.000Z</time>
      </trkpt>
      <trkpt lat="46.12778" lon="7.80485">
        <ele>2107.6</ele>
        <time>2000-01-01T05:34:18.000Z</time>
      </trkpt>
      <trkpt lat="46.12776" lon="7.80486">
        <ele>2109</ele>
        <time>2000-01-01T05:34:28.000Z</time>
      </trkpt>
      <trkpt lat="46.12773" lon="7.80477">
        <ele>2099.1</ele>
        <time>2000-01-01T05:34:38.000Z</time>
      </trkpt>
      <trkpt lat="46.12769" lon="7.80477">
        <ele>2098</ele>
        <time>2000-01-01T05:34:48.000Z</time>
      </trkpt>
      <trkpt lat="46.12768" lon="7.80481">
        <ele>2104.1</ele>
        <time>2000-01-01T05:34:58.000Z</time>
      </trkpt>
      <trkpt lat="46.12768" lon="7.80485">
        <ele>2108.5</ele>
        <time>2000-01-01T05:35:08.000Z</time>
      </trkpt>
      <trkpt lat="46.12765" lon="7.80485">
        <ele>2108.7</ele>
        <time>2000-01-01T05:35:18.000Z</time>
      </trkpt>
      <trkpt lat="46.12759" lon="7.80482">
        <ele>2106</ele>
        <time>2000-01-01T05:35:28.000Z</time>
      </trkpt>
      <trkpt lat="46.12756" lon="7.80482">
        <ele>2106.3</ele>
        <time>2000-01-01T05:35:38.000Z</time>
      </trkpt>
      <trkpt lat="46.12753" lon="7.80483">
        <ele>2109</ele>
        <time>2000-01-01T05:35:48.000Z</time>
      </trkpt>
      <trkpt lat="46.12751" lon="7.80486">
        <ele>2110.8</ele>
        <time>2000-01-01T05:35:58.000Z</time>
      </trkpt>
      <trkpt lat="46.12749" lon="7.80487">
        <ele>2111.9</ele>
        <time>2000-01-01T05:36:08.000Z</time>
      </trkpt>
      <trkpt lat="46.12746" lon="7.80486">
        <ele>2110.7</ele>
        <time>2000-01-01T05:36:18.000Z</time>
      </trkpt>
      <trkpt lat="46.12737" lon="7.80488">
        <ele>2112.2</ele>
        <time>2000-01-01T05:36:28.000Z</time>
      </trkpt>
      <trkpt lat="46.12729" lon="7.80495">
        <ele>2112</ele>
        <time>2000-01-01T05:36:38.000Z</time>
      </trkpt>
      <trkpt lat="46.12723" lon="7.80499">
        <ele>2119.4</ele>
        <time>2000-01-01T05:36:48.000Z</time>
      </trkpt>
      <trkpt lat="46.12721" lon="7.80501">
        <ele>2120.1</ele>
        <time>2000-01-01T05:36:58.000Z</time>
      </trkpt>
      <trkpt lat="46.12713" lon="7.80502">
        <ele>2118.2</ele>
        <time>2000-01-01T05:37:08.000Z</time>
      </trkpt>
      <trkpt lat="46.12707" lon="7.80506">
        <ele>2116</ele>
        <time>2000-01-01T05:37:18.000Z</time>
      </trkpt>
      <trkpt lat="46.12702" lon="7.80503">
        <ele>2115.2</ele>
        <time>2000-01-01T05:37:28.000Z</time>
      </trkpt>
      <trkpt lat="46.127" lon="7.80501">
        <ele>2113.9</ele>
        <time>2000-01-01T05:37:38.000Z</time>
      </trkpt>
      <trkpt lat="46.12694" lon="7.80505">
        <ele>2113.3</ele>
        <time>2000-01-01T05:37:48.000Z</time>
      </trkpt>
      <trkpt lat="46.12691" lon="7.80513">
        <ele>2117</ele>
        <time>2000-01-01T05:37:58.000Z</time>
      </trkpt>
      <trkpt lat="46.12689" lon="7.80515">
        <ele>2114.4</ele>
        <time>2000-01-01T05:38:08.000Z</time>
      </trkpt>
      <trkpt lat="46.12687" lon="7.80523">
        <ele>2115.9</ele>
        <time>2000-01-01T05:38:18.000Z</time>
      </trkpt>
      <trkpt lat="46.12684" lon="7.80524">
        <ele>2115.2</ele>
        <time>2000-01-01T05:38:28.000Z</time>
      </trkpt>
      <trkpt lat="46.12683" lon="7.80528">
        <ele>2116.2</ele>
        <time>2000-01-01T05:38:38.000Z</time>
      </trkpt>
      <trkpt lat="46.12684" lon="7.80533">
        <ele>2123.6</ele>
        <time>2000-01-01T05:38:48.000Z</time>
      </trkpt>
      <trkpt lat="46.12683" lon="7.80537">
        <ele>2123</ele>
        <time>2000-01-01T05:38:58.000Z</time>
      </trkpt>
      <trkpt lat="46.12682" lon="7.80546">
        <ele>2141</ele>
        <time>2000-01-01T05:39:08.000Z</time>
      </trkpt>
      <trkpt lat="46.12683" lon="7.80554">
        <ele>2152.8</ele>
        <time>2000-01-01T05:39:18.000Z</time>
      </trkpt>
      <trkpt lat="46.12682" lon="7.80559">
        <ele>2157.3</ele>
        <time>2000-01-01T05:39:28.000Z</time>
      </trkpt>
      <trkpt lat="46.12679" lon="7.80562">
        <ele>2158.2</ele>
        <time>2000-01-01T05:39:38.000Z</time>
      </trkpt>
      <trkpt lat="46.12681" lon="7.80565">
        <ele>2134</ele>
        <time>2000-01-01T05:39:48.000Z</time>
      </trkpt>
      <trkpt lat="46.12679" lon="7.80569">
        <ele>2164.4</ele>
        <time>2000-01-01T05:39:58.000Z</time>
      </trkpt>
      <trkpt lat="46.12681" lon="7.80572">
        <ele>2167.9</ele>
        <time>2000-01-01T05:40:08.000Z</time>
      </trkpt>
      <trkpt lat="46.12686" lon="7.80568">
        <ele>2166.9</ele>
        <time>2000-01-01T05:40:18.000Z</time>
      </trkpt>
      <trkpt lat="46.12689" lon="7.80567">
        <ele>2167.6</ele>
        <time>2000-01-01T05:40:28.000Z</time>
      </trkpt>
      <trkpt lat="46.12692" lon="7.80566">
        <ele>2168.3</ele>
        <time>2000-01-01T05:40:38.000Z</time>
      </trkpt>
      <trkpt lat="46.12696" lon="7.80559">
        <ele>2146</ele>
        <time>2000-01-01T05:40:48.000Z</time>
      </trkpt>
      <trkpt lat="46.12704" lon="7.80554">
        <ele>2163.8</ele>
        <time>2000-01-01T05:40:58.000Z</time>
      </trkpt>
      <trkpt lat="46.12713" lon="7.80555">
        <ele>2169.2</ele>
        <time>2000-01-01T05:41:08.000Z</time>
      </trkpt>
      <trkpt lat="46.12716" lon="7.80555">
        <ele>2147</ele>
        <time>2000-01-01T05:41:18.000Z</time>
      </trkpt>
      <trkpt lat="46.12725" lon="7.8055">
        <ele>2166</ele>
        <time>2000-01-01T05:41:28.000Z</time>
      </trkpt>
      <trkpt lat="46.12727" lon="7.80549">
        <ele>2164.6</ele>
        <time>2000-01-01T05:41:38.000Z</time>
      </trkpt>
      <trkpt lat="46.1273" lon="7.80549">
        <ele>2164.6</ele>
        <time>2000-01-01T05:41:48.000Z</time>
      </trkpt>
      <trkpt lat="46.12733" lon="7.80552">
        <ele>2168.7</ele>
        <time>2000-01-01T05:41:58.000Z</time>
      </trkpt>
      <trkpt lat="46.12739" lon="7.8055">
        <ele>2149</ele>
        <time>2000-01-01T05:42:08.000Z</time>
      </trkpt>
      <trkpt lat="46.12742" lon="7.80549">
        <ele>2164.7</ele>
        <time>2000-01-01T05:42:18.000Z</time>
      </trkpt>
      <trkpt lat="46.12746" lon="7.80549">
        <ele>2164.7</ele>
        <time>2000-01-01T05:42:28.000Z</time>
      </trkpt>
      <trkpt lat="46.12749" lon="7.8055">
        <ele>2166</ele>
        <time>2000-01-01T05:42:38.000Z</time>
      </trkpt>
      <trkpt lat="46.12762" lon="7.80549">
        <ele>2152</ele>
        <time>2000-01-01T05:42:48.000Z</time>
      </trkpt>
      <trkpt lat="46.12765" lon="7.80549">
        <ele>2164.3</ele>
        <time>2000-01-01T05:42:58.000Z</time>
      </trkpt>
      <trkpt lat="46.12768" lon="7.80546">
        <ele>2160.8</ele>
        <time>2000-01-01T05:43:08.000Z</time>
      </trkpt>
      <trkpt lat="46.12771" lon="7.80546">
        <ele>2160.7</ele>
        <time>2000-01-01T05:43:18.000Z</time>
      </trkpt>
      <trkpt lat="46.12774" lon="7.80547">
        <ele>2161.8</ele>
        <time>2000-01-01T05:43:28.000Z</time>
      </trkpt>
      <trkpt lat="46.12776" lon="7.80551">
        <ele>2166.2</ele>
        <time>2000-01-01T05:43:38.000Z</time>
      </trkpt>
      <trkpt lat="46.12778" lon="7.8055">
        <ele>2164.9</ele>
        <time>2000-01-01T05:43:48.000Z</time>
      </trkpt>
      <trkpt lat="46.1279" lon="7.80555">
        <ele>2160</ele>
        <time>2000-01-01T05:43:58.000Z</time>
      </trkpt>
      <trkpt lat="46.12792" lon="7.80552">
        <ele>2161.2</ele>
        <time>2000-01-01T05:44:08.000Z</time>
      </trkpt>
      <trkpt lat="46.12804" lon="7.80557">
        <ele>2160</ele>
        <time>2000-01-01T05:44:18.000Z</time>
      </trkpt>
      <trkpt lat="46.12807" lon="7.80556">
        <ele>2158.2</ele>
        <time>2000-01-01T05:44:28.000Z</time>
      </trkpt>
      <trkpt lat="46.12818" lon="7.80563">
        <ele>2165</ele>
        <time>2000-01-01T05:44:38.000Z</time>
      </trkpt>
      <trkpt lat="46.1282" lon="7.80566">
        <ele>2162.8</ele>
        <time>2000-01-01T05:44:48.000Z</time>
      </trkpt>
      <trkpt lat="46.12822" lon="7.80569">
        <ele>2164</ele>
        <time>2000-01-01T05:44:58.000Z</time>
      </trkpt>
      <trkpt lat="46.12825" lon="7.80578">
        <ele>2168</ele>
        <time>2000-01-01T05:45:08.000Z</time>
      </trkpt>
      <trkpt lat="46.1283" lon="7.80584">
        <ele>2174</ele>
        <time>2000-01-01T05:45:18.000Z</time>
      </trkpt>
      <trkpt lat="46.12831" lon="7.80588">
        <ele>2169.6</ele>
        <time>2000-01-01T05:45:28.000Z</time>
      </trkpt>
      <trkpt lat="46.12833" lon="7.80591">
        <ele>2169.8</ele>
        <time>2000-01-01T05:45:38.000Z</time>
      </trkpt>
      <trkpt lat="46.12835" lon="7.80591">
        <ele>2169.5</ele>
        <time>2000-01-01T05:45:48.000Z</time>
      </trkpt>
      <trkpt lat="46.12837" lon="7.80595">
        <ele>2171.3</ele>
        <time>2000-01-01T05:45:58.000Z</time>
      </trkpt>
      <trkpt lat="46.12834" lon="7.80595">
        <ele>2171.4</ele>
        <time>2000-01-01T05:46:08.000Z</time>
      </trkpt>
      <trkpt lat="46.12831" lon="7.80597">
        <ele>2173.7</ele>
        <time>2000-01-01T05:46:18.000Z</time>
      </trkpt>
      <trkpt lat="46.12837" lon="7.80602">
        <ele>2180</ele>
        <time>2000-01-01T05:46:28.000Z</time>
      </trkpt>
      <trkpt lat="46.12838" lon="7.80606">
        <ele>2176.5</ele>
        <time>2000-01-01T05:46:38.000Z</time>
      </trkpt>
      <trkpt lat="46.12839" lon="7.8061">
        <ele>2178.5</ele>
        <time>2000-01-01T05:46:48.000Z</time>
      </trkpt>
      <trkpt lat="46.12839" lon="7.80614">
        <ele>2181.6</ele>
        <time>2000-01-01T05:46:58.000Z</time>
      </trkpt>
      <trkpt lat="46.12836" lon="7.80615">
        <ele>2182.5</ele>
        <time>2000-01-01T05:47:08.000Z</time>
      </trkpt>
      <trkpt lat="46.12838" lon="7.80611">
        <ele>2178.9</ele>
        <time>2000-01-01T05:47:18.000Z</time>
      </trkpt>
      <trkpt lat="46.12835" lon="7.80615">
        <ele>2186</ele>
        <time>2000-01-01T05:47:28.000Z</time>
      </trkpt>
      <trkpt lat="46.12838" lon="7.80618">
        <ele>2185.3</ele>
        <time>2000-01-01T05:47:38.000Z</time>
      </trkpt>
      <trkpt lat="46.1284" lon="7.80622">
        <ele>2189</ele>
        <time>2000-01-01T05:47:48.000Z</time>
      </trkpt>
      <trkpt lat="46.12837" lon="7.80625">
        <ele>2191.6</ele>
        <time>2000-01-01T05:47:58.000Z</time>
      </trkpt>
      <trkpt lat="46.12835" lon="7.80623">
        <ele>2189.8</ele>
        <time>2000-01-01T05:48:08.000Z</time>
      </trkpt>
      <trkpt lat="46.12829" lon="7.80619">
        <ele>2189</ele>
        <time>2000-01-01T05:48:18.000Z</time>
      </trkpt>
      <trkpt lat="46.12826" lon="7.80619">
        <ele>2188.7</ele>
        <time>2000-01-01T05:48:28.000Z</time>
      </trkpt>
      <trkpt lat="46.12824" lon="7.80616">
        <ele>2187.2</ele>
        <time>2000-01-01T05:48:38.000Z</time>
      </trkpt>
      <trkpt lat="46.12821" lon="7.80615">
        <ele>2187.8</ele>
        <time>2000-01-01T05:48:48.000Z</time>
      </trkpt>
      <trkpt lat="46.12816" lon="7.8061">
        <ele>2187.3</ele>
        <time>2000-01-01T05:48:58.000Z</time>
      </trkpt>
      <trkpt lat="46.12807" lon="7.80608">
        <ele>2192</ele>
        <time>2000-01-01T05:49:08.000Z</time>
      </trkpt>
      <trkpt lat="46.128" lon="7.80609">
        <ele>2192.9</ele>
        <time>2000-01-01T05:49:18.000Z</time>
      </trkpt>
      <trkpt lat="46.12796" lon="7.80606">
        <ele>2192.3</ele>
        <time>2000-01-01T05:49:28.000Z</time>
      </trkpt>
      <trkpt lat="46.12792" lon="7.80605">
        <ele>2192.4</ele>
        <time>2000-01-01T05:49:38.000Z</time>
      </trkpt>
      <trkpt lat="46.12789" lon="7.80605">
        <ele>2192.7</ele>
        <time>2000-01-01T05:49:48.000Z</time>
      </trkpt>
      <trkpt lat="46.12783" lon="7.80603">
        <ele>2194</ele>
        <time>2000-01-01T05:49:58.000Z</time>
      </trkpt>
      <trkpt lat="46.1278" lon="7.80604">
        <ele>2193.4</ele>
        <time>2000-01-01T05:50:08.000Z</time>
      </trkpt>
      <trkpt lat="46.12774" lon="7.80603">
        <ele>2193.4</ele>
        <time>2000-01-01T05:50:18.000Z</time>
      </trkpt>
      <trkpt lat="46.12768" lon="7.80605">
        <ele>2194</ele>
        <time>2000-01-01T05:50:28.000Z</time>
      </trkpt>
      <trkpt lat="46.12766" lon="7.80607">
        <ele>2194.7</ele>
        <time>2000-01-01T05:50:38.000Z</time>
      </trkpt>
      <trkpt lat="46.1276" lon="7.80607">
        <ele>2198</ele>
        <time>2000-01-01T05:50:48.000Z</time>
      </trkpt>
      <trkpt lat="46.12751" lon="7.80612">
        <ele>2196.6</ele>
        <time>2000-01-01T05:50:58.000Z</time>
      </trkpt>
      <trkpt lat="46.12742" lon="7.8062">
        <ele>2207</ele>
        <time>2000-01-01T05:51:08.000Z</time>
      </trkpt>
      <trkpt lat="46.12739" lon="7.80621">
        <ele>2203.6</ele>
        <time>2000-01-01T05:51:18.000Z</time>
      </trkpt>
      <trkpt lat="46.12735" lon="7.80628">
        <ele>2209</ele>
        <time>2000-01-01T05:51:28.000Z</time>
      </trkpt>
      <trkpt lat="46.12736" lon="7.80634">
        <ele>2213.1</ele>
        <time>2000-01-01T05:51:38.000Z</time>
      </trkpt>
      <trkpt lat="46.12734" lon="7.80637">
        <ele>2215.5</ele>
        <time>2000-01-01T05:51:48.000Z</time>
      </trkpt>
      <trkpt lat="46.12731" lon="7.80637">
        <ele>2215</ele>
        <time>2000-01-01T05:51:58.000Z</time>
      </trkpt>
      <trkpt lat="46.12729" lon="7.80639">
        <ele>2217.8</ele>
        <time>2000-01-01T05:52:08.000Z</time>
      </trkpt>
      <trkpt lat="46.12725" lon="7.80647">
        <ele>2222.4</ele>
        <time>2000-01-01T05:52:18.000Z</time>
      </trkpt>
      <trkpt lat="46.12723" lon="7.80648">
        <ele>2223.2</ele>
        <time>2000-01-01T05:52:28.000Z</time>
      </trkpt>
      <trkpt lat="46.12717" lon="7.80654">
        <ele>2221</ele>
        <time>2000-01-01T05:52:38.000Z</time>
      </trkpt>
      <trkpt lat="46.12713" lon="7.80656">
        <ele>2226.5</ele>
        <time>2000-01-01T05:52:48.000Z</time>
      </trkpt>
      <trkpt lat="46.1271" lon="7.80656">
        <ele>2226.4</ele>
        <time>2000-01-01T05:52:58.000Z</time>
      </trkpt>
      <trkpt lat="46.12708" lon="7.80659">
        <ele>2227.8</ele>
        <time>2000-01-01T05:53:08.000Z</time>
      </trkpt>
      <trkpt lat="46.12704" lon="7.8066">
        <ele>2228.1</ele>
        <time>2000-01-01T05:53:18.000Z</time>
      </trkpt>
      <trkpt lat="46.12699" lon="7.80658">
        <ele>2227</ele>
        <time>2000-01-01T05:53:28.000Z</time>
      </trkpt>
      <trkpt lat="46.12696" lon="7.80658">
        <ele>2226.7</ele>
        <time>2000-01-01T05:53:38.000Z</time>
      </trkpt>
      <trkpt lat="46.12695" lon="7.80662">
        <ele>2228.7</ele>
        <time>2000-01-01T05:53:48.000Z</time>
      </trkpt>
      <trkpt lat="46.12692" lon="7.80664">
        <ele>2229.6</ele>
        <time>2000-01-01T05:53:58.000Z</time>
      </trkpt>
      <trkpt lat="46.1269" lon="7.80665">
        <ele>2230</ele>
        <time>2000-01-01T05:54:08.000Z</time>
      </trkpt>
      <trkpt lat="46.12684" lon="7.80662">
        <ele>2228.3</ele>
        <time>2000-01-01T05:54:18.000Z</time>
      </trkpt>
      <trkpt lat="46.12675" lon="7.80665">
        <ele>2230</ele>
        <time>2000-01-01T05:54:28.000Z</time>
      </trkpt>
      <trkpt lat="46.12672" lon="7.80661">
        <ele>2227.5</ele>
        <time>2000-01-01T05:54:38.000Z</time>
      </trkpt>
      <trkpt lat="46.12669" lon="7.80663">
        <ele>2228.4</ele>
        <time>2000-01-01T05:54:48.000Z</time>
      </trkpt>
      <trkpt lat="46.12669" lon="7.80666">
        <ele>2229.8</ele>
        <time>2000-01-01T05:54:58.000Z</time>
      </trkpt>
      <trkpt lat="46.12667" lon="7.80663">
        <ele>2228.3</ele>
        <time>2000-01-01T05:55:08.000Z</time>
      </trkpt>
      <trkpt lat="46.12668" lon="7.80667">
        <ele>2230.3</ele>
        <time>2000-01-01T05:55:18.000Z</time>
      </trkpt>
      <trkpt lat="46.12667" lon="7.80672">
        <ele>2234</ele>
        <time>2000-01-01T05:55:28.000Z</time>
      </trkpt>
      <trkpt lat="46.12669" lon="7.80682">
        <ele>2240.4</ele>
        <time>2000-01-01T05:55:38.000Z</time>
      </trkpt>
      <trkpt lat="46.12671" lon="7.80685">
        <ele>2242.4</ele>
        <time>2000-01-01T05:55:48.000Z</time>
      </trkpt>
      <trkpt lat="46.12673" lon="7.80689">
        <ele>2245</ele>
        <time>2000-01-01T05:55:58.000Z</time>
      </trkpt>
      <trkpt lat="46.12673" lon="7.80693">
        <ele>2247.6</ele>
        <time>2000-01-01T05:56:08.000Z</time>
      </trkpt>
      <trkpt lat="46.12674" lon="7.80698">
        <ele>2248</ele>
        <time>2000-01-01T05:56:18.000Z</time>
      </trkpt>
      <trkpt lat="46.12673" lon="7.80702">
        <ele>2255.3</ele>
        <time>2000-01-01T05:56:28.000Z</time>
      </trkpt>
      <trkpt lat="46.12673" lon="7.80706">
        <ele>2258.9</ele>
        <time>2000-01-01T05:56:38.000Z</time>
      </trkpt>
      <trkpt lat="46.12679" lon="7.80709">
        <ele>2260.6</ele>
        <time>2000-01-01T05:56:48.000Z</time>
      </trkpt>
      <trkpt lat="46.12681" lon="7.80706">
        <ele>2257.7</ele>
        <time>2000-01-01T05:56:58.000Z</time>
      </trkpt>
      <trkpt lat="46.12684" lon="7.80705">
        <ele>2256.4</ele>
        <time>2000-01-01T05:57:08.000Z</time>
      </trkpt>
      <trkpt lat="46.12693" lon="7.80704">
        <ele>2251</ele>
        <time>2000-01-01T05:57:18.000Z</time>
      </trkpt>
      <trkpt lat="46.12696" lon="7.80705">
        <ele>2254.9</ele>
        <time>2000-01-01T05:57:28.000Z</time>
      </trkpt>
      <trkpt lat="46.12702" lon="7.80704">
        <ele>2253.7</ele>
        <time>2000-01-01T05:57:38.000Z</time>
      </trkpt>
      <trkpt lat="46.12705" lon="7.80705">
        <ele>2254.2</ele>
        <time>2000-01-01T05:57:48.000Z</time>
      </trkpt>
      <trkpt lat="46.12713" lon="7.807">
        <ele>2254</ele>
        <time>2000-01-01T05:57:58.000Z</time>
      </trkpt>
      <trkpt lat="46.12716" lon="7.80703">
        <ele>2252</ele>
        <time>2000-01-01T05:58:08.000Z</time>
      </trkpt>
      <trkpt lat="46.12714" lon="7.80699">
        <ele>2249.4</ele>
        <time>2000-01-01T05:58:18.000Z</time>
      </trkpt>
      <trkpt lat="46.12717" lon="7.80702">
        <ele>2251.2</ele>
        <time>2000-01-01T05:58:28.000Z</time>
      </trkpt>
      <trkpt lat="46.12717" lon="7.80706">
        <ele>2253.9</ele>
        <time>2000-01-01T05:58:38.000Z</time>
      </trkpt>
      <trkpt lat="46.12713" lon="7.80709">
        <ele>2256.3</ele>
        <time>2000-01-01T05:58:48.000Z</time>
      </trkpt>
      <trkpt lat="46.12711" lon="7.80714">
        <ele>2261</ele>
        <time>2000-01-01T05:58:58.000Z</time>
      </trkpt>
      <trkpt lat="46.12705" lon="7.80722">
        <ele>2266.3</ele>
        <time>2000-01-01T05:59:08.000Z</time>
      </trkpt>
      <trkpt lat="46.12703" lon="7.80723">
        <ele>2267.5</ele>
        <time>2000-01-01T05:59:18.000Z</time>
      </trkpt>
      <trkpt lat="46.12704" lon="7.80727">
        <ele>2271.3</ele>
        <time>2000-01-01T05:59:28.000Z</time>
      </trkpt>
      <trkpt lat="46.12703" lon="7.80731">
        <ele>2275.3</ele>
        <time>2000-01-01T05:59:38.000Z</time>
      </trkpt>
      <trkpt lat="46.12704" lon="7.80734">
        <ele>2277</ele>
        <time>2000-01-01T05:59:48.000Z</time>
      </trkpt>
      <trkpt lat="46.12702" lon="7.80736">
        <ele>2280.2</ele>
        <time>2000-01-01T05:59:58.000Z</time>
      </trkpt>
      <trkpt lat="46.12699" lon="7.80736">
        <ele>2280.5</ele>
        <time>2000-01-01T06:00:08.000Z</time>
      </trkpt>
      <trkpt lat="46.12698" lon="7.80741">
        <ele>2285.3</ele>
        <time>2000-01-01T06:00:18.000Z</time>
      </trkpt>
      <trkpt lat="46.12695" lon="7.80741">
        <ele>2285.5</ele>
        <time>2000-01-01T06:00:28.000Z</time>
      </trkpt>
      <trkpt lat="46.12691" lon="7.8074">
        <ele>2285</ele>
        <time>2000-01-01T06:00:38.000Z</time>
      </trkpt>
      <trkpt lat="46.12685" lon="7.80737">
        <ele>2278</ele>
        <time>2000-01-01T06:00:48.000Z</time>
      </trkpt>
      <trkpt lat="46.12683" lon="7.80735">
        <ele>2281.5</ele>
        <time>2000-01-01T06:00:58.000Z</time>
      </trkpt>
      <trkpt lat="46.12677" lon="7.80733">
        <ele>2280.8</ele>
        <time>2000-01-01T06:01:08.000Z</time>
      </trkpt>
      <trkpt lat="46.12675" lon="7.80736">
        <ele>2283.4</ele>
        <time>2000-01-01T06:01:18.000Z</time>
      </trkpt>
      <trkpt lat="46.12663" lon="7.80736">
        <ele>2280</ele>
        <time>2000-01-01T06:01:28.000Z</time>
      </trkpt>
      <trkpt lat="46.12662" lon="7.8074">
        <ele>2287.1</ele>
        <time>2000-01-01T06:01:38.000Z</time>
      </trkpt>
      <trkpt lat="46.1266" lon="7.80742">
        <ele>2288.4</ele>
        <time>2000-01-01T06:01:48.000Z</time>
      </trkpt>
      <trkpt lat="46.1266" lon="7.80746">
        <ele>2291</ele>
        <time>2000-01-01T06:01:58.000Z</time>
      </trkpt>
      <trkpt lat="46.12661" lon="7.80751">
        <ele>2294.2</ele>
        <time>2000-01-01T06:02:08.000Z</time>
      </trkpt>
      <trkpt lat="46.12664" lon="7.80752">
        <ele>2295</ele>
        <time>2000-01-01T06:02:18.000Z</time>
      </trkpt>
      <trkpt lat="46.12668" lon="7.80758">
        <ele>2295</ele>
        <time>2000-01-01T06:02:28.000Z</time>
      </trkpt>
      <trkpt lat="46.1267" lon="7.80761">
        <ele>2300.6</ele>
        <time>2000-01-01T06:02:38.000Z</time>
      </trkpt>
      <trkpt lat="46.1268" lon="7.80764">
        <ele>2301.8</ele>
        <time>2000-01-01T06:02:48.000Z</time>
      </trkpt>
      <trkpt lat="46.12683" lon="7.80764">
        <ele>2301.7</ele>
        <time>2000-01-01T06:02:58.000Z</time>
      </trkpt>
      <trkpt lat="46.1268" lon="7.80766">
        <ele>2303</ele>
        <time>2000-01-01T06:03:08.000Z</time>
      </trkpt>
      <trkpt lat="46.12682" lon="7.80769">
        <ele>2301</ele>
        <time>2000-01-01T06:03:18.000Z</time>
      </trkpt>
      <trkpt lat="46.12685" lon="7.80768">
        <ele>2303.7</ele>
        <time>2000-01-01T06:03:28.000Z</time>
      </trkpt>
      <trkpt lat="46.12688" lon="7.80769">
        <ele>2304.1</ele>
        <time>2000-01-01T06:03:38.000Z</time>
      </trkpt>
      <trkpt lat="46.12695" lon="7.80776">
        <ele>2307.2</ele>
        <time>2000-01-01T06:03:48.000Z</time>
      </trkpt>
      <trkpt lat="46.12697" lon="7.80784">
        <ele>2311</ele>
        <time>2000-01-01T06:03:58.000Z</time>
      </trkpt>
      <trkpt lat="46.12705" lon="7.8079">
        <ele>2314.5</ele>
        <time>2000-01-01T06:04:08.000Z</time>
      </trkpt>
      <trkpt lat="46.12706" lon="7.80794">
        <ele>2316.4</ele>
        <time>2000-01-01T06:04:18.000Z</time>
      </trkpt>
      <trkpt lat="46.12708" lon="7.80797">
        <ele>2317.8</ele>
        <time>2000-01-01T06:04:28.000Z</time>
      </trkpt>
      <trkpt lat="46.12711" lon="7.80799">
        <ele>2318.8</ele>
        <time>2000-01-01T06:04:38.000Z</time>
      </trkpt>
      <trkpt lat="46.12717" lon="7.808">
        <ele>2315</ele>
        <time>2000-01-01T06:04:48.000Z</time>
      </trkpt>
      <trkpt lat="46.1272" lon="7.80803">
        <ele>2320.9</ele>
        <time>2000-01-01T06:04:58.000Z</time>
      </trkpt>
      <trkpt lat="46.12738" lon="7.80797">
        <ele>2319</ele>
        <time>2000-01-01T06:05:08.000Z</time>
      </trkpt>
      <trkpt lat="46.12741" lon="7.80798">
        <ele>2322.6</ele>
        <time>2000-01-01T06:05:18.000Z</time>
      </trkpt>
      <trkpt lat="46.12743" lon="7.80802">
        <ele>2324.4</ele>
        <time>2000-01-01T06:05:28.000Z</time>
      </trkpt>
      <trkpt lat="46.12746" lon="7.80803">
        <ele>2325.3</ele>
        <time>2000-01-01T06:05:38.000Z</time>
      </trkpt>
      <trkpt lat="46.12748" lon="7.80807">
        <ele>2327.3</ele>
        <time>2000-01-01T06:05:48.000Z</time>
      </trkpt>
      <trkpt lat="46.12754" lon="7.80809">
        <ele>2329.1</ele>
        <time>2000-01-01T06:05:58.000Z</time>
      </trkpt>
      <trkpt lat="46.12756" lon="7.80812">
        <ele>2331</ele>
        <time>2000-01-01T06:06:08.000Z</time>
      </trkpt>
      <trkpt lat="46.12761" lon="7.80817">
        <ele>2333.7</ele>
        <time>2000-01-01T06:06:18.000Z</time>
      </trkpt>
      <trkpt lat="46.12767" lon="7.80815">
        <ele>2333.5</ele>
        <time>2000-01-01T06:06:28.000Z</time>
      </trkpt>
      <trkpt lat="46.1277" lon="7.80816">
        <ele>2334.3</ele>
        <time>2000-01-01T06:06:38.000Z</time>
      </trkpt>
      <trkpt lat="46.12772" lon="7.80819">
        <ele>2336.1</ele>
        <time>2000-01-01T06:06:48.000Z</time>
      </trkpt>
      <trkpt lat="46.12775" lon="7.8082">
        <ele>2337</ele>
        <time>2000-01-01T06:06:58.000Z</time>
      </trkpt>
      <trkpt lat="46.12782" lon="7.80825">
        <ele>2339.5</ele>
        <time>2000-01-01T06:07:08.000Z</time>
      </trkpt>
      <trkpt lat="46.12784" lon="7.80829">
        <ele>2341.4</ele>
        <time>2000-01-01T06:07:18.000Z</time>
      </trkpt>
      <trkpt lat="46.12787" lon="7.8083">
        <ele>2341.7</ele>
        <time>2000-01-01T06:07:28.000Z</time>
      </trkpt>
      <trkpt lat="46.12793" lon="7.80835">
        <ele>2343</ele>
        <time>2000-01-01T06:07:38.000Z</time>
      </trkpt>
      <trkpt lat="46.12797" lon="7.80842">
        <ele>2348.8</ele>
        <time>2000-01-01T06:07:48.000Z</time>
      </trkpt>
      <trkpt lat="46.12799" lon="7.80845">
        <ele>2350.8</ele>
        <time>2000-01-01T06:07:58.000Z</time>
      </trkpt>
      <trkpt lat="46.128" lon="7.80849">
        <ele>2353.6</ele>
        <time>2000-01-01T06:08:08.000Z</time>
      </trkpt>
      <trkpt lat="46.12803" lon="7.80851">
        <ele>2354.8</ele>
        <time>2000-01-01T06:08:18.000Z</time>
      </trkpt>
      <trkpt lat="46.12806" lon="7.8085">
        <ele>2354</ele>
        <time>2000-01-01T06:08:28.000Z</time>
      </trkpt>
      <trkpt lat="46.12815" lon="7.8085">
        <ele>2349</ele>
        <time>2000-01-01T06:08:38.000Z</time>
      </trkpt>
      <trkpt lat="46.12821" lon="7.80852">
        <ele>2355.4</ele>
        <time>2000-01-01T06:08:48.000Z</time>
      </trkpt>
      <trkpt lat="46.12823" lon="7.80855">
        <ele>2357.6</ele>
        <time>2000-01-01T06:08:58.000Z</time>
      </trkpt>
      <trkpt lat="46.12826" lon="7.80856">
        <ele>2358.3</ele>
        <time>2000-01-01T06:09:08.000Z</time>
      </trkpt>
      <trkpt lat="46.12825" lon="7.8086">
        <ele>2361.2</ele>
        <time>2000-01-01T06:09:18.000Z</time>
      </trkpt>
      <trkpt lat="46.12819" lon="7.80862">
        <ele>2362</ele>
        <time>2000-01-01T06:09:28.000Z</time>
      </trkpt>
      <trkpt lat="46.12813" lon="7.80868">
        <ele>2364.9</ele>
        <time>2000-01-01T06:09:38.000Z</time>
      </trkpt>
      <trkpt lat="46.1281" lon="7.80869">
        <ele>2365.6</ele>
        <time>2000-01-01T06:09:48.000Z</time>
      </trkpt>
      <trkpt lat="46.12816" lon="7.80872">
        <ele>2366.3</ele>
        <time>2000-01-01T06:09:58.000Z</time>
      </trkpt>
      <trkpt lat="46.12818" lon="7.80875">
        <ele>2366</ele>
        <time>2000-01-01T06:10:08.000Z</time>
      </trkpt>
      <trkpt lat="46.12824" lon="7.80876">
        <ele>2366.7</ele>
        <time>2000-01-01T06:10:18.000Z</time>
      </trkpt>
      <trkpt lat="46.12831" lon="7.80885">
        <ele>2367.7</ele>
        <time>2000-01-01T06:10:28.000Z</time>
      </trkpt>
      <trkpt lat="46.12841" lon="7.80889">
        <ele>2367</ele>
        <time>2000-01-01T06:10:38.000Z</time>
      </trkpt>
      <trkpt lat="46.12847" lon="7.80895">
        <ele>2369.3</ele>
        <time>2000-01-01T06:10:48.000Z</time>
      </trkpt>
      <trkpt lat="46.1285" lon="7.80896">
        <ele>2369.3</ele>
        <time>2000-01-01T06:10:58.000Z</time>
      </trkpt>
      <trkpt lat="46.12852" lon="7.809">
        <ele>2370.2</ele>
        <time>2000-01-01T06:11:08.000Z</time>
      </trkpt>
      <trkpt lat="46.12855" lon="7.80902">
        <ele>2370.2</ele>
        <time>2000-01-01T06:11:18.000Z</time>
      </trkpt>
      <trkpt lat="46.12858" lon="7.8091">
        <ele>2372</ele>
        <time>2000-01-01T06:11:28.000Z</time>
      </trkpt>
      <trkpt lat="46.12859" lon="7.80914">
        <ele>2372.2</ele>
        <time>2000-01-01T06:11:38.000Z</time>
      </trkpt>
      <trkpt lat="46.12862" lon="7.80921">
        <ele>2373.3</ele>
        <time>2000-01-01T06:11:48.000Z</time>
      </trkpt>
      <trkpt lat="46.12863" lon="7.80929">
        <ele>2376.1</ele>
        <time>2000-01-01T06:11:58.000Z</time>
      </trkpt>
      <trkpt lat="46.12863" lon="7.80933">
        <ele>2377.6</ele>
        <time>2000-01-01T06:12:08.000Z</time>
      </trkpt>
      <trkpt lat="46.12864" lon="7.80937">
        <ele>2380</ele>
        <time>2000-01-01T06:12:18.000Z</time>
      </trkpt>
      <trkpt lat="46.12864" lon="7.80942">
        <ele>2381</ele>
        <time>2000-01-01T06:12:28.000Z</time>
      </trkpt>
      <trkpt lat="46.12861" lon="7.80953">
        <ele>2387.3</ele>
        <time>2000-01-01T06:12:38.000Z</time>
      </trkpt>
      <trkpt lat="46.12858" lon="7.80953">
        <ele>2388.1</ele>
        <time>2000-01-01T06:12:48.000Z</time>
      </trkpt>
      <trkpt lat="46.12857" lon="7.80957">
        <ele>2390.7</ele>
        <time>2000-01-01T06:12:58.000Z</time>
      </trkpt>
      <trkpt lat="46.12855" lon="7.8096">
        <ele>2391</ele>
        <time>2000-01-01T06:13:08.000Z</time>
      </trkpt>
      <trkpt lat="46.12856" lon="7.80964">
        <ele>2395.1</ele>
        <time>2000-01-01T06:13:18.000Z</time>
      </trkpt>
      <trkpt lat="46.12853" lon="7.80967">
        <ele>2397.5</ele>
        <time>2000-01-01T06:13:28.000Z</time>
      </trkpt>
      <trkpt lat="46.12856" lon="7.8097">
        <ele>2398.6</ele>
        <time>2000-01-01T06:13:38.000Z</time>
      </trkpt>
      <trkpt lat="46.12854" lon="7.80974">
        <ele>2401.1</ele>
        <time>2000-01-01T06:13:48.000Z</time>
      </trkpt>
      <trkpt lat="46.12855" lon="7.80978">
        <ele>2402.9</ele>
        <time>2000-01-01T06:13:58.000Z</time>
      </trkpt>
      <trkpt lat="46.1286" lon="7.80981">
        <ele>2405</ele>
        <time>2000-01-01T06:14:08.000Z</time>
      </trkpt>
      <trkpt lat="46.12862" lon="7.80979">
        <ele>2402.3</ele>
        <time>2000-01-01T06:14:18.000Z</time>
      </trkpt>
      <trkpt lat="46.12865" lon="7.80981">
        <ele>2402.9</ele>
        <time>2000-01-01T06:14:28.000Z</time>
      </trkpt>
      <trkpt lat="46.12866" lon="7.80986">
        <ele>2405.3</ele>
        <time>2000-01-01T06:14:38.000Z</time>
      </trkpt>
      <trkpt lat="46.12869" lon="7.80989">
        <ele>2406.5</ele>
        <time>2000-01-01T06:14:48.000Z</time>
      </trkpt>
      <trkpt lat="46.12873" lon="7.80996">
        <ele>2409</ele>
        <time>2000-01-01T06:14:58.000Z</time>
      </trkpt>
      <trkpt lat="46.12872" lon="7.81">
        <ele>2411.8</ele>
        <time>2000-01-01T06:15:08.000Z</time>
      </trkpt>
      <trkpt lat="46.12877" lon="7.81015">
        <ele>2419.7</ele>
        <time>2000-01-01T06:15:18.000Z</time>
      </trkpt>
      <trkpt lat="46.12879" lon="7.81018">
        <ele>2421.2</ele>
        <time>2000-01-01T06:15:28.000Z</time>
      </trkpt>
      <trkpt lat="46.12883" lon="7.81022">
        <ele>2424</ele>
        <time>2000-01-01T06:15:38.000Z</time>
      </trkpt>
      <trkpt lat="46.12885" lon="7.81025">
        <ele>2424.7</ele>
        <time>2000-01-01T06:15:48.000Z</time>
      </trkpt>
      <trkpt lat="46.12887" lon="7.81029">
        <ele>2426.9</ele>
        <time>2000-01-01T06:15:58.000Z</time>
      </trkpt>
      <trkpt lat="46.12889" lon="7.81032">
        <ele>2428.6</ele>
        <time>2000-01-01T06:16:08.000Z</time>
      </trkpt>
      <trkpt lat="46.12897" lon="7.81032">
        <ele>2428.2</ele>
        <time>2000-01-01T06:16:18.000Z</time>
      </trkpt>
      <trkpt lat="46.12903" lon="7.81034">
        <ele>2428</ele>
        <time>2000-01-01T06:16:28.000Z</time>
      </trkpt>
      <trkpt lat="46.12908" lon="7.81039">
        <ele>2431.3</ele>
        <time>2000-01-01T06:16:38.000Z</time>
      </trkpt>
      <trkpt lat="46.12913" lon="7.81043">
        <ele>2433</ele>
        <time>2000-01-01T06:16:48.000Z</time>
      </trkpt>
      <trkpt lat="46.12926" lon="7.81049">
        <ele>2431</ele>
        <time>2000-01-01T06:16:58.000Z</time>
      </trkpt>
      <trkpt lat="46.12929" lon="7.81049">
        <ele>2434.4</ele>
        <time>2000-01-01T06:17:08.000Z</time>
      </trkpt>
      <trkpt lat="46.12932" lon="7.81052">
        <ele>2435.6</ele>
        <time>2000-01-01T06:17:18.000Z</time>
      </trkpt>
      <trkpt lat="46.12936" lon="7.81057">
        <ele>2437.4</ele>
        <time>2000-01-01T06:17:28.000Z</time>
      </trkpt>
      <trkpt lat="46.12945" lon="7.81063">
        <ele>2438</ele>
        <time>2000-01-01T06:17:38.000Z</time>
      </trkpt>
      <trkpt lat="46.12942" lon="7.81065">
        <ele>2439.7</ele>
        <time>2000-01-01T06:17:48.000Z</time>
      </trkpt>
      <trkpt lat="46.12936" lon="7.81067">
        <ele>2441</ele>
        <time>2000-01-01T06:17:58.000Z</time>
      </trkpt>
      <trkpt lat="46.12935" lon="7.81071">
        <ele>2442.6</ele>
        <time>2000-01-01T06:18:08.000Z</time>
      </trkpt>
      <trkpt lat="46.12935" lon="7.81075">
        <ele>2444</ele>
        <time>2000-01-01T06:18:18.000Z</time>
      </trkpt>
      <trkpt lat="46.12937" lon="7.8108">
        <ele>2444</ele>
        <time>2000-01-01T06:18:28.000Z</time>
      </trkpt>
      <trkpt lat="46.1294" lon="7.81083">
        <ele>2446.4</ele>
        <time>2000-01-01T06:18:38.000Z</time>
      </trkpt>
      <trkpt lat="46.12941" lon="7.81091">
        <ele>2448.4</ele>
        <time>2000-01-01T06:18:48.000Z</time>
      </trkpt>
      <trkpt lat="46.12943" lon="7.81094">
        <ele>2448.9</ele>
        <time>2000-01-01T06:18:58.000Z</time>
      </trkpt>
      <trkpt lat="46.12944" lon="7.81098">
        <ele>2449.8</ele>
        <time>2000-01-01T06:19:08.000Z</time>
      </trkpt>
      <trkpt lat="46.12945" lon="7.81106">
        <ele>2452</ele>
        <time>2000-01-01T06:19:18.000Z</time>
      </trkpt>
      <trkpt lat="46.12947" lon="7.81111">
        <ele>2451.7</ele>
        <time>2000-01-01T06:19:28.000Z</time>
      </trkpt>
      <trkpt lat="46.12947" lon="7.81116">
        <ele>2452.3</ele>
        <time>2000-01-01T06:19:38.000Z</time>
      </trkpt>
      <trkpt lat="46.12947" lon="7.81122">
        <ele>2453.1</ele>
        <time>2000-01-01T06:19:48.000Z</time>
      </trkpt>
      <trkpt lat="46.12944" lon="7.81124">
        <ele>2455</ele>
        <time>2000-01-01T06:19:58.000Z</time>
      </trkpt>
      <trkpt lat="46.12938" lon="7.81126">
        <ele>2460</ele>
        <time>2000-01-01T06:20:08.000Z</time>
      </trkpt>
      <trkpt lat="46.12932" lon="7.81131">
        <ele>2460.5</ele>
        <time>2000-01-01T06:20:18.000Z</time>
      </trkpt>
      <trkpt lat="46.1293" lon="7.81134">
        <ele>2462</ele>
        <time>2000-01-01T06:20:28.000Z</time>
      </trkpt>
      <trkpt lat="46.12929" lon="7.81138">
        <ele>2463.4</ele>
        <time>2000-01-01T06:20:38.000Z</time>
      </trkpt>
      <trkpt lat="46.1293" lon="7.81147">
        <ele>2467</ele>
        <time>2000-01-01T06:20:48.000Z</time>
      </trkpt>
      <trkpt lat="46.1293" lon="7.81151">
        <ele>2467.5</ele>
        <time>2000-01-01T06:20:58.000Z</time>
      </trkpt>
      <trkpt lat="46.12931" lon="7.8116">
        <ele>2469.9</ele>
        <time>2000-01-01T06:21:08.000Z</time>
      </trkpt>
      <trkpt lat="46.12932" lon="7.81164">
        <ele>2470.4</ele>
        <time>2000-01-01T06:21:18.000Z</time>
      </trkpt>
      <trkpt lat="46.12932" lon="7.81168">
        <ele>2471.9</ele>
        <time>2000-01-01T06:21:28.000Z</time>
      </trkpt>
      <trkpt lat="46.1293" lon="7.81171">
        <ele>2475.1</ele>
        <time>2000-01-01T06:21:38.000Z</time>
      </trkpt>
      <trkpt lat="46.12931" lon="7.81176">
        <ele>2479</ele>
        <time>2000-01-01T06:21:48.000Z</time>
      </trkpt>
      <trkpt lat="46.1293" lon="7.8118">
        <ele>2479.4</ele>
        <time>2000-01-01T06:21:58.000Z</time>
      </trkpt>
      <trkpt lat="46.12931" lon="7.81185">
        <ele>2481</ele>
        <time>2000-01-01T06:22:08.000Z</time>
      </trkpt>
      <trkpt lat="46.12933" lon="7.81189">
        <ele>2481.3</ele>
        <time>2000-01-01T06:22:18.000Z</time>
      </trkpt>
      <trkpt lat="46.12935" lon="7.8119">
        <ele>2480</ele>
        <time>2000-01-01T06:22:28.000Z</time>
      </trkpt>
      <trkpt lat="46.12937" lon="7.81203">
        <ele>2484</ele>
        <time>2000-01-01T06:22:38.000Z</time>
      </trkpt>
      <trkpt lat="46.12939" lon="7.81207">
        <ele>2484</ele>
        <time>2000-01-01T06:22:48.000Z</time>
      </trkpt>
      <trkpt lat="46.12945" lon="7.81213">
        <ele>2481.7</ele>
        <time>2000-01-01T06:22:58.000Z</time>
      </trkpt>
      <trkpt lat="46.12944" lon="7.81221">
        <ele>2485.8</ele>
        <time>2000-01-01T06:23:08.000Z</time>
      </trkpt>
      <trkpt lat="46.12947" lon="7.8123">
        <ele>2489</ele>
        <time>2000-01-01T06:23:18.000Z</time>
      </trkpt>
      <trkpt lat="46.12949" lon="7.81238">
        <ele>2490.1</ele>
        <time>2000-01-01T06:23:28.000Z</time>
      </trkpt>
      <trkpt lat="46.12952" lon="7.81242">
        <ele>2490.3</ele>
        <time>2000-01-01T06:23:38.000Z</time>
      </trkpt>
      <trkpt lat="46.12953" lon="7.81246">
        <ele>2491.4</ele>
        <time>2000-01-01T06:23:48.000Z</time>
      </trkpt>
      <trkpt lat="46.12952" lon="7.81251">
        <ele>2493.5</ele>
        <time>2000-01-01T06:23:58.000Z</time>
      </trkpt>
      <trkpt lat="46.12944" lon="7.81265">
        <ele>2504</ele>
        <time>2000-01-01T06:24:08.000Z</time>
      </trkpt>
      <trkpt lat="46.12942" lon="7.81268">
        <ele>2500.3</ele>
        <time>2000-01-01T06:24:18.000Z</time>
      </trkpt>
      <trkpt lat="46.1294" lon="7.81265">
        <ele>2501.6</ele>
        <time>2000-01-01T06:24:28.000Z</time>
      </trkpt>
      <trkpt lat="46.12939" lon="7.81262">
        <ele>2502</ele>
        <time>2000-01-01T06:24:38.000Z</time>
      </trkpt>
      <trkpt lat="46.12937" lon="7.81265">
        <ele>2503.9</ele>
        <time>2000-01-01T06:24:48.000Z</time>
      </trkpt>
      <trkpt lat="46.12934" lon="7.81264">
        <ele>2506.1</ele>
        <time>2000-01-01T06:24:58.000Z</time>
      </trkpt>
      <trkpt lat="46.12932" lon="7.81261">
        <ele>2507</ele>
        <time>2000-01-01T06:25:08.000Z</time>
      </trkpt>
      <trkpt lat="46.1293" lon="7.81259">
        <ele>2514</ele>
        <time>2000-01-01T06:25:18.000Z</time>
      </trkpt>
      <trkpt lat="46.12926" lon="7.81259">
        <ele>2510.9</ele>
        <time>2000-01-01T06:25:28.000Z</time>
      </trkpt>
      <trkpt lat="46.12921" lon="7.81258">
        <ele>2514.1</ele>
        <time>2000-01-01T06:25:38.000Z</time>
      </trkpt>
      <trkpt lat="46.12919" lon="7.81255">
        <ele>2514.4</ele>
        <time>2000-01-01T06:25:48.000Z</time>
      </trkpt>
      <trkpt lat="46.12913" lon="7.81252">
        <ele>2517.3</ele>
        <time>2000-01-01T06:25:58.000Z</time>
      </trkpt>
      <trkpt lat="46.12909" lon="7.81245">
        <ele>2524</ele>
        <time>2000-01-01T06:26:08.000Z</time>
      </trkpt>
      <trkpt lat="46.12907" lon="7.81241">
        <ele>2518.1</ele>
        <time>2000-01-01T06:26:18.000Z</time>
      </trkpt>
      <trkpt lat="46.12905" lon="7.81239">
        <ele>2518.8</ele>
        <time>2000-01-01T06:26:28.000Z</time>
      </trkpt>
      <trkpt lat="46.12899" lon="7.81237">
        <ele>2521.8</ele>
        <time>2000-01-01T06:26:38.000Z</time>
      </trkpt>
      <trkpt lat="46.12893" lon="7.81233">
        <ele>2523.9</ele>
        <time>2000-01-01T06:26:48.000Z</time>
      </trkpt>
      <trkpt lat="46.12885" lon="7.81229">
        <ele>2524</ele>
        <time>2000-01-01T06:26:58.000Z</time>
      </trkpt>
      <trkpt lat="46.12882" lon="7.81228">
        <ele>2526.1</ele>
        <time>2000-01-01T06:27:08.000Z</time>
      </trkpt>
      <trkpt lat="46.12876" lon="7.81229">
        <ele>2528</ele>
        <time>2000-01-01T06:27:18.000Z</time>
      </trkpt>
      <trkpt lat="46.12873" lon="7.81232">
        <ele>2530.1</ele>
        <time>2000-01-01T06:27:28.000Z</time>
      </trkpt>
      <trkpt lat="46.12872" lon="7.81235">
        <ele>2531.6</ele>
        <time>2000-01-01T06:27:38.000Z</time>
      </trkpt>
      <trkpt lat="46.12873" lon="7.8124">
        <ele>2533.4</ele>
        <time>2000-01-01T06:27:48.000Z</time>
      </trkpt>
      <trkpt lat="46.12876" lon="7.81247">
        <ele>2536</ele>
        <time>2000-01-01T06:27:58.000Z</time>
      </trkpt>
      <trkpt lat="46.1288" lon="7.81253">
        <ele>2537.1</ele>
        <time>2000-01-01T06:28:08.000Z</time>
      </trkpt>
      <trkpt lat="46.12877" lon="7.81254">
        <ele>2538.5</ele>
        <time>2000-01-01T06:28:18.000Z</time>
      </trkpt>
      <trkpt lat="46.12874" lon="7.81254">
        <ele>2539.3</ele>
        <time>2000-01-01T06:28:28.000Z</time>
      </trkpt>
      <trkpt lat="46.12872" lon="7.81255">
        <ele>2540.3</ele>
        <time>2000-01-01T06:28:38.000Z</time>
      </trkpt>
      <trkpt lat="46.12872" lon="7.81259">
        <ele>2542.3</ele>
        <time>2000-01-01T06:28:48.000Z</time>
      </trkpt>
      <trkpt lat="46.12869" lon="7.81259">
        <ele>2542</ele>
        <time>2000-01-01T06:28:58.000Z</time>
      </trkpt>
      <trkpt lat="46.12868" lon="7.81264">
        <ele>2545.6</ele>
        <time>2000-01-01T06:29:08.000Z</time>
      </trkpt>
      <trkpt lat="46.12868" lon="7.81268">
        <ele>2547.4</ele>
        <time>2000-01-01T06:29:18.000Z</time>
      </trkpt>
      <trkpt lat="46.12865" lon="7.81271">
        <ele>2549.4</ele>
        <time>2000-01-01T06:29:28.000Z</time>
      </trkpt>
      <trkpt lat="46.12864" lon="7.81274">
        <ele>2550.9</ele>
        <time>2000-01-01T06:29:38.000Z</time>
      </trkpt>
      <trkpt lat="46.12861" lon="7.81277">
        <ele>2552.7</ele>
        <time>2000-01-01T06:29:48.000Z</time>
      </trkpt>
      <trkpt lat="46.12833" lon="7.81276">
        <ele>2552</ele>
        <time>2000-01-01T06:29:58.000Z</time>
      </trkpt>
      <trkpt lat="46.12824" lon="7.81279">
        <ele>2551.6</ele>
        <time>2000-01-01T06:30:08.000Z</time>
      </trkpt>
      <trkpt lat="46.12821" lon="7.81279">
        <ele>2551.7</ele>
        <time>2000-01-01T06:30:18.000Z</time>
      </trkpt>
      <trkpt lat="46.12815" lon="7.81283">
        <ele>2555</ele>
        <time>2000-01-01T06:30:28.000Z</time>
      </trkpt>
      <trkpt lat="46.12811" lon="7.81283">
        <ele>2552.8</ele>
        <time>2000-01-01T06:30:38.000Z</time>
      </trkpt>
      <trkpt lat="46.12808" lon="7.81282">
        <ele>2552.7</ele>
        <time>2000-01-01T06:30:48.000Z</time>
      </trkpt>
      <trkpt lat="46.12802" lon="7.81286">
        <ele>2553.5</ele>
        <time>2000-01-01T06:30:58.000Z</time>
      </trkpt>
      <trkpt lat="46.12805" lon="7.81295">
        <ele>2558</ele>
        <time>2000-01-01T06:31:08.000Z</time>
      </trkpt>
      <trkpt lat="46.12802" lon="7.81297">
        <ele>2555.6</ele>
        <time>2000-01-01T06:31:18.000Z</time>
      </trkpt>
      <trkpt lat="46.12801" lon="7.81302">
        <ele>2556.6</ele>
        <time>2000-01-01T06:31:28.000Z</time>
      </trkpt>
      <trkpt lat="46.12797" lon="7.81304">
        <ele>2557.3</ele>
        <time>2000-01-01T06:31:38.000Z</time>
      </trkpt>
      <trkpt lat="46.12794" lon="7.81304">
        <ele>2557.5</ele>
        <time>2000-01-01T06:31:48.000Z</time>
      </trkpt>
      <trkpt lat="46.12792" lon="7.81308">
        <ele>2558.7</ele>
        <time>2000-01-01T06:31:58.000Z</time>
      </trkpt>
      <trkpt lat="46.12792" lon="7.81317">
        <ele>2562</ele>
        <time>2000-01-01T06:32:08.000Z</time>
      </trkpt>
      <trkpt lat="46.1279" lon="7.81326">
        <ele>2564</ele>
        <time>2000-01-01T06:32:18.000Z</time>
      </trkpt>
      <trkpt lat="46.12789" lon="7.81331">
        <ele>2565.5</ele>
        <time>2000-01-01T06:32:28.000Z</time>
      </trkpt>
      <trkpt lat="46.1279" lon="7.81335">
        <ele>2566.7</ele>
        <time>2000-01-01T06:32:38.000Z</time>
      </trkpt>
      <trkpt lat="46.12787" lon="7.81336">
        <ele>2567.2</ele>
        <time>2000-01-01T06:32:48.000Z</time>
      </trkpt>
      <trkpt lat="46.12778" lon="7.81349">
        <ele>2572</ele>
        <time>2000-01-01T06:32:58.000Z</time>
      </trkpt>
      <trkpt lat="46.12775" lon="7.81351">
        <ele>2573.3</ele>
        <time>2000-01-01T06:33:08.000Z</time>
      </trkpt>
      <trkpt lat="46.12763" lon="7.81348">
        <ele>2574.4</ele>
        <time>2000-01-01T06:33:18.000Z</time>
      </trkpt>
      <trkpt lat="46.12764" lon="7.81352">
        <ele>2577</ele>
        <time>2000-01-01T06:33:28.000Z</time>
      </trkpt>
      <trkpt lat="46.12768" lon="7.81358">
        <ele>2577</ele>
        <time>2000-01-01T06:33:38.000Z</time>
      </trkpt>
      <trkpt lat="46.12773" lon="7.81364">
        <ele>2578.2</ele>
        <time>2000-01-01T06:33:48.000Z</time>
      </trkpt>
      <trkpt lat="46.12775" lon="7.81366">
        <ele>2578.6</ele>
        <time>2000-01-01T06:33:58.000Z</time>
      </trkpt>
      <trkpt lat="46.12782" lon="7.81368">
        <ele>2577</ele>
        <time>2000-01-01T06:34:08.000Z</time>
      </trkpt>
      <trkpt lat="46.12787" lon="7.81371">
        <ele>2579.3</ele>
        <time>2000-01-01T06:34:18.000Z</time>
      </trkpt>
      <trkpt lat="46.12791" lon="7.81374">
        <ele>2580.2</ele>
        <time>2000-01-01T06:34:28.000Z</time>
      </trkpt>
      <trkpt lat="46.12788" lon="7.81372">
        <ele>2579.7</ele>
        <time>2000-01-01T06:34:38.000Z</time>
      </trkpt>
      <trkpt lat="46.12785" lon="7.81372">
        <ele>2579.8</ele>
        <time>2000-01-01T06:34:48.000Z</time>
      </trkpt>
      <trkpt lat="46.12779" lon="7.81376">
        <ele>2581</ele>
        <time>2000-01-01T06:34:58.000Z</time>
      </trkpt>
      <trkpt lat="46.12773" lon="7.81374">
        <ele>2582.2</ele>
        <time>2000-01-01T06:35:08.000Z</time>
      </trkpt>
      <trkpt lat="46.12765" lon="7.81374">
        <ele>2584.1</ele>
        <time>2000-01-01T06:35:18.000Z</time>
      </trkpt>
      <trkpt lat="46.12762" lon="7.81373">
        <ele>2584.4</ele>
        <time>2000-01-01T06:35:28.000Z</time>
      </trkpt>
      <trkpt lat="46.12755" lon="7.81369">
        <ele>2584</ele>
        <time>2000-01-01T06:35:38.000Z</time>
      </trkpt>
      <trkpt lat="46.1275" lon="7.81367">
        <ele>2584.5</ele>
        <time>2000-01-01T06:35:48.000Z</time>
      </trkpt>
      <trkpt lat="46.12747" lon="7.81366">
        <ele>2584.7</ele>
        <time>2000-01-01T06:35:58.000Z</time>
      </trkpt>
      <trkpt lat="46.1274" lon="7.81365">
        <ele>2585.8</ele>
        <time>2000-01-01T06:36:08.000Z</time>
      </trkpt>
      <trkpt lat="46.12727" lon="7.81367">
        <ele>2588</ele>
        <time>2000-01-01T06:36:18.000Z</time>
      </trkpt>
      <trkpt lat="46.12718" lon="7.81366">
        <ele>2590.6</ele>
        <time>2000-01-01T06:36:28.000Z</time>
      </trkpt>
      <trkpt lat="46.12712" lon="7.81364">
        <ele>2590.9</ele>
        <time>2000-01-01T06:36:38.000Z</time>
      </trkpt>
      <trkpt lat="46.12692" lon="7.81362">
        <ele>2588</ele>
        <time>2000-01-01T06:36:48.000Z</time>
      </trkpt>
      <trkpt lat="46.12678" lon="7.81365">
        <ele>2594.1</ele>
        <time>2000-01-01T06:36:58.000Z</time>
      </trkpt>
      <trkpt lat="46.12668" lon="7.81368">
        <ele>2589</ele>
        <time>2000-01-01T06:37:08.000Z</time>
      </trkpt>
      <trkpt lat="46.12665" lon="7.81371">
        <ele>2594.7</ele>
        <time>2000-01-01T06:37:18.000Z</time>
      </trkpt>
      <trkpt lat="46.12654" lon="7.81385">
        <ele>2593.8</ele>
        <time>2000-01-01T06:37:28.000Z</time>
      </trkpt>
      <trkpt lat="46.12647" lon="7.81393">
        <ele>2592</ele>
        <time>2000-01-01T06:37:38.000Z</time>
      </trkpt>
      <trkpt lat="46.12631" lon="7.81418">
        <ele>2590</ele>
        <time>2000-01-01T06:37:48.000Z</time>
      </trkpt>
      <trkpt lat="46.12615" lon="7.81437">
        <ele>2591</ele>
        <time>2000-01-01T06:37:58.000Z</time>
      </trkpt>
      <trkpt lat="46.12613" lon="7.8144">
        <ele>2593.3</ele>
        <time>2000-01-01T06:38:08.000Z</time>
      </trkpt>
      <trkpt lat="46.12607" lon="7.81456">
        <ele>2594.8</ele>
        <time>2000-01-01T06:38:18.000Z</time>
      </trkpt>
      <trkpt lat="46.12605" lon="7.81465">
        <ele>2593</ele>
        <time>2000-01-01T06:38:28.000Z</time>
      </trkpt>
      <trkpt lat="46.126" lon="7.81477">
        <ele>2596.2</ele>
        <time>2000-01-01T06:38:38.000Z</time>
      </trkpt>
      <trkpt lat="46.12593" lon="7.81492">
        <ele>2592</ele>
        <time>2000-01-01T06:38:48.000Z</time>
      </trkpt>
      <trkpt lat="46.12588" lon="7.81503">
        <ele>2595.4</ele>
        <time>2000-01-01T06:38:58.000Z</time>
      </trkpt>
      <trkpt lat="46.12576" lon="7.81521">
        <ele>2592</ele>
        <time>2000-01-01T06:39:08.000Z</time>
      </trkpt>
      <trkpt lat="46.12575" lon="7.81525">
        <ele>2595.6</ele>
        <time>2000-01-01T06:39:18.000Z</time>
      </trkpt>
      <trkpt lat="46.12573" lon="7.81527">
        <ele>2595.2</ele>
        <time>2000-01-01T06:39:28.000Z</time>
      </trkpt>
      <trkpt lat="46.12567" lon="7.81533">
        <ele>2594.2</ele>
        <time>2000-01-01T06:39:38.000Z</time>
      </trkpt>
      <trkpt lat="46.12563" lon="7.8154">
        <ele>2591</ele>
        <time>2000-01-01T06:39:48.000Z</time>
      </trkpt>
      <trkpt lat="46.12555" lon="7.81548">
        <ele>2593.7</ele>
        <time>2000-01-01T06:39:58.000Z</time>
      </trkpt>
      <trkpt lat="46.12552" lon="7.81552">
        <ele>2593.4</ele>
        <time>2000-01-01T06:40:08.000Z</time>
      </trkpt>
      <trkpt lat="46.12546" lon="7.81564">
        <ele>2591</ele>
        <time>2000-01-01T06:40:18.000Z</time>
      </trkpt>
      <trkpt lat="46.12541" lon="7.8157">
        <ele>2593.8</ele>
        <time>2000-01-01T06:40:28.000Z</time>
      </trkpt>
      <trkpt lat="46.1254" lon="7.81574">
        <ele>2594.7</ele>
        <time>2000-01-01T06:40:38.000Z</time>
      </trkpt>
      <trkpt lat="46.12539" lon="7.8158">
        <ele>2596.4</ele>
        <time>2000-01-01T06:40:48.000Z</time>
      </trkpt>
      <trkpt lat="46.12537" lon="7.81585">
        <ele>2596.8</ele>
        <time>2000-01-01T06:40:58.000Z</time>
      </trkpt>
      <trkpt lat="46.12531" lon="7.81592">
        <ele>2593</ele>
        <time>2000-01-01T06:41:08.000Z</time>
      </trkpt>
      <trkpt lat="46.12529" lon="7.81595">
        <ele>2594.2</ele>
        <time>2000-01-01T06:41:18.000Z</time>
      </trkpt>
      <trkpt lat="46.12527" lon="7.81605">
        <ele>2595.6</ele>
        <time>2000-01-01T06:41:28.000Z</time>
      </trkpt>
      <trkpt lat="46.12521" lon="7.81618">
        <ele>2593</ele>
        <time>2000-01-01T06:41:38.000Z</time>
      </trkpt>
      <trkpt lat="46.12519" lon="7.81621">
        <ele>2594.5</ele>
        <time>2000-01-01T06:41:48.000Z</time>
      </trkpt>
      <trkpt lat="46.12515" lon="7.81629">
        <ele>2594.7</ele>
        <time>2000-01-01T06:41:58.000Z</time>
      </trkpt>
      <trkpt lat="46.12505" lon="7.81641">
        <ele>2593</ele>
        <time>2000-01-01T06:42:08.000Z</time>
      </trkpt>
      <trkpt lat="46.12501" lon="7.81655">
        <ele>2597.7</ele>
        <time>2000-01-01T06:42:18.000Z</time>
      </trkpt>
      <trkpt lat="46.12494" lon="7.81666">
        <ele>2594</ele>
        <time>2000-01-01T06:42:28.000Z</time>
      </trkpt>
      <trkpt lat="46.12491" lon="7.81669">
        <ele>2599.5</ele>
        <time>2000-01-01T06:42:38.000Z</time>
      </trkpt>
      <trkpt lat="46.12488" lon="7.81671">
        <ele>2598.8</ele>
        <time>2000-01-01T06:42:48.000Z</time>
      </trkpt>
      <trkpt lat="46.12486" lon="7.81674">
        <ele>2599.1</ele>
        <time>2000-01-01T06:42:58.000Z</time>
      </trkpt>
      <trkpt lat="46.12484" lon="7.81679">
        <ele>2600.2</ele>
        <time>2000-01-01T06:43:08.000Z</time>
      </trkpt>
      <trkpt lat="46.12477" lon="7.81688">
        <ele>2595</ele>
        <time>2000-01-01T06:43:18.000Z</time>
      </trkpt>
      <trkpt lat="46.12472" lon="7.81696">
        <ele>2600.6</ele>
        <time>2000-01-01T06:43:28.000Z</time>
      </trkpt>
      <trkpt lat="46.1246" lon="7.81712">
        <ele>2599</ele>
        <time>2000-01-01T06:43:38.000Z</time>
      </trkpt>
      <trkpt lat="46.12456" lon="7.81719">
        <ele>2604.3</ele>
        <time>2000-01-01T06:43:48.000Z</time>
      </trkpt>
      <trkpt lat="46.12447" lon="7.81726">
        <ele>2603.9</ele>
        <time>2000-01-01T06:43:58.000Z</time>
      </trkpt>
      <trkpt lat="46.12444" lon="7.8173">
        <ele>2600</ele>
        <time>2000-01-01T06:44:08.000Z</time>
      </trkpt>
      <trkpt lat="46.12429" lon="7.81752">
        <ele>2601</ele>
        <time>2000-01-01T06:44:18.000Z</time>
      </trkpt>
      <trkpt lat="46.12422" lon="7.81753">
        <ele>2603.3</ele>
        <time>2000-01-01T06:44:28.000Z</time>
      </trkpt>
      <trkpt lat="46.12415" lon="7.81758">
        <ele>2602.5</ele>
        <time>2000-01-01T06:44:38.000Z</time>
      </trkpt>
      <trkpt lat="46.12399" lon="7.81773">
        <ele>2602</ele>
        <time>2000-01-01T06:44:48.000Z</time>
      </trkpt>
      <trkpt lat="46.12393" lon="7.81781">
        <ele>2604.8</ele>
        <time>2000-01-01T06:44:58.000Z</time>
      </trkpt>
      <trkpt lat="46.12389" lon="7.81788">
        <ele>2605.7</ele>
        <time>2000-01-01T06:45:08.000Z</time>
      </trkpt>
      <trkpt lat="46.12387" lon="7.81793">
        <ele>2606.9</ele>
        <time>2000-01-01T06:45:18.000Z</time>
      </trkpt>
      <trkpt lat="46.12383" lon="7.81797">
        <ele>2604</ele>
        <time>2000-01-01T06:45:28.000Z</time>
      </trkpt>
      <trkpt lat="46.1238" lon="7.81798">
        <ele>2606.6</ele>
        <time>2000-01-01T06:45:38.000Z</time>
      </trkpt>
      <trkpt lat="46.12374" lon="7.818">
        <ele>2605.6</ele>
        <time>2000-01-01T06:45:48.000Z</time>
      </trkpt>
      <trkpt lat="46.12364" lon="7.81806">
        <ele>2603</ele>
        <time>2000-01-01T06:45:58.000Z</time>
      </trkpt>
      <trkpt lat="46.12344" lon="7.81809">
        <ele>2603</ele>
        <time>2000-01-01T06:46:08.000Z</time>
      </trkpt>
      <trkpt lat="46.12338" lon="7.81813">
        <ele>2603.8</ele>
        <time>2000-01-01T06:46:18.000Z</time>
      </trkpt>
      <trkpt lat="46.1233" lon="7.81816">
        <ele>2604.3</ele>
        <time>2000-01-01T06:46:28.000Z</time>
      </trkpt>
      <trkpt lat="46.1232" lon="7.81817">
        <ele>2604</ele>
        <time>2000-01-01T06:46:38.000Z</time>
      </trkpt>
      <trkpt lat="46.12314" lon="7.81819">
        <ele>2604.4</ele>
        <time>2000-01-01T06:46:48.000Z</time>
      </trkpt>
      <trkpt lat="46.12307" lon="7.8182">
        <ele>2604.3</ele>
        <time>2000-01-01T06:46:58.000Z</time>
      </trkpt>
      <trkpt lat="46.12301" lon="7.81821">
        <ele>2604</ele>
        <time>2000-01-01T06:47:08.000Z</time>
      </trkpt>
      <trkpt lat="46.12298" lon="7.81824">
        <ele>2606.1</ele>
        <time>2000-01-01T06:47:18.000Z</time>
      </trkpt>
      <trkpt lat="46.12295" lon="7.81825">
        <ele>2606.5</ele>
        <time>2000-01-01T06:47:28.000Z</time>
      </trkpt>
      <trkpt lat="46.12291" lon="7.81825">
        <ele>2606.5</ele>
        <time>2000-01-01T06:47:38.000Z</time>
      </trkpt>
      <trkpt lat="46.12286" lon="7.8182">
        <ele>2604.9</ele>
        <time>2000-01-01T06:47:48.000Z</time>
      </trkpt>
      <trkpt lat="46.12286" lon="7.81816">
        <ele>2604</ele>
        <time>2000-01-01T06:47:58.000Z</time>
      </trkpt>
      <trkpt lat="46.12285" lon="7.81813">
        <ele>2602.6</ele>
        <time>2000-01-01T06:48:08.000Z</time>
      </trkpt>
      <trkpt lat="46.12282" lon="7.81811">
        <ele>2602.2</ele>
        <time>2000-01-01T06:48:18.000Z</time>
      </trkpt>
      <trkpt lat="46.12281" lon="7.81807">
        <ele>2601.1</ele>
        <time>2000-01-01T06:48:28.000Z</time>
      </trkpt>
      <trkpt lat="46.12278" lon="7.81805">
        <ele>2600.8</ele>
        <time>2000-01-01T06:48:38.000Z</time>
      </trkpt>
      <trkpt lat="46.12272" lon="7.81794">
        <ele>2603</ele>
        <time>2000-01-01T06:48:48.000Z</time>
      </trkpt>
      <trkpt lat="46.12264" lon="7.81787">
        <ele>2598.5</ele>
        <time>2000-01-01T06:48:58.000Z</time>
      </trkpt>
      <trkpt lat="46.12252" lon="7.81781">
        <ele>2603</ele>
        <time>2000-01-01T06:49:08.000Z</time>
      </trkpt>
      <trkpt lat="46.12249" lon="7.81778">
        <ele>2597.5</ele>
        <time>2000-01-01T06:49:18.000Z</time>
      </trkpt>
      <trkpt lat="46.12248" lon="7.81775">
        <ele>2596.6</ele>
        <time>2000-01-01T06:49:28.000Z</time>
      </trkpt>
      <trkpt lat="46.12247" lon="7.8177">
        <ele>2594.7</ele>
        <time>2000-01-01T06:49:38.000Z</time>
      </trkpt>
      <trkpt lat="46.12243" lon="7.81768">
        <ele>2595.2</ele>
        <time>2000-01-01T06:49:48.000Z</time>
      </trkpt>
      <trkpt lat="46.12231" lon="7.81764">
        <ele>2601</ele>
        <time>2000-01-01T06:49:58.000Z</time>
      </trkpt>
      <trkpt lat="46.12226" lon="7.81761">
        <ele>2597.2</ele>
        <time>2000-01-01T06:50:08.000Z</time>
      </trkpt>
      <trkpt lat="46.12221" lon="7.81756">
        <ele>2595.7</ele>
        <time>2000-01-01T06:50:18.000Z</time>
      </trkpt>
      <trkpt lat="46.12216" lon="7.8175">
        <ele>2595</ele>
        <time>2000-01-01T06:50:28.000Z</time>
      </trkpt>
      <trkpt lat="46.12212" lon="7.81749">
        <ele>2594.1</ele>
        <time>2000-01-01T06:50:38.000Z</time>
      </trkpt>
      <trkpt lat="46.12208" lon="7.81746">
        <ele>2594</ele>
        <time>2000-01-01T06:50:48.000Z</time>
      </trkpt>
      <trkpt lat="46.12202" lon="7.81739">
        <ele>2593.5</ele>
        <time>2000-01-01T06:50:58.000Z</time>
      </trkpt>
      <trkpt lat="46.12196" lon="7.81726">
        <ele>2595</ele>
        <time>2000-01-01T06:51:08.000Z</time>
      </trkpt>
      <trkpt lat="46.12196" lon="7.81716">
        <ele>2589.6</ele>
        <time>2000-01-01T06:51:18.000Z</time>
      </trkpt>
      <trkpt lat="46.12194" lon="7.81712">
        <ele>2589.6</ele>
        <time>2000-01-01T06:51:28.000Z</time>
      </trkpt>
      <trkpt lat="46.12195" lon="7.81701">
        <ele>2586.3</ele>
        <time>2000-01-01T06:51:38.000Z</time>
      </trkpt>
      <trkpt lat="46.12195" lon="7.81697">
        <ele>2583</ele>
        <time>2000-01-01T06:51:48.000Z</time>
      </trkpt>
      <trkpt lat="46.12195" lon="7.81688">
        <ele>2582.3</ele>
        <time>2000-01-01T06:51:58.000Z</time>
      </trkpt>
      <trkpt lat="46.12195" lon="7.81684">
        <ele>2580.9</ele>
        <time>2000-01-01T06:52:08.000Z</time>
      </trkpt>
      <trkpt lat="46.12192" lon="7.81681">
        <ele>2581.1</ele>
        <time>2000-01-01T06:52:18.000Z</time>
      </trkpt>
      <trkpt lat="46.12187" lon="7.81677">
        <ele>2576</ele>
        <time>2000-01-01T06:52:28.000Z</time>
      </trkpt>
      <trkpt lat="46.12185" lon="7.81669">
        <ele>2579</ele>
        <time>2000-01-01T06:52:38.000Z</time>
      </trkpt>
      <trkpt lat="46.12184" lon="7.81665">
        <ele>2577.7</ele>
        <time>2000-01-01T06:52:48.000Z</time>
      </trkpt>
      <trkpt lat="46.12185" lon="7.81661">
        <ele>2575.7</ele>
        <time>2000-01-01T06:52:58.000Z</time>
      </trkpt>
      <trkpt lat="46.12182" lon="7.81657">
        <ele>2574.9</ele>
        <time>2000-01-01T06:53:08.000Z</time>
      </trkpt>
      <trkpt lat="46.12172" lon="7.81645">
        <ele>2563</ele>
        <time>2000-01-01T06:53:18.000Z</time>
      </trkpt>
      <trkpt lat="46.12169" lon="7.81636">
        <ele>2569.6</ele>
        <time>2000-01-01T06:53:28.000Z</time>
      </trkpt>
      <trkpt lat="46.12167" lon="7.81633">
        <ele>2569.2</ele>
        <time>2000-01-01T06:53:38.000Z</time>
      </trkpt>
      <trkpt lat="46.12164" lon="7.81631">
        <ele>2569.8</ele>
        <time>2000-01-01T06:53:48.000Z</time>
      </trkpt>
      <trkpt lat="46.12163" lon="7.81627">
        <ele>2569.1</ele>
        <time>2000-01-01T06:53:58.000Z</time>
      </trkpt>
      <trkpt lat="46.12163" lon="7.81622">
        <ele>2561</ele>
        <time>2000-01-01T06:54:08.000Z</time>
      </trkpt>
      <trkpt lat="46.12164" lon="7.81614">
        <ele>2565.1</ele>
        <time>2000-01-01T06:54:18.000Z</time>
      </trkpt>
      <trkpt lat="46.12165" lon="7.8161">
        <ele>2563.3</ele>
        <time>2000-01-01T06:54:28.000Z</time>
      </trkpt>
      <trkpt lat="46.12161" lon="7.81603">
        <ele>2562.2</ele>
        <time>2000-01-01T06:54:38.000Z</time>
      </trkpt>
      <trkpt lat="46.12162" lon="7.81599">
        <ele>2559.9</ele>
        <time>2000-01-01T06:54:48.000Z</time>
      </trkpt>
      <trkpt lat="46.12159" lon="7.81599">
        <ele>2559</ele>
        <time>2000-01-01T06:54:58.000Z</time>
      </trkpt>
      <trkpt lat="46.12159" lon="7.81594">
        <ele>2559.4</ele>
        <time>2000-01-01T06:55:08.000Z</time>
      </trkpt>
      <trkpt lat="46.12159" lon="7.8158">
        <ele>2553.9</ele>
        <time>2000-01-01T06:55:18.000Z</time>
      </trkpt>
      <trkpt lat="46.1216" lon="7.81576">
        <ele>2551.9</ele>
        <time>2000-01-01T06:55:28.000Z</time>
      </trkpt>
      <trkpt lat="46.1216" lon="7.81571">
        <ele>2554</ele>
        <time>2000-01-01T06:55:38.000Z</time>
      </trkpt>
      <trkpt lat="46.12162" lon="7.81561">
        <ele>2545.7</ele>
        <time>2000-01-01T06:55:48.000Z</time>
      </trkpt>
      <trkpt lat="46.12159" lon="7.81553">
        <ele>2544.5</ele>
        <time>2000-01-01T06:55:58.000Z</time>
      </trkpt>
      <trkpt lat="46.12156" lon="7.81542">
        <ele>2539</ele>
        <time>2000-01-01T06:56:08.000Z</time>
      </trkpt>
      <trkpt lat="46.12154" lon="7.81538">
        <ele>2541.1</ele>
        <time>2000-01-01T06:56:18.000Z</time>
      </trkpt>
      <trkpt lat="46.12153" lon="7.81531">
        <ele>2538.7</ele>
        <time>2000-01-01T06:56:28.000Z</time>
      </trkpt>
      <trkpt lat="46.12146" lon="7.81501">
        <ele>2534</ele>
        <time>2000-01-01T06:56:38.000Z</time>
      </trkpt>
      <trkpt lat="46.12141" lon="7.81489">
        <ele>2533</ele>
        <time>2000-01-01T06:56:48.000Z</time>
      </trkpt>
      <trkpt lat="46.1214" lon="7.81478">
        <ele>2530.1</ele>
        <time>2000-01-01T06:56:58.000Z</time>
      </trkpt>
      <trkpt lat="46.12138" lon="7.81473">
        <ele>2532</ele>
        <time>2000-01-01T06:57:08.000Z</time>
      </trkpt>
      <trkpt lat="46.12136" lon="7.81469">
        <ele>2529.1</ele>
        <time>2000-01-01T06:57:18.000Z</time>
      </trkpt>
      <trkpt lat="46.12131" lon="7.81466">
        <ele>2530.2</ele>
        <time>2000-01-01T06:57:28.000Z</time>
      </trkpt>
      <trkpt lat="46.12121" lon="7.81451">
        <ele>2531</ele>
        <time>2000-01-01T06:57:38.000Z</time>
      </trkpt>
      <trkpt lat="46.12119" lon="7.81444">
        <ele>2527.1</ele>
        <time>2000-01-01T06:57:48.000Z</time>
      </trkpt>
      <trkpt lat="46.12118" lon="7.81436">
        <ele>2524</ele>
        <time>2000-01-01T06:57:58.000Z</time>
      </trkpt>
      <trkpt lat="46.12115" lon="7.81431">
        <ele>2523</ele>
        <time>2000-01-01T06:58:08.000Z</time>
      </trkpt>
      <trkpt lat="46.12112" lon="7.81426">
        <ele>2520</ele>
        <time>2000-01-01T06:58:18.000Z</time>
      </trkpt>
      <trkpt lat="46.12097" lon="7.81415">
        <ele>2518.1</ele>
        <time>2000-01-01T06:58:28.000Z</time>
      </trkpt>
      <trkpt lat="46.12093" lon="7.81412">
        <ele>2516</ele>
        <time>2000-01-01T06:58:38.000Z</time>
      </trkpt>
      <trkpt lat="46.12076" lon="7.81405">
        <ele>2514.4</ele>
        <time>2000-01-01T06:58:48.000Z</time>
      </trkpt>
      <trkpt lat="46.12062" lon="7.81404">
        <ele>2516</ele>
        <time>2000-01-01T06:58:58.000Z</time>
      </trkpt>
      <trkpt lat="46.12057" lon="7.81401">
        <ele>2515.5</ele>
        <time>2000-01-01T06:59:08.000Z</time>
      </trkpt>
      <trkpt lat="46.12052" lon="7.81396">
        <ele>2514.2</ele>
        <time>2000-01-01T06:59:18.000Z</time>
      </trkpt>
      <trkpt lat="46.12057" lon="7.81394">
        <ele>2512.7</ele>
        <time>2000-01-01T06:59:28.000Z</time>
      </trkpt>
      <trkpt lat="46.12054" lon="7.81385">
        <ele>2509</ele>
        <time>2000-01-01T06:59:38.000Z</time>
      </trkpt>
      <trkpt lat="46.12047" lon="7.81375">
        <ele>2506</ele>
        <time>2000-01-01T06:59:48.000Z</time>
      </trkpt>
      <trkpt lat="46.12044" lon="7.81373">
        <ele>2505.3</ele>
        <time>2000-01-01T06:59:58.000Z</time>
      </trkpt>
      <trkpt lat="46.12041" lon="7.81372">
        <ele>2505</ele>
        <time>2000-01-01T07:00:08.000Z</time>
      </trkpt>
      <trkpt lat="46.12037" lon="7.81369">
        <ele>2501</ele>
        <time>2000-01-01T07:00:18.000Z</time>
      </trkpt>
      <trkpt lat="46.1203" lon="7.81363">
        <ele>2501.7</ele>
        <time>2000-01-01T07:00:28.000Z</time>
      </trkpt>
      <trkpt lat="46.12022" lon="7.8136">
        <ele>2502.2</ele>
        <time>2000-01-01T07:00:38.000Z</time>
      </trkpt>
      <trkpt lat="46.12025" lon="7.81356">
        <ele>2499</ele>
        <time>2000-01-01T07:00:48.000Z</time>
      </trkpt>
      <trkpt lat="46.12033" lon="7.81353">
        <ele>2497.4</ele>
        <time>2000-01-01T07:00:58.000Z</time>
      </trkpt>
      <trkpt lat="46.12056" lon="7.81337">
        <ele>2488</ele>
        <time>2000-01-01T07:01:08.000Z</time>
      </trkpt>
      <trkpt lat="46.12063" lon="7.81334">
        <ele>2487.1</ele>
        <time>2000-01-01T07:01:18.000Z</time>
      </trkpt>
      <trkpt lat="46.12067" lon="7.81333">
        <ele>2485.5</ele>
        <time>2000-01-01T07:01:28.000Z</time>
      </trkpt>
      <trkpt lat="46.12078" lon="7.81336">
        <ele>2484</ele>
        <time>2000-01-01T07:01:38.000Z</time>
      </trkpt>
      <trkpt lat="46.12081" lon="7.81337">
        <ele>2483.1</ele>
        <time>2000-01-01T07:01:48.000Z</time>
      </trkpt>
      <trkpt lat="46.12089" lon="7.81342">
        <ele>2483.4</ele>
        <time>2000-01-01T07:01:58.000Z</time>
      </trkpt>
      <trkpt lat="46.121" lon="7.81342">
        <ele>2482</ele>
        <time>2000-01-01T07:02:08.000Z</time>
      </trkpt>
      <trkpt lat="46.1211" lon="7.81345">
        <ele>2481.1</ele>
        <time>2000-01-01T07:02:18.000Z</time>
      </trkpt>
      <trkpt lat="46.1212" lon="7.81339">
        <ele>2474</ele>
        <time>2000-01-01T07:02:28.000Z</time>
      </trkpt>
      <trkpt lat="46.12127" lon="7.81337">
        <ele>2473.4</ele>
        <time>2000-01-01T07:02:38.000Z</time>
      </trkpt>
      <trkpt lat="46.12132" lon="7.81336">
        <ele>2471.8</ele>
        <time>2000-01-01T07:02:48.000Z</time>
      </trkpt>
      <trkpt lat="46.12142" lon="7.81338">
        <ele>2469</ele>
        <time>2000-01-01T07:02:58.000Z</time>
      </trkpt>
      <trkpt lat="46.12148" lon="7.8134">
        <ele>2469.5</ele>
        <time>2000-01-01T07:03:08.000Z</time>
      </trkpt>
      <trkpt lat="46.12159" lon="7.81339">
        <ele>2465.6</ele>
        <time>2000-01-01T07:03:18.000Z</time>
      </trkpt>
      <trkpt lat="46.12161" lon="7.81345">
        <ele>2469</ele>
        <time>2000-01-01T07:03:28.000Z</time>
      </trkpt>
      <trkpt lat="46.12173" lon="7.81359">
        <ele>2467.1</ele>
        <time>2000-01-01T07:03:38.000Z</time>
      </trkpt>
      <trkpt lat="46.12176" lon="7.81365">
        <ele>2465</ele>
        <time>2000-01-01T07:03:48.000Z</time>
      </trkpt>
      <trkpt lat="46.12178" lon="7.81367">
        <ele>2466.8</ele>
        <time>2000-01-01T07:03:58.000Z</time>
      </trkpt>
      <trkpt lat="46.12186" lon="7.81371">
        <ele>2462.9</ele>
        <time>2000-01-01T07:04:08.000Z</time>
      </trkpt>
      <trkpt lat="46.12195" lon="7.81378">
        <ele>2464</ele>
        <time>2000-01-01T07:04:18.000Z</time>
      </trkpt>
      <trkpt lat="46.12196" lon="7.81373">
        <ele>2456.8</ele>
        <time>2000-01-01T07:04:28.000Z</time>
      </trkpt>
      <trkpt lat="46.12193" lon="7.81366">
        <ele>2456.5</ele>
        <time>2000-01-01T07:04:38.000Z</time>
      </trkpt>
      <trkpt lat="46.1219" lon="7.81367">
        <ele>2458.9</ele>
        <time>2000-01-01T07:04:48.000Z</time>
      </trkpt>
      <trkpt lat="46.12188" lon="7.81365">
        <ele>2459.5</ele>
        <time>2000-01-01T07:04:58.000Z</time>
      </trkpt>
      <trkpt lat="46.12185" lon="7.81361">
        <ele>2463</ele>
        <time>2000-01-01T07:05:08.000Z</time>
      </trkpt>
      <trkpt lat="46.12182" lon="7.81356">
        <ele>2460.4</ele>
        <time>2000-01-01T07:05:18.000Z</time>
      </trkpt>
      <trkpt lat="46.12179" lon="7.81341">
        <ele>2457.3</ele>
        <time>2000-01-01T07:05:28.000Z</time>
      </trkpt>
      <trkpt lat="46.12175" lon="7.81333">
        <ele>2458</ele>
        <time>2000-01-01T07:05:38.000Z</time>
      </trkpt>
      <trkpt lat="46.12172" lon="7.81324">
        <ele>2454.9</ele>
        <time>2000-01-01T07:05:48.000Z</time>
      </trkpt>
      <trkpt lat="46.12168" lon="7.81318">
        <ele>2454.4</ele>
        <time>2000-01-01T07:05:58.000Z</time>
      </trkpt>
      <trkpt lat="46.12161" lon="7.81315">
        <ele>2453</ele>
        <time>2000-01-01T07:06:08.000Z</time>
      </trkpt>
      <trkpt lat="46.12146" lon="7.81302">
        <ele>2451.3</ele>
        <time>2000-01-01T07:06:18.000Z</time>
      </trkpt>
      <trkpt lat="46.12137" lon="7.81296">
        <ele>2450</ele>
        <time>2000-01-01T07:06:28.000Z</time>
      </trkpt>
      <trkpt lat="46.12131" lon="7.8129">
        <ele>2448.4</ele>
        <time>2000-01-01T07:06:38.000Z</time>
      </trkpt>
      <trkpt lat="46.12117" lon="7.81281">
        <ele>2449</ele>
        <time>2000-01-01T07:06:48.000Z</time>
      </trkpt>
      <trkpt lat="46.12103" lon="7.81266">
        <ele>2443.2</ele>
        <time>2000-01-01T07:06:58.000Z</time>
      </trkpt>
      <trkpt lat="46.12101" lon="7.81265">
        <ele>2441</ele>
        <time>2000-01-01T07:07:08.000Z</time>
      </trkpt>
      <trkpt lat="46.12097" lon="7.81265">
        <ele>2444.1</ele>
        <time>2000-01-01T07:07:18.000Z</time>
      </trkpt>
      <trkpt lat="46.12084" lon="7.8125">
        <ele>2438</ele>
        <time>2000-01-01T07:07:28.000Z</time>
      </trkpt>
      <trkpt lat="46.12081" lon="7.81248">
        <ele>2439.8</ele>
        <time>2000-01-01T07:07:38.000Z</time>
      </trkpt>
      <trkpt lat="46.12077" lon="7.8124">
        <ele>2437.4</ele>
        <time>2000-01-01T07:07:48.000Z</time>
      </trkpt>
      <trkpt lat="46.12073" lon="7.81234">
        <ele>2435.8</ele>
        <time>2000-01-01T07:07:58.000Z</time>
      </trkpt>
      <trkpt lat="46.12066" lon="7.81226">
        <ele>2433</ele>
        <time>2000-01-01T07:08:08.000Z</time>
      </trkpt>
      <trkpt lat="46.1206" lon="7.81217">
        <ele>2430.8</ele>
        <time>2000-01-01T07:08:18.000Z</time>
      </trkpt>
      <trkpt lat="46.12057" lon="7.81213">
        <ele>2429.1</ele>
        <time>2000-01-01T07:08:28.000Z</time>
      </trkpt>
      <trkpt lat="46.12053" lon="7.81211">
        <ele>2428.6</ele>
        <time>2000-01-01T07:08:38.000Z</time>
      </trkpt>
      <trkpt lat="46.12047" lon="7.81206">
        <ele>2432</ele>
        <time>2000-01-01T07:08:48.000Z</time>
      </trkpt>
      <trkpt lat="46.12039" lon="7.812">
        <ele>2424.7</ele>
        <time>2000-01-01T07:08:58.000Z</time>
      </trkpt>
      <trkpt lat="46.12033" lon="7.81197">
        <ele>2424.3</ele>
        <time>2000-01-01T07:09:08.000Z</time>
      </trkpt>
      <trkpt lat="46.12021" lon="7.81186">
        <ele>2431</ele>
        <time>2000-01-01T07:09:18.000Z</time>
      </trkpt>
      <trkpt lat="46.1202" lon="7.81183">
        <ele>2428.1</ele>
        <time>2000-01-01T07:09:28.000Z</time>
      </trkpt>
      <trkpt lat="46.12022" lon="7.81179">
        <ele>2425.1</ele>
        <time>2000-01-01T07:09:38.000Z</time>
      </trkpt>
      <trkpt lat="46.12024" lon="7.81174">
        <ele>2421.8</ele>
        <time>2000-01-01T07:09:48.000Z</time>
      </trkpt>
      <trkpt lat="46.12026" lon="7.81153">
        <ele>2420</ele>
        <time>2000-01-01T07:09:58.000Z</time>
      </trkpt>
      <trkpt lat="46.12029" lon="7.81135">
        <ele>2404.1</ele>
        <time>2000-01-01T07:10:08.000Z</time>
      </trkpt>
      <trkpt lat="46.12029" lon="7.81131">
        <ele>2402</ele>
        <time>2000-01-01T07:10:18.000Z</time>
      </trkpt>
      <trkpt lat="46.12025" lon="7.8112">
        <ele>2414</ele>
        <time>2000-01-01T07:10:28.000Z</time>
      </trkpt>
      <trkpt lat="46.12021" lon="7.81115">
        <ele>2400.5</ele>
        <time>2000-01-01T07:10:38.000Z</time>
      </trkpt>
      <trkpt lat="46.12012" lon="7.81107">
        <ele>2403.7</ele>
        <time>2000-01-01T07:10:48.000Z</time>
      </trkpt>
      <trkpt lat="46.1201" lon="7.81105">
        <ele>2404.5</ele>
        <time>2000-01-01T07:10:58.000Z</time>
      </trkpt>
      <trkpt lat="46.12006" lon="7.81104">
        <ele>2409</ele>
        <time>2000-01-01T07:11:08.000Z</time>
      </trkpt>
      <trkpt lat="46.12001" lon="7.81092">
        <ele>2407.8</ele>
        <time>2000-01-01T07:11:18.000Z</time>
      </trkpt>
      <trkpt lat="46.12001" lon="7.81088">
        <ele>2406.5</ele>
        <time>2000-01-01T07:11:28.000Z</time>
      </trkpt>
      <trkpt lat="46.12001" lon="7.81083">
        <ele>2404.9</ele>
        <time>2000-01-01T07:11:38.000Z</time>
      </trkpt>
      <trkpt lat="46.12005" lon="7.81085">
        <ele>2402</ele>
        <time>2000-01-01T07:11:48.000Z</time>
      </trkpt>
      <trkpt lat="46.12006" lon="7.81081">
        <ele>2399.3</ele>
        <time>2000-01-01T07:11:58.000Z</time>
      </trkpt>
      <trkpt lat="46.12004" lon="7.81065">
        <ele>2398.1</ele>
        <time>2000-01-01T07:12:08.000Z</time>
      </trkpt>
      <trkpt lat="46.12002" lon="7.81056">
        <ele>2401</ele>
        <time>2000-01-01T07:12:18.000Z</time>
      </trkpt>
      <trkpt lat="46.11996" lon="7.81043">
        <ele>2398.6</ele>
        <time>2000-01-01T07:12:28.000Z</time>
      </trkpt>
      <trkpt lat="46.11994" lon="7.81038">
        <ele>2398.4</ele>
        <time>2000-01-01T07:12:38.000Z</time>
      </trkpt>
      <trkpt lat="46.11992" lon="7.81031">
        <ele>2400</ele>
        <time>2000-01-01T07:12:48.000Z</time>
      </trkpt>
      <trkpt lat="46.11991" lon="7.81026">
        <ele>2396.9</ele>
        <time>2000-01-01T07:12:58.000Z</time>
      </trkpt>
      <trkpt lat="46.11989" lon="7.8102">
        <ele>2397.7</ele>
        <time>2000-01-01T07:13:08.000Z</time>
      </trkpt>
      <trkpt lat="46.11988" lon="7.81014">
        <ele>2397.8</ele>
        <time>2000-01-01T07:13:18.000Z</time>
      </trkpt>
      <trkpt lat="46.11992" lon="7.81001">
        <ele>2397</ele>
        <time>2000-01-01T07:13:28.000Z</time>
      </trkpt>
      <trkpt lat="46.11992" lon="7.80994">
        <ele>2390.6</ele>
        <time>2000-01-01T07:13:38.000Z</time>
      </trkpt>
      <trkpt lat="46.11991" lon="7.8099">
        <ele>2390.6</ele>
        <time>2000-01-01T07:13:48.000Z</time>
      </trkpt>
      <trkpt lat="46.11981" lon="7.80975">
        <ele>2401</ele>
        <time>2000-01-01T07:13:58.000Z</time>
      </trkpt>
      <trkpt lat="46.11978" lon="7.80968">
        <ele>2395.7</ele>
        <time>2000-01-01T07:14:08.000Z</time>
      </trkpt>
      <trkpt lat="46.11974" lon="7.80963">
        <ele>2397</ele>
        <time>2000-01-01T07:14:18.000Z</time>
      </trkpt>
      <trkpt lat="46.11966" lon="7.80955">
        <ele>2402</ele>
        <time>2000-01-01T07:14:28.000Z</time>
      </trkpt>
      <trkpt lat="46.11964" lon="7.8095">
        <ele>2399.5</ele>
        <time>2000-01-01T07:14:38.000Z</time>
      </trkpt>
      <trkpt lat="46.11964" lon="7.80944">
        <ele>2397</ele>
        <time>2000-01-01T07:14:48.000Z</time>
      </trkpt>
      <trkpt lat="46.11962" lon="7.80938">
        <ele>2397.5</ele>
        <time>2000-01-01T07:14:58.000Z</time>
      </trkpt>
      <trkpt lat="46.11958" lon="7.80929">
        <ele>2399</ele>
        <time>2000-01-01T07:15:08.000Z</time>
      </trkpt>
      <trkpt lat="46.11957" lon="7.80922">
        <ele>2398.8</ele>
        <time>2000-01-01T07:15:18.000Z</time>
      </trkpt>
      <trkpt lat="46.11958" lon="7.8091">
        <ele>2395.7</ele>
        <time>2000-01-01T07:15:28.000Z</time>
      </trkpt>
      <trkpt lat="46.11959" lon="7.80895">
        <ele>2396</ele>
        <time>2000-01-01T07:15:38.000Z</time>
      </trkpt>
      <trkpt lat="46.11956" lon="7.80882">
        <ele>2391.9</ele>
        <time>2000-01-01T07:15:48.000Z</time>
      </trkpt>
      <trkpt lat="46.11955" lon="7.80874">
        <ele>2390.3</ele>
        <time>2000-01-01T07:15:58.000Z</time>
      </trkpt>
      <trkpt lat="46.11954" lon="7.80868">
        <ele>2386</ele>
        <time>2000-01-01T07:16:08.000Z</time>
      </trkpt>
      <trkpt lat="46.11951" lon="7.80859">
        <ele>2389</ele>
        <time>2000-01-01T07:16:18.000Z</time>
      </trkpt>
      <trkpt lat="46.11949" lon="7.80853">
        <ele>2388.9</ele>
        <time>2000-01-01T07:16:28.000Z</time>
      </trkpt>
      <trkpt lat="46.11948" lon="7.80845">
        <ele>2387.5</ele>
        <time>2000-01-01T07:16:38.000Z</time>
      </trkpt>
      <trkpt lat="46.11945" lon="7.80824">
        <ele>2385</ele>
        <time>2000-01-01T07:16:48.000Z</time>
      </trkpt>
      <trkpt lat="46.1194" lon="7.80805">
        <ele>2380.9</ele>
        <time>2000-01-01T07:16:58.000Z</time>
      </trkpt>
      <trkpt lat="46.11937" lon="7.80795">
        <ele>2385</ele>
        <time>2000-01-01T07:17:08.000Z</time>
      </trkpt>
      <trkpt lat="46.11935" lon="7.8078">
        <ele>2379.3</ele>
        <time>2000-01-01T07:17:18.000Z</time>
      </trkpt>
      <trkpt lat="46.11934" lon="7.80774">
        <ele>2378.6</ele>
        <time>2000-01-01T07:17:28.000Z</time>
      </trkpt>
      <trkpt lat="46.1193" lon="7.80765">
        <ele>2385</ele>
        <time>2000-01-01T07:17:38.000Z</time>
      </trkpt>
      <trkpt lat="46.11929" lon="7.80753">
        <ele>2376.3</ele>
        <time>2000-01-01T07:17:48.000Z</time>
      </trkpt>
      <trkpt lat="46.11927" lon="7.80744">
        <ele>2375.5</ele>
        <time>2000-01-01T07:17:58.000Z</time>
      </trkpt>
      <trkpt lat="46.11922" lon="7.80731">
        <ele>2379</ele>
        <time>2000-01-01T07:18:08.000Z</time>
      </trkpt>
      <trkpt lat="46.11919" lon="7.80718">
        <ele>2375</ele>
        <time>2000-01-01T07:18:18.000Z</time>
      </trkpt>
      <trkpt lat="46.11916" lon="7.80707">
        <ele>2375.1</ele>
        <time>2000-01-01T07:18:28.000Z</time>
      </trkpt>
      <trkpt lat="46.11914" lon="7.80697">
        <ele>2374</ele>
        <time>2000-01-01T07:18:38.000Z</time>
      </trkpt>
      <trkpt lat="46.11912" lon="7.80692">
        <ele>2373.9</ele>
        <time>2000-01-01T07:18:48.000Z</time>
      </trkpt>
      <trkpt lat="46.11908" lon="7.8068">
        <ele>2371.9</ele>
        <time>2000-01-01T07:18:58.000Z</time>
      </trkpt>
      <trkpt lat="46.11901" lon="7.80667">
        <ele>2368</ele>
        <time>2000-01-01T07:19:08.000Z</time>
      </trkpt>
      <trkpt lat="46.119" lon="7.80662">
        <ele>2366.9</ele>
        <time>2000-01-01T07:19:18.000Z</time>
      </trkpt>
      <trkpt lat="46.11902" lon="7.80652">
        <ele>2361.4</ele>
        <time>2000-01-01T07:19:28.000Z</time>
      </trkpt>
      <trkpt lat="46.11887" lon="7.8065">
        <ele>2363</ele>
        <time>2000-01-01T07:19:38.000Z</time>
      </trkpt>
      <trkpt lat="46.11884" lon="7.80651">
        <ele>2362.6</ele>
        <time>2000-01-01T07:19:48.000Z</time>
      </trkpt>
      <trkpt lat="46.1188" lon="7.80649">
        <ele>2362.3</ele>
        <time>2000-01-01T07:19:58.000Z</time>
      </trkpt>
      <trkpt lat="46.11876" lon="7.80648">
        <ele>2362.5</ele>
        <time>2000-01-01T07:20:08.000Z</time>
      </trkpt>
      <trkpt lat="46.11872" lon="7.80649">
        <ele>2364.1</ele>
        <time>2000-01-01T07:20:18.000Z</time>
      </trkpt>
      <trkpt lat="46.11862" lon="7.80647">
        <ele>2364</ele>
        <time>2000-01-01T07:20:28.000Z</time>
      </trkpt>
      <trkpt lat="46.11858" lon="7.80649">
        <ele>2367.3</ele>
        <time>2000-01-01T07:20:38.000Z</time>
      </trkpt>
      <trkpt lat="46.11854" lon="7.80649">
        <ele>2368</ele>
        <time>2000-01-01T07:20:48.000Z</time>
      </trkpt>
      <trkpt lat="46.11841" lon="7.80642">
        <ele>2361</ele>
        <time>2000-01-01T07:20:58.000Z</time>
      </trkpt>
      <trkpt lat="46.11837" lon="7.80642">
        <ele>2365.2</ele>
        <time>2000-01-01T07:21:08.000Z</time>
      </trkpt>
      <trkpt lat="46.11834" lon="7.80643">
        <ele>2366.6</ele>
        <time>2000-01-01T07:21:18.000Z</time>
      </trkpt>
      <trkpt lat="46.11822" lon="7.80633">
        <ele>2358</ele>
        <time>2000-01-01T07:21:28.000Z</time>
      </trkpt>
      <trkpt lat="46.11815" lon="7.8063">
        <ele>2356.8</ele>
        <time>2000-01-01T07:21:38.000Z</time>
      </trkpt>
      <trkpt lat="46.11811" lon="7.80629">
        <ele>2355.6</ele>
        <time>2000-01-01T07:21:48.000Z</time>
      </trkpt>
      <trkpt lat="46.11808" lon="7.8063">
        <ele>2356.5</ele>
        <time>2000-01-01T07:21:58.000Z</time>
      </trkpt>
      <trkpt lat="46.11803" lon="7.80637">
        <ele>2356</ele>
        <time>2000-01-01T07:22:08.000Z</time>
      </trkpt>
      <trkpt lat="46.118" lon="7.80639">
        <ele>2363.5</ele>
        <time>2000-01-01T07:22:18.000Z</time>
      </trkpt>
      <trkpt lat="46.11798" lon="7.8064">
        <ele>2362.9</ele>
        <time>2000-01-01T07:22:28.000Z</time>
      </trkpt>
      <trkpt lat="46.11789" lon="7.80645">
        <ele>2361.6</ele>
        <time>2000-01-01T07:22:38.000Z</time>
      </trkpt>
      <trkpt lat="46.11784" lon="7.80646">
        <ele>2354</ele>
        <time>2000-01-01T07:22:48.000Z</time>
      </trkpt>
      <trkpt lat="46.11775" lon="7.80645">
        <ele>2354.5</ele>
        <time>2000-01-01T07:22:58.000Z</time>
      </trkpt>
      <trkpt lat="46.11768" lon="7.80643">
        <ele>2350.3</ele>
        <time>2000-01-01T07:23:08.000Z</time>
      </trkpt>
      <trkpt lat="46.1176" lon="7.80642">
        <ele>2343</ele>
        <time>2000-01-01T07:23:18.000Z</time>
      </trkpt>
      <trkpt lat="46.11745" lon="7.80644">
        <ele>2344.9</ele>
        <time>2000-01-01T07:23:28.000Z</time>
      </trkpt>
      <trkpt lat="46.11742" lon="7.80643">
        <ele>2343.4</ele>
        <time>2000-01-01T07:23:38.000Z</time>
      </trkpt>
      <trkpt lat="46.1173" lon="7.8064">
        <ele>2337</ele>
        <time>2000-01-01T07:23:48.000Z</time>
      </trkpt>
      <trkpt lat="46.11717" lon="7.80638">
        <ele>2334.6</ele>
        <time>2000-01-01T07:23:58.000Z</time>
      </trkpt>
      <trkpt lat="46.1171" lon="7.80635">
        <ele>2329</ele>
        <time>2000-01-01T07:24:08.000Z</time>
      </trkpt>
      <trkpt lat="46.11698" lon="7.8064">
        <ele>2331.8</ele>
        <time>2000-01-01T07:24:18.000Z</time>
      </trkpt>
      <trkpt lat="46.1169" lon="7.80644">
        <ele>2328</ele>
        <time>2000-01-01T07:24:28.000Z</time>
      </trkpt>
      <trkpt lat="46.11684" lon="7.80649">
        <ele>2332.1</ele>
        <time>2000-01-01T07:24:38.000Z</time>
      </trkpt>
      <trkpt lat="46.11678" lon="7.8065">
        <ele>2329.1</ele>
        <time>2000-01-01T07:24:48.000Z</time>
      </trkpt>
      <trkpt lat="46.11672" lon="7.80654">
        <ele>2328</ele>
        <time>2000-01-01T07:24:58.000Z</time>
      </trkpt>
      <trkpt lat="46.11671" lon="7.80659">
        <ele>2331.8</ele>
        <time>2000-01-01T07:25:08.000Z</time>
      </trkpt>
      <trkpt lat="46.11671" lon="7.80662">
        <ele>2334.2</ele>
        <time>2000-01-01T07:25:18.000Z</time>
      </trkpt>
      <trkpt lat="46.11668" lon="7.80664">
        <ele>2333.8</ele>
        <time>2000-01-01T07:25:28.000Z</time>
      </trkpt>
      <trkpt lat="46.11656" lon="7.80667">
        <ele>2330</ele>
        <time>2000-01-01T07:25:38.000Z</time>
      </trkpt>
      <trkpt lat="46.11648" lon="7.80671">
        <ele>2329</ele>
        <time>2000-01-01T07:25:48.000Z</time>
      </trkpt>
      <trkpt lat="46.11645" lon="7.80675">
        <ele>2330</ele>
        <time>2000-01-01T07:25:58.000Z</time>
      </trkpt>
      <trkpt lat="46.11641" lon="7.80686">
        <ele>2326</ele>
        <time>2000-01-01T07:26:08.000Z</time>
      </trkpt>
      <trkpt lat="46.11637" lon="7.80692">
        <ele>2334.6</ele>
        <time>2000-01-01T07:26:18.000Z</time>
      </trkpt>
      <trkpt lat="46.11627" lon="7.80704">
        <ele>2323</ele>
        <time>2000-01-01T07:26:28.000Z</time>
      </trkpt>
      <trkpt lat="46.11619" lon="7.80716">
        <ele>2322.3</ele>
        <time>2000-01-01T07:26:38.000Z</time>
      </trkpt>
      <trkpt lat="46.11612" lon="7.80722">
        <ele>2314</ele>
        <time>2000-01-01T07:26:48.000Z</time>
      </trkpt>
      <trkpt lat="46.11609" lon="7.80726">
        <ele>2308.6</ele>
        <time>2000-01-01T07:26:58.000Z</time>
      </trkpt>
      <trkpt lat="46.11603" lon="7.8074">
        <ele>2305.6</ele>
        <time>2000-01-01T07:27:08.000Z</time>
      </trkpt>
      <trkpt lat="46.11603" lon="7.80744">
        <ele>2306.7</ele>
        <time>2000-01-01T07:27:18.000Z</time>
      </trkpt>
      <trkpt lat="46.11604" lon="7.80753">
        <ele>2308</ele>
        <time>2000-01-01T07:27:28.000Z</time>
      </trkpt>
      <trkpt lat="46.11605" lon="7.80759">
        <ele>2313.4</ele>
        <time>2000-01-01T07:27:38.000Z</time>
      </trkpt>
      <trkpt lat="46.1161" lon="7.80766">
        <ele>2321.5</ele>
        <time>2000-01-01T07:27:48.000Z</time>
      </trkpt>
      <trkpt lat="46.1161" lon="7.8077">
        <ele>2322.9</ele>
        <time>2000-01-01T07:27:58.000Z</time>
      </trkpt>
      <trkpt lat="46.11607" lon="7.80773">
        <ele>2320.5</ele>
        <time>2000-01-01T07:28:08.000Z</time>
      </trkpt>
      <trkpt lat="46.11599" lon="7.80777">
        <ele>2310</ele>
        <time>2000-01-01T07:28:18.000Z</time>
      </trkpt>
      <trkpt lat="46.11596" lon="7.80778">
        <ele>2309.1</ele>
        <time>2000-01-01T07:28:28.000Z</time>
      </trkpt>
      <trkpt lat="46.11591" lon="7.80785">
        <ele>2306.2</ele>
        <time>2000-01-01T07:28:38.000Z</time>
      </trkpt>
      <trkpt lat="46.11591" lon="7.80805">
        <ele>2312</ele>
        <time>2000-01-01T07:28:48.000Z</time>
      </trkpt>
      <trkpt lat="46.11591" lon="7.80809">
        <ele>2316.1</ele>
        <time>2000-01-01T07:28:58.000Z</time>
      </trkpt>
      <trkpt lat="46.1159" lon="7.80815">
        <ele>2317</ele>
        <time>2000-01-01T07:29:08.000Z</time>
      </trkpt>
      <trkpt lat="46.11587" lon="7.80823">
        <ele>2316.8</ele>
        <time>2000-01-01T07:29:18.000Z</time>
      </trkpt>
      <trkpt lat="46.11584" lon="7.80831">
        <ele>2318</ele>
        <time>2000-01-01T07:29:28.000Z</time>
      </trkpt>
      <trkpt lat="46.11584" lon="7.80842">
        <ele>2325</ele>
        <time>2000-01-01T07:29:38.000Z</time>
      </trkpt>
      <trkpt lat="46.11576" lon="7.8085">
        <ele>2324.9</ele>
        <time>2000-01-01T07:29:48.000Z</time>
      </trkpt>
      <trkpt lat="46.11575" lon="7.80855">
        <ele>2324</ele>
        <time>2000-01-01T07:29:58.000Z</time>
      </trkpt>
      <trkpt lat="46.11575" lon="7.80859">
        <ele>2330.3</ele>
        <time>2000-01-01T07:30:08.000Z</time>
      </trkpt>
      <trkpt lat="46.11566" lon="7.80867">
        <ele>2326.6</ele>
        <time>2000-01-01T07:30:18.000Z</time>
      </trkpt>
      <trkpt lat="46.11562" lon="7.80875">
        <ele>2319</ele>
        <time>2000-01-01T07:30:28.000Z</time>
      </trkpt>
      <trkpt lat="46.11552" lon="7.80879">
        <ele>2320.5</ele>
        <time>2000-01-01T07:30:38.000Z</time>
      </trkpt>
      <trkpt lat="46.11548" lon="7.80881">
        <ele>2318.8</ele>
        <time>2000-01-01T07:30:48.000Z</time>
      </trkpt>
      <trkpt lat="46.1154" lon="7.80896">
        <ele>2318</ele>
        <time>2000-01-01T07:30:58.000Z</time>
      </trkpt>
      <trkpt lat="46.11533" lon="7.80905">
        <ele>2318.8</ele>
        <time>2000-01-01T07:31:08.000Z</time>
      </trkpt>
      <trkpt lat="46.11531" lon="7.8091">
        <ele>2319.4</ele>
        <time>2000-01-01T07:31:18.000Z</time>
      </trkpt>
      <trkpt lat="46.11528" lon="7.80922">
        <ele>2318</ele>
        <time>2000-01-01T07:31:28.000Z</time>
      </trkpt>
      <trkpt lat="46.11526" lon="7.80934">
        <ele>2323.8</ele>
        <time>2000-01-01T07:31:38.000Z</time>
      </trkpt>
      <trkpt lat="46.11523" lon="7.80939">
        <ele>2323.3</ele>
        <time>2000-01-01T07:31:48.000Z</time>
      </trkpt>
      <trkpt lat="46.1152" lon="7.80944">
        <ele>2322.8</ele>
        <time>2000-01-01T07:31:58.000Z</time>
      </trkpt>
      <trkpt lat="46.11507" lon="7.80958">
        <ele>2319</ele>
        <time>2000-01-01T07:32:08.000Z</time>
      </trkpt>
      <trkpt lat="46.11505" lon="7.80963">
        <ele>2318.3</ele>
        <time>2000-01-01T07:32:18.000Z</time>
      </trkpt>
      <trkpt lat="46.11507" lon="7.80975">
        <ele>2322.6</ele>
        <time>2000-01-01T07:32:28.000Z</time>
      </trkpt>
      <trkpt lat="46.11507" lon="7.80982">
        <ele>2323.5</ele>
        <time>2000-01-01T07:32:38.000Z</time>
      </trkpt>
      <trkpt lat="46.11505" lon="7.80989">
        <ele>2318</ele>
        <time>2000-01-01T07:32:48.000Z</time>
      </trkpt>
      <trkpt lat="46.11504" lon="7.80992">
        <ele>2322.4</ele>
        <time>2000-01-01T07:32:58.000Z</time>
      </trkpt>
      <trkpt lat="46.11503" lon="7.81005">
        <ele>2323</ele>
        <time>2000-01-01T07:33:08.000Z</time>
      </trkpt>
      <trkpt lat="46.11501" lon="7.81011">
        <ele>2322</ele>
        <time>2000-01-01T07:33:18.000Z</time>
      </trkpt>
      <trkpt lat="46.11499" lon="7.81015">
        <ele>2317</ele>
        <time>2000-01-01T07:33:28.000Z</time>
      </trkpt>
      <trkpt lat="46.11497" lon="7.81023">
        <ele>2321</ele>
        <time>2000-01-01T07:33:38.000Z</time>
      </trkpt>
      <trkpt lat="46.1149" lon="7.81033">
        <ele>2320.7</ele>
        <time>2000-01-01T07:33:48.000Z</time>
      </trkpt>
      <trkpt lat="46.11484" lon="7.81038">
        <ele>2317</ele>
        <time>2000-01-01T07:33:58.000Z</time>
      </trkpt>
      <trkpt lat="46.11479" lon="7.81047">
        <ele>2320.1</ele>
        <time>2000-01-01T07:34:08.000Z</time>
      </trkpt>
      <trkpt lat="46.11476" lon="7.81055">
        <ele>2321</ele>
        <time>2000-01-01T07:34:18.000Z</time>
      </trkpt>
      <trkpt lat="46.11472" lon="7.81068">
        <ele>2320</ele>
        <time>2000-01-01T07:34:28.000Z</time>
      </trkpt>
      <trkpt lat="46.11465" lon="7.81084">
        <ele>2320.8</ele>
        <time>2000-01-01T07:34:38.000Z</time>
      </trkpt>
      <trkpt lat="46.11464" lon="7.81092">
        <ele>2320</ele>
        <time>2000-01-01T07:34:48.000Z</time>
      </trkpt>
      <trkpt lat="46.11461" lon="7.81097">
        <ele>2322.2</ele>
        <time>2000-01-01T07:34:58.000Z</time>
      </trkpt>
      <trkpt lat="46.11453" lon="7.81105">
        <ele>2320.3</ele>
        <time>2000-01-01T07:35:08.000Z</time>
      </trkpt>
      <trkpt lat="46.11448" lon="7.81112">
        <ele>2317</ele>
        <time>2000-01-01T07:35:18.000Z</time>
      </trkpt>
      <trkpt lat="46.11436" lon="7.81118">
        <ele>2318.8</ele>
        <time>2000-01-01T07:35:28.000Z</time>
      </trkpt>
      <trkpt lat="46.11433" lon="7.81121">
        <ele>2319.4</ele>
        <time>2000-01-01T07:35:38.000Z</time>
      </trkpt>
      <trkpt lat="46.11428" lon="7.81128">
        <ele>2317</ele>
        <time>2000-01-01T07:35:48.000Z</time>
      </trkpt>
      <trkpt lat="46.11424" lon="7.81131">
        <ele>2321.4</ele>
        <time>2000-01-01T07:35:58.000Z</time>
      </trkpt>
      <trkpt lat="46.11412" lon="7.81138">
        <ele>2321.8</ele>
        <time>2000-01-01T07:36:08.000Z</time>
      </trkpt>
      <trkpt lat="46.11404" lon="7.81141">
        <ele>2322</ele>
        <time>2000-01-01T07:36:18.000Z</time>
      </trkpt>
      <trkpt lat="46.11392" lon="7.81149">
        <ele>2323.7</ele>
        <time>2000-01-01T07:36:28.000Z</time>
      </trkpt>
      <trkpt lat="46.11386" lon="7.81151">
        <ele>2323</ele>
        <time>2000-01-01T07:36:38.000Z</time>
      </trkpt>
      <trkpt lat="46.11382" lon="7.81154">
        <ele>2323.9</ele>
        <time>2000-01-01T07:36:48.000Z</time>
      </trkpt>
      <trkpt lat="46.11375" lon="7.8116">
        <ele>2325.1</ele>
        <time>2000-01-01T07:36:58.000Z</time>
      </trkpt>
      <trkpt lat="46.11359" lon="7.8117">
        <ele>2323</ele>
        <time>2000-01-01T07:37:08.000Z</time>
      </trkpt>
      <trkpt lat="46.11353" lon="7.81175">
        <ele>2325.3</ele>
        <time>2000-01-01T07:37:18.000Z</time>
      </trkpt>
      <trkpt lat="46.11349" lon="7.81184">
        <ele>2327.6</ele>
        <time>2000-01-01T07:37:28.000Z</time>
      </trkpt>
      <trkpt lat="46.11346" lon="7.81188">
        <ele>2328</ele>
        <time>2000-01-01T07:37:38.000Z</time>
      </trkpt>
      <trkpt lat="46.1134" lon="7.81192">
        <ele>2327</ele>
        <time>2000-01-01T07:37:48.000Z</time>
      </trkpt>
      <trkpt lat="46.11331" lon="7.81195">
        <ele>2324.5</ele>
        <time>2000-01-01T07:37:58.000Z</time>
      </trkpt>
      <trkpt lat="46.11329" lon="7.81198">
        <ele>2325.2</ele>
        <time>2000-01-01T07:38:08.000Z</time>
      </trkpt>
      <trkpt lat="46.11326" lon="7.81201">
        <ele>2325.6</ele>
        <time>2000-01-01T07:38:18.000Z</time>
      </trkpt>
      <trkpt lat="46.11326" lon="7.81205">
        <ele>2327.4</ele>
        <time>2000-01-01T07:38:28.000Z</time>
      </trkpt>
      <trkpt lat="46.11326" lon="7.8121">
        <ele>2327</ele>
        <time>2000-01-01T07:38:38.000Z</time>
      </trkpt>
      <trkpt lat="46.11325" lon="7.81214">
        <ele>2331</ele>
        <time>2000-01-01T07:38:48.000Z</time>
      </trkpt>
      <trkpt lat="46.11324" lon="7.81217">
        <ele>2332</ele>
        <time>2000-01-01T07:38:58.000Z</time>
      </trkpt>
      <trkpt lat="46.11322" lon="7.8122">
        <ele>2332.5</ele>
        <time>2000-01-01T07:39:08.000Z</time>
      </trkpt>
      <trkpt lat="46.11318" lon="7.81222">
        <ele>2331.8</ele>
        <time>2000-01-01T07:39:18.000Z</time>
      </trkpt>
      <trkpt lat="46.11305" lon="7.81223">
        <ele>2327</ele>
        <time>2000-01-01T07:39:28.000Z</time>
      </trkpt>
      <trkpt lat="46.11303" lon="7.81226">
        <ele>2328</ele>
        <time>2000-01-01T07:39:38.000Z</time>
      </trkpt>
      <trkpt lat="46.11302" lon="7.81231">
        <ele>2330.2</ele>
        <time>2000-01-01T07:39:48.000Z</time>
      </trkpt>
      <trkpt lat="46.113" lon="7.81235">
        <ele>2331.4</ele>
        <time>2000-01-01T07:39:58.000Z</time>
      </trkpt>
      <trkpt lat="46.11298" lon="7.81239">
        <ele>2332.5</ele>
        <time>2000-01-01T07:40:08.000Z</time>
      </trkpt>
      <trkpt lat="46.11297" lon="7.81244">
        <ele>2334.5</ele>
        <time>2000-01-01T07:40:18.000Z</time>
      </trkpt>
      <trkpt lat="46.11295" lon="7.81247">
        <ele>2326</ele>
        <time>2000-01-01T07:40:28.000Z</time>
      </trkpt>
      <trkpt lat="46.11291" lon="7.81248">
        <ele>2333.8</ele>
        <time>2000-01-01T07:40:38.000Z</time>
      </trkpt>
      <trkpt lat="46.11288" lon="7.81246">
        <ele>2331.7</ele>
        <time>2000-01-01T07:40:48.000Z</time>
      </trkpt>
      <trkpt lat="46.11285" lon="7.81249">
        <ele>2331.7</ele>
        <time>2000-01-01T07:40:58.000Z</time>
      </trkpt>
      <trkpt lat="46.11281" lon="7.81251">
        <ele>2330.8</ele>
        <time>2000-01-01T07:41:08.000Z</time>
      </trkpt>
      <trkpt lat="46.11277" lon="7.8125">
        <ele>2326</ele>
        <time>2000-01-01T07:41:18.000Z</time>
      </trkpt>
      <trkpt lat="46.11275" lon="7.81253">
        <ele>2330.4</ele>
        <time>2000-01-01T07:41:28.000Z</time>
      </trkpt>
      <trkpt lat="46.11268" lon="7.8125">
        <ele>2330.1</ele>
        <time>2000-01-01T07:41:38.000Z</time>
      </trkpt>
      <trkpt lat="46.11262" lon="7.8125">
        <ele>2330.7</ele>
        <time>2000-01-01T07:41:48.000Z</time>
      </trkpt>
      <trkpt lat="46.11259" lon="7.81249">
        <ele>2328</ele>
        <time>2000-01-01T07:41:58.000Z</time>
      </trkpt>
      <trkpt lat="46.11256" lon="7.81247">
        <ele>2330.2</ele>
        <time>2000-01-01T07:42:08.000Z</time>
      </trkpt>
      <trkpt lat="46.11253" lon="7.81247">
        <ele>2330.5</ele>
        <time>2000-01-01T07:42:18.000Z</time>
      </trkpt>
      <trkpt lat="46.1125" lon="7.8125">
        <ele>2332</ele>
        <time>2000-01-01T07:42:28.000Z</time>
      </trkpt>
      <trkpt lat="46.11244" lon="7.81251">
        <ele>2332.9</ele>
        <time>2000-01-01T07:42:38.000Z</time>
      </trkpt>
      <trkpt lat="46.11238" lon="7.8125">
        <ele>2330</ele>
        <time>2000-01-01T07:42:48.000Z</time>
      </trkpt>
      <trkpt lat="46.11228" lon="7.81246">
        <ele>2331.8</ele>
        <time>2000-01-01T07:42:58.000Z</time>
      </trkpt>
      <trkpt lat="46.11224" lon="7.81246">
        <ele>2332</ele>
        <time>2000-01-01T07:43:08.000Z</time>
      </trkpt>
      <trkpt lat="46.11221" lon="7.81247">
        <ele>2332.3</ele>
        <time>2000-01-01T07:43:18.000Z</time>
      </trkpt>
      <trkpt lat="46.11213" lon="7.81257">
        <ele>2332</ele>
        <time>2000-01-01T07:43:28.000Z</time>
      </trkpt>
      <trkpt lat="46.11207" lon="7.81258">
        <ele>2333.8</ele>
        <time>2000-01-01T07:43:38.000Z</time>
      </trkpt>
      <trkpt lat="46.112" lon="7.81262">
        <ele>2333.9</ele>
        <time>2000-01-01T07:43:48.000Z</time>
      </trkpt>
      <trkpt lat="46.11194" lon="7.81267">
        <ele>2334</ele>
        <time>2000-01-01T07:43:58.000Z</time>
      </trkpt>
      <trkpt lat="46.11193" lon="7.81276">
        <ele>2338.3</ele>
        <time>2000-01-01T07:44:08.000Z</time>
      </trkpt>
      <trkpt lat="46.11188" lon="7.81293">
        <ele>2337</ele>
        <time>2000-01-01T07:44:18.000Z</time>
      </trkpt>
      <trkpt lat="46.11183" lon="7.81299">
        <ele>2340.7</ele>
        <time>2000-01-01T07:44:28.000Z</time>
      </trkpt>
      <trkpt lat="46.11179" lon="7.813">
        <ele>2338.7</ele>
        <time>2000-01-01T07:44:38.000Z</time>
      </trkpt>
      <trkpt lat="46.11177" lon="7.81302">
        <ele>2338.1</ele>
        <time>2000-01-01T07:44:48.000Z</time>
      </trkpt>
      <trkpt lat="46.11171" lon="7.81304">
        <ele>2331</ele>
        <time>2000-01-01T07:44:58.000Z</time>
      </trkpt>
      <trkpt lat="46.11168" lon="7.81303">
        <ele>2333</ele>
        <time>2000-01-01T07:45:08.000Z</time>
      </trkpt>
      <trkpt lat="46.11165" lon="7.81306">
        <ele>2332.1</ele>
        <time>2000-01-01T07:45:18.000Z</time>
      </trkpt>
      <trkpt lat="46.11162" lon="7.81305">
        <ele>2329.8</ele>
        <time>2000-01-01T07:45:28.000Z</time>
      </trkpt>
      <trkpt lat="46.11159" lon="7.81303">
        <ele>2327.2</ele>
        <time>2000-01-01T07:45:38.000Z</time>
      </trkpt>
      <trkpt lat="46.11152" lon="7.81303">
        <ele>2325</ele>
        <time>2000-01-01T07:45:48.000Z</time>
      </trkpt>
      <trkpt lat="46.11146" lon="7.81302">
        <ele>2318.4</ele>
        <time>2000-01-01T07:45:58.000Z</time>
      </trkpt>
      <trkpt lat="46.11132" lon="7.81303">
        <ele>2330</ele>
        <time>2000-01-01T07:46:08.000Z</time>
      </trkpt>
      <trkpt lat="46.11127" lon="7.81307">
        <ele>2322.9</ele>
        <time>2000-01-01T07:46:18.000Z</time>
      </trkpt>
      <trkpt lat="46.11118" lon="7.8131">
        <ele>2329.7</ele>
        <time>2000-01-01T07:46:28.000Z</time>
      </trkpt>
      <trkpt lat="46.11112" lon="7.8131">
        <ele>2335</ele>
        <time>2000-01-01T07:46:38.000Z</time>
      </trkpt>
      <trkpt lat="46.11109" lon="7.81309">
        <ele>2333.6</ele>
        <time>2000-01-01T07:46:48.000Z</time>
      </trkpt>
      <trkpt lat="46.11106" lon="7.81309">
        <ele>2333.9</ele>
        <time>2000-01-01T07:46:58.000Z</time>
      </trkpt>
      <trkpt lat="46.11099" lon="7.81311">
        <ele>2335.2</ele>
        <time>2000-01-01T07:47:08.000Z</time>
      </trkpt>
      <trkpt lat="46.11091" lon="7.81312">
        <ele>2338</ele>
        <time>2000-01-01T07:47:18.000Z</time>
      </trkpt>
      <trkpt lat="46.11085" lon="7.81311">
        <ele>2336.2</ele>
        <time>2000-01-01T07:47:28.000Z</time>
      </trkpt>
      <trkpt lat="46.11075" lon="7.81311">
        <ele>2338.8</ele>
        <time>2000-01-01T07:47:38.000Z</time>
      </trkpt>
      <trkpt lat="46.11066" lon="7.81307">
        <ele>2339</ele>
        <time>2000-01-01T07:47:48.000Z</time>
      </trkpt>
      <trkpt lat="46.1106" lon="7.81302">
        <ele>2339.1</ele>
        <time>2000-01-01T07:47:58.000Z</time>
      </trkpt>
      <trkpt lat="46.11054" lon="7.81297">
        <ele>2338.7</ele>
        <time>2000-01-01T07:48:08.000Z</time>
      </trkpt>
      <trkpt lat="46.11047" lon="7.81291">
        <ele>2337</ele>
        <time>2000-01-01T07:48:18.000Z</time>
      </trkpt>
      <trkpt lat="46.11044" lon="7.8129">
        <ele>2340.4</ele>
        <time>2000-01-01T07:48:28.000Z</time>
      </trkpt>
      <trkpt lat="46.11036" lon="7.81286">
        <ele>2342.5</ele>
        <time>2000-01-01T07:48:38.000Z</time>
      </trkpt>
      <trkpt lat="46.11032" lon="7.81282">
        <ele>2342.7</ele>
        <time>2000-01-01T07:48:48.000Z</time>
      </trkpt>
      <trkpt lat="46.11025" lon="7.81271">
        <ele>2337</ele>
        <time>2000-01-01T07:48:58.000Z</time>
      </trkpt>
      <trkpt lat="46.11018" lon="7.81265">
        <ele>2340.4</ele>
        <time>2000-01-01T07:49:08.000Z</time>
      </trkpt>
      <trkpt lat="46.11008" lon="7.8126">
        <ele>2341.3</ele>
        <time>2000-01-01T07:49:18.000Z</time>
      </trkpt>
      <trkpt lat="46.11002" lon="7.81259">
        <ele>2337</ele>
        <time>2000-01-01T07:49:28.000Z</time>
      </trkpt>
      <trkpt lat="46.10993" lon="7.81252">
        <ele>2342</ele>
        <time>2000-01-01T07:49:38.000Z</time>
      </trkpt>
      <trkpt lat="46.10991" lon="7.81248">
        <ele>2340.8</ele>
        <time>2000-01-01T07:49:48.000Z</time>
      </trkpt>
      <trkpt lat="46.10986" lon="7.81222">
        <ele>2332</ele>
        <time>2000-01-01T07:49:58.000Z</time>
      </trkpt>
      <trkpt lat="46.10983" lon="7.81212">
        <ele>2333.7</ele>
        <time>2000-01-01T07:50:08.000Z</time>
      </trkpt>
      <trkpt lat="46.10981" lon="7.812">
        <ele>2332.8</ele>
        <time>2000-01-01T07:50:18.000Z</time>
      </trkpt>
      <trkpt lat="46.10977" lon="7.81188">
        <ele>2330</ele>
        <time>2000-01-01T07:50:28.000Z</time>
      </trkpt>
      <trkpt lat="46.10966" lon="7.81174">
        <ele>2341</ele>
        <time>2000-01-01T07:50:38.000Z</time>
      </trkpt>
      <trkpt lat="46.1096" lon="7.81164">
        <ele>2331</ele>
        <time>2000-01-01T07:50:48.000Z</time>
      </trkpt>
      <trkpt lat="46.10952" lon="7.81157">
        <ele>2344.6</ele>
        <time>2000-01-01T07:50:58.000Z</time>
      </trkpt>
      <trkpt lat="46.10946" lon="7.81148">
        <ele>2332</ele>
        <time>2000-01-01T07:51:08.000Z</time>
      </trkpt>
      <trkpt lat="46.10935" lon="7.81135">
        <ele>2343.6</ele>
        <time>2000-01-01T07:51:18.000Z</time>
      </trkpt>
      <trkpt lat="46.10926" lon="7.81118">
        <ele>2342</ele>
        <time>2000-01-01T07:51:28.000Z</time>
      </trkpt>
      <trkpt lat="46.10919" lon="7.81092">
        <ele>2342</ele>
        <time>2000-01-01T07:51:38.000Z</time>
      </trkpt>
      <trkpt lat="46.10914" lon="7.81082">
        <ele>2335.4</ele>
        <time>2000-01-01T07:51:48.000Z</time>
      </trkpt>
      <trkpt lat="46.10902" lon="7.81068">
        <ele>2341</ele>
        <time>2000-01-01T07:51:58.000Z</time>
      </trkpt>
      <trkpt lat="46.10893" lon="7.81055">
        <ele>2338.7</ele>
        <time>2000-01-01T07:52:08.000Z</time>
      </trkpt>
      <trkpt lat="46.1089" lon="7.81053">
        <ele>2339.3</ele>
        <time>2000-01-01T07:52:18.000Z</time>
      </trkpt>
      <trkpt lat="46.10884" lon="7.81047">
        <ele>2341</ele>
        <time>2000-01-01T07:52:28.000Z</time>
      </trkpt>
      <trkpt lat="46.10882" lon="7.81044">
        <ele>2340.2</ele>
        <time>2000-01-01T07:52:38.000Z</time>
      </trkpt>
      <trkpt lat="46.1088" lon="7.8104">
        <ele>2339.6</ele>
        <time>2000-01-01T07:52:48.000Z</time>
      </trkpt>
      <trkpt lat="46.10879" lon="7.81034">
        <ele>2337.4</ele>
        <time>2000-01-01T07:52:58.000Z</time>
      </trkpt>
      <trkpt lat="46.10879" lon="7.81023">
        <ele>2339</ele>
        <time>2000-01-01T07:53:08.000Z</time>
      </trkpt>
      <trkpt lat="46.10879" lon="7.81016">
        <ele>2330.7</ele>
        <time>2000-01-01T07:53:18.000Z</time>
      </trkpt>
      <trkpt lat="46.10875" lon="7.80998">
        <ele>2328.3</ele>
        <time>2000-01-01T07:53:28.000Z</time>
      </trkpt>
      <trkpt lat="46.10874" lon="7.80988">
        <ele>2330</ele>
        <time>2000-01-01T07:53:38.000Z</time>
      </trkpt>
      <trkpt lat="46.10874" lon="7.80976">
        <ele>2326.7</ele>
        <time>2000-01-01T07:53:48.000Z</time>
      </trkpt>
      <trkpt lat="46.10874" lon="7.80969">
        <ele>2325.9</ele>
        <time>2000-01-01T07:53:58.000Z</time>
      </trkpt>
      <trkpt lat="46.10875" lon="7.80963">
        <ele>2324.3</ele>
        <time>2000-01-01T07:54:08.000Z</time>
      </trkpt>
      <trkpt lat="46.10874" lon="7.80958">
        <ele>2333</ele>
        <time>2000-01-01T07:54:18.000Z</time>
      </trkpt>
      <trkpt lat="46.10871" lon="7.80954">
        <ele>2327</ele>
        <time>2000-01-01T07:54:28.000Z</time>
      </trkpt>
      <trkpt lat="46.1087" lon="7.80948">
        <ele>2327.4</ele>
        <time>2000-01-01T07:54:38.000Z</time>
      </trkpt>
      <trkpt lat="46.10868" lon="7.80937">
        <ele>2327.5</ele>
        <time>2000-01-01T07:54:48.000Z</time>
      </trkpt>
      <trkpt lat="46.10869" lon="7.80925">
        <ele>2336</ele>
        <time>2000-01-01T07:54:58.000Z</time>
      </trkpt>
      <trkpt lat="46.10868" lon="7.80921">
        <ele>2324.2</ele>
        <time>2000-01-01T07:55:08.000Z</time>
      </trkpt>
      <trkpt lat="46.10866" lon="7.80918">
        <ele>2325.5</ele>
        <time>2000-01-01T07:55:18.000Z</time>
      </trkpt>
      <trkpt lat="46.10863" lon="7.80916">
        <ele>2328</ele>
        <time>2000-01-01T07:55:28.000Z</time>
      </trkpt>
      <trkpt lat="46.10861" lon="7.80914">
        <ele>2329.3</ele>
        <time>2000-01-01T07:55:38.000Z</time>
      </trkpt>
      <trkpt lat="46.10858" lon="7.8091">
        <ele>2331.2</ele>
        <time>2000-01-01T07:55:48.000Z</time>
      </trkpt>
      <trkpt lat="46.10857" lon="7.80905">
        <ele>2335</ele>
        <time>2000-01-01T07:55:58.000Z</time>
      </trkpt>
      <trkpt lat="46.10856" lon="7.80892">
        <ele>2327.9</ele>
        <time>2000-01-01T07:56:08.000Z</time>
      </trkpt>
      <trkpt lat="46.10858" lon="7.80876">
        <ele>2335</ele>
        <time>2000-01-01T07:56:18.000Z</time>
      </trkpt>
      <trkpt lat="46.10857" lon="7.8087">
        <ele>2322.8</ele>
        <time>2000-01-01T07:56:28.000Z</time>
      </trkpt>
      <trkpt lat="46.10854" lon="7.8086">
        <ele>2323.8</ele>
        <time>2000-01-01T07:56:38.000Z</time>
      </trkpt>
      <trkpt lat="46.10854" lon="7.80855">
        <ele>2324.7</ele>
        <time>2000-01-01T07:56:48.000Z</time>
      </trkpt>
      <trkpt lat="46.10856" lon="7.80851">
        <ele>2323.7</ele>
        <time>2000-01-01T07:56:58.000Z</time>
      </trkpt>
      <trkpt lat="46.10857" lon="7.80846">
        <ele>2334</ele>
        <time>2000-01-01T07:57:08.000Z</time>
      </trkpt>
      <trkpt lat="46.10858" lon="7.80841">
        <ele>2323.6</ele>
        <time>2000-01-01T07:57:18.000Z</time>
      </trkpt>
      <trkpt lat="46.10859" lon="7.80832">
        <ele>2323.6</ele>
        <time>2000-01-01T07:57:28.000Z</time>
      </trkpt>
      <trkpt lat="46.10859" lon="7.80824">
        <ele>2321.9</ele>
        <time>2000-01-01T07:57:38.000Z</time>
      </trkpt>
      <trkpt lat="46.10856" lon="7.8082">
        <ele>2335</ele>
        <time>2000-01-01T07:57:48.000Z</time>
      </trkpt>
      <trkpt lat="46.1085" lon="7.80817">
        <ele>2328.7</ele>
        <time>2000-01-01T07:57:58.000Z</time>
      </trkpt>
      <trkpt lat="46.10849" lon="7.80813">
        <ele>2328.8</ele>
        <time>2000-01-01T07:58:08.000Z</time>
      </trkpt>
      <trkpt lat="46.10851" lon="7.8081">
        <ele>2326.4</ele>
        <time>2000-01-01T07:58:18.000Z</time>
      </trkpt>
      <trkpt lat="46.10852" lon="7.80807">
        <ele>2324.8</ele>
        <time>2000-01-01T07:58:28.000Z</time>
      </trkpt>
      <trkpt lat="46.10851" lon="7.80802">
        <ele>2324.4</ele>
        <time>2000-01-01T07:58:38.000Z</time>
      </trkpt>
      <trkpt lat="46.10848" lon="7.80802">
        <ele>2332</ele>
        <time>2000-01-01T07:58:48.000Z</time>
      </trkpt>
      <trkpt lat="46.10847" lon="7.80793">
        <ele>2325.6</ele>
        <time>2000-01-01T07:58:58.000Z</time>
      </trkpt>
      <trkpt lat="46.10845" lon="7.80788">
        <ele>2326.1</ele>
        <time>2000-01-01T07:59:08.000Z</time>
      </trkpt>
      <trkpt lat="46.10844" lon="7.80784">
        <ele>2326</ele>
        <time>2000-01-01T07:59:18.000Z</time>
      </trkpt>
      <trkpt lat="46.10841" lon="7.80767">
        <ele>2332</ele>
        <time>2000-01-01T07:59:28.000Z</time>
      </trkpt>
      <trkpt lat="46.10842" lon="7.80761">
        <ele>2323.2</ele>
        <time>2000-01-01T07:59:38.000Z</time>
      </trkpt>
      <trkpt lat="46.10842" lon="7.80754">
        <ele>2322</ele>
        <time>2000-01-01T07:59:48.000Z</time>
      </trkpt>
      <trkpt lat="46.10842" lon="7.80748">
        <ele>2320.8</ele>
        <time>2000-01-01T07:59:58.000Z</time>
      </trkpt>
      <trkpt lat="46.10838" lon="7.80741">
        <ele>2333</ele>
        <time>2000-01-01T08:00:08.000Z</time>
      </trkpt>
      <trkpt lat="46.10835" lon="7.80735">
        <ele>2324.1</ele>
        <time>2000-01-01T08:00:18.000Z</time>
      </trkpt>
      <trkpt lat="46.10829" lon="7.80717">
        <ele>2327</ele>
        <time>2000-01-01T08:00:28.000Z</time>
      </trkpt>
      <trkpt lat="46.10829" lon="7.80711">
        <ele>2324.1</ele>
        <time>2000-01-01T08:00:38.000Z</time>
      </trkpt>
      <trkpt lat="46.10831" lon="7.80705">
        <ele>2321.9</ele>
        <time>2000-01-01T08:00:48.000Z</time>
      </trkpt>
      <trkpt lat="46.10833" lon="7.80702">
        <ele>2320.1</ele>
        <time>2000-01-01T08:00:58.000Z</time>
      </trkpt>
      <trkpt lat="46.10837" lon="7.807">
        <ele>2317</ele>
        <time>2000-01-01T08:01:08.000Z</time>
      </trkpt>
      <trkpt lat="46.10838" lon="7.80696">
        <ele>2322</ele>
        <time>2000-01-01T08:01:18.000Z</time>
      </trkpt>
      <trkpt lat="46.10838" lon="7.80691">
        <ele>2316.1</ele>
        <time>2000-01-01T08:01:28.000Z</time>
      </trkpt>
      <trkpt lat="46.10838" lon="7.80685">
        <ele>2316.4</ele>
        <time>2000-01-01T08:01:38.000Z</time>
      </trkpt>
      <trkpt lat="46.10838" lon="7.80681">
        <ele>2316.5</ele>
        <time>2000-01-01T08:01:48.000Z</time>
      </trkpt>
      <trkpt lat="46.10834" lon="7.80673">
        <ele>2318</ele>
        <time>2000-01-01T08:01:58.000Z</time>
      </trkpt>
      <trkpt lat="46.10833" lon="7.80669">
        <ele>2320</ele>
        <time>2000-01-01T08:02:08.000Z</time>
      </trkpt>
      <trkpt lat="46.10832" lon="7.8066">
        <ele>2318.2</ele>
        <time>2000-01-01T08:02:18.000Z</time>
      </trkpt>
      <trkpt lat="46.10828" lon="7.80646">
        <ele>2318.7</ele>
        <time>2000-01-01T08:02:28.000Z</time>
      </trkpt>
      <trkpt lat="46.10826" lon="7.80641">
        <ele>2319</ele>
        <time>2000-01-01T08:02:38.000Z</time>
      </trkpt>
      <trkpt lat="46.10824" lon="7.80637">
        <ele>2318.7</ele>
        <time>2000-01-01T08:02:48.000Z</time>
      </trkpt>
      <trkpt lat="46.10815" lon="7.80625">
        <ele>2317.6</ele>
        <time>2000-01-01T08:02:58.000Z</time>
      </trkpt>
      <trkpt lat="46.10804" lon="7.80607">
        <ele>2316</ele>
        <time>2000-01-01T08:03:08.000Z</time>
      </trkpt>
      <trkpt lat="46.10798" lon="7.80598">
        <ele>2311.7</ele>
        <time>2000-01-01T08:03:18.000Z</time>
      </trkpt>
      <trkpt lat="46.10794" lon="7.80595">
        <ele>2311.5</ele>
        <time>2000-01-01T08:03:28.000Z</time>
      </trkpt>
      <trkpt lat="46.1079" lon="7.80595">
        <ele>2312.5</ele>
        <time>2000-01-01T08:03:38.000Z</time>
      </trkpt>
      <trkpt lat="46.10787" lon="7.80593">
        <ele>2314</ele>
        <time>2000-01-01T08:03:48.000Z</time>
      </trkpt>
      <trkpt lat="46.10781" lon="7.80584">
        <ele>2310.5</ele>
        <time>2000-01-01T08:03:58.000Z</time>
      </trkpt>
      <trkpt lat="46.10778" lon="7.80582">
        <ele>2310.6</ele>
        <time>2000-01-01T08:04:08.000Z</time>
      </trkpt>
      <trkpt lat="46.10775" lon="7.8058">
        <ele>2310.9</ele>
        <time>2000-01-01T08:04:18.000Z</time>
      </trkpt>
      <trkpt lat="46.10766" lon="7.80579">
        <ele>2313</ele>
        <time>2000-01-01T08:04:28.000Z</time>
      </trkpt>
      <trkpt lat="46.1076" lon="7.80574">
        <ele>2312.8</ele>
        <time>2000-01-01T08:04:38.000Z</time>
      </trkpt>
      <trkpt lat="46.10757" lon="7.8057">
        <ele>2311.7</ele>
        <time>2000-01-01T08:04:48.000Z</time>
      </trkpt>
      <trkpt lat="46.10753" lon="7.80561">
        <ele>2308.3</ele>
        <time>2000-01-01T08:04:58.000Z</time>
      </trkpt>
      <trkpt lat="46.10751" lon="7.80559">
        <ele>2308</ele>
        <time>2000-01-01T08:05:08.000Z</time>
      </trkpt>
      <trkpt lat="46.10748" lon="7.80558">
        <ele>2307.7</ele>
        <time>2000-01-01T08:05:18.000Z</time>
      </trkpt>
      <trkpt lat="46.10746" lon="7.80555">
        <ele>2306.8</ele>
        <time>2000-01-01T08:05:28.000Z</time>
      </trkpt>
      <trkpt lat="46.1074" lon="7.80542">
        <ele>2302.8</ele>
        <time>2000-01-01T08:05:38.000Z</time>
      </trkpt>
      <trkpt lat="46.10735" lon="7.80527">
        <ele>2295</ele>
        <time>2000-01-01T08:05:48.000Z</time>
      </trkpt>
      <trkpt lat="46.10733" lon="7.80521">
        <ele>2295</ele>
        <time>2000-01-01T08:05:58.000Z</time>
      </trkpt>
      <trkpt lat="46.10724" lon="7.80503">
        <ele>2286</ele>
        <time>2000-01-01T08:06:08.000Z</time>
      </trkpt>
      <trkpt lat="46.10721" lon="7.805">
        <ele>2286.7</ele>
        <time>2000-01-01T08:06:18.000Z</time>
      </trkpt>
      <trkpt lat="46.10718" lon="7.80499">
        <ele>2285.7</ele>
        <time>2000-01-01T08:06:28.000Z</time>
      </trkpt>
      <trkpt lat="46.10714" lon="7.805">
        <ele>2285.2</ele>
        <time>2000-01-01T08:06:38.000Z</time>
      </trkpt>
      <trkpt lat="46.1071" lon="7.80501">
        <ele>2284.8</ele>
        <time>2000-01-01T08:06:48.000Z</time>
      </trkpt>
      <trkpt lat="46.10702" lon="7.80498">
        <ele>2278</ele>
        <time>2000-01-01T08:06:58.000Z</time>
      </trkpt>
      <trkpt lat="46.10692" lon="7.805">
        <ele>2280.2</ele>
        <time>2000-01-01T08:07:08.000Z</time>
      </trkpt>
      <trkpt lat="46.10686" lon="7.805">
        <ele>2278.3</ele>
        <time>2000-01-01T08:07:18.000Z</time>
      </trkpt>
      <trkpt lat="46.10683" lon="7.80499">
        <ele>2274</ele>
        <time>2000-01-01T08:07:28.000Z</time>
      </trkpt>
      <trkpt lat="46.1068" lon="7.805">
        <ele>2276.3</ele>
        <time>2000-01-01T08:07:38.000Z</time>
      </trkpt>
      <trkpt lat="46.10676" lon="7.80508">
        <ele>2277.2</ele>
        <time>2000-01-01T08:07:48.000Z</time>
      </trkpt>
      <trkpt lat="46.10674" lon="7.80516">
        <ele>2278.6</ele>
        <time>2000-01-01T08:07:58.000Z</time>
      </trkpt>
      <trkpt lat="46.10672" lon="7.80519">
        <ele>2278.5</ele>
        <time>2000-01-01T08:08:08.000Z</time>
      </trkpt>
      <trkpt lat="46.10666" lon="7.80524">
        <ele>2273</ele>
        <time>2000-01-01T08:08:18.000Z</time>
      </trkpt>
      <trkpt lat="46.10664" lon="7.80527">
        <ele>2276.1</ele>
        <time>2000-01-01T08:08:28.000Z</time>
      </trkpt>
      <trkpt lat="46.10654" lon="7.80534">
        <ele>2272</ele>
        <time>2000-01-01T08:08:38.000Z</time>
      </trkpt>
      <trkpt lat="46.10652" lon="7.80537">
        <ele>2271.8</ele>
        <time>2000-01-01T08:08:48.000Z</time>
      </trkpt>
      <trkpt lat="46.10648" lon="7.80543">
        <ele>2266</ele>
        <time>2000-01-01T08:08:58.000Z</time>
      </trkpt>
      <trkpt lat="46.10644" lon="7.80551">
        <ele>2271.7</ele>
        <time>2000-01-01T08:09:08.000Z</time>
      </trkpt>
      <trkpt lat="46.10641" lon="7.80554">
        <ele>2270.8</ele>
        <time>2000-01-01T08:09:18.000Z</time>
      </trkpt>
      <trkpt lat="46.10632" lon="7.8056">
        <ele>2265</ele>
        <time>2000-01-01T08:09:28.000Z</time>
      </trkpt>
      <trkpt lat="46.10629" lon="7.80562">
        <ele>2268.3</ele>
        <time>2000-01-01T08:09:38.000Z</time>
      </trkpt>
      <trkpt lat="46.10626" lon="7.80562">
        <ele>2266.9</ele>
        <time>2000-01-01T08:09:48.000Z</time>
      </trkpt>
      <trkpt lat="46.10619" lon="7.80559">
        <ele>2262.6</ele>
        <time>2000-01-01T08:09:58.000Z</time>
      </trkpt>
      <trkpt lat="46.10616" lon="7.80563">
        <ele>2262.7</ele>
        <time>2000-01-01T08:10:08.000Z</time>
      </trkpt>
      <trkpt lat="46.10614" lon="7.80568">
        <ele>2261</ele>
        <time>2000-01-01T08:10:18.000Z</time>
      </trkpt>
      <trkpt lat="46.10609" lon="7.80574">
        <ele>2263.6</ele>
        <time>2000-01-01T08:10:28.000Z</time>
      </trkpt>
      <trkpt lat="46.10602" lon="7.80577">
        <ele>2263.1</ele>
        <time>2000-01-01T08:10:38.000Z</time>
      </trkpt>
      <trkpt lat="46.10596" lon="7.80578">
        <ele>2263</ele>
        <time>2000-01-01T08:10:48.000Z</time>
      </trkpt>
      <trkpt lat="46.10594" lon="7.80581">
        <ele>2262.7</ele>
        <time>2000-01-01T08:10:58.000Z</time>
      </trkpt>
      <trkpt lat="46.10593" lon="7.80585">
        <ele>2263.6</ele>
        <time>2000-01-01T08:11:08.000Z</time>
      </trkpt>
      <trkpt lat="46.10592" lon="7.80589">
        <ele>2264.6</ele>
        <time>2000-01-01T08:11:18.000Z</time>
      </trkpt>
      <trkpt lat="46.10593" lon="7.806">
        <ele>2268.1</ele>
        <time>2000-01-01T08:11:28.000Z</time>
      </trkpt>
      <trkpt lat="46.10588" lon="7.80607">
        <ele>2263</ele>
        <time>2000-01-01T08:11:38.000Z</time>
      </trkpt>
      <trkpt lat="46.10585" lon="7.80609">
        <ele>2268</ele>
        <time>2000-01-01T08:11:48.000Z</time>
      </trkpt>
      <trkpt lat="46.10582" lon="7.8061">
        <ele>2267.6</ele>
        <time>2000-01-01T08:11:58.000Z</time>
      </trkpt>
      <trkpt lat="46.10579" lon="7.8061">
        <ele>2267.4</ele>
        <time>2000-01-01T08:12:08.000Z</time>
      </trkpt>
      <trkpt lat="46.10576" lon="7.80611">
        <ele>2267.4</ele>
        <time>2000-01-01T08:12:18.000Z</time>
      </trkpt>
      <trkpt lat="46.10565" lon="7.80609">
        <ele>2262</ele>
        <time>2000-01-01T08:12:28.000Z</time>
      </trkpt>
      <trkpt lat="46.1056" lon="7.80597">
        <ele>2262.3</ele>
        <time>2000-01-01T08:12:38.000Z</time>
      </trkpt>
      <trkpt lat="46.1055" lon="7.80605">
        <ele>2262</ele>
        <time>2000-01-01T08:12:48.000Z</time>
      </trkpt>
      <trkpt lat="46.10539" lon="7.8061">
        <ele>2262.5</ele>
        <time>2000-01-01T08:12:58.000Z</time>
      </trkpt>
      <trkpt lat="46.10529" lon="7.80619">
        <ele>2261</ele>
        <time>2000-01-01T08:13:08.000Z</time>
      </trkpt>
      <trkpt lat="46.10507" lon="7.80644">
        <ele>2260</ele>
        <time>2000-01-01T08:13:18.000Z</time>
      </trkpt>
      <trkpt lat="46.10491" lon="7.80647">
        <ele>2259.8</ele>
        <time>2000-01-01T08:13:28.000Z</time>
      </trkpt>
      <trkpt lat="46.10482" lon="7.8065">
        <ele>2253</ele>
        <time>2000-01-01T08:13:38.000Z</time>
      </trkpt>
      <trkpt lat="46.10471" lon="7.80656">
        <ele>2254.6</ele>
        <time>2000-01-01T08:13:48.000Z</time>
      </trkpt>
      <trkpt lat="46.1045" lon="7.80664">
        <ele>2249</ele>
        <time>2000-01-01T08:13:58.000Z</time>
      </trkpt>
      <trkpt lat="46.10441" lon="7.80667">
        <ele>2250.2</ele>
        <time>2000-01-01T08:14:08.000Z</time>
      </trkpt>
      <trkpt lat="46.10415" lon="7.80666">
        <ele>2237</ele>
        <time>2000-01-01T08:14:18.000Z</time>
      </trkpt>
      <trkpt lat="46.10399" lon="7.8067">
        <ele>2237.9</ele>
        <time>2000-01-01T08:14:28.000Z</time>
      </trkpt>
      <trkpt lat="46.10387" lon="7.80682">
        <ele>2236</ele>
        <time>2000-01-01T08:14:38.000Z</time>
      </trkpt>
      <trkpt lat="46.10375" lon="7.80688">
        <ele>2234.4</ele>
        <time>2000-01-01T08:14:48.000Z</time>
      </trkpt>
      <trkpt lat="46.10366" lon="7.80691">
        <ele>2229</ele>
        <time>2000-01-01T08:14:58.000Z</time>
      </trkpt>
      <trkpt lat="46.1036" lon="7.80674">
        <ele>2224</ele>
        <time>2000-01-01T08:15:08.000Z</time>
      </trkpt>
      <trkpt lat="46.10356" lon="7.80657">
        <ele>2213</ele>
        <time>2000-01-01T08:15:18.000Z</time>
      </trkpt>
      <trkpt lat="46.10342" lon="7.80654">
        <ele>2211.5</ele>
        <time>2000-01-01T08:15:28.000Z</time>
      </trkpt>
      <trkpt lat="46.10331" lon="7.80646">
        <ele>2202</ele>
        <time>2000-01-01T08:15:38.000Z</time>
      </trkpt>
      <trkpt lat="46.10321" lon="7.80643">
        <ele>2200.5</ele>
        <time>2000-01-01T08:15:48.000Z</time>
      </trkpt>
      <trkpt lat="46.10318" lon="7.80624">
        <ele>2188</ele>
        <time>2000-01-01T08:15:58.000Z</time>
      </trkpt>
      <trkpt lat="46.10306" lon="7.80624">
        <ele>2187.8</ele>
        <time>2000-01-01T08:16:08.000Z</time>
      </trkpt>
      <trkpt lat="46.10308" lon="7.80609">
        <ele>2175</ele>
        <time>2000-01-01T08:16:18.000Z</time>
      </trkpt>
      <trkpt lat="46.10309" lon="7.80594">
        <ele>2177.2</ele>
        <time>2000-01-01T08:16:28.000Z</time>
      </trkpt>
      <trkpt lat="46.10301" lon="7.80585">
        <ele>2167</ele>
        <time>2000-01-01T08:16:38.000Z</time>
      </trkpt>
      <trkpt lat="46.10293" lon="7.80594">
        <ele>2168.8</ele>
        <time>2000-01-01T08:16:48.000Z</time>
      </trkpt>
      <trkpt lat="46.10277" lon="7.80619">
        <ele>2163</ele>
        <time>2000-01-01T08:16:58.000Z</time>
      </trkpt>
      <trkpt lat="46.10263" lon="7.80626">
        <ele>2166.3</ele>
        <time>2000-01-01T08:17:08.000Z</time>
      </trkpt>
      <trkpt lat="46.10252" lon="7.80629">
        <ele>2157</ele>
        <time>2000-01-01T08:17:18.000Z</time>
      </trkpt>
      <trkpt lat="46.10243" lon="7.80634">
        <ele>2158.9</ele>
        <time>2000-01-01T08:17:28.000Z</time>
      </trkpt>
      <trkpt lat="46.10239" lon="7.80612">
        <ele>2142</ele>
        <time>2000-01-01T08:17:38.000Z</time>
      </trkpt>
      <trkpt lat="46.10229" lon="7.80607">
        <ele>2140.9</ele>
        <time>2000-01-01T08:17:48.000Z</time>
      </trkpt>
      <trkpt lat="46.10233" lon="7.80584">
        <ele>2129</ele>
        <time>2000-01-01T08:17:58.000Z</time>
      </trkpt>
      <trkpt lat="46.10241" lon="7.80578">
        <ele>2134.7</ele>
        <time>2000-01-01T08:18:08.000Z</time>
      </trkpt>
      <trkpt lat="46.1023" lon="7.80572">
        <ele>2125</ele>
        <time>2000-01-01T08:18:18.000Z</time>
      </trkpt>
      <trkpt lat="46.1024" lon="7.80561">
        <ele>2126.5</ele>
        <time>2000-01-01T08:18:28.000Z</time>
      </trkpt>
      <trkpt lat="46.10244" lon="7.80547">
        <ele>2116</ele>
        <time>2000-01-01T08:18:38.000Z</time>
      </trkpt>
      <trkpt lat="46.10244" lon="7.80529">
        <ele>2113.2</ele>
        <time>2000-01-01T08:18:48.000Z</time>
      </trkpt>
      <trkpt lat="46.10247" lon="7.80515">
        <ele>2104</ele>
        <time>2000-01-01T08:18:58.000Z</time>
      </trkpt>
      <trkpt lat="46.10244" lon="7.80501">
        <ele>2101.7</ele>
        <time>2000-01-01T08:19:08.000Z</time>
      </trkpt>
      <trkpt lat="46.10234" lon="7.80498">
        <ele>2093</ele>
        <time>2000-01-01T08:19:18.000Z</time>
      </trkpt>
      <trkpt lat="46.10225" lon="7.80484">
        <ele>2091.7</ele>
        <time>2000-01-01T08:19:28.000Z</time>
      </trkpt>
      <trkpt lat="46.10229" lon="7.80466">
        <ele>2078</ele>
        <time>2000-01-01T08:19:38.000Z</time>
      </trkpt>
      <trkpt lat="46.10233" lon="7.8045">
        <ele>2082.1</ele>
        <time>2000-01-01T08:19:48.000Z</time>
      </trkpt>
      <trkpt lat="46.10246" lon="7.80434">
        <ele>2076</ele>
        <time>2000-01-01T08:19:58.000Z</time>
      </trkpt>
      <trkpt lat="46.10267" lon="7.80419">
        <ele>2076</ele>
        <time>2000-01-01T08:20:08.000Z</time>
      </trkpt>
      <trkpt lat="46.10258" lon="7.80396">
        <ele>2069.8</ele>
        <time>2000-01-01T08:20:18.000Z</time>
      </trkpt>
      <trkpt lat="46.10251" lon="7.80386">
        <ele>2059</ele>
        <time>2000-01-01T08:20:28.000Z</time>
      </trkpt>
      <trkpt lat="46.10241" lon="7.80371">
        <ele>2052.1</ele>
        <time>2000-01-01T08:20:38.000Z</time>
      </trkpt>
      <trkpt lat="46.10235" lon="7.8036">
        <ele>2041</ele>
        <time>2000-01-01T08:20:48.000Z</time>
      </trkpt>
      <trkpt lat="46.10226" lon="7.80349">
        <ele>2035.7</ele>
        <time>2000-01-01T08:20:58.000Z</time>
      </trkpt>
      <trkpt lat="46.1021" lon="7.80328">
        <ele>2010</ele>
        <time>2000-01-01T08:21:08.000Z</time>
      </trkpt>
      <trkpt lat="46.10202" lon="7.80316">
        <ele>2009.3</ele>
        <time>2000-01-01T08:21:18.000Z</time>
      </trkpt>
      <trkpt lat="46.10184" lon="7.80292">
        <ele>1996</ele>
        <time>2000-01-01T08:21:28.000Z</time>
      </trkpt>
      <trkpt lat="46.1017" lon="7.80271">
        <ele>1987</ele>
        <time>2000-01-01T08:21:38.000Z</time>
      </trkpt>
      <trkpt lat="46.10161" lon="7.80261">
        <ele>1982.2</ele>
        <time>2000-01-01T08:21:48.000Z</time>
      </trkpt>
      <trkpt lat="46.10141" lon="7.80232">
        <ele>1987</ele>
        <time>2000-01-01T08:21:58.000Z</time>
      </trkpt>
      <trkpt lat="46.10123" lon="7.80208">
        <ele>1987</ele>
        <time>2000-01-01T08:22:08.000Z</time>
      </trkpt>
      <trkpt lat="46.10113" lon="7.80198">
        <ele>1985.9</ele>
        <time>2000-01-01T08:22:18.000Z</time>
      </trkpt>
      <trkpt lat="46.10096" lon="7.80175">
        <ele>1990</ele>
        <time>2000-01-01T08:22:28.000Z</time>
      </trkpt>
      <trkpt lat="46.10082" lon="7.80159">
        <ele>1990.8</ele>
        <time>2000-01-01T08:22:38.000Z</time>
      </trkpt>
      <trkpt lat="46.10071" lon="7.80145">
        <ele>1992</ele>
        <time>2000-01-01T08:22:48.000Z</time>
      </trkpt>
      <trkpt lat="46.1005" lon="7.80114">
        <ele>2014</ele>
        <time>2000-01-01T08:22:58.000Z</time>
      </trkpt>
      <trkpt lat="46.1004" lon="7.801">
        <ele>2006.9</ele>
        <time>2000-01-01T08:23:08.000Z</time>
      </trkpt>
      <trkpt lat="46.10011" lon="7.80063">
        <ele>2040</ele>
        <time>2000-01-01T08:23:18.000Z</time>
      </trkpt>
      <trkpt lat="46.1" lon="7.80049">
        <ele>2029.8</ele>
        <time>2000-01-01T08:23:28.000Z</time>
      </trkpt>
      <trkpt lat="46.0998" lon="7.80019">
        <ele>2064</ele>
        <time>2000-01-01T08:23:38.000Z</time>
      </trkpt>
      <trkpt lat="46.09965" lon="7.80001">
        <ele>2070</ele>
        <time>2000-01-01T08:23:48.000Z</time>
      </trkpt>
      <trkpt lat="46.09958" lon="7.79992">
        <ele>2059.2</ele>
        <time>2000-01-01T08:23:58.000Z</time>
      </trkpt>
      <trkpt lat="46.09953" lon="7.79978">
        <ele>2069</ele>
        <time>2000-01-01T08:24:08.000Z</time>
      </trkpt>
      <trkpt lat="46.09955" lon="7.79962">
        <ele>2060.4</ele>
        <time>2000-01-01T08:24:18.000Z</time>
      </trkpt>
      <trkpt lat="46.09951" lon="7.79942">
        <ele>2070</ele>
        <time>2000-01-01T08:24:28.000Z</time>
      </trkpt>
      <trkpt lat="46.09934" lon="7.79923">
        <ele>2069</ele>
        <time>2000-01-01T08:24:38.000Z</time>
      </trkpt>
      <trkpt lat="46.09921" lon="7.79895">
        <ele>2068</ele>
        <time>2000-01-01T08:24:48.000Z</time>
      </trkpt>
      <trkpt lat="46.09915" lon="7.79872">
        <ele>2057.4</ele>
        <time>2000-01-01T08:24:58.000Z</time>
      </trkpt>
      <trkpt lat="46.09908" lon="7.79858">
        <ele>2064</ele>
        <time>2000-01-01T08:25:08.000Z</time>
      </trkpt>
      <trkpt lat="46.0989" lon="7.79838">
        <ele>2064</ele>
        <time>2000-01-01T08:25:18.000Z</time>
      </trkpt>
      <trkpt lat="46.09883" lon="7.79824">
        <ele>2055.3</ele>
        <time>2000-01-01T08:25:28.000Z</time>
      </trkpt>
      <trkpt lat="46.09877" lon="7.7981">
        <ele>2065</ele>
        <time>2000-01-01T08:25:38.000Z</time>
      </trkpt>
      <trkpt lat="46.09863" lon="7.798">
        <ele>2056.4</ele>
        <time>2000-01-01T08:25:48.000Z</time>
      </trkpt>
      <trkpt lat="46.09849" lon="7.79801">
        <ele>2070</ele>
        <time>2000-01-01T08:25:58.000Z</time>
      </trkpt>
      <trkpt lat="46.09839" lon="7.79804">
        <ele>2062.4</ele>
        <time>2000-01-01T08:26:08.000Z</time>
      </trkpt>
      <trkpt lat="46.09827" lon="7.79806">
        <ele>2072</ele>
        <time>2000-01-01T08:26:18.000Z</time>
      </trkpt>
      <trkpt lat="46.09815" lon="7.79806">
        <ele>2066.1</ele>
        <time>2000-01-01T08:26:28.000Z</time>
      </trkpt>
      <trkpt lat="46.09805" lon="7.79817">
        <ele>2075</ele>
        <time>2000-01-01T08:26:38.000Z</time>
      </trkpt>
      <trkpt lat="46.098" lon="7.79839">
        <ele>2073.1</ele>
        <time>2000-01-01T08:26:48.000Z</time>
      </trkpt>
      <trkpt lat="46.09793" lon="7.79848">
        <ele>2082</ele>
        <time>2000-01-01T08:26:58.000Z</time>
      </trkpt>
      <trkpt lat="46.0979" lon="7.79864">
        <ele>2077.8</ele>
        <time>2000-01-01T08:27:08.000Z</time>
      </trkpt>
      <trkpt lat="46.09796" lon="7.79898">
        <ele>2093</ele>
        <time>2000-01-01T08:27:18.000Z</time>
      </trkpt>
      <trkpt lat="46.09795" lon="7.79914">
        <ele>2084.5</ele>
        <time>2000-01-01T08:27:28.000Z</time>
      </trkpt>
      <trkpt lat="46.09798" lon="7.79934">
        <ele>2101</ele>
        <time>2000-01-01T08:27:38.000Z</time>
      </trkpt>
      <trkpt lat="46.09804" lon="7.79948">
        <ele>2091.6</ele>
        <time>2000-01-01T08:27:48.000Z</time>
      </trkpt>
      <trkpt lat="46.09807" lon="7.79964">
        <ele>2107</ele>
        <time>2000-01-01T08:27:58.000Z</time>
      </trkpt>
      <trkpt lat="46.0982" lon="7.7998">
        <ele>2097.5</ele>
        <time>2000-01-01T08:28:08.000Z</time>
      </trkpt>
      <trkpt lat="46.09832" lon="7.80012">
        <ele>2114</ele>
        <time>2000-01-01T08:28:18.000Z</time>
      </trkpt>
      <trkpt lat="46.09843" lon="7.80036">
        <ele>2118</ele>
        <time>2000-01-01T08:28:28.000Z</time>
      </trkpt>
      <trkpt lat="46.09848" lon="7.80052">
        <ele>2112</ele>
        <time>2000-01-01T08:28:38.000Z</time>
      </trkpt>
      <trkpt lat="46.09854" lon="7.80063">
        <ele>2126</ele>
        <time>2000-01-01T08:28:48.000Z</time>
      </trkpt>
      <trkpt lat="46.09869" lon="7.80086">
        <ele>2130</ele>
        <time>2000-01-01T08:28:58.000Z</time>
      </trkpt>
      <trkpt lat="46.09878" lon="7.80103">
        <ele>2121.8</ele>
        <time>2000-01-01T08:29:08.000Z</time>
      </trkpt>
      <trkpt lat="46.09867" lon="7.80105">
        <ele>2139</ele>
        <time>2000-01-01T08:29:18.000Z</time>
      </trkpt>
      <trkpt lat="46.09856" lon="7.80103">
        <ele>2129.7</ele>
        <time>2000-01-01T08:29:28.000Z</time>
      </trkpt>
      <trkpt lat="46.09816" lon="7.80087">
        <ele>2152</ele>
        <time>2000-01-01T08:29:38.000Z</time>
      </trkpt>
      <trkpt lat="46.09805" lon="7.8008">
        <ele>2138.9</ele>
        <time>2000-01-01T08:29:48.000Z</time>
      </trkpt>
      <trkpt lat="46.09796" lon="7.8008">
        <ele>2159</ele>
        <time>2000-01-01T08:29:58.000Z</time>
      </trkpt>
      <trkpt lat="46.0978" lon="7.80078">
        <ele>2147.7</ele>
        <time>2000-01-01T08:30:08.000Z</time>
      </trkpt>
      <trkpt lat="46.09757" lon="7.80072">
        <ele>2163</ele>
        <time>2000-01-01T08:30:18.000Z</time>
      </trkpt>
      <trkpt lat="46.09748" lon="7.80069">
        <ele>2155.5</ele>
        <time>2000-01-01T08:30:28.000Z</time>
      </trkpt>
      <trkpt lat="46.09734" lon="7.80064">
        <ele>2168</ele>
        <time>2000-01-01T08:30:38.000Z</time>
      </trkpt>
      <trkpt lat="46.09722" lon="7.80062">
        <ele>2161</ele>
        <time>2000-01-01T08:30:48.000Z</time>
      </trkpt>
      <trkpt lat="46.09712" lon="7.80063">
        <ele>2174</ele>
        <time>2000-01-01T08:30:58.000Z</time>
      </trkpt>
      <trkpt lat="46.09703" lon="7.80061">
        <ele>2164.1</ele>
        <time>2000-01-01T08:31:08.000Z</time>
      </trkpt>
      <trkpt lat="46.09693" lon="7.80063">
        <ele>2173</ele>
        <time>2000-01-01T08:31:18.000Z</time>
      </trkpt>
      <trkpt lat="46.09683" lon="7.8006">
        <ele>2168.5</ele>
        <time>2000-01-01T08:31:28.000Z</time>
      </trkpt>
      <trkpt lat="46.09671" lon="7.8006">
        <ele>2177</ele>
        <time>2000-01-01T08:31:38.000Z</time>
      </trkpt>
      <trkpt lat="46.09682" lon="7.80072">
        <ele>2176.2</ele>
        <time>2000-01-01T08:31:48.000Z</time>
      </trkpt>
      <trkpt lat="46.09693" lon="7.80079">
        <ele>2182</ele>
        <time>2000-01-01T08:31:58.000Z</time>
      </trkpt>
      <trkpt lat="46.09704" lon="7.80089">
        <ele>2181.8</ele>
        <time>2000-01-01T08:32:08.000Z</time>
      </trkpt>
      <trkpt lat="46.09713" lon="7.80102">
        <ele>2188</ele>
        <time>2000-01-01T08:32:18.000Z</time>
      </trkpt>
      <trkpt lat="46.09736" lon="7.80125">
        <ele>2195</ele>
        <time>2000-01-01T08:32:28.000Z</time>
      </trkpt>
      <trkpt lat="46.0973" lon="7.80134">
        <ele>2196.5</ele>
        <time>2000-01-01T08:32:38.000Z</time>
      </trkpt>
      <trkpt lat="46.0972" lon="7.80134">
        <ele>2207</ele>
        <time>2000-01-01T08:32:48.000Z</time>
      </trkpt>
      <trkpt lat="46.09691" lon="7.8013">
        <ele>2210</ele>
        <time>2000-01-01T08:32:58.000Z</time>
      </trkpt>
      <trkpt lat="46.09666" lon="7.80123">
        <ele>2211</ele>
        <time>2000-01-01T08:33:08.000Z</time>
      </trkpt>
      <trkpt lat="46.09634" lon="7.80115">
        <ele>2212</ele>
        <time>2000-01-01T08:33:18.000Z</time>
      </trkpt>
      <trkpt lat="46.0962" lon="7.8011">
        <ele>2211.6</ele>
        <time>2000-01-01T08:33:28.000Z</time>
      </trkpt>
      <trkpt lat="46.09609" lon="7.80103">
        <ele>2212</ele>
        <time>2000-01-01T08:33:38.000Z</time>
      </trkpt>
      <trkpt lat="46.09602" lon="7.80091">
        <ele>2209.2</ele>
        <time>2000-01-01T08:33:48.000Z</time>
      </trkpt>
      <trkpt lat="46.09588" lon="7.80081">
        <ele>2212</ele>
        <time>2000-01-01T08:33:58.000Z</time>
      </trkpt>
      <trkpt lat="46.0957" lon="7.80074">
        <ele>2210</ele>
        <time>2000-01-01T08:34:08.000Z</time>
      </trkpt>
      <trkpt lat="46.09541" lon="7.80069">
        <ele>2209</ele>
        <time>2000-01-01T08:34:18.000Z</time>
      </trkpt>
      <trkpt lat="46.09526" lon="7.80068">
        <ele>2209.9</ele>
        <time>2000-01-01T08:34:28.000Z</time>
      </trkpt>
      <trkpt lat="46.09508" lon="7.80068">
        <ele>2208</ele>
        <time>2000-01-01T08:34:38.000Z</time>
      </trkpt>
      <trkpt lat="46.09487" lon="7.80066">
        <ele>2208</ele>
        <time>2000-01-01T08:34:48.000Z</time>
      </trkpt>
      <trkpt lat="46.09465" lon="7.80062">
        <ele>2208</ele>
        <time>2000-01-01T08:34:58.000Z</time>
      </trkpt>
      <trkpt lat="46.09456" lon="7.80064">
        <ele>2210.8</ele>
        <time>2000-01-01T08:35:08.000Z</time>
      </trkpt>
      <trkpt lat="46.09427" lon="7.80065">
        <ele>2207</ele>
        <time>2000-01-01T08:35:18.000Z</time>
      </trkpt>
      <trkpt lat="46.09412" lon="7.80071">
        <ele>2212.5</ele>
        <time>2000-01-01T08:35:28.000Z</time>
      </trkpt>
      <trkpt lat="46.09401" lon="7.80069">
        <ele>2207</ele>
        <time>2000-01-01T08:35:38.000Z</time>
      </trkpt>
      <trkpt lat="46.09388" lon="7.80072">
        <ele>2211</ele>
        <time>2000-01-01T08:35:48.000Z</time>
      </trkpt>
      <trkpt lat="46.0937" lon="7.80075">
        <ele>2208</ele>
        <time>2000-01-01T08:35:58.000Z</time>
      </trkpt>
      <trkpt lat="46.09355" lon="7.8008">
        <ele>2214.5</ele>
        <time>2000-01-01T08:36:08.000Z</time>
      </trkpt>
      <trkpt lat="46.09342" lon="7.80081">
        <ele>2209</ele>
        <time>2000-01-01T08:36:18.000Z</time>
      </trkpt>
      <trkpt lat="46.09332" lon="7.8007">
        <ele>2209.7</ele>
        <time>2000-01-01T08:36:28.000Z</time>
      </trkpt>
      <trkpt lat="46.0931" lon="7.80053">
        <ele>2206</ele>
        <time>2000-01-01T08:36:38.000Z</time>
      </trkpt>
      <trkpt lat="46.09291" lon="7.80035">
        <ele>2204</ele>
        <time>2000-01-01T08:36:48.000Z</time>
      </trkpt>
      <trkpt lat="46.09274" lon="7.80027">
        <ele>2213.6</ele>
        <time>2000-01-01T08:36:58.000Z</time>
      </trkpt>
      <trkpt lat="46.09267" lon="7.80018">
        <ele>2217</ele>
        <time>2000-01-01T08:37:08.000Z</time>
      </trkpt>
      <trkpt lat="46.09258" lon="7.80012">
        <ele>2201.7</ele>
        <time>2000-01-01T08:37:18.000Z</time>
      </trkpt>
      <trkpt lat="46.09225" lon="7.80045">
        <ele>2231</ele>
        <time>2000-01-01T08:37:28.000Z</time>
      </trkpt>
      <trkpt lat="46.09214" lon="7.80049">
        <ele>2236.6</ele>
        <time>2000-01-01T08:37:38.000Z</time>
      </trkpt>
      <trkpt lat="46.09192" lon="7.80044">
        <ele>2232</ele>
        <time>2000-01-01T08:37:48.000Z</time>
      </trkpt>
      <trkpt lat="46.09184" lon="7.80037">
        <ele>2233.4</ele>
        <time>2000-01-01T08:37:58.000Z</time>
      </trkpt>
      <trkpt lat="46.09132" lon="7.7999">
        <ele>2231</ele>
        <time>2000-01-01T08:38:08.000Z</time>
      </trkpt>
      <trkpt lat="46.09116" lon="7.79969">
        <ele>2230</ele>
        <time>2000-01-01T08:38:18.000Z</time>
      </trkpt>
      <trkpt lat="46.09104" lon="7.79959">
        <ele>2224.6</ele>
        <time>2000-01-01T08:38:28.000Z</time>
      </trkpt>
      <trkpt lat="46.09091" lon="7.79939">
        <ele>2221</ele>
        <time>2000-01-01T08:38:38.000Z</time>
      </trkpt>
      <trkpt lat="46.09082" lon="7.79928">
        <ele>2218.4</ele>
        <time>2000-01-01T08:38:48.000Z</time>
      </trkpt>
      <trkpt lat="46.0907" lon="7.79916">
        <ele>2212</ele>
        <time>2000-01-01T08:38:58.000Z</time>
      </trkpt>
      <trkpt lat="46.09055" lon="7.79926">
        <ele>2215.3</ele>
        <time>2000-01-01T08:39:08.000Z</time>
      </trkpt>
      <trkpt lat="46.09044" lon="7.79937">
        <ele>2205</ele>
        <time>2000-01-01T08:39:18.000Z</time>
      </trkpt>
      <trkpt lat="46.09029" lon="7.79958">
        <ele>2205</ele>
        <time>2000-01-01T08:39:28.000Z</time>
      </trkpt>
      <trkpt lat="46.09021" lon="7.79966">
        <ele>2215.5</ele>
        <time>2000-01-01T08:39:38.000Z</time>
      </trkpt>
      <trkpt lat="46.09014" lon="7.79975">
        <ele>2203</ele>
        <time>2000-01-01T08:39:48.000Z</time>
      </trkpt>
      <trkpt lat="46.08992" lon="7.7999">
        <ele>2201</ele>
        <time>2000-01-01T08:39:58.000Z</time>
      </trkpt>
      <trkpt lat="46.08981" lon="7.79996">
        <ele>2203</ele>
        <time>2000-01-01T08:40:08.000Z</time>
      </trkpt>
      <trkpt lat="46.08971" lon="7.80003">
        <ele>2201</ele>
        <time>2000-01-01T08:40:18.000Z</time>
      </trkpt>
      <trkpt lat="46.0896" lon="7.80014">
        <ele>2198.9</ele>
        <time>2000-01-01T08:40:28.000Z</time>
      </trkpt>
      <trkpt lat="46.08956" lon="7.80032">
        <ele>2201</ele>
        <time>2000-01-01T08:40:38.000Z</time>
      </trkpt>
      <trkpt lat="46.08948" lon="7.80038">
        <ele>2205.6</ele>
        <time>2000-01-01T08:40:48.000Z</time>
      </trkpt>
      <trkpt lat="46.08933" lon="7.80054">
        <ele>2193</ele>
        <time>2000-01-01T08:40:58.000Z</time>
      </trkpt>
      <trkpt lat="46.08914" lon="7.80076">
        <ele>2192</ele>
        <time>2000-01-01T08:41:08.000Z</time>
      </trkpt>
      <trkpt lat="46.08906" lon="7.80093">
        <ele>2196.4</ele>
        <time>2000-01-01T08:41:18.000Z</time>
      </trkpt>
      <trkpt lat="46.08895" lon="7.8011">
        <ele>2191</ele>
        <time>2000-01-01T08:41:28.000Z</time>
      </trkpt>
      <trkpt lat="46.08888" lon="7.80123">
        <ele>2195.1</ele>
        <time>2000-01-01T08:41:38.000Z</time>
      </trkpt>
      <trkpt lat="46.08871" lon="7.80136">
        <ele>2188</ele>
        <time>2000-01-01T08:41:48.000Z</time>
      </trkpt>
      <trkpt lat="46.08862" lon="7.80142">
        <ele>2190.2</ele>
        <time>2000-01-01T08:41:58.000Z</time>
      </trkpt>
      <trkpt lat="46.08855" lon="7.80159">
        <ele>2187</ele>
        <time>2000-01-01T08:42:08.000Z</time>
      </trkpt>
      <trkpt lat="46.08848" lon="7.8017">
        <ele>2201.2</ele>
        <time>2000-01-01T08:42:18.000Z</time>
      </trkpt>
      <trkpt lat="46.08837" lon="7.80182">
        <ele>2193</ele>
        <time>2000-01-01T08:42:28.000Z</time>
      </trkpt>
      <trkpt lat="46.0884" lon="7.802">
        <ele>2208.6</ele>
        <time>2000-01-01T08:42:38.000Z</time>
      </trkpt>
      <trkpt lat="46.08837" lon="7.80264">
        <ele>2199</ele>
        <time>2000-01-01T08:42:48.000Z</time>
      </trkpt>
      <trkpt lat="46.08845" lon="7.80279">
        <ele>2222</ele>
        <time>2000-01-01T08:42:58.000Z</time>
      </trkpt>
      <trkpt lat="46.08863" lon="7.80291">
        <ele>2273</ele>
        <time>2000-01-01T08:43:08.000Z</time>
      </trkpt>
      <trkpt lat="46.08873" lon="7.80303">
        <ele>2300.2</ele>
        <time>2000-01-01T08:43:18.000Z</time>
      </trkpt>
      <trkpt lat="46.08863" lon="7.80307">
        <ele>2257</ele>
        <time>2000-01-01T08:43:28.000Z</time>
      </trkpt>
      <trkpt lat="46.08851" lon="7.80307">
        <ele>2269</ele>
        <time>2000-01-01T08:43:38.000Z</time>
      </trkpt>
      <trkpt lat="46.08835" lon="7.80319">
        <ele>2242</ele>
        <time>2000-01-01T08:43:48.000Z</time>
      </trkpt>
      <trkpt lat="46.08824" lon="7.80321">
        <ele>2248.8</ele>
        <time>2000-01-01T08:43:58.000Z</time>
      </trkpt>
      <trkpt lat="46.08814" lon="7.80316">
        <ele>2223</ele>
        <time>2000-01-01T08:44:08.000Z</time>
      </trkpt>
      <trkpt lat="46.08804" lon="7.80312">
        <ele>2217.6</ele>
        <time>2000-01-01T08:44:18.000Z</time>
      </trkpt>
      <trkpt lat="46.08785" lon="7.80303">
        <ele>2222</ele>
        <time>2000-01-01T08:44:28.000Z</time>
      </trkpt>
      <trkpt lat="46.08783" lon="7.80322">
        <ele>2229.9</ele>
        <time>2000-01-01T08:44:38.000Z</time>
      </trkpt>
      <trkpt lat="46.08772" lon="7.80322">
        <ele>2222</ele>
        <time>2000-01-01T08:44:48.000Z</time>
      </trkpt>
      <trkpt lat="46.08761" lon="7.80324">
        <ele>2220.2</ele>
        <time>2000-01-01T08:44:58.000Z</time>
      </trkpt>
      <trkpt lat="46.08751" lon="7.80329">
        <ele>2218</ele>
        <time>2000-01-01T08:45:08.000Z</time>
      </trkpt>
      <trkpt lat="46.08737" lon="7.80353">
        <ele>2219</ele>
        <time>2000-01-01T08:45:18.000Z</time>
      </trkpt>
      <trkpt lat="46.0873" lon="7.80363">
        <ele>2218.5</ele>
        <time>2000-01-01T08:45:28.000Z</time>
      </trkpt>
      <trkpt lat="46.08724" lon="7.80375">
        <ele>2220</ele>
        <time>2000-01-01T08:45:38.000Z</time>
      </trkpt>
      <trkpt lat="46.08716" lon="7.80383">
        <ele>2222.7</ele>
        <time>2000-01-01T08:45:48.000Z</time>
      </trkpt>
      <trkpt lat="46.08697" lon="7.80401">
        <ele>2220</ele>
        <time>2000-01-01T08:45:58.000Z</time>
      </trkpt>
      <trkpt lat="46.08689" lon="7.8041">
        <ele>2224.2</ele>
        <time>2000-01-01T08:46:08.000Z</time>
      </trkpt>
      <trkpt lat="46.08681" lon="7.80417">
        <ele>2217</ele>
        <time>2000-01-01T08:46:18.000Z</time>
      </trkpt>
      <trkpt lat="46.08673" lon="7.80427">
        <ele>2227.6</ele>
        <time>2000-01-01T08:46:28.000Z</time>
      </trkpt>
      <trkpt lat="46.08662" lon="7.80419">
        <ele>2222</ele>
        <time>2000-01-01T08:46:38.000Z</time>
      </trkpt>
      <trkpt lat="46.08649" lon="7.80436">
        <ele>2221.7</ele>
        <time>2000-01-01T08:46:48.000Z</time>
      </trkpt>
      <trkpt lat="46.08644" lon="7.80458">
        <ele>2220</ele>
        <time>2000-01-01T08:46:58.000Z</time>
      </trkpt>
      <trkpt lat="46.08627" lon="7.80456">
        <ele>2223.2</ele>
        <time>2000-01-01T08:47:08.000Z</time>
      </trkpt>
      <trkpt lat="46.08619" lon="7.80466">
        <ele>2223</ele>
        <time>2000-01-01T08:47:18.000Z</time>
      </trkpt>
      <trkpt lat="46.08611" lon="7.80471">
        <ele>2228</ele>
        <time>2000-01-01T08:47:28.000Z</time>
      </trkpt>
      <trkpt lat="46.08595" lon="7.8049">
        <ele>2226</ele>
        <time>2000-01-01T08:47:38.000Z</time>
      </trkpt>
      <trkpt lat="46.08587" lon="7.80496">
        <ele>2225.2</ele>
        <time>2000-01-01T08:47:48.000Z</time>
      </trkpt>
      <trkpt lat="46.08578" lon="7.80511">
        <ele>2236</ele>
        <time>2000-01-01T08:47:58.000Z</time>
      </trkpt>
      <trkpt lat="46.08573" lon="7.805">
        <ele>2231</ele>
        <time>2000-01-01T08:48:08.000Z</time>
      </trkpt>
      <trkpt lat="46.08559" lon="7.8048">
        <ele>2236</ele>
        <time>2000-01-01T08:48:18.000Z</time>
      </trkpt>
      <trkpt lat="46.08552" lon="7.80468">
        <ele>2239</ele>
        <time>2000-01-01T08:48:28.000Z</time>
      </trkpt>
      <trkpt lat="46.08553" lon="7.80453">
        <ele>2236</ele>
        <time>2000-01-01T08:48:38.000Z</time>
      </trkpt>
      <trkpt lat="46.08549" lon="7.80438">
        <ele>2237.9</ele>
        <time>2000-01-01T08:48:48.000Z</time>
      </trkpt>
      <trkpt lat="46.08543" lon="7.80427">
        <ele>2238</ele>
        <time>2000-01-01T08:48:58.000Z</time>
      </trkpt>
      <trkpt lat="46.08533" lon="7.80419">
        <ele>2238.7</ele>
        <time>2000-01-01T08:49:08.000Z</time>
      </trkpt>
      <trkpt lat="46.08522" lon="7.80415">
        <ele>2240</ele>
        <time>2000-01-01T08:49:18.000Z</time>
      </trkpt>
      <trkpt lat="46.08511" lon="7.8041">
        <ele>2240</ele>
        <time>2000-01-01T08:49:28.000Z</time>
      </trkpt>
      <trkpt lat="46.08491" lon="7.80403">
        <ele>2245</ele>
        <time>2000-01-01T08:49:38.000Z</time>
      </trkpt>
      <trkpt lat="46.08481" lon="7.80398">
        <ele>2243.8</ele>
        <time>2000-01-01T08:49:48.000Z</time>
      </trkpt>
      <trkpt lat="46.08478" lon="7.80384">
        <ele>2245</ele>
        <time>2000-01-01T08:49:58.000Z</time>
      </trkpt>
      <trkpt lat="46.08472" lon="7.80371">
        <ele>2242.9</ele>
        <time>2000-01-01T08:50:08.000Z</time>
      </trkpt>
      <trkpt lat="46.08471" lon="7.80355">
        <ele>2243</ele>
        <time>2000-01-01T08:50:18.000Z</time>
      </trkpt>
      <trkpt lat="46.08467" lon="7.80342">
        <ele>2242.8</ele>
        <time>2000-01-01T08:50:28.000Z</time>
      </trkpt>
      <trkpt lat="46.08464" lon="7.80327">
        <ele>2247</ele>
        <time>2000-01-01T08:50:38.000Z</time>
      </trkpt>
      <trkpt lat="46.08455" lon="7.80299">
        <ele>2248</ele>
        <time>2000-01-01T08:50:48.000Z</time>
      </trkpt>
      <trkpt lat="46.0845" lon="7.80268">
        <ele>2249</ele>
        <time>2000-01-01T08:50:58.000Z</time>
      </trkpt>
      <trkpt lat="46.08446" lon="7.80236">
        <ele>2254</ele>
        <time>2000-01-01T08:51:08.000Z</time>
      </trkpt>
      <trkpt lat="46.08447" lon="7.80221">
        <ele>2243.2</ele>
        <time>2000-01-01T08:51:18.000Z</time>
      </trkpt>
      <trkpt lat="46.08445" lon="7.80206">
        <ele>2255</ele>
        <time>2000-01-01T08:51:28.000Z</time>
      </trkpt>
      <trkpt lat="46.08444" lon="7.8019">
        <ele>2246.3</ele>
        <time>2000-01-01T08:51:38.000Z</time>
      </trkpt>
      <trkpt lat="46.08447" lon="7.80176">
        <ele>2253</ele>
        <time>2000-01-01T08:51:48.000Z</time>
      </trkpt>
      <trkpt lat="46.08452" lon="7.80161">
        <ele>2244.8</ele>
        <time>2000-01-01T08:51:58.000Z</time>
      </trkpt>
      <trkpt lat="46.08453" lon="7.80146">
        <ele>2255</ele>
        <time>2000-01-01T08:52:08.000Z</time>
      </trkpt>
      <trkpt lat="46.08452" lon="7.80131">
        <ele>2248.5</ele>
        <time>2000-01-01T08:52:18.000Z</time>
      </trkpt>
      <trkpt lat="46.08454" lon="7.80117">
        <ele>2257</ele>
        <time>2000-01-01T08:52:28.000Z</time>
      </trkpt>
      <trkpt lat="46.08449" lon="7.80105">
        <ele>2254.9</ele>
        <time>2000-01-01T08:52:38.000Z</time>
      </trkpt>
      <trkpt lat="46.08448" lon="7.80091">
        <ele>2268</ele>
        <time>2000-01-01T08:52:48.000Z</time>
      </trkpt>
      <trkpt lat="46.08446" lon="7.80076">
        <ele>2261.3</ele>
        <time>2000-01-01T08:52:58.000Z</time>
      </trkpt>
      <trkpt lat="46.08448" lon="7.8006">
        <ele>2271</ele>
        <time>2000-01-01T08:53:08.000Z</time>
      </trkpt>
      <trkpt lat="46.08452" lon="7.80045">
        <ele>2262.4</ele>
        <time>2000-01-01T08:53:18.000Z</time>
      </trkpt>
      <trkpt lat="46.08458" lon="7.80032">
        <ele>2266</ele>
        <time>2000-01-01T08:53:28.000Z</time>
      </trkpt>
      <trkpt lat="46.08472" lon="7.8001">
        <ele>2262</ele>
        <time>2000-01-01T08:53:38.000Z</time>
      </trkpt>
      <trkpt lat="46.08482" lon="7.79982">
        <ele>2263</ele>
        <time>2000-01-01T08:53:48.000Z</time>
      </trkpt>
      <trkpt lat="46.08485" lon="7.79967">
        <ele>2250.9</ele>
        <time>2000-01-01T08:53:58.000Z</time>
      </trkpt>
      <trkpt lat="46.08488" lon="7.79952">
        <ele>2260</ele>
        <time>2000-01-01T08:54:08.000Z</time>
      </trkpt>
      <trkpt lat="46.08493" lon="7.79922">
        <ele>2257</ele>
        <time>2000-01-01T08:54:18.000Z</time>
      </trkpt>
      <trkpt lat="46.08498" lon="7.79909">
        <ele>2250.5</ele>
        <time>2000-01-01T08:54:28.000Z</time>
      </trkpt>
      <trkpt lat="46.085" lon="7.79893">
        <ele>2256</ele>
        <time>2000-01-01T08:54:38.000Z</time>
      </trkpt>
      <trkpt lat="46.08506" lon="7.79878">
        <ele>2245.8</ele>
        <time>2000-01-01T08:54:48.000Z</time>
      </trkpt>
      <trkpt lat="46.08513" lon="7.79865">
        <ele>2259</ele>
        <time>2000-01-01T08:54:58.000Z</time>
      </trkpt>
      <trkpt lat="46.08513" lon="7.7985">
        <ele>2244.6</ele>
        <time>2000-01-01T08:55:08.000Z</time>
      </trkpt>
      <trkpt lat="46.08516" lon="7.79826">
        <ele>2257</ele>
        <time>2000-01-01T08:55:18.000Z</time>
      </trkpt>
      <trkpt lat="46.08525" lon="7.79799">
        <ele>2260</ele>
        <time>2000-01-01T08:55:28.000Z</time>
      </trkpt>
      <trkpt lat="46.08527" lon="7.79784">
        <ele>2240.9</ele>
        <time>2000-01-01T08:55:38.000Z</time>
      </trkpt>
      <trkpt lat="46.08519" lon="7.79774">
        <ele>2255</ele>
        <time>2000-01-01T08:55:48.000Z</time>
      </trkpt>
      <trkpt lat="46.08514" lon="7.79761">
        <ele>2252.6</ele>
        <time>2000-01-01T08:55:58.000Z</time>
      </trkpt>
      <trkpt lat="46.08531" lon="7.79719">
        <ele>2251</ele>
        <time>2000-01-01T08:56:08.000Z</time>
      </trkpt>
      <trkpt lat="46.08538" lon="7.79708">
        <ele>2236.1</ele>
        <time>2000-01-01T08:56:18.000Z</time>
      </trkpt>
      <trkpt lat="46.08549" lon="7.79667">
        <ele>2237</ele>
        <time>2000-01-01T08:56:28.000Z</time>
      </trkpt>
      <trkpt lat="46.08551" lon="7.7965">
        <ele>2222.3</ele>
        <time>2000-01-01T08:56:38.000Z</time>
      </trkpt>
      <trkpt lat="46.08551" lon="7.79636">
        <ele>2228</ele>
        <time>2000-01-01T08:56:48.000Z</time>
      </trkpt>
      <trkpt lat="46.08553" lon="7.79621">
        <ele>2220</ele>
        <time>2000-01-01T08:56:58.000Z</time>
      </trkpt>
      <trkpt lat="46.08553" lon="7.79606">
        <ele>2224</ele>
        <time>2000-01-01T08:57:08.000Z</time>
      </trkpt>
      <trkpt lat="46.0855" lon="7.79591">
        <ele>2215.6</ele>
        <time>2000-01-01T08:57:18.000Z</time>
      </trkpt>
      <trkpt lat="46.08541" lon="7.79561">
        <ele>2223</ele>
        <time>2000-01-01T08:57:28.000Z</time>
      </trkpt>
      <trkpt lat="46.08539" lon="7.79548">
        <ele>2213.5</ele>
        <time>2000-01-01T08:57:38.000Z</time>
      </trkpt>
      <trkpt lat="46.08532" lon="7.79533">
        <ele>2223</ele>
        <time>2000-01-01T08:57:48.000Z</time>
      </trkpt>
      <trkpt lat="46.08535" lon="7.79518">
        <ele>2211.2</ele>
        <time>2000-01-01T08:57:58.000Z</time>
      </trkpt>
      <trkpt lat="46.08526" lon="7.79507">
        <ele>2220</ele>
        <time>2000-01-01T08:58:08.000Z</time>
      </trkpt>
      <trkpt lat="46.08517" lon="7.79499">
        <ele>2218.7</ele>
        <time>2000-01-01T08:58:18.000Z</time>
      </trkpt>
      <trkpt lat="46.08508" lon="7.79489">
        <ele>2218</ele>
        <time>2000-01-01T08:58:28.000Z</time>
      </trkpt>
      <trkpt lat="46.08498" lon="7.79484">
        <ele>2217.6</ele>
        <time>2000-01-01T08:58:38.000Z</time>
      </trkpt>
      <trkpt lat="46.08488" lon="7.79485">
        <ele>2218</ele>
        <time>2000-01-01T08:58:48.000Z</time>
      </trkpt>
      <trkpt lat="46.08478" lon="7.79493">
        <ele>2218.9</ele>
        <time>2000-01-01T08:58:58.000Z</time>
      </trkpt>
      <trkpt lat="46.08469" lon="7.79498">
        <ele>2219</ele>
        <time>2000-01-01T08:59:08.000Z</time>
      </trkpt>
      <trkpt lat="46.08451" lon="7.79498">
        <ele>2219.5</ele>
        <time>2000-01-01T08:59:18.000Z</time>
      </trkpt>
      <trkpt lat="46.08438" lon="7.79503">
        <ele>2213</ele>
        <time>2000-01-01T08:59:28.000Z</time>
      </trkpt>
      <trkpt lat="46.0842" lon="7.79508">
        <ele>2219.6</ele>
        <time>2000-01-01T08:59:38.000Z</time>
      </trkpt>
      <trkpt lat="46.0841" lon="7.79506">
        <ele>2208</ele>
        <time>2000-01-01T08:59:48.000Z</time>
      </trkpt>
      <trkpt lat="46.08404" lon="7.79517">
        <ele>2213.1</ele>
        <time>2000-01-01T08:59:58.000Z</time>
      </trkpt>
      <trkpt lat="46.08395" lon="7.79525">
        <ele>2208</ele>
        <time>2000-01-01T09:00:08.000Z</time>
      </trkpt>
      <trkpt lat="46.0838" lon="7.7955">
        <ele>2211</ele>
        <time>2000-01-01T09:00:18.000Z</time>
      </trkpt>
      <trkpt lat="46.08363" lon="7.79556">
        <ele>2214.4</ele>
        <time>2000-01-01T09:00:28.000Z</time>
      </trkpt>
      <trkpt lat="46.08347" lon="7.79556">
        <ele>2218</ele>
        <time>2000-01-01T09:00:38.000Z</time>
      </trkpt>
      <trkpt lat="46.08338" lon="7.79551">
        <ele>2216.1</ele>
        <time>2000-01-01T09:00:48.000Z</time>
      </trkpt>
      <trkpt lat="46.08327" lon="7.79551">
        <ele>2217</ele>
        <time>2000-01-01T09:00:58.000Z</time>
      </trkpt>
      <trkpt lat="46.08317" lon="7.79547">
        <ele>2217.5</ele>
        <time>2000-01-01T09:01:08.000Z</time>
      </trkpt>
      <trkpt lat="46.08307" lon="7.79545">
        <ele>2217</ele>
        <time>2000-01-01T09:01:18.000Z</time>
      </trkpt>
      <trkpt lat="46.08289" lon="7.79547">
        <ele>2219.1</ele>
        <time>2000-01-01T09:01:28.000Z</time>
      </trkpt>
      <trkpt lat="46.08274" lon="7.79559">
        <ele>2218</ele>
        <time>2000-01-01T09:01:38.000Z</time>
      </trkpt>
      <trkpt lat="46.08269" lon="7.79572">
        <ele>2224.4</ele>
        <time>2000-01-01T09:01:48.000Z</time>
      </trkpt>
      <trkpt lat="46.08261" lon="7.79579">
        <ele>2223</ele>
        <time>2000-01-01T09:01:58.000Z</time>
      </trkpt>
      <trkpt lat="46.08248" lon="7.79593">
        <ele>2227.8</ele>
        <time>2000-01-01T09:02:08.000Z</time>
      </trkpt>
      <trkpt lat="46.08234" lon="7.79602">
        <ele>2223</ele>
        <time>2000-01-01T09:02:18.000Z</time>
      </trkpt>
      <trkpt lat="46.08223" lon="7.79603">
        <ele>2223.3</ele>
        <time>2000-01-01T09:02:28.000Z</time>
      </trkpt>
      <trkpt lat="46.08205" lon="7.7961">
        <ele>2223</ele>
        <time>2000-01-01T09:02:38.000Z</time>
      </trkpt>
      <trkpt lat="46.08188" lon="7.79619">
        <ele>2220.1</ele>
        <time>2000-01-01T09:02:48.000Z</time>
      </trkpt>
      <trkpt lat="46.08171" lon="7.79632">
        <ele>2218</ele>
        <time>2000-01-01T09:02:58.000Z</time>
      </trkpt>
      <trkpt lat="46.08165" lon="7.79645">
        <ele>2219</ele>
        <time>2000-01-01T09:03:08.000Z</time>
      </trkpt>
      <trkpt lat="46.08158" lon="7.79655">
        <ele>2215</ele>
        <time>2000-01-01T09:03:18.000Z</time>
      </trkpt>
      <trkpt lat="46.08151" lon="7.79667">
        <ele>2217.5</ele>
        <time>2000-01-01T09:03:28.000Z</time>
      </trkpt>
      <trkpt lat="46.08141" lon="7.79675">
        <ele>2213</ele>
        <time>2000-01-01T09:03:38.000Z</time>
      </trkpt>
      <trkpt lat="46.08131" lon="7.79678">
        <ele>2211.8</ele>
        <time>2000-01-01T09:03:48.000Z</time>
      </trkpt>
      <trkpt lat="46.0812" lon="7.79679">
        <ele>2205</ele>
        <time>2000-01-01T09:03:58.000Z</time>
      </trkpt>
      <trkpt lat="46.08101" lon="7.79691">
        <ele>2204</ele>
        <time>2000-01-01T09:04:08.000Z</time>
      </trkpt>
      <trkpt lat="46.08094" lon="7.79701">
        <ele>2204.6</ele>
        <time>2000-01-01T09:04:18.000Z</time>
      </trkpt>
      <trkpt lat="46.08085" lon="7.7971">
        <ele>2197</ele>
        <time>2000-01-01T09:04:28.000Z</time>
      </trkpt>
      <trkpt lat="46.08078" lon="7.7972">
        <ele>2203.7</ele>
        <time>2000-01-01T09:04:38.000Z</time>
      </trkpt>
      <trkpt lat="46.08072" lon="7.79706">
        <ele>2191</ele>
        <time>2000-01-01T09:04:48.000Z</time>
      </trkpt>
      <trkpt lat="46.08081" lon="7.79679">
        <ele>2184</ele>
        <time>2000-01-01T09:04:58.000Z</time>
      </trkpt>
      <trkpt lat="46.08087" lon="7.79666">
        <ele>2183.9</ele>
        <time>2000-01-01T09:05:08.000Z</time>
      </trkpt>
      <trkpt lat="46.08091" lon="7.79653">
        <ele>2181</ele>
        <time>2000-01-01T09:05:18.000Z</time>
      </trkpt>
      <trkpt lat="46.08098" lon="7.7964">
        <ele>2178.8</ele>
        <time>2000-01-01T09:05:28.000Z</time>
      </trkpt>
      <trkpt lat="46.08105" lon="7.7963">
        <ele>2175</ele>
        <time>2000-01-01T09:05:38.000Z</time>
      </trkpt>
      <trkpt lat="46.08109" lon="7.79615">
        <ele>2173.7</ele>
        <time>2000-01-01T09:05:48.000Z</time>
      </trkpt>
      <trkpt lat="46.08113" lon="7.79601">
        <ele>2173</ele>
        <time>2000-01-01T09:05:58.000Z</time>
      </trkpt>
      <trkpt lat="46.08105" lon="7.79589">
        <ele>2161.8</ele>
        <time>2000-01-01T09:06:08.000Z</time>
      </trkpt>
      <trkpt lat="46.08095" lon="7.79592">
        <ele>2159</ele>
        <time>2000-01-01T09:06:18.000Z</time>
      </trkpt>
      <trkpt lat="46.08085" lon="7.79598">
        <ele>2157.5</ele>
        <time>2000-01-01T09:06:28.000Z</time>
      </trkpt>
      <trkpt lat="46.08074" lon="7.79602">
        <ele>2152</ele>
        <time>2000-01-01T09:06:38.000Z</time>
      </trkpt>
      <trkpt lat="46.08064" lon="7.79611">
        <ele>2151.5</ele>
        <time>2000-01-01T09:06:48.000Z</time>
      </trkpt>
      <trkpt lat="46.08045" lon="7.79623">
        <ele>2146</ele>
        <time>2000-01-01T09:06:58.000Z</time>
      </trkpt>
      <trkpt lat="46.08041" lon="7.79609">
        <ele>2140.4</ele>
        <time>2000-01-01T09:07:08.000Z</time>
      </trkpt>
      <trkpt lat="46.08047" lon="7.79595">
        <ele>2141</ele>
        <time>2000-01-01T09:07:18.000Z</time>
      </trkpt>
      <trkpt lat="46.08055" lon="7.79584">
        <ele>2137</ele>
        <time>2000-01-01T09:07:28.000Z</time>
      </trkpt>
      <trkpt lat="46.08061" lon="7.79572">
        <ele>2137</ele>
        <time>2000-01-01T09:07:38.000Z</time>
      </trkpt>
      <trkpt lat="46.08066" lon="7.79559">
        <ele>2131.2</ele>
        <time>2000-01-01T09:07:48.000Z</time>
      </trkpt>
      <trkpt lat="46.08074" lon="7.79547">
        <ele>2129</ele>
        <time>2000-01-01T09:07:58.000Z</time>
      </trkpt>
      <trkpt lat="46.08075" lon="7.79518">
        <ele>2124</ele>
        <time>2000-01-01T09:08:08.000Z</time>
      </trkpt>
      <trkpt lat="46.08078" lon="7.79531">
        <ele>2124.6</ele>
        <time>2000-01-01T09:08:18.000Z</time>
      </trkpt>
      <trkpt lat="46.08068" lon="7.79534">
        <ele>2119</ele>
        <time>2000-01-01T09:08:28.000Z</time>
      </trkpt>
      <trkpt lat="46.08048" lon="7.79549">
        <ele>2114</ele>
        <time>2000-01-01T09:08:38.000Z</time>
      </trkpt>
      <trkpt lat="46.08029" lon="7.79563">
        <ele>2114</ele>
        <time>2000-01-01T09:08:48.000Z</time>
      </trkpt>
      <trkpt lat="46.08018" lon="7.79564">
        <ele>2113.5</ele>
        <time>2000-01-01T09:08:58.000Z</time>
      </trkpt>
      <trkpt lat="46.08008" lon="7.79564">
        <ele>2110</ele>
        <time>2000-01-01T09:09:08.000Z</time>
      </trkpt>
      <trkpt lat="46.07997" lon="7.79566">
        <ele>2110.1</ele>
        <time>2000-01-01T09:09:18.000Z</time>
      </trkpt>
      <trkpt lat="46.07981" lon="7.79548">
        <ele>2105</ele>
        <time>2000-01-01T09:09:28.000Z</time>
      </trkpt>
      <trkpt lat="46.07972" lon="7.79542">
        <ele>2101.2</ele>
        <time>2000-01-01T09:09:38.000Z</time>
      </trkpt>
      <trkpt lat="46.07963" lon="7.79534">
        <ele>2101</ele>
        <time>2000-01-01T09:09:48.000Z</time>
      </trkpt>
      <trkpt lat="46.07957" lon="7.79523">
        <ele>2097.1</ele>
        <time>2000-01-01T09:09:58.000Z</time>
      </trkpt>
      <trkpt lat="46.0795" lon="7.79511">
        <ele>2097</ele>
        <time>2000-01-01T09:10:08.000Z</time>
      </trkpt>
      <trkpt lat="46.0794" lon="7.79485">
        <ele>2093</ele>
        <time>2000-01-01T09:10:18.000Z</time>
      </trkpt>
      <trkpt lat="46.07929" lon="7.7946">
        <ele>2090</ele>
        <time>2000-01-01T09:10:28.000Z</time>
      </trkpt>
      <trkpt lat="46.0792" lon="7.79451">
        <ele>2083.3</ele>
        <time>2000-01-01T09:10:38.000Z</time>
      </trkpt>
      <trkpt lat="46.07912" lon="7.79441">
        <ele>2085</ele>
        <time>2000-01-01T09:10:48.000Z</time>
      </trkpt>
      <trkpt lat="46.07907" lon="7.79428">
        <ele>2078.7</ele>
        <time>2000-01-01T09:10:58.000Z</time>
      </trkpt>
      <trkpt lat="46.07898" lon="7.79418">
        <ele>2078</ele>
        <time>2000-01-01T09:11:08.000Z</time>
      </trkpt>
      <trkpt lat="46.07893" lon="7.79404">
        <ele>2072.2</ele>
        <time>2000-01-01T09:11:18.000Z</time>
      </trkpt>
      <trkpt lat="46.07903" lon="7.79399">
        <ele>2068</ele>
        <time>2000-01-01T09:11:28.000Z</time>
      </trkpt>
      <trkpt lat="46.07913" lon="7.794">
        <ele>2066.5</ele>
        <time>2000-01-01T09:11:38.000Z</time>
      </trkpt>
      <trkpt lat="46.07934" lon="7.79406">
        <ele>2065</ele>
        <time>2000-01-01T09:11:48.000Z</time>
      </trkpt>
      <trkpt lat="46.07945" lon="7.79411">
        <ele>2059.5</ele>
        <time>2000-01-01T09:11:58.000Z</time>
      </trkpt>
      <trkpt lat="46.07948" lon="7.79396">
        <ele>2057</ele>
        <time>2000-01-01T09:12:08.000Z</time>
      </trkpt>
      <trkpt lat="46.07938" lon="7.7937">
        <ele>2049</ele>
        <time>2000-01-01T09:12:18.000Z</time>
      </trkpt>
      <trkpt lat="46.07918" lon="7.79335">
        <ele>2044</ele>
        <time>2000-01-01T09:12:28.000Z</time>
      </trkpt>
      <trkpt lat="46.07912" lon="7.79321">
        <ele>2038</ele>
        <time>2000-01-01T09:12:38.000Z</time>
      </trkpt>
      <trkpt lat="46.07904" lon="7.79311">
        <ele>2039</ele>
        <time>2000-01-01T09:12:48.000Z</time>
      </trkpt>
      <trkpt lat="46.07897" lon="7.79299">
        <ele>2032.6</ele>
        <time>2000-01-01T09:12:58.000Z</time>
      </trkpt>
      <trkpt lat="46.0789" lon="7.7929">
        <ele>2034</ele>
        <time>2000-01-01T09:13:08.000Z</time>
      </trkpt>
      <trkpt lat="46.0788" lon="7.79285">
        <ele>2027.6</ele>
        <time>2000-01-01T09:13:18.000Z</time>
      </trkpt>
      <trkpt lat="46.07869" lon="7.79283">
        <ele>2031</ele>
        <time>2000-01-01T09:13:28.000Z</time>
      </trkpt>
      <trkpt lat="46.07859" lon="7.79277">
        <ele>2021.4</ele>
        <time>2000-01-01T09:13:38.000Z</time>
      </trkpt>
      <trkpt lat="46.07848" lon="7.79273">
        <ele>2023</ele>
        <time>2000-01-01T09:13:48.000Z</time>
      </trkpt>
      <trkpt lat="46.07826" lon="7.79267">
        <ele>2013</ele>
        <time>2000-01-01T09:13:58.000Z</time>
      </trkpt>
      <trkpt lat="46.07815" lon="7.79268">
        <ele>2011.6</ele>
        <time>2000-01-01T09:14:08.000Z</time>
      </trkpt>
      <trkpt lat="46.07793" lon="7.79277">
        <ele>2012</ele>
        <time>2000-01-01T09:14:18.000Z</time>
      </trkpt>
      <trkpt lat="46.07782" lon="7.79279">
        <ele>2012</ele>
        <time>2000-01-01T09:14:28.000Z</time>
      </trkpt>
      <trkpt lat="46.07747" lon="7.79283">
        <ele>2007</ele>
        <time>2000-01-01T09:14:38.000Z</time>
      </trkpt>
      <trkpt lat="46.07718" lon="7.793">
        <ele>2007</ele>
        <time>2000-01-01T09:14:48.000Z</time>
      </trkpt>
      <trkpt lat="46.0771" lon="7.7931">
        <ele>2010.3</ele>
        <time>2000-01-01T09:14:58.000Z</time>
      </trkpt>
      <trkpt lat="46.077" lon="7.79312">
        <ele>2005</ele>
        <time>2000-01-01T09:15:08.000Z</time>
      </trkpt>
      <trkpt lat="46.0769" lon="7.79317">
        <ele>2007.4</ele>
        <time>2000-01-01T09:15:18.000Z</time>
      </trkpt>
      <trkpt lat="46.0768" lon="7.79314">
        <ele>2004</ele>
        <time>2000-01-01T09:15:28.000Z</time>
      </trkpt>
      <trkpt lat="46.07648" lon="7.79311">
        <ele>1994</ele>
        <time>2000-01-01T09:15:38.000Z</time>
      </trkpt>
      <trkpt lat="46.07638" lon="7.79305">
        <ele>1991.7</ele>
        <time>2000-01-01T09:15:48.000Z</time>
      </trkpt>
      <trkpt lat="46.07626" lon="7.79306">
        <ele>1986</ele>
        <time>2000-01-01T09:15:58.000Z</time>
      </trkpt>
      <trkpt lat="46.07616" lon="7.79303">
        <ele>1989.7</ele>
        <time>2000-01-01T09:16:08.000Z</time>
      </trkpt>
      <trkpt lat="46.07606" lon="7.79299">
        <ele>1979</ele>
        <time>2000-01-01T09:16:18.000Z</time>
      </trkpt>
      <trkpt lat="46.07596" lon="7.79295">
        <ele>1982.4</ele>
        <time>2000-01-01T09:16:28.000Z</time>
      </trkpt>
      <trkpt lat="46.07585" lon="7.79293">
        <ele>1978</ele>
        <time>2000-01-01T09:16:38.000Z</time>
      </trkpt>
      <trkpt lat="46.07575" lon="7.79294">
        <ele>1977.4</ele>
        <time>2000-01-01T09:16:48.000Z</time>
      </trkpt>
      <trkpt lat="46.07562" lon="7.79301">
        <ele>1977</ele>
        <time>2000-01-01T09:16:58.000Z</time>
      </trkpt>
      <trkpt lat="46.07552" lon="7.7929">
        <ele>1969.9</ele>
        <time>2000-01-01T09:17:08.000Z</time>
      </trkpt>
      <trkpt lat="46.07541" lon="7.79287">
        <ele>1965</ele>
        <time>2000-01-01T09:17:18.000Z</time>
      </trkpt>
      <trkpt lat="46.07531" lon="7.7929">
        <ele>1967.8</ele>
        <time>2000-01-01T09:17:28.000Z</time>
      </trkpt>
      <trkpt lat="46.0752" lon="7.79277">
        <ele>1962</ele>
        <time>2000-01-01T09:17:38.000Z</time>
      </trkpt>
      <trkpt lat="46.07497" lon="7.79272">
        <ele>1960</ele>
        <time>2000-01-01T09:17:48.000Z</time>
      </trkpt>
      <trkpt lat="46.07492" lon="7.7926">
        <ele>1954.7</ele>
        <time>2000-01-01T09:17:58.000Z</time>
      </trkpt>
      <trkpt lat="46.07479" lon="7.79255">
        <ele>1956</ele>
        <time>2000-01-01T09:18:08.000Z</time>
      </trkpt>
      <trkpt lat="46.07467" lon="7.79257">
        <ele>1955.1</ele>
        <time>2000-01-01T09:18:18.000Z</time>
      </trkpt>
      <trkpt lat="46.07455" lon="7.7925">
        <ele>1953</ele>
        <time>2000-01-01T09:18:28.000Z</time>
      </trkpt>
      <trkpt lat="46.07445" lon="7.79239">
        <ele>1948.8</ele>
        <time>2000-01-01T09:18:38.000Z</time>
      </trkpt>
      <trkpt lat="46.07424" lon="7.79244">
        <ele>1953</ele>
        <time>2000-01-01T09:18:48.000Z</time>
      </trkpt>
      <trkpt lat="46.07413" lon="7.79243">
        <ele>1951</ele>
        <time>2000-01-01T09:18:58.000Z</time>
      </trkpt>
      <trkpt lat="46.07404" lon="7.7925">
        <ele>1954</ele>
        <time>2000-01-01T09:19:08.000Z</time>
      </trkpt>
      <trkpt lat="46.07378" lon="7.79263">
        <ele>1960</ele>
        <time>2000-01-01T09:19:18.000Z</time>
      </trkpt>
      <trkpt lat="46.07368" lon="7.79269">
        <ele>1963.3</ele>
        <time>2000-01-01T09:19:28.000Z</time>
      </trkpt>
      <trkpt lat="46.07358" lon="7.79272">
        <ele>1971</ele>
        <time>2000-01-01T09:19:38.000Z</time>
      </trkpt>
      <trkpt lat="46.07348" lon="7.79269">
        <ele>1966.7</ele>
        <time>2000-01-01T09:19:48.000Z</time>
      </trkpt>
      <trkpt lat="46.07339" lon="7.79273">
        <ele>1976</ele>
        <time>2000-01-01T09:19:58.000Z</time>
      </trkpt>
      <trkpt lat="46.07329" lon="7.79279">
        <ele>1976.3</ele>
        <time>2000-01-01T09:20:08.000Z</time>
      </trkpt>
      <trkpt lat="46.07309" lon="7.79284">
        <ele>1986</ele>
        <time>2000-01-01T09:20:18.000Z</time>
      </trkpt>
      <trkpt lat="46.07299" lon="7.79281">
        <ele>1981.7</ele>
        <time>2000-01-01T09:20:28.000Z</time>
      </trkpt>
      <trkpt lat="46.07289" lon="7.79283">
        <ele>1996</ele>
        <time>2000-01-01T09:20:38.000Z</time>
      </trkpt>
      <trkpt lat="46.07279" lon="7.79287">
        <ele>1986.8</ele>
        <time>2000-01-01T09:20:48.000Z</time>
      </trkpt>
      <trkpt lat="46.07269" lon="7.79288">
        <ele>1999</ele>
        <time>2000-01-01T09:20:58.000Z</time>
      </trkpt>
      <trkpt lat="46.07259" lon="7.79293">
        <ele>1992.8</ele>
        <time>2000-01-01T09:21:08.000Z</time>
      </trkpt>
      <trkpt lat="46.0725" lon="7.793">
        <ele>2005</ele>
        <time>2000-01-01T09:21:18.000Z</time>
      </trkpt>
      <trkpt lat="46.07239" lon="7.79299">
        <ele>2000.6</ele>
        <time>2000-01-01T09:21:28.000Z</time>
      </trkpt>
      <trkpt lat="46.07229" lon="7.79297">
        <ele>2014</ele>
        <time>2000-01-01T09:21:38.000Z</time>
      </trkpt>
      <trkpt lat="46.07219" lon="7.793">
        <ele>2007.7</ele>
        <time>2000-01-01T09:21:48.000Z</time>
      </trkpt>
      <trkpt lat="46.07211" lon="7.79309">
        <ele>2023</ele>
        <time>2000-01-01T09:21:58.000Z</time>
      </trkpt>
      <trkpt lat="46.07201" lon="7.7931">
        <ele>2020.6</ele>
        <time>2000-01-01T09:22:08.000Z</time>
      </trkpt>
      <trkpt lat="46.07192" lon="7.79319">
        <ele>2034</ele>
        <time>2000-01-01T09:22:18.000Z</time>
      </trkpt>
      <trkpt lat="46.07182" lon="7.79316">
        <ele>2028.5</ele>
        <time>2000-01-01T09:22:28.000Z</time>
      </trkpt>
      <trkpt lat="46.07172" lon="7.79317">
        <ele>2040</ele>
        <time>2000-01-01T09:22:38.000Z</time>
      </trkpt>
      <trkpt lat="46.0715" lon="7.7931">
        <ele>2040</ele>
        <time>2000-01-01T09:22:48.000Z</time>
      </trkpt>
      <trkpt lat="46.07139" lon="7.79308">
        <ele>2032.2</ele>
        <time>2000-01-01T09:22:58.000Z</time>
      </trkpt>
      <trkpt lat="46.07129" lon="7.79313">
        <ele>2048</ele>
        <time>2000-01-01T09:23:08.000Z</time>
      </trkpt>
      <trkpt lat="46.07119" lon="7.79312">
        <ele>2036.8</ele>
        <time>2000-01-01T09:23:18.000Z</time>
      </trkpt>
      <trkpt lat="46.07109" lon="7.79307">
        <ele>2049</ele>
        <time>2000-01-01T09:23:28.000Z</time>
      </trkpt>
      <trkpt lat="46.07099" lon="7.79306">
        <ele>2037.8</ele>
        <time>2000-01-01T09:23:38.000Z</time>
      </trkpt>
      <trkpt lat="46.07078" lon="7.79314">
        <ele>2055</ele>
        <time>2000-01-01T09:23:48.000Z</time>
      </trkpt>
      <trkpt lat="46.07058" lon="7.79319">
        <ele>2055</ele>
        <time>2000-01-01T09:23:58.000Z</time>
      </trkpt>
      <trkpt lat="46.07048" lon="7.79322">
        <ele>2048.9</ele>
        <time>2000-01-01T09:24:08.000Z</time>
      </trkpt>
      <trkpt lat="46.07038" lon="7.79323">
        <ele>2052</ele>
        <time>2000-01-01T09:24:18.000Z</time>
      </trkpt>
      <trkpt lat="46.07028" lon="7.79324">
        <ele>2049.6</ele>
        <time>2000-01-01T09:24:28.000Z</time>
      </trkpt>
      <trkpt lat="46.07017" lon="7.79327">
        <ele>2056</ele>
        <time>2000-01-01T09:24:38.000Z</time>
      </trkpt>
      <trkpt lat="46.07007" lon="7.79332">
        <ele>2048.9</ele>
        <time>2000-01-01T09:24:48.000Z</time>
      </trkpt>
      <trkpt lat="46.06999" lon="7.79341">
        <ele>2060</ele>
        <time>2000-01-01T09:24:58.000Z</time>
      </trkpt>
      <trkpt lat="46.06991" lon="7.79352">
        <ele>2055.3</ele>
        <time>2000-01-01T09:25:08.000Z</time>
      </trkpt>
      <trkpt lat="46.0698" lon="7.79353">
        <ele>2065</ele>
        <time>2000-01-01T09:25:18.000Z</time>
      </trkpt>
      <trkpt lat="46.0697" lon="7.79356">
        <ele>2056</ele>
        <time>2000-01-01T09:25:28.000Z</time>
      </trkpt>
      <trkpt lat="46.0696" lon="7.79358">
        <ele>2065</ele>
        <time>2000-01-01T09:25:38.000Z</time>
      </trkpt>
      <trkpt lat="46.06954" lon="7.7937">
        <ele>2060.6</ele>
        <time>2000-01-01T09:25:48.000Z</time>
      </trkpt>
      <trkpt lat="46.06948" lon="7.79383">
        <ele>2064</ele>
        <time>2000-01-01T09:25:58.000Z</time>
      </trkpt>
      <trkpt lat="46.06919" lon="7.79403">
        <ele>2064</ele>
        <time>2000-01-01T09:26:08.000Z</time>
      </trkpt>
      <trkpt lat="46.06914" lon="7.79415">
        <ele>2066.1</ele>
        <time>2000-01-01T09:26:18.000Z</time>
      </trkpt>
      <trkpt lat="46.06906" lon="7.79442">
        <ele>2076</ele>
        <time>2000-01-01T09:26:28.000Z</time>
      </trkpt>
      <trkpt lat="46.069" lon="7.79454">
        <ele>2079.4</ele>
        <time>2000-01-01T09:26:38.000Z</time>
      </trkpt>
      <trkpt lat="46.06894" lon="7.79465">
        <ele>2083</ele>
        <time>2000-01-01T09:26:48.000Z</time>
      </trkpt>
      <trkpt lat="46.06886" lon="7.79475">
        <ele>2084.9</ele>
        <time>2000-01-01T09:26:58.000Z</time>
      </trkpt>
      <trkpt lat="46.06871" lon="7.79497">
        <ele>2088</ele>
        <time>2000-01-01T09:27:08.000Z</time>
      </trkpt>
      <trkpt lat="46.06864" lon="7.79509">
        <ele>2091</ele>
        <time>2000-01-01T09:27:18.000Z</time>
      </trkpt>
      <trkpt lat="46.06857" lon="7.7952">
        <ele>2088</ele>
        <time>2000-01-01T09:27:28.000Z</time>
      </trkpt>
      <trkpt lat="46.06848" lon="7.79528">
        <ele>2093.6</ele>
        <time>2000-01-01T09:27:38.000Z</time>
      </trkpt>
      <trkpt lat="46.06838" lon="7.79532">
        <ele>2095</ele>
        <time>2000-01-01T09:27:48.000Z</time>
      </trkpt>
      <trkpt lat="46.06828" lon="7.79534">
        <ele>2087.5</ele>
        <time>2000-01-01T09:27:58.000Z</time>
      </trkpt>
      <trkpt lat="46.06819" lon="7.79539">
        <ele>2101</ele>
        <time>2000-01-01T09:28:08.000Z</time>
      </trkpt>
      <trkpt lat="46.0681" lon="7.79547">
        <ele>2092.3</ele>
        <time>2000-01-01T09:28:18.000Z</time>
      </trkpt>
      <trkpt lat="46.068" lon="7.79551">
        <ele>2098</ele>
        <time>2000-01-01T09:28:28.000Z</time>
      </trkpt>
      <trkpt lat="46.0679" lon="7.79552">
        <ele>2095.1</ele>
        <time>2000-01-01T09:28:38.000Z</time>
      </trkpt>
      <trkpt lat="46.06762" lon="7.79573">
        <ele>2098</ele>
        <time>2000-01-01T09:28:48.000Z</time>
      </trkpt>
      <trkpt lat="46.06764" lon="7.79587">
        <ele>2097.4</ele>
        <time>2000-01-01T09:28:58.000Z</time>
      </trkpt>
      <trkpt lat="46.06767" lon="7.79601">
        <ele>2099</ele>
        <time>2000-01-01T09:29:08.000Z</time>
      </trkpt>
      <trkpt lat="46.06763" lon="7.79632">
        <ele>2103</ele>
        <time>2000-01-01T09:29:18.000Z</time>
      </trkpt>
      <trkpt lat="46.0676" lon="7.79647">
        <ele>2102.5</ele>
        <time>2000-01-01T09:29:28.000Z</time>
      </trkpt>
      <trkpt lat="46.0676" lon="7.79677">
        <ele>2105</ele>
        <time>2000-01-01T09:29:38.000Z</time>
      </trkpt>
      <trkpt lat="46.06758" lon="7.79692">
        <ele>2108.1</ele>
        <time>2000-01-01T09:29:48.000Z</time>
      </trkpt>
      <trkpt lat="46.06756" lon="7.79707">
        <ele>2108</ele>
        <time>2000-01-01T09:29:58.000Z</time>
      </trkpt>
      <trkpt lat="46.06749" lon="7.79735">
        <ele>2108</ele>
        <time>2000-01-01T09:30:08.000Z</time>
      </trkpt>
      <trkpt lat="46.06738" lon="7.79752">
        <ele>2113.9</ele>
        <time>2000-01-01T09:30:18.000Z</time>
      </trkpt>
      <trkpt lat="46.06735" lon="7.79766">
        <ele>2112</ele>
        <time>2000-01-01T09:30:28.000Z</time>
      </trkpt>
      <trkpt lat="46.0673" lon="7.7978">
        <ele>2122</ele>
        <time>2000-01-01T09:30:38.000Z</time>
      </trkpt>
      <trkpt lat="46.06727" lon="7.79794">
        <ele>2120</ele>
        <time>2000-01-01T09:30:48.000Z</time>
      </trkpt>
      <trkpt lat="46.06723" lon="7.79807">
        <ele>2127.4</ele>
        <time>2000-01-01T09:30:58.000Z</time>
      </trkpt>
      <trkpt lat="46.06718" lon="7.7982">
        <ele>2123</ele>
        <time>2000-01-01T09:31:08.000Z</time>
      </trkpt>
      <trkpt lat="46.06706" lon="7.79845">
        <ele>2134</ele>
        <time>2000-01-01T09:31:18.000Z</time>
      </trkpt>
      <trkpt lat="46.06698" lon="7.79854">
        <ele>2133.3</ele>
        <time>2000-01-01T09:31:28.000Z</time>
      </trkpt>
      <trkpt lat="46.06688" lon="7.7985">
        <ele>2136</ele>
        <time>2000-01-01T09:31:38.000Z</time>
      </trkpt>
      <trkpt lat="46.06679" lon="7.79845">
        <ele>2133.7</ele>
        <time>2000-01-01T09:31:48.000Z</time>
      </trkpt>
      <trkpt lat="46.06669" lon="7.79844">
        <ele>2138</ele>
        <time>2000-01-01T09:31:58.000Z</time>
      </trkpt>
      <trkpt lat="46.06675" lon="7.79859">
        <ele>2141.5</ele>
        <time>2000-01-01T09:32:08.000Z</time>
      </trkpt>
      <trkpt lat="46.06683" lon="7.79873">
        <ele>2153</ele>
        <time>2000-01-01T09:32:18.000Z</time>
      </trkpt>
      <trkpt lat="46.06686" lon="7.7989">
        <ele>2149.8</ele>
        <time>2000-01-01T09:32:28.000Z</time>
      </trkpt>
      <trkpt lat="46.06677" lon="7.79886">
        <ele>2159</ele>
        <time>2000-01-01T09:32:38.000Z</time>
      </trkpt>
      <trkpt lat="46.06676" lon="7.79903">
        <ele>2160.4</ele>
        <time>2000-01-01T09:32:48.000Z</time>
      </trkpt>
      <trkpt lat="46.06666" lon="7.79902">
        <ele>2167</ele>
        <time>2000-01-01T09:32:58.000Z</time>
      </trkpt>
      <trkpt lat="46.06658" lon="7.79916">
        <ele>2170.4</ele>
        <time>2000-01-01T09:33:08.000Z</time>
      </trkpt>
      <trkpt lat="46.06649" lon="7.79913">
        <ele>2170</ele>
        <time>2000-01-01T09:33:18.000Z</time>
      </trkpt>
      <trkpt lat="46.0664" lon="7.79918">
        <ele>2172.4</ele>
        <time>2000-01-01T09:33:28.000Z</time>
      </trkpt>
      <trkpt lat="46.06631" lon="7.79931">
        <ele>2171</ele>
        <time>2000-01-01T09:33:38.000Z</time>
      </trkpt>
      <trkpt lat="46.06623" lon="7.79942">
        <ele>2176.8</ele>
        <time>2000-01-01T09:33:48.000Z</time>
      </trkpt>
      <trkpt lat="46.06608" lon="7.7997">
        <ele>2170</ele>
        <time>2000-01-01T09:33:58.000Z</time>
      </trkpt>
      <trkpt lat="46.06601" lon="7.79991">
        <ele>2179.5</ele>
        <time>2000-01-01T09:34:08.000Z</time>
      </trkpt>
      <trkpt lat="46.06588" lon="7.80006">
        <ele>2170</ele>
        <time>2000-01-01T09:34:18.000Z</time>
      </trkpt>
      <trkpt lat="46.06563" lon="7.80053">
        <ele>2171</ele>
        <time>2000-01-01T09:34:28.000Z</time>
      </trkpt>
      <trkpt lat="46.06548" lon="7.80071">
        <ele>2172</ele>
        <time>2000-01-01T09:34:38.000Z</time>
      </trkpt>
      <trkpt lat="46.06535" lon="7.8009">
        <ele>2171</ele>
        <time>2000-01-01T09:34:48.000Z</time>
      </trkpt>
      <trkpt lat="46.06523" lon="7.80111">
        <ele>2173.9</ele>
        <time>2000-01-01T09:34:58.000Z</time>
      </trkpt>
      <trkpt lat="46.06509" lon="7.80129">
        <ele>2171</ele>
        <time>2000-01-01T09:35:08.000Z</time>
      </trkpt>
      <trkpt lat="46.06498" lon="7.80139">
        <ele>2176.8</ele>
        <time>2000-01-01T09:35:18.000Z</time>
      </trkpt>
      <trkpt lat="46.06489" lon="7.8014">
        <ele>2176</ele>
        <time>2000-01-01T09:35:28.000Z</time>
      </trkpt>
      <trkpt lat="46.0647" lon="7.80165">
        <ele>2175</ele>
        <time>2000-01-01T09:35:38.000Z</time>
      </trkpt>
      <trkpt lat="46.06459" lon="7.80197">
        <ele>2174</ele>
        <time>2000-01-01T09:35:48.000Z</time>
      </trkpt>
      <trkpt lat="46.06442" lon="7.80208">
        <ele>2172</ele>
        <time>2000-01-01T09:35:58.000Z</time>
      </trkpt>
      <trkpt lat="46.06428" lon="7.80245">
        <ele>2169</ele>
        <time>2000-01-01T09:36:08.000Z</time>
      </trkpt>
      <trkpt lat="46.06431" lon="7.80266">
        <ele>2166.9</ele>
        <time>2000-01-01T09:36:18.000Z</time>
      </trkpt>
      <trkpt lat="46.06433" lon="7.80288">
        <ele>2166</ele>
        <time>2000-01-01T09:36:28.000Z</time>
      </trkpt>
      <trkpt lat="46.06428" lon="7.80328">
        <ele>2166</ele>
        <time>2000-01-01T09:36:38.000Z</time>
      </trkpt>
      <trkpt lat="46.0642" lon="7.80319">
        <ele>2161.3</ele>
        <time>2000-01-01T09:36:48.000Z</time>
      </trkpt>
      <trkpt lat="46.06431" lon="7.80328">
        <ele>2167</ele>
        <time>2000-01-01T09:36:58.000Z</time>
      </trkpt>
      <trkpt lat="46.06426" lon="7.80342">
        <ele>2174.9</ele>
        <time>2000-01-01T09:37:08.000Z</time>
      </trkpt>
      <trkpt lat="46.06417" lon="7.80352">
        <ele>2175</ele>
        <time>2000-01-01T09:37:18.000Z</time>
      </trkpt>
      <trkpt lat="46.06414" lon="7.80366">
        <ele>2183.4</ele>
        <time>2000-01-01T09:37:28.000Z</time>
      </trkpt>
      <trkpt lat="46.06406" lon="7.80383">
        <ele>2186</ele>
        <time>2000-01-01T09:37:38.000Z</time>
      </trkpt>
      <trkpt lat="46.06396" lon="7.80392">
        <ele>2189.5</ele>
        <time>2000-01-01T09:37:48.000Z</time>
      </trkpt>
      <trkpt lat="46.06385" lon="7.80395">
        <ele>2188</ele>
        <time>2000-01-01T09:37:58.000Z</time>
      </trkpt>
      <trkpt lat="46.06375" lon="7.80396">
        <ele>2187.9</ele>
        <time>2000-01-01T09:38:08.000Z</time>
      </trkpt>
      <trkpt lat="46.0636" lon="7.80402">
        <ele>2191</ele>
        <time>2000-01-01T09:38:18.000Z</time>
      </trkpt>
      <trkpt lat="46.06345" lon="7.80405">
        <ele>2187.3</ele>
        <time>2000-01-01T09:38:28.000Z</time>
      </trkpt>
      <trkpt lat="46.06341" lon="7.80423">
        <ele>2193</ele>
        <time>2000-01-01T09:38:38.000Z</time>
      </trkpt>
      <trkpt lat="46.06341" lon="7.80459">
        <ele>2193</ele>
        <time>2000-01-01T09:38:48.000Z</time>
      </trkpt>
      <trkpt lat="46.06338" lon="7.80481">
        <ele>2191.3</ele>
        <time>2000-01-01T09:38:58.000Z</time>
      </trkpt>
      <trkpt lat="46.0633" lon="7.80518">
        <ele>2194</ele>
        <time>2000-01-01T09:39:08.000Z</time>
      </trkpt>
      <trkpt lat="46.06326" lon="7.80541">
        <ele>2192.6</ele>
        <time>2000-01-01T09:39:18.000Z</time>
      </trkpt>
      <trkpt lat="46.06312" lon="7.8058">
        <ele>2193</ele>
        <time>2000-01-01T09:39:28.000Z</time>
      </trkpt>
      <trkpt lat="46.06303" lon="7.80605">
        <ele>2193</ele>
        <time>2000-01-01T09:39:38.000Z</time>
      </trkpt>
      <trkpt lat="46.06283" lon="7.80643">
        <ele>2192</ele>
        <time>2000-01-01T09:39:48.000Z</time>
      </trkpt>
      <trkpt lat="46.06273" lon="7.80676">
        <ele>2192</ele>
        <time>2000-01-01T09:39:58.000Z</time>
      </trkpt>
      <trkpt lat="46.0626" lon="7.80713">
        <ele>2191</ele>
        <time>2000-01-01T09:40:08.000Z</time>
      </trkpt>
      <trkpt lat="46.06252" lon="7.80724">
        <ele>2193.3</ele>
        <time>2000-01-01T09:40:18.000Z</time>
      </trkpt>
      <trkpt lat="46.06243" lon="7.80748">
        <ele>2191</ele>
        <time>2000-01-01T09:40:28.000Z</time>
      </trkpt>
      <trkpt lat="46.06233" lon="7.80771">
        <ele>2188</ele>
        <time>2000-01-01T09:40:38.000Z</time>
      </trkpt>
      <trkpt lat="46.06226" lon="7.80781">
        <ele>2194.1</ele>
        <time>2000-01-01T09:40:48.000Z</time>
      </trkpt>
      <trkpt lat="46.06216" lon="7.80788">
        <ele>2185</ele>
        <time>2000-01-01T09:40:58.000Z</time>
      </trkpt>
      <trkpt lat="46.06201" lon="7.80789">
        <ele>2184.8</ele>
        <time>2000-01-01T09:41:08.000Z</time>
      </trkpt>
      <trkpt lat="46.06184" lon="7.80811">
        <ele>2183</ele>
        <time>2000-01-01T09:41:18.000Z</time>
      </trkpt>
      <trkpt lat="46.06173" lon="7.80844">
        <ele>2180</ele>
        <time>2000-01-01T09:41:28.000Z</time>
      </trkpt>
      <trkpt lat="46.06168" lon="7.80865">
        <ele>2183.1</ele>
        <time>2000-01-01T09:41:38.000Z</time>
      </trkpt>
      <trkpt lat="46.0615" lon="7.809">
        <ele>2176</ele>
        <time>2000-01-01T09:41:48.000Z</time>
      </trkpt>
      <trkpt lat="46.06138" lon="7.8092">
        <ele>2182.1</ele>
        <time>2000-01-01T09:41:58.000Z</time>
      </trkpt>
      <trkpt lat="46.0612" lon="7.80928">
        <ele>2172</ele>
        <time>2000-01-01T09:42:08.000Z</time>
      </trkpt>
      <trkpt lat="46.06108" lon="7.80934">
        <ele>2175.4</ele>
        <time>2000-01-01T09:42:18.000Z</time>
      </trkpt>
      <trkpt lat="46.06099" lon="7.80948">
        <ele>2172</ele>
        <time>2000-01-01T09:42:28.000Z</time>
      </trkpt>
      <trkpt lat="46.06087" lon="7.80963">
        <ele>2173.5</ele>
        <time>2000-01-01T09:42:38.000Z</time>
      </trkpt>
      <trkpt lat="46.0608" lon="7.80976">
        <ele>2169</ele>
        <time>2000-01-01T09:42:48.000Z</time>
      </trkpt>
      <trkpt lat="46.0607" lon="7.80981">
        <ele>2170</ele>
        <time>2000-01-01T09:42:58.000Z</time>
      </trkpt>
      <trkpt lat="46.06056" lon="7.80994">
        <ele>2166</ele>
        <time>2000-01-01T09:43:08.000Z</time>
      </trkpt>
      <trkpt lat="46.06043" lon="7.80987">
        <ele>2162.9</ele>
        <time>2000-01-01T09:43:18.000Z</time>
      </trkpt>
      <trkpt lat="46.06038" lon="7.80967">
        <ele>2163</ele>
        <time>2000-01-01T09:43:28.000Z</time>
      </trkpt>
      <trkpt lat="46.06024" lon="7.8097">
        <ele>2157.7</ele>
        <time>2000-01-01T09:43:38.000Z</time>
      </trkpt>
      <trkpt lat="46.06013" lon="7.80976">
        <ele>2164</ele>
        <time>2000-01-01T09:43:48.000Z</time>
      </trkpt>
      <trkpt lat="46.06003" lon="7.8098">
        <ele>2159.2</ele>
        <time>2000-01-01T09:43:58.000Z</time>
      </trkpt>
      <trkpt lat="46.05993" lon="7.80982">
        <ele>2165</ele>
        <time>2000-01-01T09:44:08.000Z</time>
      </trkpt>
      <trkpt lat="46.05981" lon="7.80989">
        <ele>2164.2</ele>
        <time>2000-01-01T09:44:18.000Z</time>
      </trkpt>
      <trkpt lat="46.0595" lon="7.8101">
        <ele>2171</ele>
        <time>2000-01-01T09:44:28.000Z</time>
      </trkpt>
      <trkpt lat="46.05938" lon="7.81021">
        <ele>2170.5</ele>
        <time>2000-01-01T09:44:38.000Z</time>
      </trkpt>
      <trkpt lat="46.05924" lon="7.8103">
        <ele>2176</ele>
        <time>2000-01-01T09:44:48.000Z</time>
      </trkpt>
      <trkpt lat="46.05914" lon="7.81034">
        <ele>2173.5</ele>
        <time>2000-01-01T09:44:58.000Z</time>
      </trkpt>
      <trkpt lat="46.0591" lon="7.81055">
        <ele>2179</ele>
        <time>2000-01-01T09:45:08.000Z</time>
      </trkpt>
      <trkpt lat="46.05905" lon="7.81075">
        <ele>2179.2</ele>
        <time>2000-01-01T09:45:18.000Z</time>
      </trkpt>
      <trkpt lat="46.059" lon="7.81087">
        <ele>2183</ele>
        <time>2000-01-01T09:45:28.000Z</time>
      </trkpt>
      <trkpt lat="46.05883" lon="7.811">
        <ele>2186</ele>
        <time>2000-01-01T09:45:38.000Z</time>
      </trkpt>
      <trkpt lat="46.05868" lon="7.81102">
        <ele>2185.2</ele>
        <time>2000-01-01T09:45:48.000Z</time>
      </trkpt>
      <trkpt lat="46.05853" lon="7.81102">
        <ele>2189</ele>
        <time>2000-01-01T09:45:58.000Z</time>
      </trkpt>
      <trkpt lat="46.05843" lon="7.81104">
        <ele>2188.1</ele>
        <time>2000-01-01T09:46:08.000Z</time>
      </trkpt>
      <trkpt lat="46.05832" lon="7.81115">
        <ele>2191</ele>
        <time>2000-01-01T09:46:18.000Z</time>
      </trkpt>
      <trkpt lat="46.05826" lon="7.81124">
        <ele>2190.9</ele>
        <time>2000-01-01T09:46:28.000Z</time>
      </trkpt>
      <trkpt lat="46.05811" lon="7.81138">
        <ele>2193</ele>
        <time>2000-01-01T09:46:38.000Z</time>
      </trkpt>
      <trkpt lat="46.05791" lon="7.81151">
        <ele>2194</ele>
        <time>2000-01-01T09:46:48.000Z</time>
      </trkpt>
      <trkpt lat="46.05781" lon="7.81166">
        <ele>2193.9</ele>
        <time>2000-01-01T09:46:58.000Z</time>
      </trkpt>
      <trkpt lat="46.05772" lon="7.81178">
        <ele>2195</ele>
        <time>2000-01-01T09:47:08.000Z</time>
      </trkpt>
      <trkpt lat="46.05761" lon="7.812">
        <ele>2195</ele>
        <time>2000-01-01T09:47:18.000Z</time>
      </trkpt>
      <trkpt lat="46.05749" lon="7.81222">
        <ele>2195</ele>
        <time>2000-01-01T09:47:28.000Z</time>
      </trkpt>
      <trkpt lat="46.05742" lon="7.81241">
        <ele>2195.2</ele>
        <time>2000-01-01T09:47:38.000Z</time>
      </trkpt>
      <trkpt lat="46.05725" lon="7.81251">
        <ele>2196</ele>
        <time>2000-01-01T09:47:48.000Z</time>
      </trkpt>
      <trkpt lat="46.05715" lon="7.81247">
        <ele>2193.1</ele>
        <time>2000-01-01T09:47:58.000Z</time>
      </trkpt>
      <trkpt lat="46.057" lon="7.8123">
        <ele>2196</ele>
        <time>2000-01-01T09:48:08.000Z</time>
      </trkpt>
      <trkpt lat="46.05692" lon="7.8122">
        <ele>2193.6</ele>
        <time>2000-01-01T09:48:18.000Z</time>
      </trkpt>
      <trkpt lat="46.05702" lon="7.81185">
        <ele>2196</ele>
        <time>2000-01-01T09:48:28.000Z</time>
      </trkpt>
      <trkpt lat="46.0571" lon="7.81169">
        <ele>2192.9</ele>
        <time>2000-01-01T09:48:38.000Z</time>
      </trkpt>
      <trkpt lat="46.05717" lon="7.81137">
        <ele>2198</ele>
        <time>2000-01-01T09:48:48.000Z</time>
      </trkpt>
      <trkpt lat="46.05716" lon="7.81121">
        <ele>2199.2</ele>
        <time>2000-01-01T09:48:58.000Z</time>
      </trkpt>
      <trkpt lat="46.05725" lon="7.81067">
        <ele>2211</ele>
        <time>2000-01-01T09:49:08.000Z</time>
      </trkpt>
      <trkpt lat="46.05732" lon="7.8105">
        <ele>2207</ele>
        <time>2000-01-01T09:49:18.000Z</time>
      </trkpt>
      <trkpt lat="46.05738" lon="7.81033">
        <ele>2211</ele>
        <time>2000-01-01T09:49:28.000Z</time>
      </trkpt>
      <trkpt lat="46.0574" lon="7.81018">
        <ele>2207</ele>
        <time>2000-01-01T09:49:38.000Z</time>
      </trkpt>
      <trkpt lat="46.05742" lon="7.80999">
        <ele>2212</ele>
        <time>2000-01-01T09:49:48.000Z</time>
      </trkpt>
      <trkpt lat="46.05742" lon="7.8098">
        <ele>2210.3</ele>
        <time>2000-01-01T09:49:58.000Z</time>
      </trkpt>
      <trkpt lat="46.05752" lon="7.80941">
        <ele>2215</ele>
        <time>2000-01-01T09:50:08.000Z</time>
      </trkpt>
      <trkpt lat="46.05758" lon="7.80927">
        <ele>2210.7</ele>
        <time>2000-01-01T09:50:18.000Z</time>
      </trkpt>
      <trkpt lat="46.05769" lon="7.80891">
        <ele>2219</ele>
        <time>2000-01-01T09:50:28.000Z</time>
      </trkpt>
      <trkpt lat="46.05772" lon="7.80874">
        <ele>2215.3</ele>
        <time>2000-01-01T09:50:38.000Z</time>
      </trkpt>
      <trkpt lat="46.05782" lon="7.80856">
        <ele>2219</ele>
        <time>2000-01-01T09:50:48.000Z</time>
      </trkpt>
      <trkpt lat="46.05789" lon="7.80836">
        <ele>2216.5</ele>
        <time>2000-01-01T09:50:58.000Z</time>
      </trkpt>
      <trkpt lat="46.05802" lon="7.80809">
        <ele>2219</ele>
        <time>2000-01-01T09:51:08.000Z</time>
      </trkpt>
      <trkpt lat="46.05809" lon="7.80792">
        <ele>2214.2</ele>
        <time>2000-01-01T09:51:18.000Z</time>
      </trkpt>
      <trkpt lat="46.05814" lon="7.80779">
        <ele>2219</ele>
        <time>2000-01-01T09:51:28.000Z</time>
      </trkpt>
      <trkpt lat="46.0582" lon="7.80757">
        <ele>2214.1</ele>
        <time>2000-01-01T09:51:38.000Z</time>
      </trkpt>
      <trkpt lat="46.05827" lon="7.80743">
        <ele>2220</ele>
        <time>2000-01-01T09:51:48.000Z</time>
      </trkpt>
      <trkpt lat="46.05835" lon="7.80731">
        <ele>2213.8</ele>
        <time>2000-01-01T09:51:58.000Z</time>
      </trkpt>
      <trkpt lat="46.05839" lon="7.80711">
        <ele>2215</ele>
        <time>2000-01-01T09:52:08.000Z</time>
      </trkpt>
      <trkpt lat="46.0585" lon="7.80705">
        <ele>2213.8</ele>
        <time>2000-01-01T09:52:18.000Z</time>
      </trkpt>
      <trkpt lat="46.05863" lon="7.80703">
        <ele>2213</ele>
        <time>2000-01-01T09:52:28.000Z</time>
      </trkpt>
      <trkpt lat="46.05866" lon="7.80681">
        <ele>2212.2</ele>
        <time>2000-01-01T09:52:38.000Z</time>
      </trkpt>
      <trkpt lat="46.0588" lon="7.80669">
        <ele>2212</ele>
        <time>2000-01-01T09:52:48.000Z</time>
      </trkpt>
      <trkpt lat="46.0591" lon="7.80625">
        <ele>2212</ele>
        <time>2000-01-01T09:52:58.000Z</time>
      </trkpt>
      <trkpt lat="46.05912" lon="7.80602">
        <ele>2200.2</ele>
        <time>2000-01-01T09:53:08.000Z</time>
      </trkpt>
      <trkpt lat="46.0592" lon="7.80588">
        <ele>2207</ele>
        <time>2000-01-01T09:53:18.000Z</time>
      </trkpt>
      <trkpt lat="46.05929" lon="7.80576">
        <ele>2195.6</ele>
        <time>2000-01-01T09:53:28.000Z</time>
      </trkpt>
      <trkpt lat="46.05931" lon="7.80559">
        <ele>2206</ele>
        <time>2000-01-01T09:53:38.000Z</time>
      </trkpt>
      <trkpt lat="46.05937" lon="7.80531">
        <ele>2206</ele>
        <time>2000-01-01T09:53:48.000Z</time>
      </trkpt>
      <trkpt lat="46.05933" lon="7.80518">
        <ele>2198.2</ele>
        <time>2000-01-01T09:53:58.000Z</time>
      </trkpt>
      <trkpt lat="46.05934" lon="7.80503">
        <ele>2205</ele>
        <time>2000-01-01T09:54:08.000Z</time>
      </trkpt>
      <trkpt lat="46.05939" lon="7.80483">
        <ele>2192.5</ele>
        <time>2000-01-01T09:54:18.000Z</time>
      </trkpt>
      <trkpt lat="46.05942" lon="7.80467">
        <ele>2197</ele>
        <time>2000-01-01T09:54:28.000Z</time>
      </trkpt>
      <trkpt lat="46.0594" lon="7.8045">
        <ele>2191.5</ele>
        <time>2000-01-01T09:54:38.000Z</time>
      </trkpt>
      <trkpt lat="46.05947" lon="7.80433">
        <ele>2194</ele>
        <time>2000-01-01T09:54:48.000Z</time>
      </trkpt>
      <trkpt lat="46.05949" lon="7.8041">
        <ele>2183.9</ele>
        <time>2000-01-01T09:54:58.000Z</time>
      </trkpt>
      <trkpt lat="46.0595" lon="7.80391">
        <ele>2193</ele>
        <time>2000-01-01T09:55:08.000Z</time>
      </trkpt>
      <trkpt lat="46.05955" lon="7.80379">
        <ele>2180.4</ele>
        <time>2000-01-01T09:55:18.000Z</time>
      </trkpt>
      <trkpt lat="46.05956" lon="7.80363">
        <ele>2192</ele>
        <time>2000-01-01T09:55:28.000Z</time>
      </trkpt>
      <trkpt lat="46.05959" lon="7.80348">
        <ele>2180</ele>
        <time>2000-01-01T09:55:38.000Z</time>
      </trkpt>
      <trkpt lat="46.05968" lon="7.80335">
        <ele>2191</ele>
        <time>2000-01-01T09:55:48.000Z</time>
      </trkpt>
      <trkpt lat="46.05974" lon="7.8032">
        <ele>2174.9</ele>
        <time>2000-01-01T09:55:58.000Z</time>
      </trkpt>
      <trkpt lat="46.05981" lon="7.80305">
        <ele>2176</ele>
        <time>2000-01-01T09:56:08.000Z</time>
      </trkpt>
      <trkpt lat="46.05985" lon="7.80288">
        <ele>2173.2</ele>
        <time>2000-01-01T09:56:18.000Z</time>
      </trkpt>
      <trkpt lat="46.05991" lon="7.8027">
        <ele>2172</ele>
        <time>2000-01-01T09:56:28.000Z</time>
      </trkpt>
      <trkpt lat="46.05995" lon="7.80247">
        <ele>2170</ele>
        <time>2000-01-01T09:56:38.000Z</time>
      </trkpt>
      <trkpt lat="46.06" lon="7.80231">
        <ele>2174</ele>
        <time>2000-01-01T09:56:48.000Z</time>
      </trkpt>
      <trkpt lat="46.06003" lon="7.80211">
        <ele>2166.5</ele>
        <time>2000-01-01T09:56:58.000Z</time>
      </trkpt>
      <trkpt lat="46.06001" lon="7.80188">
        <ele>2169</ele>
        <time>2000-01-01T09:57:08.000Z</time>
      </trkpt>
      <trkpt lat="46.06009" lon="7.80176">
        <ele>2165.9</ele>
        <time>2000-01-01T09:57:18.000Z</time>
      </trkpt>
      <trkpt lat="46.0602" lon="7.80163">
        <ele>2169</ele>
        <time>2000-01-01T09:57:28.000Z</time>
      </trkpt>
      <trkpt lat="46.06026" lon="7.80146">
        <ele>2156.7</ele>
        <time>2000-01-01T09:57:38.000Z</time>
      </trkpt>
      <trkpt lat="46.06028" lon="7.80131">
        <ele>2162</ele>
        <time>2000-01-01T09:57:48.000Z</time>
      </trkpt>
      <trkpt lat="46.06044" lon="7.80103">
        <ele>2155</ele>
        <time>2000-01-01T09:57:58.000Z</time>
      </trkpt>
      <trkpt lat="46.06048" lon="7.80089">
        <ele>2150.2</ele>
        <time>2000-01-01T09:58:08.000Z</time>
      </trkpt>
      <trkpt lat="46.06055" lon="7.80073">
        <ele>2158</ele>
        <time>2000-01-01T09:58:18.000Z</time>
      </trkpt>
      <trkpt lat="46.06058" lon="7.80058">
        <ele>2144.8</ele>
        <time>2000-01-01T09:58:28.000Z</time>
      </trkpt>
      <trkpt lat="46.06057" lon="7.80038">
        <ele>2158</ele>
        <time>2000-01-01T09:58:38.000Z</time>
      </trkpt>
      <trkpt lat="46.06062" lon="7.80021">
        <ele>2147.9</ele>
        <time>2000-01-01T09:58:48.000Z</time>
      </trkpt>
      <trkpt lat="46.06069" lon="7.80006">
        <ele>2159</ele>
        <time>2000-01-01T09:58:58.000Z</time>
      </trkpt>
      <trkpt lat="46.06071" lon="7.7999">
        <ele>2146.3</ele>
        <time>2000-01-01T09:59:08.000Z</time>
      </trkpt>
      <trkpt lat="46.06068" lon="7.7997">
        <ele>2160</ele>
        <time>2000-01-01T09:59:18.000Z</time>
      </trkpt>
      <trkpt lat="46.06075" lon="7.79947">
        <ele>2150</ele>
        <time>2000-01-01T09:59:28.000Z</time>
      </trkpt>
      <trkpt lat="46.06075" lon="7.79929">
        <ele>2158</ele>
        <time>2000-01-01T09:59:38.000Z</time>
      </trkpt>
      <trkpt lat="46.06079" lon="7.79908">
        <ele>2158.1</ele>
        <time>2000-01-01T09:59:48.000Z</time>
      </trkpt>
      <trkpt lat="46.06094" lon="7.79875">
        <ele>2158</ele>
        <time>2000-01-01T09:59:58.000Z</time>
      </trkpt>
      <trkpt lat="46.06097" lon="7.79855">
        <ele>2151.8</ele>
        <time>2000-01-01T10:00:08.000Z</time>
      </trkpt>
      <trkpt lat="46.06106" lon="7.79815">
        <ele>2159</ele>
        <time>2000-01-01T10:00:18.000Z</time>
      </trkpt>
      <trkpt lat="46.06108" lon="7.79793">
        <ele>2151</ele>
        <time>2000-01-01T10:00:28.000Z</time>
      </trkpt>
      <trkpt lat="46.06113" lon="7.79775">
        <ele>2164</ele>
        <time>2000-01-01T10:00:38.000Z</time>
      </trkpt>
      <trkpt lat="46.06116" lon="7.7976">
        <ele>2153.5</ele>
        <time>2000-01-01T10:00:48.000Z</time>
      </trkpt>
      <trkpt lat="46.06123" lon="7.79748">
        <ele>2167</ele>
        <time>2000-01-01T10:00:58.000Z</time>
      </trkpt>
      <trkpt lat="46.0613" lon="7.79729">
        <ele>2153.8</ele>
        <time>2000-01-01T10:01:08.000Z</time>
      </trkpt>
      <trkpt lat="46.06139" lon="7.7972">
        <ele>2167</ele>
        <time>2000-01-01T10:01:18.000Z</time>
      </trkpt>
      <trkpt lat="46.06143" lon="7.797">
        <ele>2152</ele>
        <time>2000-01-01T10:01:28.000Z</time>
      </trkpt>
      <trkpt lat="46.06143" lon="7.79679">
        <ele>2169</ele>
        <time>2000-01-01T10:01:38.000Z</time>
      </trkpt>
      <trkpt lat="46.06145" lon="7.79656">
        <ele>2157.1</ele>
        <time>2000-01-01T10:01:48.000Z</time>
      </trkpt>
      <trkpt lat="46.06145" lon="7.79639">
        <ele>2162</ele>
        <time>2000-01-01T10:01:58.000Z</time>
      </trkpt>
      <trkpt lat="46.06154" lon="7.79622">
        <ele>2154.1</ele>
        <time>2000-01-01T10:02:08.000Z</time>
      </trkpt>
      <trkpt lat="46.06162" lon="7.79604">
        <ele>2155</ele>
        <time>2000-01-01T10:02:18.000Z</time>
      </trkpt>
      <trkpt lat="46.06162" lon="7.79585">
        <ele>2153.3</ele>
        <time>2000-01-01T10:02:28.000Z</time>
      </trkpt>
      <trkpt lat="46.06167" lon="7.79565">
        <ele>2154</ele>
        <time>2000-01-01T10:02:38.000Z</time>
      </trkpt>
      <trkpt lat="46.06172" lon="7.79553">
        <ele>2148.1</ele>
        <time>2000-01-01T10:02:48.000Z</time>
      </trkpt>
      <trkpt lat="46.06178" lon="7.79534">
        <ele>2147</ele>
        <time>2000-01-01T10:02:58.000Z</time>
      </trkpt>
      <trkpt lat="46.06182" lon="7.79501">
        <ele>2147</ele>
        <time>2000-01-01T10:03:08.000Z</time>
      </trkpt>
      <trkpt lat="46.06187" lon="7.79483">
        <ele>2136.4</ele>
        <time>2000-01-01T10:03:18.000Z</time>
      </trkpt>
      <trkpt lat="46.06189" lon="7.79467">
        <ele>2147</ele>
        <time>2000-01-01T10:03:28.000Z</time>
      </trkpt>
      <trkpt lat="46.06187" lon="7.79453">
        <ele>2132.8</ele>
        <time>2000-01-01T10:03:38.000Z</time>
      </trkpt>
      <trkpt lat="46.0619" lon="7.79434">
        <ele>2144</ele>
        <time>2000-01-01T10:03:48.000Z</time>
      </trkpt>
      <trkpt lat="46.06185" lon="7.79421">
        <ele>2129.7</ele>
        <time>2000-01-01T10:03:58.000Z</time>
      </trkpt>
      <trkpt lat="46.06182" lon="7.79407">
        <ele>2144</ele>
        <time>2000-01-01T10:04:08.000Z</time>
      </trkpt>
      <trkpt lat="46.06171" lon="7.79395">
        <ele>2130.3</ele>
        <time>2000-01-01T10:04:18.000Z</time>
      </trkpt>
      <trkpt lat="46.06161" lon="7.79382">
        <ele>2145</ele>
        <time>2000-01-01T10:04:28.000Z</time>
      </trkpt>
      <trkpt lat="46.06154" lon="7.79365">
        <ele>2134</ele>
        <time>2000-01-01T10:04:38.000Z</time>
      </trkpt>
      <trkpt lat="46.06136" lon="7.79339">
        <ele>2145</ele>
        <time>2000-01-01T10:04:48.000Z</time>
      </trkpt>
      <trkpt lat="46.06125" lon="7.79327">
        <ele>2140.7</ele>
        <time>2000-01-01T10:04:58.000Z</time>
      </trkpt>
      <trkpt lat="46.06114" lon="7.79317">
        <ele>2146</ele>
        <time>2000-01-01T10:05:08.000Z</time>
      </trkpt>
      <trkpt lat="46.06104" lon="7.79308">
        <ele>2142.7</ele>
        <time>2000-01-01T10:05:18.000Z</time>
      </trkpt>
      <trkpt lat="46.06094" lon="7.79301">
        <ele>2150</ele>
        <time>2000-01-01T10:05:28.000Z</time>
      </trkpt>
      <trkpt lat="46.06083" lon="7.79299">
        <ele>2147.1</ele>
        <time>2000-01-01T10:05:38.000Z</time>
      </trkpt>
      <trkpt lat="46.06073" lon="7.79293">
        <ele>2154</ele>
        <time>2000-01-01T10:05:48.000Z</time>
      </trkpt>
      <trkpt lat="46.06061" lon="7.79278">
        <ele>2143.6</ele>
        <time>2000-01-01T10:05:58.000Z</time>
      </trkpt>
      <trkpt lat="46.06048" lon="7.79269">
        <ele>2154</ele>
        <time>2000-01-01T10:06:08.000Z</time>
      </trkpt>
      <trkpt lat="46.06039" lon="7.79258">
        <ele>2142.9</ele>
        <time>2000-01-01T10:06:18.000Z</time>
      </trkpt>
      <trkpt lat="46.06027" lon="7.79254">
        <ele>2152</ele>
        <time>2000-01-01T10:06:28.000Z</time>
      </trkpt>
      <trkpt lat="46.0601" lon="7.79234">
        <ele>2151</ele>
        <time>2000-01-01T10:06:38.000Z</time>
      </trkpt>
      <trkpt lat="46.05996" lon="7.79231">
        <ele>2147.2</ele>
        <time>2000-01-01T10:06:48.000Z</time>
      </trkpt>
      <trkpt lat="46.05982" lon="7.79226">
        <ele>2150</ele>
        <time>2000-01-01T10:06:58.000Z</time>
      </trkpt>
      <trkpt lat="46.05972" lon="7.7921">
        <ele>2142.8</ele>
        <time>2000-01-01T10:07:08.000Z</time>
      </trkpt>
      <trkpt lat="46.05962" lon="7.79198">
        <ele>2150</ele>
        <time>2000-01-01T10:07:18.000Z</time>
      </trkpt>
      <trkpt lat="46.0595" lon="7.7919">
        <ele>2141.7</ele>
        <time>2000-01-01T10:07:28.000Z</time>
      </trkpt>
      <trkpt lat="46.05939" lon="7.79182">
        <ele>2150</ele>
        <time>2000-01-01T10:07:38.000Z</time>
      </trkpt>
      <trkpt lat="46.05928" lon="7.7917">
        <ele>2143.1</ele>
        <time>2000-01-01T10:07:48.000Z</time>
      </trkpt>
      <trkpt lat="46.05914" lon="7.7916">
        <ele>2151</ele>
        <time>2000-01-01T10:07:58.000Z</time>
      </trkpt>
      <trkpt lat="46.05902" lon="7.79152">
        <ele>2151.3</ele>
        <time>2000-01-01T10:08:08.000Z</time>
      </trkpt>
      <trkpt lat="46.05892" lon="7.79147">
        <ele>2153</ele>
        <time>2000-01-01T10:08:18.000Z</time>
      </trkpt>
      <trkpt lat="46.05878" lon="7.7914">
        <ele>2155.1</ele>
        <time>2000-01-01T10:08:28.000Z</time>
      </trkpt>
      <trkpt lat="46.05867" lon="7.79131">
        <ele>2157</ele>
        <time>2000-01-01T10:08:38.000Z</time>
      </trkpt>
      <trkpt lat="46.05852" lon="7.79126">
        <ele>2155.9</ele>
        <time>2000-01-01T10:08:48.000Z</time>
      </trkpt>
      <trkpt lat="46.05842" lon="7.79121">
        <ele>2157</ele>
        <time>2000-01-01T10:08:58.000Z</time>
      </trkpt>
      <trkpt lat="46.0583" lon="7.79107">
        <ele>2150.6</ele>
        <time>2000-01-01T10:09:08.000Z</time>
      </trkpt>
      <trkpt lat="46.05805" lon="7.79104">
        <ele>2155</ele>
        <time>2000-01-01T10:09:18.000Z</time>
      </trkpt>
      <trkpt lat="46.05796" lon="7.79092">
        <ele>2154.4</ele>
        <time>2000-01-01T10:09:28.000Z</time>
      </trkpt>
      <trkpt lat="46.05763" lon="7.79061">
        <ele>2154</ele>
        <time>2000-01-01T10:09:38.000Z</time>
      </trkpt>
      <trkpt lat="46.0575" lon="7.79056">
        <ele>2156.2</ele>
        <time>2000-01-01T10:09:48.000Z</time>
      </trkpt>
      <trkpt lat="46.0574" lon="7.79045">
        <ele>2156</ele>
        <time>2000-01-01T10:09:58.000Z</time>
      </trkpt>
      <trkpt lat="46.05728" lon="7.79038">
        <ele>2155.5</ele>
        <time>2000-01-01T10:10:08.000Z</time>
      </trkpt>
      <trkpt lat="46.05717" lon="7.79031">
        <ele>2155</ele>
        <time>2000-01-01T10:10:18.000Z</time>
      </trkpt>
      <trkpt lat="46.05705" lon="7.79028">
        <ele>2156.8</ele>
        <time>2000-01-01T10:10:28.000Z</time>
      </trkpt>
      <trkpt lat="46.05693" lon="7.79016">
        <ele>2155</ele>
        <time>2000-01-01T10:10:38.000Z</time>
      </trkpt>
      <trkpt lat="46.05679" lon="7.79016">
        <ele>2156.4</ele>
        <time>2000-01-01T10:10:48.000Z</time>
      </trkpt>
      <trkpt lat="46.05668" lon="7.79011">
        <ele>2156</ele>
        <time>2000-01-01T10:10:58.000Z</time>
      </trkpt>
      <trkpt lat="46.05653" lon="7.79008">
        <ele>2155.4</ele>
        <time>2000-01-01T10:11:08.000Z</time>
      </trkpt>
      <trkpt lat="46.05628" lon="7.79017">
        <ele>2155</ele>
        <time>2000-01-01T10:11:18.000Z</time>
      </trkpt>
      <trkpt lat="46.05618" lon="7.79015">
        <ele>2160.8</ele>
        <time>2000-01-01T10:11:28.000Z</time>
      </trkpt>
      <trkpt lat="46.05606" lon="7.79018">
        <ele>2157</ele>
        <time>2000-01-01T10:11:38.000Z</time>
      </trkpt>
      <trkpt lat="46.05594" lon="7.79027">
        <ele>2162.6</ele>
        <time>2000-01-01T10:11:48.000Z</time>
      </trkpt>
      <trkpt lat="46.05587" lon="7.7904">
        <ele>2160</ele>
        <time>2000-01-01T10:11:58.000Z</time>
      </trkpt>
      <trkpt lat="46.05576" lon="7.79046">
        <ele>2170.1</ele>
        <time>2000-01-01T10:12:08.000Z</time>
      </trkpt>
      <trkpt lat="46.05566" lon="7.79066">
        <ele>2170</ele>
        <time>2000-01-01T10:12:18.000Z</time>
      </trkpt>
      <trkpt lat="46.05556" lon="7.79077">
        <ele>2176.7</ele>
        <time>2000-01-01T10:12:28.000Z</time>
      </trkpt>
      <trkpt lat="46.05543" lon="7.79084">
        <ele>2179</ele>
        <time>2000-01-01T10:12:38.000Z</time>
      </trkpt>
      <trkpt lat="46.05529" lon="7.79081">
        <ele>2177.9</ele>
        <time>2000-01-01T10:12:48.000Z</time>
      </trkpt>
      <trkpt lat="46.05517" lon="7.79079">
        <ele>2180</ele>
        <time>2000-01-01T10:12:58.000Z</time>
      </trkpt>
      <trkpt lat="46.05505" lon="7.79076">
        <ele>2181.5</ele>
        <time>2000-01-01T10:13:08.000Z</time>
      </trkpt>
      <trkpt lat="46.05493" lon="7.7907">
        <ele>2182</ele>
        <time>2000-01-01T10:13:18.000Z</time>
      </trkpt>
      <trkpt lat="46.0548" lon="7.79067">
        <ele>2185.6</ele>
        <time>2000-01-01T10:13:28.000Z</time>
      </trkpt>
      <trkpt lat="46.05469" lon="7.79058">
        <ele>2185</ele>
        <time>2000-01-01T10:13:38.000Z</time>
      </trkpt>
      <trkpt lat="46.05457" lon="7.7906">
        <ele>2188.9</ele>
        <time>2000-01-01T10:13:48.000Z</time>
      </trkpt>
      <trkpt lat="46.05444" lon="7.79059">
        <ele>2188</ele>
        <time>2000-01-01T10:13:58.000Z</time>
      </trkpt>
      <trkpt lat="46.05419" lon="7.79054">
        <ele>2193</ele>
        <time>2000-01-01T10:14:08.000Z</time>
      </trkpt>
      <trkpt lat="46.05406" lon="7.79051">
        <ele>2193.9</ele>
        <time>2000-01-01T10:14:18.000Z</time>
      </trkpt>
      <trkpt lat="46.05381" lon="7.79055">
        <ele>2196</ele>
        <time>2000-01-01T10:14:28.000Z</time>
      </trkpt>
      <trkpt lat="46.05369" lon="7.79059">
        <ele>2200.2</ele>
        <time>2000-01-01T10:14:38.000Z</time>
      </trkpt>
      <trkpt lat="46.05356" lon="7.79061">
        <ele>2202</ele>
        <time>2000-01-01T10:14:48.000Z</time>
      </trkpt>
      <trkpt lat="46.05331" lon="7.79063">
        <ele>2203</ele>
        <time>2000-01-01T10:14:58.000Z</time>
      </trkpt>
      <trkpt lat="46.05319" lon="7.79066">
        <ele>2206.3</ele>
        <time>2000-01-01T10:15:08.000Z</time>
      </trkpt>
      <trkpt lat="46.05296" lon="7.79078">
        <ele>2206</ele>
        <time>2000-01-01T10:15:18.000Z</time>
      </trkpt>
      <trkpt lat="46.05282" lon="7.79087">
        <ele>2213.7</ele>
        <time>2000-01-01T10:15:28.000Z</time>
      </trkpt>
      <trkpt lat="46.05272" lon="7.7909">
        <ele>2215</ele>
        <time>2000-01-01T10:15:38.000Z</time>
      </trkpt>
      <trkpt lat="46.05257" lon="7.7909">
        <ele>2216.6</ele>
        <time>2000-01-01T10:15:48.000Z</time>
      </trkpt>
      <trkpt lat="46.05245" lon="7.79086">
        <ele>2218</ele>
        <time>2000-01-01T10:15:58.000Z</time>
      </trkpt>
      <trkpt lat="46.05234" lon="7.79077">
        <ele>2218.7</ele>
        <time>2000-01-01T10:16:08.000Z</time>
      </trkpt>
      <trkpt lat="46.05222" lon="7.79062">
        <ele>2220</ele>
        <time>2000-01-01T10:16:18.000Z</time>
      </trkpt>
      <trkpt lat="46.0521" lon="7.79053">
        <ele>2220.6</ele>
        <time>2000-01-01T10:16:28.000Z</time>
      </trkpt>
      <trkpt lat="46.05199" lon="7.79048">
        <ele>2226</ele>
        <time>2000-01-01T10:16:38.000Z</time>
      </trkpt>
      <trkpt lat="46.05186" lon="7.79039">
        <ele>2225.7</ele>
        <time>2000-01-01T10:16:48.000Z</time>
      </trkpt>
      <trkpt lat="46.05174" lon="7.79034">
        <ele>2230</ele>
        <time>2000-01-01T10:16:58.000Z</time>
      </trkpt>
      <trkpt lat="46.05162" lon="7.79034">
        <ele>2233.2</ele>
        <time>2000-01-01T10:17:08.000Z</time>
      </trkpt>
      <trkpt lat="46.05149" lon="7.79029">
        <ele>2236</ele>
        <time>2000-01-01T10:17:18.000Z</time>
      </trkpt>
      <trkpt lat="46.05151" lon="7.79043">
        <ele>2238.9</ele>
        <time>2000-01-01T10:17:28.000Z</time>
      </trkpt>
      <trkpt lat="46.05159" lon="7.79061">
        <ele>2246</ele>
        <time>2000-01-01T10:17:38.000Z</time>
      </trkpt>
      <trkpt lat="46.05147" lon="7.79065">
        <ele>2246.8</ele>
        <time>2000-01-01T10:17:48.000Z</time>
      </trkpt>
      <trkpt lat="46.05133" lon="7.79054">
        <ele>2246</ele>
        <time>2000-01-01T10:17:58.000Z</time>
      </trkpt>
      <trkpt lat="46.05122" lon="7.79041">
        <ele>2247.3</ele>
        <time>2000-01-01T10:18:08.000Z</time>
      </trkpt>
      <trkpt lat="46.0511" lon="7.79037">
        <ele>2247</ele>
        <time>2000-01-01T10:18:18.000Z</time>
      </trkpt>
      <trkpt lat="46.05097" lon="7.79031">
        <ele>2250.8</ele>
        <time>2000-01-01T10:18:28.000Z</time>
      </trkpt>
      <trkpt lat="46.05082" lon="7.79031">
        <ele>2253</ele>
        <time>2000-01-01T10:18:38.000Z</time>
      </trkpt>
      <trkpt lat="46.05068" lon="7.79028">
        <ele>2257</ele>
        <time>2000-01-01T10:18:48.000Z</time>
      </trkpt>
      <trkpt lat="46.05044" lon="7.79013">
        <ele>2259</ele>
        <time>2000-01-01T10:18:58.000Z</time>
      </trkpt>
      <trkpt lat="46.05033" lon="7.79">
        <ele>2259.1</ele>
        <time>2000-01-01T10:19:08.000Z</time>
      </trkpt>
      <trkpt lat="46.05019" lon="7.78992">
        <ele>2258</ele>
        <time>2000-01-01T10:19:18.000Z</time>
      </trkpt>
      <trkpt lat="46.05007" lon="7.78987">
        <ele>2262.9</ele>
        <time>2000-01-01T10:19:28.000Z</time>
      </trkpt>
      <trkpt lat="46.04981" lon="7.78977">
        <ele>2260</ele>
        <time>2000-01-01T10:19:38.000Z</time>
      </trkpt>
      <trkpt lat="46.04971" lon="7.78984">
        <ele>2266.6</ele>
        <time>2000-01-01T10:19:48.000Z</time>
      </trkpt>
      <trkpt lat="46.04958" lon="7.78974">
        <ele>2262</ele>
        <time>2000-01-01T10:19:58.000Z</time>
      </trkpt>
      <trkpt lat="46.04945" lon="7.78969">
        <ele>2263</ele>
        <time>2000-01-01T10:20:08.000Z</time>
      </trkpt>
      <trkpt lat="46.04934" lon="7.78961">
        <ele>2266</ele>
        <time>2000-01-01T10:20:18.000Z</time>
      </trkpt>
      <trkpt lat="46.04916" lon="7.78941">
        <ele>2262</ele>
        <time>2000-01-01T10:20:28.000Z</time>
      </trkpt>
      <trkpt lat="46.04908" lon="7.78929">
        <ele>2260</ele>
        <time>2000-01-01T10:20:38.000Z</time>
      </trkpt>
      <trkpt lat="46.04901" lon="7.78914">
        <ele>2262</ele>
        <time>2000-01-01T10:20:48.000Z</time>
      </trkpt>
      <trkpt lat="46.0489" lon="7.78901">
        <ele>2255.8</ele>
        <time>2000-01-01T10:20:58.000Z</time>
      </trkpt>
      <trkpt lat="46.04879" lon="7.78891">
        <ele>2262</ele>
        <time>2000-01-01T10:21:08.000Z</time>
      </trkpt>
      <trkpt lat="46.04865" lon="7.78883">
        <ele>2260.1</ele>
        <time>2000-01-01T10:21:18.000Z</time>
      </trkpt>
      <trkpt lat="46.04843" lon="7.78883">
        <ele>2264</ele>
        <time>2000-01-01T10:21:28.000Z</time>
      </trkpt>
      <trkpt lat="46.04831" lon="7.78891">
        <ele>2262.3</ele>
        <time>2000-01-01T10:21:38.000Z</time>
      </trkpt>
      <trkpt lat="46.0482" lon="7.78884">
        <ele>2268</ele>
        <time>2000-01-01T10:21:48.000Z</time>
      </trkpt>
      <trkpt lat="46.04809" lon="7.78874">
        <ele>2263.6</ele>
        <time>2000-01-01T10:21:58.000Z</time>
      </trkpt>
      <trkpt lat="46.04796" lon="7.78864">
        <ele>2272</ele>
        <time>2000-01-01T10:22:08.000Z</time>
      </trkpt>
      <trkpt lat="46.04789" lon="7.7885">
        <ele>2268.2</ele>
        <time>2000-01-01T10:22:18.000Z</time>
      </trkpt>
      <trkpt lat="46.04782" lon="7.78834">
        <ele>2276</ele>
        <time>2000-01-01T10:22:28.000Z</time>
      </trkpt>
      <trkpt lat="46.04756" lon="7.78791">
        <ele>2280</ele>
        <time>2000-01-01T10:22:38.000Z</time>
      </trkpt>
      <trkpt lat="46.0475" lon="7.78775">
        <ele>2278.2</ele>
        <time>2000-01-01T10:22:48.000Z</time>
      </trkpt>
      <trkpt lat="46.04742" lon="7.78761">
        <ele>2285</ele>
        <time>2000-01-01T10:22:58.000Z</time>
      </trkpt>
      <trkpt lat="46.04734" lon="7.78745">
        <ele>2280.8</ele>
        <time>2000-01-01T10:23:08.000Z</time>
      </trkpt>
      <trkpt lat="46.04721" lon="7.78737">
        <ele>2283</ele>
        <time>2000-01-01T10:23:18.000Z</time>
      </trkpt>
      <trkpt lat="46.04712" lon="7.78725">
        <ele>2286.4</ele>
        <time>2000-01-01T10:23:28.000Z</time>
      </trkpt>
      <trkpt lat="46.04701" lon="7.78708">
        <ele>2285</ele>
        <time>2000-01-01T10:23:38.000Z</time>
      </trkpt>
      <trkpt lat="46.0469" lon="7.78694">
        <ele>2286</ele>
        <time>2000-01-01T10:23:48.000Z</time>
      </trkpt>
      <trkpt lat="46.0468" lon="7.78685">
        <ele>2285</ele>
        <time>2000-01-01T10:23:58.000Z</time>
      </trkpt>
      <trkpt lat="46.04667" lon="7.78675">
        <ele>2286</ele>
        <time>2000-01-01T10:24:08.000Z</time>
      </trkpt>
      <trkpt lat="46.04644" lon="7.78649">
        <ele>2285</ele>
        <time>2000-01-01T10:24:18.000Z</time>
      </trkpt>
      <trkpt lat="46.04635" lon="7.78636">
        <ele>2286.7</ele>
        <time>2000-01-01T10:24:28.000Z</time>
      </trkpt>
      <trkpt lat="46.04624" lon="7.78621">
        <ele>2289</ele>
        <time>2000-01-01T10:24:38.000Z</time>
      </trkpt>
      <trkpt lat="46.04613" lon="7.78615">
        <ele>2292.6</ele>
        <time>2000-01-01T10:24:48.000Z</time>
      </trkpt>
      <trkpt lat="46.046" lon="7.7861">
        <ele>2298</ele>
        <time>2000-01-01T10:24:58.000Z</time>
      </trkpt>
      <trkpt lat="46.04575" lon="7.78595">
        <ele>2300</ele>
        <time>2000-01-01T10:25:08.000Z</time>
      </trkpt>
      <trkpt lat="46.0456" lon="7.78588">
        <ele>2302.8</ele>
        <time>2000-01-01T10:25:18.000Z</time>
      </trkpt>
      <trkpt lat="46.04548" lon="7.78577">
        <ele>2302</ele>
        <time>2000-01-01T10:25:28.000Z</time>
      </trkpt>
      <trkpt lat="46.04535" lon="7.7857">
        <ele>2304.1</ele>
        <time>2000-01-01T10:25:38.000Z</time>
      </trkpt>
      <trkpt lat="46.04521" lon="7.78571">
        <ele>2309</ele>
        <time>2000-01-01T10:25:48.000Z</time>
      </trkpt>
      <trkpt lat="46.04509" lon="7.7857">
        <ele>2312.7</ele>
        <time>2000-01-01T10:25:58.000Z</time>
      </trkpt>
      <trkpt lat="46.04485" lon="7.78553">
        <ele>2314</ele>
        <time>2000-01-01T10:26:08.000Z</time>
      </trkpt>
      <trkpt lat="46.04471" lon="7.78549">
        <ele>2315.2</ele>
        <time>2000-01-01T10:26:18.000Z</time>
      </trkpt>
      <trkpt lat="46.0446" lon="7.78549">
        <ele>2314</ele>
        <time>2000-01-01T10:26:28.000Z</time>
      </trkpt>
      <trkpt lat="46.04449" lon="7.78543">
        <ele>2317.6</ele>
        <time>2000-01-01T10:26:38.000Z</time>
      </trkpt>
      <trkpt lat="46.0444" lon="7.78536">
        <ele>2315</ele>
        <time>2000-01-01T10:26:48.000Z</time>
      </trkpt>
      <trkpt lat="46.0443" lon="7.78521">
        <ele>2314.4</ele>
        <time>2000-01-01T10:26:58.000Z</time>
      </trkpt>
      <trkpt lat="46.04415" lon="7.78511">
        <ele>2318</ele>
        <time>2000-01-01T10:27:08.000Z</time>
      </trkpt>
      <trkpt lat="46.0439" lon="7.78506">
        <ele>2320</ele>
        <time>2000-01-01T10:27:18.000Z</time>
      </trkpt>
      <trkpt lat="46.04379" lon="7.78493">
        <ele>2321.2</ele>
        <time>2000-01-01T10:27:28.000Z</time>
      </trkpt>
      <trkpt lat="46.04367" lon="7.78484">
        <ele>2326</ele>
        <time>2000-01-01T10:27:38.000Z</time>
      </trkpt>
      <trkpt lat="46.04357" lon="7.78469">
        <ele>2324.1</ele>
        <time>2000-01-01T10:27:48.000Z</time>
      </trkpt>
      <trkpt lat="46.04348" lon="7.78464">
        <ele>2329</ele>
        <time>2000-01-01T10:27:58.000Z</time>
      </trkpt>
      <trkpt lat="46.04334" lon="7.78449">
        <ele>2326</ele>
        <time>2000-01-01T10:28:08.000Z</time>
      </trkpt>
      <trkpt lat="46.04324" lon="7.78436">
        <ele>2329</ele>
        <time>2000-01-01T10:28:18.000Z</time>
      </trkpt>
      <trkpt lat="46.04316" lon="7.78424">
        <ele>2328.6</ele>
        <time>2000-01-01T10:28:28.000Z</time>
      </trkpt>
      <trkpt lat="46.04309" lon="7.78412">
        <ele>2330</ele>
        <time>2000-01-01T10:28:38.000Z</time>
      </trkpt>
      <trkpt lat="46.04299" lon="7.78402">
        <ele>2331.4</ele>
        <time>2000-01-01T10:28:48.000Z</time>
      </trkpt>
      <trkpt lat="46.04292" lon="7.78392">
        <ele>2332</ele>
        <time>2000-01-01T10:28:58.000Z</time>
      </trkpt>
      <trkpt lat="46.04283" lon="7.78376">
        <ele>2331.2</ele>
        <time>2000-01-01T10:29:08.000Z</time>
      </trkpt>
      <trkpt lat="46.04261" lon="7.78358">
        <ele>2333</ele>
        <time>2000-01-01T10:29:18.000Z</time>
      </trkpt>
      <trkpt lat="46.04253" lon="7.78344">
        <ele>2334.9</ele>
        <time>2000-01-01T10:29:28.000Z</time>
      </trkpt>
      <trkpt lat="46.0423" lon="7.78316">
        <ele>2338</ele>
        <time>2000-01-01T10:29:38.000Z</time>
      </trkpt>
      <trkpt lat="46.04224" lon="7.78302">
        <ele>2338.3</ele>
        <time>2000-01-01T10:29:48.000Z</time>
      </trkpt>
      <trkpt lat="46.04219" lon="7.78288">
        <ele>2343</ele>
        <time>2000-01-01T10:29:58.000Z</time>
      </trkpt>
      <trkpt lat="46.04203" lon="7.78252">
        <ele>2343</ele>
        <time>2000-01-01T10:30:08.000Z</time>
      </trkpt>
      <trkpt lat="46.04196" lon="7.78231">
        <ele>2342.3</ele>
        <time>2000-01-01T10:30:18.000Z</time>
      </trkpt>
      <trkpt lat="46.04192" lon="7.78213">
        <ele>2343</ele>
        <time>2000-01-01T10:30:28.000Z</time>
      </trkpt>
      <trkpt lat="46.04182" lon="7.78194">
        <ele>2342.1</ele>
        <time>2000-01-01T10:30:38.000Z</time>
      </trkpt>
      <trkpt lat="46.04173" lon="7.7818">
        <ele>2343</ele>
        <time>2000-01-01T10:30:48.000Z</time>
      </trkpt>
      <trkpt lat="46.04164" lon="7.78171">
        <ele>2342.9</ele>
        <time>2000-01-01T10:30:58.000Z</time>
      </trkpt>
      <trkpt lat="46.04156" lon="7.78155">
        <ele>2345</ele>
        <time>2000-01-01T10:31:08.000Z</time>
      </trkpt>
      <trkpt lat="46.04145" lon="7.78139">
        <ele>2343.5</ele>
        <time>2000-01-01T10:31:18.000Z</time>
      </trkpt>
      <trkpt lat="46.04137" lon="7.78123">
        <ele>2344</ele>
        <time>2000-01-01T10:31:28.000Z</time>
      </trkpt>
      <trkpt lat="46.04121" lon="7.78097">
        <ele>2345</ele>
        <time>2000-01-01T10:31:38.000Z</time>
      </trkpt>
      <trkpt lat="46.04113" lon="7.78081">
        <ele>2344.3</ele>
        <time>2000-01-01T10:31:48.000Z</time>
      </trkpt>
      <trkpt lat="46.04108" lon="7.78065">
        <ele>2346</ele>
        <time>2000-01-01T10:31:58.000Z</time>
      </trkpt>
      <trkpt lat="46.04094" lon="7.7805">
        <ele>2346.1</ele>
        <time>2000-01-01T10:32:08.000Z</time>
      </trkpt>
      <trkpt lat="46.0409" lon="7.78037">
        <ele>2348</ele>
        <time>2000-01-01T10:32:18.000Z</time>
      </trkpt>
      <trkpt lat="46.0408" lon="7.78021">
        <ele>2345.9</ele>
        <time>2000-01-01T10:32:28.000Z</time>
      </trkpt>
      <trkpt lat="46.04072" lon="7.78006">
        <ele>2348</ele>
        <time>2000-01-01T10:32:38.000Z</time>
      </trkpt>
      <trkpt lat="46.04065" lon="7.77989">
        <ele>2347.7</ele>
        <time>2000-01-01T10:32:48.000Z</time>
      </trkpt>
      <trkpt lat="46.04059" lon="7.77972">
        <ele>2347</ele>
        <time>2000-01-01T10:32:58.000Z</time>
      </trkpt>
      <trkpt lat="46.04024" lon="7.77934">
        <ele>2346</ele>
        <time>2000-01-01T10:33:08.000Z</time>
      </trkpt>
      <trkpt lat="46.04013" lon="7.77924">
        <ele>2345.8</ele>
        <time>2000-01-01T10:33:18.000Z</time>
      </trkpt>
      <trkpt lat="46.04001" lon="7.77915">
        <ele>2345</ele>
        <time>2000-01-01T10:33:28.000Z</time>
      </trkpt>
      <trkpt lat="46.03992" lon="7.77907">
        <ele>2345.1</ele>
        <time>2000-01-01T10:33:38.000Z</time>
      </trkpt>
      <trkpt lat="46.03981" lon="7.77892">
        <ele>2344</ele>
        <time>2000-01-01T10:33:48.000Z</time>
      </trkpt>
      <trkpt lat="46.03969" lon="7.7788">
        <ele>2343.9</ele>
        <time>2000-01-01T10:33:58.000Z</time>
      </trkpt>
      <trkpt lat="46.03957" lon="7.7787">
        <ele>2343</ele>
        <time>2000-01-01T10:34:08.000Z</time>
      </trkpt>
      <trkpt lat="46.03948" lon="7.77902">
        <ele>2344</ele>
        <time>2000-01-01T10:34:18.000Z</time>
      </trkpt>
      <trkpt lat="46.03951" lon="7.77918">
        <ele>2345</ele>
        <time>2000-01-01T10:34:28.000Z</time>
      </trkpt>
      <trkpt lat="46.03951" lon="7.77932">
        <ele>2343</ele>
        <time>2000-01-01T10:34:38.000Z</time>
      </trkpt>
      <trkpt lat="46.03952" lon="7.77947">
        <ele>2341.7</ele>
        <time>2000-01-01T10:34:48.000Z</time>
      </trkpt>
      <trkpt lat="46.03958" lon="7.77962">
        <ele>2343</ele>
        <time>2000-01-01T10:34:58.000Z</time>
      </trkpt>
      <trkpt lat="46.03959" lon="7.77992">
        <ele>2345</ele>
        <time>2000-01-01T10:35:08.000Z</time>
      </trkpt>
      <trkpt lat="46.03949" lon="7.77991">
        <ele>2342.7</ele>
        <time>2000-01-01T10:35:18.000Z</time>
      </trkpt>
      <trkpt lat="46.03918" lon="7.7797">
        <ele>2345</ele>
        <time>2000-01-01T10:35:28.000Z</time>
      </trkpt>
      <trkpt lat="46.03904" lon="7.77956">
        <ele>2341.5</ele>
        <time>2000-01-01T10:35:38.000Z</time>
      </trkpt>
      <trkpt lat="46.03887" lon="7.77945">
        <ele>2344</ele>
        <time>2000-01-01T10:35:48.000Z</time>
      </trkpt>
      <trkpt lat="46.03873" lon="7.77929">
        <ele>2342.4</ele>
        <time>2000-01-01T10:35:58.000Z</time>
      </trkpt>
      <trkpt lat="46.0386" lon="7.77907">
        <ele>2339</ele>
        <time>2000-01-01T10:36:08.000Z</time>
      </trkpt>
      <trkpt lat="46.03841" lon="7.77885">
        <ele>2337</ele>
        <time>2000-01-01T10:36:18.000Z</time>
      </trkpt>
      <trkpt lat="46.03808" lon="7.77868">
        <ele>2336</ele>
        <time>2000-01-01T10:36:28.000Z</time>
      </trkpt>
      <trkpt lat="46.03792" lon="7.77855">
        <ele>2335.1</ele>
        <time>2000-01-01T10:36:38.000Z</time>
      </trkpt>
      <trkpt lat="46.03779" lon="7.77836">
        <ele>2335</ele>
        <time>2000-01-01T10:36:48.000Z</time>
      </trkpt>
      <trkpt lat="46.03759" lon="7.7781">
        <ele>2333</ele>
        <time>2000-01-01T10:36:58.000Z</time>
      </trkpt>
      <trkpt lat="46.0374" lon="7.77803">
        <ele>2333</ele>
        <time>2000-01-01T10:37:08.000Z</time>
      </trkpt>
      <trkpt lat="46.03724" lon="7.77791">
        <ele>2333</ele>
        <time>2000-01-01T10:37:18.000Z</time>
      </trkpt>
      <trkpt lat="46.03706" lon="7.77795">
        <ele>2330</ele>
        <time>2000-01-01T10:37:28.000Z</time>
      </trkpt>
      <trkpt lat="46.03689" lon="7.77808">
        <ele>2330</ele>
        <time>2000-01-01T10:37:38.000Z</time>
      </trkpt>
      <trkpt lat="46.03669" lon="7.77813">
        <ele>2330</ele>
        <time>2000-01-01T10:37:48.000Z</time>
      </trkpt>
      <trkpt lat="46.0365" lon="7.77812">
        <ele>2330</ele>
        <time>2000-01-01T10:37:58.000Z</time>
      </trkpt>
      <trkpt lat="46.03631" lon="7.77803">
        <ele>2329</ele>
        <time>2000-01-01T10:38:08.000Z</time>
      </trkpt>
      <trkpt lat="46.03623" lon="7.77788">
        <ele>2327</ele>
        <time>2000-01-01T10:38:18.000Z</time>
      </trkpt>
      <trkpt lat="46.03614" lon="7.77765">
        <ele>2326</ele>
        <time>2000-01-01T10:38:28.000Z</time>
      </trkpt>
      <trkpt lat="46.036" lon="7.77764">
        <ele>2323.9</ele>
        <time>2000-01-01T10:38:38.000Z</time>
      </trkpt>
      <trkpt lat="46.03582" lon="7.77761">
        <ele>2324</ele>
        <time>2000-01-01T10:38:48.000Z</time>
      </trkpt>
      <trkpt lat="46.03562" lon="7.77763">
        <ele>2319</ele>
        <time>2000-01-01T10:38:58.000Z</time>
      </trkpt>
      <trkpt lat="46.03544" lon="7.77774">
        <ele>2315</ele>
        <time>2000-01-01T10:39:08.000Z</time>
      </trkpt>
      <trkpt lat="46.03518" lon="7.77785">
        <ele>2313</ele>
        <time>2000-01-01T10:39:18.000Z</time>
      </trkpt>
      <trkpt lat="46.03504" lon="7.77793">
        <ele>2314.8</ele>
        <time>2000-01-01T10:39:28.000Z</time>
      </trkpt>
      <trkpt lat="46.03489" lon="7.77795">
        <ele>2314</ele>
        <time>2000-01-01T10:39:38.000Z</time>
      </trkpt>
      <trkpt lat="46.03478" lon="7.77797">
        <ele>2314.9</ele>
        <time>2000-01-01T10:39:48.000Z</time>
      </trkpt>
      <trkpt lat="46.03466" lon="7.77791">
        <ele>2311</ele>
        <time>2000-01-01T10:39:58.000Z</time>
      </trkpt>
      <trkpt lat="46.03456" lon="7.77785">
        <ele>2312.3</ele>
        <time>2000-01-01T10:40:08.000Z</time>
      </trkpt>
      <trkpt lat="46.03441" lon="7.77771">
        <ele>2309</ele>
        <time>2000-01-01T10:40:18.000Z</time>
      </trkpt>
      <trkpt lat="46.03426" lon="7.7776">
        <ele>2307.4</ele>
        <time>2000-01-01T10:40:28.000Z</time>
      </trkpt>
      <trkpt lat="46.03414" lon="7.77751">
        <ele>2306</ele>
        <time>2000-01-01T10:40:38.000Z</time>
      </trkpt>
      <trkpt lat="46.03405" lon="7.77743">
        <ele>2305</ele>
        <time>2000-01-01T10:40:48.000Z</time>
      </trkpt>
      <trkpt lat="46.03396" lon="7.77734">
        <ele>2301</ele>
        <time>2000-01-01T10:40:58.000Z</time>
      </trkpt>
      <trkpt lat="46.03378" lon="7.77718">
        <ele>2297</ele>
        <time>2000-01-01T10:41:08.000Z</time>
      </trkpt>
      <trkpt lat="46.03357" lon="7.77697">
        <ele>2292</ele>
        <time>2000-01-01T10:41:18.000Z</time>
      </trkpt>
      <trkpt lat="46.03344" lon="7.77688">
        <ele>2292.8</ele>
        <time>2000-01-01T10:41:28.000Z</time>
      </trkpt>
      <trkpt lat="46.03324" lon="7.77669">
        <ele>2284</ele>
        <time>2000-01-01T10:41:38.000Z</time>
      </trkpt>
      <trkpt lat="46.03312" lon="7.77661">
        <ele>2285.8</ele>
        <time>2000-01-01T10:41:48.000Z</time>
      </trkpt>
      <trkpt lat="46.03296" lon="7.77658">
        <ele>2274</ele>
        <time>2000-01-01T10:41:58.000Z</time>
      </trkpt>
      <trkpt lat="46.03285" lon="7.77653">
        <ele>2280.5</ele>
        <time>2000-01-01T10:42:08.000Z</time>
      </trkpt>
      <trkpt lat="46.03274" lon="7.77653">
        <ele>2272</ele>
        <time>2000-01-01T10:42:18.000Z</time>
      </trkpt>
      <trkpt lat="46.0325" lon="7.77657">
        <ele>2270</ele>
        <time>2000-01-01T10:42:28.000Z</time>
      </trkpt>
      <trkpt lat="46.03235" lon="7.77656">
        <ele>2273.6</ele>
        <time>2000-01-01T10:42:38.000Z</time>
      </trkpt>
      <trkpt lat="46.03225" lon="7.77658">
        <ele>2263</ele>
        <time>2000-01-01T10:42:48.000Z</time>
      </trkpt>
      <trkpt lat="46.03201" lon="7.77669">
        <ele>2263</ele>
        <time>2000-01-01T10:42:58.000Z</time>
      </trkpt>
      <trkpt lat="46.03187" lon="7.7767">
        <ele>2266.4</ele>
        <time>2000-01-01T10:43:08.000Z</time>
      </trkpt>
      <trkpt lat="46.0316" lon="7.77677">
        <ele>2253</ele>
        <time>2000-01-01T10:43:18.000Z</time>
      </trkpt>
      <trkpt lat="46.03147" lon="7.77679">
        <ele>2258.7</ele>
        <time>2000-01-01T10:43:28.000Z</time>
      </trkpt>
      <trkpt lat="46.03128" lon="7.7768">
        <ele>2252</ele>
        <time>2000-01-01T10:43:38.000Z</time>
      </trkpt>
      <trkpt lat="46.03117" lon="7.7768">
        <ele>2254.1</ele>
        <time>2000-01-01T10:43:48.000Z</time>
      </trkpt>
      <trkpt lat="46.03107" lon="7.77674">
        <ele>2248</ele>
        <time>2000-01-01T10:43:58.000Z</time>
      </trkpt>
      <trkpt lat="46.03087" lon="7.77657">
        <ele>2243</ele>
        <time>2000-01-01T10:44:08.000Z</time>
      </trkpt>
      <trkpt lat="46.03068" lon="7.77637">
        <ele>2239</ele>
        <time>2000-01-01T10:44:18.000Z</time>
      </trkpt>
      <trkpt lat="46.03047" lon="7.77614">
        <ele>2236</ele>
        <time>2000-01-01T10:44:28.000Z</time>
      </trkpt>
      <trkpt lat="46.03038" lon="7.77602">
        <ele>2237.7</ele>
        <time>2000-01-01T10:44:38.000Z</time>
      </trkpt>
      <trkpt lat="46.03027" lon="7.77571">
        <ele>2229</ele>
        <time>2000-01-01T10:44:48.000Z</time>
      </trkpt>
      <trkpt lat="46.0302" lon="7.77562">
        <ele>2231.3</ele>
        <time>2000-01-01T10:44:58.000Z</time>
      </trkpt>
      <trkpt lat="46.03011" lon="7.77547">
        <ele>2224</ele>
        <time>2000-01-01T10:45:08.000Z</time>
      </trkpt>
      <trkpt lat="46.03006" lon="7.77534">
        <ele>2226.4</ele>
        <time>2000-01-01T10:45:18.000Z</time>
      </trkpt>
      <trkpt lat="46.02994" lon="7.77517">
        <ele>2220</ele>
        <time>2000-01-01T10:45:28.000Z</time>
      </trkpt>
      <trkpt lat="46.02988" lon="7.77505">
        <ele>2222.8</ele>
        <time>2000-01-01T10:45:38.000Z</time>
      </trkpt>
      <trkpt lat="46.0298" lon="7.77488">
        <ele>2215</ele>
        <time>2000-01-01T10:45:48.000Z</time>
      </trkpt>
      <trkpt lat="46.0297" lon="7.77469">
        <ele>2218.8</ele>
        <time>2000-01-01T10:45:58.000Z</time>
      </trkpt>
      <trkpt lat="46.02963" lon="7.77454">
        <ele>2214</ele>
        <time>2000-01-01T10:46:08.000Z</time>
      </trkpt>
      <trkpt lat="46.02956" lon="7.77443">
        <ele>2215.6</ele>
        <time>2000-01-01T10:46:18.000Z</time>
      </trkpt>
      <trkpt lat="46.02949" lon="7.77418">
        <ele>2212</ele>
        <time>2000-01-01T10:46:28.000Z</time>
      </trkpt>
      <trkpt lat="46.02954" lon="7.774">
        <ele>2206.3</ele>
        <time>2000-01-01T10:46:38.000Z</time>
      </trkpt>
      <trkpt lat="46.02957" lon="7.77381">
        <ele>2204</ele>
        <time>2000-01-01T10:46:48.000Z</time>
      </trkpt>
      <trkpt lat="46.02953" lon="7.77369">
        <ele>2199.6</ele>
        <time>2000-01-01T10:46:58.000Z</time>
      </trkpt>
      <trkpt lat="46.02939" lon="7.77369">
        <ele>2201</ele>
        <time>2000-01-01T10:47:08.000Z</time>
      </trkpt>
      <trkpt lat="46.02929" lon="7.77367">
        <ele>2191.7</ele>
        <time>2000-01-01T10:47:18.000Z</time>
      </trkpt>
      <trkpt lat="46.02918" lon="7.7737">
        <ele>2198</ele>
        <time>2000-01-01T10:47:28.000Z</time>
      </trkpt>
      <trkpt lat="46.02893" lon="7.77372">
        <ele>2194</ele>
        <time>2000-01-01T10:47:38.000Z</time>
      </trkpt>
      <trkpt lat="46.0287" lon="7.7737">
        <ele>2192</ele>
        <time>2000-01-01T10:47:48.000Z</time>
      </trkpt>
      <trkpt lat="46.02857" lon="7.77364">
        <ele>2177.5</ele>
        <time>2000-01-01T10:47:58.000Z</time>
      </trkpt>
      <trkpt lat="46.02845" lon="7.7736">
        <ele>2185</ele>
        <time>2000-01-01T10:48:08.000Z</time>
      </trkpt>
      <trkpt lat="46.0283" lon="7.77354">
        <ele>2167.7</ele>
        <time>2000-01-01T10:48:18.000Z</time>
      </trkpt>
      <trkpt lat="46.02819" lon="7.77355">
        <ele>2174</ele>
        <time>2000-01-01T10:48:28.000Z</time>
      </trkpt>
      <trkpt lat="46.02803" lon="7.7735">
        <ele>2162.7</ele>
        <time>2000-01-01T10:48:38.000Z</time>
      </trkpt>
      <trkpt lat="46.02788" lon="7.77331">
        <ele>2174</ele>
        <time>2000-01-01T10:48:48.000Z</time>
      </trkpt>
      <trkpt lat="46.0279" lon="7.77349">
        <ele>2160.6</ele>
        <time>2000-01-01T10:48:58.000Z</time>
      </trkpt>
      <trkpt lat="46.02782" lon="7.77354">
        <ele>2174</ele>
        <time>2000-01-01T10:49:08.000Z</time>
      </trkpt>
      <trkpt lat="46.02761" lon="7.77358">
        <ele>2172</ele>
        <time>2000-01-01T10:49:18.000Z</time>
      </trkpt>
      <trkpt lat="46.02742" lon="7.77361">
        <ele>2171</ele>
        <time>2000-01-01T10:49:28.000Z</time>
      </trkpt>
      <trkpt lat="46.02726" lon="7.77348">
        <ele>2159.6</ele>
        <time>2000-01-01T10:49:38.000Z</time>
      </trkpt>
      <trkpt lat="46.02706" lon="7.77335">
        <ele>2170</ele>
        <time>2000-01-01T10:49:48.000Z</time>
      </trkpt>
      <trkpt lat="46.02694" lon="7.77332">
        <ele>2157.7</ele>
        <time>2000-01-01T10:49:58.000Z</time>
      </trkpt>
      <trkpt lat="46.0267" lon="7.77312">
        <ele>2165</ele>
        <time>2000-01-01T10:50:08.000Z</time>
      </trkpt>
      <trkpt lat="46.02664" lon="7.77298">
        <ele>2150.1</ele>
        <time>2000-01-01T10:50:18.000Z</time>
      </trkpt>
      <trkpt lat="46.02653" lon="7.77287">
        <ele>2158</ele>
        <time>2000-01-01T10:50:28.000Z</time>
      </trkpt>
      <trkpt lat="46.02647" lon="7.77271">
        <ele>2142.7</ele>
        <time>2000-01-01T10:50:38.000Z</time>
      </trkpt>
      <trkpt lat="46.02638" lon="7.77265">
        <ele>2149</ele>
        <time>2000-01-01T10:50:48.000Z</time>
      </trkpt>
      <trkpt lat="46.02622" lon="7.77257">
        <ele>2136.2</ele>
        <time>2000-01-01T10:50:58.000Z</time>
      </trkpt>
      <trkpt lat="46.02611" lon="7.7726">
        <ele>2144</ele>
        <time>2000-01-01T10:51:08.000Z</time>
      </trkpt>
      <trkpt lat="46.02595" lon="7.77262">
        <ele>2130.3</ele>
        <time>2000-01-01T10:51:18.000Z</time>
      </trkpt>
      <trkpt lat="46.0258" lon="7.77259">
        <ele>2132</ele>
        <time>2000-01-01T10:51:28.000Z</time>
      </trkpt>
      <trkpt lat="46.02571" lon="7.77252">
        <ele>2122.6</ele>
        <time>2000-01-01T10:51:38.000Z</time>
      </trkpt>
      <trkpt lat="46.0256" lon="7.77245">
        <ele>2115</ele>
        <time>2000-01-01T10:51:48.000Z</time>
      </trkpt>
      <trkpt lat="46.02555" lon="7.77234">
        <ele>2115</ele>
        <time>2000-01-01T10:51:58.000Z</time>
      </trkpt>
      <trkpt lat="46.02554" lon="7.7722">
        <ele>2112</ele>
        <time>2000-01-01T10:52:08.000Z</time>
      </trkpt>
      <trkpt lat="46.0255" lon="7.77199">
        <ele>2107</ele>
        <time>2000-01-01T10:52:18.000Z</time>
      </trkpt>
      <trkpt lat="46.02546" lon="7.77185">
        <ele>2102</ele>
        <time>2000-01-01T10:52:28.000Z</time>
      </trkpt>
      <trkpt lat="46.02547" lon="7.77172">
        <ele>2099</ele>
        <time>2000-01-01T10:52:38.000Z</time>
      </trkpt>
      <trkpt lat="46.02539" lon="7.77165">
        <ele>2094</ele>
        <time>2000-01-01T10:52:48.000Z</time>
      </trkpt>
      <trkpt lat="46.02539" lon="7.77151">
        <ele>2090.5</ele>
        <time>2000-01-01T10:52:58.000Z</time>
      </trkpt>
      <trkpt lat="46.02536" lon="7.77134">
        <ele>2083</ele>
        <time>2000-01-01T10:53:08.000Z</time>
      </trkpt>
      <trkpt lat="46.02525" lon="7.7713">
        <ele>2082.1</ele>
        <time>2000-01-01T10:53:18.000Z</time>
      </trkpt>
      <trkpt lat="46.02531" lon="7.77111">
        <ele>2074</ele>
        <time>2000-01-01T10:53:28.000Z</time>
      </trkpt>
      <trkpt lat="46.02533" lon="7.77092">
        <ele>2068.5</ele>
        <time>2000-01-01T10:53:38.000Z</time>
      </trkpt>
      <trkpt lat="46.02533" lon="7.77077">
        <ele>2060</ele>
        <time>2000-01-01T10:53:48.000Z</time>
      </trkpt>
      <trkpt lat="46.02537" lon="7.77064">
        <ele>2058.8</ele>
        <time>2000-01-01T10:53:58.000Z</time>
      </trkpt>
      <trkpt lat="46.02538" lon="7.77049">
        <ele>2053</ele>
        <time>2000-01-01T10:54:08.000Z</time>
      </trkpt>
      <trkpt lat="46.02533" lon="7.77037">
        <ele>2051.1</ele>
        <time>2000-01-01T10:54:18.000Z</time>
      </trkpt>
      <trkpt lat="46.02537" lon="7.77024">
        <ele>2051</ele>
        <time>2000-01-01T10:54:28.000Z</time>
      </trkpt>
      <trkpt lat="46.02543" lon="7.77012">
        <ele>2041.9</ele>
        <time>2000-01-01T10:54:38.000Z</time>
      </trkpt>
      <trkpt lat="46.02532" lon="7.76999">
        <ele>2040</ele>
        <time>2000-01-01T10:54:48.000Z</time>
      </trkpt>
      <trkpt lat="46.02531" lon="7.76984">
        <ele>2035.5</ele>
        <time>2000-01-01T10:54:58.000Z</time>
      </trkpt>
      <trkpt lat="46.02536" lon="7.76971">
        <ele>2036</ele>
        <time>2000-01-01T10:55:08.000Z</time>
      </trkpt>
      <trkpt lat="46.02521" lon="7.76925">
        <ele>2033</ele>
        <time>2000-01-01T10:55:18.000Z</time>
      </trkpt>
      <trkpt lat="46.02521" lon="7.76909">
        <ele>2019.4</ele>
        <time>2000-01-01T10:55:28.000Z</time>
      </trkpt>
      <trkpt lat="46.02517" lon="7.76892">
        <ele>2033</ele>
        <time>2000-01-01T10:55:38.000Z</time>
      </trkpt>
      <trkpt lat="46.02515" lon="7.76875">
        <ele>2016</ele>
        <time>2000-01-01T10:55:48.000Z</time>
      </trkpt>
      <trkpt lat="46.02529" lon="7.76858">
        <ele>2018</ele>
        <time>2000-01-01T10:55:58.000Z</time>
      </trkpt>
      <trkpt lat="46.02519" lon="7.7684">
        <ele>2012.8</ele>
        <time>2000-01-01T10:56:08.000Z</time>
      </trkpt>
      <trkpt lat="46.02512" lon="7.7683">
        <ele>2019</ele>
        <time>2000-01-01T10:56:18.000Z</time>
      </trkpt>
      <trkpt lat="46.02496" lon="7.76805">
        <ele>2017</ele>
        <time>2000-01-01T10:56:28.000Z</time>
      </trkpt>
      <trkpt lat="46.02495" lon="7.76784">
        <ele>2004.9</ele>
        <time>2000-01-01T10:56:38.000Z</time>
      </trkpt>
      <trkpt lat="46.02487" lon="7.76776">
        <ele>2015</ele>
        <time>2000-01-01T10:56:48.000Z</time>
      </trkpt>
      <trkpt lat="46.02487" lon="7.76758">
        <ele>1998.6</ele>
        <time>2000-01-01T10:56:58.000Z</time>
      </trkpt>
      <trkpt lat="46.02497" lon="7.76742">
        <ele>2007</ele>
        <time>2000-01-01T10:57:08.000Z</time>
      </trkpt>
      <trkpt lat="46.02488" lon="7.76734">
        <ele>1992.5</ele>
        <time>2000-01-01T10:57:18.000Z</time>
      </trkpt>
      <trkpt lat="46.02495" lon="7.76717">
        <ele>2001</ele>
        <time>2000-01-01T10:57:28.000Z</time>
      </trkpt>
      <trkpt lat="46.02504" lon="7.76706">
        <ele>1981.3</ele>
        <time>2000-01-01T10:57:38.000Z</time>
      </trkpt>
      <trkpt lat="46.02516" lon="7.76699">
        <ele>1997</ele>
        <time>2000-01-01T10:57:48.000Z</time>
      </trkpt>
      <trkpt lat="46.02528" lon="7.76689">
        <ele>1983.3</ele>
        <time>2000-01-01T10:57:58.000Z</time>
      </trkpt>
      <trkpt lat="46.02531" lon="7.76653">
        <ele>1988</ele>
        <time>2000-01-01T10:58:08.000Z</time>
      </trkpt>
      <trkpt lat="46.02521" lon="7.76627">
        <ele>1984</ele>
        <time>2000-01-01T10:58:18.000Z</time>
      </trkpt>
      <trkpt lat="46.02519" lon="7.76612">
        <ele>1966.7</ele>
        <time>2000-01-01T10:58:28.000Z</time>
      </trkpt>
      <trkpt lat="46.02523" lon="7.76598">
        <ele>1980</ele>
        <time>2000-01-01T10:58:38.000Z</time>
      </trkpt>
      <trkpt lat="46.02532" lon="7.76585">
        <ele>1962.6</ele>
        <time>2000-01-01T10:58:48.000Z</time>
      </trkpt>
      <trkpt lat="46.02537" lon="7.76565">
        <ele>1976</ele>
        <time>2000-01-01T10:58:58.000Z</time>
      </trkpt>
      <trkpt lat="46.02538" lon="7.76548">
        <ele>1960</ele>
        <time>2000-01-01T10:59:08.000Z</time>
      </trkpt>
      <trkpt lat="46.02537" lon="7.76527">
        <ele>1969</ele>
        <time>2000-01-01T10:59:18.000Z</time>
      </trkpt>
      <trkpt lat="46.02534" lon="7.76507">
        <ele>1952</ele>
        <time>2000-01-01T10:59:28.000Z</time>
      </trkpt>
      <trkpt lat="46.0253" lon="7.7649">
        <ele>1957</ele>
        <time>2000-01-01T10:59:38.000Z</time>
      </trkpt>
      <trkpt lat="46.02521" lon="7.76469">
        <ele>1940.2</ele>
        <time>2000-01-01T10:59:48.000Z</time>
      </trkpt>
      <trkpt lat="46.02509" lon="7.76463">
        <ele>1949</ele>
        <time>2000-01-01T10:59:58.000Z</time>
      </trkpt>
      <trkpt lat="46.02512" lon="7.7645">
        <ele>1933.1</ele>
        <time>2000-01-01T11:00:08.000Z</time>
      </trkpt>
      <trkpt lat="46.02522" lon="7.76442">
        <ele>1944</ele>
        <time>2000-01-01T11:00:18.000Z</time>
      </trkpt>
      <trkpt lat="46.02528" lon="7.76427">
        <ele>1926.1</ele>
        <time>2000-01-01T11:00:28.000Z</time>
      </trkpt>
      <trkpt lat="46.02529" lon="7.76412">
        <ele>1931</ele>
        <time>2000-01-01T11:00:38.000Z</time>
      </trkpt>
      <trkpt lat="46.02522" lon="7.76401">
        <ele>1915.7</ele>
        <time>2000-01-01T11:00:48.000Z</time>
      </trkpt>
      <trkpt lat="46.0252" lon="7.76386">
        <ele>1917</ele>
        <time>2000-01-01T11:00:58.000Z</time>
      </trkpt>
      <trkpt lat="46.02508" lon="7.76384">
        <ele>1906.8</ele>
        <time>2000-01-01T11:01:08.000Z</time>
      </trkpt>
      <trkpt lat="46.02497" lon="7.76374">
        <ele>1909</ele>
        <time>2000-01-01T11:01:18.000Z</time>
      </trkpt>
      <trkpt lat="46.02486" lon="7.76366">
        <ele>1893.1</ele>
        <time>2000-01-01T11:01:28.000Z</time>
      </trkpt>
      <trkpt lat="46.02475" lon="7.76367">
        <ele>1888</ele>
        <time>2000-01-01T11:01:38.000Z</time>
      </trkpt>
      <trkpt lat="46.02463" lon="7.76362">
        <ele>1884</ele>
        <time>2000-01-01T11:01:48.000Z</time>
      </trkpt>
      <trkpt lat="46.02452" lon="7.76362">
        <ele>1886</ele>
        <time>2000-01-01T11:01:58.000Z</time>
      </trkpt>
      <trkpt lat="46.02442" lon="7.7636">
        <ele>1877</ele>
        <time>2000-01-01T11:02:08.000Z</time>
      </trkpt>
      <trkpt lat="46.0243" lon="7.76345">
        <ele>1878</ele>
        <time>2000-01-01T11:02:18.000Z</time>
      </trkpt>
      <trkpt lat="46.02428" lon="7.76328">
        <ele>1875.4</ele>
        <time>2000-01-01T11:02:28.000Z</time>
      </trkpt>
      <trkpt lat="46.02424" lon="7.76314">
        <ele>1877</ele>
        <time>2000-01-01T11:02:38.000Z</time>
      </trkpt>
      <trkpt lat="46.02422" lon="7.76284">
        <ele>1877</ele>
        <time>2000-01-01T11:02:48.000Z</time>
      </trkpt>
      <trkpt lat="46.02417" lon="7.76254">
        <ele>1878</ele>
        <time>2000-01-01T11:02:58.000Z</time>
      </trkpt>
      <trkpt lat="46.02415" lon="7.76224">
        <ele>1877</ele>
        <time>2000-01-01T11:03:08.000Z</time>
      </trkpt>
      <trkpt lat="46.02411" lon="7.7621">
        <ele>1865.3</ele>
        <time>2000-01-01T11:03:18.000Z</time>
      </trkpt>
      <trkpt lat="46.02411" lon="7.76192">
        <ele>1876</ele>
        <time>2000-01-01T11:03:28.000Z</time>
      </trkpt>
      <trkpt lat="46.02411" lon="7.76156">
        <ele>1872</ele>
        <time>2000-01-01T11:03:38.000Z</time>
      </trkpt>
      <trkpt lat="46.02412" lon="7.76141">
        <ele>1856.3</ele>
        <time>2000-01-01T11:03:48.000Z</time>
      </trkpt>
      <trkpt lat="46.02411" lon="7.76124">
        <ele>1865</ele>
        <time>2000-01-01T11:03:58.000Z</time>
      </trkpt>
      <trkpt lat="46.02408" lon="7.76109">
        <ele>1850.4</ele>
        <time>2000-01-01T11:04:08.000Z</time>
      </trkpt>
      <trkpt lat="46.02401" lon="7.76099">
        <ele>1859</ele>
        <time>2000-01-01T11:04:18.000Z</time>
      </trkpt>
      <trkpt lat="46.02389" lon="7.76101">
        <ele>1845.5</ele>
        <time>2000-01-01T11:04:28.000Z</time>
      </trkpt>
      <trkpt lat="46.02365" lon="7.761">
        <ele>1853</ele>
        <time>2000-01-01T11:04:38.000Z</time>
      </trkpt>
      <trkpt lat="46.02356" lon="7.76089">
        <ele>1835.6</ele>
        <time>2000-01-01T11:04:48.000Z</time>
      </trkpt>
      <trkpt lat="46.0235" lon="7.76063">
        <ele>1850</ele>
        <time>2000-01-01T11:04:58.000Z</time>
      </trkpt>
      <trkpt lat="46.02349" lon="7.76049">
        <ele>1830.3</ele>
        <time>2000-01-01T11:05:08.000Z</time>
      </trkpt>
      <trkpt lat="46.02356" lon="7.76014">
        <ele>1838</ele>
        <time>2000-01-01T11:05:18.000Z</time>
      </trkpt>
      <trkpt lat="46.02353" lon="7.76002">
        <ele>1822.1</ele>
        <time>2000-01-01T11:05:28.000Z</time>
      </trkpt>
      <trkpt lat="46.02343" lon="7.75988">
        <ele>1836</ele>
        <time>2000-01-01T11:05:38.000Z</time>
      </trkpt>
      <trkpt lat="46.02333" lon="7.7598">
        <ele>1823.1</ele>
        <time>2000-01-01T11:05:48.000Z</time>
      </trkpt>
      <trkpt lat="46.02322" lon="7.75976">
        <ele>1835</ele>
        <time>2000-01-01T11:05:58.000Z</time>
      </trkpt>
      <trkpt lat="46.02293" lon="7.75956">
        <ele>1835</ele>
        <time>2000-01-01T11:06:08.000Z</time>
      </trkpt>
      <trkpt lat="46.02288" lon="7.75945">
        <ele>1818.3</ele>
        <time>2000-01-01T11:06:18.000Z</time>
      </trkpt>
      <trkpt lat="46.02284" lon="7.75923">
        <ele>1831</ele>
        <time>2000-01-01T11:06:28.000Z</time>
      </trkpt>
      <trkpt lat="46.02274" lon="7.75906">
        <ele>1814.2</ele>
        <time>2000-01-01T11:06:38.000Z</time>
      </trkpt>
      <trkpt lat="46.02262" lon="7.75884">
        <ele>1823</ele>
        <time>2000-01-01T11:06:48.000Z</time>
      </trkpt>
      <trkpt lat="46.02253" lon="7.75871">
        <ele>1811.9</ele>
        <time>2000-01-01T11:06:58.000Z</time>
      </trkpt>
      <trkpt lat="46.02232" lon="7.75861">
        <ele>1817</ele>
        <time>2000-01-01T11:07:08.000Z</time>
      </trkpt>
      <trkpt lat="46.02217" lon="7.75855">
        <ele>1806.1</ele>
        <time>2000-01-01T11:07:18.000Z</time>
      </trkpt>
      <trkpt lat="46.02206" lon="7.75846">
        <ele>1811</ele>
        <time>2000-01-01T11:07:28.000Z</time>
      </trkpt>
      <trkpt lat="46.02194" lon="7.7584">
        <ele>1801.7</ele>
        <time>2000-01-01T11:07:38.000Z</time>
      </trkpt>
      <trkpt lat="46.02171" lon="7.75816">
        <ele>1802</ele>
        <time>2000-01-01T11:07:48.000Z</time>
      </trkpt>
      <trkpt lat="46.02163" lon="7.75806">
        <ele>1793.6</ele>
        <time>2000-01-01T11:07:58.000Z</time>
      </trkpt>
      <trkpt lat="46.02151" lon="7.75795">
        <ele>1801</ele>
        <time>2000-01-01T11:08:08.000Z</time>
      </trkpt>
      <trkpt lat="46.02125" lon="7.7579">
        <ele>1800</ele>
        <time>2000-01-01T11:08:18.000Z</time>
      </trkpt>
      <trkpt lat="46.02114" lon="7.75785">
        <ele>1786</ele>
        <time>2000-01-01T11:08:28.000Z</time>
      </trkpt>
      <trkpt lat="46.02107" lon="7.75772">
        <ele>1794</ele>
        <time>2000-01-01T11:08:38.000Z</time>
      </trkpt>
      <trkpt lat="46.02096" lon="7.75758">
        <ele>1776.8</ele>
        <time>2000-01-01T11:08:48.000Z</time>
      </trkpt>
      <trkpt lat="46.02092" lon="7.75738">
        <ele>1784</ele>
        <time>2000-01-01T11:08:58.000Z</time>
      </trkpt>
      <trkpt lat="46.02081" lon="7.75722">
        <ele>1768.9</ele>
        <time>2000-01-01T11:09:08.000Z</time>
      </trkpt>
      <trkpt lat="46.02079" lon="7.75705">
        <ele>1777</ele>
        <time>2000-01-01T11:09:18.000Z</time>
      </trkpt>
      <trkpt lat="46.02086" lon="7.75691">
        <ele>1758</ele>
        <time>2000-01-01T11:09:28.000Z</time>
      </trkpt>
      <trkpt lat="46.02096" lon="7.75691">
        <ele>1770</ele>
        <time>2000-01-01T11:09:38.000Z</time>
      </trkpt>
      <trkpt lat="46.02104" lon="7.75684">
        <ele>1751.5</ele>
        <time>2000-01-01T11:09:48.000Z</time>
      </trkpt>
      <trkpt lat="46.0209" lon="7.75665">
        <ele>1763</ele>
        <time>2000-01-01T11:09:58.000Z</time>
      </trkpt>
      <trkpt lat="46.02082" lon="7.75648">
        <ele>1745</ele>
        <time>2000-01-01T11:10:08.000Z</time>
      </trkpt>
      <trkpt lat="46.02082" lon="7.7563">
        <ele>1754</ele>
        <time>2000-01-01T11:10:18.000Z</time>
      </trkpt>
      <trkpt lat="46.02082" lon="7.75615">
        <ele>1737.4</ele>
        <time>2000-01-01T11:10:28.000Z</time>
      </trkpt>
      <trkpt lat="46.02084" lon="7.75601">
        <ele>1748</ele>
        <time>2000-01-01T11:10:38.000Z</time>
      </trkpt>
      <trkpt lat="46.0207" lon="7.75573">
        <ele>1744</ele>
        <time>2000-01-01T11:10:48.000Z</time>
      </trkpt>
      <trkpt lat="46.02064" lon="7.75557">
        <ele>1725.4</ele>
        <time>2000-01-01T11:10:58.000Z</time>
      </trkpt>
      <trkpt lat="46.02055" lon="7.75543">
        <ele>1737</ele>
        <time>2000-01-01T11:11:08.000Z</time>
      </trkpt>
      <trkpt lat="46.02049" lon="7.75529">
        <ele>1723</ele>
        <time>2000-01-01T11:11:18.000Z</time>
      </trkpt>
      <trkpt lat="46.0204" lon="7.75515">
        <ele>1731</ele>
        <time>2000-01-01T11:11:28.000Z</time>
      </trkpt>
      <trkpt lat="46.02048" lon="7.75499">
        <ele>1713.3</ele>
        <time>2000-01-01T11:11:38.000Z</time>
      </trkpt>
      <trkpt lat="46.0207" lon="7.75512">
        <ele>1722</ele>
        <time>2000-01-01T11:11:48.000Z</time>
      </trkpt>
      <trkpt lat="46.02081" lon="7.75513">
        <ele>1709</ele>
        <time>2000-01-01T11:11:58.000Z</time>
      </trkpt>
      <trkpt lat="46.02091" lon="7.75525">
        <ele>1714</ele>
        <time>2000-01-01T11:12:08.000Z</time>
      </trkpt>
      <trkpt lat="46.02103" lon="7.75521">
        <ele>1707.5</ele>
        <time>2000-01-01T11:12:18.000Z</time>
      </trkpt>
      <trkpt lat="46.02114" lon="7.75516">
        <ele>1708</ele>
        <time>2000-01-01T11:12:28.000Z</time>
      </trkpt>
      <trkpt lat="46.02125" lon="7.75513">
        <ele>1701.9</ele>
        <time>2000-01-01T11:12:38.000Z</time>
      </trkpt>
      <trkpt lat="46.02149" lon="7.75526">
        <ele>1706</ele>
        <time>2000-01-01T11:12:48.000Z</time>
      </trkpt>
      <trkpt lat="46.02162" lon="7.75535">
        <ele>1701.6</ele>
        <time>2000-01-01T11:12:58.000Z</time>
      </trkpt>
      <trkpt lat="46.02177" lon="7.75554">
        <ele>1708</ele>
        <time>2000-01-01T11:13:08.000Z</time>
      </trkpt>
      <trkpt lat="46.02188" lon="7.75576">
        <ele>1707</ele>
        <time>2000-01-01T11:13:18.000Z</time>
      </trkpt>
      <trkpt lat="46.02195" lon="7.75595">
        <ele>1700.5</ele>
        <time>2000-01-01T11:13:28.000Z</time>
      </trkpt>
      <trkpt lat="46.02205" lon="7.75582">
        <ele>1706</ele>
        <time>2000-01-01T11:13:38.000Z</time>
      </trkpt>
      <trkpt lat="46.02209" lon="7.75561">
        <ele>1689.9</ele>
        <time>2000-01-01T11:13:48.000Z</time>
      </trkpt>
      <trkpt lat="46.02208" lon="7.75546">
        <ele>1695</ele>
        <time>2000-01-01T11:13:58.000Z</time>
      </trkpt>
      <trkpt lat="46.02204" lon="7.75525">
        <ele>1685.6</ele>
        <time>2000-01-01T11:14:08.000Z</time>
      </trkpt>
      <trkpt lat="46.02216" lon="7.75535">
        <ele>1689</ele>
        <time>2000-01-01T11:14:18.000Z</time>
      </trkpt>
      <trkpt lat="46.02229" lon="7.75561">
        <ele>1688</ele>
        <time>2000-01-01T11:14:28.000Z</time>
      </trkpt>
      <trkpt lat="46.02239" lon="7.75533">
        <ele>1670</ele>
        <time>2000-01-01T11:14:38.000Z</time>
      </trkpt>
      <trkpt lat="46.0223" lon="7.7551">
        <ele>1670.3</ele>
        <time>2000-01-01T11:14:48.000Z</time>
      </trkpt>
      <trkpt lat="46.02223" lon="7.75496">
        <ele>1667</ele>
        <time>2000-01-01T11:14:58.000Z</time>
      </trkpt>
      <trkpt lat="46.02216" lon="7.75486">
        <ele>1669.7</ele>
        <time>2000-01-01T11:15:08.000Z</time>
      </trkpt>
      <trkpt lat="46.02206" lon="7.75465">
        <ele>1665</ele>
        <time>2000-01-01T11:15:18.000Z</time>
      </trkpt>
      <trkpt lat="46.02202" lon="7.75445">
        <ele>1664.1</ele>
        <time>2000-01-01T11:15:28.000Z</time>
      </trkpt>
      <trkpt lat="46.02194" lon="7.75419">
        <ele>1661</ele>
        <time>2000-01-01T11:15:38.000Z</time>
      </trkpt>
      <trkpt lat="46.02189" lon="7.75408">
        <ele>1660.1</ele>
        <time>2000-01-01T11:15:48.000Z</time>
      </trkpt>
      <trkpt lat="46.02182" lon="7.75399">
        <ele>1658.3</ele>
        <time>2000-01-01T11:15:58.000Z</time>
      </trkpt>
      <trkpt lat="46.02163" lon="7.75391">
        <ele>1661</ele>
        <time>2000-01-01T11:16:08.000Z</time>
      </trkpt>
      <trkpt lat="46.02154" lon="7.75385">
        <ele>1660.6</ele>
        <time>2000-01-01T11:16:18.000Z</time>
      </trkpt>
      <trkpt lat="46.02149" lon="7.7537">
        <ele>1657</ele>
        <time>2000-01-01T11:16:28.000Z</time>
      </trkpt>
      <trkpt lat="46.02153" lon="7.75349">
        <ele>1657.2</ele>
        <time>2000-01-01T11:16:38.000Z</time>
      </trkpt>
      <trkpt lat="46.02157" lon="7.7533">
        <ele>1653</ele>
        <time>2000-01-01T11:16:48.000Z</time>
      </trkpt>
      <trkpt lat="46.02159" lon="7.75313">
        <ele>1651.2</ele>
        <time>2000-01-01T11:16:58.000Z</time>
      </trkpt>
      <trkpt lat="46.02164" lon="7.7528">
        <ele>1648</ele>
        <time>2000-01-01T11:17:08.000Z</time>
      </trkpt>
      <trkpt lat="46.02162" lon="7.75262">
        <ele>1647.5</ele>
        <time>2000-01-01T11:17:18.000Z</time>
      </trkpt>
      <trkpt lat="46.0215" lon="7.75241">
        <ele>1642</ele>
        <time>2000-01-01T11:17:28.000Z</time>
      </trkpt>
      <trkpt lat="46.02125" lon="7.75224">
        <ele>1642</ele>
        <time>2000-01-01T11:17:38.000Z</time>
      </trkpt>
      <trkpt lat="46.02126" lon="7.75202">
        <ele>1638.1</ele>
        <time>2000-01-01T11:17:48.000Z</time>
      </trkpt>
      <trkpt lat="46.02126" lon="7.75182">
        <ele>1630</ele>
        <time>2000-01-01T11:17:58.000Z</time>
      </trkpt>
      <trkpt lat="46.02117" lon="7.75165">
        <ele>1636.7</ele>
        <time>2000-01-01T11:18:08.000Z</time>
      </trkpt>
      <trkpt lat="46.02105" lon="7.75148">
        <ele>1629</ele>
        <time>2000-01-01T11:18:18.000Z</time>
      </trkpt>
      <trkpt lat="46.02094" lon="7.75146">
        <ele>1633</ele>
        <time>2000-01-01T11:18:28.000Z</time>
      </trkpt>
      <trkpt lat="46.02079" lon="7.75155">
        <ele>1628</ele>
        <time>2000-01-01T11:18:38.000Z</time>
      </trkpt>
      <trkpt lat="46.02052" lon="7.75156">
        <ele>1628</ele>
        <time>2000-01-01T11:18:48.000Z</time>
      </trkpt>
      <trkpt lat="46.02025" lon="7.75167">
        <ele>1628</ele>
        <time>2000-01-01T11:18:58.000Z</time>
      </trkpt>
      <trkpt lat="46.02016" lon="7.7516">
        <ele>1630.6</ele>
        <time>2000-01-01T11:19:08.000Z</time>
      </trkpt>
      <trkpt lat="46.02003" lon="7.7514">
        <ele>1625</ele>
        <time>2000-01-01T11:19:18.000Z</time>
      </trkpt>
      <trkpt lat="46.02008" lon="7.75122">
        <ele>1624.6</ele>
        <time>2000-01-01T11:19:28.000Z</time>
      </trkpt>
      <trkpt lat="46.02015" lon="7.7511">
        <ele>1622</ele>
        <time>2000-01-01T11:19:38.000Z</time>
      </trkpt>
      <trkpt lat="46.02023" lon="7.75094">
        <ele>1620.4</ele>
        <time>2000-01-01T11:19:48.000Z</time>
      </trkpt>
      <trkpt lat="46.02031" lon="7.75084">
        <ele>1619</ele>
        <time>2000-01-01T11:19:58.000Z</time>
      </trkpt>
      <trkpt lat="46.02042" lon="7.75058">
        <ele>1615</ele>
        <time>2000-01-01T11:20:08.000Z</time>
      </trkpt>
      <trkpt lat="46.02046" lon="7.75044">
        <ele>1613.5</ele>
        <time>2000-01-01T11:20:18.000Z</time>
      </trkpt>
      <trkpt lat="46.02047" lon="7.75028">
        <ele>1614</ele>
        <time>2000-01-01T11:20:28.000Z</time>
      </trkpt>
      <trkpt lat="46.02047" lon="7.75011">
        <ele>1608.2</ele>
        <time>2000-01-01T11:20:38.000Z</time>
      </trkpt>
      <trkpt lat="46.02067" lon="7.74953">
        <ele>1605</ele>
        <time>2000-01-01T11:20:48.000Z</time>
      </trkpt>
      <trkpt lat="46.0207" lon="7.74935">
        <ele>1602.8</ele>
        <time>2000-01-01T11:20:58.000Z</time>
      </trkpt>
      <trkpt lat="46.02072" lon="7.74914">
        <ele>1605</ele>
        <time>2000-01-01T11:21:08.000Z</time>
      </trkpt>
      <trkpt lat="46.021" lon="7.74905">
        <ele>1610</ele>
        <time>2000-01-01T11:21:18.000Z</time>
      </trkpt>
      <trkpt lat="46.02123" lon="7.74892">
        <ele>1611</ele>
        <time>2000-01-01T11:21:28.000Z</time>
      </trkpt>
      <trkpt lat="46.02146" lon="7.74879">
        <ele>1610</ele>
        <time>2000-01-01T11:21:38.000Z</time>
      </trkpt>
      <trkpt lat="46.02155" lon="7.74873">
        <ele>1608.1</ele>
        <time>2000-01-01T11:21:48.000Z</time>
      </trkpt>
      <trkpt lat="46.02162" lon="7.74894">
        <ele>1610</ele>
        <time>2000-01-01T11:21:58.000Z</time>
      </trkpt>
      <trkpt lat="46.02177" lon="7.74921">
        <ele>1609</ele>
        <time>2000-01-01T11:22:08.000Z</time>
      </trkpt>
      <trkpt lat="46.02187" lon="7.74937">
        <ele>1607.5</ele>
        <time>2000-01-01T11:22:18.000Z</time>
      </trkpt>
      <trkpt lat="46.02214" lon="7.7496">
        <ele>1607</ele>
        <time>2000-01-01T11:22:28.000Z</time>
      </trkpt>
      <trkpt lat="46.02236" lon="7.74977">
        <ele>1607</ele>
        <time>2000-01-01T11:22:38.000Z</time>
      </trkpt>
      <trkpt lat="46.02258" lon="7.74995">
        <ele>1608</ele>
        <time>2000-01-01T11:22:48.000Z</time>
      </trkpt>
      <trkpt lat="46.02262" lon="7.74993">
        <ele>1606</ele>
        <time>2000-01-01T11:22:58.000Z</time>
      </trkpt>
      <trkpt lat="46.02273" lon="7.74959">
        <ele>1608</ele>
        <time>2000-01-01T11:23:08.000Z</time>
      </trkpt>
      <trkpt lat="46.02289" lon="7.74929">
        <ele>1608</ele>
        <time>2000-01-01T11:23:18.000Z</time>
      </trkpt>
      <trkpt lat="46.02305" lon="7.7492">
        <ele>1605.9</ele>
        <time>2000-01-01T11:23:28.000Z</time>
      </trkpt>
      <trkpt lat="46.02317" lon="7.74888">
        <ele>1609</ele>
        <time>2000-01-01T11:23:38.000Z</time>
      </trkpt>
      <trkpt lat="46.02308" lon="7.74869">
        <ele>1605.9</ele>
        <time>2000-01-01T11:23:48.000Z</time>
      </trkpt>
      <trkpt lat="46.02221" lon="7.74792">
        <ele>1613</ele>
        <time>2000-01-01T11:23:58.000Z</time>
      </trkpt>
      <trkpt lat="46.02211" lon="7.74778">
        <ele>1609</ele>
        <time>2000-01-01T11:24:08.000Z</time>
      </trkpt>
      <trkpt lat="46.0222" lon="7.74764">
        <ele>1613</ele>
        <time>2000-01-01T11:24:18.000Z</time>
      </trkpt>
      <trkpt lat="46.02228" lon="7.74741">
        <ele>1608.8</ele>
        <time>2000-01-01T11:24:28.000Z</time>
      </trkpt>
      <trkpt lat="46.02209" lon="7.74726">
        <ele>1613</ele>
        <time>2000-01-01T11:24:38.000Z</time>
      </trkpt>
      <trkpt lat="46.0219" lon="7.74717">
        <ele>1614</ele>
        <time>2000-01-01T11:24:48.000Z</time>
      </trkpt>
      <trkpt lat="46.02173" lon="7.7471">
        <ele>1610.8</ele>
        <time>2000-01-01T11:24:58.000Z</time>
      </trkpt>
      <trkpt lat="46.0216" lon="7.74709">
        <ele>1616</ele>
        <time>2000-01-01T11:25:08.000Z</time>
      </trkpt>
      <trkpt lat="46.02141" lon="7.74705">
        <ele>1616</ele>
        <time>2000-01-01T11:25:18.000Z</time>
      </trkpt>
      <trkpt lat="46.02117" lon="7.74691">
        <ele>1616</ele>
        <time>2000-01-01T11:25:28.000Z</time>
      </trkpt>
      <trkpt lat="46.02086" lon="7.74656">
        <ele>1624</ele>
        <time>2000-01-01T11:25:38.000Z</time>
      </trkpt>
      <trkpt lat="46.02069" lon="7.74644">
        <ele>1624</ele>
        <time>2000-01-01T11:25:48.000Z</time>
      </trkpt>
      <trkpt lat="46.0205" lon="7.74646">
        <ele>1614.1</ele>
        <time>2000-01-01T11:25:58.000Z</time>
      </trkpt>
      <trkpt lat="46.02025" lon="7.74635">
        <ele>1623</ele>
        <time>2000-01-01T11:26:08.000Z</time>
      </trkpt>
      <trkpt lat="46.02006" lon="7.74636">
        <ele>1622</ele>
        <time>2000-01-01T11:26:18.000Z</time>
      </trkpt>
      <trkpt lat="46.01987" lon="7.74633">
        <ele>1614.9</ele>
        <time>2000-01-01T11:26:28.000Z</time>
      </trkpt>
      <trkpt lat="46.01974" lon="7.74626">
        <ele>1622</ele>
        <time>2000-01-01T11:26:38.000Z</time>
      </trkpt>
      <trkpt lat="46.01951" lon="7.74619">
        <ele>1623</ele>
        <time>2000-01-01T11:26:48.000Z</time>
      </trkpt>
      <trkpt lat="46.01934" lon="7.74604">
        <ele>1623</ele>
        <time>2000-01-01T11:26:58.000Z</time>
      </trkpt>
      <trkpt lat="46.01917" lon="7.74584">
        <ele>1623</ele>
        <time>2000-01-01T11:27:08.000Z</time>
      </trkpt>
      <trkpt lat="46.01914" lon="7.74571">
        <ele>1616.7</ele>
        <time>2000-01-01T11:27:18.000Z</time>
      </trkpt>
      <trkpt lat="46.01908" lon="7.74556">
        <ele>1626</ele>
        <time>2000-01-01T11:27:28.000Z</time>
      </trkpt>
      <trkpt lat="46.01888" lon="7.74542">
        <ele>1627</ele>
        <time>2000-01-01T11:27:38.000Z</time>
      </trkpt>
      <trkpt lat="46.01877" lon="7.74537">
        <ele>1623</ele>
        <time>2000-01-01T11:27:48.000Z</time>
      </trkpt>
      <trkpt lat="46.01853" lon="7.74531">
        <ele>1629</ele>
        <time>2000-01-01T11:27:58.000Z</time>
      </trkpt>
      <trkpt lat="46.01835" lon="7.74528">
        <ele>1626.9</ele>
        <time>2000-01-01T11:28:08.000Z</time>
      </trkpt>
      <trkpt lat="46.01824" lon="7.74521">
        <ele>1630</ele>
        <time>2000-01-01T11:28:18.000Z</time>
      </trkpt>
      <trkpt lat="46.0181" lon="7.74518">
        <ele>1628.2</ele>
        <time>2000-01-01T11:28:28.000Z</time>
      </trkpt>
      <trkpt lat="46.01786" lon="7.74501">
        <ele>1631</ele>
        <time>2000-01-01T11:28:38.000Z</time>
      </trkpt>
      <trkpt lat="46.01776" lon="7.74488">
        <ele>1629.3</ele>
        <time>2000-01-01T11:28:48.000Z</time>
      </trkpt>
      <trkpt lat="46.01759" lon="7.7447">
        <ele>1630</ele>
        <time>2000-01-01T11:28:58.000Z</time>
      </trkpt>
      <trkpt lat="46.01747" lon="7.7445">
        <ele>1622.6</ele>
        <time>2000-01-01T11:29:08.000Z</time>
      </trkpt>
      <trkpt lat="46.01739" lon="7.74445">
        <ele>1630</ele>
        <time>2000-01-01T11:29:18.000Z</time>
      </trkpt>
      <trkpt lat="46.01732" lon="7.74435">
        <ele>1619.6</ele>
        <time>2000-01-01T11:29:28.000Z</time>
      </trkpt>
      <trkpt lat="46.01715" lon="7.7442">
        <ele>1627</ele>
        <time>2000-01-01T11:29:38.000Z</time>
      </trkpt>
      <trkpt lat="46.017" lon="7.74404">
        <ele>1617.7</ele>
        <time>2000-01-01T11:29:48.000Z</time>
      </trkpt>
      <trkpt lat="46.01686" lon="7.74385">
        <ele>1627</ele>
        <time>2000-01-01T11:29:58.000Z</time>
      </trkpt>
      <trkpt lat="46.01669" lon="7.74374">
        <ele>1624</ele>
        <time>2000-01-01T11:30:08.000Z</time>
      </trkpt>
      <trkpt lat="46.01661" lon="7.74357">
        <ele>1617.3</ele>
        <time>2000-01-01T11:30:18.000Z</time>
      </trkpt>
      <trkpt lat="46.01654" lon="7.74349">
        <ele>1624</ele>
        <time>2000-01-01T11:30:28.000Z</time>
      </trkpt>
      <trkpt lat="46.01628" lon="7.74309">
        <ele>1623</ele>
        <time>2000-01-01T11:30:38.000Z</time>
      </trkpt>
      <trkpt lat="46.01614" lon="7.74286">
        <ele>1623</ele>
        <time>2000-01-01T11:30:48.000Z</time>
      </trkpt>
      <trkpt lat="46.01602" lon="7.74264">
        <ele>1622</ele>
        <time>2000-01-01T11:30:58.000Z</time>
      </trkpt>
      <trkpt lat="46.01589" lon="7.74244">
        <ele>1621</ele>
        <time>2000-01-01T11:31:08.000Z</time>
      </trkpt>
      <trkpt lat="46.01563" lon="7.74212">
        <ele>1622</ele>
        <time>2000-01-01T11:31:18.000Z</time>
      </trkpt>
      <trkpt lat="46.0154" lon="7.74167">
        <ele>1621</ele>
        <time>2000-01-01T11:31:28.000Z</time>
      </trkpt>
      <trkpt lat="46.01522" lon="7.74145">
        <ele>1621</ele>
        <time>2000-01-01T11:31:38.000Z</time>
      </trkpt>
      <trkpt lat="46.01506" lon="7.74131">
        <ele>1616.9</ele>
        <time>2000-01-01T11:31:48.000Z</time>
      </trkpt>
      <trkpt lat="46.01482" lon="7.74106">
        <ele>1621</ele>
        <time>2000-01-01T11:31:58.000Z</time>
      </trkpt>
      <trkpt lat="46.01472" lon="7.74098">
        <ele>1618.9</ele>
        <time>2000-01-01T11:32:08.000Z</time>
      </trkpt>
      <trkpt lat="46.01456" lon="7.74084">
        <ele>1622</ele>
        <time>2000-01-01T11:32:18.000Z</time>
      </trkpt>
      <trkpt lat="46.01438" lon="7.74072">
        <ele>1623</ele>
        <time>2000-01-01T11:32:28.000Z</time>
      </trkpt>
      <trkpt lat="46.01428" lon="7.74062">
        <ele>1620.8</ele>
        <time>2000-01-01T11:32:38.000Z</time>
      </trkpt>
      <trkpt lat="46.01406" lon="7.7403">
        <ele>1628</ele>
        <time>2000-01-01T11:32:48.000Z</time>
      </trkpt>
      <trkpt lat="46.01399" lon="7.7402">
        <ele>1626.9</ele>
        <time>2000-01-01T11:32:58.000Z</time>
      </trkpt>
      <trkpt lat="46.01391" lon="7.74006">
        <ele>1630</ele>
        <time>2000-01-01T11:33:08.000Z</time>
      </trkpt>
      <trkpt lat="46.01373" lon="7.73996">
        <ele>1631</ele>
        <time>2000-01-01T11:33:18.000Z</time>
      </trkpt>
      <trkpt lat="46.01345" lon="7.73989">
        <ele>1636</ele>
        <time>2000-01-01T11:33:28.000Z</time>
      </trkpt>
      <trkpt lat="46.01327" lon="7.73988">
        <ele>1634.7</ele>
        <time>2000-01-01T11:33:38.000Z</time>
      </trkpt>
      <trkpt lat="46.01302" lon="7.73981">
        <ele>1640</ele>
        <time>2000-01-01T11:33:48.000Z</time>
      </trkpt>
      <trkpt lat="46.01289" lon="7.73972">
        <ele>1637.8</ele>
        <time>2000-01-01T11:33:58.000Z</time>
      </trkpt>
      <trkpt lat="46.01278" lon="7.73957">
        <ele>1643</ele>
        <time>2000-01-01T11:34:08.000Z</time>
      </trkpt>
      <trkpt lat="46.01242" lon="7.73915">
        <ele>1647</ele>
        <time>2000-01-01T11:34:18.000Z</time>
      </trkpt>
      <trkpt lat="46.01229" lon="7.73903">
        <ele>1642.7</ele>
        <time>2000-01-01T11:34:28.000Z</time>
      </trkpt>
      <trkpt lat="46.01219" lon="7.7389">
        <ele>1647</ele>
        <time>2000-01-01T11:34:38.000Z</time>
      </trkpt>
      <trkpt lat="46.01209" lon="7.73869">
        <ele>1649.3</ele>
        <time>2000-01-01T11:34:48.000Z</time>
      </trkpt>
      <trkpt lat="46.01201" lon="7.73838">
        <ele>1658</ele>
        <time>2000-01-01T11:34:58.000Z</time>
      </trkpt>
      <trkpt lat="46.012" lon="7.73822">
        <ele>1653.9</ele>
        <time>2000-01-01T11:35:08.000Z</time>
      </trkpt>
      <trkpt lat="46.01197" lon="7.73804">
        <ele>1661</ele>
        <time>2000-01-01T11:35:18.000Z</time>
      </trkpt>
      <trkpt lat="46.01188" lon="7.73787">
        <ele>1658</ele>
        <time>2000-01-01T11:35:28.000Z</time>
      </trkpt>
      <trkpt lat="46.0117" lon="7.7376">
        <ele>1664</ele>
        <time>2000-01-01T11:35:38.000Z</time>
      </trkpt>
      <trkpt lat="46.01152" lon="7.73741">
        <ele>1664</ele>
        <time>2000-01-01T11:35:48.000Z</time>
      </trkpt>
      <trkpt lat="46.01142" lon="7.73726">
        <ele>1660.4</ele>
        <time>2000-01-01T11:35:58.000Z</time>
      </trkpt>
      <trkpt lat="46.01137" lon="7.73704">
        <ele>1669</ele>
        <time>2000-01-01T11:36:08.000Z</time>
      </trkpt>
      <trkpt lat="46.01134" lon="7.73688">
        <ele>1668.3</ele>
        <time>2000-01-01T11:36:18.000Z</time>
      </trkpt>
      <trkpt lat="46.0113" lon="7.73673">
        <ele>1673</ele>
        <time>2000-01-01T11:36:28.000Z</time>
      </trkpt>
      <trkpt lat="46.01125" lon="7.73656">
        <ele>1670.3</ele>
        <time>2000-01-01T11:36:38.000Z</time>
      </trkpt>
      <trkpt lat="46.01118" lon="7.73641">
        <ele>1673</ele>
        <time>2000-01-01T11:36:48.000Z</time>
      </trkpt>
      <trkpt lat="46.01111" lon="7.73606">
        <ele>1688</ele>
        <time>2000-01-01T11:36:58.000Z</time>
      </trkpt>
      <trkpt lat="46.01106" lon="7.73578">
        <ele>1692</ele>
        <time>2000-01-01T11:37:08.000Z</time>
      </trkpt>
      <trkpt lat="46.01099" lon="7.73567">
        <ele>1681.3</ele>
        <time>2000-01-01T11:37:18.000Z</time>
      </trkpt>
      <trkpt lat="46.01092" lon="7.73546">
        <ele>1697</ele>
        <time>2000-01-01T11:37:28.000Z</time>
      </trkpt>
      <trkpt lat="46.01083" lon="7.73537">
        <ele>1682.9</ele>
        <time>2000-01-01T11:37:38.000Z</time>
      </trkpt>
      <trkpt lat="46.01075" lon="7.73519">
        <ele>1700</ele>
        <time>2000-01-01T11:37:48.000Z</time>
      </trkpt>
      <trkpt lat="46.01069" lon="7.73505">
        <ele>1690.1</ele>
        <time>2000-01-01T11:37:58.000Z</time>
      </trkpt>
      <trkpt lat="46.01061" lon="7.73491">
        <ele>1706</ele>
        <time>2000-01-01T11:38:08.000Z</time>
      </trkpt>
      <trkpt lat="46.01047" lon="7.73478">
        <ele>1693.3</ele>
        <time>2000-01-01T11:38:18.000Z</time>
      </trkpt>
      <trkpt lat="46.01036" lon="7.73469">
        <ele>1707</ele>
        <time>2000-01-01T11:38:28.000Z</time>
      </trkpt>
      <trkpt lat="46.01027" lon="7.73455">
        <ele>1696.5</ele>
        <time>2000-01-01T11:38:38.000Z</time>
      </trkpt>
      <trkpt lat="46.01014" lon="7.73443">
        <ele>1706</ele>
        <time>2000-01-01T11:38:48.000Z</time>
      </trkpt>
      <trkpt lat="46.01003" lon="7.73442">
        <ele>1698.3</ele>
        <time>2000-01-01T11:38:58.000Z</time>
      </trkpt>
      <trkpt lat="46.00996" lon="7.73431">
        <ele>1710</ele>
        <time>2000-01-01T11:39:08.000Z</time>
      </trkpt>
      <trkpt lat="46.00993" lon="7.73412">
        <ele>1702.7</ele>
        <time>2000-01-01T11:39:18.000Z</time>
      </trkpt>
      <trkpt lat="46.00982" lon="7.7338">
        <ele>1714</ele>
        <time>2000-01-01T11:39:28.000Z</time>
      </trkpt>
      <trkpt lat="46.00972" lon="7.7336">
        <ele>1705.4</ele>
        <time>2000-01-01T11:39:38.000Z</time>
      </trkpt>
      <trkpt lat="46.00957" lon="7.73343">
        <ele>1713</ele>
        <time>2000-01-01T11:39:48.000Z</time>
      </trkpt>
      <trkpt lat="46.00938" lon="7.73333">
        <ele>1714</ele>
        <time>2000-01-01T11:39:58.000Z</time>
      </trkpt>
      <trkpt lat="46.00931" lon="7.7331">
        <ele>1702.8</ele>
        <time>2000-01-01T11:40:08.000Z</time>
      </trkpt>
      <trkpt lat="46.00922" lon="7.73286">
        <ele>1715</ele>
        <time>2000-01-01T11:40:18.000Z</time>
      </trkpt>
      <trkpt lat="46.00916" lon="7.73259">
        <ele>1716</ele>
        <time>2000-01-01T11:40:28.000Z</time>
      </trkpt>
      <trkpt lat="46.00908" lon="7.73235">
        <ele>1708.9</ele>
        <time>2000-01-01T11:40:38.000Z</time>
      </trkpt>
      <trkpt lat="46.00901" lon="7.73221">
        <ele>1716</ele>
        <time>2000-01-01T11:40:48.000Z</time>
      </trkpt>
      <trkpt lat="46.00896" lon="7.73238">
        <ele>1705.9</ele>
        <time>2000-01-01T11:40:58.000Z</time>
      </trkpt>
      <trkpt lat="46.00893" lon="7.73255">
        <ele>1713</ele>
        <time>2000-01-01T11:41:08.000Z</time>
      </trkpt>
      <trkpt lat="46.00889" lon="7.73284">
        <ele>1715</ele>
        <time>2000-01-01T11:41:18.000Z</time>
      </trkpt>
      <trkpt lat="46.00885" lon="7.73298">
        <ele>1702.4</ele>
        <time>2000-01-01T11:41:28.000Z</time>
      </trkpt>
      <trkpt lat="46.0088" lon="7.73321">
        <ele>1717</ele>
        <time>2000-01-01T11:41:38.000Z</time>
      </trkpt>
      <trkpt lat="46.00874" lon="7.73336">
        <ele>1714.3</ele>
        <time>2000-01-01T11:41:48.000Z</time>
      </trkpt>
      <trkpt lat="46.00861" lon="7.73338">
        <ele>1732</ele>
        <time>2000-01-01T11:41:58.000Z</time>
      </trkpt>
      <trkpt lat="46.00847" lon="7.73328">
        <ele>1727.1</ele>
        <time>2000-01-01T11:42:08.000Z</time>
      </trkpt>
      <trkpt lat="46.00834" lon="7.73317">
        <ele>1736</ele>
        <time>2000-01-01T11:42:18.000Z</time>
      </trkpt>
      <trkpt lat="46.00823" lon="7.733">
        <ele>1733.8</ele>
        <time>2000-01-01T11:42:28.000Z</time>
      </trkpt>
      <trkpt lat="46.0081" lon="7.73292">
        <ele>1736</ele>
        <time>2000-01-01T11:42:38.000Z</time>
      </trkpt>
      <trkpt lat="46.00797" lon="7.73276">
        <ele>1740.8</ele>
        <time>2000-01-01T11:42:48.000Z</time>
      </trkpt>
      <trkpt lat="46.0079" lon="7.73258">
        <ele>1736</ele>
        <time>2000-01-01T11:42:58.000Z</time>
      </trkpt>
      <trkpt lat="46.00781" lon="7.73245">
        <ele>1741.5</ele>
        <time>2000-01-01T11:43:08.000Z</time>
      </trkpt>
      <trkpt lat="46.00769" lon="7.73231">
        <ele>1738</ele>
        <time>2000-01-01T11:43:18.000Z</time>
      </trkpt>
      <trkpt lat="46.0076" lon="7.73214">
        <ele>1746.6</ele>
        <time>2000-01-01T11:43:28.000Z</time>
      </trkpt>
      <trkpt lat="46.00751" lon="7.73199">
        <ele>1740</ele>
        <time>2000-01-01T11:43:38.000Z</time>
      </trkpt>
      <trkpt lat="46.00736" lon="7.73192">
        <ele>1748.3</ele>
        <time>2000-01-01T11:43:48.000Z</time>
      </trkpt>
      <trkpt lat="46.00719" lon="7.73206">
        <ele>1752</ele>
        <time>2000-01-01T11:43:58.000Z</time>
      </trkpt>
      <trkpt lat="46.00707" lon="7.73209">
        <ele>1757.4</ele>
        <time>2000-01-01T11:44:08.000Z</time>
      </trkpt>
      <trkpt lat="46.00693" lon="7.73204">
        <ele>1757</ele>
        <time>2000-01-01T11:44:18.000Z</time>
      </trkpt>
      <trkpt lat="46.00673" lon="7.7321">
        <ele>1762</ele>
        <time>2000-01-01T11:44:28.000Z</time>
      </trkpt>
      <trkpt lat="46.00644" lon="7.73198">
        <ele>1764</ele>
        <time>2000-01-01T11:44:38.000Z</time>
      </trkpt>
      <trkpt lat="46.00633" lon="7.73198">
        <ele>1764.2</ele>
        <time>2000-01-01T11:44:48.000Z</time>
      </trkpt>
      <trkpt lat="46.00621" lon="7.73204">
        <ele>1764</ele>
        <time>2000-01-01T11:44:58.000Z</time>
      </trkpt>
      <trkpt lat="46.00606" lon="7.73212">
        <ele>1762.5</ele>
        <time>2000-01-01T11:45:08.000Z</time>
      </trkpt>
      <trkpt lat="46.00594" lon="7.73203">
        <ele>1765</ele>
        <time>2000-01-01T11:45:18.000Z</time>
      </trkpt>
      <trkpt lat="46.00588" lon="7.73193">
        <ele>1767.9</ele>
        <time>2000-01-01T11:45:28.000Z</time>
      </trkpt>
      <trkpt lat="46.00577" lon="7.73177">
        <ele>1774</ele>
        <time>2000-01-01T11:45:38.000Z</time>
      </trkpt>
      <trkpt lat="46.00589" lon="7.73146">
        <ele>1774</ele>
        <time>2000-01-01T11:45:48.000Z</time>
      </trkpt>
      <trkpt lat="46.00595" lon="7.73127">
        <ele>1774.1</ele>
        <time>2000-01-01T11:45:58.000Z</time>
      </trkpt>
      <trkpt lat="46.00595" lon="7.73112">
        <ele>1776</ele>
        <time>2000-01-01T11:46:08.000Z</time>
      </trkpt>
      <trkpt lat="46.00592" lon="7.73097">
        <ele>1776.9</ele>
        <time>2000-01-01T11:46:18.000Z</time>
      </trkpt>
      <trkpt lat="46.00585" lon="7.7308">
        <ele>1779</ele>
        <time>2000-01-01T11:46:28.000Z</time>
      </trkpt>
      <trkpt lat="46.00578" lon="7.73068">
        <ele>1783.8</ele>
        <time>2000-01-01T11:46:38.000Z</time>
      </trkpt>
      <trkpt lat="46.00573" lon="7.73055">
        <ele>1784</ele>
        <time>2000-01-01T11:46:48.000Z</time>
      </trkpt>
      <trkpt lat="46.00562" lon="7.73047">
        <ele>1792.6</ele>
        <time>2000-01-01T11:46:58.000Z</time>
      </trkpt>
      <trkpt lat="46.00551" lon="7.73039">
        <ele>1792</ele>
        <time>2000-01-01T11:47:08.000Z</time>
      </trkpt>
      <trkpt lat="46.00535" lon="7.73014">
        <ele>1808</ele>
        <time>2000-01-01T11:47:18.000Z</time>
      </trkpt>
      <trkpt lat="46.00525" lon="7.73">
        <ele>1797.3</ele>
        <time>2000-01-01T11:47:28.000Z</time>
      </trkpt>
      <trkpt lat="46.00523" lon="7.72968">
        <ele>1806</ele>
        <time>2000-01-01T11:47:38.000Z</time>
      </trkpt>
      <trkpt lat="46.0054" lon="7.7294">
        <ele>1805</ele>
        <time>2000-01-01T11:47:48.000Z</time>
      </trkpt>
      <trkpt lat="46.00546" lon="7.72922">
        <ele>1798.5</ele>
        <time>2000-01-01T11:47:58.000Z</time>
      </trkpt>
      <trkpt lat="46.00547" lon="7.72903">
        <ele>1805</ele>
        <time>2000-01-01T11:48:08.000Z</time>
      </trkpt>
      <trkpt lat="46.00548" lon="7.72868">
        <ele>1813</ele>
        <time>2000-01-01T11:48:18.000Z</time>
      </trkpt>
      <trkpt lat="46.00545" lon="7.7284">
        <ele>1820</ele>
        <time>2000-01-01T11:48:28.000Z</time>
      </trkpt>
      <trkpt lat="46.00549" lon="7.72822">
        <ele>1812.6</ele>
        <time>2000-01-01T11:48:38.000Z</time>
      </trkpt>
      <trkpt lat="46.00547" lon="7.72806">
        <ele>1828</ele>
        <time>2000-01-01T11:48:48.000Z</time>
      </trkpt>
      <trkpt lat="46.00539" lon="7.72788">
        <ele>1821.4</ele>
        <time>2000-01-01T11:48:58.000Z</time>
      </trkpt>
      <trkpt lat="46.00533" lon="7.72766">
        <ele>1829</ele>
        <time>2000-01-01T11:49:08.000Z</time>
      </trkpt>
      <trkpt lat="46.00526" lon="7.72756">
        <ele>1828.4</ele>
        <time>2000-01-01T11:49:18.000Z</time>
      </trkpt>
      <trkpt lat="46.00518" lon="7.72749">
        <ele>1841</ele>
        <time>2000-01-01T11:49:28.000Z</time>
      </trkpt>
      <trkpt lat="46.00508" lon="7.72744">
        <ele>1837.7</ele>
        <time>2000-01-01T11:49:38.000Z</time>
      </trkpt>
      <trkpt lat="46.00502" lon="7.7273">
        <ele>1843</ele>
        <time>2000-01-01T11:49:48.000Z</time>
      </trkpt>
      <trkpt lat="46.00495" lon="7.72721">
        <ele>1841.2</ele>
        <time>2000-01-01T11:49:58.000Z</time>
      </trkpt>
      <trkpt lat="46.00486" lon="7.72705">
        <ele>1855</ele>
        <time>2000-01-01T11:50:08.000Z</time>
      </trkpt>
      <trkpt lat="46.00481" lon="7.72693">
        <ele>1845.8</ele>
        <time>2000-01-01T11:50:18.000Z</time>
      </trkpt>
      <trkpt lat="46.00471" lon="7.72681">
        <ele>1858</ele>
        <time>2000-01-01T11:50:28.000Z</time>
      </trkpt>
      <trkpt lat="46.00465" lon="7.7267">
        <ele>1856</ele>
        <time>2000-01-01T11:50:38.000Z</time>
      </trkpt>
      <trkpt lat="46.00461" lon="7.72657">
        <ele>1859</ele>
        <time>2000-01-01T11:50:48.000Z</time>
      </trkpt>
      <trkpt lat="46.00451" lon="7.72647">
        <ele>1860.6</ele>
        <time>2000-01-01T11:50:58.000Z</time>
      </trkpt>
      <trkpt lat="46.00439" lon="7.72645">
        <ele>1868</ele>
        <time>2000-01-01T11:51:08.000Z</time>
      </trkpt>
      <trkpt lat="46.0043" lon="7.72651">
        <ele>1872.6</ele>
        <time>2000-01-01T11:51:18.000Z</time>
      </trkpt>
      <trkpt lat="46.00419" lon="7.72643">
        <ele>1877</ele>
        <time>2000-01-01T11:51:28.000Z</time>
      </trkpt>
      <trkpt lat="46.00409" lon="7.72628">
        <ele>1879.6</ele>
        <time>2000-01-01T11:51:38.000Z</time>
      </trkpt>
      <trkpt lat="46.00399" lon="7.72616">
        <ele>1890</ele>
        <time>2000-01-01T11:51:48.000Z</time>
      </trkpt>
      <trkpt lat="46.00391" lon="7.72604">
        <ele>1887.7</ele>
        <time>2000-01-01T11:51:58.000Z</time>
      </trkpt>
      <trkpt lat="46.00388" lon="7.72587">
        <ele>1897</ele>
        <time>2000-01-01T11:52:08.000Z</time>
      </trkpt>
      <trkpt lat="46.00382" lon="7.7257">
        <ele>1900</ele>
        <time>2000-01-01T11:52:18.000Z</time>
      </trkpt>
      <trkpt lat="46.00378" lon="7.7255">
        <ele>1909</ele>
        <time>2000-01-01T11:52:28.000Z</time>
      </trkpt>
      <trkpt lat="46.0037" lon="7.72536">
        <ele>1907.1</ele>
        <time>2000-01-01T11:52:38.000Z</time>
      </trkpt>
      <trkpt lat="46.00364" lon="7.72519">
        <ele>1915</ele>
        <time>2000-01-01T11:52:48.000Z</time>
      </trkpt>
      <trkpt lat="46.00354" lon="7.7251">
        <ele>1911.2</ele>
        <time>2000-01-01T11:52:58.000Z</time>
      </trkpt>
      <trkpt lat="46.00343" lon="7.72503">
        <ele>1924</ele>
        <time>2000-01-01T11:53:08.000Z</time>
      </trkpt>
      <trkpt lat="46.00337" lon="7.72485">
        <ele>1914.9</ele>
        <time>2000-01-01T11:53:18.000Z</time>
      </trkpt>
      <trkpt lat="46.00319" lon="7.72468">
        <ele>1929</ele>
        <time>2000-01-01T11:53:28.000Z</time>
      </trkpt>
      <trkpt lat="46.0032" lon="7.7249">
        <ele>1925.3</ele>
        <time>2000-01-01T11:53:38.000Z</time>
      </trkpt>
      <trkpt lat="46.00327" lon="7.72503">
        <ele>1935</ele>
        <time>2000-01-01T11:53:48.000Z</time>
      </trkpt>
      <trkpt lat="46.00336" lon="7.72531">
        <ele>1935</ele>
        <time>2000-01-01T11:53:58.000Z</time>
      </trkpt>
      <trkpt lat="46.00335" lon="7.72564">
        <ele>1942</ele>
        <time>2000-01-01T11:54:08.000Z</time>
      </trkpt>
      <trkpt lat="46.00325" lon="7.72564">
        <ele>1939.4</ele>
        <time>2000-01-01T11:54:18.000Z</time>
      </trkpt>
      <trkpt lat="46.00308" lon="7.72553">
        <ele>1957</ele>
        <time>2000-01-01T11:54:28.000Z</time>
      </trkpt>
      <trkpt lat="46.00297" lon="7.72541">
        <ele>1946.3</ele>
        <time>2000-01-01T11:54:38.000Z</time>
      </trkpt>
      <trkpt lat="46.00286" lon="7.72528">
        <ele>1965</ele>
        <time>2000-01-01T11:54:48.000Z</time>
      </trkpt>
      <trkpt lat="46.00278" lon="7.7251">
        <ele>1950.9</ele>
        <time>2000-01-01T11:54:58.000Z</time>
      </trkpt>
      <trkpt lat="46.00273" lon="7.72496">
        <ele>1968</ele>
        <time>2000-01-01T11:55:08.000Z</time>
      </trkpt>
      <trkpt lat="46.00267" lon="7.72476">
        <ele>1954.9</ele>
        <time>2000-01-01T11:55:18.000Z</time>
      </trkpt>
      <trkpt lat="46.00255" lon="7.72472">
        <ele>1977</ele>
        <time>2000-01-01T11:55:28.000Z</time>
      </trkpt>
      <trkpt lat="46.00236" lon="7.72486">
        <ele>1988</ele>
        <time>2000-01-01T11:55:38.000Z</time>
      </trkpt>
      <trkpt lat="46.00229" lon="7.72497">
        <ele>1970.8</ele>
        <time>2000-01-01T11:55:48.000Z</time>
      </trkpt>
      <trkpt lat="46.00224" lon="7.72512">
        <ele>1988</ele>
        <time>2000-01-01T11:55:58.000Z</time>
      </trkpt>
      <trkpt lat="46.00215" lon="7.72514">
        <ele>1976.6</ele>
        <time>2000-01-01T11:56:08.000Z</time>
      </trkpt>
      <trkpt lat="46.00218" lon="7.725">
        <ele>1997</ele>
        <time>2000-01-01T11:56:18.000Z</time>
      </trkpt>
      <trkpt lat="46.0021" lon="7.72486">
        <ele>1983.9</ele>
        <time>2000-01-01T11:56:28.000Z</time>
      </trkpt>
      <trkpt lat="46.00209" lon="7.72468">
        <ele>2011</ele>
        <time>2000-01-01T11:56:38.000Z</time>
      </trkpt>
      <trkpt lat="46.002" lon="7.72474">
        <ele>1992.2</ele>
        <time>2000-01-01T11:56:48.000Z</time>
      </trkpt>
      <trkpt lat="46.00202" lon="7.72459">
        <ele>2015</ele>
        <time>2000-01-01T11:56:58.000Z</time>
      </trkpt>
      <trkpt lat="46.00194" lon="7.72467">
        <ele>1997.4</ele>
        <time>2000-01-01T11:57:08.000Z</time>
      </trkpt>
      <trkpt lat="46.00189" lon="7.72452">
        <ele>2027</ele>
        <time>2000-01-01T11:57:18.000Z</time>
      </trkpt>
      <trkpt lat="46.00189" lon="7.72438">
        <ele>2007.7</ele>
        <time>2000-01-01T11:57:28.000Z</time>
      </trkpt>
      <trkpt lat="46.00195" lon="7.72427">
        <ele>2029</ele>
        <time>2000-01-01T11:57:38.000Z</time>
      </trkpt>
      <trkpt lat="46.00182" lon="7.72436">
        <ele>2012.3</ele>
        <time>2000-01-01T11:57:48.000Z</time>
      </trkpt>
      <trkpt lat="46.00173" lon="7.72441">
        <ele>2031</ele>
        <time>2000-01-01T11:57:58.000Z</time>
      </trkpt>
      <trkpt lat="46.0016" lon="7.72452">
        <ele>2018.3</ele>
        <time>2000-01-01T11:58:08.000Z</time>
      </trkpt>
      <trkpt lat="46.00149" lon="7.72463">
        <ele>2034</ele>
        <time>2000-01-01T11:58:18.000Z</time>
      </trkpt>
      <trkpt lat="46.00137" lon="7.72453">
        <ele>2029.9</ele>
        <time>2000-01-01T11:58:28.000Z</time>
      </trkpt>
      <trkpt lat="46.00127" lon="7.72446">
        <ele>2045</ele>
        <time>2000-01-01T11:58:38.000Z</time>
      </trkpt>
      <trkpt lat="46.00113" lon="7.72442">
        <ele>2038.7</ele>
        <time>2000-01-01T11:58:48.000Z</time>
      </trkpt>
      <trkpt lat="46.00104" lon="7.72428">
        <ele>2053</ele>
        <time>2000-01-01T11:58:58.000Z</time>
      </trkpt>
      <trkpt lat="46.00094" lon="7.72426">
        <ele>2044.7</ele>
        <time>2000-01-01T11:59:08.000Z</time>
      </trkpt>
      <trkpt lat="46.00087" lon="7.72414">
        <ele>2055</ele>
        <time>2000-01-01T11:59:18.000Z</time>
      </trkpt>
      <trkpt lat="46.00083" lon="7.72401">
        <ele>2051.5</ele>
        <time>2000-01-01T11:59:28.000Z</time>
      </trkpt>
      <trkpt lat="46.00077" lon="7.72383">
        <ele>2060</ele>
        <time>2000-01-01T11:59:38.000Z</time>
      </trkpt>
      <trkpt lat="46.00057" lon="7.72383">
        <ele>2059</ele>
        <time>2000-01-01T11:59:48.000Z</time>
      </trkpt>
      <trkpt lat="46.00047" lon="7.72387">
        <ele>2054.1</ele>
        <time>2000-01-01T11:59:58.000Z</time>
      </trkpt>
      <trkpt lat="46.00038" lon="7.72398">
        <ele>2058</ele>
        <time>2000-01-01T12:00:08.000Z</time>
      </trkpt>
      <trkpt lat="46.00021" lon="7.72408">
        <ele>2049.8</ele>
        <time>2000-01-01T12:00:18.000Z</time>
      </trkpt>
      <trkpt lat="46.00007" lon="7.72422">
        <ele>2057</ele>
        <time>2000-01-01T12:00:28.000Z</time>
      </trkpt>
      <trkpt lat="45.99998" lon="7.72428">
        <ele>2046.5</ele>
        <time>2000-01-01T12:00:38.000Z</time>
      </trkpt>
      <trkpt lat="45.99988" lon="7.72432">
        <ele>2063</ele>
        <time>2000-01-01T12:00:48.000Z</time>
      </trkpt>
      <trkpt lat="45.99971" lon="7.72432">
        <ele>2046.9</ele>
        <time>2000-01-01T12:00:58.000Z</time>
      </trkpt>
      <trkpt lat="45.99959" lon="7.72421">
        <ele>2069</ele>
        <time>2000-01-01T12:01:08.000Z</time>
      </trkpt>
      <trkpt lat="45.99948" lon="7.72426">
        <ele>2052.6</ele>
        <time>2000-01-01T12:01:18.000Z</time>
      </trkpt>
      <trkpt lat="45.99925" lon="7.72426">
        <ele>2069</ele>
        <time>2000-01-01T12:01:28.000Z</time>
      </trkpt>
      <trkpt lat="45.99912" lon="7.72424">
        <ele>2051</ele>
        <time>2000-01-01T12:01:38.000Z</time>
      </trkpt>
      <trkpt lat="45.99897" lon="7.72427">
        <ele>2067</ele>
        <time>2000-01-01T12:01:48.000Z</time>
      </trkpt>
      <trkpt lat="45.99876" lon="7.72426">
        <ele>2067</ele>
        <time>2000-01-01T12:01:58.000Z</time>
      </trkpt>
      <trkpt lat="45.99859" lon="7.72416">
        <ele>2051.3</ele>
        <time>2000-01-01T12:02:08.000Z</time>
      </trkpt>
      <trkpt lat="45.99847" lon="7.72406">
        <ele>2068</ele>
        <time>2000-01-01T12:02:18.000Z</time>
      </trkpt>
      <trkpt lat="45.99832" lon="7.72405">
        <ele>2056.6</ele>
        <time>2000-01-01T12:02:28.000Z</time>
      </trkpt>
      <trkpt lat="45.9982" lon="7.72403">
        <ele>2070</ele>
        <time>2000-01-01T12:02:38.000Z</time>
      </trkpt>
      <trkpt lat="45.99814" lon="7.72389">
        <ele>2063.2</ele>
        <time>2000-01-01T12:02:48.000Z</time>
      </trkpt>
      <trkpt lat="45.99804" lon="7.72394">
        <ele>2070</ele>
        <time>2000-01-01T12:02:58.000Z</time>
      </trkpt>
      <trkpt lat="45.99793" lon="7.72396">
        <ele>2059.2</ele>
        <time>2000-01-01T12:03:08.000Z</time>
      </trkpt>
      <trkpt lat="45.9978" lon="7.7239">
        <ele>2073</ele>
        <time>2000-01-01T12:03:18.000Z</time>
      </trkpt>
      <trkpt lat="45.99769" lon="7.7238">
        <ele>2068.4</ele>
        <time>2000-01-01T12:03:28.000Z</time>
      </trkpt>
      <trkpt lat="45.99759" lon="7.72372">
        <ele>2076</ele>
        <time>2000-01-01T12:03:38.000Z</time>
      </trkpt>
      <trkpt lat="45.99749" lon="7.72358">
        <ele>2079</ele>
        <time>2000-01-01T12:03:48.000Z</time>
      </trkpt>
      <trkpt lat="45.99738" lon="7.72348">
        <ele>2084</ele>
        <time>2000-01-01T12:03:58.000Z</time>
      </trkpt>
      <trkpt lat="45.99727" lon="7.72346">
        <ele>2085.9</ele>
        <time>2000-01-01T12:04:08.000Z</time>
      </trkpt>
      <trkpt lat="45.99717" lon="7.72342">
        <ele>2092</ele>
        <time>2000-01-01T12:04:18.000Z</time>
      </trkpt>
      <trkpt lat="45.99723" lon="7.72331">
        <ele>2094.6</ele>
        <time>2000-01-01T12:04:28.000Z</time>
      </trkpt>
      <trkpt lat="45.99733" lon="7.72323">
        <ele>2107</ele>
        <time>2000-01-01T12:04:38.000Z</time>
      </trkpt>
      <trkpt lat="45.99724" lon="7.72319">
        <ele>2102.5</ele>
        <time>2000-01-01T12:04:48.000Z</time>
      </trkpt>
      <trkpt lat="45.99715" lon="7.72319">
        <ele>2101.4</ele>
        <time>2000-01-01T12:04:58.000Z</time>
      </trkpt>
      <trkpt lat="45.99706" lon="7.72309">
        <ele>2116</ele>
        <time>2000-01-01T12:05:08.000Z</time>
      </trkpt>
      <trkpt lat="45.99676" lon="7.72304">
        <ele>2117</ele>
        <time>2000-01-01T12:05:18.000Z</time>
      </trkpt>
      <trkpt lat="45.99665" lon="7.72305">
        <ele>2110.4</ele>
        <time>2000-01-01T12:05:28.000Z</time>
      </trkpt>
      <trkpt lat="45.99653" lon="7.72299">
        <ele>2126</ele>
        <time>2000-01-01T12:05:38.000Z</time>
      </trkpt>
      <trkpt lat="45.99641" lon="7.72298">
        <ele>2115.3</ele>
        <time>2000-01-01T12:05:48.000Z</time>
      </trkpt>
      <trkpt lat="45.99631" lon="7.72294">
        <ele>2127</ele>
        <time>2000-01-01T12:05:58.000Z</time>
      </trkpt>
      <trkpt lat="45.99622" lon="7.72289">
        <ele>2125.8</ele>
        <time>2000-01-01T12:06:08.000Z</time>
      </trkpt>
      <trkpt lat="45.99612" lon="7.7229">
        <ele>2128</ele>
        <time>2000-01-01T12:06:18.000Z</time>
      </trkpt>
      <trkpt lat="45.99596" lon="7.7229">
        <ele>2130.8</ele>
        <time>2000-01-01T12:06:28.000Z</time>
      </trkpt>
      <trkpt lat="45.99586" lon="7.7229">
        <ele>2132</ele>
        <time>2000-01-01T12:06:38.000Z</time>
      </trkpt>
      <trkpt lat="45.99576" lon="7.7228">
        <ele>2136.4</ele>
        <time>2000-01-01T12:06:48.000Z</time>
      </trkpt>
      <trkpt lat="45.99563" lon="7.72249">
        <ele>2142</ele>
        <time>2000-01-01T12:06:58.000Z</time>
      </trkpt>
      <trkpt lat="45.99537" lon="7.72258">
        <ele>2152</ele>
        <time>2000-01-01T12:07:08.000Z</time>
      </trkpt>
      <trkpt lat="45.99522" lon="7.72254">
        <ele>2144</ele>
        <time>2000-01-01T12:07:18.000Z</time>
      </trkpt>
      <trkpt lat="45.99511" lon="7.72244">
        <ele>2163</ele>
        <time>2000-01-01T12:07:28.000Z</time>
      </trkpt>
      <trkpt lat="45.995" lon="7.7225">
        <ele>2149</ele>
        <time>2000-01-01T12:07:38.000Z</time>
      </trkpt>
      <trkpt lat="45.99489" lon="7.72242">
        <ele>2170</ele>
        <time>2000-01-01T12:07:48.000Z</time>
      </trkpt>
      <trkpt lat="45.99476" lon="7.72237">
        <ele>2159.9</ele>
        <time>2000-01-01T12:07:58.000Z</time>
      </trkpt>
      <trkpt lat="45.99465" lon="7.72238">
        <ele>2174</ele>
        <time>2000-01-01T12:08:08.000Z</time>
      </trkpt>
      <trkpt lat="45.99455" lon="7.72244">
        <ele>2161.1</ele>
        <time>2000-01-01T12:08:18.000Z</time>
      </trkpt>
      <trkpt lat="45.99444" lon="7.72246">
        <ele>2178</ele>
        <time>2000-01-01T12:08:28.000Z</time>
      </trkpt>
      <trkpt lat="45.99429" lon="7.72242">
        <ele>2166.2</ele>
        <time>2000-01-01T12:08:38.000Z</time>
      </trkpt>
      <trkpt lat="45.99419" lon="7.72239">
        <ele>2191</ele>
        <time>2000-01-01T12:08:48.000Z</time>
      </trkpt>
      <trkpt lat="45.99404" lon="7.72231">
        <ele>2176.3</ele>
        <time>2000-01-01T12:08:58.000Z</time>
      </trkpt>
      <trkpt lat="45.99391" lon="7.7224">
        <ele>2194</ele>
        <time>2000-01-01T12:09:08.000Z</time>
      </trkpt>
      <trkpt lat="45.99381" lon="7.7224">
        <ele>2176.8</ele>
        <time>2000-01-01T12:09:18.000Z</time>
      </trkpt>
      <trkpt lat="45.99367" lon="7.72237">
        <ele>2197</ele>
        <time>2000-01-01T12:09:28.000Z</time>
      </trkpt>
      <trkpt lat="45.99351" lon="7.72238">
        <ele>2184.2</ele>
        <time>2000-01-01T12:09:38.000Z</time>
      </trkpt>
      <trkpt lat="45.99338" lon="7.72233">
        <ele>2197</ele>
        <time>2000-01-01T12:09:48.000Z</time>
      </trkpt>
      <trkpt lat="45.99326" lon="7.72242">
        <ele>2187.5</ele>
        <time>2000-01-01T12:09:58.000Z</time>
      </trkpt>
      <trkpt lat="45.99315" lon="7.7225">
        <ele>2197</ele>
        <time>2000-01-01T12:10:08.000Z</time>
      </trkpt>
      <trkpt lat="45.99306" lon="7.72242">
        <ele>2193.6</ele>
        <time>2000-01-01T12:10:18.000Z</time>
      </trkpt>
      <trkpt lat="45.99296" lon="7.72226">
        <ele>2209</ele>
        <time>2000-01-01T12:10:28.000Z</time>
      </trkpt>
      <trkpt lat="45.99293" lon="7.7221">
        <ele>2203.5</ele>
        <time>2000-01-01T12:10:38.000Z</time>
      </trkpt>
      <trkpt lat="45.99288" lon="7.72198">
        <ele>2221</ele>
        <time>2000-01-01T12:10:48.000Z</time>
      </trkpt>
      <trkpt lat="45.99269" lon="7.72167">
        <ele>2223</ele>
        <time>2000-01-01T12:10:58.000Z</time>
      </trkpt>
      <trkpt lat="45.99262" lon="7.72145">
        <ele>2213.4</ele>
        <time>2000-01-01T12:11:08.000Z</time>
      </trkpt>
      <trkpt lat="45.99258" lon="7.72128">
        <ele>2232</ele>
        <time>2000-01-01T12:11:18.000Z</time>
      </trkpt>
      <trkpt lat="45.99254" lon="7.72115">
        <ele>2217.9</ele>
        <time>2000-01-01T12:11:28.000Z</time>
      </trkpt>
      <trkpt lat="45.99245" lon="7.72105">
        <ele>2235</ele>
        <time>2000-01-01T12:11:38.000Z</time>
      </trkpt>
      <trkpt lat="45.99236" lon="7.7209">
        <ele>2221.2</ele>
        <time>2000-01-01T12:11:48.000Z</time>
      </trkpt>
      <trkpt lat="45.99245" lon="7.72097">
        <ele>2241</ele>
        <time>2000-01-01T12:11:58.000Z</time>
      </trkpt>
      <trkpt lat="45.99248" lon="7.72084">
        <ele>2230.6</ele>
        <time>2000-01-01T12:12:08.000Z</time>
      </trkpt>
      <trkpt lat="45.99241" lon="7.72066">
        <ele>2249</ele>
        <time>2000-01-01T12:12:18.000Z</time>
      </trkpt>
      <trkpt lat="45.99232" lon="7.72055">
        <ele>2238.9</ele>
        <time>2000-01-01T12:12:28.000Z</time>
      </trkpt>
      <trkpt lat="45.99229" lon="7.7204">
        <ele>2258</ele>
        <time>2000-01-01T12:12:38.000Z</time>
      </trkpt>
      <trkpt lat="45.99223" lon="7.72027">
        <ele>2248</ele>
        <time>2000-01-01T12:12:48.000Z</time>
      </trkpt>
      <trkpt lat="45.99218" lon="7.72013">
        <ele>2269</ele>
        <time>2000-01-01T12:12:58.000Z</time>
      </trkpt>
      <trkpt lat="45.99206" lon="7.72013">
        <ele>2250.6</ele>
        <time>2000-01-01T12:13:08.000Z</time>
      </trkpt>
      <trkpt lat="45.99192" lon="7.72004">
        <ele>2269</ele>
        <time>2000-01-01T12:13:18.000Z</time>
      </trkpt>
      <trkpt lat="45.99184" lon="7.71992">
        <ele>2258.7</ele>
        <time>2000-01-01T12:13:28.000Z</time>
      </trkpt>
      <trkpt lat="45.99169" lon="7.71985">
        <ele>2269</ele>
        <time>2000-01-01T12:13:38.000Z</time>
      </trkpt>
      <trkpt lat="45.99151" lon="7.71993">
        <ele>2256.1</ele>
        <time>2000-01-01T12:13:48.000Z</time>
      </trkpt>
      <trkpt lat="45.99136" lon="7.71993">
        <ele>2270</ele>
        <time>2000-01-01T12:13:58.000Z</time>
      </trkpt>
      <trkpt lat="45.99117" lon="7.7199">
        <ele>2275</ele>
        <time>2000-01-01T12:14:08.000Z</time>
      </trkpt>
      <trkpt lat="45.99102" lon="7.71972">
        <ele>2275</ele>
        <time>2000-01-01T12:14:18.000Z</time>
      </trkpt>
      <trkpt lat="45.99096" lon="7.71961">
        <ele>2274.4</ele>
        <time>2000-01-01T12:14:28.000Z</time>
      </trkpt>
      <trkpt lat="45.99089" lon="7.71986">
        <ele>2275</ele>
        <time>2000-01-01T12:14:38.000Z</time>
      </trkpt>
      <trkpt lat="45.99078" lon="7.71973">
        <ele>2279.6</ele>
        <time>2000-01-01T12:14:48.000Z</time>
      </trkpt>
      <trkpt lat="45.99069" lon="7.71982">
        <ele>2284</ele>
        <time>2000-01-01T12:14:58.000Z</time>
      </trkpt>
      <trkpt lat="45.99056" lon="7.71979">
        <ele>2290.3</ele>
        <time>2000-01-01T12:15:08.000Z</time>
      </trkpt>
      <trkpt lat="45.99047" lon="7.71991">
        <ele>2293</ele>
        <time>2000-01-01T12:15:18.000Z</time>
      </trkpt>
      <trkpt lat="45.99035" lon="7.71991">
        <ele>2298.3</ele>
        <time>2000-01-01T12:15:28.000Z</time>
      </trkpt>
      <trkpt lat="45.99019" lon="7.71985">
        <ele>2308</ele>
        <time>2000-01-01T12:15:38.000Z</time>
      </trkpt>
      <trkpt lat="45.99015" lon="7.71968">
        <ele>2310.9</ele>
        <time>2000-01-01T12:15:48.000Z</time>
      </trkpt>
      <trkpt lat="45.99009" lon="7.71951">
        <ele>2310</ele>
        <time>2000-01-01T12:15:58.000Z</time>
      </trkpt>
      <trkpt lat="45.99006" lon="7.71931">
        <ele>2323.8</ele>
        <time>2000-01-01T12:16:08.000Z</time>
      </trkpt>
      <trkpt lat="45.99001" lon="7.71911">
        <ele>2313</ele>
        <time>2000-01-01T12:16:18.000Z</time>
      </trkpt>
      <trkpt lat="45.98999" lon="7.71893">
        <ele>2325.4</ele>
        <time>2000-01-01T12:16:28.000Z</time>
      </trkpt>
      <trkpt lat="45.98996" lon="7.71876">
        <ele>2326</ele>
        <time>2000-01-01T12:16:38.000Z</time>
      </trkpt>
      <trkpt lat="45.98991" lon="7.71864">
        <ele>2331.4</ele>
        <time>2000-01-01T12:16:48.000Z</time>
      </trkpt>
      <trkpt lat="45.98992" lon="7.71846">
        <ele>2325</ele>
        <time>2000-01-01T12:16:58.000Z</time>
      </trkpt>
      <trkpt lat="45.98985" lon="7.71831">
        <ele>2337.8</ele>
        <time>2000-01-01T12:17:08.000Z</time>
      </trkpt>
      <trkpt lat="45.98974" lon="7.71799">
        <ele>2328</ele>
        <time>2000-01-01T12:17:18.000Z</time>
      </trkpt>
      <trkpt lat="45.98967" lon="7.71792">
        <ele>2339.5</ele>
        <time>2000-01-01T12:17:28.000Z</time>
      </trkpt>
      <trkpt lat="45.98952" lon="7.71788">
        <ele>2332</ele>
        <time>2000-01-01T12:17:38.000Z</time>
      </trkpt>
      <trkpt lat="45.98943" lon="7.71782">
        <ele>2350.2</ele>
        <time>2000-01-01T12:17:48.000Z</time>
      </trkpt>
      <trkpt lat="45.98935" lon="7.71772">
        <ele>2342</ele>
        <time>2000-01-01T12:17:58.000Z</time>
      </trkpt>
      <trkpt lat="45.98926" lon="7.71754">
        <ele>2351.8</ele>
        <time>2000-01-01T12:18:08.000Z</time>
      </trkpt>
      <trkpt lat="45.98918" lon="7.7174">
        <ele>2350</ele>
        <time>2000-01-01T12:18:18.000Z</time>
      </trkpt>
      <trkpt lat="45.98907" lon="7.71727">
        <ele>2357.8</ele>
        <time>2000-01-01T12:18:28.000Z</time>
      </trkpt>
      <trkpt lat="45.98905" lon="7.71747">
        <ele>2356</ele>
        <time>2000-01-01T12:18:38.000Z</time>
      </trkpt>
      <trkpt lat="45.98896" lon="7.71737">
        <ele>2367.7</ele>
        <time>2000-01-01T12:18:48.000Z</time>
      </trkpt>
      <trkpt lat="45.98885" lon="7.71727">
        <ele>2362</ele>
        <time>2000-01-01T12:18:58.000Z</time>
      </trkpt>
      <trkpt lat="45.98877" lon="7.71735">
        <ele>2379.1</ele>
        <time>2000-01-01T12:19:08.000Z</time>
      </trkpt>
      <trkpt lat="45.98868" lon="7.71726">
        <ele>2375</ele>
        <time>2000-01-01T12:19:18.000Z</time>
      </trkpt>
      <trkpt lat="45.9886" lon="7.7171">
        <ele>2381.5</ele>
        <time>2000-01-01T12:19:28.000Z</time>
      </trkpt>
      <trkpt lat="45.98852" lon="7.71723">
        <ele>2380</ele>
        <time>2000-01-01T12:19:38.000Z</time>
      </trkpt>
      <trkpt lat="45.98846" lon="7.71712">
        <ele>2389</ele>
        <time>2000-01-01T12:19:48.000Z</time>
      </trkpt>
      <trkpt lat="45.98838" lon="7.7173">
        <ele>2394</ele>
        <time>2000-01-01T12:19:58.000Z</time>
      </trkpt>
      <trkpt lat="45.98834" lon="7.71718">
        <ele>2396.6</ele>
        <time>2000-01-01T12:20:08.000Z</time>
      </trkpt>
      <trkpt lat="45.9883" lon="7.7173">
        <ele>2401</ele>
        <time>2000-01-01T12:20:18.000Z</time>
      </trkpt>
      <trkpt lat="45.98831" lon="7.71748">
        <ele>2398</ele>
        <time>2000-01-01T12:20:28.000Z</time>
      </trkpt>
      <trkpt lat="45.98816" lon="7.71742">
        <ele>2409.6</ele>
        <time>2000-01-01T12:20:38.000Z</time>
      </trkpt>
      <trkpt lat="45.98813" lon="7.71761">
        <ele>2412</ele>
        <time>2000-01-01T12:20:48.000Z</time>
      </trkpt>
      <trkpt lat="45.9882" lon="7.71774">
        <ele>2420.6</ele>
        <time>2000-01-01T12:20:58.000Z</time>
      </trkpt>
      <trkpt lat="45.98828" lon="7.71784">
        <ele>2412</ele>
        <time>2000-01-01T12:21:08.000Z</time>
      </trkpt>
      <trkpt lat="45.98834" lon="7.71795">
        <ele>2423.6</ele>
        <time>2000-01-01T12:21:18.000Z</time>
      </trkpt>
      <trkpt lat="45.98841" lon="7.71806">
        <ele>2412</ele>
        <time>2000-01-01T12:21:28.000Z</time>
      </trkpt>
      <trkpt lat="45.98844" lon="7.71823">
        <ele>2427.8</ele>
        <time>2000-01-01T12:21:38.000Z</time>
      </trkpt>
      <trkpt lat="45.98834" lon="7.71818">
        <ele>2419</ele>
        <time>2000-01-01T12:21:48.000Z</time>
      </trkpt>
      <trkpt lat="45.98824" lon="7.71807">
        <ele>2432</ele>
        <time>2000-01-01T12:21:58.000Z</time>
      </trkpt>
      <trkpt lat="45.98813" lon="7.71808">
        <ele>2423</ele>
        <time>2000-01-01T12:22:08.000Z</time>
      </trkpt>
      <trkpt lat="45.98802" lon="7.71812">
        <ele>2441.2</ele>
        <time>2000-01-01T12:22:18.000Z</time>
      </trkpt>
      <trkpt lat="45.9879" lon="7.71805">
        <ele>2437</ele>
        <time>2000-01-01T12:22:28.000Z</time>
      </trkpt>
      <trkpt lat="45.9878" lon="7.71811">
        <ele>2447.3</ele>
        <time>2000-01-01T12:22:38.000Z</time>
      </trkpt>
      <trkpt lat="45.98771" lon="7.71822">
        <ele>2447</ele>
        <time>2000-01-01T12:22:48.000Z</time>
      </trkpt>
      <trkpt lat="45.98766" lon="7.71836">
        <ele>2455.5</ele>
        <time>2000-01-01T12:22:58.000Z</time>
      </trkpt>
      <trkpt lat="45.98765" lon="7.71856">
        <ele>2456</ele>
        <time>2000-01-01T12:23:08.000Z</time>
      </trkpt>
      <trkpt lat="45.98771" lon="7.71869">
        <ele>2460.1</ele>
        <time>2000-01-01T12:23:18.000Z</time>
      </trkpt>
      <trkpt lat="45.98776" lon="7.71889">
        <ele>2459</ele>
        <time>2000-01-01T12:23:28.000Z</time>
      </trkpt>
      <trkpt lat="45.98777" lon="7.71911">
        <ele>2462.7</ele>
        <time>2000-01-01T12:23:38.000Z</time>
      </trkpt>
      <trkpt lat="45.9878" lon="7.71941">
        <ele>2465</ele>
        <time>2000-01-01T12:23:48.000Z</time>
      </trkpt>
      <trkpt lat="45.98779" lon="7.71956">
        <ele>2466.9</ele>
        <time>2000-01-01T12:23:58.000Z</time>
      </trkpt>
      <trkpt lat="45.98774" lon="7.71977">
        <ele>2469</ele>
        <time>2000-01-01T12:24:08.000Z</time>
      </trkpt>
      <trkpt lat="45.98773" lon="7.72003">
        <ele>2471.3</ele>
        <time>2000-01-01T12:24:18.000Z</time>
      </trkpt>
      <trkpt lat="45.98747" lon="7.72044">
        <ele>2481</ele>
        <time>2000-01-01T12:24:28.000Z</time>
      </trkpt>
      <trkpt lat="45.98743" lon="7.72058">
        <ele>2482</ele>
        <time>2000-01-01T12:24:38.000Z</time>
      </trkpt>
      <trkpt lat="45.98735" lon="7.72073">
        <ele>2485</ele>
        <time>2000-01-01T12:24:48.000Z</time>
      </trkpt>
      <trkpt lat="45.98725" lon="7.72085">
        <ele>2489.1</ele>
        <time>2000-01-01T12:24:58.000Z</time>
      </trkpt>
      <trkpt lat="45.98713" lon="7.72088">
        <ele>2492</ele>
        <time>2000-01-01T12:25:08.000Z</time>
      </trkpt>
      <trkpt lat="45.98703" lon="7.72104">
        <ele>2495.8</ele>
        <time>2000-01-01T12:25:18.000Z</time>
      </trkpt>
      <trkpt lat="45.98696" lon="7.72117">
        <ele>2499</ele>
        <time>2000-01-01T12:25:28.000Z</time>
      </trkpt>
      <trkpt lat="45.98688" lon="7.7213">
        <ele>2499.4</ele>
        <time>2000-01-01T12:25:38.000Z</time>
      </trkpt>
      <trkpt lat="45.98676" lon="7.72157">
        <ele>2506</ele>
        <time>2000-01-01T12:25:48.000Z</time>
      </trkpt>
      <trkpt lat="45.98671" lon="7.72171">
        <ele>2504.5</ele>
        <time>2000-01-01T12:25:58.000Z</time>
      </trkpt>
      <trkpt lat="45.98666" lon="7.7215">
        <ele>2512</ele>
        <time>2000-01-01T12:26:08.000Z</time>
      </trkpt>
      <trkpt lat="45.98663" lon="7.72125">
        <ele>2514.3</ele>
        <time>2000-01-01T12:26:18.000Z</time>
      </trkpt>
      <trkpt lat="45.98667" lon="7.72109">
        <ele>2511</ele>
        <time>2000-01-01T12:26:28.000Z</time>
      </trkpt>
      <trkpt lat="45.98666" lon="7.72078">
        <ele>2511</ele>
        <time>2000-01-01T12:26:38.000Z</time>
      </trkpt>
      <trkpt lat="45.98653" lon="7.7205">
        <ele>2516</ele>
        <time>2000-01-01T12:26:48.000Z</time>
      </trkpt>
      <trkpt lat="45.98622" lon="7.72042">
        <ele>2530</ele>
        <time>2000-01-01T12:26:58.000Z</time>
      </trkpt>
      <trkpt lat="45.98612" lon="7.72049">
        <ele>2536</ele>
        <time>2000-01-01T12:27:08.000Z</time>
      </trkpt>
      <trkpt lat="45.986" lon="7.72054">
        <ele>2541</ele>
        <time>2000-01-01T12:27:18.000Z</time>
      </trkpt>
      <trkpt lat="45.98597" lon="7.72075">
        <ele>2544.3</ele>
        <time>2000-01-01T12:27:28.000Z</time>
      </trkpt>
      <trkpt lat="45.98588" lon="7.72091">
        <ele>2548</ele>
        <time>2000-01-01T12:27:38.000Z</time>
      </trkpt>
      <trkpt lat="45.98568" lon="7.72111">
        <ele>2556</ele>
        <time>2000-01-01T12:27:48.000Z</time>
      </trkpt>
      <trkpt lat="45.98558" lon="7.72113">
        <ele>2557.5</ele>
        <time>2000-01-01T12:27:58.000Z</time>
      </trkpt>
      <trkpt lat="45.98546" lon="7.72117">
        <ele>2561</ele>
        <time>2000-01-01T12:28:08.000Z</time>
      </trkpt>
      <trkpt lat="45.98532" lon="7.72128">
        <ele>2565.3</ele>
        <time>2000-01-01T12:28:18.000Z</time>
      </trkpt>
      <trkpt lat="45.98522" lon="7.7213">
        <ele>2567</ele>
        <time>2000-01-01T12:28:28.000Z</time>
      </trkpt>
      <trkpt lat="45.98512" lon="7.72144">
        <ele>2571.7</ele>
        <time>2000-01-01T12:28:38.000Z</time>
      </trkpt>
      <trkpt lat="45.98503" lon="7.72148">
        <ele>2573</ele>
        <time>2000-01-01T12:28:48.000Z</time>
      </trkpt>
      <trkpt lat="45.98491" lon="7.72138">
        <ele>2577.7</ele>
        <time>2000-01-01T12:28:58.000Z</time>
      </trkpt>
      <trkpt lat="45.98478" lon="7.72124">
        <ele>2583</ele>
        <time>2000-01-01T12:29:08.000Z</time>
      </trkpt>
      <trkpt lat="45.98467" lon="7.72113">
        <ele>2585.2</ele>
        <time>2000-01-01T12:29:18.000Z</time>
      </trkpt>
      <trkpt lat="45.98454" lon="7.72121">
        <ele>2588</ele>
        <time>2000-01-01T12:29:28.000Z</time>
      </trkpt>
      <trkpt lat="45.98436" lon="7.72127">
        <ele>2590.3</ele>
        <time>2000-01-01T12:29:38.000Z</time>
      </trkpt>
      <trkpt lat="45.98425" lon="7.72135">
        <ele>2595</ele>
        <time>2000-01-01T12:29:48.000Z</time>
      </trkpt>
      <trkpt lat="45.98411" lon="7.72137">
        <ele>2596.9</ele>
        <time>2000-01-01T12:29:58.000Z</time>
      </trkpt>
      <trkpt lat="45.98395" lon="7.72156">
        <ele>2599</ele>
        <time>2000-01-01T12:30:08.000Z</time>
      </trkpt>
      <trkpt lat="45.98387" lon="7.72168">
        <ele>2597.3</ele>
        <time>2000-01-01T12:30:18.000Z</time>
      </trkpt>
      <trkpt lat="45.98378" lon="7.72177">
        <ele>2600</ele>
        <time>2000-01-01T12:30:28.000Z</time>
      </trkpt>
      <trkpt lat="45.98369" lon="7.7219">
        <ele>2601.3</ele>
        <time>2000-01-01T12:30:38.000Z</time>
      </trkpt>
      <trkpt lat="45.9836" lon="7.72197">
        <ele>2604</ele>
        <time>2000-01-01T12:30:48.000Z</time>
      </trkpt>
      <trkpt lat="45.98351" lon="7.7218">
        <ele>2606.6</ele>
        <time>2000-01-01T12:30:58.000Z</time>
      </trkpt>
      <trkpt lat="45.98341" lon="7.7218">
        <ele>2608</ele>
        <time>2000-01-01T12:31:08.000Z</time>
      </trkpt>
      <trkpt lat="45.9833" lon="7.72176">
        <ele>2614.7</ele>
        <time>2000-01-01T12:31:18.000Z</time>
      </trkpt>
      <trkpt lat="45.98317" lon="7.72176">
        <ele>2621</ele>
        <time>2000-01-01T12:31:28.000Z</time>
      </trkpt>
      <trkpt lat="45.98306" lon="7.72175">
        <ele>2624.6</ele>
        <time>2000-01-01T12:31:38.000Z</time>
      </trkpt>
      <trkpt lat="45.98295" lon="7.72169">
        <ele>2630</ele>
        <time>2000-01-01T12:31:48.000Z</time>
      </trkpt>
      <trkpt lat="45.98285" lon="7.72164">
        <ele>2633.5</ele>
        <time>2000-01-01T12:31:58.000Z</time>
      </trkpt>
      <trkpt lat="45.98272" lon="7.72157">
        <ele>2639</ele>
        <time>2000-01-01T12:32:08.000Z</time>
      </trkpt>
      <trkpt lat="45.98262" lon="7.7215">
        <ele>2641.9</ele>
        <time>2000-01-01T12:32:18.000Z</time>
      </trkpt>
      <trkpt lat="45.98258" lon="7.72132">
        <ele>2649</ele>
        <time>2000-01-01T12:32:28.000Z</time>
      </trkpt>
      <trkpt lat="45.98245" lon="7.72139">
        <ele>2649.6</ele>
        <time>2000-01-01T12:32:38.000Z</time>
      </trkpt>
      <trkpt lat="45.98236" lon="7.72143">
        <ele>2655</ele>
        <time>2000-01-01T12:32:48.000Z</time>
      </trkpt>
      <trkpt lat="45.98224" lon="7.72135">
        <ele>2657.1</ele>
        <time>2000-01-01T12:32:58.000Z</time>
      </trkpt>
      <trkpt lat="45.98213" lon="7.72134">
        <ele>2663</ele>
        <time>2000-01-01T12:33:08.000Z</time>
      </trkpt>
      <trkpt lat="45.98202" lon="7.72118">
        <ele>2664.2</ele>
        <time>2000-01-01T12:33:18.000Z</time>
      </trkpt>
      <trkpt lat="45.9819" lon="7.72106">
        <ele>2673</ele>
        <time>2000-01-01T12:33:28.000Z</time>
      </trkpt>
      <trkpt lat="45.98181" lon="7.72095">
        <ele>2668.2</ele>
        <time>2000-01-01T12:33:38.000Z</time>
      </trkpt>
      <trkpt lat="45.98176" lon="7.72075">
        <ele>2678</ele>
        <time>2000-01-01T12:33:48.000Z</time>
      </trkpt>
      <trkpt lat="45.9817" lon="7.72061">
        <ele>2675.7</ele>
        <time>2000-01-01T12:33:58.000Z</time>
      </trkpt>
      <trkpt lat="45.9816" lon="7.72061">
        <ele>2680</ele>
        <time>2000-01-01T12:34:08.000Z</time>
      </trkpt>
      <trkpt lat="45.98144" lon="7.7206">
        <ele>2672.6</ele>
        <time>2000-01-01T12:34:18.000Z</time>
      </trkpt>
      <trkpt lat="45.98138" lon="7.72044">
        <ele>2681</ele>
        <time>2000-01-01T12:34:28.000Z</time>
      </trkpt>
      <trkpt lat="45.98128" lon="7.72035">
        <ele>2677.4</ele>
        <time>2000-01-01T12:34:38.000Z</time>
      </trkpt>
      <trkpt lat="45.98103" lon="7.72047">
        <ele>2681</ele>
        <time>2000-01-01T12:34:48.000Z</time>
      </trkpt>
      <trkpt lat="45.98103" lon="7.72067">
        <ele>2680.3</ele>
        <time>2000-01-01T12:34:58.000Z</time>
      </trkpt>
      <trkpt lat="45.98101" lon="7.72092">
        <ele>2684</ele>
        <time>2000-01-01T12:35:08.000Z</time>
      </trkpt>
      <trkpt lat="45.98098" lon="7.72108">
        <ele>2681.8</ele>
        <time>2000-01-01T12:35:18.000Z</time>
      </trkpt>
      <trkpt lat="45.98081" lon="7.72124">
        <ele>2687</ele>
        <time>2000-01-01T12:35:28.000Z</time>
      </trkpt>
      <trkpt lat="45.98077" lon="7.7214">
        <ele>2686.8</ele>
        <time>2000-01-01T12:35:38.000Z</time>
      </trkpt>
      <trkpt lat="45.98072" lon="7.72153">
        <ele>2688</ele>
        <time>2000-01-01T12:35:48.000Z</time>
      </trkpt>
      <trkpt lat="45.98063" lon="7.72158">
        <ele>2689.3</ele>
        <time>2000-01-01T12:35:58.000Z</time>
      </trkpt>
      <trkpt lat="45.98049" lon="7.72171">
        <ele>2689</ele>
        <time>2000-01-01T12:36:08.000Z</time>
      </trkpt>
      <trkpt lat="45.9804" lon="7.7218">
        <ele>2688.7</ele>
        <time>2000-01-01T12:36:18.000Z</time>
      </trkpt>
      <trkpt lat="45.98032" lon="7.72191">
        <ele>2691</ele>
        <time>2000-01-01T12:36:28.000Z</time>
      </trkpt>
      <trkpt lat="45.98021" lon="7.72194">
        <ele>2687.1</ele>
        <time>2000-01-01T12:36:38.000Z</time>
      </trkpt>
      <trkpt lat="45.98002" lon="7.7219">
        <ele>2695</ele>
        <time>2000-01-01T12:36:48.000Z</time>
      </trkpt>
      <trkpt lat="45.9799" lon="7.7219">
        <ele>2689.2</ele>
        <time>2000-01-01T12:36:58.000Z</time>
      </trkpt>
      <trkpt lat="45.97976" lon="7.72192">
        <ele>2695</ele>
        <time>2000-01-01T12:37:08.000Z</time>
      </trkpt>
      <trkpt lat="45.97964" lon="7.72197">
        <ele>2690.1</ele>
        <time>2000-01-01T12:37:18.000Z</time>
      </trkpt>
      <trkpt lat="45.97958" lon="7.72211">
        <ele>2693</ele>
        <time>2000-01-01T12:37:28.000Z</time>
      </trkpt>
      <trkpt lat="45.97943" lon="7.72224">
        <ele>2688.6</ele>
        <time>2000-01-01T12:37:38.000Z</time>
      </trkpt>
      <trkpt lat="45.97929" lon="7.72231">
        <ele>2692</ele>
        <time>2000-01-01T12:37:48.000Z</time>
      </trkpt>
      <trkpt lat="45.979" lon="7.72253">
        <ele>2692</ele>
        <time>2000-01-01T12:37:58.000Z</time>
      </trkpt>
      <trkpt lat="45.97882" lon="7.72257">
        <ele>2686.2</ele>
        <time>2000-01-01T12:38:08.000Z</time>
      </trkpt>
      <trkpt lat="45.97871" lon="7.72258">
        <ele>2692</ele>
        <time>2000-01-01T12:38:18.000Z</time>
      </trkpt>
      <trkpt lat="45.97858" lon="7.72265">
        <ele>2690.5</ele>
        <time>2000-01-01T12:38:28.000Z</time>
      </trkpt>
      <trkpt lat="45.97848" lon="7.72279">
        <ele>2695</ele>
        <time>2000-01-01T12:38:38.000Z</time>
      </trkpt>
      <trkpt lat="45.9784" lon="7.72293">
        <ele>2694.8</ele>
        <time>2000-01-01T12:38:48.000Z</time>
      </trkpt>
      <trkpt lat="45.97829" lon="7.72295">
        <ele>2700</ele>
        <time>2000-01-01T12:38:58.000Z</time>
      </trkpt>
      <trkpt lat="45.97815" lon="7.72306">
        <ele>2699.3</ele>
        <time>2000-01-01T12:39:08.000Z</time>
      </trkpt>
      <trkpt lat="45.978" lon="7.72304">
        <ele>2704</ele>
        <time>2000-01-01T12:39:18.000Z</time>
      </trkpt>
      <trkpt lat="45.97792" lon="7.72317">
        <ele>2704.2</ele>
        <time>2000-01-01T12:39:28.000Z</time>
      </trkpt>
      <trkpt lat="45.97783" lon="7.72328">
        <ele>2706</ele>
        <time>2000-01-01T12:39:38.000Z</time>
      </trkpt>
      <trkpt lat="45.97775" lon="7.72341">
        <ele>2704.7</ele>
        <time>2000-01-01T12:39:48.000Z</time>
      </trkpt>
      <trkpt lat="45.97772" lon="7.72359">
        <ele>2706</ele>
        <time>2000-01-01T12:39:58.000Z</time>
      </trkpt>
      <trkpt lat="45.97764" lon="7.72373">
        <ele>2705.6</ele>
        <time>2000-01-01T12:40:08.000Z</time>
      </trkpt>
      <trkpt lat="45.97757" lon="7.72386">
        <ele>2708</ele>
        <time>2000-01-01T12:40:18.000Z</time>
      </trkpt>
      <trkpt lat="45.97736" lon="7.72372">
        <ele>2711</ele>
        <time>2000-01-01T12:40:28.000Z</time>
      </trkpt>
      <trkpt lat="45.97721" lon="7.7238">
        <ele>2717.9</ele>
        <time>2000-01-01T12:40:38.000Z</time>
      </trkpt>
      <trkpt lat="45.97708" lon="7.72377">
        <ele>2721</ele>
        <time>2000-01-01T12:40:48.000Z</time>
      </trkpt>
      <trkpt lat="45.97694" lon="7.72402">
        <ele>2722</ele>
        <time>2000-01-01T12:40:58.000Z</time>
      </trkpt>
      <trkpt lat="45.97685" lon="7.72412">
        <ele>2720.4</ele>
        <time>2000-01-01T12:41:08.000Z</time>
      </trkpt>
      <trkpt lat="45.97675" lon="7.72411">
        <ele>2722</ele>
        <time>2000-01-01T12:41:18.000Z</time>
      </trkpt>
      <trkpt lat="45.97665" lon="7.72405">
        <ele>2719.8</ele>
        <time>2000-01-01T12:41:28.000Z</time>
      </trkpt>
      <trkpt lat="45.97652" lon="7.72408">
        <ele>2731</ele>
        <time>2000-01-01T12:41:38.000Z</time>
      </trkpt>
      <trkpt lat="45.97642" lon="7.72418">
        <ele>2721.5</ele>
        <time>2000-01-01T12:41:48.000Z</time>
      </trkpt>
      <trkpt lat="45.97631" lon="7.72419">
        <ele>2733</ele>
        <time>2000-01-01T12:41:58.000Z</time>
      </trkpt>
      <trkpt lat="45.97619" lon="7.72422">
        <ele>2725.6</ele>
        <time>2000-01-01T12:42:08.000Z</time>
      </trkpt>
      <trkpt lat="45.97607" lon="7.72423">
        <ele>2739</ele>
        <time>2000-01-01T12:42:18.000Z</time>
      </trkpt>
      <trkpt lat="45.97595" lon="7.72422">
        <ele>2732.2</ele>
        <time>2000-01-01T12:42:28.000Z</time>
      </trkpt>
      <trkpt lat="45.97582" lon="7.72426">
        <ele>2746</ele>
        <time>2000-01-01T12:42:38.000Z</time>
      </trkpt>
      <trkpt lat="45.97565" lon="7.72428">
        <ele>2740.6</ele>
        <time>2000-01-01T12:42:48.000Z</time>
      </trkpt>
      <trkpt lat="45.97554" lon="7.72426">
        <ele>2748</ele>
        <time>2000-01-01T12:42:58.000Z</time>
      </trkpt>
      <trkpt lat="45.97541" lon="7.72428">
        <ele>2745.3</ele>
        <time>2000-01-01T12:43:08.000Z</time>
      </trkpt>
      <trkpt lat="45.97528" lon="7.72419">
        <ele>2755</ele>
        <time>2000-01-01T12:43:18.000Z</time>
      </trkpt>
      <trkpt lat="45.97514" lon="7.7241">
        <ele>2750.8</ele>
        <time>2000-01-01T12:43:28.000Z</time>
      </trkpt>
      <trkpt lat="45.97504" lon="7.724">
        <ele>2759</ele>
        <time>2000-01-01T12:43:38.000Z</time>
      </trkpt>
      <trkpt lat="45.97477" lon="7.72408">
        <ele>2761</ele>
        <time>2000-01-01T12:43:48.000Z</time>
      </trkpt>
      <trkpt lat="45.97465" lon="7.72416">
        <ele>2758.6</ele>
        <time>2000-01-01T12:43:58.000Z</time>
      </trkpt>
      <trkpt lat="45.97456" lon="7.72429">
        <ele>2760</ele>
        <time>2000-01-01T12:44:08.000Z</time>
      </trkpt>
      <trkpt lat="45.9745" lon="7.72451">
        <ele>2762.5</ele>
        <time>2000-01-01T12:44:18.000Z</time>
      </trkpt>
      <trkpt lat="45.9745" lon="7.72467">
        <ele>2760</ele>
        <time>2000-01-01T12:44:28.000Z</time>
      </trkpt>
      <trkpt lat="45.97457" lon="7.72476">
        <ele>2765.4</ele>
        <time>2000-01-01T12:44:38.000Z</time>
      </trkpt>
      <trkpt lat="45.9745" lon="7.7249">
        <ele>2765</ele>
        <time>2000-01-01T12:44:48.000Z</time>
      </trkpt>
      <trkpt lat="45.97448" lon="7.72504">
        <ele>2772.4</ele>
        <time>2000-01-01T12:44:58.000Z</time>
      </trkpt>
      <trkpt lat="45.97447" lon="7.72523">
        <ele>2773</ele>
        <time>2000-01-01T12:45:08.000Z</time>
      </trkpt>
      <trkpt lat="45.97455" lon="7.7254">
        <ele>2776.5</ele>
        <time>2000-01-01T12:45:18.000Z</time>
      </trkpt>
      <trkpt lat="45.97449" lon="7.72555">
        <ele>2775</ele>
        <time>2000-01-01T12:45:28.000Z</time>
      </trkpt>
      <trkpt lat="45.97448" lon="7.72568">
        <ele>2776.6</ele>
        <time>2000-01-01T12:45:38.000Z</time>
      </trkpt>
      <trkpt lat="45.97446" lon="7.72588">
        <ele>2775</ele>
        <time>2000-01-01T12:45:48.000Z</time>
      </trkpt>
      <trkpt lat="45.97441" lon="7.72611">
        <ele>2775.8</ele>
        <time>2000-01-01T12:45:58.000Z</time>
      </trkpt>
      <trkpt lat="45.97444" lon="7.72628">
        <ele>2776</ele>
        <time>2000-01-01T12:46:08.000Z</time>
      </trkpt>
      <trkpt lat="45.97436" lon="7.72637">
        <ele>2779.6</ele>
        <time>2000-01-01T12:46:18.000Z</time>
      </trkpt>
      <trkpt lat="45.97425" lon="7.72642">
        <ele>2780</ele>
        <time>2000-01-01T12:46:28.000Z</time>
      </trkpt>
      <trkpt lat="45.97411" lon="7.7264">
        <ele>2785.7</ele>
        <time>2000-01-01T12:46:38.000Z</time>
      </trkpt>
      <trkpt lat="45.97399" lon="7.72642">
        <ele>2788</ele>
        <time>2000-01-01T12:46:48.000Z</time>
      </trkpt>
      <trkpt lat="45.97388" lon="7.72642">
        <ele>2792.1</ele>
        <time>2000-01-01T12:46:58.000Z</time>
      </trkpt>
      <trkpt lat="45.97386" lon="7.72662">
        <ele>2794</ele>
        <time>2000-01-01T12:47:08.000Z</time>
      </trkpt>
      <trkpt lat="45.97375" lon="7.72665">
        <ele>2801.6</ele>
        <time>2000-01-01T12:47:18.000Z</time>
      </trkpt>
      <trkpt lat="45.97373" lon="7.72678">
        <ele>2798</ele>
        <time>2000-01-01T12:47:28.000Z</time>
      </trkpt>
      <trkpt lat="45.97369" lon="7.72692">
        <ele>2805.1</ele>
        <time>2000-01-01T12:47:38.000Z</time>
      </trkpt>
      <trkpt lat="45.9736" lon="7.72694">
        <ele>2805</ele>
        <time>2000-01-01T12:47:48.000Z</time>
      </trkpt>
      <trkpt lat="45.97342" lon="7.72696">
        <ele>2810.6</ele>
        <time>2000-01-01T12:47:58.000Z</time>
      </trkpt>
      <trkpt lat="45.97322" lon="7.72702">
        <ele>2812</ele>
        <time>2000-01-01T12:48:08.000Z</time>
      </trkpt>
      <trkpt lat="45.97313" lon="7.7271">
        <ele>2818</ele>
        <time>2000-01-01T12:48:18.000Z</time>
      </trkpt>
      <trkpt lat="45.973" lon="7.72712">
        <ele>2817</ele>
        <time>2000-01-01T12:48:28.000Z</time>
      </trkpt>
      <trkpt lat="45.9729" lon="7.72712">
        <ele>2825.1</ele>
        <time>2000-01-01T12:48:38.000Z</time>
      </trkpt>
      <trkpt lat="45.9728" lon="7.72718">
        <ele>2822</ele>
        <time>2000-01-01T12:48:48.000Z</time>
      </trkpt>
      <trkpt lat="45.9727" lon="7.72726">
        <ele>2833</ele>
        <time>2000-01-01T12:48:58.000Z</time>
      </trkpt>
      <trkpt lat="45.9726" lon="7.72726">
        <ele>2830</ele>
        <time>2000-01-01T12:49:08.000Z</time>
      </trkpt>
      <trkpt lat="45.97254" lon="7.72712">
        <ele>2836.7</ele>
        <time>2000-01-01T12:49:18.000Z</time>
      </trkpt>
      <trkpt lat="45.97253" lon="7.72695">
        <ele>2831</ele>
        <time>2000-01-01T12:49:28.000Z</time>
      </trkpt>
      <trkpt lat="45.97242" lon="7.72692">
        <ele>2840</ele>
        <time>2000-01-01T12:49:38.000Z</time>
      </trkpt>
      <trkpt lat="45.97232" lon="7.72686">
        <ele>2835</ele>
        <time>2000-01-01T12:49:48.000Z</time>
      </trkpt>
      <trkpt lat="45.97207" lon="7.72683">
        <ele>2843</ele>
        <time>2000-01-01T12:49:58.000Z</time>
      </trkpt>
      <trkpt lat="45.97196" lon="7.72678">
        <ele>2849.2</ele>
        <time>2000-01-01T12:50:08.000Z</time>
      </trkpt>
      <trkpt lat="45.97185" lon="7.72671">
        <ele>2846</ele>
        <time>2000-01-01T12:50:18.000Z</time>
      </trkpt>
      <trkpt lat="45.97177" lon="7.72657">
        <ele>2852.6</ele>
        <time>2000-01-01T12:50:28.000Z</time>
      </trkpt>
      <trkpt lat="45.9717" lon="7.72638">
        <ele>2850</ele>
        <time>2000-01-01T12:50:38.000Z</time>
      </trkpt>
      <trkpt lat="45.97155" lon="7.72632">
        <ele>2856</ele>
        <time>2000-01-01T12:50:48.000Z</time>
      </trkpt>
      <trkpt lat="45.97146" lon="7.72633">
        <ele>2857</ele>
        <time>2000-01-01T12:50:58.000Z</time>
      </trkpt>
      <trkpt lat="45.97136" lon="7.7263">
        <ele>2861.9</ele>
        <time>2000-01-01T12:51:08.000Z</time>
      </trkpt>
      <trkpt lat="45.97127" lon="7.72637">
        <ele>2863</ele>
        <time>2000-01-01T12:51:18.000Z</time>
      </trkpt>
      <trkpt lat="45.97112" lon="7.72645">
        <ele>2865.2</ele>
        <time>2000-01-01T12:51:28.000Z</time>
      </trkpt>
      <trkpt lat="45.97099" lon="7.72648">
        <ele>2866</ele>
        <time>2000-01-01T12:51:38.000Z</time>
      </trkpt>
      <trkpt lat="45.9709" lon="7.72647">
        <ele>2866.6</ele>
        <time>2000-01-01T12:51:48.000Z</time>
      </trkpt>
      <trkpt lat="45.97078" lon="7.72642">
        <ele>2868</ele>
        <time>2000-01-01T12:51:58.000Z</time>
      </trkpt>
      <trkpt lat="45.97063" lon="7.72639">
        <ele>2869.4</ele>
        <time>2000-01-01T12:52:08.000Z</time>
      </trkpt>
      <trkpt lat="45.97051" lon="7.72634">
        <ele>2870</ele>
        <time>2000-01-01T12:52:18.000Z</time>
      </trkpt>
      <trkpt lat="45.97039" lon="7.72639">
        <ele>2874.1</ele>
        <time>2000-01-01T12:52:28.000Z</time>
      </trkpt>
      <trkpt lat="45.97027" lon="7.72638">
        <ele>2875</ele>
        <time>2000-01-01T12:52:38.000Z</time>
      </trkpt>
      <trkpt lat="45.97017" lon="7.72641">
        <ele>2881</ele>
        <time>2000-01-01T12:52:48.000Z</time>
      </trkpt>
      <trkpt lat="45.9701" lon="7.72656">
        <ele>2884</ele>
        <time>2000-01-01T12:52:58.000Z</time>
      </trkpt>
      <trkpt lat="45.96999" lon="7.72662">
        <ele>2889.9</ele>
        <time>2000-01-01T12:53:08.000Z</time>
      </trkpt>
      <trkpt lat="45.9699" lon="7.72662">
        <ele>2887</ele>
        <time>2000-01-01T12:53:18.000Z</time>
      </trkpt>
      <trkpt lat="45.96976" lon="7.72677">
        <ele>2893.6</ele>
        <time>2000-01-01T12:53:28.000Z</time>
      </trkpt>
      <trkpt lat="45.96967" lon="7.72673">
        <ele>2895</ele>
        <time>2000-01-01T12:53:38.000Z</time>
      </trkpt>
      <trkpt lat="45.96945" lon="7.72656">
        <ele>2901</ele>
        <time>2000-01-01T12:53:48.000Z</time>
      </trkpt>
      <trkpt lat="45.96941" lon="7.72637">
        <ele>2903.3</ele>
        <time>2000-01-01T12:53:58.000Z</time>
      </trkpt>
      <trkpt lat="45.9694" lon="7.72623">
        <ele>2904</ele>
        <time>2000-01-01T12:54:08.000Z</time>
      </trkpt>
      <trkpt lat="45.96928" lon="7.72623">
        <ele>2907.9</ele>
        <time>2000-01-01T12:54:18.000Z</time>
      </trkpt>
      <trkpt lat="45.96921" lon="7.72635">
        <ele>2908</ele>
        <time>2000-01-01T12:54:28.000Z</time>
      </trkpt>
      <trkpt lat="45.96914" lon="7.72651">
        <ele>2912.3</ele>
        <time>2000-01-01T12:54:38.000Z</time>
      </trkpt>
      <trkpt lat="45.96896" lon="7.72629">
        <ele>2918</ele>
        <time>2000-01-01T12:54:48.000Z</time>
      </trkpt>
      <trkpt lat="45.96889" lon="7.72619">
        <ele>2921.8</ele>
        <time>2000-01-01T12:54:58.000Z</time>
      </trkpt>
      <trkpt lat="45.9688" lon="7.72609">
        <ele>2923</ele>
        <time>2000-01-01T12:55:08.000Z</time>
      </trkpt>
      <trkpt lat="45.96869" lon="7.72596">
        <ele>2928.6</ele>
        <time>2000-01-01T12:55:18.000Z</time>
      </trkpt>
      <trkpt lat="45.96857" lon="7.72586">
        <ele>2925</ele>
        <time>2000-01-01T12:55:28.000Z</time>
      </trkpt>
      <trkpt lat="45.9685" lon="7.72575">
        <ele>2929.9</ele>
        <time>2000-01-01T12:55:38.000Z</time>
      </trkpt>
      <trkpt lat="45.96815" lon="7.72558">
        <ele>2930</ele>
        <time>2000-01-01T12:55:48.000Z</time>
      </trkpt>
      <trkpt lat="45.96803" lon="7.72557">
        <ele>2933.4</ele>
        <time>2000-01-01T12:55:58.000Z</time>
      </trkpt>
      <trkpt lat="45.96797" lon="7.72547">
        <ele>2935</ele>
        <time>2000-01-01T12:56:08.000Z</time>
      </trkpt>
      <trkpt lat="45.9679" lon="7.72537">
        <ele>2935.9</ele>
        <time>2000-01-01T12:56:18.000Z</time>
      </trkpt>
      <trkpt lat="45.96781" lon="7.7252">
        <ele>2939</ele>
        <time>2000-01-01T12:56:28.000Z</time>
      </trkpt>
      <trkpt lat="45.96769" lon="7.72526">
        <ele>2942.8</ele>
        <time>2000-01-01T12:56:38.000Z</time>
      </trkpt>
      <trkpt lat="45.96762" lon="7.72532">
        <ele>2945</ele>
        <time>2000-01-01T12:56:48.000Z</time>
      </trkpt>
      <trkpt lat="45.96751" lon="7.72543">
        <ele>2948.5</ele>
        <time>2000-01-01T12:56:58.000Z</time>
      </trkpt>
      <trkpt lat="45.96741" lon="7.72556">
        <ele>2950</ele>
        <time>2000-01-01T12:57:08.000Z</time>
      </trkpt>
      <trkpt lat="45.9673" lon="7.72558">
        <ele>2954.4</ele>
        <time>2000-01-01T12:57:18.000Z</time>
      </trkpt>
      <trkpt lat="45.96719" lon="7.72564">
        <ele>2960</ele>
        <time>2000-01-01T12:57:28.000Z</time>
      </trkpt>
      <trkpt lat="45.96704" lon="7.72577">
        <ele>2957.6</ele>
        <time>2000-01-01T12:57:38.000Z</time>
      </trkpt>
      <trkpt lat="45.96695" lon="7.72575">
        <ele>2965</ele>
        <time>2000-01-01T12:57:48.000Z</time>
      </trkpt>
      <trkpt lat="45.96683" lon="7.72579">
        <ele>2967.3</ele>
        <time>2000-01-01T12:57:58.000Z</time>
      </trkpt>
      <trkpt lat="45.9667" lon="7.72573">
        <ele>2980</ele>
        <time>2000-01-01T12:58:08.000Z</time>
      </trkpt>
      <trkpt lat="45.96656" lon="7.72572">
        <ele>2981.1</ele>
        <time>2000-01-01T12:58:18.000Z</time>
      </trkpt>
      <trkpt lat="45.9664" lon="7.72574">
        <ele>2986</ele>
        <time>2000-01-01T12:58:28.000Z</time>
      </trkpt>
      <trkpt lat="45.96628" lon="7.72581">
        <ele>2983.7</ele>
        <time>2000-01-01T12:58:38.000Z</time>
      </trkpt>
      <trkpt lat="45.96616" lon="7.72583">
        <ele>2990</ele>
        <time>2000-01-01T12:58:48.000Z</time>
      </trkpt>
      <trkpt lat="45.96606" lon="7.72579">
        <ele>2988.2</ele>
        <time>2000-01-01T12:58:58.000Z</time>
      </trkpt>
      <trkpt lat="45.96595" lon="7.72578">
        <ele>2996</ele>
        <time>2000-01-01T12:59:08.000Z</time>
      </trkpt>
      <trkpt lat="45.96584" lon="7.72586">
        <ele>2991.1</ele>
        <time>2000-01-01T12:59:18.000Z</time>
      </trkpt>
      <trkpt lat="45.96572" lon="7.72585">
        <ele>2997</ele>
        <time>2000-01-01T12:59:28.000Z</time>
      </trkpt>
      <trkpt lat="45.96558" lon="7.72592">
        <ele>2995.9</ele>
        <time>2000-01-01T12:59:38.000Z</time>
      </trkpt>
      <trkpt lat="45.96549" lon="7.7259">
        <ele>3004</ele>
        <time>2000-01-01T12:59:48.000Z</time>
      </trkpt>
      <trkpt lat="45.96539" lon="7.72589">
        <ele>2999.8</ele>
        <time>2000-01-01T12:59:58.000Z</time>
      </trkpt>
      <trkpt lat="45.96528" lon="7.72586">
        <ele>3007</ele>
        <time>2000-01-01T13:00:08.000Z</time>
      </trkpt>
      <trkpt lat="45.96519" lon="7.72582">
        <ele>3003.8</ele>
        <time>2000-01-01T13:00:18.000Z</time>
      </trkpt>
      <trkpt lat="45.96507" lon="7.72572">
        <ele>3013</ele>
        <time>2000-01-01T13:00:28.000Z</time>
      </trkpt>
      <trkpt lat="45.96493" lon="7.72567">
        <ele>3011.8</ele>
        <time>2000-01-01T13:00:38.000Z</time>
      </trkpt>
      <trkpt lat="45.96486" lon="7.72556">
        <ele>3021</ele>
        <time>2000-01-01T13:00:48.000Z</time>
      </trkpt>
      <trkpt lat="45.96461" lon="7.72551">
        <ele>3022</ele>
        <time>2000-01-01T13:00:58.000Z</time>
      </trkpt>
      <trkpt lat="45.96451" lon="7.72537">
        <ele>3023.1</ele>
        <time>2000-01-01T13:01:08.000Z</time>
      </trkpt>
      <trkpt lat="45.9644" lon="7.72538">
        <ele>3026</ele>
        <time>2000-01-01T13:01:18.000Z</time>
      </trkpt>
      <trkpt lat="45.96431" lon="7.72543">
        <ele>3024.9</ele>
        <time>2000-01-01T13:01:28.000Z</time>
      </trkpt>
      <trkpt lat="45.96417" lon="7.72524">
        <ele>3029</ele>
        <time>2000-01-01T13:01:38.000Z</time>
      </trkpt>
      <trkpt lat="45.96407" lon="7.72537">
        <ele>3025.3</ele>
        <time>2000-01-01T13:01:48.000Z</time>
      </trkpt>
      <trkpt lat="45.96405" lon="7.72525">
        <ele>3030</ele>
        <time>2000-01-01T13:01:58.000Z</time>
      </trkpt>
      <trkpt lat="45.96405" lon="7.7251">
        <ele>3029.1</ele>
        <time>2000-01-01T13:02:08.000Z</time>
      </trkpt>
      <trkpt lat="45.96397" lon="7.72503">
        <ele>3033</ele>
        <time>2000-01-01T13:02:18.000Z</time>
      </trkpt>
      <trkpt lat="45.96384" lon="7.72491">
        <ele>3033</ele>
        <time>2000-01-01T13:02:28.000Z</time>
      </trkpt>
      <trkpt lat="45.96372" lon="7.72483">
        <ele>3038</ele>
        <time>2000-01-01T13:02:38.000Z</time>
      </trkpt>
      <trkpt lat="45.96365" lon="7.72471">
        <ele>3036.9</ele>
        <time>2000-01-01T13:02:48.000Z</time>
      </trkpt>
      <trkpt lat="45.96359" lon="7.72461">
        <ele>3042</ele>
        <time>2000-01-01T13:02:58.000Z</time>
      </trkpt>
      <trkpt lat="45.96347" lon="7.72454">
        <ele>3039.2</ele>
        <time>2000-01-01T13:03:08.000Z</time>
      </trkpt>
      <trkpt lat="45.96344" lon="7.72439">
        <ele>3044</ele>
        <time>2000-01-01T13:03:18.000Z</time>
      </trkpt>
      <trkpt lat="45.96337" lon="7.72414">
        <ele>3043.2</ele>
        <time>2000-01-01T13:03:28.000Z</time>
      </trkpt>
      <trkpt lat="45.96319" lon="7.72397">
        <ele>3053</ele>
        <time>2000-01-01T13:03:38.000Z</time>
      </trkpt>
      <trkpt lat="45.96307" lon="7.72393">
        <ele>3047.9</ele>
        <time>2000-01-01T13:03:48.000Z</time>
      </trkpt>
      <trkpt lat="45.9629" lon="7.72377">
        <ele>3056</ele>
        <time>2000-01-01T13:03:58.000Z</time>
      </trkpt>
      <trkpt lat="45.96279" lon="7.72371">
        <ele>3055.5</ele>
        <time>2000-01-01T13:04:08.000Z</time>
      </trkpt>
      <trkpt lat="45.96255" lon="7.72333">
        <ele>3058</ele>
        <time>2000-01-01T13:04:18.000Z</time>
      </trkpt>
      <trkpt lat="45.96249" lon="7.72322">
        <ele>3058.4</ele>
        <time>2000-01-01T13:04:28.000Z</time>
      </trkpt>
      <trkpt lat="45.96239" lon="7.72311">
        <ele>3058</ele>
        <time>2000-01-01T13:04:38.000Z</time>
      </trkpt>
      <trkpt lat="45.96228" lon="7.72308">
        <ele>3060.9</ele>
        <time>2000-01-01T13:04:48.000Z</time>
      </trkpt>
      <trkpt lat="45.96215" lon="7.72297">
        <ele>3059</ele>
        <time>2000-01-01T13:04:58.000Z</time>
      </trkpt>
      <trkpt lat="45.96198" lon="7.72288">
        <ele>3063.9</ele>
        <time>2000-01-01T13:05:08.000Z</time>
      </trkpt>
      <trkpt lat="45.96182" lon="7.72275">
        <ele>3059</ele>
        <time>2000-01-01T13:05:18.000Z</time>
      </trkpt>
      <trkpt lat="45.96157" lon="7.72251">
        <ele>3058</ele>
        <time>2000-01-01T13:05:28.000Z</time>
      </trkpt>
      <trkpt lat="45.96149" lon="7.7224">
        <ele>3055.6</ele>
        <time>2000-01-01T13:05:38.000Z</time>
      </trkpt>
      <trkpt lat="45.96138" lon="7.72225">
        <ele>3057</ele>
        <time>2000-01-01T13:05:48.000Z</time>
      </trkpt>
      <trkpt lat="45.96126" lon="7.7222">
        <ele>3059.1</ele>
        <time>2000-01-01T13:05:58.000Z</time>
      </trkpt>
      <trkpt lat="45.9611" lon="7.72219">
        <ele>3057</ele>
        <time>2000-01-01T13:06:08.000Z</time>
      </trkpt>
      <trkpt lat="45.961" lon="7.72217">
        <ele>3061</ele>
        <time>2000-01-01T13:06:18.000Z</time>
      </trkpt>
      <trkpt lat="45.96086" lon="7.7221">
        <ele>3060</ele>
        <time>2000-01-01T13:06:28.000Z</time>
      </trkpt>
      <trkpt lat="45.96074" lon="7.72199">
        <ele>3065.2</ele>
        <time>2000-01-01T13:06:38.000Z</time>
      </trkpt>
      <trkpt lat="45.96063" lon="7.72192">
        <ele>3062</ele>
        <time>2000-01-01T13:06:48.000Z</time>
      </trkpt>
      <trkpt lat="45.96053" lon="7.72176">
        <ele>3067.1</ele>
        <time>2000-01-01T13:06:58.000Z</time>
      </trkpt>
      <trkpt lat="45.96049" lon="7.72164">
        <ele>3060</ele>
        <time>2000-01-01T13:07:08.000Z</time>
      </trkpt>
      <trkpt lat="45.9604" lon="7.72155">
        <ele>3066.7</ele>
        <time>2000-01-01T13:07:18.000Z</time>
      </trkpt>
      <trkpt lat="45.96034" lon="7.72138">
        <ele>3060</ele>
        <time>2000-01-01T13:07:28.000Z</time>
      </trkpt>
      <trkpt lat="45.96023" lon="7.7213">
        <ele>3067.4</ele>
        <time>2000-01-01T13:07:38.000Z</time>
      </trkpt>
      <trkpt lat="45.9601" lon="7.72103">
        <ele>3061</ele>
        <time>2000-01-01T13:07:48.000Z</time>
      </trkpt>
      <trkpt lat="45.96001" lon="7.72096">
        <ele>3070.5</ele>
        <time>2000-01-01T13:07:58.000Z</time>
      </trkpt>
      <trkpt lat="45.95992" lon="7.72087">
        <ele>3065</ele>
        <time>2000-01-01T13:08:08.000Z</time>
      </trkpt>
      <trkpt lat="45.95981" lon="7.72069">
        <ele>3075.1</ele>
        <time>2000-01-01T13:08:18.000Z</time>
      </trkpt>
      <trkpt lat="45.95977" lon="7.72041">
        <ele>3069</ele>
        <time>2000-01-01T13:08:28.000Z</time>
      </trkpt>
      <trkpt lat="45.95972" lon="7.72026">
        <ele>3073.1</ele>
        <time>2000-01-01T13:08:38.000Z</time>
      </trkpt>
      <trkpt lat="45.95969" lon="7.72008">
        <ele>3071</ele>
        <time>2000-01-01T13:08:48.000Z</time>
      </trkpt>
      <trkpt lat="45.95965" lon="7.71991">
        <ele>3076.2</ele>
        <time>2000-01-01T13:08:58.000Z</time>
      </trkpt>
      <trkpt lat="45.95957" lon="7.71975">
        <ele>3074</ele>
        <time>2000-01-01T13:09:08.000Z</time>
      </trkpt>
      <trkpt lat="45.95948" lon="7.71961">
        <ele>3080.9</ele>
        <time>2000-01-01T13:09:18.000Z</time>
      </trkpt>
      <trkpt lat="45.95942" lon="7.71944">
        <ele>3076</ele>
        <time>2000-01-01T13:09:28.000Z</time>
      </trkpt>
      <trkpt lat="45.95938" lon="7.7193">
        <ele>3079.6</ele>
        <time>2000-01-01T13:09:38.000Z</time>
      </trkpt>
      <trkpt lat="45.95934" lon="7.71909">
        <ele>3080</ele>
        <time>2000-01-01T13:09:48.000Z</time>
      </trkpt>
      <trkpt lat="45.95929" lon="7.71898">
        <ele>3075.6</ele>
        <time>2000-01-01T13:09:58.000Z</time>
      </trkpt>
      <trkpt lat="45.9592" lon="7.71888">
        <ele>3085</ele>
        <time>2000-01-01T13:10:08.000Z</time>
      </trkpt>
      <trkpt lat="45.95908" lon="7.71882">
        <ele>3073.6</ele>
        <time>2000-01-01T13:10:18.000Z</time>
      </trkpt>
      <trkpt lat="45.95916" lon="7.71868">
        <ele>3087</ele>
        <time>2000-01-01T13:10:28.000Z</time>
      </trkpt>
      <trkpt lat="45.95912" lon="7.71849">
        <ele>3063.8</ele>
        <time>2000-01-01T13:10:38.000Z</time>
      </trkpt>
      <trkpt lat="45.95901" lon="7.71838">
        <ele>3089</ele>
        <time>2000-01-01T13:10:48.000Z</time>
      </trkpt>
      <trkpt lat="45.95889" lon="7.71829">
        <ele>3068</ele>
        <time>2000-01-01T13:10:58.000Z</time>
      </trkpt>
      <trkpt lat="45.95869" lon="7.71812">
        <ele>3100</ele>
        <time>2000-01-01T13:11:08.000Z</time>
      </trkpt>
      <trkpt lat="45.95862" lon="7.71802">
        <ele>3074.1</ele>
        <time>2000-01-01T13:11:18.000Z</time>
      </trkpt>
      <trkpt lat="45.95836" lon="7.71777">
        <ele>3101</ele>
        <time>2000-01-01T13:11:28.000Z</time>
      </trkpt>
      <trkpt lat="45.95809" lon="7.7176">
        <ele>3109</ele>
        <time>2000-01-01T13:11:38.000Z</time>
      </trkpt>
      <trkpt lat="45.95781" lon="7.71729">
        <ele>3112</ele>
        <time>2000-01-01T13:11:48.000Z</time>
      </trkpt>
      <trkpt lat="45.95765" lon="7.71715">
        <ele>3096.6</ele>
        <time>2000-01-01T13:11:58.000Z</time>
      </trkpt>
      <trkpt lat="45.95755" lon="7.71709">
        <ele>3120</ele>
        <time>2000-01-01T13:12:08.000Z</time>
      </trkpt>
      <trkpt lat="45.95739" lon="7.71695">
        <ele>3101.6</ele>
        <time>2000-01-01T13:12:18.000Z</time>
      </trkpt>
      <trkpt lat="45.95732" lon="7.71687">
        <ele>3123</ele>
        <time>2000-01-01T13:12:28.000Z</time>
      </trkpt>
      <trkpt lat="45.9572" lon="7.71672">
        <ele>3105.1</ele>
        <time>2000-01-01T13:12:38.000Z</time>
      </trkpt>
      <trkpt lat="45.95709" lon="7.71662">
        <ele>3128</ele>
        <time>2000-01-01T13:12:48.000Z</time>
      </trkpt>
      <trkpt lat="45.95697" lon="7.71648">
        <ele>3108.7</ele>
        <time>2000-01-01T13:12:58.000Z</time>
      </trkpt>
      <trkpt lat="45.95689" lon="7.71636">
        <ele>3132</ele>
        <time>2000-01-01T13:13:08.000Z</time>
      </trkpt>
      <trkpt lat="45.95663" lon="7.71608">
        <ele>3136</ele>
        <time>2000-01-01T13:13:18.000Z</time>
      </trkpt>
      <trkpt lat="45.9565" lon="7.71597">
        <ele>3116</ele>
        <time>2000-01-01T13:13:28.000Z</time>
      </trkpt>
      <trkpt lat="45.95642" lon="7.71588">
        <ele>3138</ele>
        <time>2000-01-01T13:13:38.000Z</time>
      </trkpt>
      <trkpt lat="45.95632" lon="7.71584">
        <ele>3118.4</ele>
        <time>2000-01-01T13:13:48.000Z</time>
      </trkpt>
      <trkpt lat="45.95616" lon="7.71582">
        <ele>3140</ele>
        <time>2000-01-01T13:13:58.000Z</time>
      </trkpt>
      <trkpt lat="45.95607" lon="7.71578">
        <ele>3120.8</ele>
        <time>2000-01-01T13:14:08.000Z</time>
      </trkpt>
      <trkpt lat="45.95597" lon="7.71577">
        <ele>3143</ele>
        <time>2000-01-01T13:14:18.000Z</time>
      </trkpt>
      <trkpt lat="45.95584" lon="7.71577">
        <ele>3123.2</ele>
        <time>2000-01-01T13:14:28.000Z</time>
      </trkpt>
      <trkpt lat="45.95569" lon="7.71572">
        <ele>3146</ele>
        <time>2000-01-01T13:14:38.000Z</time>
      </trkpt>
      <trkpt lat="45.95548" lon="7.71562">
        <ele>3148</ele>
        <time>2000-01-01T13:14:48.000Z</time>
      </trkpt>
      <trkpt lat="45.95531" lon="7.71556">
        <ele>3128.7</ele>
        <time>2000-01-01T13:14:58.000Z</time>
      </trkpt>
      <trkpt lat="45.95513" lon="7.7155">
        <ele>3151</ele>
        <time>2000-01-01T13:15:08.000Z</time>
      </trkpt>
      <trkpt lat="45.95488" lon="7.7154">
        <ele>3154</ele>
        <time>2000-01-01T13:15:18.000Z</time>
      </trkpt>
      <trkpt lat="45.95456" lon="7.71528">
        <ele>3158</ele>
        <time>2000-01-01T13:15:28.000Z</time>
      </trkpt>
      <trkpt lat="45.95437" lon="7.71525">
        <ele>3158</ele>
        <time>2000-01-01T13:15:38.000Z</time>
      </trkpt>
      <trkpt lat="45.95407" lon="7.71514">
        <ele>3161</ele>
        <time>2000-01-01T13:15:48.000Z</time>
      </trkpt>
      <trkpt lat="45.95377" lon="7.71502">
        <ele>3164</ele>
        <time>2000-01-01T13:15:58.000Z</time>
      </trkpt>
      <trkpt lat="45.95367" lon="7.71497">
        <ele>3143.5</ele>
        <time>2000-01-01T13:16:08.000Z</time>
      </trkpt>
      <trkpt lat="45.95358" lon="7.71495">
        <ele>3166</ele>
        <time>2000-01-01T13:16:18.000Z</time>
      </trkpt>
      <trkpt lat="45.95339" lon="7.71489">
        <ele>3168</ele>
        <time>2000-01-01T13:16:28.000Z</time>
      </trkpt>
      <trkpt lat="45.95323" lon="7.71481">
        <ele>3148.1</ele>
        <time>2000-01-01T13:16:38.000Z</time>
      </trkpt>
      <trkpt lat="45.95313" lon="7.71474">
        <ele>3168</ele>
        <time>2000-01-01T13:16:48.000Z</time>
      </trkpt>
      <trkpt lat="45.953" lon="7.71469">
        <ele>3150.6</ele>
        <time>2000-01-01T13:16:58.000Z</time>
      </trkpt>
      <trkpt lat="45.95287" lon="7.71464">
        <ele>3171</ele>
        <time>2000-01-01T13:17:08.000Z</time>
      </trkpt>
      <trkpt lat="45.95262" lon="7.71454">
        <ele>3173</ele>
        <time>2000-01-01T13:17:18.000Z</time>
      </trkpt>
      <trkpt lat="45.95244" lon="7.71452">
        <ele>3155.9</ele>
        <time>2000-01-01T13:17:28.000Z</time>
      </trkpt>
      <trkpt lat="45.95223" lon="7.71442">
        <ele>3177</ele>
        <time>2000-01-01T13:17:38.000Z</time>
      </trkpt>
      <trkpt lat="45.95214" lon="7.71439">
        <ele>3158.8</ele>
        <time>2000-01-01T13:17:48.000Z</time>
      </trkpt>
      <trkpt lat="45.95197" lon="7.7143">
        <ele>3181</ele>
        <time>2000-01-01T13:17:58.000Z</time>
      </trkpt>
      <trkpt lat="45.95177" lon="7.71422">
        <ele>3182</ele>
        <time>2000-01-01T13:18:08.000Z</time>
      </trkpt>
      <trkpt lat="45.95151" lon="7.71414">
        <ele>3183</ele>
        <time>2000-01-01T13:18:18.000Z</time>
      </trkpt>
      <trkpt lat="45.95114" lon="7.71402">
        <ele>3183</ele>
        <time>2000-01-01T13:18:28.000Z</time>
      </trkpt>
      <trkpt lat="45.95091" lon="7.71393">
        <ele>3187</ele>
        <time>2000-01-01T13:18:38.000Z</time>
      </trkpt>
      <trkpt lat="45.95077" lon="7.71388">
        <ele>3169.4</ele>
        <time>2000-01-01T13:18:48.000Z</time>
      </trkpt>
      <trkpt lat="45.95065" lon="7.71379">
        <ele>3191</ele>
        <time>2000-01-01T13:18:58.000Z</time>
      </trkpt>
      <trkpt lat="45.95048" lon="7.71377">
        <ele>3171.4</ele>
        <time>2000-01-01T13:19:08.000Z</time>
      </trkpt>
      <trkpt lat="45.9503" lon="7.71372">
        <ele>3191</ele>
        <time>2000-01-01T13:19:18.000Z</time>
      </trkpt>
      <trkpt lat="45.95011" lon="7.71363">
        <ele>3191</ele>
        <time>2000-01-01T13:19:28.000Z</time>
      </trkpt>
      <trkpt lat="45.94986" lon="7.71357">
        <ele>3195</ele>
        <time>2000-01-01T13:19:38.000Z</time>
      </trkpt>
      <trkpt lat="45.94965" lon="7.71349">
        <ele>3198</ele>
        <time>2000-01-01T13:19:48.000Z</time>
      </trkpt>
      <trkpt lat="45.94953" lon="7.71345">
        <ele>3178.5</ele>
        <time>2000-01-01T13:19:58.000Z</time>
      </trkpt>
      <trkpt lat="45.94941" lon="7.71339">
        <ele>3198</ele>
        <time>2000-01-01T13:20:08.000Z</time>
      </trkpt>
      <trkpt lat="45.94926" lon="7.71334">
        <ele>3181</ele>
        <time>2000-01-01T13:20:18.000Z</time>
      </trkpt>
      <trkpt lat="45.9491" lon="7.71327">
        <ele>3200</ele>
        <time>2000-01-01T13:20:28.000Z</time>
      </trkpt>
      <trkpt lat="45.94886" lon="7.71319">
        <ele>3203</ele>
        <time>2000-01-01T13:20:38.000Z</time>
      </trkpt>
      <trkpt lat="45.9486" lon="7.7131">
        <ele>3205</ele>
        <time>2000-01-01T13:20:48.000Z</time>
      </trkpt>
      <trkpt lat="45.94823" lon="7.713">
        <ele>3209</ele>
        <time>2000-01-01T13:20:58.000Z</time>
      </trkpt>
      <trkpt lat="45.94809" lon="7.71293">
        <ele>3195.5</ele>
        <time>2000-01-01T13:21:08.000Z</time>
      </trkpt>
      <trkpt lat="45.94797" lon="7.71289">
        <ele>3215</ele>
        <time>2000-01-01T13:21:18.000Z</time>
      </trkpt>
      <trkpt lat="45.94783" lon="7.71283">
        <ele>3198.6</ele>
        <time>2000-01-01T13:21:28.000Z</time>
      </trkpt>
      <trkpt lat="45.94769" lon="7.71277">
        <ele>3216</ele>
        <time>2000-01-01T13:21:38.000Z</time>
      </trkpt>
      <trkpt lat="45.94754" lon="7.7127">
        <ele>3202.2</ele>
        <time>2000-01-01T13:21:48.000Z</time>
      </trkpt>
      <trkpt lat="45.94731" lon="7.71261">
        <ele>3222</ele>
        <time>2000-01-01T13:21:58.000Z</time>
      </trkpt>
      <trkpt lat="45.9472" lon="7.71259">
        <ele>3206.2</ele>
        <time>2000-01-01T13:22:08.000Z</time>
      </trkpt>
      <trkpt lat="45.94704" lon="7.71251">
        <ele>3226</ele>
        <time>2000-01-01T13:22:18.000Z</time>
      </trkpt>
      <trkpt lat="45.94691" lon="7.71249">
        <ele>3209.4</ele>
        <time>2000-01-01T13:22:28.000Z</time>
      </trkpt>
      <trkpt lat="45.94678" lon="7.71244">
        <ele>3228</ele>
        <time>2000-01-01T13:22:38.000Z</time>
      </trkpt>
      <trkpt lat="45.94661" lon="7.71236">
        <ele>3212.5</ele>
        <time>2000-01-01T13:22:48.000Z</time>
      </trkpt>
      <trkpt lat="45.94644" lon="7.71225">
        <ele>3232</ele>
        <time>2000-01-01T13:22:58.000Z</time>
      </trkpt>
      <trkpt lat="45.94632" lon="7.71208">
        <ele>3214.7</ele>
        <time>2000-01-01T13:23:08.000Z</time>
      </trkpt>
      <trkpt lat="45.94623" lon="7.71197">
        <ele>3234</ele>
        <time>2000-01-01T13:23:18.000Z</time>
      </trkpt>
      <trkpt lat="45.94609" lon="7.71189">
        <ele>3217</ele>
        <time>2000-01-01T13:23:28.000Z</time>
      </trkpt>
      <trkpt lat="45.94585" lon="7.71173">
        <ele>3237</ele>
        <time>2000-01-01T13:23:38.000Z</time>
      </trkpt>
      <trkpt lat="45.94576" lon="7.7117">
        <ele>3220.5</ele>
        <time>2000-01-01T13:23:48.000Z</time>
      </trkpt>
      <trkpt lat="45.94566" lon="7.71163">
        <ele>3237</ele>
        <time>2000-01-01T13:23:58.000Z</time>
      </trkpt>
      <trkpt lat="45.94555" lon="7.71155">
        <ele>3221.6</ele>
        <time>2000-01-01T13:24:08.000Z</time>
      </trkpt>
      <trkpt lat="45.94525" lon="7.71123">
        <ele>3243</ele>
        <time>2000-01-01T13:24:18.000Z</time>
      </trkpt>
      <trkpt lat="45.94518" lon="7.71111">
        <ele>3224.1</ele>
        <time>2000-01-01T13:24:28.000Z</time>
      </trkpt>
      <trkpt lat="45.9451" lon="7.71098">
        <ele>3245</ele>
        <time>2000-01-01T13:24:38.000Z</time>
      </trkpt>
      <trkpt lat="45.94499" lon="7.71081">
        <ele>3226.2</ele>
        <time>2000-01-01T13:24:48.000Z</time>
      </trkpt>
      <trkpt lat="45.94491" lon="7.71074">
        <ele>3249</ele>
        <time>2000-01-01T13:24:58.000Z</time>
      </trkpt>
      <trkpt lat="45.94483" lon="7.71059">
        <ele>3228.6</ele>
        <time>2000-01-01T13:25:08.000Z</time>
      </trkpt>
      <trkpt lat="45.94474" lon="7.71047">
        <ele>3256</ele>
        <time>2000-01-01T13:25:18.000Z</time>
      </trkpt>
      <trkpt lat="45.94464" lon="7.71035">
        <ele>3233.4</ele>
        <time>2000-01-01T13:25:28.000Z</time>
      </trkpt>
      <trkpt lat="45.94454" lon="7.71028">
        <ele>3259</ele>
        <time>2000-01-01T13:25:38.000Z</time>
      </trkpt>
      <trkpt lat="45.94445" lon="7.7102">
        <ele>3238</ele>
        <time>2000-01-01T13:25:48.000Z</time>
      </trkpt>
      <trkpt lat="45.94436" lon="7.71012">
        <ele>3263</ele>
        <time>2000-01-01T13:25:58.000Z</time>
      </trkpt>
      <trkpt lat="45.94415" lon="7.70998">
        <ele>3270</ele>
        <time>2000-01-01T13:26:08.000Z</time>
      </trkpt>
      <trkpt lat="45.94403" lon="7.70984">
        <ele>3252.5</ele>
        <time>2000-01-01T13:26:18.000Z</time>
      </trkpt>
      <trkpt lat="45.94388" lon="7.70972">
        <ele>3281</ele>
        <time>2000-01-01T13:26:28.000Z</time>
      </trkpt>
      <trkpt lat="45.94374" lon="7.70931">
        <ele>3289</ele>
        <time>2000-01-01T13:26:38.000Z</time>
      </trkpt>
      <trkpt lat="45.94365" lon="7.70919">
        <ele>3274</ele>
        <time>2000-01-01T13:26:48.000Z</time>
      </trkpt>
      <trkpt lat="45.94363" lon="7.70906">
        <ele>3296</ele>
        <time>2000-01-01T13:26:58.000Z</time>
      </trkpt>
      <trkpt lat="45.94353" lon="7.70896">
        <ele>3283.7</ele>
        <time>2000-01-01T13:27:08.000Z</time>
      </trkpt>
      <trkpt lat="45.94352" lon="7.70882">
        <ele>3300</ele>
        <time>2000-01-01T13:27:18.000Z</time>
      </trkpt>
      <trkpt lat="45.94357" lon="7.70866">
        <ele>3295.6</ele>
        <time>2000-01-01T13:27:28.000Z</time>
      </trkpt>
      <trkpt lat="45.94368" lon="7.7086">
        <ele>3305</ele>
        <time>2000-01-01T13:27:38.000Z</time>
      </trkpt>
      <trkpt lat="45.94393" lon="7.70819">
        <ele>3305</ele>
        <time>2000-01-01T13:27:48.000Z</time>
      </trkpt>
      <trkpt lat="45.94409" lon="7.70818">
        <ele>3313.4</ele>
        <time>2000-01-01T13:27:58.000Z</time>
      </trkpt>
      <trkpt lat="45.9442" lon="7.70811">
        <ele>3303</ele>
        <time>2000-01-01T13:28:08.000Z</time>
      </trkpt>
      <trkpt lat="45.94427" lon="7.708">
        <ele>3310.1</ele>
        <time>2000-01-01T13:28:18.000Z</time>
      </trkpt>
      <trkpt lat="45.94434" lon="7.70783">
        <ele>3301</ele>
        <time>2000-01-01T13:28:28.000Z</time>
      </trkpt>
      <trkpt lat="45.94437" lon="7.70768">
        <ele>3299</ele>
        <time>2000-01-01T13:28:38.000Z</time>
      </trkpt>
      <trkpt lat="45.94435" lon="7.70746">
        <ele>3290</ele>
        <time>2000-01-01T13:28:48.000Z</time>
      </trkpt>
      <trkpt lat="45.94435" lon="7.7073">
        <ele>3289.4</ele>
        <time>2000-01-01T13:28:58.000Z</time>
      </trkpt>
      <trkpt lat="45.94441" lon="7.70717">
        <ele>3280</ele>
        <time>2000-01-01T13:29:08.000Z</time>
      </trkpt>
      <trkpt lat="45.94453" lon="7.70707">
        <ele>3283.1</ele>
        <time>2000-01-01T13:29:18.000Z</time>
      </trkpt>
      <trkpt lat="45.94466" lon="7.70699">
        <ele>3274</ele>
        <time>2000-01-01T13:29:28.000Z</time>
      </trkpt>
      <trkpt lat="45.94477" lon="7.70691">
        <ele>3277.7</ele>
        <time>2000-01-01T13:29:38.000Z</time>
      </trkpt>
      <trkpt lat="45.9449" lon="7.70684">
        <ele>3270</ele>
        <time>2000-01-01T13:29:48.000Z</time>
      </trkpt>
      <trkpt lat="45.94511" lon="7.70664">
        <ele>3260</ele>
        <time>2000-01-01T13:29:58.000Z</time>
      </trkpt>
      <trkpt lat="45.94522" lon="7.70653">
        <ele>3260.9</ele>
        <time>2000-01-01T13:30:08.000Z</time>
      </trkpt>
      <trkpt lat="45.94551" lon="7.7063">
        <ele>3248</ele>
        <time>2000-01-01T13:30:18.000Z</time>
      </trkpt>
      <trkpt lat="45.94571" lon="7.70611">
        <ele>3242</ele>
        <time>2000-01-01T13:30:28.000Z</time>
      </trkpt>
      <trkpt lat="45.94585" lon="7.706">
        <ele>3241.6</ele>
        <time>2000-01-01T13:30:38.000Z</time>
      </trkpt>
      <trkpt lat="45.94605" lon="7.70582">
        <ele>3233</ele>
        <time>2000-01-01T13:30:48.000Z</time>
      </trkpt>
      <trkpt lat="45.94634" lon="7.70554">
        <ele>3224</ele>
        <time>2000-01-01T13:30:58.000Z</time>
      </trkpt>
      <trkpt lat="45.94651" lon="7.70535">
        <ele>3221</ele>
        <time>2000-01-01T13:31:08.000Z</time>
      </trkpt>
      <trkpt lat="45.9466" lon="7.70524">
        <ele>3218.4</ele>
        <time>2000-01-01T13:31:18.000Z</time>
      </trkpt>
      <trkpt lat="45.94668" lon="7.70508">
        <ele>3215</ele>
        <time>2000-01-01T13:31:28.000Z</time>
      </trkpt>
      <trkpt lat="45.94676" lon="7.70491">
        <ele>3212.4</ele>
        <time>2000-01-01T13:31:38.000Z</time>
      </trkpt>
      <trkpt lat="45.94686" lon="7.7048">
        <ele>3206</ele>
        <time>2000-01-01T13:31:48.000Z</time>
      </trkpt>
      <trkpt lat="45.94695" lon="7.70473">
        <ele>3207.1</ele>
        <time>2000-01-01T13:31:58.000Z</time>
      </trkpt>
      <trkpt lat="45.94714" lon="7.70465">
        <ele>3203</ele>
        <time>2000-01-01T13:32:08.000Z</time>
      </trkpt>
      <trkpt lat="45.94726" lon="7.70458">
        <ele>3202.6</ele>
        <time>2000-01-01T13:32:18.000Z</time>
      </trkpt>
      <trkpt lat="45.94739" lon="7.70446">
        <ele>3196</ele>
        <time>2000-01-01T13:32:28.000Z</time>
      </trkpt>
      <trkpt lat="45.94745" lon="7.70435">
        <ele>3195.8</ele>
        <time>2000-01-01T13:32:38.000Z</time>
      </trkpt>
      <trkpt lat="45.94752" lon="7.70425">
        <ele>3191</ele>
        <time>2000-01-01T13:32:48.000Z</time>
      </trkpt>
      <trkpt lat="45.94763" lon="7.70411">
        <ele>3190.5</ele>
        <time>2000-01-01T13:32:58.000Z</time>
      </trkpt>
      <trkpt lat="45.94778" lon="7.70396">
        <ele>3186</ele>
        <time>2000-01-01T13:33:08.000Z</time>
      </trkpt>
      <trkpt lat="45.94784" lon="7.70382">
        <ele>3186.5</ele>
        <time>2000-01-01T13:33:18.000Z</time>
      </trkpt>
      <trkpt lat="45.94788" lon="7.70369">
        <ele>3182</ele>
        <time>2000-01-01T13:33:28.000Z</time>
      </trkpt>
      <trkpt lat="45.94794" lon="7.70352">
        <ele>3182</ele>
        <time>2000-01-01T13:33:38.000Z</time>
      </trkpt>
      <trkpt lat="45.94802" lon="7.70327">
        <ele>3176</ele>
        <time>2000-01-01T13:33:48.000Z</time>
      </trkpt>
      <trkpt lat="45.94815" lon="7.70291">
        <ele>3170</ele>
        <time>2000-01-01T13:33:58.000Z</time>
      </trkpt>
      <trkpt lat="45.94819" lon="7.70244">
        <ele>3159</ele>
        <time>2000-01-01T13:34:08.000Z</time>
      </trkpt>
      <trkpt lat="45.94821" lon="7.70231">
        <ele>3155.9</ele>
        <time>2000-01-01T13:34:18.000Z</time>
      </trkpt>
      <trkpt lat="45.94824" lon="7.70218">
        <ele>3151</ele>
        <time>2000-01-01T13:34:28.000Z</time>
      </trkpt>
      <trkpt lat="45.94827" lon="7.70194">
        <ele>3147.7</ele>
        <time>2000-01-01T13:34:38.000Z</time>
      </trkpt>
      <trkpt lat="45.94827" lon="7.70169">
        <ele>3139</ele>
        <time>2000-01-01T13:34:48.000Z</time>
      </trkpt>
      <trkpt lat="45.94828" lon="7.7015">
        <ele>3136.7</ele>
        <time>2000-01-01T13:34:58.000Z</time>
      </trkpt>
      <trkpt lat="45.9483" lon="7.70131">
        <ele>3132</ele>
        <time>2000-01-01T13:35:08.000Z</time>
      </trkpt>
      <trkpt lat="45.94826" lon="7.70099">
        <ele>3125</ele>
        <time>2000-01-01T13:35:18.000Z</time>
      </trkpt>
      <trkpt lat="45.9482" lon="7.70077">
        <ele>3122.6</ele>
        <time>2000-01-01T13:35:28.000Z</time>
      </trkpt>
      <trkpt lat="45.94814" lon="7.70062">
        <ele>3122</ele>
        <time>2000-01-01T13:35:38.000Z</time>
      </trkpt>
      <trkpt lat="45.94806" lon="7.70036">
        <ele>3119</ele>
        <time>2000-01-01T13:35:48.000Z</time>
      </trkpt>
      <trkpt lat="45.94804" lon="7.7002">
        <ele>3118.6</ele>
        <time>2000-01-01T13:35:58.000Z</time>
      </trkpt>
      <trkpt lat="45.94805" lon="7.69997">
        <ele>3114</ele>
        <time>2000-01-01T13:36:08.000Z</time>
      </trkpt>
      <trkpt lat="45.94806" lon="7.69984">
        <ele>3114.7</ele>
        <time>2000-01-01T13:36:18.000Z</time>
      </trkpt>
      <trkpt lat="45.94808" lon="7.69959">
        <ele>3109</ele>
        <time>2000-01-01T13:36:28.000Z</time>
      </trkpt>
      <trkpt lat="45.94811" lon="7.69944">
        <ele>3108.9</ele>
        <time>2000-01-01T13:36:38.000Z</time>
      </trkpt>
      <trkpt lat="45.94812" lon="7.69922">
        <ele>3107</ele>
        <time>2000-01-01T13:36:48.000Z</time>
      </trkpt>
      <trkpt lat="45.94811" lon="7.69903">
        <ele>3103.4</ele>
        <time>2000-01-01T13:36:58.000Z</time>
      </trkpt>
      <trkpt lat="45.94812" lon="7.69887">
        <ele>3102</ele>
        <time>2000-01-01T13:37:08.000Z</time>
      </trkpt>
      <trkpt lat="45.94816" lon="7.69862">
        <ele>3099.7</ele>
        <time>2000-01-01T13:37:18.000Z</time>
      </trkpt>
      <trkpt lat="45.94817" lon="7.69824">
        <ele>3092</ele>
        <time>2000-01-01T13:37:28.000Z</time>
      </trkpt>
      <trkpt lat="45.94822" lon="7.69778">
        <ele>3085</ele>
        <time>2000-01-01T13:37:38.000Z</time>
      </trkpt>
      <trkpt lat="45.94823" lon="7.69719">
        <ele>3075</ele>
        <time>2000-01-01T13:37:48.000Z</time>
      </trkpt>
      <trkpt lat="45.94827" lon="7.69687">
        <ele>3068</ele>
        <time>2000-01-01T13:37:58.000Z</time>
      </trkpt>
      <trkpt lat="45.9483" lon="7.69645">
        <ele>3062</ele>
        <time>2000-01-01T13:38:08.000Z</time>
      </trkpt>
      <trkpt lat="45.94834" lon="7.69624">
        <ele>3055.4</ele>
        <time>2000-01-01T13:38:18.000Z</time>
      </trkpt>
      <trkpt lat="45.94836" lon="7.69571">
        <ele>3049</ele>
        <time>2000-01-01T13:38:28.000Z</time>
      </trkpt>
      <trkpt lat="45.94833" lon="7.69527">
        <ele>3045</ele>
        <time>2000-01-01T13:38:38.000Z</time>
      </trkpt>
      <trkpt lat="45.94833" lon="7.69502">
        <ele>3040.2</ele>
        <time>2000-01-01T13:38:48.000Z</time>
      </trkpt>
      <trkpt lat="45.94833" lon="7.69468">
        <ele>3041</ele>
        <time>2000-01-01T13:38:58.000Z</time>
      </trkpt>
      <trkpt lat="45.94828" lon="7.69446">
        <ele>3037.5</ele>
        <time>2000-01-01T13:39:08.000Z</time>
      </trkpt>
      <trkpt lat="45.94824" lon="7.69429">
        <ele>3038</ele>
        <time>2000-01-01T13:39:18.000Z</time>
      </trkpt>
      <trkpt lat="45.94819" lon="7.69415">
        <ele>3033.7</ele>
        <time>2000-01-01T13:39:28.000Z</time>
      </trkpt>
      <trkpt lat="45.94814" lon="7.69401">
        <ele>3033</ele>
        <time>2000-01-01T13:39:38.000Z</time>
      </trkpt>
      <trkpt lat="45.94807" lon="7.69385">
        <ele>3027.9</ele>
        <time>2000-01-01T13:39:48.000Z</time>
      </trkpt>
      <trkpt lat="45.94795" lon="7.69371">
        <ele>3025</ele>
        <time>2000-01-01T13:39:58.000Z</time>
      </trkpt>
      <trkpt lat="45.94775" lon="7.69355">
        <ele>3021</ele>
        <time>2000-01-01T13:40:08.000Z</time>
      </trkpt>
      <trkpt lat="45.94762" lon="7.69342">
        <ele>3015.4</ele>
        <time>2000-01-01T13:40:18.000Z</time>
      </trkpt>
      <trkpt lat="45.94743" lon="7.69312">
        <ele>3014</ele>
        <time>2000-01-01T13:40:28.000Z</time>
      </trkpt>
      <trkpt lat="45.94733" lon="7.69298">
        <ele>3006.1</ele>
        <time>2000-01-01T13:40:38.000Z</time>
      </trkpt>
      <trkpt lat="45.94723" lon="7.69288">
        <ele>3005</ele>
        <time>2000-01-01T13:40:48.000Z</time>
      </trkpt>
      <trkpt lat="45.94705" lon="7.69265">
        <ele>2995</ele>
        <time>2000-01-01T13:40:58.000Z</time>
      </trkpt>
      <trkpt lat="45.9469" lon="7.69242">
        <ele>2986</ele>
        <time>2000-01-01T13:41:08.000Z</time>
      </trkpt>
      <trkpt lat="45.94675" lon="7.69232">
        <ele>2978.4</ele>
        <time>2000-01-01T13:41:18.000Z</time>
      </trkpt>
      <trkpt lat="45.94651" lon="7.69229">
        <ele>2973</ele>
        <time>2000-01-01T13:41:28.000Z</time>
      </trkpt>
      <trkpt lat="45.9464" lon="7.69232">
        <ele>2968.3</ele>
        <time>2000-01-01T13:41:38.000Z</time>
      </trkpt>
      <trkpt lat="45.94631" lon="7.69237">
        <ele>2970</ele>
        <time>2000-01-01T13:41:48.000Z</time>
      </trkpt>
      <trkpt lat="45.9462" lon="7.69238">
        <ele>2968.2</ele>
        <time>2000-01-01T13:41:58.000Z</time>
      </trkpt>
      <trkpt lat="45.94612" lon="7.69251">
        <ele>2969</ele>
        <time>2000-01-01T13:42:08.000Z</time>
      </trkpt>
      <trkpt lat="45.94597" lon="7.69264">
        <ele>2966.7</ele>
        <time>2000-01-01T13:42:18.000Z</time>
      </trkpt>
      <trkpt lat="45.9459" lon="7.69274">
        <ele>2967</ele>
        <time>2000-01-01T13:42:28.000Z</time>
      </trkpt>
      <trkpt lat="45.94578" lon="7.69283">
        <ele>2961.3</ele>
        <time>2000-01-01T13:42:38.000Z</time>
      </trkpt>
      <trkpt lat="45.94568" lon="7.69289">
        <ele>2955</ele>
        <time>2000-01-01T13:42:48.000Z</time>
      </trkpt>
      <trkpt lat="45.94558" lon="7.69297">
        <ele>2954.4</ele>
        <time>2000-01-01T13:42:58.000Z</time>
      </trkpt>
      <trkpt lat="45.94545" lon="7.69309">
        <ele>2956</ele>
        <time>2000-01-01T13:43:08.000Z</time>
      </trkpt>
      <trkpt lat="45.94534" lon="7.69315">
        <ele>2955.6</ele>
        <time>2000-01-01T13:43:18.000Z</time>
      </trkpt>
      <trkpt lat="45.94523" lon="7.69315">
        <ele>2958</ele>
        <time>2000-01-01T13:43:28.000Z</time>
      </trkpt>
      <trkpt lat="45.94511" lon="7.6932">
        <ele>2959.9</ele>
        <time>2000-01-01T13:43:38.000Z</time>
      </trkpt>
      <trkpt lat="45.94502" lon="7.69326">
        <ele>2958</ele>
        <time>2000-01-01T13:43:48.000Z</time>
      </trkpt>
      <trkpt lat="45.94493" lon="7.69332">
        <ele>2962.3</ele>
        <time>2000-01-01T13:43:58.000Z</time>
      </trkpt>
      <trkpt lat="45.94447" lon="7.69327">
        <ele>2957</ele>
        <time>2000-01-01T13:44:08.000Z</time>
      </trkpt>
      <trkpt lat="45.94434" lon="7.69322">
        <ele>2958.4</ele>
        <time>2000-01-01T13:44:18.000Z</time>
      </trkpt>
      <trkpt lat="45.94401" lon="7.69319">
        <ele>2956</ele>
        <time>2000-01-01T13:44:28.000Z</time>
      </trkpt>
      <trkpt lat="45.94378" lon="7.69318">
        <ele>2947</ele>
        <time>2000-01-01T13:44:38.000Z</time>
      </trkpt>
      <trkpt lat="45.94365" lon="7.69319">
        <ele>2944.1</ele>
        <time>2000-01-01T13:44:48.000Z</time>
      </trkpt>
      <trkpt lat="45.9433" lon="7.69319">
        <ele>2944</ele>
        <time>2000-01-01T13:44:58.000Z</time>
      </trkpt>
      <trkpt lat="45.94313" lon="7.69323">
        <ele>2943</ele>
        <time>2000-01-01T13:45:08.000Z</time>
      </trkpt>
      <trkpt lat="45.943" lon="7.69328">
        <ele>2943</ele>
        <time>2000-01-01T13:45:18.000Z</time>
      </trkpt>
      <trkpt lat="45.94281" lon="7.69336">
        <ele>2942</ele>
        <time>2000-01-01T13:45:28.000Z</time>
      </trkpt>
      <trkpt lat="45.94258" lon="7.69348">
        <ele>2937</ele>
        <time>2000-01-01T13:45:38.000Z</time>
      </trkpt>
      <trkpt lat="45.94247" lon="7.69351">
        <ele>2934.4</ele>
        <time>2000-01-01T13:45:48.000Z</time>
      </trkpt>
      <trkpt lat="45.94233" lon="7.69351">
        <ele>2935</ele>
        <time>2000-01-01T13:45:58.000Z</time>
      </trkpt>
      <trkpt lat="45.94204" lon="7.69355">
        <ele>2933</ele>
        <time>2000-01-01T13:46:08.000Z</time>
      </trkpt>
      <trkpt lat="45.94184" lon="7.69353">
        <ele>2932</ele>
        <time>2000-01-01T13:46:18.000Z</time>
      </trkpt>
      <trkpt lat="45.94149" lon="7.69357">
        <ele>2931</ele>
        <time>2000-01-01T13:46:28.000Z</time>
      </trkpt>
      <trkpt lat="45.94139" lon="7.6936">
        <ele>2930</ele>
        <time>2000-01-01T13:46:38.000Z</time>
      </trkpt>
      <trkpt lat="45.94124" lon="7.69377">
        <ele>2930</ele>
        <time>2000-01-01T13:46:48.000Z</time>
      </trkpt>
      <trkpt lat="45.94114" lon="7.69384">
        <ele>2926.7</ele>
        <time>2000-01-01T13:46:58.000Z</time>
      </trkpt>
      <trkpt lat="45.94095" lon="7.69391">
        <ele>2924</ele>
        <time>2000-01-01T13:47:08.000Z</time>
      </trkpt>
      <trkpt lat="45.94085" lon="7.69396">
        <ele>2921.3</ele>
        <time>2000-01-01T13:47:18.000Z</time>
      </trkpt>
      <trkpt lat="45.94059" lon="7.69398">
        <ele>2924</ele>
        <time>2000-01-01T13:47:28.000Z</time>
      </trkpt>
      <trkpt lat="45.94041" lon="7.69397">
        <ele>2921.6</ele>
        <time>2000-01-01T13:47:38.000Z</time>
      </trkpt>
      <trkpt lat="45.94024" lon="7.69394">
        <ele>2924</ele>
        <time>2000-01-01T13:47:48.000Z</time>
      </trkpt>
      <trkpt lat="45.94005" lon="7.69392">
        <ele>2923</ele>
        <time>2000-01-01T13:47:58.000Z</time>
      </trkpt>
      <trkpt lat="45.93996" lon="7.69393">
        <ele>2921.7</ele>
        <time>2000-01-01T13:48:08.000Z</time>
      </trkpt>
      <trkpt lat="45.93981" lon="7.69399">
        <ele>2921</ele>
        <time>2000-01-01T13:48:18.000Z</time>
      </trkpt>
      <trkpt lat="45.93971" lon="7.6941">
        <ele>2918.2</ele>
        <time>2000-01-01T13:48:28.000Z</time>
      </trkpt>
      <trkpt lat="45.93956" lon="7.69417">
        <ele>2915</ele>
        <time>2000-01-01T13:48:38.000Z</time>
      </trkpt>
      <trkpt lat="45.93947" lon="7.69424">
        <ele>2912.3</ele>
        <time>2000-01-01T13:48:48.000Z</time>
      </trkpt>
      <trkpt lat="45.93935" lon="7.6943">
        <ele>2911</ele>
        <time>2000-01-01T13:48:58.000Z</time>
      </trkpt>
      <trkpt lat="45.9392" lon="7.69433">
        <ele>2907.4</ele>
        <time>2000-01-01T13:49:08.000Z</time>
      </trkpt>
      <trkpt lat="45.93896" lon="7.69435">
        <ele>2907</ele>
        <time>2000-01-01T13:49:18.000Z</time>
      </trkpt>
      <trkpt lat="45.93877" lon="7.69427">
        <ele>2906</ele>
        <time>2000-01-01T13:49:28.000Z</time>
      </trkpt>
      <trkpt lat="45.93865" lon="7.69413">
        <ele>2903.6</ele>
        <time>2000-01-01T13:49:38.000Z</time>
      </trkpt>
      <trkpt lat="45.93852" lon="7.69394">
        <ele>2903</ele>
        <time>2000-01-01T13:49:48.000Z</time>
      </trkpt>
      <trkpt lat="45.93837" lon="7.69368">
        <ele>2901</ele>
        <time>2000-01-01T13:49:58.000Z</time>
      </trkpt>
      <trkpt lat="45.93826" lon="7.69352">
        <ele>2899.4</ele>
        <time>2000-01-01T13:50:08.000Z</time>
      </trkpt>
      <trkpt lat="45.93821" lon="7.69332">
        <ele>2897</ele>
        <time>2000-01-01T13:50:18.000Z</time>
      </trkpt>
      <trkpt lat="45.93811" lon="7.69308">
        <ele>2894</ele>
        <time>2000-01-01T13:50:28.000Z</time>
      </trkpt>
      <trkpt lat="45.93807" lon="7.69295">
        <ele>2892</ele>
        <time>2000-01-01T13:50:38.000Z</time>
      </trkpt>
      <trkpt lat="45.938" lon="7.69267">
        <ele>2890</ele>
        <time>2000-01-01T13:50:48.000Z</time>
      </trkpt>
      <trkpt lat="45.93797" lon="7.69247">
        <ele>2887.6</ele>
        <time>2000-01-01T13:50:58.000Z</time>
      </trkpt>
      <trkpt lat="45.93794" lon="7.69209">
        <ele>2889</ele>
        <time>2000-01-01T13:51:08.000Z</time>
      </trkpt>
      <trkpt lat="45.93789" lon="7.69182">
        <ele>2889</ele>
        <time>2000-01-01T13:51:18.000Z</time>
      </trkpt>
      <trkpt lat="45.9379" lon="7.69154">
        <ele>2888</ele>
        <time>2000-01-01T13:51:28.000Z</time>
      </trkpt>
      <trkpt lat="45.93797" lon="7.69115">
        <ele>2888</ele>
        <time>2000-01-01T13:51:38.000Z</time>
      </trkpt>
      <trkpt lat="45.93803" lon="7.69088">
        <ele>2888</ele>
        <time>2000-01-01T13:51:48.000Z</time>
      </trkpt>
      <trkpt lat="45.93806" lon="7.69074">
        <ele>2885.6</ele>
        <time>2000-01-01T13:51:58.000Z</time>
      </trkpt>
      <trkpt lat="45.93815" lon="7.69049">
        <ele>2886</ele>
        <time>2000-01-01T13:52:08.000Z</time>
      </trkpt>
      <trkpt lat="45.93823" lon="7.69026">
        <ele>2885.7</ele>
        <time>2000-01-01T13:52:18.000Z</time>
      </trkpt>
      <trkpt lat="45.9383" lon="7.68999">
        <ele>2885</ele>
        <time>2000-01-01T13:52:28.000Z</time>
      </trkpt>
      <trkpt lat="45.93836" lon="7.68981">
        <ele>2882.4</ele>
        <time>2000-01-01T13:52:38.000Z</time>
      </trkpt>
      <trkpt lat="45.93838" lon="7.68962">
        <ele>2883</ele>
        <time>2000-01-01T13:52:48.000Z</time>
      </trkpt>
      <trkpt lat="45.93826" lon="7.68931">
        <ele>2883</ele>
        <time>2000-01-01T13:52:58.000Z</time>
      </trkpt>
      <trkpt lat="45.93816" lon="7.68911">
        <ele>2880.8</ele>
        <time>2000-01-01T13:53:08.000Z</time>
      </trkpt>
      <trkpt lat="45.93809" lon="7.68901">
        <ele>2883</ele>
        <time>2000-01-01T13:53:18.000Z</time>
      </trkpt>
      <trkpt lat="45.93794" lon="7.68885">
        <ele>2881</ele>
        <time>2000-01-01T13:53:28.000Z</time>
      </trkpt>
      <trkpt lat="45.93777" lon="7.6887">
        <ele>2881</ele>
        <time>2000-01-01T13:53:38.000Z</time>
      </trkpt>
      <trkpt lat="45.93762" lon="7.68862">
        <ele>2877.8</ele>
        <time>2000-01-01T13:53:48.000Z</time>
      </trkpt>
      <trkpt lat="45.93749" lon="7.6886">
        <ele>2881</ele>
        <time>2000-01-01T13:53:58.000Z</time>
      </trkpt>
      <trkpt lat="45.93729" lon="7.68859">
        <ele>2879</ele>
        <time>2000-01-01T13:54:08.000Z</time>
      </trkpt>
      <trkpt lat="45.93709" lon="7.68849">
        <ele>2878</ele>
        <time>2000-01-01T13:54:18.000Z</time>
      </trkpt>
      <trkpt lat="45.93697" lon="7.68834">
        <ele>2872</ele>
        <time>2000-01-01T13:54:28.000Z</time>
      </trkpt>
      <trkpt lat="45.93678" lon="7.68802">
        <ele>2868</ele>
        <time>2000-01-01T13:54:38.000Z</time>
      </trkpt>
      <trkpt lat="45.93663" lon="7.68781">
        <ele>2865</ele>
        <time>2000-01-01T13:54:48.000Z</time>
      </trkpt>
      <trkpt lat="45.93654" lon="7.68761">
        <ele>2858.1</ele>
        <time>2000-01-01T13:54:58.000Z</time>
      </trkpt>
      <trkpt lat="45.93652" lon="7.68745">
        <ele>2861</ele>
        <time>2000-01-01T13:55:08.000Z</time>
      </trkpt>
      <trkpt lat="45.93642" lon="7.68715">
        <ele>2855</ele>
        <time>2000-01-01T13:55:18.000Z</time>
      </trkpt>
      <trkpt lat="45.93636" lon="7.68699">
        <ele>2849.8</ele>
        <time>2000-01-01T13:55:28.000Z</time>
      </trkpt>
      <trkpt lat="45.93627" lon="7.6868">
        <ele>2847</ele>
        <time>2000-01-01T13:55:38.000Z</time>
      </trkpt>
      <trkpt lat="45.93619" lon="7.68666">
        <ele>2842.4</ele>
        <time>2000-01-01T13:55:48.000Z</time>
      </trkpt>
      <trkpt lat="45.93612" lon="7.68653">
        <ele>2841</ele>
        <time>2000-01-01T13:55:58.000Z</time>
      </trkpt>
      <trkpt lat="45.93605" lon="7.68644">
        <ele>2836.6</ele>
        <time>2000-01-01T13:56:08.000Z</time>
      </trkpt>
      <trkpt lat="45.93599" lon="7.68633">
        <ele>2835</ele>
        <time>2000-01-01T13:56:18.000Z</time>
      </trkpt>
      <trkpt lat="45.93591" lon="7.68612">
        <ele>2832.7</ele>
        <time>2000-01-01T13:56:28.000Z</time>
      </trkpt>
      <trkpt lat="45.93577" lon="7.68588">
        <ele>2831</ele>
        <time>2000-01-01T13:56:38.000Z</time>
      </trkpt>
      <trkpt lat="45.93563" lon="7.68574">
        <ele>2827.9</ele>
        <time>2000-01-01T13:56:48.000Z</time>
      </trkpt>
      <trkpt lat="45.93524" lon="7.68552">
        <ele>2826</ele>
        <time>2000-01-01T13:56:58.000Z</time>
      </trkpt>
      <trkpt lat="45.93507" lon="7.68541">
        <ele>2822.9</ele>
        <time>2000-01-01T13:57:08.000Z</time>
      </trkpt>
      <trkpt lat="45.93497" lon="7.68533">
        <ele>2820</ele>
        <time>2000-01-01T13:57:18.000Z</time>
      </trkpt>
      <trkpt lat="45.93488" lon="7.68523">
        <ele>2818.6</ele>
        <time>2000-01-01T13:57:28.000Z</time>
      </trkpt>
      <trkpt lat="45.93481" lon="7.68509">
        <ele>2818</ele>
        <time>2000-01-01T13:57:38.000Z</time>
      </trkpt>
      <trkpt lat="45.93475" lon="7.6849">
        <ele>2814.8</ele>
        <time>2000-01-01T13:57:48.000Z</time>
      </trkpt>
      <trkpt lat="45.93465" lon="7.68477">
        <ele>2815</ele>
        <time>2000-01-01T13:57:58.000Z</time>
      </trkpt>
      <trkpt lat="45.93441" lon="7.68452">
        <ele>2812</ele>
        <time>2000-01-01T13:58:08.000Z</time>
      </trkpt>
      <trkpt lat="45.93421" lon="7.68429">
        <ele>2809</ele>
        <time>2000-01-01T13:58:18.000Z</time>
      </trkpt>
      <trkpt lat="45.93416" lon="7.68419">
        <ele>2806</ele>
        <time>2000-01-01T13:58:28.000Z</time>
      </trkpt>
      <trkpt lat="45.93403" lon="7.68415">
        <ele>2806</ele>
        <time>2000-01-01T13:58:38.000Z</time>
      </trkpt>
      <trkpt lat="45.93389" lon="7.68401">
        <ele>2804</ele>
        <time>2000-01-01T13:58:48.000Z</time>
      </trkpt>
      <trkpt lat="45.93382" lon="7.68377">
        <ele>2806</ele>
        <time>2000-01-01T13:58:58.000Z</time>
      </trkpt>
      <trkpt lat="45.93368" lon="7.68361">
        <ele>2804.5</ele>
        <time>2000-01-01T13:59:08.000Z</time>
      </trkpt>
      <trkpt lat="45.93354" lon="7.68356">
        <ele>2806</ele>
        <time>2000-01-01T13:59:18.000Z</time>
      </trkpt>
      <trkpt lat="45.93335" lon="7.68347">
        <ele>2806</ele>
        <time>2000-01-01T13:59:28.000Z</time>
      </trkpt>
      <trkpt lat="45.93303" lon="7.68319">
        <ele>2806</ele>
        <time>2000-01-01T13:59:38.000Z</time>
      </trkpt>
      <trkpt lat="45.93288" lon="7.68304">
        <ele>2804.7</ele>
        <time>2000-01-01T13:59:48.000Z</time>
      </trkpt>
      <trkpt lat="45.93275" lon="7.68284">
        <ele>2808</ele>
        <time>2000-01-01T13:59:58.000Z</time>
      </trkpt>
      <trkpt lat="45.93267" lon="7.68273">
        <ele>2805.9</ele>
        <time>2000-01-01T14:00:08.000Z</time>
      </trkpt>
      <trkpt lat="45.93259" lon="7.68253">
        <ele>2809</ele>
        <time>2000-01-01T14:00:18.000Z</time>
      </trkpt>
      <trkpt lat="45.93247" lon="7.68242">
        <ele>2807.5</ele>
        <time>2000-01-01T14:00:28.000Z</time>
      </trkpt>
      <trkpt lat="45.93226" lon="7.68237">
        <ele>2812</ele>
        <time>2000-01-01T14:00:38.000Z</time>
      </trkpt>
      <trkpt lat="45.93189" lon="7.68223">
        <ele>2812</ele>
        <time>2000-01-01T14:00:48.000Z</time>
      </trkpt>
      <trkpt lat="45.93152" lon="7.68212">
        <ele>2812</ele>
        <time>2000-01-01T14:00:58.000Z</time>
      </trkpt>
      <trkpt lat="45.93133" lon="7.68206">
        <ele>2811</ele>
        <time>2000-01-01T14:01:08.000Z</time>
      </trkpt>
      <trkpt lat="45.93117" lon="7.68192">
        <ele>2808.6</ele>
        <time>2000-01-01T14:01:18.000Z</time>
      </trkpt>
      <trkpt lat="45.931" lon="7.68181">
        <ele>2811</ele>
        <time>2000-01-01T14:01:28.000Z</time>
      </trkpt>
      <trkpt lat="45.93083" lon="7.68173">
        <ele>2810.4</ele>
        <time>2000-01-01T14:01:38.000Z</time>
      </trkpt>
      <trkpt lat="45.93071" lon="7.68172">
        <ele>2814</ele>
        <time>2000-01-01T14:01:48.000Z</time>
      </trkpt>
      <trkpt lat="45.93052" lon="7.68174">
        <ele>2813.3</ele>
        <time>2000-01-01T14:01:58.000Z</time>
      </trkpt>
      <trkpt lat="45.93036" lon="7.68172">
        <ele>2817</ele>
        <time>2000-01-01T14:02:08.000Z</time>
      </trkpt>
      <trkpt lat="45.93025" lon="7.68167">
        <ele>2814.5</ele>
        <time>2000-01-01T14:02:18.000Z</time>
      </trkpt>
      <trkpt lat="45.93014" lon="7.68143">
        <ele>2818</ele>
        <time>2000-01-01T14:02:28.000Z</time>
      </trkpt>
      <trkpt lat="45.93" lon="7.68114">
        <ele>2818</ele>
        <time>2000-01-01T14:02:38.000Z</time>
      </trkpt>
      <trkpt lat="45.92984" lon="7.68082">
        <ele>2819</ele>
        <time>2000-01-01T14:02:48.000Z</time>
      </trkpt>
      <trkpt lat="45.92974" lon="7.68057">
        <ele>2819</ele>
        <time>2000-01-01T14:02:58.000Z</time>
      </trkpt>
      <trkpt lat="45.92974" lon="7.68041">
        <ele>2816.7</ele>
        <time>2000-01-01T14:03:08.000Z</time>
      </trkpt>
      <trkpt lat="45.92956" lon="7.68037">
        <ele>2813</ele>
        <time>2000-01-01T14:03:18.000Z</time>
      </trkpt>
      <trkpt lat="45.92943" lon="7.68038">
        <ele>2809.9</ele>
        <time>2000-01-01T14:03:28.000Z</time>
      </trkpt>
      <trkpt lat="45.92934" lon="7.6805">
        <ele>2812</ele>
        <time>2000-01-01T14:03:38.000Z</time>
      </trkpt>
      <trkpt lat="45.92926" lon="7.68069">
        <ele>2809.8</ele>
        <time>2000-01-01T14:03:48.000Z</time>
      </trkpt>
      <trkpt lat="45.92913" lon="7.68087">
        <ele>2812</ele>
        <time>2000-01-01T14:03:58.000Z</time>
      </trkpt>
      <trkpt lat="45.92906" lon="7.68099">
        <ele>2811.8</ele>
        <time>2000-01-01T14:04:08.000Z</time>
      </trkpt>
      <trkpt lat="45.92898" lon="7.68109">
        <ele>2814</ele>
        <time>2000-01-01T14:04:18.000Z</time>
      </trkpt>
      <trkpt lat="45.92889" lon="7.68131">
        <ele>2815.4</ele>
        <time>2000-01-01T14:04:28.000Z</time>
      </trkpt>
      <trkpt lat="45.92883" lon="7.68146">
        <ele>2817</ele>
        <time>2000-01-01T14:04:38.000Z</time>
      </trkpt>
      <trkpt lat="45.92878" lon="7.68167">
        <ele>2819.6</ele>
        <time>2000-01-01T14:04:48.000Z</time>
      </trkpt>
      <trkpt lat="45.92865" lon="7.68186">
        <ele>2823</ele>
        <time>2000-01-01T14:04:58.000Z</time>
      </trkpt>
      <trkpt lat="45.9286" lon="7.68198">
        <ele>2824.7</ele>
        <time>2000-01-01T14:05:08.000Z</time>
      </trkpt>
      <trkpt lat="45.92855" lon="7.68215">
        <ele>2829</ele>
        <time>2000-01-01T14:05:18.000Z</time>
      </trkpt>
      <trkpt lat="45.92848" lon="7.68247">
        <ele>2832</ele>
        <time>2000-01-01T14:05:28.000Z</time>
      </trkpt>
      <trkpt lat="45.92831" lon="7.68277">
        <ele>2834</ele>
        <time>2000-01-01T14:05:38.000Z</time>
      </trkpt>
      <trkpt lat="45.92819" lon="7.68302">
        <ele>2836</ele>
        <time>2000-01-01T14:05:48.000Z</time>
      </trkpt>
      <trkpt lat="45.92792" lon="7.6835">
        <ele>2837</ele>
        <time>2000-01-01T14:05:58.000Z</time>
      </trkpt>
      <trkpt lat="45.92782" lon="7.68371">
        <ele>2833.8</ele>
        <time>2000-01-01T14:06:08.000Z</time>
      </trkpt>
      <trkpt lat="45.92775" lon="7.6839">
        <ele>2838</ele>
        <time>2000-01-01T14:06:18.000Z</time>
      </trkpt>
      <trkpt lat="45.92758" lon="7.68426">
        <ele>2841</ele>
        <time>2000-01-01T14:06:28.000Z</time>
      </trkpt>
      <trkpt lat="45.9275" lon="7.68437">
        <ele>2839.7</ele>
        <time>2000-01-01T14:06:38.000Z</time>
      </trkpt>
      <trkpt lat="45.92741" lon="7.68444">
        <ele>2844</ele>
        <time>2000-01-01T14:06:48.000Z</time>
      </trkpt>
      <trkpt lat="45.92728" lon="7.68448">
        <ele>2843.4</ele>
        <time>2000-01-01T14:06:58.000Z</time>
      </trkpt>
      <trkpt lat="45.92716" lon="7.68455">
        <ele>2850</ele>
        <time>2000-01-01T14:07:08.000Z</time>
      </trkpt>
      <trkpt lat="45.92707" lon="7.68465">
        <ele>2850</ele>
        <time>2000-01-01T14:07:18.000Z</time>
      </trkpt>
      <trkpt lat="45.92697" lon="7.68474">
        <ele>2855</ele>
        <time>2000-01-01T14:07:28.000Z</time>
      </trkpt>
      <trkpt lat="45.92688" lon="7.68487">
        <ele>2856.9</ele>
        <time>2000-01-01T14:07:38.000Z</time>
      </trkpt>
      <trkpt lat="45.92679" lon="7.68501">
        <ele>2861</ele>
        <time>2000-01-01T14:07:48.000Z</time>
      </trkpt>
      <trkpt lat="45.92672" lon="7.6851">
        <ele>2861.1</ele>
        <time>2000-01-01T14:07:58.000Z</time>
      </trkpt>
      <trkpt lat="45.92662" lon="7.68528">
        <ele>2864</ele>
        <time>2000-01-01T14:08:08.000Z</time>
      </trkpt>
      <trkpt lat="45.92646" lon="7.68543">
        <ele>2862.4</ele>
        <time>2000-01-01T14:08:18.000Z</time>
      </trkpt>
      <trkpt lat="45.92624" lon="7.68578">
        <ele>2871</ele>
        <time>2000-01-01T14:08:28.000Z</time>
      </trkpt>
      <trkpt lat="45.92617" lon="7.68588">
        <ele>2866.1</ele>
        <time>2000-01-01T14:08:38.000Z</time>
      </trkpt>
      <trkpt lat="45.92602" lon="7.686">
        <ele>2876</ele>
        <time>2000-01-01T14:08:48.000Z</time>
      </trkpt>
      <trkpt lat="45.92582" lon="7.68614">
        <ele>2878</ele>
        <time>2000-01-01T14:08:58.000Z</time>
      </trkpt>
      <trkpt lat="45.92561" lon="7.68636">
        <ele>2880</ele>
        <time>2000-01-01T14:09:08.000Z</time>
      </trkpt>
      <trkpt lat="45.92549" lon="7.6865">
        <ele>2877.6</ele>
        <time>2000-01-01T14:09:18.000Z</time>
      </trkpt>
      <trkpt lat="45.92539" lon="7.68657">
        <ele>2888</ele>
        <time>2000-01-01T14:09:28.000Z</time>
      </trkpt>
      <trkpt lat="45.9253" lon="7.68668">
        <ele>2881.9</ele>
        <time>2000-01-01T14:09:38.000Z</time>
      </trkpt>
      <trkpt lat="45.92508" lon="7.68668">
        <ele>2894</ele>
        <time>2000-01-01T14:09:48.000Z</time>
      </trkpt>
      <trkpt lat="45.92492" lon="7.68663">
        <ele>2885.9</ele>
        <time>2000-01-01T14:09:58.000Z</time>
      </trkpt>
      <trkpt lat="45.92482" lon="7.68657">
        <ele>2895</ele>
        <time>2000-01-01T14:10:08.000Z</time>
      </trkpt>
      <trkpt lat="45.92469" lon="7.68655">
        <ele>2889.2</ele>
        <time>2000-01-01T14:10:18.000Z</time>
      </trkpt>
      <trkpt lat="45.92451" lon="7.68655">
        <ele>2897</ele>
        <time>2000-01-01T14:10:28.000Z</time>
      </trkpt>
      <trkpt lat="45.92435" lon="7.68633">
        <ele>2896</ele>
        <time>2000-01-01T14:10:38.000Z</time>
      </trkpt>
      <trkpt lat="45.92425" lon="7.68611">
        <ele>2891.4</ele>
        <time>2000-01-01T14:10:48.000Z</time>
      </trkpt>
      <trkpt lat="45.92421" lon="7.68596">
        <ele>2896</ele>
        <time>2000-01-01T14:10:58.000Z</time>
      </trkpt>
      <trkpt lat="45.92413" lon="7.68588">
        <ele>2891.6</ele>
        <time>2000-01-01T14:11:08.000Z</time>
      </trkpt>
      <trkpt lat="45.92405" lon="7.68581">
        <ele>2900</ele>
        <time>2000-01-01T14:11:18.000Z</time>
      </trkpt>
      <trkpt lat="45.92397" lon="7.68576">
        <ele>2893.4</ele>
        <time>2000-01-01T14:11:28.000Z</time>
      </trkpt>
      <trkpt lat="45.92383" lon="7.68558">
        <ele>2903</ele>
        <time>2000-01-01T14:11:38.000Z</time>
      </trkpt>
      <trkpt lat="45.92375" lon="7.68551">
        <ele>2899</ele>
        <time>2000-01-01T14:11:48.000Z</time>
      </trkpt>
      <trkpt lat="45.9238" lon="7.68589">
        <ele>2906</ele>
        <time>2000-01-01T14:11:58.000Z</time>
      </trkpt>
      <trkpt lat="45.92377" lon="7.68606">
        <ele>2904.5</ele>
        <time>2000-01-01T14:12:08.000Z</time>
      </trkpt>
      <trkpt lat="45.92363" lon="7.68593">
        <ele>2914</ele>
        <time>2000-01-01T14:12:18.000Z</time>
      </trkpt>
      <trkpt lat="45.92354" lon="7.68576">
        <ele>2910.8</ele>
        <time>2000-01-01T14:12:28.000Z</time>
      </trkpt>
      <trkpt lat="45.9235" lon="7.68564">
        <ele>2916</ele>
        <time>2000-01-01T14:12:38.000Z</time>
      </trkpt>
      <trkpt lat="45.92345" lon="7.68547">
        <ele>2912.4</ele>
        <time>2000-01-01T14:12:48.000Z</time>
      </trkpt>
      <trkpt lat="45.92339" lon="7.68532">
        <ele>2916</ele>
        <time>2000-01-01T14:12:58.000Z</time>
      </trkpt>
      <trkpt lat="45.9233" lon="7.68537">
        <ele>2917.6</ele>
        <time>2000-01-01T14:13:08.000Z</time>
      </trkpt>
      <trkpt lat="45.92332" lon="7.68557">
        <ele>2918</ele>
        <time>2000-01-01T14:13:18.000Z</time>
      </trkpt>
      <trkpt lat="45.92331" lon="7.68572">
        <ele>2921.1</ele>
        <time>2000-01-01T14:13:28.000Z</time>
      </trkpt>
      <trkpt lat="45.92325" lon="7.68592">
        <ele>2925</ele>
        <time>2000-01-01T14:13:38.000Z</time>
      </trkpt>
      <trkpt lat="45.92314" lon="7.68577">
        <ele>2928.4</ele>
        <time>2000-01-01T14:13:48.000Z</time>
      </trkpt>
      <trkpt lat="45.92307" lon="7.68562">
        <ele>2926</ele>
        <time>2000-01-01T14:13:58.000Z</time>
      </trkpt>
      <trkpt lat="45.92301" lon="7.68552">
        <ele>2929.8</ele>
        <time>2000-01-01T14:14:08.000Z</time>
      </trkpt>
      <trkpt lat="45.92289" lon="7.68537">
        <ele>2927</ele>
        <time>2000-01-01T14:14:18.000Z</time>
      </trkpt>
      <trkpt lat="45.92278" lon="7.68524">
        <ele>2934.7</ele>
        <time>2000-01-01T14:14:28.000Z</time>
      </trkpt>
      <trkpt lat="45.9227" lon="7.68508">
        <ele>2928</ele>
        <time>2000-01-01T14:14:38.000Z</time>
      </trkpt>
      <trkpt lat="45.92265" lon="7.68493">
        <ele>2936.6</ele>
        <time>2000-01-01T14:14:48.000Z</time>
      </trkpt>
      <trkpt lat="45.92256" lon="7.6848">
        <ele>2928</ele>
        <time>2000-01-01T14:14:58.000Z</time>
      </trkpt>
      <trkpt lat="45.92243" lon="7.68477">
        <ele>2939.8</ele>
        <time>2000-01-01T14:15:08.000Z</time>
      </trkpt>
      <trkpt lat="45.92207" lon="7.68514">
        <ele>2936</ele>
        <time>2000-01-01T14:15:18.000Z</time>
      </trkpt>
      <trkpt lat="45.92194" lon="7.68531">
        <ele>2946.5</ele>
        <time>2000-01-01T14:15:28.000Z</time>
      </trkpt>
      <trkpt lat="45.92187" lon="7.68553">
        <ele>2943</ele>
        <time>2000-01-01T14:15:38.000Z</time>
      </trkpt>
      <trkpt lat="45.92179" lon="7.68568">
        <ele>2952.6</ele>
        <time>2000-01-01T14:15:48.000Z</time>
      </trkpt>
      <trkpt lat="45.92169" lon="7.6857">
        <ele>2946</ele>
        <time>2000-01-01T14:15:58.000Z</time>
      </trkpt>
      <trkpt lat="45.9216" lon="7.68576">
        <ele>2956.6</ele>
        <time>2000-01-01T14:16:08.000Z</time>
      </trkpt>
      <trkpt lat="45.92145" lon="7.68575">
        <ele>2948</ele>
        <time>2000-01-01T14:16:18.000Z</time>
      </trkpt>
      <trkpt lat="45.92129" lon="7.68577">
        <ele>2957.3</ele>
        <time>2000-01-01T14:16:28.000Z</time>
      </trkpt>
      <trkpt lat="45.92105" lon="7.68607">
        <ele>2953</ele>
        <time>2000-01-01T14:16:38.000Z</time>
      </trkpt>
      <trkpt lat="45.92097" lon="7.68613">
        <ele>2961.7</ele>
        <time>2000-01-01T14:16:48.000Z</time>
      </trkpt>
      <trkpt lat="45.92088" lon="7.68618">
        <ele>2962.2</ele>
        <time>2000-01-01T14:16:58.000Z</time>
      </trkpt>
      <trkpt lat="45.92055" lon="7.68626">
        <ele>2952</ele>
        <time>2000-01-01T14:17:08.000Z</time>
      </trkpt>
      <trkpt lat="45.92044" lon="7.68621">
        <ele>2956.6</ele>
        <time>2000-01-01T14:17:18.000Z</time>
      </trkpt>
      <trkpt lat="45.92013" lon="7.68614">
        <ele>2952</ele>
        <time>2000-01-01T14:17:28.000Z</time>
      </trkpt>
      <trkpt lat="45.92003" lon="7.68616">
        <ele>2958.4</ele>
        <time>2000-01-01T14:17:38.000Z</time>
      </trkpt>
      <trkpt lat="45.91993" lon="7.68616">
        <ele>2955</ele>
        <time>2000-01-01T14:17:48.000Z</time>
      </trkpt>
      <trkpt lat="45.9198" lon="7.68614">
        <ele>2960.9</ele>
        <time>2000-01-01T14:17:58.000Z</time>
      </trkpt>
      <trkpt lat="45.9197" lon="7.68618">
        <ele>2960</ele>
        <time>2000-01-01T14:18:08.000Z</time>
      </trkpt>
      <trkpt lat="45.91962" lon="7.68627">
        <ele>2965</ele>
        <time>2000-01-01T14:18:18.000Z</time>
      </trkpt>
      <trkpt lat="45.91947" lon="7.68637">
        <ele>2969</ele>
        <time>2000-01-01T14:18:28.000Z</time>
      </trkpt>
      <trkpt lat="45.91932" lon="7.68641">
        <ele>2967.7</ele>
        <time>2000-01-01T14:18:38.000Z</time>
      </trkpt>
      <trkpt lat="45.9189" lon="7.68614">
        <ele>2972</ele>
        <time>2000-01-01T14:18:48.000Z</time>
      </trkpt>
      <trkpt lat="45.91882" lon="7.68604">
        <ele>2970.2</ele>
        <time>2000-01-01T14:18:58.000Z</time>
      </trkpt>
      <trkpt lat="45.91875" lon="7.68592">
        <ele>2975</ele>
        <time>2000-01-01T14:19:08.000Z</time>
      </trkpt>
      <trkpt lat="45.91871" lon="7.68579">
        <ele>2974.7</ele>
        <time>2000-01-01T14:19:18.000Z</time>
      </trkpt>
      <trkpt lat="45.9186" lon="7.68573">
        <ele>2976</ele>
        <time>2000-01-01T14:19:28.000Z</time>
      </trkpt>
      <trkpt lat="45.91845" lon="7.68561">
        <ele>2980.8</ele>
        <time>2000-01-01T14:19:38.000Z</time>
      </trkpt>
      <trkpt lat="45.91833" lon="7.68574">
        <ele>2978</ele>
        <time>2000-01-01T14:19:48.000Z</time>
      </trkpt>
      <trkpt lat="45.91822" lon="7.68581">
        <ele>2981.9</ele>
        <time>2000-01-01T14:19:58.000Z</time>
      </trkpt>
      <trkpt lat="45.91811" lon="7.68595">
        <ele>2982</ele>
        <time>2000-01-01T14:20:08.000Z</time>
      </trkpt>
      <trkpt lat="45.91801" lon="7.68605">
        <ele>2982.5</ele>
        <time>2000-01-01T14:20:18.000Z</time>
      </trkpt>
      <trkpt lat="45.91798" lon="7.68629">
        <ele>2983</ele>
        <time>2000-01-01T14:20:28.000Z</time>
      </trkpt>
      <trkpt lat="45.91793" lon="7.68643">
        <ele>2984.5</ele>
        <time>2000-01-01T14:20:38.000Z</time>
      </trkpt>
      <trkpt lat="45.91786" lon="7.68657">
        <ele>2985</ele>
        <time>2000-01-01T14:20:48.000Z</time>
      </trkpt>
      <trkpt lat="45.91778" lon="7.6867">
        <ele>2986.1</ele>
        <time>2000-01-01T14:20:58.000Z</time>
      </trkpt>
      <trkpt lat="45.91774" lon="7.68686">
        <ele>2987</ele>
        <time>2000-01-01T14:21:08.000Z</time>
      </trkpt>
      <trkpt lat="45.9177" lon="7.68711">
        <ele>2988.5</ele>
        <time>2000-01-01T14:21:18.000Z</time>
      </trkpt>
      <trkpt lat="45.91753" lon="7.68717">
        <ele>2988</ele>
        <time>2000-01-01T14:21:28.000Z</time>
      </trkpt>
      <trkpt lat="45.91734" lon="7.68723">
        <ele>2988</ele>
        <time>2000-01-01T14:21:38.000Z</time>
      </trkpt>
      <trkpt lat="45.91713" lon="7.68727">
        <ele>2988</ele>
        <time>2000-01-01T14:21:48.000Z</time>
      </trkpt>
      <trkpt lat="45.91694" lon="7.68727">
        <ele>2989</ele>
        <time>2000-01-01T14:21:58.000Z</time>
      </trkpt>
      <trkpt lat="45.91674" lon="7.68721">
        <ele>2989</ele>
        <time>2000-01-01T14:22:08.000Z</time>
      </trkpt>
      <trkpt lat="45.91661" lon="7.68711">
        <ele>2984.7</ele>
        <time>2000-01-01T14:22:18.000Z</time>
      </trkpt>
      <trkpt lat="45.91643" lon="7.687">
        <ele>2986</ele>
        <time>2000-01-01T14:22:28.000Z</time>
      </trkpt>
      <trkpt lat="45.91623" lon="7.68698">
        <ele>2985</ele>
        <time>2000-01-01T14:22:38.000Z</time>
      </trkpt>
      <trkpt lat="45.91603" lon="7.68694">
        <ele>2984</ele>
        <time>2000-01-01T14:22:48.000Z</time>
      </trkpt>
      <trkpt lat="45.91589" lon="7.687">
        <ele>2983.8</ele>
        <time>2000-01-01T14:22:58.000Z</time>
      </trkpt>
      <trkpt lat="45.91572" lon="7.68714">
        <ele>2984</ele>
        <time>2000-01-01T14:23:08.000Z</time>
      </trkpt>
      <trkpt lat="45.91558" lon="7.68733">
        <ele>2984.2</ele>
        <time>2000-01-01T14:23:18.000Z</time>
      </trkpt>
      <trkpt lat="45.91553" lon="7.68752">
        <ele>2983</ele>
        <time>2000-01-01T14:23:28.000Z</time>
      </trkpt>
      <trkpt lat="45.91538" lon="7.6876">
        <ele>2988.1</ele>
        <time>2000-01-01T14:23:38.000Z</time>
      </trkpt>
      <trkpt lat="45.91506" lon="7.68773">
        <ele>2979</ele>
        <time>2000-01-01T14:23:48.000Z</time>
      </trkpt>
      <trkpt lat="45.91492" lon="7.68769">
        <ele>2990.5</ele>
        <time>2000-01-01T14:23:58.000Z</time>
      </trkpt>
      <trkpt lat="45.91482" lon="7.68778">
        <ele>2977</ele>
        <time>2000-01-01T14:24:08.000Z</time>
      </trkpt>
      <trkpt lat="45.91469" lon="7.68785">
        <ele>2986.1</ele>
        <time>2000-01-01T14:24:18.000Z</time>
      </trkpt>
      <trkpt lat="45.91457" lon="7.6879">
        <ele>2972</ele>
        <time>2000-01-01T14:24:28.000Z</time>
      </trkpt>
      <trkpt lat="45.91443" lon="7.68801">
        <ele>2983.2</ele>
        <time>2000-01-01T14:24:38.000Z</time>
      </trkpt>
      <trkpt lat="45.91431" lon="7.68806">
        <ele>2964</ele>
        <time>2000-01-01T14:24:48.000Z</time>
      </trkpt>
      <trkpt lat="45.914" lon="7.68809">
        <ele>2961</ele>
        <time>2000-01-01T14:24:58.000Z</time>
      </trkpt>
      <trkpt lat="45.91375" lon="7.68808">
        <ele>2953</ele>
        <time>2000-01-01T14:25:08.000Z</time>
      </trkpt>
      <trkpt lat="45.91364" lon="7.68804">
        <ele>2968.1</ele>
        <time>2000-01-01T14:25:18.000Z</time>
      </trkpt>
      <trkpt lat="45.91354" lon="7.68811">
        <ele>2944</ele>
        <time>2000-01-01T14:25:28.000Z</time>
      </trkpt>
      <trkpt lat="45.91343" lon="7.6881">
        <ele>2959.2</ele>
        <time>2000-01-01T14:25:38.000Z</time>
      </trkpt>
      <trkpt lat="45.91328" lon="7.68798">
        <ele>2943</ele>
        <time>2000-01-01T14:25:48.000Z</time>
      </trkpt>
      <trkpt lat="45.91311" lon="7.688">
        <ele>2953.5</ele>
        <time>2000-01-01T14:25:58.000Z</time>
      </trkpt>
      <trkpt lat="45.91293" lon="7.68796">
        <ele>2934</ele>
        <time>2000-01-01T14:26:08.000Z</time>
      </trkpt>
      <trkpt lat="45.91276" lon="7.68778">
        <ele>2933</ele>
        <time>2000-01-01T14:26:18.000Z</time>
      </trkpt>
      <trkpt lat="45.91269" lon="7.68769">
        <ele>2943.6</ele>
        <time>2000-01-01T14:26:28.000Z</time>
      </trkpt>
      <trkpt lat="45.91261" lon="7.68756">
        <ele>2932</ele>
        <time>2000-01-01T14:26:38.000Z</time>
      </trkpt>
      <trkpt lat="45.91249" lon="7.68751">
        <ele>2938.6</ele>
        <time>2000-01-01T14:26:48.000Z</time>
      </trkpt>
      <trkpt lat="45.91235" lon="7.68746">
        <ele>2929</ele>
        <time>2000-01-01T14:26:58.000Z</time>
      </trkpt>
      <trkpt lat="45.91225" lon="7.68744">
        <ele>2935.5</ele>
        <time>2000-01-01T14:27:08.000Z</time>
      </trkpt>
      <trkpt lat="45.91215" lon="7.6874">
        <ele>2927</ele>
        <time>2000-01-01T14:27:18.000Z</time>
      </trkpt>
      <trkpt lat="45.912" lon="7.68745">
        <ele>2933.8</ele>
        <time>2000-01-01T14:27:28.000Z</time>
      </trkpt>
      <trkpt lat="45.91182" lon="7.68754">
        <ele>2923</ele>
        <time>2000-01-01T14:27:38.000Z</time>
      </trkpt>
      <trkpt lat="45.9117" lon="7.68758">
        <ele>2930.7</ele>
        <time>2000-01-01T14:27:48.000Z</time>
      </trkpt>
      <trkpt lat="45.91156" lon="7.68755">
        <ele>2919</ele>
        <time>2000-01-01T14:27:58.000Z</time>
      </trkpt>
      <trkpt lat="45.91144" lon="7.68765">
        <ele>2922.1</ele>
        <time>2000-01-01T14:28:08.000Z</time>
      </trkpt>
      <trkpt lat="45.91131" lon="7.68762">
        <ele>2914</ele>
        <time>2000-01-01T14:28:18.000Z</time>
      </trkpt>
      <trkpt lat="45.91122" lon="7.68765">
        <ele>2915.2</ele>
        <time>2000-01-01T14:28:28.000Z</time>
      </trkpt>
      <trkpt lat="45.91107" lon="7.6877">
        <ele>2904</ele>
        <time>2000-01-01T14:28:38.000Z</time>
      </trkpt>
      <trkpt lat="45.91097" lon="7.68772">
        <ele>2906.5</ele>
        <time>2000-01-01T14:28:48.000Z</time>
      </trkpt>
      <trkpt lat="45.91087" lon="7.6878">
        <ele>2893</ele>
        <time>2000-01-01T14:28:58.000Z</time>
      </trkpt>
      <trkpt lat="45.91065" lon="7.688">
        <ele>2884</ele>
        <time>2000-01-01T14:29:08.000Z</time>
      </trkpt>
      <trkpt lat="45.91064" lon="7.68813">
        <ele>2885.4</ele>
        <time>2000-01-01T14:29:18.000Z</time>
      </trkpt>
      <trkpt lat="45.91065" lon="7.68826">
        <ele>2878.3</ele>
        <time>2000-01-01T14:29:28.000Z</time>
      </trkpt>
      <trkpt lat="45.91071" lon="7.6884">
        <ele>2876</ele>
        <time>2000-01-01T14:29:38.000Z</time>
      </trkpt>
      <trkpt lat="45.91062" lon="7.68843">
        <ele>2870</ele>
        <time>2000-01-01T14:29:48.000Z</time>
      </trkpt>
      <trkpt lat="45.9106" lon="7.6886">
        <ele>2865</ele>
        <time>2000-01-01T14:29:58.000Z</time>
      </trkpt>
      <trkpt lat="45.91055" lon="7.68876">
        <ele>2855.4</ele>
        <time>2000-01-01T14:30:08.000Z</time>
      </trkpt>
      <trkpt lat="45.91062" lon="7.68892">
        <ele>2855</ele>
        <time>2000-01-01T14:30:18.000Z</time>
      </trkpt>
      <trkpt lat="45.91046" lon="7.68916">
        <ele>2845</ele>
        <time>2000-01-01T14:30:28.000Z</time>
      </trkpt>
      <trkpt lat="45.91052" lon="7.6893">
        <ele>2833.6</ele>
        <time>2000-01-01T14:30:38.000Z</time>
      </trkpt>
      <trkpt lat="45.91048" lon="7.68944">
        <ele>2837</ele>
        <time>2000-01-01T14:30:48.000Z</time>
      </trkpt>
      <trkpt lat="45.91041" lon="7.68956">
        <ele>2822.5</ele>
        <time>2000-01-01T14:30:58.000Z</time>
      </trkpt>
      <trkpt lat="45.91036" lon="7.68971">
        <ele>2827</ele>
        <time>2000-01-01T14:31:08.000Z</time>
      </trkpt>
      <trkpt lat="45.91039" lon="7.68991">
        <ele>2811.2</ele>
        <time>2000-01-01T14:31:18.000Z</time>
      </trkpt>
      <trkpt lat="45.91049" lon="7.69006">
        <ele>2824</ele>
        <time>2000-01-01T14:31:28.000Z</time>
      </trkpt>
      <trkpt lat="45.91041" lon="7.69022">
        <ele>2806.2</ele>
        <time>2000-01-01T14:31:38.000Z</time>
      </trkpt>
      <trkpt lat="45.9104" lon="7.69042">
        <ele>2818</ele>
        <time>2000-01-01T14:31:48.000Z</time>
      </trkpt>
      <trkpt lat="45.91016" lon="7.69047">
        <ele>2817</ele>
        <time>2000-01-01T14:31:58.000Z</time>
      </trkpt>
      <trkpt lat="45.90993" lon="7.69049">
        <ele>2815</ele>
        <time>2000-01-01T14:32:08.000Z</time>
      </trkpt>
      <trkpt lat="45.90977" lon="7.69049">
        <ele>2802.6</ele>
        <time>2000-01-01T14:32:18.000Z</time>
      </trkpt>
      <trkpt lat="45.90966" lon="7.69047">
        <ele>2811</ele>
        <time>2000-01-01T14:32:28.000Z</time>
      </trkpt>
      <trkpt lat="45.90934" lon="7.69035">
        <ele>2806</ele>
        <time>2000-01-01T14:32:38.000Z</time>
      </trkpt>
      <trkpt lat="45.90915" lon="7.69036">
        <ele>2802</ele>
        <time>2000-01-01T14:32:48.000Z</time>
      </trkpt>
      <trkpt lat="45.90905" lon="7.69035">
        <ele>2797.6</ele>
        <time>2000-01-01T14:32:58.000Z</time>
      </trkpt>
      <trkpt lat="45.90893" lon="7.69031">
        <ele>2800</ele>
        <time>2000-01-01T14:33:08.000Z</time>
      </trkpt>
      <trkpt lat="45.90881" lon="7.69026">
        <ele>2791.5</ele>
        <time>2000-01-01T14:33:18.000Z</time>
      </trkpt>
      <trkpt lat="45.90868" lon="7.69023">
        <ele>2795</ele>
        <time>2000-01-01T14:33:28.000Z</time>
      </trkpt>
      <trkpt lat="45.90839" lon="7.6902">
        <ele>2789</ele>
        <time>2000-01-01T14:33:38.000Z</time>
      </trkpt>
      <trkpt lat="45.90829" lon="7.69016">
        <ele>2784.2</ele>
        <time>2000-01-01T14:33:48.000Z</time>
      </trkpt>
      <trkpt lat="45.90815" lon="7.69017">
        <ele>2785</ele>
        <time>2000-01-01T14:33:58.000Z</time>
      </trkpt>
      <trkpt lat="45.908" lon="7.69015">
        <ele>2781.8</ele>
        <time>2000-01-01T14:34:08.000Z</time>
      </trkpt>
      <trkpt lat="45.90784" lon="7.69021">
        <ele>2781</ele>
        <time>2000-01-01T14:34:18.000Z</time>
      </trkpt>
      <trkpt lat="45.90772" lon="7.69023">
        <ele>2779.1</ele>
        <time>2000-01-01T14:34:28.000Z</time>
      </trkpt>
      <trkpt lat="45.90757" lon="7.69023">
        <ele>2776</ele>
        <time>2000-01-01T14:34:38.000Z</time>
      </trkpt>
      <trkpt lat="45.90733" lon="7.6901">
        <ele>2771</ele>
        <time>2000-01-01T14:34:48.000Z</time>
      </trkpt>
      <trkpt lat="45.90718" lon="7.69006">
        <ele>2772.6</ele>
        <time>2000-01-01T14:34:58.000Z</time>
      </trkpt>
      <trkpt lat="45.90701" lon="7.69012">
        <ele>2766</ele>
        <time>2000-01-01T14:35:08.000Z</time>
      </trkpt>
      <trkpt lat="45.90685" lon="7.69014">
        <ele>2770.3</ele>
        <time>2000-01-01T14:35:18.000Z</time>
      </trkpt>
      <trkpt lat="45.90661" lon="7.69005">
        <ele>2759</ele>
        <time>2000-01-01T14:35:28.000Z</time>
      </trkpt>
      <trkpt lat="45.90653" lon="7.68997">
        <ele>2765</ele>
        <time>2000-01-01T14:35:38.000Z</time>
      </trkpt>
      <trkpt lat="45.90643" lon="7.68992">
        <ele>2755</ele>
        <time>2000-01-01T14:35:48.000Z</time>
      </trkpt>
      <trkpt lat="45.90636" lon="7.68983">
        <ele>2759.5</ele>
        <time>2000-01-01T14:35:58.000Z</time>
      </trkpt>
      <trkpt lat="45.90628" lon="7.68978">
        <ele>2757.2</ele>
        <time>2000-01-01T14:36:08.000Z</time>
      </trkpt>
      <trkpt lat="45.90613" lon="7.68979">
        <ele>2749</ele>
        <time>2000-01-01T14:36:18.000Z</time>
      </trkpt>
      <trkpt lat="45.906" lon="7.68988">
        <ele>2754.2</ele>
        <time>2000-01-01T14:36:28.000Z</time>
      </trkpt>
      <trkpt lat="45.90595" lon="7.68971">
        <ele>2748</ele>
        <time>2000-01-01T14:36:38.000Z</time>
      </trkpt>
      <trkpt lat="45.90593" lon="7.68955">
        <ele>2747</ele>
        <time>2000-01-01T14:36:48.000Z</time>
      </trkpt>
      <trkpt lat="45.90576" lon="7.68911">
        <ele>2740</ele>
        <time>2000-01-01T14:36:58.000Z</time>
      </trkpt>
      <trkpt lat="45.90568" lon="7.68895">
        <ele>2738.3</ele>
        <time>2000-01-01T14:37:08.000Z</time>
      </trkpt>
      <trkpt lat="45.90552" lon="7.68883">
        <ele>2738</ele>
        <time>2000-01-01T14:37:18.000Z</time>
      </trkpt>
      <trkpt lat="45.90537" lon="7.68878">
        <ele>2734</ele>
        <time>2000-01-01T14:37:28.000Z</time>
      </trkpt>
      <trkpt lat="45.90526" lon="7.68867">
        <ele>2734</ele>
        <time>2000-01-01T14:37:38.000Z</time>
      </trkpt>
      <trkpt lat="45.90514" lon="7.68863">
        <ele>2729.5</ele>
        <time>2000-01-01T14:37:48.000Z</time>
      </trkpt>
      <trkpt lat="45.90502" lon="7.68861">
        <ele>2732</ele>
        <time>2000-01-01T14:37:58.000Z</time>
      </trkpt>
      <trkpt lat="45.90478" lon="7.68846">
        <ele>2724</ele>
        <time>2000-01-01T14:38:08.000Z</time>
      </trkpt>
      <trkpt lat="45.90461" lon="7.6884">
        <ele>2725.4</ele>
        <time>2000-01-01T14:38:18.000Z</time>
      </trkpt>
      <trkpt lat="45.90422" lon="7.68834">
        <ele>2715</ele>
        <time>2000-01-01T14:38:28.000Z</time>
      </trkpt>
      <trkpt lat="45.90412" lon="7.68831">
        <ele>2721.6</ele>
        <time>2000-01-01T14:38:38.000Z</time>
      </trkpt>
      <trkpt lat="45.90392" lon="7.6885">
        <ele>2714</ele>
        <time>2000-01-01T14:38:48.000Z</time>
      </trkpt>
      <trkpt lat="45.90375" lon="7.68864">
        <ele>2714</ele>
        <time>2000-01-01T14:38:58.000Z</time>
      </trkpt>
      <trkpt lat="45.90364" lon="7.68867">
        <ele>2722.2</ele>
        <time>2000-01-01T14:39:08.000Z</time>
      </trkpt>
      <trkpt lat="45.90347" lon="7.68881">
        <ele>2713</ele>
        <time>2000-01-01T14:39:18.000Z</time>
      </trkpt>
      <trkpt lat="45.90331" lon="7.68882">
        <ele>2713.1</ele>
        <time>2000-01-01T14:39:28.000Z</time>
      </trkpt>
      <trkpt lat="45.90319" lon="7.68894">
        <ele>2709</ele>
        <time>2000-01-01T14:39:38.000Z</time>
      </trkpt>
      <trkpt lat="45.90306" lon="7.68902">
        <ele>2708</ele>
        <time>2000-01-01T14:39:48.000Z</time>
      </trkpt>
      <trkpt lat="45.90293" lon="7.68916">
        <ele>2706</ele>
        <time>2000-01-01T14:39:58.000Z</time>
      </trkpt>
      <trkpt lat="45.90276" lon="7.68922">
        <ele>2705.7</ele>
        <time>2000-01-01T14:40:08.000Z</time>
      </trkpt>
      <trkpt lat="45.90261" lon="7.68925">
        <ele>2702</ele>
        <time>2000-01-01T14:40:18.000Z</time>
      </trkpt>
      <trkpt lat="45.90246" lon="7.68936">
        <ele>2702.6</ele>
        <time>2000-01-01T14:40:28.000Z</time>
      </trkpt>
      <trkpt lat="45.90235" lon="7.68944">
        <ele>2698</ele>
        <time>2000-01-01T14:40:38.000Z</time>
      </trkpt>
      <trkpt lat="45.90225" lon="7.68947">
        <ele>2698.3</ele>
        <time>2000-01-01T14:40:48.000Z</time>
      </trkpt>
      <trkpt lat="45.90203" lon="7.68958">
        <ele>2696</ele>
        <time>2000-01-01T14:40:58.000Z</time>
      </trkpt>
      <trkpt lat="45.90187" lon="7.68968">
        <ele>2695.8</ele>
        <time>2000-01-01T14:41:08.000Z</time>
      </trkpt>
      <trkpt lat="45.90172" lon="7.68983">
        <ele>2696</ele>
        <time>2000-01-01T14:41:18.000Z</time>
      </trkpt>
      <trkpt lat="45.90157" lon="7.69001">
        <ele>2695</ele>
        <time>2000-01-01T14:41:28.000Z</time>
      </trkpt>
      <trkpt lat="45.90141" lon="7.69012">
        <ele>2694.5</ele>
        <time>2000-01-01T14:41:38.000Z</time>
      </trkpt>
      <trkpt lat="45.90127" lon="7.69019">
        <ele>2692</ele>
        <time>2000-01-01T14:41:48.000Z</time>
      </trkpt>
      <trkpt lat="45.90119" lon="7.6903">
        <ele>2690.9</ele>
        <time>2000-01-01T14:41:58.000Z</time>
      </trkpt>
      <trkpt lat="45.90107" lon="7.69035">
        <ele>2689</ele>
        <time>2000-01-01T14:42:08.000Z</time>
      </trkpt>
      <trkpt lat="45.90096" lon="7.69052">
        <ele>2686.4</ele>
        <time>2000-01-01T14:42:18.000Z</time>
      </trkpt>
      <trkpt lat="45.90083" lon="7.69064">
        <ele>2688</ele>
        <time>2000-01-01T14:42:28.000Z</time>
      </trkpt>
      <trkpt lat="45.90072" lon="7.69068">
        <ele>2678.1</ele>
        <time>2000-01-01T14:42:38.000Z</time>
      </trkpt>
      <trkpt lat="45.90065" lon="7.6908">
        <ele>2687</ele>
        <time>2000-01-01T14:42:48.000Z</time>
      </trkpt>
      <trkpt lat="45.90053" lon="7.69084">
        <ele>2669.8</ele>
        <time>2000-01-01T14:42:58.000Z</time>
      </trkpt>
      <trkpt lat="45.9005" lon="7.69096">
        <ele>2685</ele>
        <time>2000-01-01T14:43:08.000Z</time>
      </trkpt>
      <trkpt lat="45.90041" lon="7.69108">
        <ele>2666.5</ele>
        <time>2000-01-01T14:43:18.000Z</time>
      </trkpt>
      <trkpt lat="45.90032" lon="7.69125">
        <ele>2681</ele>
        <time>2000-01-01T14:43:28.000Z</time>
      </trkpt>
      <trkpt lat="45.90023" lon="7.69132">
        <ele>2662.1</ele>
        <time>2000-01-01T14:43:38.000Z</time>
      </trkpt>
      <trkpt lat="45.90009" lon="7.69149">
        <ele>2677</ele>
        <time>2000-01-01T14:43:48.000Z</time>
      </trkpt>
      <trkpt lat="45.90002" lon="7.69159">
        <ele>2657.4</ele>
        <time>2000-01-01T14:43:58.000Z</time>
      </trkpt>
      <trkpt lat="45.89993" lon="7.69182">
        <ele>2670</ele>
        <time>2000-01-01T14:44:08.000Z</time>
      </trkpt>
      <trkpt lat="45.89989" lon="7.69205">
        <ele>2653</ele>
        <time>2000-01-01T14:44:18.000Z</time>
      </trkpt>
      <trkpt lat="45.89984" lon="7.69221">
        <ele>2660</ele>
        <time>2000-01-01T14:44:28.000Z</time>
      </trkpt>
      <trkpt lat="45.89981" lon="7.69236">
        <ele>2645.7</ele>
        <time>2000-01-01T14:44:38.000Z</time>
      </trkpt>
      <trkpt lat="45.89977" lon="7.69252">
        <ele>2651</ele>
        <time>2000-01-01T14:44:48.000Z</time>
      </trkpt>
      <trkpt lat="45.89969" lon="7.69263">
        <ele>2635.4</ele>
        <time>2000-01-01T14:44:58.000Z</time>
      </trkpt>
      <trkpt lat="45.89966" lon="7.6928">
        <ele>2643</ele>
        <time>2000-01-01T14:45:08.000Z</time>
      </trkpt>
      <trkpt lat="45.89963" lon="7.69308">
        <ele>2636</ele>
        <time>2000-01-01T14:45:18.000Z</time>
      </trkpt>
      <trkpt lat="45.89967" lon="7.69325">
        <ele>2622.7</ele>
        <time>2000-01-01T14:45:28.000Z</time>
      </trkpt>
      <trkpt lat="45.89966" lon="7.69343">
        <ele>2626</ele>
        <time>2000-01-01T14:45:38.000Z</time>
      </trkpt>
      <trkpt lat="45.89953" lon="7.69347">
        <ele>2611</ele>
        <time>2000-01-01T14:45:48.000Z</time>
      </trkpt>
      <trkpt lat="45.89944" lon="7.69334">
        <ele>2622</ele>
        <time>2000-01-01T14:45:58.000Z</time>
      </trkpt>
      <trkpt lat="45.89936" lon="7.69321">
        <ele>2608.7</ele>
        <time>2000-01-01T14:46:08.000Z</time>
      </trkpt>
      <trkpt lat="45.89927" lon="7.69314">
        <ele>2622</ele>
        <time>2000-01-01T14:46:18.000Z</time>
      </trkpt>
      <trkpt lat="45.89922" lon="7.69332">
        <ele>2600.6</ele>
        <time>2000-01-01T14:46:28.000Z</time>
      </trkpt>
      <trkpt lat="45.89903" lon="7.69347">
        <ele>2610</ele>
        <time>2000-01-01T14:46:38.000Z</time>
      </trkpt>
      <trkpt lat="45.89893" lon="7.69363">
        <ele>2587.2</ele>
        <time>2000-01-01T14:46:48.000Z</time>
      </trkpt>
      <trkpt lat="45.89882" lon="7.69373">
        <ele>2597</ele>
        <time>2000-01-01T14:46:58.000Z</time>
      </trkpt>
      <trkpt lat="45.89867" lon="7.69381">
        <ele>2579</ele>
        <time>2000-01-01T14:47:08.000Z</time>
      </trkpt>
      <trkpt lat="45.89861" lon="7.69393">
        <ele>2591</ele>
        <time>2000-01-01T14:47:18.000Z</time>
      </trkpt>
      <trkpt lat="45.89849" lon="7.69405">
        <ele>2574.2</ele>
        <time>2000-01-01T14:47:28.000Z</time>
      </trkpt>
      <trkpt lat="45.89839" lon="7.69418">
        <ele>2586</ele>
        <time>2000-01-01T14:47:38.000Z</time>
      </trkpt>
      <trkpt lat="45.8981" lon="7.69448">
        <ele>2581</ele>
        <time>2000-01-01T14:47:48.000Z</time>
      </trkpt>
      <trkpt lat="45.89795" lon="7.6946">
        <ele>2565</ele>
        <time>2000-01-01T14:47:58.000Z</time>
      </trkpt>
      <trkpt lat="45.89778" lon="7.6947">
        <ele>2578</ele>
        <time>2000-01-01T14:48:08.000Z</time>
      </trkpt>
      <trkpt lat="45.89769" lon="7.69475">
        <ele>2562.9</ele>
        <time>2000-01-01T14:48:18.000Z</time>
      </trkpt>
      <trkpt lat="45.89761" lon="7.69482">
        <ele>2578</ele>
        <time>2000-01-01T14:48:28.000Z</time>
      </trkpt>
      <trkpt lat="45.8975" lon="7.69484">
        <ele>2562.2</ele>
        <time>2000-01-01T14:48:38.000Z</time>
      </trkpt>
      <trkpt lat="45.8974" lon="7.69486">
        <ele>2578</ele>
        <time>2000-01-01T14:48:48.000Z</time>
      </trkpt>
      <trkpt lat="45.89711" lon="7.69499">
        <ele>2577</ele>
        <time>2000-01-01T14:48:58.000Z</time>
      </trkpt>
      <trkpt lat="45.89688" lon="7.69514">
        <ele>2575</ele>
        <time>2000-01-01T14:49:08.000Z</time>
      </trkpt>
      <trkpt lat="45.89677" lon="7.69523">
        <ele>2557.9</ele>
        <time>2000-01-01T14:49:18.000Z</time>
      </trkpt>
      <trkpt lat="45.89658" lon="7.69509">
        <ele>2574</ele>
        <time>2000-01-01T14:49:28.000Z</time>
      </trkpt>
      <trkpt lat="45.89645" lon="7.69508">
        <ele>2557.9</ele>
        <time>2000-01-01T14:49:38.000Z</time>
      </trkpt>
      <trkpt lat="45.89636" lon="7.69504">
        <ele>2572</ele>
        <time>2000-01-01T14:49:48.000Z</time>
      </trkpt>
      <trkpt lat="45.89624" lon="7.69495">
        <ele>2555.4</ele>
        <time>2000-01-01T14:49:58.000Z</time>
      </trkpt>
      <trkpt lat="45.89615" lon="7.69485">
        <ele>2571</ele>
        <time>2000-01-01T14:50:08.000Z</time>
      </trkpt>
      <trkpt lat="45.89606" lon="7.69478">
        <ele>2553.6</ele>
        <time>2000-01-01T14:50:18.000Z</time>
      </trkpt>
      <trkpt lat="45.89587" lon="7.69476">
        <ele>2568</ele>
        <time>2000-01-01T14:50:28.000Z</time>
      </trkpt>
      <trkpt lat="45.8957" lon="7.69482">
        <ele>2552.5</ele>
        <time>2000-01-01T14:50:38.000Z</time>
      </trkpt>
      <trkpt lat="45.89557" lon="7.69497">
        <ele>2564</ele>
        <time>2000-01-01T14:50:48.000Z</time>
      </trkpt>
      <trkpt lat="45.89547" lon="7.69502">
        <ele>2554</ele>
        <time>2000-01-01T14:50:58.000Z</time>
      </trkpt>
      <trkpt lat="45.89533" lon="7.695">
        <ele>2562</ele>
        <time>2000-01-01T14:51:08.000Z</time>
      </trkpt>
      <trkpt lat="45.89521" lon="7.69501">
        <ele>2553.7</ele>
        <time>2000-01-01T14:51:18.000Z</time>
      </trkpt>
      <trkpt lat="45.89503" lon="7.69503">
        <ele>2560</ele>
        <time>2000-01-01T14:51:28.000Z</time>
      </trkpt>
      <trkpt lat="45.89483" lon="7.69514">
        <ele>2559</ele>
        <time>2000-01-01T14:51:38.000Z</time>
      </trkpt>
      <trkpt lat="45.89477" lon="7.69531">
        <ele>2550.7</ele>
        <time>2000-01-01T14:51:48.000Z</time>
      </trkpt>
      <trkpt lat="45.89474" lon="7.69558">
        <ele>2559</ele>
        <time>2000-01-01T14:51:58.000Z</time>
      </trkpt>
      <trkpt lat="45.89457" lon="7.69577">
        <ele>2557</ele>
        <time>2000-01-01T14:52:08.000Z</time>
      </trkpt>
      <trkpt lat="45.8943" lon="7.69587">
        <ele>2554</ele>
        <time>2000-01-01T14:52:18.000Z</time>
      </trkpt>
      <trkpt lat="45.89421" lon="7.69586">
        <ele>2542.1</ele>
        <time>2000-01-01T14:52:28.000Z</time>
      </trkpt>
      <trkpt lat="45.89405" lon="7.69604">
        <ele>2551</ele>
        <time>2000-01-01T14:52:38.000Z</time>
      </trkpt>
      <trkpt lat="45.89392" lon="7.69607">
        <ele>2535.6</ele>
        <time>2000-01-01T14:52:48.000Z</time>
      </trkpt>
      <trkpt lat="45.89382" lon="7.69616">
        <ele>2547</ele>
        <time>2000-01-01T14:52:58.000Z</time>
      </trkpt>
      <trkpt lat="45.89376" lon="7.69632">
        <ele>2529</ele>
        <time>2000-01-01T14:53:08.000Z</time>
      </trkpt>
      <trkpt lat="45.89362" lon="7.6965">
        <ele>2541</ele>
        <time>2000-01-01T14:53:18.000Z</time>
      </trkpt>
      <trkpt lat="45.89353" lon="7.69672">
        <ele>2523.2</ele>
        <time>2000-01-01T14:53:28.000Z</time>
      </trkpt>
      <trkpt lat="45.8934" lon="7.6969">
        <ele>2531</ele>
        <time>2000-01-01T14:53:38.000Z</time>
      </trkpt>
      <trkpt lat="45.89325" lon="7.69717">
        <ele>2527</ele>
        <time>2000-01-01T14:53:48.000Z</time>
      </trkpt>
      <trkpt lat="45.89322" lon="7.69731">
        <ele>2511.5</ele>
        <time>2000-01-01T14:53:58.000Z</time>
      </trkpt>
      <trkpt lat="45.89313" lon="7.69744">
        <ele>2523</ele>
        <time>2000-01-01T14:54:08.000Z</time>
      </trkpt>
      <trkpt lat="45.89308" lon="7.6976">
        <ele>2506.8</ele>
        <time>2000-01-01T14:54:18.000Z</time>
      </trkpt>
      <trkpt lat="45.89296" lon="7.69776">
        <ele>2520</ele>
        <time>2000-01-01T14:54:28.000Z</time>
      </trkpt>
      <trkpt lat="45.89284" lon="7.69792">
        <ele>2501.8</ele>
        <time>2000-01-01T14:54:38.000Z</time>
      </trkpt>
      <trkpt lat="45.8928" lon="7.69805">
        <ele>2517</ele>
        <time>2000-01-01T14:54:48.000Z</time>
      </trkpt>
      <trkpt lat="45.89276" lon="7.69825">
        <ele>2495.4</ele>
        <time>2000-01-01T14:54:58.000Z</time>
      </trkpt>
      <trkpt lat="45.89278" lon="7.69839">
        <ele>2514</ele>
        <time>2000-01-01T14:55:08.000Z</time>
      </trkpt>
      <trkpt lat="45.89276" lon="7.69855">
        <ele>2492.1</ele>
        <time>2000-01-01T14:55:18.000Z</time>
      </trkpt>
      <trkpt lat="45.89283" lon="7.69866">
        <ele>2514</ele>
        <time>2000-01-01T14:55:28.000Z</time>
      </trkpt>
      <trkpt lat="45.89284" lon="7.69887">
        <ele>2492.5</ele>
        <time>2000-01-01T14:55:38.000Z</time>
      </trkpt>
      <trkpt lat="45.89286" lon="7.69904">
        <ele>2511</ele>
        <time>2000-01-01T14:55:48.000Z</time>
      </trkpt>
      <trkpt lat="45.89284" lon="7.69924">
        <ele>2488.6</ele>
        <time>2000-01-01T14:55:58.000Z</time>
      </trkpt>
      <trkpt lat="45.89285" lon="7.69945">
        <ele>2507</ele>
        <time>2000-01-01T14:56:08.000Z</time>
      </trkpt>
      <trkpt lat="45.89282" lon="7.6996">
        <ele>2482.9</ele>
        <time>2000-01-01T14:56:18.000Z</time>
      </trkpt>
      <trkpt lat="45.89279" lon="7.69985">
        <ele>2499</ele>
        <time>2000-01-01T14:56:28.000Z</time>
      </trkpt>
      <trkpt lat="45.89277" lon="7.70003">
        <ele>2471.5</ele>
        <time>2000-01-01T14:56:38.000Z</time>
      </trkpt>
      <trkpt lat="45.8928" lon="7.70016">
        <ele>2496</ele>
        <time>2000-01-01T14:56:48.000Z</time>
      </trkpt>
      <trkpt lat="45.89281" lon="7.7003">
        <ele>2465.9</ele>
        <time>2000-01-01T14:56:58.000Z</time>
      </trkpt>
      <trkpt lat="45.89272" lon="7.70038">
        <ele>2488</ele>
        <time>2000-01-01T14:57:08.000Z</time>
      </trkpt>
      <trkpt lat="45.89269" lon="7.70056">
        <ele>2458.9</ele>
        <time>2000-01-01T14:57:18.000Z</time>
      </trkpt>
      <trkpt lat="45.89268" lon="7.7007">
        <ele>2480</ele>
        <time>2000-01-01T14:57:28.000Z</time>
      </trkpt>
      <trkpt lat="45.89277" lon="7.70086">
        <ele>2450</ele>
        <time>2000-01-01T14:57:38.000Z</time>
      </trkpt>
      <trkpt lat="45.89281" lon="7.70099">
        <ele>2471</ele>
        <time>2000-01-01T14:57:48.000Z</time>
      </trkpt>
      <trkpt lat="45.89289" lon="7.70106">
        <ele>2445.1</ele>
        <time>2000-01-01T14:57:58.000Z</time>
      </trkpt>
      <trkpt lat="45.89284" lon="7.70124">
        <ele>2458</ele>
        <time>2000-01-01T14:58:08.000Z</time>
      </trkpt>
      <trkpt lat="45.89282" lon="7.7014">
        <ele>2434.2</ele>
        <time>2000-01-01T14:58:18.000Z</time>
      </trkpt>
      <trkpt lat="45.89286" lon="7.70155">
        <ele>2446</ele>
        <time>2000-01-01T14:58:28.000Z</time>
      </trkpt>
      <trkpt lat="45.89293" lon="7.70171">
        <ele>2425.4</ele>
        <time>2000-01-01T14:58:38.000Z</time>
      </trkpt>
      <trkpt lat="45.89302" lon="7.70187">
        <ele>2440</ele>
        <time>2000-01-01T14:58:48.000Z</time>
      </trkpt>
      <trkpt lat="45.89307" lon="7.70199">
        <ele>2417.5</ele>
        <time>2000-01-01T14:58:58.000Z</time>
      </trkpt>
      <trkpt lat="45.8932" lon="7.70195">
        <ele>2439</ele>
        <time>2000-01-01T14:59:08.000Z</time>
      </trkpt>
      <trkpt lat="45.8932" lon="7.7021">
        <ele>2411.4</ele>
        <time>2000-01-01T14:59:18.000Z</time>
      </trkpt>
      <trkpt lat="45.89312" lon="7.70221">
        <ele>2431</ele>
        <time>2000-01-01T14:59:28.000Z</time>
      </trkpt>
      <trkpt lat="45.89306" lon="7.70236">
        <ele>2404</ele>
        <time>2000-01-01T14:59:38.000Z</time>
      </trkpt>
      <trkpt lat="45.893" lon="7.70252">
        <ele>2422</ele>
        <time>2000-01-01T14:59:48.000Z</time>
      </trkpt>
      <trkpt lat="45.89294" lon="7.70272">
        <ele>2398</ele>
        <time>2000-01-01T14:59:58.000Z</time>
      </trkpt>
      <trkpt lat="45.89287" lon="7.70318">
        <ele>2407</ele>
        <time>2000-01-01T15:00:08.000Z</time>
      </trkpt>
      <trkpt lat="45.89283" lon="7.70332">
        <ele>2392.5</ele>
        <time>2000-01-01T15:00:18.000Z</time>
      </trkpt>
      <trkpt lat="45.89272" lon="7.70347">
        <ele>2401</ele>
        <time>2000-01-01T15:00:28.000Z</time>
      </trkpt>
      <trkpt lat="45.89267" lon="7.70359">
        <ele>2390.2</ele>
        <time>2000-01-01T15:00:38.000Z</time>
      </trkpt>
      <trkpt lat="45.89268" lon="7.70375">
        <ele>2397</ele>
        <time>2000-01-01T15:00:48.000Z</time>
      </trkpt>
      <trkpt lat="45.89257" lon="7.70394">
        <ele>2387.3</ele>
        <time>2000-01-01T15:00:58.000Z</time>
      </trkpt>
      <trkpt lat="45.89238" lon="7.70407">
        <ele>2393</ele>
        <time>2000-01-01T15:01:08.000Z</time>
      </trkpt>
      <trkpt lat="45.89225" lon="7.70418">
        <ele>2386</ele>
        <time>2000-01-01T15:01:18.000Z</time>
      </trkpt>
      <trkpt lat="45.8921" lon="7.70432">
        <ele>2389</ele>
        <time>2000-01-01T15:01:28.000Z</time>
      </trkpt>
      <trkpt lat="45.89204" lon="7.70442">
        <ele>2382</ele>
        <time>2000-01-01T15:01:38.000Z</time>
      </trkpt>
      <trkpt lat="45.89192" lon="7.70459">
        <ele>2386</ele>
        <time>2000-01-01T15:01:48.000Z</time>
      </trkpt>
      <trkpt lat="45.89171" lon="7.70474">
        <ele>2385</ele>
        <time>2000-01-01T15:01:58.000Z</time>
      </trkpt>
      <trkpt lat="45.89161" lon="7.70492">
        <ele>2374.7</ele>
        <time>2000-01-01T15:02:08.000Z</time>
      </trkpt>
      <trkpt lat="45.89154" lon="7.70504">
        <ele>2382</ele>
        <time>2000-01-01T15:02:18.000Z</time>
      </trkpt>
      <trkpt lat="45.89144" lon="7.70508">
        <ele>2371.6</ele>
        <time>2000-01-01T15:02:28.000Z</time>
      </trkpt>
      <trkpt lat="45.89138" lon="7.70533">
        <ele>2380</ele>
        <time>2000-01-01T15:02:38.000Z</time>
      </trkpt>
      <trkpt lat="45.89139" lon="7.70549">
        <ele>2371</ele>
        <time>2000-01-01T15:02:48.000Z</time>
      </trkpt>
      <trkpt lat="45.89128" lon="7.70557">
        <ele>2378</ele>
        <time>2000-01-01T15:02:58.000Z</time>
      </trkpt>
      <trkpt lat="45.89114" lon="7.70562">
        <ele>2370.7</ele>
        <time>2000-01-01T15:03:08.000Z</time>
      </trkpt>
      <trkpt lat="45.89099" lon="7.70573">
        <ele>2375</ele>
        <time>2000-01-01T15:03:18.000Z</time>
      </trkpt>
      <trkpt lat="45.89089" lon="7.7059">
        <ele>2370.6</ele>
        <time>2000-01-01T15:03:28.000Z</time>
      </trkpt>
      <trkpt lat="45.89069" lon="7.70582">
        <ele>2373</ele>
        <time>2000-01-01T15:03:38.000Z</time>
      </trkpt>
      <trkpt lat="45.89045" lon="7.70605">
        <ele>2370</ele>
        <time>2000-01-01T15:03:48.000Z</time>
      </trkpt>
      <trkpt lat="45.89021" lon="7.70613">
        <ele>2368</ele>
        <time>2000-01-01T15:03:58.000Z</time>
      </trkpt>
      <trkpt lat="45.88999" lon="7.70629">
        <ele>2364</ele>
        <time>2000-01-01T15:04:08.000Z</time>
      </trkpt>
      <trkpt lat="45.88975" lon="7.70647">
        <ele>2364</ele>
        <time>2000-01-01T15:04:18.000Z</time>
      </trkpt>
      <trkpt lat="45.88961" lon="7.70662">
        <ele>2364.8</ele>
        <time>2000-01-01T15:04:28.000Z</time>
      </trkpt>
      <trkpt lat="45.88939" lon="7.70677">
        <ele>2364</ele>
        <time>2000-01-01T15:04:38.000Z</time>
      </trkpt>
      <trkpt lat="45.88931" lon="7.70685">
        <ele>2361.3</ele>
        <time>2000-01-01T15:04:48.000Z</time>
      </trkpt>
      <trkpt lat="45.88923" lon="7.70713">
        <ele>2364</ele>
        <time>2000-01-01T15:04:58.000Z</time>
      </trkpt>
      <trkpt lat="45.8891" lon="7.70741">
        <ele>2366</ele>
        <time>2000-01-01T15:05:08.000Z</time>
      </trkpt>
      <trkpt lat="45.88905" lon="7.70757">
        <ele>2359.3</ele>
        <time>2000-01-01T15:05:18.000Z</time>
      </trkpt>
      <trkpt lat="45.88888" lon="7.70776">
        <ele>2366</ele>
        <time>2000-01-01T15:05:28.000Z</time>
      </trkpt>
      <trkpt lat="45.88858" lon="7.70793">
        <ele>2366</ele>
        <time>2000-01-01T15:05:38.000Z</time>
      </trkpt>
      <trkpt lat="45.88843" lon="7.70796">
        <ele>2359</ele>
        <time>2000-01-01T15:05:48.000Z</time>
      </trkpt>
      <trkpt lat="45.88832" lon="7.70799">
        <ele>2365</ele>
        <time>2000-01-01T15:05:58.000Z</time>
      </trkpt>
      <trkpt lat="45.88821" lon="7.70797">
        <ele>2357.1</ele>
        <time>2000-01-01T15:06:08.000Z</time>
      </trkpt>
      <trkpt lat="45.88809" lon="7.70791">
        <ele>2363</ele>
        <time>2000-01-01T15:06:18.000Z</time>
      </trkpt>
      <trkpt lat="45.88793" lon="7.70793">
        <ele>2354.4</ele>
        <time>2000-01-01T15:06:28.000Z</time>
      </trkpt>
      <trkpt lat="45.88777" lon="7.70813">
        <ele>2363</ele>
        <time>2000-01-01T15:06:38.000Z</time>
      </trkpt>
      <trkpt lat="45.88758" lon="7.7082">
        <ele>2362</ele>
        <time>2000-01-01T15:06:48.000Z</time>
      </trkpt>
      <trkpt lat="45.88742" lon="7.70818">
        <ele>2356.4</ele>
        <time>2000-01-01T15:06:58.000Z</time>
      </trkpt>
      <trkpt lat="45.88733" lon="7.70823">
        <ele>2362</ele>
        <time>2000-01-01T15:07:08.000Z</time>
      </trkpt>
      <trkpt lat="45.88723" lon="7.70826">
        <ele>2355.1</ele>
        <time>2000-01-01T15:07:18.000Z</time>
      </trkpt>
      <trkpt lat="45.887" lon="7.70842">
        <ele>2361</ele>
        <time>2000-01-01T15:07:28.000Z</time>
      </trkpt>
      <trkpt lat="45.88686" lon="7.70859">
        <ele>2357.1</ele>
        <time>2000-01-01T15:07:38.000Z</time>
      </trkpt>
      <trkpt lat="45.88669" lon="7.70867">
        <ele>2360</ele>
        <time>2000-01-01T15:07:48.000Z</time>
      </trkpt>
      <trkpt lat="45.88659" lon="7.70865">
        <ele>2352.9</ele>
        <time>2000-01-01T15:07:58.000Z</time>
      </trkpt>
      <trkpt lat="45.88635" lon="7.70873">
        <ele>2358</ele>
        <time>2000-01-01T15:08:08.000Z</time>
      </trkpt>
      <trkpt lat="45.88621" lon="7.70873">
        <ele>2351</ele>
        <time>2000-01-01T15:08:18.000Z</time>
      </trkpt>
      <trkpt lat="45.88608" lon="7.70881">
        <ele>2355</ele>
        <time>2000-01-01T15:08:28.000Z</time>
      </trkpt>
      <trkpt lat="45.88592" lon="7.70898">
        <ele>2352</ele>
        <time>2000-01-01T15:08:38.000Z</time>
      </trkpt>
      <trkpt lat="45.88557" lon="7.70927">
        <ele>2348</ele>
        <time>2000-01-01T15:08:48.000Z</time>
      </trkpt>
      <trkpt lat="45.88548" lon="7.70932">
        <ele>2344.6</ele>
        <time>2000-01-01T15:08:58.000Z</time>
      </trkpt>
      <trkpt lat="45.88526" lon="7.70946">
        <ele>2346</ele>
        <time>2000-01-01T15:09:08.000Z</time>
      </trkpt>
      <trkpt lat="45.88509" lon="7.70956">
        <ele>2341.7</ele>
        <time>2000-01-01T15:09:18.000Z</time>
      </trkpt>
      <trkpt lat="45.88503" lon="7.70967">
        <ele>2342</ele>
        <time>2000-01-01T15:09:28.000Z</time>
      </trkpt>
      <trkpt lat="45.88495" lon="7.70981">
        <ele>2338.2</ele>
        <time>2000-01-01T15:09:38.000Z</time>
      </trkpt>
      <trkpt lat="45.88486" lon="7.7099">
        <ele>2340</ele>
        <time>2000-01-01T15:09:48.000Z</time>
      </trkpt>
      <trkpt lat="45.88474" lon="7.70998">
        <ele>2333.9</ele>
        <time>2000-01-01T15:09:58.000Z</time>
      </trkpt>
      <trkpt lat="45.88451" lon="7.71009">
        <ele>2336</ele>
        <time>2000-01-01T15:10:08.000Z</time>
      </trkpt>
      <trkpt lat="45.88437" lon="7.71029">
        <ele>2333</ele>
        <time>2000-01-01T15:10:18.000Z</time>
      </trkpt>
      <trkpt lat="45.88423" lon="7.71044">
        <ele>2332.5</ele>
        <time>2000-01-01T15:10:28.000Z</time>
      </trkpt>
      <trkpt lat="45.88396" lon="7.71053">
        <ele>2328</ele>
        <time>2000-01-01T15:10:38.000Z</time>
      </trkpt>
      <trkpt lat="45.88383" lon="7.7106">
        <ele>2332.6</ele>
        <time>2000-01-01T15:10:48.000Z</time>
      </trkpt>
      <trkpt lat="45.88373" lon="7.71067">
        <ele>2326</ele>
        <time>2000-01-01T15:10:58.000Z</time>
      </trkpt>
      <trkpt lat="45.88358" lon="7.71082">
        <ele>2331.5</ele>
        <time>2000-01-01T15:11:08.000Z</time>
      </trkpt>
      <trkpt lat="45.88348" lon="7.71083">
        <ele>2325</ele>
        <time>2000-01-01T15:11:18.000Z</time>
      </trkpt>
      <trkpt lat="45.88337" lon="7.71091">
        <ele>2332.9</ele>
        <time>2000-01-01T15:11:28.000Z</time>
      </trkpt>
      <trkpt lat="45.88317" lon="7.71096">
        <ele>2325</ele>
        <time>2000-01-01T15:11:38.000Z</time>
      </trkpt>
      <trkpt lat="45.88303" lon="7.71114">
        <ele>2326</ele>
        <time>2000-01-01T15:11:48.000Z</time>
      </trkpt>
      <trkpt lat="45.88294" lon="7.71134">
        <ele>2335</ele>
        <time>2000-01-01T15:11:58.000Z</time>
      </trkpt>
      <trkpt lat="45.88292" lon="7.7116">
        <ele>2330</ele>
        <time>2000-01-01T15:12:08.000Z</time>
      </trkpt>
      <trkpt lat="45.88286" lon="7.71192">
        <ele>2332</ele>
        <time>2000-01-01T15:12:18.000Z</time>
      </trkpt>
      <trkpt lat="45.88277" lon="7.71223">
        <ele>2333</ele>
        <time>2000-01-01T15:12:28.000Z</time>
      </trkpt>
      <trkpt lat="45.88266" lon="7.71243">
        <ele>2335.6</ele>
        <time>2000-01-01T15:12:38.000Z</time>
      </trkpt>
      <trkpt lat="45.8826" lon="7.71263">
        <ele>2334</ele>
        <time>2000-01-01T15:12:48.000Z</time>
      </trkpt>
      <trkpt lat="45.88252" lon="7.71289">
        <ele>2334</ele>
        <time>2000-01-01T15:12:58.000Z</time>
      </trkpt>
      <trkpt lat="45.8824" lon="7.71312">
        <ele>2335</ele>
        <time>2000-01-01T15:13:08.000Z</time>
      </trkpt>
      <trkpt lat="45.88233" lon="7.71322">
        <ele>2334.4</ele>
        <time>2000-01-01T15:13:18.000Z</time>
      </trkpt>
      <trkpt lat="45.88214" lon="7.71353">
        <ele>2336</ele>
        <time>2000-01-01T15:13:28.000Z</time>
      </trkpt>
      <trkpt lat="45.882" lon="7.7137">
        <ele>2334.3</ele>
        <time>2000-01-01T15:13:38.000Z</time>
      </trkpt>
      <trkpt lat="45.88188" lon="7.71392">
        <ele>2338</ele>
        <time>2000-01-01T15:13:48.000Z</time>
      </trkpt>
      <trkpt lat="45.88168" lon="7.71418">
        <ele>2338</ele>
        <time>2000-01-01T15:13:58.000Z</time>
      </trkpt>
      <trkpt lat="45.88159" lon="7.71432">
        <ele>2332</ele>
        <time>2000-01-01T15:14:08.000Z</time>
      </trkpt>
      <trkpt lat="45.88178" lon="7.71456">
        <ele>2338</ele>
        <time>2000-01-01T15:14:18.000Z</time>
      </trkpt>
      <trkpt lat="45.88187" lon="7.7146">
        <ele>2333.6</ele>
        <time>2000-01-01T15:14:28.000Z</time>
      </trkpt>
      <trkpt lat="45.88196" lon="7.71473">
        <ele>2337</ele>
        <time>2000-01-01T15:14:38.000Z</time>
      </trkpt>
      <trkpt lat="45.88208" lon="7.71488">
        <ele>2333.7</ele>
        <time>2000-01-01T15:14:48.000Z</time>
      </trkpt>
      <trkpt lat="45.88214" lon="7.71506">
        <ele>2336</ele>
        <time>2000-01-01T15:14:58.000Z</time>
      </trkpt>
      <trkpt lat="45.88214" lon="7.71521">
        <ele>2329.9</ele>
        <time>2000-01-01T15:15:08.000Z</time>
      </trkpt>
      <trkpt lat="45.88215" lon="7.71535">
        <ele>2336</ele>
        <time>2000-01-01T15:15:18.000Z</time>
      </trkpt>
      <trkpt lat="45.88216" lon="7.71579">
        <ele>2336</ele>
        <time>2000-01-01T15:15:28.000Z</time>
      </trkpt>
      <trkpt lat="45.88219" lon="7.71597">
        <ele>2325.2</ele>
        <time>2000-01-01T15:15:38.000Z</time>
      </trkpt>
      <trkpt lat="45.88215" lon="7.71613">
        <ele>2336</ele>
        <time>2000-01-01T15:15:48.000Z</time>
      </trkpt>
      <trkpt lat="45.88207" lon="7.71632">
        <ele>2321.6</ele>
        <time>2000-01-01T15:15:58.000Z</time>
      </trkpt>
      <trkpt lat="45.88208" lon="7.71648">
        <ele>2334</ele>
        <time>2000-01-01T15:16:08.000Z</time>
      </trkpt>
      <trkpt lat="45.88193" lon="7.71677">
        <ele>2330</ele>
        <time>2000-01-01T15:16:18.000Z</time>
      </trkpt>
      <trkpt lat="45.88191" lon="7.71696">
        <ele>2312</ele>
        <time>2000-01-01T15:16:28.000Z</time>
      </trkpt>
      <trkpt lat="45.88195" lon="7.71715">
        <ele>2325</ele>
        <time>2000-01-01T15:16:38.000Z</time>
      </trkpt>
      <trkpt lat="45.88197" lon="7.71729">
        <ele>2306.7</ele>
        <time>2000-01-01T15:16:48.000Z</time>
      </trkpt>
      <trkpt lat="45.88194" lon="7.71745">
        <ele>2318</ele>
        <time>2000-01-01T15:16:58.000Z</time>
      </trkpt>
      <trkpt lat="45.88191" lon="7.71761">
        <ele>2299.3</ele>
        <time>2000-01-01T15:17:08.000Z</time>
      </trkpt>
      <trkpt lat="45.8819" lon="7.71776">
        <ele>2309</ele>
        <time>2000-01-01T15:17:18.000Z</time>
      </trkpt>
      <trkpt lat="45.88194" lon="7.71809">
        <ele>2299</ele>
        <time>2000-01-01T15:17:28.000Z</time>
      </trkpt>
      <trkpt lat="45.88205" lon="7.71816">
        <ele>2277</ele>
        <time>2000-01-01T15:17:38.000Z</time>
      </trkpt>
      <trkpt lat="45.88216" lon="7.7182">
        <ele>2297</ele>
        <time>2000-01-01T15:17:48.000Z</time>
      </trkpt>
      <trkpt lat="45.88225" lon="7.71827">
        <ele>2271</ele>
        <time>2000-01-01T15:17:58.000Z</time>
      </trkpt>
      <trkpt lat="45.88232" lon="7.71836">
        <ele>2291</ele>
        <time>2000-01-01T15:18:08.000Z</time>
      </trkpt>
      <trkpt lat="45.88233" lon="7.7185">
        <ele>2260.6</ele>
        <time>2000-01-01T15:18:18.000Z</time>
      </trkpt>
      <trkpt lat="45.88245" lon="7.71858">
        <ele>2288</ele>
        <time>2000-01-01T15:18:28.000Z</time>
      </trkpt>
      <trkpt lat="45.88262" lon="7.71867">
        <ele>2257.3</ele>
        <time>2000-01-01T15:18:38.000Z</time>
      </trkpt>
      <trkpt lat="45.8828" lon="7.71869">
        <ele>2285</ele>
        <time>2000-01-01T15:18:48.000Z</time>
      </trkpt>
      <trkpt lat="45.88292" lon="7.71872">
        <ele>2257</ele>
        <time>2000-01-01T15:18:58.000Z</time>
      </trkpt>
      <trkpt lat="45.88305" lon="7.71878">
        <ele>2283</ele>
        <time>2000-01-01T15:19:08.000Z</time>
      </trkpt>
      <trkpt lat="45.88317" lon="7.71889">
        <ele>2254</ele>
        <time>2000-01-01T15:19:18.000Z</time>
      </trkpt>
      <trkpt lat="45.8833" lon="7.71899">
        <ele>2276</ele>
        <time>2000-01-01T15:19:28.000Z</time>
      </trkpt>
      <trkpt lat="45.88345" lon="7.71902">
        <ele>2251.1</ele>
        <time>2000-01-01T15:19:38.000Z</time>
      </trkpt>
      <trkpt lat="45.88354" lon="7.71895">
        <ele>2276</ele>
        <time>2000-01-01T15:19:48.000Z</time>
      </trkpt>
      <trkpt lat="45.88376" lon="7.71896">
        <ele>2275</ele>
        <time>2000-01-01T15:19:58.000Z</time>
      </trkpt>
      <trkpt lat="45.88386" lon="7.71915">
        <ele>2249.2</ele>
        <time>2000-01-01T15:20:08.000Z</time>
      </trkpt>
      <trkpt lat="45.88384" lon="7.71934">
        <ele>2261</ele>
        <time>2000-01-01T15:20:18.000Z</time>
      </trkpt>
      <trkpt lat="45.88372" lon="7.71938">
        <ele>2244.7</ele>
        <time>2000-01-01T15:20:28.000Z</time>
      </trkpt>
      <trkpt lat="45.88363" lon="7.71944">
        <ele>2260</ele>
        <time>2000-01-01T15:20:38.000Z</time>
      </trkpt>
      <trkpt lat="45.88351" lon="7.71952">
        <ele>2242.5</ele>
        <time>2000-01-01T15:20:48.000Z</time>
      </trkpt>
      <trkpt lat="45.88339" lon="7.71957">
        <ele>2259</ele>
        <time>2000-01-01T15:20:58.000Z</time>
      </trkpt>
      <trkpt lat="45.88323" lon="7.71969">
        <ele>2239.2</ele>
        <time>2000-01-01T15:21:08.000Z</time>
      </trkpt>
      <trkpt lat="45.88316" lon="7.71977">
        <ele>2255</ele>
        <time>2000-01-01T15:21:18.000Z</time>
      </trkpt>
      <trkpt lat="45.88305" lon="7.71986">
        <ele>2232.1</ele>
        <time>2000-01-01T15:21:28.000Z</time>
      </trkpt>
      <trkpt lat="45.88287" lon="7.72002">
        <ele>2247</ele>
        <time>2000-01-01T15:21:38.000Z</time>
      </trkpt>
      <trkpt lat="45.88276" lon="7.72016">
        <ele>2226.7</ele>
        <time>2000-01-01T15:21:48.000Z</time>
      </trkpt>
      <trkpt lat="45.88269" lon="7.72025">
        <ele>2239</ele>
        <time>2000-01-01T15:21:58.000Z</time>
      </trkpt>
      <trkpt lat="45.88259" lon="7.72037">
        <ele>2221.4</ele>
        <time>2000-01-01T15:22:08.000Z</time>
      </trkpt>
      <trkpt lat="45.88247" lon="7.72044">
        <ele>2231</ele>
        <time>2000-01-01T15:22:18.000Z</time>
      </trkpt>
      <trkpt lat="45.88234" lon="7.72046">
        <ele>2213.2</ele>
        <time>2000-01-01T15:22:28.000Z</time>
      </trkpt>
      <trkpt lat="45.8822" lon="7.72046">
        <ele>2228</ele>
        <time>2000-01-01T15:22:38.000Z</time>
      </trkpt>
      <trkpt lat="45.88209" lon="7.72045">
        <ele>2206.3</ele>
        <time>2000-01-01T15:22:48.000Z</time>
      </trkpt>
      <trkpt lat="45.882" lon="7.72048">
        <ele>2222</ele>
        <time>2000-01-01T15:22:58.000Z</time>
      </trkpt>
      <trkpt lat="45.88189" lon="7.72047">
        <ele>2197.9</ele>
        <time>2000-01-01T15:23:08.000Z</time>
      </trkpt>
      <trkpt lat="45.88179" lon="7.72045">
        <ele>2219</ele>
        <time>2000-01-01T15:23:18.000Z</time>
      </trkpt>
      <trkpt lat="45.8817" lon="7.72059">
        <ele>2189.2</ele>
        <time>2000-01-01T15:23:28.000Z</time>
      </trkpt>
      <trkpt lat="45.88177" lon="7.72073">
        <ele>2215</ele>
        <time>2000-01-01T15:23:38.000Z</time>
      </trkpt>
      <trkpt lat="45.88198" lon="7.72086">
        <ele>2212</ele>
        <time>2000-01-01T15:23:48.000Z</time>
      </trkpt>
      <trkpt lat="45.88208" lon="7.72094">
        <ele>2182.7</ele>
        <time>2000-01-01T15:23:58.000Z</time>
      </trkpt>
      <trkpt lat="45.88221" lon="7.72115">
        <ele>2210</ele>
        <time>2000-01-01T15:24:08.000Z</time>
      </trkpt>
      <trkpt lat="45.88238" lon="7.72132">
        <ele>2206</ele>
        <time>2000-01-01T15:24:18.000Z</time>
      </trkpt>
      <trkpt lat="45.88249" lon="7.72131">
        <ele>2180.4</ele>
        <time>2000-01-01T15:24:28.000Z</time>
      </trkpt>
      <trkpt lat="45.88258" lon="7.72139">
        <ele>2206</ele>
        <time>2000-01-01T15:24:38.000Z</time>
      </trkpt>
      <trkpt lat="45.88269" lon="7.7216">
        <ele>2178.2</ele>
        <time>2000-01-01T15:24:48.000Z</time>
      </trkpt>
      <trkpt lat="45.8828" lon="7.72176">
        <ele>2204</ele>
        <time>2000-01-01T15:24:58.000Z</time>
      </trkpt>
      <trkpt lat="45.88273" lon="7.72188">
        <ele>2178.5</ele>
        <time>2000-01-01T15:25:08.000Z</time>
      </trkpt>
      <trkpt lat="45.88255" lon="7.72199">
        <ele>2201</ele>
        <time>2000-01-01T15:25:18.000Z</time>
      </trkpt>
      <trkpt lat="45.88245" lon="7.72214">
        <ele>2177.4</ele>
        <time>2000-01-01T15:25:28.000Z</time>
      </trkpt>
      <trkpt lat="45.88213" lon="7.72265">
        <ele>2199</ele>
        <time>2000-01-01T15:25:38.000Z</time>
      </trkpt>
      <trkpt lat="45.88182" lon="7.72296">
        <ele>2196</ele>
        <time>2000-01-01T15:25:48.000Z</time>
      </trkpt>
      <trkpt lat="45.88167" lon="7.72316">
        <ele>2193</ele>
        <time>2000-01-01T15:25:58.000Z</time>
      </trkpt>
      <trkpt lat="45.88141" lon="7.72335">
        <ele>2191</ele>
        <time>2000-01-01T15:26:08.000Z</time>
      </trkpt>
      <trkpt lat="45.88127" lon="7.72356">
        <ele>2189</ele>
        <time>2000-01-01T15:26:18.000Z</time>
      </trkpt>
      <trkpt lat="45.88116" lon="7.72368">
        <ele>2177.3</ele>
        <time>2000-01-01T15:26:28.000Z</time>
      </trkpt>
      <trkpt lat="45.88101" lon="7.72378">
        <ele>2189</ele>
        <time>2000-01-01T15:26:38.000Z</time>
      </trkpt>
      <trkpt lat="45.88096" lon="7.72389">
        <ele>2177.2</ele>
        <time>2000-01-01T15:26:48.000Z</time>
      </trkpt>
      <trkpt lat="45.88091" lon="7.72409">
        <ele>2189</ele>
        <time>2000-01-01T15:26:58.000Z</time>
      </trkpt>
      <trkpt lat="45.88069" lon="7.72431">
        <ele>2189</ele>
        <time>2000-01-01T15:27:08.000Z</time>
      </trkpt>
      <trkpt lat="45.88053" lon="7.72446">
        <ele>2188</ele>
        <time>2000-01-01T15:27:18.000Z</time>
      </trkpt>
      <trkpt lat="45.88048" lon="7.72458">
        <ele>2178.1</ele>
        <time>2000-01-01T15:27:28.000Z</time>
      </trkpt>
      <trkpt lat="45.88043" lon="7.72474">
        <ele>2188</ele>
        <time>2000-01-01T15:27:38.000Z</time>
      </trkpt>
      <trkpt lat="45.88026" lon="7.72492">
        <ele>2186</ele>
        <time>2000-01-01T15:27:48.000Z</time>
      </trkpt>
      <trkpt lat="45.88014" lon="7.72515">
        <ele>2186</ele>
        <time>2000-01-01T15:27:58.000Z</time>
      </trkpt>
      <trkpt lat="45.88008" lon="7.72533">
        <ele>2171.6</ele>
        <time>2000-01-01T15:28:08.000Z</time>
      </trkpt>
      <trkpt lat="45.87997" lon="7.72543">
        <ele>2183</ele>
        <time>2000-01-01T15:28:18.000Z</time>
      </trkpt>
      <trkpt lat="45.87988" lon="7.72549">
        <ele>2167</ele>
        <time>2000-01-01T15:28:28.000Z</time>
      </trkpt>
      <trkpt lat="45.87982" lon="7.72569">
        <ele>2181</ele>
        <time>2000-01-01T15:28:38.000Z</time>
      </trkpt>
      <trkpt lat="45.87974" lon="7.72586">
        <ele>2166</ele>
        <time>2000-01-01T15:28:48.000Z</time>
      </trkpt>
      <trkpt lat="45.87953" lon="7.7261">
        <ele>2174</ele>
        <time>2000-01-01T15:28:58.000Z</time>
      </trkpt>
      <trkpt lat="45.87942" lon="7.7262">
        <ele>2163.4</ele>
        <time>2000-01-01T15:29:08.000Z</time>
      </trkpt>
      <trkpt lat="45.87924" lon="7.72645">
        <ele>2168</ele>
        <time>2000-01-01T15:29:18.000Z</time>
      </trkpt>
      <trkpt lat="45.87912" lon="7.72661">
        <ele>2158.9</ele>
        <time>2000-01-01T15:29:28.000Z</time>
      </trkpt>
      <trkpt lat="45.87903" lon="7.72678">
        <ele>2161</ele>
        <time>2000-01-01T15:29:38.000Z</time>
      </trkpt>
      <trkpt lat="45.87891" lon="7.72685">
        <ele>2152.1</ele>
        <time>2000-01-01T15:29:48.000Z</time>
      </trkpt>
      <trkpt lat="45.87884" lon="7.72698">
        <ele>2157</ele>
        <time>2000-01-01T15:29:58.000Z</time>
      </trkpt>
      <trkpt lat="45.8787" lon="7.72704">
        <ele>2146.9</ele>
        <time>2000-01-01T15:30:08.000Z</time>
      </trkpt>
      <trkpt lat="45.87858" lon="7.7271">
        <ele>2151</ele>
        <time>2000-01-01T15:30:18.000Z</time>
      </trkpt>
      <trkpt lat="45.87849" lon="7.72716">
        <ele>2143.4</ele>
        <time>2000-01-01T15:30:28.000Z</time>
      </trkpt>
      <trkpt lat="45.87844" lon="7.72728">
        <ele>2149</ele>
        <time>2000-01-01T15:30:38.000Z</time>
      </trkpt>
      <trkpt lat="45.87836" lon="7.72742">
        <ele>2140</ele>
        <time>2000-01-01T15:30:48.000Z</time>
      </trkpt>
      <trkpt lat="45.87826" lon="7.7275">
        <ele>2143</ele>
        <time>2000-01-01T15:30:58.000Z</time>
      </trkpt>
      <trkpt lat="45.87815" lon="7.72753">
        <ele>2133.3</ele>
        <time>2000-01-01T15:31:08.000Z</time>
      </trkpt>
      <trkpt lat="45.87808" lon="7.72761">
        <ele>2140</ele>
        <time>2000-01-01T15:31:18.000Z</time>
      </trkpt>
      <trkpt lat="45.87776" lon="7.72791">
        <ele>2131</ele>
        <time>2000-01-01T15:31:28.000Z</time>
      </trkpt>
      <trkpt lat="45.87773" lon="7.72804">
        <ele>2121</ele>
        <time>2000-01-01T15:31:38.000Z</time>
      </trkpt>
      <trkpt lat="45.87761" lon="7.72817">
        <ele>2126</ele>
        <time>2000-01-01T15:31:48.000Z</time>
      </trkpt>
      <trkpt lat="45.87749" lon="7.72828">
        <ele>2117.4</ele>
        <time>2000-01-01T15:31:58.000Z</time>
      </trkpt>
      <trkpt lat="45.8774" lon="7.72835">
        <ele>2117</ele>
        <time>2000-01-01T15:32:08.000Z</time>
      </trkpt>
      <trkpt lat="45.8773" lon="7.72852">
        <ele>2118.7</ele>
        <time>2000-01-01T15:32:18.000Z</time>
      </trkpt>
      <trkpt lat="45.87719" lon="7.72866">
        <ele>2109</ele>
        <time>2000-01-01T15:32:28.000Z</time>
      </trkpt>
      <trkpt lat="45.87713" lon="7.72877">
        <ele>2117.9</ele>
        <time>2000-01-01T15:32:38.000Z</time>
      </trkpt>
      <trkpt lat="45.87702" lon="7.72882">
        <ele>2102</ele>
        <time>2000-01-01T15:32:48.000Z</time>
      </trkpt>
      <trkpt lat="45.87685" lon="7.729">
        <ele>2092</ele>
        <time>2000-01-01T15:32:58.000Z</time>
      </trkpt>
      <trkpt lat="45.87677" lon="7.72912">
        <ele>2106.4</ele>
        <time>2000-01-01T15:33:08.000Z</time>
      </trkpt>
      <trkpt lat="45.87667" lon="7.72908">
        <ele>2086</ele>
        <time>2000-01-01T15:33:18.000Z</time>
      </trkpt>
      <trkpt lat="45.8766" lon="7.72917">
        <ele>2091.1</ele>
        <time>2000-01-01T15:33:28.000Z</time>
      </trkpt>
      <trkpt lat="45.87651" lon="7.72921">
        <ele>2079</ele>
        <time>2000-01-01T15:33:38.000Z</time>
      </trkpt>
      <trkpt lat="45.87648" lon="7.72934">
        <ele>2088.5</ele>
        <time>2000-01-01T15:33:48.000Z</time>
      </trkpt>
      <trkpt lat="45.87646" lon="7.72948">
        <ele>2071</ele>
        <time>2000-01-01T15:33:58.000Z</time>
      </trkpt>
      <trkpt lat="45.8764" lon="7.72963">
        <ele>2085.5</ele>
        <time>2000-01-01T15:34:08.000Z</time>
      </trkpt>
      <trkpt lat="45.87638" lon="7.72976">
        <ele>2068</ele>
        <time>2000-01-01T15:34:18.000Z</time>
      </trkpt>
      <trkpt lat="45.87647" lon="7.72987">
        <ele>2090</ele>
        <time>2000-01-01T15:34:28.000Z</time>
      </trkpt>
      <trkpt lat="45.87646" lon="7.73025">
        <ele>2069</ele>
        <time>2000-01-01T15:34:38.000Z</time>
      </trkpt>
      <trkpt lat="45.87644" lon="7.73044">
        <ele>2081.1</ele>
        <time>2000-01-01T15:34:48.000Z</time>
      </trkpt>
      <trkpt lat="45.87643" lon="7.7306">
        <ele>2067</ele>
        <time>2000-01-01T15:34:58.000Z</time>
      </trkpt>
      <trkpt lat="45.87641" lon="7.73074">
        <ele>2074</ele>
        <time>2000-01-01T15:35:08.000Z</time>
      </trkpt>
      <trkpt lat="45.87637" lon="7.73088">
        <ele>2066</ele>
        <time>2000-01-01T15:35:18.000Z</time>
      </trkpt>
      <trkpt lat="45.8763" lon="7.73123">
        <ele>2065</ele>
        <time>2000-01-01T15:35:28.000Z</time>
      </trkpt>
      <trkpt lat="45.87624" lon="7.73136">
        <ele>2059.6</ele>
        <time>2000-01-01T15:35:38.000Z</time>
      </trkpt>
      <trkpt lat="45.87615" lon="7.73145">
        <ele>2062</ele>
        <time>2000-01-01T15:35:48.000Z</time>
      </trkpt>
      <trkpt lat="45.87607" lon="7.73156">
        <ele>2052.8</ele>
        <time>2000-01-01T15:35:58.000Z</time>
      </trkpt>
      <trkpt lat="45.87598" lon="7.73162">
        <ele>2056</ele>
        <time>2000-01-01T15:36:08.000Z</time>
      </trkpt>
      <trkpt lat="45.87584" lon="7.73171">
        <ele>2043.9</ele>
        <time>2000-01-01T15:36:18.000Z</time>
      </trkpt>
      <trkpt lat="45.87571" lon="7.73174">
        <ele>2048</ele>
        <time>2000-01-01T15:36:28.000Z</time>
      </trkpt>
      <trkpt lat="45.87559" lon="7.73174">
        <ele>2037.7</ele>
        <time>2000-01-01T15:36:38.000Z</time>
      </trkpt>
      <trkpt lat="45.87546" lon="7.73173">
        <ele>2033</ele>
        <time>2000-01-01T15:36:48.000Z</time>
      </trkpt>
      <trkpt lat="45.87535" lon="7.73169">
        <ele>2032.7</ele>
        <time>2000-01-01T15:36:58.000Z</time>
      </trkpt>
      <trkpt lat="45.87488" lon="7.73155">
        <ele>2020</ele>
        <time>2000-01-01T15:37:08.000Z</time>
      </trkpt>
      <trkpt lat="45.8748" lon="7.73168">
        <ele>2017.8</ele>
        <time>2000-01-01T15:37:18.000Z</time>
      </trkpt>
      <trkpt lat="45.87465" lon="7.73205">
        <ele>2015</ele>
        <time>2000-01-01T15:37:28.000Z</time>
      </trkpt>
      <trkpt lat="45.87452" lon="7.7322">
        <ele>2011.6</ele>
        <time>2000-01-01T15:37:38.000Z</time>
      </trkpt>
      <trkpt lat="45.87451" lon="7.73247">
        <ele>2013</ele>
        <time>2000-01-01T15:37:48.000Z</time>
      </trkpt>
      <trkpt lat="45.87459" lon="7.73288">
        <ele>2015</ele>
        <time>2000-01-01T15:37:58.000Z</time>
      </trkpt>
      <trkpt lat="45.87459" lon="7.73305">
        <ele>2016.4</ele>
        <time>2000-01-01T15:38:08.000Z</time>
      </trkpt>
      <trkpt lat="45.87468" lon="7.73325">
        <ele>2017</ele>
        <time>2000-01-01T15:38:18.000Z</time>
      </trkpt>
      <trkpt lat="45.8747" lon="7.7334">
        <ele>2020.5</ele>
        <time>2000-01-01T15:38:28.000Z</time>
      </trkpt>
      <trkpt lat="45.87467" lon="7.73355">
        <ele>2017</ele>
        <time>2000-01-01T15:38:38.000Z</time>
      </trkpt>
      <trkpt lat="45.87469" lon="7.73372">
        <ele>2022.4</ele>
        <time>2000-01-01T15:38:48.000Z</time>
      </trkpt>
      <trkpt lat="45.87465" lon="7.73387">
        <ele>2017</ele>
        <time>2000-01-01T15:38:58.000Z</time>
      </trkpt>
      <trkpt lat="45.87463" lon="7.73402">
        <ele>2022.8</ele>
        <time>2000-01-01T15:39:08.000Z</time>
      </trkpt>
      <trkpt lat="45.87459" lon="7.73427">
        <ele>2015</ele>
        <time>2000-01-01T15:39:18.000Z</time>
      </trkpt>
      <trkpt lat="45.87459" lon="7.73443">
        <ele>2017.3</ele>
        <time>2000-01-01T15:39:28.000Z</time>
      </trkpt>
      <trkpt lat="45.87466" lon="7.73455">
        <ele>2016</ele>
        <time>2000-01-01T15:39:38.000Z</time>
      </trkpt>
      <trkpt lat="45.87486" lon="7.73481">
        <ele>2018</ele>
        <time>2000-01-01T15:39:48.000Z</time>
      </trkpt>
      <trkpt lat="45.87506" lon="7.73501">
        <ele>2023</ele>
        <time>2000-01-01T15:39:58.000Z</time>
      </trkpt>
      <trkpt lat="45.87527" lon="7.73523">
        <ele>2027</ele>
        <time>2000-01-01T15:40:08.000Z</time>
      </trkpt>
      <trkpt lat="45.87548" lon="7.73537">
        <ele>2032</ele>
        <time>2000-01-01T15:40:18.000Z</time>
      </trkpt>
      <trkpt lat="45.87578" lon="7.73549">
        <ele>2039</ele>
        <time>2000-01-01T15:40:28.000Z</time>
      </trkpt>
      <trkpt lat="45.87598" lon="7.73555">
        <ele>2042</ele>
        <time>2000-01-01T15:40:38.000Z</time>
      </trkpt>
      <trkpt lat="45.87611" lon="7.73556">
        <ele>2035.9</ele>
        <time>2000-01-01T15:40:48.000Z</time>
      </trkpt>
      <trkpt lat="45.87651" lon="7.73572">
        <ele>2052</ele>
        <time>2000-01-01T15:40:58.000Z</time>
      </trkpt>
      <trkpt lat="45.87662" lon="7.73575">
        <ele>2038.8</ele>
        <time>2000-01-01T15:41:08.000Z</time>
      </trkpt>
      <trkpt lat="45.8767" lon="7.73583">
        <ele>2052</ele>
        <time>2000-01-01T15:41:18.000Z</time>
      </trkpt>
      <trkpt lat="45.87681" lon="7.73599">
        <ele>2035.2</ele>
        <time>2000-01-01T15:41:28.000Z</time>
      </trkpt>
      <trkpt lat="45.87689" lon="7.73608">
        <ele>2052</ele>
        <time>2000-01-01T15:41:38.000Z</time>
      </trkpt>
      <trkpt lat="45.87712" lon="7.7362">
        <ele>2052</ele>
        <time>2000-01-01T15:41:48.000Z</time>
      </trkpt>
      <trkpt lat="45.87738" lon="7.73628">
        <ele>2051</ele>
        <time>2000-01-01T15:41:58.000Z</time>
      </trkpt>
      <trkpt lat="45.87763" lon="7.73642">
        <ele>2051</ele>
        <time>2000-01-01T15:42:08.000Z</time>
      </trkpt>
      <trkpt lat="45.87781" lon="7.73648">
        <ele>2036.2</ele>
        <time>2000-01-01T15:42:18.000Z</time>
      </trkpt>
      <trkpt lat="45.87798" lon="7.73656">
        <ele>2051</ele>
        <time>2000-01-01T15:42:28.000Z</time>
      </trkpt>
      <trkpt lat="45.87821" lon="7.73652">
        <ele>2054</ele>
        <time>2000-01-01T15:42:38.000Z</time>
      </trkpt>
      <trkpt lat="45.87836" lon="7.73643">
        <ele>2039.8</ele>
        <time>2000-01-01T15:42:48.000Z</time>
      </trkpt>
      <trkpt lat="45.87855" lon="7.7364">
        <ele>2057</ele>
        <time>2000-01-01T15:42:58.000Z</time>
      </trkpt>
      <trkpt lat="45.87867" lon="7.73641">
        <ele>2041.3</ele>
        <time>2000-01-01T15:43:08.000Z</time>
      </trkpt>
      <trkpt lat="45.87876" lon="7.73653">
        <ele>2057</ele>
        <time>2000-01-01T15:43:18.000Z</time>
      </trkpt>
      <trkpt lat="45.87873" lon="7.73681">
        <ele>2053</ele>
        <time>2000-01-01T15:43:28.000Z</time>
      </trkpt>
      <trkpt lat="45.87845" lon="7.73715">
        <ele>2047</ele>
        <time>2000-01-01T15:43:38.000Z</time>
      </trkpt>
      <trkpt lat="45.8783" lon="7.73734">
        <ele>2045</ele>
        <time>2000-01-01T15:43:48.000Z</time>
      </trkpt>
      <trkpt lat="45.87804" lon="7.73773">
        <ele>2042</ele>
        <time>2000-01-01T15:43:58.000Z</time>
      </trkpt>
      <trkpt lat="45.87791" lon="7.73767">
        <ele>2038.7</ele>
        <time>2000-01-01T15:44:08.000Z</time>
      </trkpt>
      <trkpt lat="45.87776" lon="7.73757">
        <ele>2042</ele>
        <time>2000-01-01T15:44:18.000Z</time>
      </trkpt>
      <trkpt lat="45.87758" lon="7.7375">
        <ele>2041</ele>
        <time>2000-01-01T15:44:28.000Z</time>
      </trkpt>
      <trkpt lat="45.87741" lon="7.73736">
        <ele>2041</ele>
        <time>2000-01-01T15:44:38.000Z</time>
      </trkpt>
      <trkpt lat="45.87733" lon="7.73728">
        <ele>2038.8</ele>
        <time>2000-01-01T15:44:48.000Z</time>
      </trkpt>
      <trkpt lat="45.87715" lon="7.73713">
        <ele>2041</ele>
        <time>2000-01-01T15:44:58.000Z</time>
      </trkpt>
      <trkpt lat="45.87681" lon="7.73681">
        <ele>2041</ele>
        <time>2000-01-01T15:45:08.000Z</time>
      </trkpt>
      <trkpt lat="45.87672" lon="7.73677">
        <ele>2036.2</ele>
        <time>2000-01-01T15:45:18.000Z</time>
      </trkpt>
      <trkpt lat="45.87654" lon="7.73673">
        <ele>2037</ele>
        <time>2000-01-01T15:45:28.000Z</time>
      </trkpt>
      <trkpt lat="45.87629" lon="7.73675">
        <ele>2033</ele>
        <time>2000-01-01T15:45:38.000Z</time>
      </trkpt>
      <trkpt lat="45.87609" lon="7.73675">
        <ele>2031</ele>
        <time>2000-01-01T15:45:48.000Z</time>
      </trkpt>
      <trkpt lat="45.87595" lon="7.73674">
        <ele>2032.6</ele>
        <time>2000-01-01T15:45:58.000Z</time>
      </trkpt>
      <trkpt lat="45.87575" lon="7.7368">
        <ele>2028</ele>
        <time>2000-01-01T15:46:08.000Z</time>
      </trkpt>
      <trkpt lat="45.87557" lon="7.73692">
        <ele>2029</ele>
        <time>2000-01-01T15:46:18.000Z</time>
      </trkpt>
      <trkpt lat="45.87545" lon="7.73703">
        <ele>2030.2</ele>
        <time>2000-01-01T15:46:28.000Z</time>
      </trkpt>
      <trkpt lat="45.87531" lon="7.73724">
        <ele>2031</ele>
        <time>2000-01-01T15:46:38.000Z</time>
      </trkpt>
      <trkpt lat="45.87508" lon="7.73738">
        <ele>2029</ele>
        <time>2000-01-01T15:46:48.000Z</time>
      </trkpt>
      <trkpt lat="45.87496" lon="7.73725">
        <ele>2027</ele>
        <time>2000-01-01T15:46:58.000Z</time>
      </trkpt>
      <trkpt lat="45.87476" lon="7.73715">
        <ele>2027</ele>
        <time>2000-01-01T15:47:08.000Z</time>
      </trkpt>
      <trkpt lat="45.87446" lon="7.73693">
        <ele>2024</ele>
        <time>2000-01-01T15:47:18.000Z</time>
      </trkpt>
      <trkpt lat="45.87432" lon="7.73689">
        <ele>2024.9</ele>
        <time>2000-01-01T15:47:28.000Z</time>
      </trkpt>
      <trkpt lat="45.87419" lon="7.73681">
        <ele>2024</ele>
        <time>2000-01-01T15:47:38.000Z</time>
      </trkpt>
      <trkpt lat="45.8741" lon="7.73682">
        <ele>2024.2</ele>
        <time>2000-01-01T15:47:48.000Z</time>
      </trkpt>
      <trkpt lat="45.87398" lon="7.73685">
        <ele>2024</ele>
        <time>2000-01-01T15:47:58.000Z</time>
      </trkpt>
      <trkpt lat="45.87389" lon="7.73688">
        <ele>2024.5</ele>
        <time>2000-01-01T15:48:08.000Z</time>
      </trkpt>
      <trkpt lat="45.87376" lon="7.7369">
        <ele>2029</ele>
        <time>2000-01-01T15:48:18.000Z</time>
      </trkpt>
      <trkpt lat="45.87367" lon="7.73689">
        <ele>2028.6</ele>
        <time>2000-01-01T15:48:28.000Z</time>
      </trkpt>
      <trkpt lat="45.87357" lon="7.73684">
        <ele>2029</ele>
        <time>2000-01-01T15:48:38.000Z</time>
      </trkpt>
      <trkpt lat="45.87342" lon="7.73688">
        <ele>2029.6</ele>
        <time>2000-01-01T15:48:48.000Z</time>
      </trkpt>
      <trkpt lat="45.87325" lon="7.73685">
        <ele>2032</ele>
        <time>2000-01-01T15:48:58.000Z</time>
      </trkpt>
      <trkpt lat="45.87313" lon="7.73687">
        <ele>2032.6</ele>
        <time>2000-01-01T15:49:08.000Z</time>
      </trkpt>
      <trkpt lat="45.87289" lon="7.73686">
        <ele>2036</ele>
        <time>2000-01-01T15:49:18.000Z</time>
      </trkpt>
      <trkpt lat="45.87279" lon="7.73684">
        <ele>2037.6</ele>
        <time>2000-01-01T15:49:28.000Z</time>
      </trkpt>
      <trkpt lat="45.87269" lon="7.73685">
        <ele>2037</ele>
        <time>2000-01-01T15:49:38.000Z</time>
      </trkpt>
      <trkpt lat="45.87255" lon="7.73681">
        <ele>2045.7</ele>
        <time>2000-01-01T15:49:48.000Z</time>
      </trkpt>
      <trkpt lat="45.87245" lon="7.73684">
        <ele>2037</ele>
        <time>2000-01-01T15:49:58.000Z</time>
      </trkpt>
      <trkpt lat="45.87237" lon="7.73692">
        <ele>2055.3</ele>
        <time>2000-01-01T15:50:08.000Z</time>
      </trkpt>
      <trkpt lat="45.87228" lon="7.73698">
        <ele>2039</ele>
        <time>2000-01-01T15:50:18.000Z</time>
      </trkpt>
      <trkpt lat="45.87202" lon="7.73694">
        <ele>2039</ele>
        <time>2000-01-01T15:50:28.000Z</time>
      </trkpt>
      <trkpt lat="45.87192" lon="7.73703">
        <ele>2064.1</ele>
        <time>2000-01-01T15:50:38.000Z</time>
      </trkpt>
      <trkpt lat="45.87188" lon="7.73751">
        <ele>2056</ele>
        <time>2000-01-01T15:50:48.000Z</time>
      </trkpt>
      <trkpt lat="45.87179" lon="7.73759">
        <ele>2058.3</ele>
        <time>2000-01-01T15:50:58.000Z</time>
      </trkpt>
      <trkpt lat="45.87172" lon="7.73767">
        <ele>2055</ele>
        <time>2000-01-01T15:51:08.000Z</time>
      </trkpt>
      <trkpt lat="45.8716" lon="7.73762">
        <ele>2053.3</ele>
        <time>2000-01-01T15:51:18.000Z</time>
      </trkpt>
      <trkpt lat="45.87148" lon="7.73761">
        <ele>2055</ele>
        <time>2000-01-01T15:51:28.000Z</time>
      </trkpt>
      <trkpt lat="45.87139" lon="7.73768">
        <ele>2053.8</ele>
        <time>2000-01-01T15:51:38.000Z</time>
      </trkpt>
      <trkpt lat="45.87113" lon="7.73763">
        <ele>2053</ele>
        <time>2000-01-01T15:51:48.000Z</time>
      </trkpt>
      <trkpt lat="45.87098" lon="7.73752">
        <ele>2048.7</ele>
        <time>2000-01-01T15:51:58.000Z</time>
      </trkpt>
      <trkpt lat="45.87083" lon="7.73757">
        <ele>2054</ele>
        <time>2000-01-01T15:52:08.000Z</time>
      </trkpt>
      <trkpt lat="45.87071" lon="7.73765">
        <ele>2053.7</ele>
        <time>2000-01-01T15:52:18.000Z</time>
      </trkpt>
      <trkpt lat="45.87061" lon="7.73772">
        <ele>2050</ele>
        <time>2000-01-01T15:52:28.000Z</time>
      </trkpt>
      <trkpt lat="45.8705" lon="7.7377">
        <ele>2055.5</ele>
        <time>2000-01-01T15:52:38.000Z</time>
      </trkpt>
      <trkpt lat="45.87035" lon="7.73756">
        <ele>2047</ele>
        <time>2000-01-01T15:52:48.000Z</time>
      </trkpt>
      <trkpt lat="45.87024" lon="7.73756">
        <ele>2055.3</ele>
        <time>2000-01-01T15:52:58.000Z</time>
      </trkpt>
      <trkpt lat="45.87008" lon="7.73744">
        <ele>2041</ele>
        <time>2000-01-01T15:53:08.000Z</time>
      </trkpt>
      <trkpt lat="45.86995" lon="7.73747">
        <ele>2061.8</ele>
        <time>2000-01-01T15:53:18.000Z</time>
      </trkpt>
      <trkpt lat="45.86985" lon="7.73748">
        <ele>2045</ele>
        <time>2000-01-01T15:53:28.000Z</time>
      </trkpt>
      <trkpt lat="45.86976" lon="7.73758">
        <ele>2068.2</ele>
        <time>2000-01-01T15:53:38.000Z</time>
      </trkpt>
      <trkpt lat="45.86966" lon="7.73766">
        <ele>2050</ele>
        <time>2000-01-01T15:53:48.000Z</time>
      </trkpt>
      <trkpt lat="45.8696" lon="7.73782">
        <ele>2076.5</ele>
        <time>2000-01-01T15:53:58.000Z</time>
      </trkpt>
      <trkpt lat="45.86957" lon="7.73801">
        <ele>2071</ele>
        <time>2000-01-01T15:54:08.000Z</time>
      </trkpt>
      <trkpt lat="45.86947" lon="7.738">
        <ele>2083.1</ele>
        <time>2000-01-01T15:54:18.000Z</time>
      </trkpt>
      <trkpt lat="45.86922" lon="7.73804">
        <ele>2072</ele>
        <time>2000-01-01T15:54:28.000Z</time>
      </trkpt>
      <trkpt lat="45.86914" lon="7.73814">
        <ele>2092.3</ele>
        <time>2000-01-01T15:54:38.000Z</time>
      </trkpt>
      <trkpt lat="45.86906" lon="7.73823">
        <ele>2083</ele>
        <time>2000-01-01T15:54:48.000Z</time>
      </trkpt>
      <trkpt lat="45.86899" lon="7.73835">
        <ele>2097.5</ele>
        <time>2000-01-01T15:54:58.000Z</time>
      </trkpt>
      <trkpt lat="45.86885" lon="7.73842">
        <ele>2094</ele>
        <time>2000-01-01T15:55:08.000Z</time>
      </trkpt>
      <trkpt lat="45.86866" lon="7.73858">
        <ele>2096</ele>
        <time>2000-01-01T15:55:18.000Z</time>
      </trkpt>
      <trkpt lat="45.86851" lon="7.73861">
        <ele>2108.8</ele>
        <time>2000-01-01T15:55:28.000Z</time>
      </trkpt>
      <trkpt lat="45.86843" lon="7.73854">
        <ele>2095</ele>
        <time>2000-01-01T15:55:38.000Z</time>
      </trkpt>
      <trkpt lat="45.86831" lon="7.73853">
        <ele>2107.6</ele>
        <time>2000-01-01T15:55:48.000Z</time>
      </trkpt>
      <trkpt lat="45.86809" lon="7.73855">
        <ele>2095</ele>
        <time>2000-01-01T15:55:58.000Z</time>
      </trkpt>
      <trkpt lat="45.868" lon="7.73852">
        <ele>2106.4</ele>
        <time>2000-01-01T15:56:08.000Z</time>
      </trkpt>
      <trkpt lat="45.86789" lon="7.73854">
        <ele>2091</ele>
        <time>2000-01-01T15:56:18.000Z</time>
      </trkpt>
      <trkpt lat="45.86776" lon="7.73858">
        <ele>2105.3</ele>
        <time>2000-01-01T15:56:28.000Z</time>
      </trkpt>
      <trkpt lat="45.86757" lon="7.73868">
        <ele>2091</ele>
        <time>2000-01-01T15:56:38.000Z</time>
      </trkpt>
      <trkpt lat="45.86747" lon="7.73875">
        <ele>2103.3</ele>
        <time>2000-01-01T15:56:48.000Z</time>
      </trkpt>
      <trkpt lat="45.86737" lon="7.73886">
        <ele>2091</ele>
        <time>2000-01-01T15:56:58.000Z</time>
      </trkpt>
      <trkpt lat="45.86725" lon="7.73894">
        <ele>2102.4</ele>
        <time>2000-01-01T15:57:08.000Z</time>
      </trkpt>
      <trkpt lat="45.86701" lon="7.73907">
        <ele>2091</ele>
        <time>2000-01-01T15:57:18.000Z</time>
      </trkpt>
      <trkpt lat="45.86688" lon="7.73914">
        <ele>2096.5</ele>
        <time>2000-01-01T15:57:28.000Z</time>
      </trkpt>
      <trkpt lat="45.86658" lon="7.73914">
        <ele>2076</ele>
        <time>2000-01-01T15:57:38.000Z</time>
      </trkpt>
      <trkpt lat="45.86641" lon="7.73921">
        <ele>2084</ele>
        <time>2000-01-01T15:57:48.000Z</time>
      </trkpt>
      <trkpt lat="45.8663" lon="7.73931">
        <ele>2075</ele>
        <time>2000-01-01T15:57:58.000Z</time>
      </trkpt>
      <trkpt lat="45.86618" lon="7.73949">
        <ele>2080.5</ele>
        <time>2000-01-01T15:58:08.000Z</time>
      </trkpt>
      <trkpt lat="45.86605" lon="7.73972">
        <ele>2075</ele>
        <time>2000-01-01T15:58:18.000Z</time>
      </trkpt>
      <trkpt lat="45.86599" lon="7.73986">
        <ele>2077.3</ele>
        <time>2000-01-01T15:58:28.000Z</time>
      </trkpt>
      <trkpt lat="45.86602" lon="7.74022">
        <ele>2076</ele>
        <time>2000-01-01T15:58:38.000Z</time>
      </trkpt>
      <trkpt lat="45.86602" lon="7.7404">
        <ele>2079.3</ele>
        <time>2000-01-01T15:58:48.000Z</time>
      </trkpt>
      <trkpt lat="45.86601" lon="7.74056">
        <ele>2072</ele>
        <time>2000-01-01T15:58:58.000Z</time>
      </trkpt>
      <trkpt lat="45.86601" lon="7.74071">
        <ele>2080</ele>
        <time>2000-01-01T15:59:08.000Z</time>
      </trkpt>
      <trkpt lat="45.86575" lon="7.7411">
        <ele>2068</ele>
        <time>2000-01-01T15:59:18.000Z</time>
      </trkpt>
      <trkpt lat="45.8656" lon="7.7413">
        <ele>2061</ele>
        <time>2000-01-01T15:59:28.000Z</time>
      </trkpt>
      <trkpt lat="45.86552" lon="7.74143">
        <ele>2073.2</ele>
        <time>2000-01-01T15:59:38.000Z</time>
      </trkpt>
      <trkpt lat="45.86537" lon="7.74158">
        <ele>2052</ele>
        <time>2000-01-01T15:59:48.000Z</time>
      </trkpt>
      <trkpt lat="45.8653" lon="7.7418">
        <ele>2069.8</ele>
        <time>2000-01-01T15:59:58.000Z</time>
      </trkpt>
      <trkpt lat="45.86525" lon="7.74191">
        <ele>2053</ele>
        <time>2000-01-01T16:00:08.000Z</time>
      </trkpt>
      <trkpt lat="45.86529" lon="7.74234">
        <ele>2055</ele>
        <time>2000-01-01T16:00:18.000Z</time>
      </trkpt>
      <trkpt lat="45.8652" lon="7.74262">
        <ele>2059</ele>
        <time>2000-01-01T16:00:28.000Z</time>
      </trkpt>
      <trkpt lat="45.86512" lon="7.74282">
        <ele>2065.1</ele>
        <time>2000-01-01T16:00:38.000Z</time>
      </trkpt>
      <trkpt lat="45.86511" lon="7.74308">
        <ele>2052</ele>
        <time>2000-01-01T16:00:48.000Z</time>
      </trkpt>
      <trkpt lat="45.86504" lon="7.74318">
        <ele>2070.6</ele>
        <time>2000-01-01T16:00:58.000Z</time>
      </trkpt>
      <trkpt lat="45.86489" lon="7.74295">
        <ele>2056</ele>
        <time>2000-01-01T16:01:08.000Z</time>
      </trkpt>
      <trkpt lat="45.86491" lon="7.74315">
        <ele>2067.6</ele>
        <time>2000-01-01T16:01:18.000Z</time>
      </trkpt>
      <trkpt lat="45.865" lon="7.74349">
        <ele>2060</ele>
        <time>2000-01-01T16:01:28.000Z</time>
      </trkpt>
      <trkpt lat="45.86502" lon="7.74365">
        <ele>2083.1</ele>
        <time>2000-01-01T16:01:38.000Z</time>
      </trkpt>
      <trkpt lat="45.86512" lon="7.74397">
        <ele>2070</ele>
        <time>2000-01-01T16:01:48.000Z</time>
      </trkpt>
      <trkpt lat="45.86517" lon="7.74444">
        <ele>2073</ele>
        <time>2000-01-01T16:01:58.000Z</time>
      </trkpt>
      <trkpt lat="45.86523" lon="7.74462">
        <ele>2090.7</ele>
        <time>2000-01-01T16:02:08.000Z</time>
      </trkpt>
      <trkpt lat="45.86525" lon="7.74485">
        <ele>2080</ele>
        <time>2000-01-01T16:02:18.000Z</time>
      </trkpt>
      <trkpt lat="45.86535" lon="7.74498">
        <ele>2095</ele>
        <time>2000-01-01T16:02:28.000Z</time>
      </trkpt>
      <trkpt lat="45.86547" lon="7.74539">
        <ele>2091</ele>
        <time>2000-01-01T16:02:38.000Z</time>
      </trkpt>
      <trkpt lat="45.86547" lon="7.74556">
        <ele>2099.3</ele>
        <time>2000-01-01T16:02:48.000Z</time>
      </trkpt>
      <trkpt lat="45.86551" lon="7.7457">
        <ele>2097</ele>
        <time>2000-01-01T16:02:58.000Z</time>
      </trkpt>
      <trkpt lat="45.86554" lon="7.74585">
        <ele>2106.4</ele>
        <time>2000-01-01T16:03:08.000Z</time>
      </trkpt>
      <trkpt lat="45.86567" lon="7.74609">
        <ele>2103</ele>
        <time>2000-01-01T16:03:18.000Z</time>
      </trkpt>
      <trkpt lat="45.86575" lon="7.74629">
        <ele>2110.3</ele>
        <time>2000-01-01T16:03:28.000Z</time>
      </trkpt>
      <trkpt lat="45.86565" lon="7.7465">
        <ele>2109</ele>
        <time>2000-01-01T16:03:38.000Z</time>
      </trkpt>
      <trkpt lat="45.86576" lon="7.74686">
        <ele>2114</ele>
        <time>2000-01-01T16:03:48.000Z</time>
      </trkpt>
      <trkpt lat="45.86574" lon="7.747">
        <ele>2117.9</ele>
        <time>2000-01-01T16:03:58.000Z</time>
      </trkpt>
      <trkpt lat="45.86575" lon="7.74716">
        <ele>2118</ele>
        <time>2000-01-01T16:04:08.000Z</time>
      </trkpt>
      <trkpt lat="45.86578" lon="7.74735">
        <ele>2123.2</ele>
        <time>2000-01-01T16:04:18.000Z</time>
      </trkpt>
      <trkpt lat="45.86574" lon="7.74753">
        <ele>2123</ele>
        <time>2000-01-01T16:04:28.000Z</time>
      </trkpt>
      <trkpt lat="45.86577" lon="7.74765">
        <ele>2128.1</ele>
        <time>2000-01-01T16:04:38.000Z</time>
      </trkpt>
      <trkpt lat="45.86579" lon="7.74785">
        <ele>2127</ele>
        <time>2000-01-01T16:04:48.000Z</time>
      </trkpt>
      <trkpt lat="45.86583" lon="7.74801">
        <ele>2137.2</ele>
        <time>2000-01-01T16:04:58.000Z</time>
      </trkpt>
      <trkpt lat="45.86581" lon="7.74836">
        <ele>2135</ele>
        <time>2000-01-01T16:05:08.000Z</time>
      </trkpt>
      <trkpt lat="45.86579" lon="7.74853">
        <ele>2144.2</ele>
        <time>2000-01-01T16:05:18.000Z</time>
      </trkpt>
      <trkpt lat="45.8658" lon="7.74878">
        <ele>2141</ele>
        <time>2000-01-01T16:05:28.000Z</time>
      </trkpt>
      <trkpt lat="45.86583" lon="7.74894">
        <ele>2152.8</ele>
        <time>2000-01-01T16:05:38.000Z</time>
      </trkpt>
      <trkpt lat="45.86587" lon="7.7491">
        <ele>2148</ele>
        <time>2000-01-01T16:05:48.000Z</time>
      </trkpt>
      <trkpt lat="45.86583" lon="7.74926">
        <ele>2158.3</ele>
        <time>2000-01-01T16:05:58.000Z</time>
      </trkpt>
      <trkpt lat="45.86574" lon="7.7494">
        <ele>2149</ele>
        <time>2000-01-01T16:06:08.000Z</time>
      </trkpt>
      <trkpt lat="45.86562" lon="7.7494">
        <ele>2161</ele>
        <time>2000-01-01T16:06:18.000Z</time>
      </trkpt>
      <trkpt lat="45.86542" lon="7.74948">
        <ele>2150</ele>
        <time>2000-01-01T16:06:28.000Z</time>
      </trkpt>
      <trkpt lat="45.86533" lon="7.74953">
        <ele>2163</ele>
        <time>2000-01-01T16:06:38.000Z</time>
      </trkpt>
      <trkpt lat="45.86524" lon="7.74962">
        <ele>2153</ele>
        <time>2000-01-01T16:06:48.000Z</time>
      </trkpt>
      <trkpt lat="45.8651" lon="7.74972">
        <ele>2162.1</ele>
        <time>2000-01-01T16:06:58.000Z</time>
      </trkpt>
      <trkpt lat="45.86501" lon="7.74983">
        <ele>2159</ele>
        <time>2000-01-01T16:07:08.000Z</time>
      </trkpt>
      <trkpt lat="45.86475" lon="7.74997">
        <ele>2163</ele>
        <time>2000-01-01T16:07:18.000Z</time>
      </trkpt>
      <trkpt lat="45.86471" lon="7.75017">
        <ele>2172.7</ele>
        <time>2000-01-01T16:07:28.000Z</time>
      </trkpt>
      <trkpt lat="45.86461" lon="7.75048">
        <ele>2172</ele>
        <time>2000-01-01T16:07:38.000Z</time>
      </trkpt>
      <trkpt lat="45.86453" lon="7.75064">
        <ele>2181.2</ele>
        <time>2000-01-01T16:07:48.000Z</time>
      </trkpt>
      <trkpt lat="45.86447" lon="7.75082">
        <ele>2181</ele>
        <time>2000-01-01T16:07:58.000Z</time>
      </trkpt>
      <trkpt lat="45.86436" lon="7.75104">
        <ele>2182.8</ele>
        <time>2000-01-01T16:08:08.000Z</time>
      </trkpt>
      <trkpt lat="45.86418" lon="7.75115">
        <ele>2190</ele>
        <time>2000-01-01T16:08:18.000Z</time>
      </trkpt>
      <trkpt lat="45.86407" lon="7.75118">
        <ele>2184.6</ele>
        <time>2000-01-01T16:08:28.000Z</time>
      </trkpt>
      <trkpt lat="45.86397" lon="7.75111">
        <ele>2193</ele>
        <time>2000-01-01T16:08:38.000Z</time>
      </trkpt>
      <trkpt lat="45.86387" lon="7.75106">
        <ele>2188.8</ele>
        <time>2000-01-01T16:08:48.000Z</time>
      </trkpt>
      <trkpt lat="45.86368" lon="7.75083">
        <ele>2198</ele>
        <time>2000-01-01T16:08:58.000Z</time>
      </trkpt>
      <trkpt lat="45.86358" lon="7.75073">
        <ele>2196.1</ele>
        <time>2000-01-01T16:09:08.000Z</time>
      </trkpt>
      <trkpt lat="45.86347" lon="7.75065">
        <ele>2204</ele>
        <time>2000-01-01T16:09:18.000Z</time>
      </trkpt>
      <trkpt lat="45.86335" lon="7.75055">
        <ele>2201.6</ele>
        <time>2000-01-01T16:09:28.000Z</time>
      </trkpt>
      <trkpt lat="45.86329" lon="7.75034">
        <ele>2210</ele>
        <time>2000-01-01T16:09:38.000Z</time>
      </trkpt>
      <trkpt lat="45.8632" lon="7.75031">
        <ele>2209.2</ele>
        <time>2000-01-01T16:09:48.000Z</time>
      </trkpt>
      <trkpt lat="45.86308" lon="7.75031">
        <ele>2217</ele>
        <time>2000-01-01T16:09:58.000Z</time>
      </trkpt>
      <trkpt lat="45.86279" lon="7.74996">
        <ele>2225</ele>
        <time>2000-01-01T16:10:08.000Z</time>
      </trkpt>
      <trkpt lat="45.86274" lon="7.74982">
        <ele>2223</ele>
        <time>2000-01-01T16:10:18.000Z</time>
      </trkpt>
      <trkpt lat="45.86264" lon="7.74962">
        <ele>2228</ele>
        <time>2000-01-01T16:10:28.000Z</time>
      </trkpt>
      <trkpt lat="45.86249" lon="7.74957">
        <ele>2224.7</ele>
        <time>2000-01-01T16:10:38.000Z</time>
      </trkpt>
      <trkpt lat="45.86241" lon="7.74947">
        <ele>2233</ele>
        <time>2000-01-01T16:10:48.000Z</time>
      </trkpt>
      <trkpt lat="45.86229" lon="7.7493">
        <ele>2227.2</ele>
        <time>2000-01-01T16:10:58.000Z</time>
      </trkpt>
      <trkpt lat="45.86219" lon="7.7493">
        <ele>2236</ele>
        <time>2000-01-01T16:11:08.000Z</time>
      </trkpt>
      <trkpt lat="45.86205" lon="7.74937">
        <ele>2229.3</ele>
        <time>2000-01-01T16:11:18.000Z</time>
      </trkpt>
      <trkpt lat="45.86198" lon="7.74947">
        <ele>2240</ele>
        <time>2000-01-01T16:11:28.000Z</time>
      </trkpt>
      <trkpt lat="45.86184" lon="7.74959">
        <ele>2231.7</ele>
        <time>2000-01-01T16:11:38.000Z</time>
      </trkpt>
      <trkpt lat="45.86174" lon="7.7497">
        <ele>2241</ele>
        <time>2000-01-01T16:11:48.000Z</time>
      </trkpt>
      <trkpt lat="45.86163" lon="7.7497">
        <ele>2235.6</ele>
        <time>2000-01-01T16:11:58.000Z</time>
      </trkpt>
      <trkpt lat="45.86151" lon="7.74972">
        <ele>2241</ele>
        <time>2000-01-01T16:12:08.000Z</time>
      </trkpt>
      <trkpt lat="45.86138" lon="7.74976">
        <ele>2241.4</ele>
        <time>2000-01-01T16:12:18.000Z</time>
      </trkpt>
      <trkpt lat="45.86134" lon="7.74989">
        <ele>2241</ele>
        <time>2000-01-01T16:12:28.000Z</time>
      </trkpt>
      <trkpt lat="45.86135" lon="7.75006">
        <ele>2250.2</ele>
        <time>2000-01-01T16:12:38.000Z</time>
      </trkpt>
      <trkpt lat="45.86131" lon="7.75023">
        <ele>2244</ele>
        <time>2000-01-01T16:12:48.000Z</time>
      </trkpt>
      <trkpt lat="45.86126" lon="7.7504">
        <ele>2255.2</ele>
        <time>2000-01-01T16:12:58.000Z</time>
      </trkpt>
      <trkpt lat="45.86108" lon="7.75078">
        <ele>2248</ele>
        <time>2000-01-01T16:13:08.000Z</time>
      </trkpt>
      <trkpt lat="45.86104" lon="7.75092">
        <ele>2258</ele>
        <time>2000-01-01T16:13:18.000Z</time>
      </trkpt>
      <trkpt lat="45.86099" lon="7.75108">
        <ele>2251</ele>
        <time>2000-01-01T16:13:28.000Z</time>
      </trkpt>
      <trkpt lat="45.86093" lon="7.75119">
        <ele>2257.4</ele>
        <time>2000-01-01T16:13:38.000Z</time>
      </trkpt>
      <trkpt lat="45.86085" lon="7.75128">
        <ele>2251</ele>
        <time>2000-01-01T16:13:48.000Z</time>
      </trkpt>
      <trkpt lat="45.86066" lon="7.7513">
        <ele>2251</ele>
        <time>2000-01-01T16:13:58.000Z</time>
      </trkpt>
      <trkpt lat="45.86053" lon="7.75134">
        <ele>2259.2</ele>
        <time>2000-01-01T16:14:08.000Z</time>
      </trkpt>
      <trkpt lat="45.86043" lon="7.75143">
        <ele>2253</ele>
        <time>2000-01-01T16:14:18.000Z</time>
      </trkpt>
      <trkpt lat="45.86035" lon="7.75149">
        <ele>2259.6</ele>
        <time>2000-01-01T16:14:28.000Z</time>
      </trkpt>
      <trkpt lat="45.86028" lon="7.7516">
        <ele>2253</ele>
        <time>2000-01-01T16:14:38.000Z</time>
      </trkpt>
      <trkpt lat="45.86014" lon="7.75167">
        <ele>2257.6</ele>
        <time>2000-01-01T16:14:48.000Z</time>
      </trkpt>
      <trkpt lat="45.86004" lon="7.75183">
        <ele>2255</ele>
        <time>2000-01-01T16:14:58.000Z</time>
      </trkpt>
      <trkpt lat="45.85996" lon="7.7519">
        <ele>2255.9</ele>
        <time>2000-01-01T16:15:08.000Z</time>
      </trkpt>
      <trkpt lat="45.85991" lon="7.75205">
        <ele>2257</ele>
        <time>2000-01-01T16:15:18.000Z</time>
      </trkpt>
      <trkpt lat="45.85982" lon="7.75214">
        <ele>2257</ele>
        <time>2000-01-01T16:15:28.000Z</time>
      </trkpt>
      <trkpt lat="45.85979" lon="7.75231">
        <ele>2259</ele>
        <time>2000-01-01T16:15:38.000Z</time>
      </trkpt>
      <trkpt lat="45.85982" lon="7.75245">
        <ele>2258.6</ele>
        <time>2000-01-01T16:15:48.000Z</time>
      </trkpt>
      <trkpt lat="45.85978" lon="7.75261">
        <ele>2263</ele>
        <time>2000-01-01T16:15:58.000Z</time>
      </trkpt>
      <trkpt lat="45.85971" lon="7.75302">
        <ele>2269</ele>
        <time>2000-01-01T16:16:08.000Z</time>
      </trkpt>
      <trkpt lat="45.85967" lon="7.75316">
        <ele>2265.4</ele>
        <time>2000-01-01T16:16:18.000Z</time>
      </trkpt>
      <trkpt lat="45.85966" lon="7.75332">
        <ele>2272</ele>
        <time>2000-01-01T16:16:28.000Z</time>
      </trkpt>
      <trkpt lat="45.85962" lon="7.75347">
        <ele>2270.2</ele>
        <time>2000-01-01T16:16:38.000Z</time>
      </trkpt>
      <trkpt lat="45.85949" lon="7.75363">
        <ele>2275</ele>
        <time>2000-01-01T16:16:48.000Z</time>
      </trkpt>
      <trkpt lat="45.85937" lon="7.75371">
        <ele>2274.8</ele>
        <time>2000-01-01T16:16:58.000Z</time>
      </trkpt>
      <trkpt lat="45.85928" lon="7.75382">
        <ele>2276</ele>
        <time>2000-01-01T16:17:08.000Z</time>
      </trkpt>
      <trkpt lat="45.85919" lon="7.75384">
        <ele>2278.6</ele>
        <time>2000-01-01T16:17:18.000Z</time>
      </trkpt>
      <trkpt lat="45.85909" lon="7.75383">
        <ele>2276</ele>
        <time>2000-01-01T16:17:28.000Z</time>
      </trkpt>
      <trkpt lat="45.85876" lon="7.75374">
        <ele>2276</ele>
        <time>2000-01-01T16:17:38.000Z</time>
      </trkpt>
      <trkpt lat="45.85861" lon="7.75377">
        <ele>2281</ele>
        <time>2000-01-01T16:17:48.000Z</time>
      </trkpt>
      <trkpt lat="45.85848" lon="7.75375">
        <ele>2277</ele>
        <time>2000-01-01T16:17:58.000Z</time>
      </trkpt>
      <trkpt lat="45.85826" lon="7.75374">
        <ele>2279</ele>
        <time>2000-01-01T16:18:08.000Z</time>
      </trkpt>
      <trkpt lat="45.85815" lon="7.75372">
        <ele>2286.1</ele>
        <time>2000-01-01T16:18:18.000Z</time>
      </trkpt>
      <trkpt lat="45.85797" lon="7.75376">
        <ele>2283</ele>
        <time>2000-01-01T16:18:28.000Z</time>
      </trkpt>
      <trkpt lat="45.85783" lon="7.75381">
        <ele>2293.8</ele>
        <time>2000-01-01T16:18:38.000Z</time>
      </trkpt>
      <trkpt lat="45.85773" lon="7.7539">
        <ele>2291</ele>
        <time>2000-01-01T16:18:48.000Z</time>
      </trkpt>
      <trkpt lat="45.85758" lon="7.75399">
        <ele>2299.7</ele>
        <time>2000-01-01T16:18:58.000Z</time>
      </trkpt>
      <trkpt lat="45.85735" lon="7.75443">
        <ele>2305</ele>
        <time>2000-01-01T16:19:08.000Z</time>
      </trkpt>
      <trkpt lat="45.85727" lon="7.75446">
        <ele>2309.7</ele>
        <time>2000-01-01T16:19:18.000Z</time>
      </trkpt>
      <trkpt lat="45.85714" lon="7.75454">
        <ele>2308</ele>
        <time>2000-01-01T16:19:28.000Z</time>
      </trkpt>
      <trkpt lat="45.85705" lon="7.75463">
        <ele>2315.8</ele>
        <time>2000-01-01T16:19:38.000Z</time>
      </trkpt>
      <trkpt lat="45.85692" lon="7.75465">
        <ele>2311</ele>
        <time>2000-01-01T16:19:48.000Z</time>
      </trkpt>
      <trkpt lat="45.85677" lon="7.75481">
        <ele>2314</ele>
        <time>2000-01-01T16:19:58.000Z</time>
      </trkpt>
      <trkpt lat="45.85651" lon="7.75509">
        <ele>2317</ele>
        <time>2000-01-01T16:20:08.000Z</time>
      </trkpt>
      <trkpt lat="45.85633" lon="7.75541">
        <ele>2321</ele>
        <time>2000-01-01T16:20:18.000Z</time>
      </trkpt>
      <trkpt lat="45.85626" lon="7.75556">
        <ele>2328.1</ele>
        <time>2000-01-01T16:20:28.000Z</time>
      </trkpt>
      <trkpt lat="45.85609" lon="7.75565">
        <ele>2322</ele>
        <time>2000-01-01T16:20:38.000Z</time>
      </trkpt>
      <trkpt lat="45.85595" lon="7.75576">
        <ele>2326.7</ele>
        <time>2000-01-01T16:20:48.000Z</time>
      </trkpt>
      <trkpt lat="45.85578" lon="7.75584">
        <ele>2324</ele>
        <time>2000-01-01T16:20:58.000Z</time>
      </trkpt>
      <trkpt lat="45.85555" lon="7.75577">
        <ele>2325</ele>
        <time>2000-01-01T16:21:08.000Z</time>
      </trkpt>
      <trkpt lat="45.85542" lon="7.75576">
        <ele>2327.4</ele>
        <time>2000-01-01T16:21:18.000Z</time>
      </trkpt>
      <trkpt lat="45.85525" lon="7.75573">
        <ele>2330</ele>
        <time>2000-01-01T16:21:28.000Z</time>
      </trkpt>
      <trkpt lat="45.85515" lon="7.75576">
        <ele>2330.8</ele>
        <time>2000-01-01T16:21:38.000Z</time>
      </trkpt>
      <trkpt lat="45.85501" lon="7.75585">
        <ele>2334</ele>
        <time>2000-01-01T16:21:48.000Z</time>
      </trkpt>
      <trkpt lat="45.85494" lon="7.756">
        <ele>2335.6</ele>
        <time>2000-01-01T16:21:58.000Z</time>
      </trkpt>
      <trkpt lat="45.85489" lon="7.75612">
        <ele>2342</ele>
        <time>2000-01-01T16:22:08.000Z</time>
      </trkpt>
      <trkpt lat="45.85475" lon="7.75639">
        <ele>2348</ele>
        <time>2000-01-01T16:22:18.000Z</time>
      </trkpt>
      <trkpt lat="45.85461" lon="7.75675">
        <ele>2356</ele>
        <time>2000-01-01T16:22:28.000Z</time>
      </trkpt>
      <trkpt lat="45.85451" lon="7.75691">
        <ele>2352.5</ele>
        <time>2000-01-01T16:22:38.000Z</time>
      </trkpt>
      <trkpt lat="45.85446" lon="7.75707">
        <ele>2367</ele>
        <time>2000-01-01T16:22:48.000Z</time>
      </trkpt>
      <trkpt lat="45.8544" lon="7.75722">
        <ele>2358.8</ele>
        <time>2000-01-01T16:22:58.000Z</time>
      </trkpt>
      <trkpt lat="45.85433" lon="7.7574">
        <ele>2372</ele>
        <time>2000-01-01T16:23:08.000Z</time>
      </trkpt>
      <trkpt lat="45.85429" lon="7.75753">
        <ele>2364.8</ele>
        <time>2000-01-01T16:23:18.000Z</time>
      </trkpt>
      <trkpt lat="45.8543" lon="7.75771">
        <ele>2373</ele>
        <time>2000-01-01T16:23:28.000Z</time>
      </trkpt>
      <trkpt lat="45.85434" lon="7.75783">
        <ele>2367.7</ele>
        <time>2000-01-01T16:23:38.000Z</time>
      </trkpt>
      <trkpt lat="45.85434" lon="7.75808">
        <ele>2373</ele>
        <time>2000-01-01T16:23:48.000Z</time>
      </trkpt>
      <trkpt lat="45.85428" lon="7.75822">
        <ele>2372</ele>
        <time>2000-01-01T16:23:58.000Z</time>
      </trkpt>
      <trkpt lat="45.85411" lon="7.75817">
        <ele>2377</ele>
        <time>2000-01-01T16:24:08.000Z</time>
      </trkpt>
      <trkpt lat="45.85393" lon="7.75814">
        <ele>2373.6</ele>
        <time>2000-01-01T16:24:18.000Z</time>
      </trkpt>
      <trkpt lat="45.85384" lon="7.7582">
        <ele>2379</ele>
        <time>2000-01-01T16:24:28.000Z</time>
      </trkpt>
      <trkpt lat="45.85361" lon="7.75826">
        <ele>2379</ele>
        <time>2000-01-01T16:24:38.000Z</time>
      </trkpt>
      <trkpt lat="45.85343" lon="7.75821">
        <ele>2372.9</ele>
        <time>2000-01-01T16:24:48.000Z</time>
      </trkpt>
      <trkpt lat="45.85329" lon="7.75822">
        <ele>2375</ele>
        <time>2000-01-01T16:24:58.000Z</time>
      </trkpt>
      <trkpt lat="45.85312" lon="7.75829">
        <ele>2366</ele>
        <time>2000-01-01T16:25:08.000Z</time>
      </trkpt>
      <trkpt lat="45.85282" lon="7.75838">
        <ele>2368</ele>
        <time>2000-01-01T16:25:18.000Z</time>
      </trkpt>
      <trkpt lat="45.8527" lon="7.75845">
        <ele>2354.3</ele>
        <time>2000-01-01T16:25:28.000Z</time>
      </trkpt>
      <trkpt lat="45.85259" lon="7.75855">
        <ele>2358</ele>
        <time>2000-01-01T16:25:38.000Z</time>
      </trkpt>
      <trkpt lat="45.85249" lon="7.75862">
        <ele>2346.7</ele>
        <time>2000-01-01T16:25:48.000Z</time>
      </trkpt>
      <trkpt lat="45.85225" lon="7.7588">
        <ele>2350</ele>
        <time>2000-01-01T16:25:58.000Z</time>
      </trkpt>
      <trkpt lat="45.85217" lon="7.7589">
        <ele>2337.6</ele>
        <time>2000-01-01T16:26:08.000Z</time>
      </trkpt>
      <trkpt lat="45.85212" lon="7.75903">
        <ele>2349</ele>
        <time>2000-01-01T16:26:18.000Z</time>
      </trkpt>
      <trkpt lat="45.85209" lon="7.75921">
        <ele>2345.3</ele>
        <time>2000-01-01T16:26:28.000Z</time>
      </trkpt>
      <trkpt lat="45.85201" lon="7.75933">
        <ele>2347</ele>
        <time>2000-01-01T16:26:38.000Z</time>
      </trkpt>
      <trkpt lat="45.85191" lon="7.75959">
        <ele>2347</ele>
        <time>2000-01-01T16:26:48.000Z</time>
      </trkpt>
      <trkpt lat="45.85187" lon="7.75994">
        <ele>2348</ele>
        <time>2000-01-01T16:26:58.000Z</time>
      </trkpt>
      <trkpt lat="45.85184" lon="7.76014">
        <ele>2348.7</ele>
        <time>2000-01-01T16:27:08.000Z</time>
      </trkpt>
      <trkpt lat="45.85165" lon="7.76035">
        <ele>2349</ele>
        <time>2000-01-01T16:27:18.000Z</time>
      </trkpt>
      <trkpt lat="45.85156" lon="7.7605">
        <ele>2351.1</ele>
        <time>2000-01-01T16:27:28.000Z</time>
      </trkpt>
      <trkpt lat="45.85151" lon="7.76062">
        <ele>2349</ele>
        <time>2000-01-01T16:27:38.000Z</time>
      </trkpt>
      <trkpt lat="45.85131" lon="7.76081">
        <ele>2349</ele>
        <time>2000-01-01T16:27:48.000Z</time>
      </trkpt>
      <trkpt lat="45.85119" lon="7.76086">
        <ele>2354.6</ele>
        <time>2000-01-01T16:27:58.000Z</time>
      </trkpt>
      <trkpt lat="45.85111" lon="7.76094">
        <ele>2343</ele>
        <time>2000-01-01T16:28:08.000Z</time>
      </trkpt>
      <trkpt lat="45.85103" lon="7.76103">
        <ele>2352.9</ele>
        <time>2000-01-01T16:28:18.000Z</time>
      </trkpt>
      <trkpt lat="45.85097" lon="7.76118">
        <ele>2341</ele>
        <time>2000-01-01T16:28:28.000Z</time>
      </trkpt>
      <trkpt lat="45.85091" lon="7.76134">
        <ele>2349.8</ele>
        <time>2000-01-01T16:28:38.000Z</time>
      </trkpt>
      <trkpt lat="45.85086" lon="7.76148">
        <ele>2340</ele>
        <time>2000-01-01T16:28:48.000Z</time>
      </trkpt>
      <trkpt lat="45.85077" lon="7.76157">
        <ele>2342.6</ele>
        <time>2000-01-01T16:28:58.000Z</time>
      </trkpt>
      <trkpt lat="45.85068" lon="7.76171">
        <ele>2334</ele>
        <time>2000-01-01T16:29:08.000Z</time>
      </trkpt>
      <trkpt lat="45.85057" lon="7.76166">
        <ele>2334.6</ele>
        <time>2000-01-01T16:29:18.000Z</time>
      </trkpt>
      <trkpt lat="45.85046" lon="7.7617">
        <ele>2323</ele>
        <time>2000-01-01T16:29:28.000Z</time>
      </trkpt>
      <trkpt lat="45.85039" lon="7.76184">
        <ele>2325.7</ele>
        <time>2000-01-01T16:29:38.000Z</time>
      </trkpt>
      <trkpt lat="45.85033" lon="7.762">
        <ele>2319</ele>
        <time>2000-01-01T16:29:48.000Z</time>
      </trkpt>
      <trkpt lat="45.85026" lon="7.76209">
        <ele>2319.9</ele>
        <time>2000-01-01T16:29:58.000Z</time>
      </trkpt>
      <trkpt lat="45.8502" lon="7.76223">
        <ele>2315</ele>
        <time>2000-01-01T16:30:08.000Z</time>
      </trkpt>
      <trkpt lat="45.85013" lon="7.76234">
        <ele>2316.4</ele>
        <time>2000-01-01T16:30:18.000Z</time>
      </trkpt>
      <trkpt lat="45.85011" lon="7.7625">
        <ele>2314</ele>
        <time>2000-01-01T16:30:28.000Z</time>
      </trkpt>
      <trkpt lat="45.85011" lon="7.76275">
        <ele>2313.2</ele>
        <time>2000-01-01T16:30:38.000Z</time>
      </trkpt>
      <trkpt lat="45.85015" lon="7.76289">
        <ele>2317</ele>
        <time>2000-01-01T16:30:48.000Z</time>
      </trkpt>
      <trkpt lat="45.85024" lon="7.76308">
        <ele>2315</ele>
        <time>2000-01-01T16:30:58.000Z</time>
      </trkpt>
      <trkpt lat="45.85021" lon="7.76326">
        <ele>2317</ele>
        <time>2000-01-01T16:31:08.000Z</time>
      </trkpt>
      <trkpt lat="45.85018" lon="7.76344">
        <ele>2315.5</ele>
        <time>2000-01-01T16:31:18.000Z</time>
      </trkpt>
      <trkpt lat="45.85013" lon="7.76369">
        <ele>2317</ele>
        <time>2000-01-01T16:31:28.000Z</time>
      </trkpt>
      <trkpt lat="45.85005" lon="7.76382">
        <ele>2319.9</ele>
        <time>2000-01-01T16:31:38.000Z</time>
      </trkpt>
      <trkpt lat="45.85013" lon="7.76394">
        <ele>2318</ele>
        <time>2000-01-01T16:31:48.000Z</time>
      </trkpt>
      <trkpt lat="45.85025" lon="7.76405">
        <ele>2322.7</ele>
        <time>2000-01-01T16:31:58.000Z</time>
      </trkpt>
      <trkpt lat="45.85029" lon="7.76423">
        <ele>2324</ele>
        <time>2000-01-01T16:32:08.000Z</time>
      </trkpt>
      <trkpt lat="45.85032" lon="7.76438">
        <ele>2329.3</ele>
        <time>2000-01-01T16:32:18.000Z</time>
      </trkpt>
      <trkpt lat="45.85034" lon="7.76459">
        <ele>2329</ele>
        <time>2000-01-01T16:32:28.000Z</time>
      </trkpt>
      <trkpt lat="45.85042" lon="7.7647">
        <ele>2333.2</ele>
        <time>2000-01-01T16:32:38.000Z</time>
      </trkpt>
      <trkpt lat="45.85042" lon="7.76494">
        <ele>2335</ele>
        <time>2000-01-01T16:32:48.000Z</time>
      </trkpt>
      <trkpt lat="45.85054" lon="7.76496">
        <ele>2335.5</ele>
        <time>2000-01-01T16:32:58.000Z</time>
      </trkpt>
      <trkpt lat="45.85044" lon="7.76506">
        <ele>2336</ele>
        <time>2000-01-01T16:33:08.000Z</time>
      </trkpt>
      <trkpt lat="45.85041" lon="7.76524">
        <ele>2339.7</ele>
        <time>2000-01-01T16:33:18.000Z</time>
      </trkpt>
      <trkpt lat="45.85044" lon="7.76539">
        <ele>2340</ele>
        <time>2000-01-01T16:33:28.000Z</time>
      </trkpt>
      <trkpt lat="45.85056" lon="7.76546">
        <ele>2341.3</ele>
        <time>2000-01-01T16:33:38.000Z</time>
      </trkpt>
      <trkpt lat="45.85064" lon="7.76558">
        <ele>2344</ele>
        <time>2000-01-01T16:33:48.000Z</time>
      </trkpt>
      <trkpt lat="45.85073" lon="7.76562">
        <ele>2344.7</ele>
        <time>2000-01-01T16:33:58.000Z</time>
      </trkpt>
      <trkpt lat="45.85076" lon="7.76577">
        <ele>2346</ele>
        <time>2000-01-01T16:34:08.000Z</time>
      </trkpt>
      <trkpt lat="45.85088" lon="7.76627">
        <ele>2354</ele>
        <time>2000-01-01T16:34:18.000Z</time>
      </trkpt>
      <trkpt lat="45.85094" lon="7.76641">
        <ele>2359.7</ele>
        <time>2000-01-01T16:34:28.000Z</time>
      </trkpt>
      <trkpt lat="45.85096" lon="7.76654">
        <ele>2364</ele>
        <time>2000-01-01T16:34:38.000Z</time>
      </trkpt>
      <trkpt lat="45.8509" lon="7.76671">
        <ele>2364.3</ele>
        <time>2000-01-01T16:34:48.000Z</time>
      </trkpt>
      <trkpt lat="45.85091" lon="7.76684">
        <ele>2371</ele>
        <time>2000-01-01T16:34:58.000Z</time>
      </trkpt>
      <trkpt lat="45.85098" lon="7.76694">
        <ele>2370.4</ele>
        <time>2000-01-01T16:35:08.000Z</time>
      </trkpt>
      <trkpt lat="45.85105" lon="7.76703">
        <ele>2379</ele>
        <time>2000-01-01T16:35:18.000Z</time>
      </trkpt>
      <trkpt lat="45.85106" lon="7.7672">
        <ele>2375.2</ele>
        <time>2000-01-01T16:35:28.000Z</time>
      </trkpt>
      <trkpt lat="45.85112" lon="7.76738">
        <ele>2388</ele>
        <time>2000-01-01T16:35:38.000Z</time>
      </trkpt>
      <trkpt lat="45.85121" lon="7.76749">
        <ele>2380</ele>
        <time>2000-01-01T16:35:48.000Z</time>
      </trkpt>
      <trkpt lat="45.8513" lon="7.76767">
        <ele>2395</ele>
        <time>2000-01-01T16:35:58.000Z</time>
      </trkpt>
      <trkpt lat="45.8513" lon="7.76794">
        <ele>2384.1</ele>
        <time>2000-01-01T16:36:08.000Z</time>
      </trkpt>
      <trkpt lat="45.85127" lon="7.76818">
        <ele>2403</ele>
        <time>2000-01-01T16:36:18.000Z</time>
      </trkpt>
      <trkpt lat="45.85126" lon="7.76841">
        <ele>2390.4</ele>
        <time>2000-01-01T16:36:28.000Z</time>
      </trkpt>
      <trkpt lat="45.85125" lon="7.76854">
        <ele>2409</ele>
        <time>2000-01-01T16:36:38.000Z</time>
      </trkpt>
      <trkpt lat="45.8511" lon="7.76858">
        <ele>2397.5</ele>
        <time>2000-01-01T16:36:48.000Z</time>
      </trkpt>
      <trkpt lat="45.85107" lon="7.76871">
        <ele>2414</ele>
        <time>2000-01-01T16:36:58.000Z</time>
      </trkpt>
      <trkpt lat="45.85104" lon="7.76889">
        <ele>2409.9</ele>
        <time>2000-01-01T16:37:08.000Z</time>
      </trkpt>
      <trkpt lat="45.85094" lon="7.76889">
        <ele>2417</ele>
        <time>2000-01-01T16:37:18.000Z</time>
      </trkpt>
      <trkpt lat="45.85092" lon="7.76904">
        <ele>2420.7</ele>
        <time>2000-01-01T16:37:28.000Z</time>
      </trkpt>
      <trkpt lat="45.85103" lon="7.76914">
        <ele>2422</ele>
        <time>2000-01-01T16:37:38.000Z</time>
      </trkpt>
      <trkpt lat="45.8511" lon="7.76926">
        <ele>2423</ele>
        <time>2000-01-01T16:37:48.000Z</time>
      </trkpt>
      <trkpt lat="45.85104" lon="7.76935">
        <ele>2426</ele>
        <time>2000-01-01T16:37:58.000Z</time>
      </trkpt>
      <trkpt lat="45.85102" lon="7.76954">
        <ele>2431.8</ele>
        <time>2000-01-01T16:38:08.000Z</time>
      </trkpt>
      <trkpt lat="45.8509" lon="7.7696">
        <ele>2435</ele>
        <time>2000-01-01T16:38:18.000Z</time>
      </trkpt>
      <trkpt lat="45.85085" lon="7.76977">
        <ele>2446.7</ele>
        <time>2000-01-01T16:38:28.000Z</time>
      </trkpt>
      <trkpt lat="45.85093" lon="7.77004">
        <ele>2444</ele>
        <time>2000-01-01T16:38:38.000Z</time>
      </trkpt>
      <trkpt lat="45.85097" lon="7.77021">
        <ele>2458.4</ele>
        <time>2000-01-01T16:38:48.000Z</time>
      </trkpt>
      <trkpt lat="45.85103" lon="7.77037">
        <ele>2449</ele>
        <time>2000-01-01T16:38:58.000Z</time>
      </trkpt>
      <trkpt lat="45.85105" lon="7.77052">
        <ele>2464.1</ele>
        <time>2000-01-01T16:39:08.000Z</time>
      </trkpt>
      <trkpt lat="45.8511" lon="7.77067">
        <ele>2456</ele>
        <time>2000-01-01T16:39:18.000Z</time>
      </trkpt>
      <trkpt lat="45.85108" lon="7.77088">
        <ele>2468.7</ele>
        <time>2000-01-01T16:39:28.000Z</time>
      </trkpt>
      <trkpt lat="45.85109" lon="7.77103">
        <ele>2465</ele>
        <time>2000-01-01T16:39:38.000Z</time>
      </trkpt>
      <trkpt lat="45.85108" lon="7.77117">
        <ele>2473.3</ele>
        <time>2000-01-01T16:39:48.000Z</time>
      </trkpt>
      <trkpt lat="45.85111" lon="7.77134">
        <ele>2469</ele>
        <time>2000-01-01T16:39:58.000Z</time>
      </trkpt>
      <trkpt lat="45.8512" lon="7.77167">
        <ele>2475</ele>
        <time>2000-01-01T16:40:08.000Z</time>
      </trkpt>
      <trkpt lat="45.8513" lon="7.77176">
        <ele>2477.8</ele>
        <time>2000-01-01T16:40:18.000Z</time>
      </trkpt>
      <trkpt lat="45.85125" lon="7.77209">
        <ele>2479</ele>
        <time>2000-01-01T16:40:28.000Z</time>
      </trkpt>
      <trkpt lat="45.85123" lon="7.77224">
        <ele>2478.2</ele>
        <time>2000-01-01T16:40:38.000Z</time>
      </trkpt>
      <trkpt lat="45.85124" lon="7.77242">
        <ele>2484</ele>
        <time>2000-01-01T16:40:48.000Z</time>
      </trkpt>
      <trkpt lat="45.85121" lon="7.77264">
        <ele>2478.1</ele>
        <time>2000-01-01T16:40:58.000Z</time>
      </trkpt>
      <trkpt lat="45.85113" lon="7.77283">
        <ele>2492</ele>
        <time>2000-01-01T16:41:08.000Z</time>
      </trkpt>
      <trkpt lat="45.85099" lon="7.7731">
        <ele>2500</ele>
        <time>2000-01-01T16:41:18.000Z</time>
      </trkpt>
      <trkpt lat="45.85097" lon="7.77325">
        <ele>2493.7</ele>
        <time>2000-01-01T16:41:28.000Z</time>
      </trkpt>
      <trkpt lat="45.85102" lon="7.77344">
        <ele>2501</ele>
        <time>2000-01-01T16:41:38.000Z</time>
      </trkpt>
      <trkpt lat="45.85101" lon="7.77362">
        <ele>2497.8</ele>
        <time>2000-01-01T16:41:48.000Z</time>
      </trkpt>
      <trkpt lat="45.85097" lon="7.77385">
        <ele>2508</ele>
        <time>2000-01-01T16:41:58.000Z</time>
      </trkpt>
      <trkpt lat="45.85096" lon="7.77403">
        <ele>2509.5</ele>
        <time>2000-01-01T16:42:08.000Z</time>
      </trkpt>
      <trkpt lat="45.85091" lon="7.77415">
        <ele>2512</ele>
        <time>2000-01-01T16:42:18.000Z</time>
      </trkpt>
      <trkpt lat="45.85079" lon="7.77415">
        <ele>2515.2</ele>
        <time>2000-01-01T16:42:28.000Z</time>
      </trkpt>
      <trkpt lat="45.85072" lon="7.77427">
        <ele>2516</ele>
        <time>2000-01-01T16:42:38.000Z</time>
      </trkpt>
      <trkpt lat="45.85066" lon="7.77445">
        <ele>2522.6</ele>
        <time>2000-01-01T16:42:48.000Z</time>
      </trkpt>
      <trkpt lat="45.8506" lon="7.77457">
        <ele>2520</ele>
        <time>2000-01-01T16:42:58.000Z</time>
      </trkpt>
      <trkpt lat="45.85056" lon="7.77475">
        <ele>2531.5</ele>
        <time>2000-01-01T16:43:08.000Z</time>
      </trkpt>
      <trkpt lat="45.85049" lon="7.77492">
        <ele>2525</ele>
        <time>2000-01-01T16:43:18.000Z</time>
      </trkpt>
      <trkpt lat="45.85043" lon="7.77526">
        <ele>2529</ele>
        <time>2000-01-01T16:43:28.000Z</time>
      </trkpt>
      <trkpt lat="45.85046" lon="7.77542">
        <ele>2544.2</ele>
        <time>2000-01-01T16:43:38.000Z</time>
      </trkpt>
      <trkpt lat="45.85044" lon="7.77556">
        <ele>2533</ele>
        <time>2000-01-01T16:43:48.000Z</time>
      </trkpt>
      <trkpt lat="45.85053" lon="7.77583">
        <ele>2537</ele>
        <time>2000-01-01T16:43:58.000Z</time>
      </trkpt>
      <trkpt lat="45.85064" lon="7.77591">
        <ele>2543</ele>
        <time>2000-01-01T16:44:08.000Z</time>
      </trkpt>
      <trkpt lat="45.85086" lon="7.77646">
        <ele>2549</ele>
        <time>2000-01-01T16:44:18.000Z</time>
      </trkpt>
      <trkpt lat="45.85091" lon="7.77657">
        <ele>2555.7</ele>
        <time>2000-01-01T16:44:28.000Z</time>
      </trkpt>
      <trkpt lat="45.85083" lon="7.77669">
        <ele>2553</ele>
        <time>2000-01-01T16:44:38.000Z</time>
      </trkpt>
      <trkpt lat="45.85078" lon="7.77683">
        <ele>2563.1</ele>
        <time>2000-01-01T16:44:48.000Z</time>
      </trkpt>
      <trkpt lat="45.85074" lon="7.77699">
        <ele>2559</ele>
        <time>2000-01-01T16:44:58.000Z</time>
      </trkpt>
      <trkpt lat="45.85067" lon="7.77715">
        <ele>2571.6</ele>
        <time>2000-01-01T16:45:08.000Z</time>
      </trkpt>
      <trkpt lat="45.85064" lon="7.77732">
        <ele>2568</ele>
        <time>2000-01-01T16:45:18.000Z</time>
      </trkpt>
      <trkpt lat="45.85049" lon="7.77765">
        <ele>2576</ele>
        <time>2000-01-01T16:45:28.000Z</time>
      </trkpt>
      <trkpt lat="45.85044" lon="7.77781">
        <ele>2581</ele>
        <time>2000-01-01T16:45:38.000Z</time>
      </trkpt>
      <trkpt lat="45.85043" lon="7.77799">
        <ele>2583</ele>
        <time>2000-01-01T16:45:48.000Z</time>
      </trkpt>
      <trkpt lat="45.85043" lon="7.7782">
        <ele>2587.3</ele>
        <time>2000-01-01T16:45:58.000Z</time>
      </trkpt>
      <trkpt lat="45.85045" lon="7.77839">
        <ele>2593</ele>
        <time>2000-01-01T16:46:08.000Z</time>
      </trkpt>
      <trkpt lat="45.85048" lon="7.77853">
        <ele>2592.7</ele>
        <time>2000-01-01T16:46:18.000Z</time>
      </trkpt>
      <trkpt lat="45.85049" lon="7.77871">
        <ele>2601</ele>
        <time>2000-01-01T16:46:28.000Z</time>
      </trkpt>
      <trkpt lat="45.85044" lon="7.77887">
        <ele>2601.5</ele>
        <time>2000-01-01T16:46:38.000Z</time>
      </trkpt>
      <trkpt lat="45.85046" lon="7.7792">
        <ele>2610</ele>
        <time>2000-01-01T16:46:48.000Z</time>
      </trkpt>
      <trkpt lat="45.8505" lon="7.77932">
        <ele>2607.4</ele>
        <time>2000-01-01T16:46:58.000Z</time>
      </trkpt>
      <trkpt lat="45.85058" lon="7.77945">
        <ele>2614</ele>
        <time>2000-01-01T16:47:08.000Z</time>
      </trkpt>
      <trkpt lat="45.85063" lon="7.77958">
        <ele>2605.6</ele>
        <time>2000-01-01T16:47:18.000Z</time>
      </trkpt>
      <trkpt lat="45.85057" lon="7.77973">
        <ele>2620</ele>
        <time>2000-01-01T16:47:28.000Z</time>
      </trkpt>
      <trkpt lat="45.85048" lon="7.77983">
        <ele>2610.2</ele>
        <time>2000-01-01T16:47:38.000Z</time>
      </trkpt>
      <trkpt lat="45.85041" lon="7.77997">
        <ele>2626</ele>
        <time>2000-01-01T16:47:48.000Z</time>
      </trkpt>
      <trkpt lat="45.85037" lon="7.78013">
        <ele>2621</ele>
        <time>2000-01-01T16:47:58.000Z</time>
      </trkpt>
      <trkpt lat="45.85028" lon="7.78021">
        <ele>2637</ele>
        <time>2000-01-01T16:48:08.000Z</time>
      </trkpt>
      <trkpt lat="45.85017" lon="7.7803">
        <ele>2630.1</ele>
        <time>2000-01-01T16:48:18.000Z</time>
      </trkpt>
      <trkpt lat="45.85012" lon="7.78042">
        <ele>2643</ele>
        <time>2000-01-01T16:48:28.000Z</time>
      </trkpt>
      <trkpt lat="45.85007" lon="7.78057">
        <ele>2638.6</ele>
        <time>2000-01-01T16:48:38.000Z</time>
      </trkpt>
      <trkpt lat="45.85001" lon="7.78071">
        <ele>2653</ele>
        <time>2000-01-01T16:48:48.000Z</time>
      </trkpt>
      <trkpt lat="45.84997" lon="7.78083">
        <ele>2644.9</ele>
        <time>2000-01-01T16:48:58.000Z</time>
      </trkpt>
      <trkpt lat="45.84992" lon="7.78103">
        <ele>2663</ele>
        <time>2000-01-01T16:49:08.000Z</time>
      </trkpt>
      <trkpt lat="45.84996" lon="7.78118">
        <ele>2654</ele>
        <time>2000-01-01T16:49:18.000Z</time>
      </trkpt>
      <trkpt lat="45.84998" lon="7.78155">
        <ele>2674</ele>
        <time>2000-01-01T16:49:28.000Z</time>
      </trkpt>
      <trkpt lat="45.85001" lon="7.78177">
        <ele>2670.3</ele>
        <time>2000-01-01T16:49:38.000Z</time>
      </trkpt>
      <trkpt lat="45.85004" lon="7.7819">
        <ele>2680</ele>
        <time>2000-01-01T16:49:48.000Z</time>
      </trkpt>
      <trkpt lat="45.85007" lon="7.78225">
        <ele>2682</ele>
        <time>2000-01-01T16:49:58.000Z</time>
      </trkpt>
      <trkpt lat="45.85005" lon="7.78245">
        <ele>2689.3</ele>
        <time>2000-01-01T16:50:08.000Z</time>
      </trkpt>
      <trkpt lat="45.85006" lon="7.7826">
        <ele>2678</ele>
        <time>2000-01-01T16:50:18.000Z</time>
      </trkpt>
      <trkpt lat="45.85003" lon="7.78275">
        <ele>2683.6</ele>
        <time>2000-01-01T16:50:28.000Z</time>
      </trkpt>
      <trkpt lat="45.85003" lon="7.78295">
        <ele>2675</ele>
        <time>2000-01-01T16:50:38.000Z</time>
      </trkpt>
      <trkpt lat="45.85" lon="7.7831">
        <ele>2664.2</ele>
        <time>2000-01-01T16:50:48.000Z</time>
      </trkpt>
      <trkpt lat="45.85008" lon="7.78317">
        <ele>2669</ele>
        <time>2000-01-01T16:50:58.000Z</time>
      </trkpt>
      <trkpt lat="45.85016" lon="7.7833">
        <ele>2656.4</ele>
        <time>2000-01-01T16:51:08.000Z</time>
      </trkpt>
      <trkpt lat="45.85028" lon="7.78358">
        <ele>2659</ele>
        <time>2000-01-01T16:51:18.000Z</time>
      </trkpt>
      <trkpt lat="45.85014" lon="7.78372">
        <ele>2640.7</ele>
        <time>2000-01-01T16:51:28.000Z</time>
      </trkpt>
      <trkpt lat="45.85034" lon="7.78399">
        <ele>2652</ele>
        <time>2000-01-01T16:51:38.000Z</time>
      </trkpt>
      <trkpt lat="45.85039" lon="7.78416">
        <ele>2635.7</ele>
        <time>2000-01-01T16:51:48.000Z</time>
      </trkpt>
      <trkpt lat="45.85046" lon="7.78435">
        <ele>2648</ele>
        <time>2000-01-01T16:51:58.000Z</time>
      </trkpt>
      <trkpt lat="45.85057" lon="7.78483">
        <ele>2645</ele>
        <time>2000-01-01T16:52:08.000Z</time>
      </trkpt>
      <trkpt lat="45.85059" lon="7.78498">
        <ele>2635.7</ele>
        <time>2000-01-01T16:52:18.000Z</time>
      </trkpt>
      <trkpt lat="45.85058" lon="7.78516">
        <ele>2644</ele>
        <time>2000-01-01T16:52:28.000Z</time>
      </trkpt>
      <trkpt lat="45.8506" lon="7.78539">
        <ele>2636.1</ele>
        <time>2000-01-01T16:52:38.000Z</time>
      </trkpt>
      <trkpt lat="45.85065" lon="7.78579">
        <ele>2640</ele>
        <time>2000-01-01T16:52:48.000Z</time>
      </trkpt>
      <trkpt lat="45.85062" lon="7.78591">
        <ele>2633.4</ele>
        <time>2000-01-01T16:52:58.000Z</time>
      </trkpt>
      <trkpt lat="45.85052" lon="7.78603">
        <ele>2636</ele>
        <time>2000-01-01T16:53:08.000Z</time>
      </trkpt>
      <trkpt lat="45.85042" lon="7.78607">
        <ele>2628.9</ele>
        <time>2000-01-01T16:53:18.000Z</time>
      </trkpt>
      <trkpt lat="45.85033" lon="7.7863">
        <ele>2633</ele>
        <time>2000-01-01T16:53:28.000Z</time>
      </trkpt>
      <trkpt lat="45.8503" lon="7.78648">
        <ele>2625.3</ele>
        <time>2000-01-01T16:53:38.000Z</time>
      </trkpt>
      <trkpt lat="45.85036" lon="7.78662">
        <ele>2630</ele>
        <time>2000-01-01T16:53:48.000Z</time>
      </trkpt>
      <trkpt lat="45.85043" lon="7.78676">
        <ele>2617.9</ele>
        <time>2000-01-01T16:53:58.000Z</time>
      </trkpt>
      <trkpt lat="45.85053" lon="7.78685">
        <ele>2622</ele>
        <time>2000-01-01T16:54:08.000Z</time>
      </trkpt>
      <trkpt lat="45.85064" lon="7.78692">
        <ele>2611</ele>
        <time>2000-01-01T16:54:18.000Z</time>
      </trkpt>
      <trkpt lat="45.85073" lon="7.78704">
        <ele>2613</ele>
        <time>2000-01-01T16:54:28.000Z</time>
      </trkpt>
      <trkpt lat="45.85081" lon="7.78717">
        <ele>2602.4</ele>
        <time>2000-01-01T16:54:38.000Z</time>
      </trkpt>
      <trkpt lat="45.85093" lon="7.78726">
        <ele>2610</ele>
        <time>2000-01-01T16:54:48.000Z</time>
      </trkpt>
      <trkpt lat="45.85101" lon="7.78748">
        <ele>2593.5</ele>
        <time>2000-01-01T16:54:58.000Z</time>
      </trkpt>
      <trkpt lat="45.85127" lon="7.78767">
        <ele>2605</ele>
        <time>2000-01-01T16:55:08.000Z</time>
      </trkpt>
      <trkpt lat="45.85145" lon="7.78798">
        <ele>2600</ele>
        <time>2000-01-01T16:55:18.000Z</time>
      </trkpt>
      <trkpt lat="45.85152" lon="7.78813">
        <ele>2584.3</ele>
        <time>2000-01-01T16:55:28.000Z</time>
      </trkpt>
      <trkpt lat="45.85157" lon="7.78829">
        <ele>2595</ele>
        <time>2000-01-01T16:55:38.000Z</time>
      </trkpt>
      <trkpt lat="45.85161" lon="7.78845">
        <ele>2581.3</ele>
        <time>2000-01-01T16:55:48.000Z</time>
      </trkpt>
      <trkpt lat="45.85163" lon="7.78867">
        <ele>2587</ele>
        <time>2000-01-01T16:55:58.000Z</time>
      </trkpt>
      <trkpt lat="45.85158" lon="7.78889">
        <ele>2578.2</ele>
        <time>2000-01-01T16:56:08.000Z</time>
      </trkpt>
      <trkpt lat="45.8515" lon="7.78915">
        <ele>2570</ele>
        <time>2000-01-01T16:56:18.000Z</time>
      </trkpt>
      <trkpt lat="45.85144" lon="7.78931">
        <ele>2565.9</ele>
        <time>2000-01-01T16:56:28.000Z</time>
      </trkpt>
      <trkpt lat="45.85137" lon="7.78947">
        <ele>2562</ele>
        <time>2000-01-01T16:56:38.000Z</time>
      </trkpt>
      <trkpt lat="45.85139" lon="7.78961">
        <ele>2556.9</ele>
        <time>2000-01-01T16:56:48.000Z</time>
      </trkpt>
      <trkpt lat="45.85138" lon="7.78977">
        <ele>2552</ele>
        <time>2000-01-01T16:56:58.000Z</time>
      </trkpt>
      <trkpt lat="45.85143" lon="7.78995">
        <ele>2547.7</ele>
        <time>2000-01-01T16:57:08.000Z</time>
      </trkpt>
      <trkpt lat="45.85152" lon="7.79009">
        <ele>2540</ele>
        <time>2000-01-01T16:57:18.000Z</time>
      </trkpt>
      <trkpt lat="45.85158" lon="7.79024">
        <ele>2537.1</ele>
        <time>2000-01-01T16:57:28.000Z</time>
      </trkpt>
      <trkpt lat="45.8517" lon="7.79043">
        <ele>2526</ele>
        <time>2000-01-01T16:57:38.000Z</time>
      </trkpt>
      <trkpt lat="45.8518" lon="7.79049">
        <ele>2528.5</ele>
        <time>2000-01-01T16:57:48.000Z</time>
      </trkpt>
      <trkpt lat="45.85189" lon="7.79057">
        <ele>2521</ele>
        <time>2000-01-01T16:57:58.000Z</time>
      </trkpt>
      <trkpt lat="45.85199" lon="7.7907">
        <ele>2519.5</ele>
        <time>2000-01-01T16:58:08.000Z</time>
      </trkpt>
      <trkpt lat="45.8521" lon="7.79078">
        <ele>2512</ele>
        <time>2000-01-01T16:58:18.000Z</time>
      </trkpt>
      <trkpt lat="45.85231" lon="7.7909">
        <ele>2509</ele>
        <time>2000-01-01T16:58:28.000Z</time>
      </trkpt>
      <trkpt lat="45.85245" lon="7.79093">
        <ele>2512</ele>
        <time>2000-01-01T16:58:38.000Z</time>
      </trkpt>
      <trkpt lat="45.85254" lon="7.79101">
        <ele>2509</ele>
        <time>2000-01-01T16:58:48.000Z</time>
      </trkpt>
      <trkpt lat="45.85264" lon="7.79107">
        <ele>2509.5</ele>
        <time>2000-01-01T16:58:58.000Z</time>
      </trkpt>
      <trkpt lat="45.85264" lon="7.79121">
        <ele>2506</ele>
        <time>2000-01-01T16:59:08.000Z</time>
      </trkpt>
      <trkpt lat="45.85255" lon="7.79134">
        <ele>2497.8</ele>
        <time>2000-01-01T16:59:18.000Z</time>
      </trkpt>
      <trkpt lat="45.85255" lon="7.7915">
        <ele>2501</ele>
        <time>2000-01-01T16:59:28.000Z</time>
      </trkpt>
      <trkpt lat="45.85254" lon="7.79166">
        <ele>2485.5</ele>
        <time>2000-01-01T16:59:38.000Z</time>
      </trkpt>
      <trkpt lat="45.85243" lon="7.79164">
        <ele>2499</ele>
        <time>2000-01-01T16:59:48.000Z</time>
      </trkpt>
      <trkpt lat="45.85235" lon="7.79178">
        <ele>2484.4</ele>
        <time>2000-01-01T16:59:58.000Z</time>
      </trkpt>
      <trkpt lat="45.85229" lon="7.792">
        <ele>2494</ele>
        <time>2000-01-01T17:00:08.000Z</time>
      </trkpt>
      <trkpt lat="45.85222" lon="7.79211">
        <ele>2482.8</ele>
        <time>2000-01-01T17:00:18.000Z</time>
      </trkpt>
      <trkpt lat="45.85215" lon="7.7927">
        <ele>2485</ele>
        <time>2000-01-01T17:00:28.000Z</time>
      </trkpt>
      <trkpt lat="45.85206" lon="7.79283">
        <ele>2479.3</ele>
        <time>2000-01-01T17:00:38.000Z</time>
      </trkpt>
      <trkpt lat="45.85206" lon="7.793">
        <ele>2482</ele>
        <time>2000-01-01T17:00:48.000Z</time>
      </trkpt>
      <trkpt lat="45.85201" lon="7.79319">
        <ele>2470.4</ele>
        <time>2000-01-01T17:00:58.000Z</time>
      </trkpt>
      <trkpt lat="45.85203" lon="7.79334">
        <ele>2476</ele>
        <time>2000-01-01T17:01:08.000Z</time>
      </trkpt>
      <trkpt lat="45.85213" lon="7.79341">
        <ele>2466.6</ele>
        <time>2000-01-01T17:01:18.000Z</time>
      </trkpt>
      <trkpt lat="45.8522" lon="7.79353">
        <ele>2471</ele>
        <time>2000-01-01T17:01:28.000Z</time>
      </trkpt>
      <trkpt lat="45.85228" lon="7.79363">
        <ele>2464.1</ele>
        <time>2000-01-01T17:01:38.000Z</time>
      </trkpt>
      <trkpt lat="45.85234" lon="7.79389">
        <ele>2463</ele>
        <time>2000-01-01T17:01:48.000Z</time>
      </trkpt>
      <trkpt lat="45.8524" lon="7.79404">
        <ele>2457.8</ele>
        <time>2000-01-01T17:01:58.000Z</time>
      </trkpt>
      <trkpt lat="45.85253" lon="7.79414">
        <ele>2450</ele>
        <time>2000-01-01T17:02:08.000Z</time>
      </trkpt>
      <trkpt lat="45.85265" lon="7.79414">
        <ele>2454.9</ele>
        <time>2000-01-01T17:02:18.000Z</time>
      </trkpt>
      <trkpt lat="45.85276" lon="7.7942">
        <ele>2439</ele>
        <time>2000-01-01T17:02:28.000Z</time>
      </trkpt>
      <trkpt lat="45.85285" lon="7.79432">
        <ele>2443</ele>
        <time>2000-01-01T17:02:38.000Z</time>
      </trkpt>
      <trkpt lat="45.85292" lon="7.79444">
        <ele>2420</ele>
        <time>2000-01-01T17:02:48.000Z</time>
      </trkpt>
      <trkpt lat="45.85304" lon="7.79453">
        <ele>2428.2</ele>
        <time>2000-01-01T17:02:58.000Z</time>
      </trkpt>
      <trkpt lat="45.85316" lon="7.7946">
        <ele>2406</ele>
        <time>2000-01-01T17:03:08.000Z</time>
      </trkpt>
      <trkpt lat="45.85324" lon="7.79466">
        <ele>2412.3</ele>
        <time>2000-01-01T17:03:18.000Z</time>
      </trkpt>
      <trkpt lat="45.85336" lon="7.79463">
        <ele>2392</ele>
        <time>2000-01-01T17:03:28.000Z</time>
      </trkpt>
      <trkpt lat="45.8535" lon="7.79461">
        <ele>2400.4</ele>
        <time>2000-01-01T17:03:38.000Z</time>
      </trkpt>
      <trkpt lat="45.85361" lon="7.79457">
        <ele>2390</ele>
        <time>2000-01-01T17:03:48.000Z</time>
      </trkpt>
      <trkpt lat="45.85372" lon="7.79448">
        <ele>2395.7</ele>
        <time>2000-01-01T17:03:58.000Z</time>
      </trkpt>
      <trkpt lat="45.85397" lon="7.79437">
        <ele>2389</ele>
        <time>2000-01-01T17:04:08.000Z</time>
      </trkpt>
      <trkpt lat="45.85411" lon="7.79433">
        <ele>2387.4</ele>
        <time>2000-01-01T17:04:18.000Z</time>
      </trkpt>
      <trkpt lat="45.85422" lon="7.79432">
        <ele>2376</ele>
        <time>2000-01-01T17:04:28.000Z</time>
      </trkpt>
      <trkpt lat="45.85432" lon="7.7944">
        <ele>2378.2</ele>
        <time>2000-01-01T17:04:38.000Z</time>
      </trkpt>
      <trkpt lat="45.85454" lon="7.79451">
        <ele>2364</ele>
        <time>2000-01-01T17:04:48.000Z</time>
      </trkpt>
      <trkpt lat="45.85473" lon="7.79458">
        <ele>2362</ele>
        <time>2000-01-01T17:04:58.000Z</time>
      </trkpt>
      <trkpt lat="45.85489" lon="7.79461">
        <ele>2363.1</ele>
        <time>2000-01-01T17:05:08.000Z</time>
      </trkpt>
      <trkpt lat="45.855" lon="7.79455">
        <ele>2361</ele>
        <time>2000-01-01T17:05:18.000Z</time>
      </trkpt>
      <trkpt lat="45.85517" lon="7.79469">
        <ele>2354</ele>
        <time>2000-01-01T17:05:28.000Z</time>
      </trkpt>
      <trkpt lat="45.85509" lon="7.79481">
        <ele>2351</ele>
        <time>2000-01-01T17:05:38.000Z</time>
      </trkpt>
      <trkpt lat="45.8549" lon="7.79498">
        <ele>2340</ele>
        <time>2000-01-01T17:05:48.000Z</time>
      </trkpt>
      <trkpt lat="45.85486" lon="7.79523">
        <ele>2334.9</ele>
        <time>2000-01-01T17:05:58.000Z</time>
      </trkpt>
      <trkpt lat="45.8549" lon="7.79536">
        <ele>2315</ele>
        <time>2000-01-01T17:06:08.000Z</time>
      </trkpt>
      <trkpt lat="45.85503" lon="7.79539">
        <ele>2324.1</ele>
        <time>2000-01-01T17:06:18.000Z</time>
      </trkpt>
      <trkpt lat="45.85514" lon="7.79535">
        <ele>2314</ele>
        <time>2000-01-01T17:06:28.000Z</time>
      </trkpt>
      <trkpt lat="45.85524" lon="7.79536">
        <ele>2318.6</ele>
        <time>2000-01-01T17:06:38.000Z</time>
      </trkpt>
      <trkpt lat="45.85536" lon="7.79539">
        <ele>2313</ele>
        <time>2000-01-01T17:06:48.000Z</time>
      </trkpt>
      <trkpt lat="45.85549" lon="7.7954">
        <ele>2315</ele>
        <time>2000-01-01T17:06:58.000Z</time>
      </trkpt>
      <trkpt lat="45.85559" lon="7.79543">
        <ele>2307</ele>
        <time>2000-01-01T17:07:08.000Z</time>
      </trkpt>
      <trkpt lat="45.85572" lon="7.79549">
        <ele>2309.4</ele>
        <time>2000-01-01T17:07:18.000Z</time>
      </trkpt>
      <trkpt lat="45.85582" lon="7.79547">
        <ele>2306</ele>
        <time>2000-01-01T17:07:28.000Z</time>
      </trkpt>
      <trkpt lat="45.85594" lon="7.79542">
        <ele>2307.7</ele>
        <time>2000-01-01T17:07:38.000Z</time>
      </trkpt>
      <trkpt lat="45.85605" lon="7.79539">
        <ele>2306</ele>
        <time>2000-01-01T17:07:48.000Z</time>
      </trkpt>
      <trkpt lat="45.85628" lon="7.7954">
        <ele>2304</ele>
        <time>2000-01-01T17:07:58.000Z</time>
      </trkpt>
      <trkpt lat="45.85651" lon="7.79534">
        <ele>2300</ele>
        <time>2000-01-01T17:08:08.000Z</time>
      </trkpt>
      <trkpt lat="45.85667" lon="7.79536">
        <ele>2295.8</ele>
        <time>2000-01-01T17:08:18.000Z</time>
      </trkpt>
      <trkpt lat="45.85686" lon="7.79544">
        <ele>2293</ele>
        <time>2000-01-01T17:08:28.000Z</time>
      </trkpt>
      <trkpt lat="45.857" lon="7.79545">
        <ele>2292.7</ele>
        <time>2000-01-01T17:08:38.000Z</time>
      </trkpt>
      <trkpt lat="45.85711" lon="7.79542">
        <ele>2291</ele>
        <time>2000-01-01T17:08:48.000Z</time>
      </trkpt>
      <trkpt lat="45.85723" lon="7.79545">
        <ele>2287.6</ele>
        <time>2000-01-01T17:08:58.000Z</time>
      </trkpt>
      <trkpt lat="45.85721" lon="7.7956">
        <ele>2289</ele>
        <time>2000-01-01T17:09:08.000Z</time>
      </trkpt>
      <trkpt lat="45.85721" lon="7.79573">
        <ele>2276.8</ele>
        <time>2000-01-01T17:09:18.000Z</time>
      </trkpt>
      <trkpt lat="45.85734" lon="7.79564">
        <ele>2288</ele>
        <time>2000-01-01T17:09:28.000Z</time>
      </trkpt>
      <trkpt lat="45.85742" lon="7.79558">
        <ele>2277.9</ele>
        <time>2000-01-01T17:09:38.000Z</time>
      </trkpt>
      <trkpt lat="45.85752" lon="7.7956">
        <ele>2288</ele>
        <time>2000-01-01T17:09:48.000Z</time>
      </trkpt>
      <trkpt lat="45.85765" lon="7.79571">
        <ele>2277</ele>
        <time>2000-01-01T17:09:58.000Z</time>
      </trkpt>
      <trkpt lat="45.85772" lon="7.79596">
        <ele>2286</ele>
        <time>2000-01-01T17:10:08.000Z</time>
      </trkpt>
      <trkpt lat="45.85771" lon="7.79618">
        <ele>2274.7</ele>
        <time>2000-01-01T17:10:18.000Z</time>
      </trkpt>
      <trkpt lat="45.85772" lon="7.79636">
        <ele>2283</ele>
        <time>2000-01-01T17:10:28.000Z</time>
      </trkpt>
      <trkpt lat="45.85777" lon="7.79656">
        <ele>2277</ele>
        <time>2000-01-01T17:10:38.000Z</time>
      </trkpt>
      <trkpt lat="45.85779" lon="7.7967">
        <ele>2282</ele>
        <time>2000-01-01T17:10:48.000Z</time>
      </trkpt>
      <trkpt lat="45.8578" lon="7.79717">
        <ele>2282</ele>
        <time>2000-01-01T17:10:58.000Z</time>
      </trkpt>
      <trkpt lat="45.85779" lon="7.79731">
        <ele>2273.5</ele>
        <time>2000-01-01T17:11:08.000Z</time>
      </trkpt>
      <trkpt lat="45.85772" lon="7.7975">
        <ele>2277</ele>
        <time>2000-01-01T17:11:18.000Z</time>
      </trkpt>
      <trkpt lat="45.85766" lon="7.79761">
        <ele>2268.5</ele>
        <time>2000-01-01T17:11:28.000Z</time>
      </trkpt>
      <trkpt lat="45.85748" lon="7.79805">
        <ele>2265</ele>
        <time>2000-01-01T17:11:38.000Z</time>
      </trkpt>
      <trkpt lat="45.8574" lon="7.79819">
        <ele>2259.1</ele>
        <time>2000-01-01T17:11:48.000Z</time>
      </trkpt>
      <trkpt lat="45.85722" lon="7.79846">
        <ele>2255</ele>
        <time>2000-01-01T17:11:58.000Z</time>
      </trkpt>
      <trkpt lat="45.85715" lon="7.79857">
        <ele>2251.4</ele>
        <time>2000-01-01T17:12:08.000Z</time>
      </trkpt>
      <trkpt lat="45.85708" lon="7.7987">
        <ele>2244</ele>
        <time>2000-01-01T17:12:18.000Z</time>
      </trkpt>
      <trkpt lat="45.85698" lon="7.79895">
        <ele>2238</ele>
        <time>2000-01-01T17:12:28.000Z</time>
      </trkpt>
      <trkpt lat="45.85695" lon="7.79912">
        <ele>2243.3</ele>
        <time>2000-01-01T17:12:38.000Z</time>
      </trkpt>
      <trkpt lat="45.85693" lon="7.79947">
        <ele>2236</ele>
        <time>2000-01-01T17:12:48.000Z</time>
      </trkpt>
      <trkpt lat="45.85692" lon="7.79964">
        <ele>2236.3</ele>
        <time>2000-01-01T17:12:58.000Z</time>
      </trkpt>
      <trkpt lat="45.8569" lon="7.79978">
        <ele>2230</ele>
        <time>2000-01-01T17:13:08.000Z</time>
      </trkpt>
      <trkpt lat="45.85689" lon="7.80015">
        <ele>2226</ele>
        <time>2000-01-01T17:13:18.000Z</time>
      </trkpt>
      <trkpt lat="45.85685" lon="7.80033">
        <ele>2224.9</ele>
        <time>2000-01-01T17:13:28.000Z</time>
      </trkpt>
      <trkpt lat="45.85683" lon="7.80048">
        <ele>2222</ele>
        <time>2000-01-01T17:13:38.000Z</time>
      </trkpt>
      <trkpt lat="45.85683" lon="7.80062">
        <ele>2221.6</ele>
        <time>2000-01-01T17:13:48.000Z</time>
      </trkpt>
      <trkpt lat="45.85681" lon="7.80078">
        <ele>2218</ele>
        <time>2000-01-01T17:13:58.000Z</time>
      </trkpt>
      <trkpt lat="45.85676" lon="7.80099">
        <ele>2215</ele>
        <time>2000-01-01T17:14:08.000Z</time>
      </trkpt>
      <trkpt lat="45.85674" lon="7.80111">
        <ele>2210</ele>
        <time>2000-01-01T17:14:18.000Z</time>
      </trkpt>
      <trkpt lat="45.85669" lon="7.80128">
        <ele>2209.2</ele>
        <time>2000-01-01T17:14:28.000Z</time>
      </trkpt>
      <trkpt lat="45.85631" lon="7.80193">
        <ele>2194</ele>
        <time>2000-01-01T17:14:38.000Z</time>
      </trkpt>
      <trkpt lat="45.85623" lon="7.80206">
        <ele>2186.5</ele>
        <time>2000-01-01T17:14:48.000Z</time>
      </trkpt>
      <trkpt lat="45.85614" lon="7.80222">
        <ele>2188</ele>
        <time>2000-01-01T17:14:58.000Z</time>
      </trkpt>
      <trkpt lat="45.85608" lon="7.80234">
        <ele>2181.2</ele>
        <time>2000-01-01T17:15:08.000Z</time>
      </trkpt>
      <trkpt lat="45.85585" lon="7.80276">
        <ele>2177</ele>
        <time>2000-01-01T17:15:18.000Z</time>
      </trkpt>
      <trkpt lat="45.85569" lon="7.80303">
        <ele>2170</ele>
        <time>2000-01-01T17:15:28.000Z</time>
      </trkpt>
      <trkpt lat="45.85562" lon="7.8033">
        <ele>2166</ele>
        <time>2000-01-01T17:15:38.000Z</time>
      </trkpt>
      <trkpt lat="45.85555" lon="7.80346">
        <ele>2172</ele>
        <time>2000-01-01T17:15:48.000Z</time>
      </trkpt>
      <trkpt lat="45.85543" lon="7.80369">
        <ele>2162</ele>
        <time>2000-01-01T17:15:58.000Z</time>
      </trkpt>
      <trkpt lat="45.8553" lon="7.80371">
        <ele>2169.9</ele>
        <time>2000-01-01T17:16:08.000Z</time>
      </trkpt>
      <trkpt lat="45.85507" lon="7.80366">
        <ele>2161</ele>
        <time>2000-01-01T17:16:18.000Z</time>
      </trkpt>
      <trkpt lat="45.85488" lon="7.80363">
        <ele>2161</ele>
        <time>2000-01-01T17:16:28.000Z</time>
      </trkpt>
      <trkpt lat="45.85475" lon="7.80367">
        <ele>2166.6</ele>
        <time>2000-01-01T17:16:38.000Z</time>
      </trkpt>
      <trkpt lat="45.85462" lon="7.80359">
        <ele>2162</ele>
        <time>2000-01-01T17:16:48.000Z</time>
      </trkpt>
      <trkpt lat="45.85442" lon="7.80355">
        <ele>2162</ele>
        <time>2000-01-01T17:16:58.000Z</time>
      </trkpt>
      <trkpt lat="45.85417" lon="7.80377">
        <ele>2162</ele>
        <time>2000-01-01T17:17:08.000Z</time>
      </trkpt>
      <trkpt lat="45.85408" lon="7.80383">
        <ele>2173</ele>
        <time>2000-01-01T17:17:18.000Z</time>
      </trkpt>
      <trkpt lat="45.85395" lon="7.80387">
        <ele>2161</ele>
        <time>2000-01-01T17:17:28.000Z</time>
      </trkpt>
      <trkpt lat="45.85375" lon="7.80405">
        <ele>2160</ele>
        <time>2000-01-01T17:17:38.000Z</time>
      </trkpt>
      <trkpt lat="45.85365" lon="7.80428">
        <ele>2159</ele>
        <time>2000-01-01T17:17:48.000Z</time>
      </trkpt>
      <trkpt lat="45.85341" lon="7.80469">
        <ele>2156</ele>
        <time>2000-01-01T17:17:58.000Z</time>
      </trkpt>
      <trkpt lat="45.85327" lon="7.80476">
        <ele>2170</ele>
        <time>2000-01-01T17:18:08.000Z</time>
      </trkpt>
      <trkpt lat="45.8532" lon="7.80494">
        <ele>2151</ele>
        <time>2000-01-01T17:18:18.000Z</time>
      </trkpt>
      <trkpt lat="45.85311" lon="7.80514">
        <ele>2164.8</ele>
        <time>2000-01-01T17:18:28.000Z</time>
      </trkpt>
      <trkpt lat="45.85301" lon="7.80525">
        <ele>2146</ele>
        <time>2000-01-01T17:18:38.000Z</time>
      </trkpt>
      <trkpt lat="45.85294" lon="7.80538">
        <ele>2159.2</ele>
        <time>2000-01-01T17:18:48.000Z</time>
      </trkpt>
      <trkpt lat="45.85284" lon="7.80547">
        <ele>2141</ele>
        <time>2000-01-01T17:18:58.000Z</time>
      </trkpt>
      <trkpt lat="45.85279" lon="7.8056">
        <ele>2153.8</ele>
        <time>2000-01-01T17:19:08.000Z</time>
      </trkpt>
      <trkpt lat="45.85269" lon="7.80571">
        <ele>2133</ele>
        <time>2000-01-01T17:19:18.000Z</time>
      </trkpt>
      <trkpt lat="45.85261" lon="7.80577">
        <ele>2147.9</ele>
        <time>2000-01-01T17:19:28.000Z</time>
      </trkpt>
      <trkpt lat="45.85253" lon="7.80593">
        <ele>2127</ele>
        <time>2000-01-01T17:19:38.000Z</time>
      </trkpt>
      <trkpt lat="45.85243" lon="7.80604">
        <ele>2138.9</ele>
        <time>2000-01-01T17:19:48.000Z</time>
      </trkpt>
      <trkpt lat="45.85239" lon="7.80618">
        <ele>2118</ele>
        <time>2000-01-01T17:19:58.000Z</time>
      </trkpt>
      <trkpt lat="45.85237" lon="7.80638">
        <ele>2131.8</ele>
        <time>2000-01-01T17:20:08.000Z</time>
      </trkpt>
      <trkpt lat="45.85223" lon="7.80664">
        <ele>2103</ele>
        <time>2000-01-01T17:20:18.000Z</time>
      </trkpt>
      <trkpt lat="45.85221" lon="7.8068">
        <ele>2117.4</ele>
        <time>2000-01-01T17:20:28.000Z</time>
      </trkpt>
      <trkpt lat="45.85209" lon="7.8068">
        <ele>2096</ele>
        <time>2000-01-01T17:20:38.000Z</time>
      </trkpt>
      <trkpt lat="45.85191" lon="7.80682">
        <ele>2110.5</ele>
        <time>2000-01-01T17:20:48.000Z</time>
      </trkpt>
      <trkpt lat="45.85175" lon="7.8068">
        <ele>2095</ele>
        <time>2000-01-01T17:20:58.000Z</time>
      </trkpt>
      <trkpt lat="45.85166" lon="7.80671">
        <ele>2104.1</ele>
        <time>2000-01-01T17:21:08.000Z</time>
      </trkpt>
      <trkpt lat="45.85161" lon="7.80659">
        <ele>2095</ele>
        <time>2000-01-01T17:21:18.000Z</time>
      </trkpt>
      <trkpt lat="45.85149" lon="7.8065">
        <ele>2098.2</ele>
        <time>2000-01-01T17:21:28.000Z</time>
      </trkpt>
      <trkpt lat="45.85136" lon="7.80648">
        <ele>2090</ele>
        <time>2000-01-01T17:21:38.000Z</time>
      </trkpt>
      <trkpt lat="45.85127" lon="7.80637">
        <ele>2094.2</ele>
        <time>2000-01-01T17:21:48.000Z</time>
      </trkpt>
      <trkpt lat="45.8512" lon="7.80652">
        <ele>2082</ele>
        <time>2000-01-01T17:21:58.000Z</time>
      </trkpt>
      <trkpt lat="45.85115" lon="7.80665">
        <ele>2085.6</ele>
        <time>2000-01-01T17:22:08.000Z</time>
      </trkpt>
      <trkpt lat="45.85105" lon="7.80672">
        <ele>2073</ele>
        <time>2000-01-01T17:22:18.000Z</time>
      </trkpt>
      <trkpt lat="45.85092" lon="7.80677">
        <ele>2073.2</ele>
        <time>2000-01-01T17:22:28.000Z</time>
      </trkpt>
      <trkpt lat="45.85082" lon="7.80684">
        <ele>2065</ele>
        <time>2000-01-01T17:22:38.000Z</time>
      </trkpt>
      <trkpt lat="45.85073" lon="7.80677">
        <ele>2063.3</ele>
        <time>2000-01-01T17:22:48.000Z</time>
      </trkpt>
      <trkpt lat="45.85068" lon="7.80663">
        <ele>2065</ele>
        <time>2000-01-01T17:22:58.000Z</time>
      </trkpt>
      <trkpt lat="45.85057" lon="7.8067">
        <ele>2053.6</ele>
        <time>2000-01-01T17:23:08.000Z</time>
      </trkpt>
      <trkpt lat="45.85047" lon="7.80663">
        <ele>2059</ele>
        <time>2000-01-01T17:23:18.000Z</time>
      </trkpt>
      <trkpt lat="45.85039" lon="7.80667">
        <ele>2041.6</ele>
        <time>2000-01-01T17:23:28.000Z</time>
      </trkpt>
      <trkpt lat="45.85032" lon="7.80677">
        <ele>2052</ele>
        <time>2000-01-01T17:23:38.000Z</time>
      </trkpt>
      <trkpt lat="45.85027" lon="7.80691">
        <ele>2029.3</ele>
        <time>2000-01-01T17:23:48.000Z</time>
      </trkpt>
      <trkpt lat="45.85004" lon="7.80697">
        <ele>2035</ele>
        <time>2000-01-01T17:23:58.000Z</time>
      </trkpt>
      <trkpt lat="45.84996" lon="7.8069">
        <ele>2017.2</ele>
        <time>2000-01-01T17:24:08.000Z</time>
      </trkpt>
      <trkpt lat="45.84986" lon="7.80703">
        <ele>2033</ele>
        <time>2000-01-01T17:24:18.000Z</time>
      </trkpt>
      <trkpt lat="45.84976" lon="7.80733">
        <ele>2015</ele>
        <time>2000-01-01T17:24:28.000Z</time>
      </trkpt>
      <trkpt lat="45.84974" lon="7.80748">
        <ele>2002</ele>
        <time>2000-01-01T17:24:38.000Z</time>
      </trkpt>
      <trkpt lat="45.8497" lon="7.80763">
        <ele>1996</ele>
        <time>2000-01-01T17:24:48.000Z</time>
      </trkpt>
      <trkpt lat="45.84971" lon="7.80782">
        <ele>1996.8</ele>
        <time>2000-01-01T17:24:58.000Z</time>
      </trkpt>
      <trkpt lat="45.84957" lon="7.80795">
        <ele>1977</ele>
        <time>2000-01-01T17:25:08.000Z</time>
      </trkpt>
      <trkpt lat="45.84942" lon="7.80799">
        <ele>1995.6</ele>
        <time>2000-01-01T17:25:18.000Z</time>
      </trkpt>
      <trkpt lat="45.84933" lon="7.80804">
        <ele>1971</ele>
        <time>2000-01-01T17:25:28.000Z</time>
      </trkpt>
      <trkpt lat="45.84922" lon="7.80809">
        <ele>1990.3</ele>
        <time>2000-01-01T17:25:38.000Z</time>
      </trkpt>
      <trkpt lat="45.84908" lon="7.80806">
        <ele>1969</ele>
        <time>2000-01-01T17:25:48.000Z</time>
      </trkpt>
      <trkpt lat="45.84897" lon="7.80799">
        <ele>1982.2</ele>
        <time>2000-01-01T17:25:58.000Z</time>
      </trkpt>
      <trkpt lat="45.84882" lon="7.80803">
        <ele>1968</ele>
        <time>2000-01-01T17:26:08.000Z</time>
      </trkpt>
      <trkpt lat="45.8487" lon="7.80801">
        <ele>1970</ele>
        <time>2000-01-01T17:26:18.000Z</time>
      </trkpt>
      <trkpt lat="45.84859" lon="7.80804">
        <ele>1967</ele>
        <time>2000-01-01T17:26:28.000Z</time>
      </trkpt>
      <trkpt lat="45.84848" lon="7.80812">
        <ele>1959.8</ele>
        <time>2000-01-01T17:26:38.000Z</time>
      </trkpt>
      <trkpt lat="45.84858" lon="7.80821">
        <ele>1956</ele>
        <time>2000-01-01T17:26:48.000Z</time>
      </trkpt>
      <trkpt lat="45.84849" lon="7.80829">
        <ele>1951.4</ele>
        <time>2000-01-01T17:26:58.000Z</time>
      </trkpt>
      <trkpt lat="45.84835" lon="7.80834">
        <ele>1949</ele>
        <time>2000-01-01T17:27:08.000Z</time>
      </trkpt>
      <trkpt lat="45.84822" lon="7.80836">
        <ele>1943.5</ele>
        <time>2000-01-01T17:27:18.000Z</time>
      </trkpt>
      <trkpt lat="45.84808" lon="7.80841">
        <ele>1946</ele>
        <time>2000-01-01T17:27:28.000Z</time>
      </trkpt>
      <trkpt lat="45.84798" lon="7.80841">
        <ele>1936.8</ele>
        <time>2000-01-01T17:27:38.000Z</time>
      </trkpt>
      <trkpt lat="45.84785" lon="7.80844">
        <ele>1943</ele>
        <time>2000-01-01T17:27:48.000Z</time>
      </trkpt>
      <trkpt lat="45.84803" lon="7.80868">
        <ele>1929</ele>
        <time>2000-01-01T17:27:58.000Z</time>
      </trkpt>
      <trkpt lat="45.84814" lon="7.80885">
        <ele>1917.3</ele>
        <time>2000-01-01T17:28:08.000Z</time>
      </trkpt>
      <trkpt lat="45.84825" lon="7.80897">
        <ele>1914</ele>
        <time>2000-01-01T17:28:18.000Z</time>
      </trkpt>
      <trkpt lat="45.84839" lon="7.80926">
        <ele>1898</ele>
        <time>2000-01-01T17:28:28.000Z</time>
      </trkpt>
      <trkpt lat="45.84829" lon="7.80935">
        <ele>1899.8</ele>
        <time>2000-01-01T17:28:38.000Z</time>
      </trkpt>
      <trkpt lat="45.84811" lon="7.80949">
        <ele>1885</ele>
        <time>2000-01-01T17:28:48.000Z</time>
      </trkpt>
      <trkpt lat="45.84812" lon="7.80965">
        <ele>1889</ele>
        <time>2000-01-01T17:28:58.000Z</time>
      </trkpt>
      <trkpt lat="45.84811" lon="7.80981">
        <ele>1875</ele>
        <time>2000-01-01T17:29:08.000Z</time>
      </trkpt>
      <trkpt lat="45.84799" lon="7.80986">
        <ele>1882.7</ele>
        <time>2000-01-01T17:29:18.000Z</time>
      </trkpt>
      <trkpt lat="45.84787" lon="7.80978">
        <ele>1866</ele>
        <time>2000-01-01T17:29:28.000Z</time>
      </trkpt>
      <trkpt lat="45.84772" lon="7.80981">
        <ele>1874.8</ele>
        <time>2000-01-01T17:29:38.000Z</time>
      </trkpt>
      <trkpt lat="45.84753" lon="7.8097">
        <ele>1862</ele>
        <time>2000-01-01T17:29:48.000Z</time>
      </trkpt>
      <trkpt lat="45.84738" lon="7.80972">
        <ele>1868.6</ele>
        <time>2000-01-01T17:29:58.000Z</time>
      </trkpt>
      <trkpt lat="45.8474" lon="7.80989">
        <ele>1854</ele>
        <time>2000-01-01T17:30:08.000Z</time>
      </trkpt>
      <trkpt lat="45.84753" lon="7.81024">
        <ele>1840</ele>
        <time>2000-01-01T17:30:18.000Z</time>
      </trkpt>
      <trkpt lat="45.84744" lon="7.8103">
        <ele>1846.4</ele>
        <time>2000-01-01T17:30:28.000Z</time>
      </trkpt>
      <trkpt lat="45.84734" lon="7.81027">
        <ele>1838</ele>
        <time>2000-01-01T17:30:38.000Z</time>
      </trkpt>
      <trkpt lat="45.84725" lon="7.81029">
        <ele>1840.5</ele>
        <time>2000-01-01T17:30:48.000Z</time>
      </trkpt>
      <trkpt lat="45.84712" lon="7.81031">
        <ele>1831</ele>
        <time>2000-01-01T17:30:58.000Z</time>
      </trkpt>
      <trkpt lat="45.847" lon="7.81038">
        <ele>1831.5</ele>
        <time>2000-01-01T17:31:08.000Z</time>
      </trkpt>
      <trkpt lat="45.84695" lon="7.81052">
        <ele>1820</ele>
        <time>2000-01-01T17:31:18.000Z</time>
      </trkpt>
      <trkpt lat="45.84673" lon="7.81053">
        <ele>1817</ele>
        <time>2000-01-01T17:31:28.000Z</time>
      </trkpt>
      <trkpt lat="45.84652" lon="7.81062">
        <ele>1811</ele>
        <time>2000-01-01T17:31:38.000Z</time>
      </trkpt>
      <trkpt lat="45.8464" lon="7.81057">
        <ele>1811.4</ele>
        <time>2000-01-01T17:31:48.000Z</time>
      </trkpt>
      <trkpt lat="45.84632" lon="7.81062">
        <ele>1808</ele>
        <time>2000-01-01T17:31:58.000Z</time>
      </trkpt>
      <trkpt lat="45.84614" lon="7.81066">
        <ele>1807</ele>
        <time>2000-01-01T17:32:08.000Z</time>
      </trkpt>
      <trkpt lat="45.84602" lon="7.81067">
        <ele>1805</ele>
        <time>2000-01-01T17:32:18.000Z</time>
      </trkpt>
      <trkpt lat="45.84588" lon="7.81061">
        <ele>1802.5</ele>
        <time>2000-01-01T17:32:28.000Z</time>
      </trkpt>
      <trkpt lat="45.84573" lon="7.81065">
        <ele>1802</ele>
        <time>2000-01-01T17:32:38.000Z</time>
      </trkpt>
      <trkpt lat="45.84543" lon="7.81077">
        <ele>1796</ele>
        <time>2000-01-01T17:32:48.000Z</time>
      </trkpt>
      <trkpt lat="45.84531" lon="7.81079">
        <ele>1786.3</ele>
        <time>2000-01-01T17:32:58.000Z</time>
      </trkpt>
      <trkpt lat="45.84512" lon="7.81085">
        <ele>1790</ele>
        <time>2000-01-01T17:33:08.000Z</time>
      </trkpt>
      <trkpt lat="45.84505" lon="7.81098">
        <ele>1776.8</ele>
        <time>2000-01-01T17:33:18.000Z</time>
      </trkpt>
      <trkpt lat="45.84496" lon="7.81105">
        <ele>1780</ele>
        <time>2000-01-01T17:33:28.000Z</time>
      </trkpt>
      <trkpt lat="45.84489" lon="7.81118">
        <ele>1770.5</ele>
        <time>2000-01-01T17:33:38.000Z</time>
      </trkpt>
      <trkpt lat="45.84481" lon="7.81135">
        <ele>1767</ele>
        <time>2000-01-01T17:33:48.000Z</time>
      </trkpt>
      <trkpt lat="45.84475" lon="7.81154">
        <ele>1761.9</ele>
        <time>2000-01-01T17:33:58.000Z</time>
      </trkpt>
      <trkpt lat="45.84469" lon="7.81166">
        <ele>1755</ele>
        <time>2000-01-01T17:34:08.000Z</time>
      </trkpt>
      <trkpt lat="45.84463" lon="7.81176">
        <ele>1755.6</ele>
        <time>2000-01-01T17:34:18.000Z</time>
      </trkpt>
      <trkpt lat="45.84448" lon="7.81194">
        <ele>1744</ele>
        <time>2000-01-01T17:34:28.000Z</time>
      </trkpt>
      <trkpt lat="45.84436" lon="7.81205">
        <ele>1747.7</ele>
        <time>2000-01-01T17:34:38.000Z</time>
      </trkpt>
      <trkpt lat="45.84423" lon="7.81202">
        <ele>1739</ele>
        <time>2000-01-01T17:34:48.000Z</time>
      </trkpt>
      <trkpt lat="45.8441" lon="7.81205">
        <ele>1747</ele>
        <time>2000-01-01T17:34:58.000Z</time>
      </trkpt>
      <trkpt lat="45.844" lon="7.81212">
        <ele>1735</ele>
        <time>2000-01-01T17:35:08.000Z</time>
      </trkpt>
      <trkpt lat="45.8439" lon="7.81223">
        <ele>1739</ele>
        <time>2000-01-01T17:35:18.000Z</time>
      </trkpt>
      <trkpt lat="45.84372" lon="7.81221">
        <ele>1732</ele>
        <time>2000-01-01T17:35:28.000Z</time>
      </trkpt>
      <trkpt lat="45.84349" lon="7.8123">
        <ele>1729</ele>
        <time>2000-01-01T17:35:38.000Z</time>
      </trkpt>
      <trkpt lat="45.8434" lon="7.81243">
        <ele>1729.8</ele>
        <time>2000-01-01T17:35:48.000Z</time>
      </trkpt>
      <trkpt lat="45.84327" lon="7.81256">
        <ele>1724</ele>
        <time>2000-01-01T17:35:58.000Z</time>
      </trkpt>
      <trkpt lat="45.84319" lon="7.81264">
        <ele>1725.5</ele>
        <time>2000-01-01T17:36:08.000Z</time>
      </trkpt>
      <trkpt lat="45.84312" lon="7.8128">
        <ele>1721</ele>
        <time>2000-01-01T17:36:18.000Z</time>
      </trkpt>
      <trkpt lat="45.84305" lon="7.81288">
        <ele>1721.2</ele>
        <time>2000-01-01T17:36:28.000Z</time>
      </trkpt>
      <trkpt lat="45.84279" lon="7.81289">
        <ele>1720</ele>
        <time>2000-01-01T17:36:38.000Z</time>
      </trkpt>
      <trkpt lat="45.84269" lon="7.81293">
        <ele>1719</ele>
        <time>2000-01-01T17:36:48.000Z</time>
      </trkpt>
      <trkpt lat="45.8426" lon="7.813">
        <ele>1720</ele>
        <time>2000-01-01T17:36:58.000Z</time>
      </trkpt>
      <trkpt lat="45.8425" lon="7.81299">
        <ele>1716.7</ele>
        <time>2000-01-01T17:37:08.000Z</time>
      </trkpt>
      <trkpt lat="45.84226" lon="7.81288">
        <ele>1720</ele>
        <time>2000-01-01T17:37:18.000Z</time>
      </trkpt>
      <trkpt lat="45.84198" lon="7.81287">
        <ele>1720</ele>
        <time>2000-01-01T17:37:28.000Z</time>
      </trkpt>
      <trkpt lat="45.84186" lon="7.8129">
        <ele>1708.1</ele>
        <time>2000-01-01T17:37:38.000Z</time>
      </trkpt>
      <trkpt lat="45.84175" lon="7.813">
        <ele>1719</ele>
        <time>2000-01-01T17:37:48.000Z</time>
      </trkpt>
      <trkpt lat="45.84154" lon="7.81305">
        <ele>1717</ele>
        <time>2000-01-01T17:37:58.000Z</time>
      </trkpt>
      <trkpt lat="45.84129" lon="7.81313">
        <ele>1714</ele>
        <time>2000-01-01T17:38:08.000Z</time>
      </trkpt>
      <trkpt lat="45.84111" lon="7.81322">
        <ele>1712</ele>
        <time>2000-01-01T17:38:18.000Z</time>
      </trkpt>
      <trkpt lat="45.84094" lon="7.81339">
        <ele>1711</ele>
        <time>2000-01-01T17:38:28.000Z</time>
      </trkpt>
      <trkpt lat="45.84074" lon="7.81364">
        <ele>1710</ele>
        <time>2000-01-01T17:38:38.000Z</time>
      </trkpt>
      <trkpt lat="45.84061" lon="7.81371">
        <ele>1700.7</ele>
        <time>2000-01-01T17:38:48.000Z</time>
      </trkpt>
      <trkpt lat="45.84043" lon="7.81357">
        <ele>1706</ele>
        <time>2000-01-01T17:38:58.000Z</time>
      </trkpt>
      <trkpt lat="45.84026" lon="7.81345">
        <ele>1704</ele>
        <time>2000-01-01T17:39:08.000Z</time>
      </trkpt>
      <trkpt lat="45.84012" lon="7.8134">
        <ele>1699.6</ele>
        <time>2000-01-01T17:39:18.000Z</time>
      </trkpt>
      <trkpt lat="45.83997" lon="7.81336">
        <ele>1702</ele>
        <time>2000-01-01T17:39:28.000Z</time>
      </trkpt>
      <trkpt lat="45.83965" lon="7.81339">
        <ele>1702</ele>
        <time>2000-01-01T17:39:38.000Z</time>
      </trkpt>
      <trkpt lat="45.83949" lon="7.81352">
        <ele>1691.5</ele>
        <time>2000-01-01T17:39:48.000Z</time>
      </trkpt>
      <trkpt lat="45.83936" lon="7.81355">
        <ele>1703</ele>
        <time>2000-01-01T17:39:58.000Z</time>
      </trkpt>
      <trkpt lat="45.83915" lon="7.81356">
        <ele>1703</ele>
        <time>2000-01-01T17:40:08.000Z</time>
      </trkpt>
      <trkpt lat="45.83895" lon="7.81367">
        <ele>1703</ele>
        <time>2000-01-01T17:40:18.000Z</time>
      </trkpt>
      <trkpt lat="45.83881" lon="7.81369">
        <ele>1687.2</ele>
        <time>2000-01-01T17:40:28.000Z</time>
      </trkpt>
      <trkpt lat="45.83872" lon="7.8138">
        <ele>1699</ele>
        <time>2000-01-01T17:40:38.000Z</time>
      </trkpt>
      <trkpt lat="45.83849" lon="7.81398">
        <ele>1693</ele>
        <time>2000-01-01T17:40:48.000Z</time>
      </trkpt>
      <trkpt lat="45.8384" lon="7.81404">
        <ele>1681.9</ele>
        <time>2000-01-01T17:40:58.000Z</time>
      </trkpt>
      <trkpt lat="45.8383" lon="7.81415">
        <ele>1692</ele>
        <time>2000-01-01T17:41:08.000Z</time>
      </trkpt>
      <trkpt lat="45.83819" lon="7.81434">
        <ele>1679.8</ele>
        <time>2000-01-01T17:41:18.000Z</time>
      </trkpt>
      <trkpt lat="45.83808" lon="7.81444">
        <ele>1692</ele>
        <time>2000-01-01T17:41:28.000Z</time>
      </trkpt>
      <trkpt lat="45.8379" lon="7.81454">
        <ele>1691</ele>
        <time>2000-01-01T17:41:38.000Z</time>
      </trkpt>
      <trkpt lat="45.83763" lon="7.81471">
        <ele>1690</ele>
        <time>2000-01-01T17:41:48.000Z</time>
      </trkpt>
      <trkpt lat="45.83747" lon="7.81497">
        <ele>1689</ele>
        <time>2000-01-01T17:41:58.000Z</time>
      </trkpt>
      <trkpt lat="45.8374" lon="7.81511">
        <ele>1670.5</ele>
        <time>2000-01-01T17:42:08.000Z</time>
      </trkpt>
      <trkpt lat="45.83726" lon="7.81529">
        <ele>1687</ele>
        <time>2000-01-01T17:42:18.000Z</time>
      </trkpt>
      <trkpt lat="45.83716" lon="7.81547">
        <ele>1669.2</ele>
        <time>2000-01-01T17:42:28.000Z</time>
      </trkpt>
      <trkpt lat="45.83695" lon="7.81567">
        <ele>1684</ele>
        <time>2000-01-01T17:42:38.000Z</time>
      </trkpt>
      <trkpt lat="45.83667" lon="7.81598">
        <ele>1683</ele>
        <time>2000-01-01T17:42:48.000Z</time>
      </trkpt>
      <trkpt lat="45.83653" lon="7.81625">
        <ele>1681</ele>
        <time>2000-01-01T17:42:58.000Z</time>
      </trkpt>
      <trkpt lat="45.83645" lon="7.81644">
        <ele>1663</ele>
        <time>2000-01-01T17:43:08.000Z</time>
      </trkpt>
      <trkpt lat="45.83633" lon="7.81666">
        <ele>1680</ele>
        <time>2000-01-01T17:43:18.000Z</time>
      </trkpt>
      <trkpt lat="45.83606" lon="7.81701">
        <ele>1678</ele>
        <time>2000-01-01T17:43:28.000Z</time>
      </trkpt>
      <trkpt lat="45.83584" lon="7.81711">
        <ele>1676</ele>
        <time>2000-01-01T17:43:38.000Z</time>
      </trkpt>
      <trkpt lat="45.83566" lon="7.81715">
        <ele>1659.6</ele>
        <time>2000-01-01T17:43:48.000Z</time>
      </trkpt>
      <trkpt lat="45.83546" lon="7.81723">
        <ele>1674</ele>
        <time>2000-01-01T17:43:58.000Z</time>
      </trkpt>
      <trkpt lat="45.83528" lon="7.81736">
        <ele>1672</ele>
        <time>2000-01-01T17:44:08.000Z</time>
      </trkpt>
      <trkpt lat="45.83512" lon="7.81747">
        <ele>1657</ele>
        <time>2000-01-01T17:44:18.000Z</time>
      </trkpt>
      <trkpt lat="45.83475" lon="7.81756">
        <ele>1667</ele>
        <time>2000-01-01T17:44:28.000Z</time>
      </trkpt>
      <trkpt lat="45.83438" lon="7.81752">
        <ele>1666</ele>
        <time>2000-01-01T17:44:38.000Z</time>
      </trkpt>
      <trkpt lat="45.83429" lon="7.81751">
        <ele>1652.4</ele>
        <time>2000-01-01T17:44:48.000Z</time>
      </trkpt>
      <trkpt lat="45.83411" lon="7.81753">
        <ele>1666</ele>
        <time>2000-01-01T17:44:58.000Z</time>
      </trkpt>
      <trkpt lat="45.83387" lon="7.81763">
        <ele>1665</ele>
        <time>2000-01-01T17:45:08.000Z</time>
      </trkpt>
      <trkpt lat="45.83369" lon="7.81778">
        <ele>1664</ele>
        <time>2000-01-01T17:45:18.000Z</time>
      </trkpt>
      <trkpt lat="45.83354" lon="7.81796">
        <ele>1662</ele>
        <time>2000-01-01T17:45:28.000Z</time>
      </trkpt>
      <trkpt lat="45.83344" lon="7.81821">
        <ele>1658</ele>
        <time>2000-01-01T17:45:38.000Z</time>
      </trkpt>
      <trkpt lat="45.83336" lon="7.81845">
        <ele>1650.1</ele>
        <time>2000-01-01T17:45:48.000Z</time>
      </trkpt>
      <trkpt lat="45.83328" lon="7.81877">
        <ele>1652</ele>
        <time>2000-01-01T17:45:58.000Z</time>
      </trkpt>
      <trkpt lat="45.83324" lon="7.81899">
        <ele>1647.3</ele>
        <time>2000-01-01T17:46:08.000Z</time>
      </trkpt>
      <trkpt lat="45.8332" lon="7.8193">
        <ele>1647</ele>
        <time>2000-01-01T17:46:18.000Z</time>
      </trkpt>
      <trkpt lat="45.83316" lon="7.81942">
        <ele>1646</ele>
        <time>2000-01-01T17:46:28.000Z</time>
      </trkpt>
      <trkpt lat="45.83305" lon="7.81965">
        <ele>1644</ele>
        <time>2000-01-01T17:46:38.000Z</time>
      </trkpt>
      <trkpt lat="45.83292" lon="7.81993">
        <ele>1644</ele>
        <time>2000-01-01T17:46:48.000Z</time>
      </trkpt>
      <trkpt lat="45.83272" lon="7.82037">
        <ele>1644</ele>
        <time>2000-01-01T17:46:58.000Z</time>
      </trkpt>
      <trkpt lat="45.83264" lon="7.8206">
        <ele>1642.6</ele>
        <time>2000-01-01T17:47:08.000Z</time>
      </trkpt>
      <trkpt lat="45.8326" lon="7.82073">
        <ele>1644</ele>
        <time>2000-01-01T17:47:18.000Z</time>
      </trkpt>
      <trkpt lat="45.83251" lon="7.82099">
        <ele>1644</ele>
        <time>2000-01-01T17:47:28.000Z</time>
      </trkpt>
      <trkpt lat="45.83243" lon="7.82113">
        <ele>1638.8</ele>
        <time>2000-01-01T17:47:38.000Z</time>
      </trkpt>
      <trkpt lat="45.83227" lon="7.82127">
        <ele>1642</ele>
        <time>2000-01-01T17:47:48.000Z</time>
      </trkpt>
      <trkpt lat="45.83206" lon="7.82142">
        <ele>1642</ele>
        <time>2000-01-01T17:47:58.000Z</time>
      </trkpt>
      <trkpt lat="45.83186" lon="7.82161">
        <ele>1642</ele>
        <time>2000-01-01T17:48:08.000Z</time>
      </trkpt>
      <trkpt lat="45.8316" lon="7.82186">
        <ele>1641</ele>
        <time>2000-01-01T17:48:18.000Z</time>
      </trkpt>
      <trkpt lat="45.83144" lon="7.82205">
        <ele>1640</ele>
        <time>2000-01-01T17:48:28.000Z</time>
      </trkpt>
      <trkpt lat="45.83129" lon="7.82222">
        <ele>1640</ele>
        <time>2000-01-01T17:48:38.000Z</time>
      </trkpt>
      <trkpt lat="45.83113" lon="7.82236">
        <ele>1634.6</ele>
        <time>2000-01-01T17:48:48.000Z</time>
      </trkpt>
      <trkpt lat="45.83104" lon="7.82242">
        <ele>1640</ele>
        <time>2000-01-01T17:48:58.000Z</time>
      </trkpt>
      <trkpt lat="45.83084" lon="7.82257">
        <ele>1640</ele>
        <time>2000-01-01T17:49:08.000Z</time>
      </trkpt>
      <trkpt lat="45.83078" lon="7.82261">
        <ele>1634.2</ele>
        <time>2000-01-01T17:49:18.000Z</time>
      </trkpt>
      <trkpt lat="45.83048" lon="7.8228">
        <ele>1640</ele>
        <time>2000-01-01T17:49:28.000Z</time>
      </trkpt>
      <trkpt lat="45.8303" lon="7.82284">
        <ele>1633.4</ele>
        <time>2000-01-01T17:49:38.000Z</time>
      </trkpt>
      <trkpt lat="45.8301" lon="7.8228">
        <ele>1640</ele>
        <time>2000-01-01T17:49:48.000Z</time>
      </trkpt>
      <trkpt lat="45.82985" lon="7.82263">
        <ele>1640</ele>
        <time>2000-01-01T17:49:58.000Z</time>
      </trkpt>
      <trkpt lat="45.82977" lon="7.82261">
        <ele>1631.2</ele>
        <time>2000-01-01T17:50:08.000Z</time>
      </trkpt>
      <trkpt lat="45.82961" lon="7.82264">
        <ele>1640</ele>
        <time>2000-01-01T17:50:18.000Z</time>
      </trkpt>
      <trkpt lat="45.82949" lon="7.82265">
        <ele>1631</ele>
        <time>2000-01-01T17:50:28.000Z</time>
      </trkpt>
      <trkpt lat="45.82931" lon="7.82263">
        <ele>1640</ele>
        <time>2000-01-01T17:50:38.000Z</time>
      </trkpt>
      <trkpt lat="45.82928" lon="7.82262">
        <ele>1630.4</ele>
        <time>2000-01-01T17:50:48.000Z</time>
      </trkpt>
      <trkpt lat="45.82909" lon="7.82249">
        <ele>1640</ele>
        <time>2000-01-01T17:50:58.000Z</time>
      </trkpt>
      <trkpt lat="45.8289" lon="7.8224">
        <ele>1640</ele>
        <time>2000-01-01T17:51:08.000Z</time>
      </trkpt>
      <trkpt lat="45.82872" lon="7.82244">
        <ele>1628.6</ele>
        <time>2000-01-01T17:51:18.000Z</time>
      </trkpt>
      <trkpt lat="45.82829" lon="7.82249">
        <ele>1638</ele>
        <time>2000-01-01T17:51:28.000Z</time>
      </trkpt>
      <trkpt lat="45.82793" lon="7.8225">
        <ele>1637</ele>
        <time>2000-01-01T17:51:38.000Z</time>
      </trkpt>
      <trkpt lat="45.82775" lon="7.82255">
        <ele>1636</ele>
        <time>2000-01-01T17:51:48.000Z</time>
      </trkpt>
      <trkpt lat="45.82764" lon="7.82259">
        <ele>1626</ele>
        <time>2000-01-01T17:51:58.000Z</time>
      </trkpt>
      <trkpt lat="45.82751" lon="7.8226">
        <ele>1635</ele>
        <time>2000-01-01T17:52:08.000Z</time>
      </trkpt>
      <trkpt lat="45.82749" lon="7.82258">
        <ele>1626</ele>
        <time>2000-01-01T17:52:18.000Z</time>
      </trkpt>
      <trkpt lat="45.82738" lon="7.82262">
        <ele>1625.8</ele>
        <time>2000-01-01T17:52:28.000Z</time>
      </trkpt>
      <trkpt lat="45.82715" lon="7.8228">
        <ele>1631</ele>
        <time>2000-01-01T17:52:38.000Z</time>
      </trkpt>
      <trkpt lat="45.82709" lon="7.82295">
        <ele>1624.5</ele>
        <time>2000-01-01T17:52:48.000Z</time>
      </trkpt>
      <trkpt lat="45.82714" lon="7.82326">
        <ele>1631</ele>
        <time>2000-01-01T17:52:58.000Z</time>
      </trkpt>
      <trkpt lat="45.82726" lon="7.82344">
        <ele>1624</ele>
        <time>2000-01-01T17:53:08.000Z</time>
      </trkpt>
      <trkpt lat="45.82751" lon="7.82335">
        <ele>1632</ele>
        <time>2000-01-01T17:53:18.000Z</time>
      </trkpt>
      <trkpt lat="45.82761" lon="7.82315">
        <ele>1625.2</ele>
        <time>2000-01-01T17:53:28.000Z</time>
      </trkpt>
      <trkpt lat="45.82756" lon="7.82273">
        <ele>1634</ele>
        <time>2000-01-01T17:53:38.000Z</time>
      </trkpt>
      <trkpt lat="45.82775" lon="7.82255">
        <ele>1636</ele>
        <time>2000-01-01T17:53:48.000Z</time>
      </trkpt>
      <trkpt lat="45.82793" lon="7.8225">
        <ele>1637</ele>
        <time>2000-01-01T17:53:58.000Z</time>
      </trkpt>
      <trkpt lat="45.82829" lon="7.82249">
        <ele>1638</ele>
        <time>2000-01-01T17:54:08.000Z</time>
      </trkpt>
      <trkpt lat="45.82848" lon="7.82246">
        <ele>1627.7</ele>
        <time>2000-01-01T17:54:18.000Z</time>
      </trkpt>
      <trkpt lat="45.82854" lon="7.82256">
        <ele>1639</ele>
        <time>2000-01-01T17:54:28.000Z</time>
      </trkpt>
      <trkpt lat="45.82873" lon="7.82265">
        <ele>1639</ele>
        <time>2000-01-01T17:54:38.000Z</time>
      </trkpt>
      <trkpt lat="45.8289" lon="7.82256">
        <ele>1640</ele>
        <time>2000-01-01T17:54:48.000Z</time>
      </trkpt>
      <trkpt lat="45.8291" lon="7.82263">
        <ele>1640</ele>
        <time>2000-01-01T17:54:58.000Z</time>
      </trkpt>
      <trkpt lat="45.82926" lon="7.82269">
        <ele>1630.3</ele>
        <time>2000-01-01T17:55:08.000Z</time>
      </trkpt>
      <trkpt lat="45.82947" lon="7.82273">
        <ele>1640</ele>
        <time>2000-01-01T17:55:18.000Z</time>
      </trkpt>
      <trkpt lat="45.82961" lon="7.82264">
        <ele>1631</ele>
        <time>2000-01-01T17:55:28.000Z</time>
      </trkpt>
      <trkpt lat="45.82977" lon="7.82261">
        <ele>1640</ele>
        <time>2000-01-01T17:55:38.000Z</time>
      </trkpt>
      <trkpt lat="45.82985" lon="7.82263">
        <ele>1631.5</ele>
        <time>2000-01-01T17:55:48.000Z</time>
      </trkpt>
      <trkpt lat="45.8301" lon="7.8228">
        <ele>1640</ele>
        <time>2000-01-01T17:55:58.000Z</time>
      </trkpt>
      <trkpt lat="45.8303" lon="7.82284">
        <ele>1640</ele>
        <time>2000-01-01T17:56:08.000Z</time>
      </trkpt>
      <trkpt lat="45.83048" lon="7.8228">
        <ele>1633.9</ele>
        <time>2000-01-01T17:56:18.000Z</time>
      </trkpt>
      <trkpt lat="45.83078" lon="7.82261">
        <ele>1640</ele>
        <time>2000-01-01T17:56:28.000Z</time>
      </trkpt>
      <trkpt lat="45.83104" lon="7.82242">
        <ele>1640</ele>
        <time>2000-01-01T17:56:38.000Z</time>
      </trkpt>
      <trkpt lat="45.83113" lon="7.82236">
        <ele>1634.6</ele>
        <time>2000-01-01T17:56:48.000Z</time>
      </trkpt>
      <trkpt lat="45.83129" lon="7.82222">
        <ele>1640</ele>
        <time>2000-01-01T17:56:58.000Z</time>
      </trkpt>
      <trkpt lat="45.83144" lon="7.82205">
        <ele>1640</ele>
        <time>2000-01-01T17:57:08.000Z</time>
      </trkpt>
      <trkpt lat="45.8316" lon="7.82186">
        <ele>1641</ele>
        <time>2000-01-01T17:57:18.000Z</time>
      </trkpt>
      <trkpt lat="45.83186" lon="7.82161">
        <ele>1642</ele>
        <time>2000-01-01T17:57:28.000Z</time>
      </trkpt>
      <trkpt lat="45.83206" lon="7.82142">
        <ele>1642</ele>
        <time>2000-01-01T17:57:38.000Z</time>
      </trkpt>
      <trkpt lat="45.83227" lon="7.82127">
        <ele>1642</ele>
        <time>2000-01-01T17:57:48.000Z</time>
      </trkpt>
      <trkpt lat="45.83243" lon="7.82113">
        <ele>1644</ele>
        <time>2000-01-01T17:57:58.000Z</time>
      </trkpt>
      <trkpt lat="45.83251" lon="7.82099">
        <ele>1639.8</ele>
        <time>2000-01-01T17:58:08.000Z</time>
      </trkpt>
      <trkpt lat="45.83265" lon="7.8213">
        <ele>1650</ele>
        <time>2000-01-01T17:58:18.000Z</time>
      </trkpt>
      <trkpt lat="45.83272" lon="7.82142">
        <ele>1642.7</ele>
        <time>2000-01-01T17:58:28.000Z</time>
      </trkpt>
      <trkpt lat="45.83275" lon="7.82155">
        <ele>1654</ele>
        <time>2000-01-01T17:58:38.000Z</time>
      </trkpt>
      <trkpt lat="45.83271" lon="7.8217">
        <ele>1643.9</ele>
        <time>2000-01-01T17:58:48.000Z</time>
      </trkpt>
      <trkpt lat="45.83263" lon="7.82181">
        <ele>1655</ele>
        <time>2000-01-01T17:58:58.000Z</time>
      </trkpt>
      <trkpt lat="45.83256" lon="7.82204">
        <ele>1644.5</ele>
        <time>2000-01-01T17:59:08.000Z</time>
      </trkpt>
      <trkpt lat="45.83253" lon="7.82218">
        <ele>1656</ele>
        <time>2000-01-01T17:59:18.000Z</time>
      </trkpt>
      <trkpt lat="45.83251" lon="7.82233">
        <ele>1645.8</ele>
        <time>2000-01-01T17:59:28.000Z</time>
      </trkpt>
      <trkpt lat="45.83246" lon="7.82246">
        <ele>1656</ele>
        <time>2000-01-01T17:59:38.000Z</time>
      </trkpt>
      <trkpt lat="45.8324" lon="7.82258">
        <ele>1647</ele>
        <time>2000-01-01T17:59:48.000Z</time>
      </trkpt>
      <trkpt lat="45.83233" lon="7.82269">
        <ele>1656</ele>
        <time>2000-01-01T17:59:58.000Z</time>
      </trkpt>
      <trkpt lat="45.83221" lon="7.82294">
        <ele>1655</ele>
        <time>2000-01-01T18:00:08.000Z</time>
      </trkpt>
      <trkpt lat="45.83216" lon="7.82306">
        <ele>1641.9</ele>
        <time>2000-01-01T18:00:18.000Z</time>
      </trkpt>
      <trkpt lat="45.83206" lon="7.82307">
        <ele>1655</ele>
        <time>2000-01-01T18:00:28.000Z</time>
      </trkpt>
      <trkpt lat="45.83197" lon="7.82314">
        <ele>1638.5</ele>
        <time>2000-01-01T18:00:38.000Z</time>
      </trkpt>
      <trkpt lat="45.83201" lon="7.82324">
        <ele>1656</ele>
        <time>2000-01-01T18:00:48.000Z</time>
      </trkpt>
      <trkpt lat="45.83202" lon="7.82339">
        <ele>1641.1</ele>
        <time>2000-01-01T18:00:58.000Z</time>
      </trkpt>
      <trkpt lat="45.83194" lon="7.82358">
        <ele>1654</ele>
        <time>2000-01-01T18:01:08.000Z</time>
      </trkpt>
      <trkpt lat="45.8319" lon="7.82366">
        <ele>1640.3</ele>
        <time>2000-01-01T18:01:18.000Z</time>
      </trkpt>
      <trkpt lat="45.83181" lon="7.82361">
        <ele>1638.5</ele>
        <time>2000-01-01T18:01:28.000Z</time>
      </trkpt>
      <trkpt lat="45.83171" lon="7.82364">
        <ele>1653</ele>
        <time>2000-01-01T18:01:38.000Z</time>
      </trkpt>
      <trkpt lat="45.83165" lon="7.82368">
        <ele>1636.9</ele>
        <time>2000-01-01T18:01:48.000Z</time>
      </trkpt>
      <trkpt lat="45.8316" lon="7.82378">
        <ele>1636.5</ele>
        <time>2000-01-01T18:01:58.000Z</time>
      </trkpt>
      <trkpt lat="45.8315" lon="7.82393">
        <ele>1652</ele>
        <time>2000-01-01T18:02:08.000Z</time>
      </trkpt>
      <trkpt lat="45.83136" lon="7.82404">
        <ele>1635.4</ele>
        <time>2000-01-01T18:02:18.000Z</time>
      </trkpt>
      <trkpt lat="45.83124" lon="7.82403">
        <ele>1650</ele>
        <time>2000-01-01T18:02:28.000Z</time>
      </trkpt>
      <trkpt lat="45.83112" lon="7.82373">
        <ele>1646</ele>
        <time>2000-01-01T18:02:38.000Z</time>
      </trkpt>
      <trkpt lat="45.83106" lon="7.8236">
        <ele>1635</ele>
        <time>2000-01-01T18:02:48.000Z</time>
      </trkpt>
      <trkpt lat="45.83095" lon="7.82347">
        <ele>1643</ele>
        <time>2000-01-01T18:02:58.000Z</time>
      </trkpt>
      <trkpt lat="45.83089" lon="7.82326">
        <ele>1634.3</ele>
        <time>2000-01-01T18:03:08.000Z</time>
      </trkpt>
      <trkpt lat="45.83079" lon="7.82332">
        <ele>1642</ele>
        <time>2000-01-01T18:03:18.000Z</time>
      </trkpt>
      <trkpt lat="45.83069" lon="7.82345">
        <ele>1633.7</ele>
        <time>2000-01-01T18:03:28.000Z</time>
      </trkpt>
      <trkpt lat="45.83067" lon="7.82362">
        <ele>1642</ele>
        <time>2000-01-01T18:03:38.000Z</time>
      </trkpt>
      <trkpt lat="45.83068" lon="7.82379">
        <ele>1633.6</ele>
        <time>2000-01-01T18:03:48.000Z</time>
      </trkpt>
      <trkpt lat="45.83054" lon="7.82403">
        <ele>1642</ele>
        <time>2000-01-01T18:03:58.000Z</time>
      </trkpt>
      <trkpt lat="45.83044" lon="7.82414">
        <ele>1632.5</ele>
        <time>2000-01-01T18:04:08.000Z</time>
      </trkpt>
      <trkpt lat="45.83039" lon="7.82425">
        <ele>1643</ele>
        <time>2000-01-01T18:04:18.000Z</time>
      </trkpt>
      <trkpt lat="45.83029" lon="7.82436">
        <ele>1632.7</ele>
        <time>2000-01-01T18:04:28.000Z</time>
      </trkpt>
      <trkpt lat="45.83025" lon="7.82443">
        <ele>1644</ele>
        <time>2000-01-01T18:04:38.000Z</time>
      </trkpt>
      <trkpt lat="45.83023" lon="7.82447">
        <ele>1632.6</ele>
        <time>2000-01-01T18:04:48.000Z</time>
      </trkpt>
      <trkpt lat="45.83018" lon="7.82455">
        <ele>1632.2</ele>
        <time>2000-01-01T18:04:58.000Z</time>
      </trkpt>
      <trkpt lat="45.83017" lon="7.8246">
        <ele>1632.2</ele>
        <time>2000-01-01T18:05:08.000Z</time>
      </trkpt>
      <trkpt lat="45.83013" lon="7.82467">
        <ele>1644</ele>
        <time>2000-01-01T18:05:18.000Z</time>
      </trkpt>
      <trkpt lat="45.8301" lon="7.82476">
        <ele>1631.9</ele>
        <time>2000-01-01T18:05:28.000Z</time>
      </trkpt>
      <trkpt lat="45.83005" lon="7.82486">
        <ele>1632.5</ele>
        <time>2000-01-01T18:05:38.000Z</time>
      </trkpt>
      <trkpt lat="45.83002" lon="7.82495">
        <ele>1645</ele>
        <time>2000-01-01T18:05:48.000Z</time>
      </trkpt>
      <trkpt lat="45.83" lon="7.82505">
        <ele>1634.2</ele>
        <time>2000-01-01T18:05:58.000Z</time>
      </trkpt>
      <trkpt lat="45.82999" lon="7.82508">
        <ele>1634.2</ele>
        <time>2000-01-01T18:06:08.000Z</time>
      </trkpt>
      <trkpt lat="45.82996" lon="7.8251">
        <ele>1634</ele>
        <time>2000-01-01T18:06:18.000Z</time>
      </trkpt>
      <trkpt lat="45.82993" lon="7.82511">
        <ele>1633.8</ele>
        <time>2000-01-01T18:06:28.000Z</time>
      </trkpt>
      <trkpt lat="45.82986" lon="7.82511">
        <ele>1645</ele>
        <time>2000-01-01T18:06:38.000Z</time>
      </trkpt>
      <trkpt lat="45.82981" lon="7.82509">
        <ele>1632.5</ele>
        <time>2000-01-01T18:06:48.000Z</time>
      </trkpt>
      <trkpt lat="45.82978" lon="7.8251">
        <ele>1632.3</ele>
        <time>2000-01-01T18:06:58.000Z</time>
      </trkpt>
      <trkpt lat="45.82975" lon="7.82511">
        <ele>1632.2</ele>
        <time>2000-01-01T18:07:08.000Z</time>
      </trkpt>
      <trkpt lat="45.82972" lon="7.82512">
        <ele>1632.1</ele>
        <time>2000-01-01T18:07:18.000Z</time>
      </trkpt>
      <trkpt lat="45.8296" lon="7.82511">
        <ele>1643</ele>
        <time>2000-01-01T18:07:28.000Z</time>
      </trkpt>
      <trkpt lat="45.82956" lon="7.82512">
        <ele>1630.6</ele>
        <time>2000-01-01T18:07:38.000Z</time>
      </trkpt>
      <trkpt lat="45.82949" lon="7.8251">
        <ele>1629.8</ele>
        <time>2000-01-01T18:07:48.000Z</time>
      </trkpt>
      <trkpt lat="45.82947" lon="7.82511">
        <ele>1629.6</ele>
        <time>2000-01-01T18:07:58.000Z</time>
      </trkpt>
      <trkpt lat="45.82945" lon="7.82514">
        <ele>1629.6</ele>
        <time>2000-01-01T18:08:08.000Z</time>
      </trkpt>
      <trkpt lat="45.82935" lon="7.82519">
        <ele>1640</ele>
        <time>2000-01-01T18:08:18.000Z</time>
      </trkpt>
      <trkpt lat="45.82932" lon="7.82522">
        <ele>1629.1</ele>
        <time>2000-01-01T18:08:28.000Z</time>
      </trkpt>
      <trkpt lat="45.82926" lon="7.82522">
        <ele>1628.7</ele>
        <time>2000-01-01T18:08:38.000Z</time>
      </trkpt>
      <trkpt lat="45.82919" lon="7.82527">
        <ele>1628.2</ele>
        <time>2000-01-01T18:08:48.000Z</time>
      </trkpt>
      <trkpt lat="45.82916" lon="7.82526">
        <ele>1640</ele>
        <time>2000-01-01T18:08:58.000Z</time>
      </trkpt>
      <trkpt lat="45.8292" lon="7.82539">
        <ele>1628.6</ele>
        <time>2000-01-01T18:09:08.000Z</time>
      </trkpt>
      <trkpt lat="45.8293" lon="7.82558">
        <ele>1645</ele>
        <time>2000-01-01T18:09:18.000Z</time>
      </trkpt>
      <trkpt lat="45.82934" lon="7.82575">
        <ele>1630.5</ele>
        <time>2000-01-01T18:09:28.000Z</time>
      </trkpt>
      <trkpt lat="45.82935" lon="7.82592">
        <ele>1651</ele>
        <time>2000-01-01T18:09:38.000Z</time>
      </trkpt>
      <trkpt lat="45.82937" lon="7.8261">
        <ele>1633.8</ele>
        <time>2000-01-01T18:09:48.000Z</time>
      </trkpt>
      <trkpt lat="45.82942" lon="7.82631">
        <ele>1659</ele>
        <time>2000-01-01T18:09:58.000Z</time>
      </trkpt>
      <trkpt lat="45.8295" lon="7.82646">
        <ele>1638.5</ele>
        <time>2000-01-01T18:10:08.000Z</time>
      </trkpt>
      <trkpt lat="45.82949" lon="7.82648">
        <ele>1639</ele>
        <time>2000-01-01T18:10:18.000Z</time>
      </trkpt>
      <trkpt lat="45.82946" lon="7.82649">
        <ele>1639.2</ele>
        <time>2000-01-01T18:10:28.000Z</time>
      </trkpt>
      <trkpt lat="45.82939" lon="7.82647">
        <ele>1658</ele>
        <time>2000-01-01T18:10:38.000Z</time>
      </trkpt>
      <trkpt lat="45.82936" lon="7.82645">
        <ele>1637.1</ele>
        <time>2000-01-01T18:10:48.000Z</time>
      </trkpt>
      <trkpt lat="45.82927" lon="7.82641">
        <ele>1634.9</ele>
        <time>2000-01-01T18:10:58.000Z</time>
      </trkpt>
      <trkpt lat="45.82921" lon="7.82638">
        <ele>1658</ele>
        <time>2000-01-01T18:11:08.000Z</time>
      </trkpt>
      <trkpt lat="45.82911" lon="7.82635">
        <ele>1632.5</ele>
        <time>2000-01-01T18:11:18.000Z</time>
      </trkpt>
      <trkpt lat="45.82909" lon="7.82636">
        <ele>1632.5</ele>
        <time>2000-01-01T18:11:28.000Z</time>
      </trkpt>
      <trkpt lat="45.82906" lon="7.82636">
        <ele>1632.4</ele>
        <time>2000-01-01T18:11:38.000Z</time>
      </trkpt>
      <trkpt lat="45.82899" lon="7.82638">
        <ele>1656</ele>
        <time>2000-01-01T18:11:48.000Z</time>
      </trkpt>
      <trkpt lat="45.82888" lon="7.82644">
        <ele>1632.1</ele>
        <time>2000-01-01T18:11:58.000Z</time>
      </trkpt>
      <trkpt lat="45.82879" lon="7.82648">
        <ele>1656</ele>
        <time>2000-01-01T18:12:08.000Z</time>
      </trkpt>
      <trkpt lat="45.82872" lon="7.8265">
        <ele>1630.6</ele>
        <time>2000-01-01T18:12:18.000Z</time>
      </trkpt>
      <trkpt lat="45.82864" lon="7.8265">
        <ele>1629.7</ele>
        <time>2000-01-01T18:12:28.000Z</time>
      </trkpt>
      <trkpt lat="45.82852" lon="7.82652">
        <ele>1654</ele>
        <time>2000-01-01T18:12:38.000Z</time>
      </trkpt>
      <trkpt lat="45.82849" lon="7.82652">
        <ele>1629.4</ele>
        <time>2000-01-01T18:12:48.000Z</time>
      </trkpt>
      <trkpt lat="45.82839" lon="7.82649">
        <ele>1629.1</ele>
        <time>2000-01-01T18:12:58.000Z</time>
      </trkpt>
      <trkpt lat="45.82837" lon="7.82644">
        <ele>1628.6</ele>
        <time>2000-01-01T18:13:08.000Z</time>
      </trkpt>
      <trkpt lat="45.82831" lon="7.82639">
        <ele>1653</ele>
        <time>2000-01-01T18:13:18.000Z</time>
      </trkpt>
      <trkpt lat="45.82829" lon="7.82638">
        <ele>1627.7</ele>
        <time>2000-01-01T18:13:28.000Z</time>
      </trkpt>
      <trkpt lat="45.82823" lon="7.82637">
        <ele>1627.3</ele>
        <time>2000-01-01T18:13:38.000Z</time>
      </trkpt>
      <trkpt lat="45.82814" lon="7.82638">
        <ele>1626.6</ele>
        <time>2000-01-01T18:13:48.000Z</time>
      </trkpt>
      <trkpt lat="45.82812" lon="7.82639">
        <ele>1653</ele>
        <time>2000-01-01T18:13:58.000Z</time>
      </trkpt>
      <trkpt lat="45.82808" lon="7.82639">
        <ele>1626.2</ele>
        <time>2000-01-01T18:14:08.000Z</time>
      </trkpt>
      <trkpt lat="45.82802" lon="7.82637">
        <ele>1625.9</ele>
        <time>2000-01-01T18:14:18.000Z</time>
      </trkpt>
      <trkpt lat="45.82793" lon="7.8264">
        <ele>1653</ele>
        <time>2000-01-01T18:14:28.000Z</time>
      </trkpt>
      <trkpt lat="45.8279" lon="7.82638">
        <ele>1625.4</ele>
        <time>2000-01-01T18:14:38.000Z</time>
      </trkpt>
      <trkpt lat="45.82778" lon="7.82642">
        <ele>1625.1</ele>
        <time>2000-01-01T18:14:48.000Z</time>
      </trkpt>
      <trkpt lat="45.82776" lon="7.82649">
        <ele>1655</ele>
        <time>2000-01-01T18:14:58.000Z</time>
      </trkpt>
      <trkpt lat="45.82772" lon="7.82655">
        <ele>1625.3</ele>
        <time>2000-01-01T18:15:08.000Z</time>
      </trkpt>
      <trkpt lat="45.82766" lon="7.82661">
        <ele>1625</ele>
        <time>2000-01-01T18:15:18.000Z</time>
      </trkpt>
      <trkpt lat="45.8277" lon="7.8267">
        <ele>1657</ele>
        <time>2000-01-01T18:15:28.000Z</time>
      </trkpt>
      <trkpt lat="45.82775" lon="7.82677">
        <ele>1629.8</ele>
        <time>2000-01-01T18:15:38.000Z</time>
      </trkpt>
      <trkpt lat="45.82779" lon="7.82686">
        <ele>1633.7</ele>
        <time>2000-01-01T18:15:48.000Z</time>
      </trkpt>
      <trkpt lat="45.82777" lon="7.82693">
        <ele>1662</ele>
        <time>2000-01-01T18:15:58.000Z</time>
      </trkpt>
      <trkpt lat="45.8277" lon="7.82698">
        <ele>1637.6</ele>
        <time>2000-01-01T18:16:08.000Z</time>
      </trkpt>
      <trkpt lat="45.82766" lon="7.82703">
        <ele>1639.7</ele>
        <time>2000-01-01T18:16:18.000Z</time>
      </trkpt>
      <trkpt lat="45.82762" lon="7.82711">
        <ele>1665</ele>
        <time>2000-01-01T18:16:28.000Z</time>
      </trkpt>
      <trkpt lat="45.82758" lon="7.82716">
        <ele>1645.3</ele>
        <time>2000-01-01T18:16:38.000Z</time>
      </trkpt>
      <trkpt lat="45.82745" lon="7.82725">
        <ele>1666</ele>
        <time>2000-01-01T18:16:48.000Z</time>
      </trkpt>
      <trkpt lat="45.82743" lon="7.82733">
        <ele>1647.2</ele>
        <time>2000-01-01T18:16:58.000Z</time>
      </trkpt>
      <trkpt lat="45.82745" lon="7.82741">
        <ele>1648.7</ele>
        <time>2000-01-01T18:17:08.000Z</time>
      </trkpt>
      <trkpt lat="45.82752" lon="7.82746">
        <ele>1671</ele>
        <time>2000-01-01T18:17:18.000Z</time>
      </trkpt>
      <trkpt lat="45.82764" lon="7.82748">
        <ele>1650.5</ele>
        <time>2000-01-01T18:17:28.000Z</time>
      </trkpt>
      <trkpt lat="45.82771" lon="7.82753">
        <ele>1675</ele>
        <time>2000-01-01T18:17:38.000Z</time>
      </trkpt>
      <trkpt lat="45.82777" lon="7.82752">
        <ele>1651.3</ele>
        <time>2000-01-01T18:17:48.000Z</time>
      </trkpt>
      <trkpt lat="45.82788" lon="7.82749">
        <ele>1652.2</ele>
        <time>2000-01-01T18:17:58.000Z</time>
      </trkpt>
      <trkpt lat="45.82795" lon="7.8275">
        <ele>1676</ele>
        <time>2000-01-01T18:18:08.000Z</time>
      </trkpt>
      <trkpt lat="45.828" lon="7.82754">
        <ele>1653.9</ele>
        <time>2000-01-01T18:18:18.000Z</time>
      </trkpt>
      <trkpt lat="45.82821" lon="7.82753">
        <ele>1679</ele>
        <time>2000-01-01T18:18:28.000Z</time>
      </trkpt>
      <trkpt lat="45.82825" lon="7.82746">
        <ele>1656.9</ele>
        <time>2000-01-01T18:18:38.000Z</time>
      </trkpt>
      <trkpt lat="45.8283" lon="7.8275">
        <ele>1657.5</ele>
        <time>2000-01-01T18:18:48.000Z</time>
      </trkpt>
      <trkpt lat="45.82841" lon="7.82762">
        <ele>1683</ele>
        <time>2000-01-01T18:18:58.000Z</time>
      </trkpt>
      <trkpt lat="45.82852" lon="7.82766">
        <ele>1666.7</ele>
        <time>2000-01-01T18:19:08.000Z</time>
      </trkpt>
      <trkpt lat="45.82858" lon="7.82763">
        <ele>1667.5</ele>
        <time>2000-01-01T18:19:18.000Z</time>
      </trkpt>
      <trkpt lat="45.82863" lon="7.82757">
        <ele>1683</ele>
        <time>2000-01-01T18:19:28.000Z</time>
      </trkpt>
      <trkpt lat="45.82877" lon="7.82757">
        <ele>1670.5</ele>
        <time>2000-01-01T18:19:38.000Z</time>
      </trkpt>
      <trkpt lat="45.82884" lon="7.82758">
        <ele>1685</ele>
        <time>2000-01-01T18:19:48.000Z</time>
      </trkpt>
      <trkpt lat="45.82891" lon="7.82755">
        <ele>1673.1</ele>
        <time>2000-01-01T18:19:58.000Z</time>
      </trkpt>
      <trkpt lat="45.82905" lon="7.82758">
        <ele>1688</ele>
        <time>2000-01-01T18:20:08.000Z</time>
      </trkpt>
      <trkpt lat="45.8291" lon="7.82763">
        <ele>1680.2</ele>
        <time>2000-01-01T18:20:18.000Z</time>
      </trkpt>
      <trkpt lat="45.82916" lon="7.82766">
        <ele>1682.5</ele>
        <time>2000-01-01T18:20:28.000Z</time>
      </trkpt>
      <trkpt lat="45.82921" lon="7.82772">
        <ele>1696</ele>
        <time>2000-01-01T18:20:38.000Z</time>
      </trkpt>
      <trkpt lat="45.82927" lon="7.82776">
        <ele>1687</ele>
        <time>2000-01-01T18:20:48.000Z</time>
      </trkpt>
      <trkpt lat="45.82932" lon="7.82773">
        <ele>1687.1</ele>
        <time>2000-01-01T18:20:58.000Z</time>
      </trkpt>
      <trkpt lat="45.82945" lon="7.82775">
        <ele>1700</ele>
        <time>2000-01-01T18:21:08.000Z</time>
      </trkpt>
      <trkpt lat="45.8295" lon="7.82772">
        <ele>1689.9</ele>
        <time>2000-01-01T18:21:18.000Z</time>
      </trkpt>
      <trkpt lat="45.82956" lon="7.8277">
        <ele>1690.6</ele>
        <time>2000-01-01T18:21:28.000Z</time>
      </trkpt>
      <trkpt lat="45.82961" lon="7.82778">
        <ele>1693.1</ele>
        <time>2000-01-01T18:21:38.000Z</time>
      </trkpt>
      <trkpt lat="45.82967" lon="7.82783">
        <ele>1702</ele>
        <time>2000-01-01T18:21:48.000Z</time>
      </trkpt>
      <trkpt lat="45.82974" lon="7.82785">
        <ele>1697.9</ele>
        <time>2000-01-01T18:21:58.000Z</time>
      </trkpt>
      <trkpt lat="45.8298" lon="7.82786">
        <ele>1700.1</ele>
        <time>2000-01-01T18:22:08.000Z</time>
      </trkpt>
      <trkpt lat="45.82982" lon="7.82777">
        <ele>1704</ele>
        <time>2000-01-01T18:22:18.000Z</time>
      </trkpt>
      <trkpt lat="45.82981" lon="7.82769">
        <ele>1696.5</ele>
        <time>2000-01-01T18:22:28.000Z</time>
      </trkpt>
      <trkpt lat="45.82988" lon="7.82773">
        <ele>1699.8</ele>
        <time>2000-01-01T18:22:38.000Z</time>
      </trkpt>
      <trkpt lat="45.83002" lon="7.82775">
        <ele>1707</ele>
        <time>2000-01-01T18:22:48.000Z</time>
      </trkpt>
      <trkpt lat="45.83006" lon="7.82779">
        <ele>1705.7</ele>
        <time>2000-01-01T18:22:58.000Z</time>
      </trkpt>
      <trkpt lat="45.83008" lon="7.82788">
        <ele>1708.4</ele>
        <time>2000-01-01T18:23:08.000Z</time>
      </trkpt>
      <trkpt lat="45.83016" lon="7.828">
        <ele>1714</ele>
        <time>2000-01-01T18:23:18.000Z</time>
      </trkpt>
      <trkpt lat="45.83022" lon="7.82803">
        <ele>1717.6</ele>
        <time>2000-01-01T18:23:28.000Z</time>
      </trkpt>
      <trkpt lat="45.83023" lon="7.82811">
        <ele>1720.3</ele>
        <time>2000-01-01T18:23:38.000Z</time>
      </trkpt>
      <trkpt lat="45.83023" lon="7.82819">
        <ele>1721.9</ele>
        <time>2000-01-01T18:23:48.000Z</time>
      </trkpt>
      <trkpt lat="45.8303" lon="7.82824">
        <ele>1723</ele>
        <time>2000-01-01T18:23:58.000Z</time>
      </trkpt>
      <trkpt lat="45.83034" lon="7.8283">
        <ele>1722.3</ele>
        <time>2000-01-01T18:24:08.000Z</time>
      </trkpt>
      <trkpt lat="45.8303" lon="7.82837">
        <ele>1726.1</ele>
        <time>2000-01-01T18:24:18.000Z</time>
      </trkpt>
      <trkpt lat="45.83033" lon="7.82846">
        <ele>1727.8</ele>
        <time>2000-01-01T18:24:28.000Z</time>
      </trkpt>
      <trkpt lat="45.83034" lon="7.82854">
        <ele>1732</ele>
        <time>2000-01-01T18:24:38.000Z</time>
      </trkpt>
      <trkpt lat="45.83031" lon="7.82861">
        <ele>1733.3</ele>
        <time>2000-01-01T18:24:48.000Z</time>
      </trkpt>
      <trkpt lat="45.8303" lon="7.82868">
        <ele>1736</ele>
        <time>2000-01-01T18:24:58.000Z</time>
      </trkpt>
      <trkpt lat="45.83033" lon="7.82875">
        <ele>1737.9</ele>
        <time>2000-01-01T18:25:08.000Z</time>
      </trkpt>
      <trkpt lat="45.83038" lon="7.8289">
        <ele>1743</ele>
        <time>2000-01-01T18:25:18.000Z</time>
      </trkpt>
      <trkpt lat="45.83037" lon="7.82899">
        <ele>1745.5</ele>
        <time>2000-01-01T18:25:28.000Z</time>
      </trkpt>
      <trkpt lat="45.83038" lon="7.82906">
        <ele>1747.7</ele>
        <time>2000-01-01T18:25:38.000Z</time>
      </trkpt>
      <trkpt lat="45.83045" lon="7.8292">
        <ele>1748</ele>
        <time>2000-01-01T18:25:48.000Z</time>
      </trkpt>
      <trkpt lat="45.83045" lon="7.82929">
        <ele>1754.3</ele>
        <time>2000-01-01T18:25:58.000Z</time>
      </trkpt>
      <trkpt lat="45.8305" lon="7.82933">
        <ele>1754.2</ele>
        <time>2000-01-01T18:26:08.000Z</time>
      </trkpt>
      <trkpt lat="45.83052" lon="7.82941">
        <ele>1756.9</ele>
        <time>2000-01-01T18:26:18.000Z</time>
      </trkpt>
      <trkpt lat="45.83056" lon="7.8295">
        <ele>1756</ele>
        <time>2000-01-01T18:26:28.000Z</time>
      </trkpt>
      <trkpt lat="45.83061" lon="7.82956">
        <ele>1761.6</ele>
        <time>2000-01-01T18:26:38.000Z</time>
      </trkpt>
      <trkpt lat="45.83064" lon="7.82964">
        <ele>1764.2</ele>
        <time>2000-01-01T18:26:48.000Z</time>
      </trkpt>
      <trkpt lat="45.83065" lon="7.82973">
        <ele>1763</ele>
        <time>2000-01-01T18:26:58.000Z</time>
      </trkpt>
      <trkpt lat="45.83069" lon="7.82978">
        <ele>1768</ele>
        <time>2000-01-01T18:27:08.000Z</time>
      </trkpt>
      <trkpt lat="45.83075" lon="7.82975">
        <ele>1766.1</ele>
        <time>2000-01-01T18:27:18.000Z</time>
      </trkpt>
      <trkpt lat="45.8308" lon="7.82974">
        <ele>1765.1</ele>
        <time>2000-01-01T18:27:28.000Z</time>
      </trkpt>
      <trkpt lat="45.83082" lon="7.82972">
        <ele>1763</ele>
        <time>2000-01-01T18:27:38.000Z</time>
      </trkpt>
      <trkpt lat="45.83089" lon="7.82975">
        <ele>1766</ele>
        <time>2000-01-01T18:27:48.000Z</time>
      </trkpt>
      <trkpt lat="45.83095" lon="7.8297">
        <ele>1766.1</ele>
        <time>2000-01-01T18:27:58.000Z</time>
      </trkpt>
      <trkpt lat="45.83102" lon="7.82968">
        <ele>1763</ele>
        <time>2000-01-01T18:28:08.000Z</time>
      </trkpt>
      <trkpt lat="45.83112" lon="7.82972">
        <ele>1770.1</ele>
        <time>2000-01-01T18:28:18.000Z</time>
      </trkpt>
      <trkpt lat="45.83112" lon="7.82968">
        <ele>1769.2</ele>
        <time>2000-01-01T18:28:28.000Z</time>
      </trkpt>
      <trkpt lat="45.83122" lon="7.82978">
        <ele>1768</ele>
        <time>2000-01-01T18:28:38.000Z</time>
      </trkpt>
      <trkpt lat="45.8313" lon="7.82983">
        <ele>1774.6</ele>
        <time>2000-01-01T18:28:48.000Z</time>
      </trkpt>
      <trkpt lat="45.83136" lon="7.83001">
        <ele>1772</ele>
        <time>2000-01-01T18:28:58.000Z</time>
      </trkpt>
      <trkpt lat="45.83146" lon="7.83004">
        <ele>1782.6</ele>
        <time>2000-01-01T18:29:08.000Z</time>
      </trkpt>
      <trkpt lat="45.8315" lon="7.82998">
        <ele>1785</ele>
        <time>2000-01-01T18:29:18.000Z</time>
      </trkpt>
      <trkpt lat="45.83154" lon="7.82999">
        <ele>1776</ele>
        <time>2000-01-01T18:29:28.000Z</time>
      </trkpt>
      <trkpt lat="45.83157" lon="7.83002">
        <ele>1789.6</ele>
        <time>2000-01-01T18:29:38.000Z</time>
      </trkpt>
      <trkpt lat="45.83158" lon="7.83005">
        <ele>1789.9</ele>
        <time>2000-01-01T18:29:48.000Z</time>
      </trkpt>
      <trkpt lat="45.83171" lon="7.82981">
        <ele>1776</ele>
        <time>2000-01-01T18:29:58.000Z</time>
      </trkpt>
      <trkpt lat="45.83174" lon="7.82973">
        <ele>1798.7</ele>
        <time>2000-01-01T18:30:08.000Z</time>
      </trkpt>
      <trkpt lat="45.83178" lon="7.82966">
        <ele>1799.3</ele>
        <time>2000-01-01T18:30:18.000Z</time>
      </trkpt>
      <trkpt lat="45.83182" lon="7.82961">
        <ele>1800.2</ele>
        <time>2000-01-01T18:30:28.000Z</time>
      </trkpt>
      <trkpt lat="45.83187" lon="7.82956">
        <ele>1776</ele>
        <time>2000-01-01T18:30:38.000Z</time>
      </trkpt>
      <trkpt lat="45.83194" lon="7.82952">
        <ele>1804.3</ele>
        <time>2000-01-01T18:30:48.000Z</time>
      </trkpt>
      <trkpt lat="45.83207" lon="7.82945">
        <ele>1780</ele>
        <time>2000-01-01T18:30:58.000Z</time>
      </trkpt>
      <trkpt lat="45.83219" lon="7.82946">
        <ele>1808.9</ele>
        <time>2000-01-01T18:31:08.000Z</time>
      </trkpt>
      <trkpt lat="45.83225" lon="7.82945">
        <ele>1810.3</ele>
        <time>2000-01-01T18:31:18.000Z</time>
      </trkpt>
      <trkpt lat="45.83231" lon="7.82938">
        <ele>1789</ele>
        <time>2000-01-01T18:31:28.000Z</time>
      </trkpt>
      <trkpt lat="45.83239" lon="7.82937">
        <ele>1812.4</ele>
        <time>2000-01-01T18:31:38.000Z</time>
      </trkpt>
      <trkpt lat="45.83245" lon="7.82942">
        <ele>1816.4</ele>
        <time>2000-01-01T18:31:48.000Z</time>
      </trkpt>
      <trkpt lat="45.83246" lon="7.82949">
        <ele>1796</ele>
        <time>2000-01-01T18:31:58.000Z</time>
      </trkpt>
      <trkpt lat="45.83241" lon="7.82956">
        <ele>1819.5</ele>
        <time>2000-01-01T18:32:08.000Z</time>
      </trkpt>
      <trkpt lat="45.83243" lon="7.82968">
        <ele>1823.5</ele>
        <time>2000-01-01T18:32:18.000Z</time>
      </trkpt>
      <trkpt lat="45.83237" lon="7.82974">
        <ele>1799</ele>
        <time>2000-01-01T18:32:28.000Z</time>
      </trkpt>
      <trkpt lat="45.83244" lon="7.82987">
        <ele>1830.3</ele>
        <time>2000-01-01T18:32:38.000Z</time>
      </trkpt>
      <trkpt lat="45.83251" lon="7.82999">
        <ele>1811</ele>
        <time>2000-01-01T18:32:48.000Z</time>
      </trkpt>
      <trkpt lat="45.83257" lon="7.83007">
        <ele>1836.3</ele>
        <time>2000-01-01T18:32:58.000Z</time>
      </trkpt>
      <trkpt lat="45.83262" lon="7.83014">
        <ele>1838</ele>
        <time>2000-01-01T18:33:08.000Z</time>
      </trkpt>
      <trkpt lat="45.83275" lon="7.83025">
        <ele>1822</ele>
        <time>2000-01-01T18:33:18.000Z</time>
      </trkpt>
      <trkpt lat="45.83279" lon="7.83022">
        <ele>1839.2</ele>
        <time>2000-01-01T18:33:28.000Z</time>
      </trkpt>
      <trkpt lat="45.83284" lon="7.83014">
        <ele>1837.3</ele>
        <time>2000-01-01T18:33:38.000Z</time>
      </trkpt>
      <trkpt lat="45.83289" lon="7.83011">
        <ele>1837.2</ele>
        <time>2000-01-01T18:33:48.000Z</time>
      </trkpt>
      <trkpt lat="45.83297" lon="7.83012">
        <ele>1828</ele>
        <time>2000-01-01T18:33:58.000Z</time>
      </trkpt>
      <trkpt lat="45.83303" lon="7.83004">
        <ele>1838.1</ele>
        <time>2000-01-01T18:34:08.000Z</time>
      </trkpt>
      <trkpt lat="45.83306" lon="7.82992">
        <ele>1838.6</ele>
        <time>2000-01-01T18:34:18.000Z</time>
      </trkpt>
      <trkpt lat="45.83309" lon="7.82981">
        <ele>1828</ele>
        <time>2000-01-01T18:34:28.000Z</time>
      </trkpt>
      <trkpt lat="45.83312" lon="7.82972">
        <ele>1842.7</ele>
        <time>2000-01-01T18:34:38.000Z</time>
      </trkpt>
      <trkpt lat="45.83315" lon="7.82965">
        <ele>1844.2</ele>
        <time>2000-01-01T18:34:48.000Z</time>
      </trkpt>
      <trkpt lat="45.83323" lon="7.82951">
        <ele>1832</ele>
        <time>2000-01-01T18:34:58.000Z</time>
      </trkpt>
      <trkpt lat="45.83331" lon="7.82943">
        <ele>1850.8</ele>
        <time>2000-01-01T18:35:08.000Z</time>
      </trkpt>
      <trkpt lat="45.83333" lon="7.82934">
        <ele>1850.7</ele>
        <time>2000-01-01T18:35:18.000Z</time>
      </trkpt>
      <trkpt lat="45.83335" lon="7.82925">
        <ele>1831</ele>
        <time>2000-01-01T18:35:28.000Z</time>
      </trkpt>
      <trkpt lat="45.83334" lon="7.82914">
        <ele>1848.9</ele>
        <time>2000-01-01T18:35:38.000Z</time>
      </trkpt>
      <trkpt lat="45.83335" lon="7.82905">
        <ele>1848.1</ele>
        <time>2000-01-01T18:35:48.000Z</time>
      </trkpt>
      <trkpt lat="45.83337" lon="7.82896">
        <ele>1831</ele>
        <time>2000-01-01T18:35:58.000Z</time>
      </trkpt>
      <trkpt lat="45.83341" lon="7.82889">
        <ele>1848.6</ele>
        <time>2000-01-01T18:36:08.000Z</time>
      </trkpt>
      <trkpt lat="45.83344" lon="7.8288">
        <ele>1848.9</ele>
        <time>2000-01-01T18:36:18.000Z</time>
      </trkpt>
      <trkpt lat="45.83345" lon="7.82872">
        <ele>1831</ele>
        <time>2000-01-01T18:36:28.000Z</time>
      </trkpt>
      <trkpt lat="45.83343" lon="7.82863">
        <ele>1846.2</ele>
        <time>2000-01-01T18:36:38.000Z</time>
      </trkpt>
      <trkpt lat="45.83343" lon="7.82853">
        <ele>1846.3</ele>
        <time>2000-01-01T18:36:48.000Z</time>
      </trkpt>
      <trkpt lat="45.83347" lon="7.82833">
        <ele>1831</ele>
        <time>2000-01-01T18:36:58.000Z</time>
      </trkpt>
      <trkpt lat="45.8335" lon="7.82815">
        <ele>1852.3</ele>
        <time>2000-01-01T18:37:08.000Z</time>
      </trkpt>
      <trkpt lat="45.83353" lon="7.8283">
        <ele>1837</ele>
        <time>2000-01-01T18:37:18.000Z</time>
      </trkpt>
      <trkpt lat="45.83359" lon="7.82847">
        <ele>1856.7</ele>
        <time>2000-01-01T18:37:28.000Z</time>
      </trkpt>
      <trkpt lat="45.83365" lon="7.82861">
        <ele>1845</ele>
        <time>2000-01-01T18:37:38.000Z</time>
      </trkpt>
      <trkpt lat="45.83373" lon="7.82872">
        <ele>1865</ele>
        <time>2000-01-01T18:37:48.000Z</time>
      </trkpt>
      <trkpt lat="45.8338" lon="7.82883">
        <ele>1856</ele>
        <time>2000-01-01T18:37:58.000Z</time>
      </trkpt>
      <trkpt lat="45.83383" lon="7.82916">
        <ele>1856</ele>
        <time>2000-01-01T18:38:08.000Z</time>
      </trkpt>
      <trkpt lat="45.83391" lon="7.82928">
        <ele>1879.2</ele>
        <time>2000-01-01T18:38:18.000Z</time>
      </trkpt>
      <trkpt lat="45.83398" lon="7.82916">
        <ele>1861</ele>
        <time>2000-01-01T18:38:28.000Z</time>
      </trkpt>
      <trkpt lat="45.83408" lon="7.82911">
        <ele>1889.4</ele>
        <time>2000-01-01T18:38:38.000Z</time>
      </trkpt>
      <trkpt lat="45.83423" lon="7.8291">
        <ele>1875</ele>
        <time>2000-01-01T18:38:48.000Z</time>
      </trkpt>
      <trkpt lat="45.83434" lon="7.82911">
        <ele>1910.7</ele>
        <time>2000-01-01T18:38:58.000Z</time>
      </trkpt>
      <trkpt lat="45.83441" lon="7.82926">
        <ele>1887</ele>
        <time>2000-01-01T18:39:08.000Z</time>
      </trkpt>
      <trkpt lat="45.83452" lon="7.82931">
        <ele>1924.4</ele>
        <time>2000-01-01T18:39:18.000Z</time>
      </trkpt>
      <trkpt lat="45.83459" lon="7.82944">
        <ele>1894</ele>
        <time>2000-01-01T18:39:28.000Z</time>
      </trkpt>
      <trkpt lat="45.83469" lon="7.82954">
        <ele>1935.9</ele>
        <time>2000-01-01T18:39:38.000Z</time>
      </trkpt>
      <trkpt lat="45.83476" lon="7.82969">
        <ele>1906</ele>
        <time>2000-01-01T18:39:48.000Z</time>
      </trkpt>
      <trkpt lat="45.83486" lon="7.82974">
        <ele>1944.7</ele>
        <time>2000-01-01T18:39:58.000Z</time>
      </trkpt>
      <trkpt lat="45.8349" lon="7.8299">
        <ele>1919</ele>
        <time>2000-01-01T18:40:08.000Z</time>
      </trkpt>
      <trkpt lat="45.83496" lon="7.83003">
        <ele>1948.3</ele>
        <time>2000-01-01T18:40:18.000Z</time>
      </trkpt>
      <trkpt lat="45.83503" lon="7.83017">
        <ele>1926</ele>
        <time>2000-01-01T18:40:28.000Z</time>
      </trkpt>
      <trkpt lat="45.83524" lon="7.83005">
        <ele>1937</ele>
        <time>2000-01-01T18:40:38.000Z</time>
      </trkpt>
      <trkpt lat="45.83532" lon="7.8299">
        <ele>1967.3</ele>
        <time>2000-01-01T18:40:48.000Z</time>
      </trkpt>
      <trkpt lat="45.83542" lon="7.82985">
        <ele>1947</ele>
        <time>2000-01-01T18:40:58.000Z</time>
      </trkpt>
      <trkpt lat="45.83553" lon="7.8299">
        <ele>1977.2</ele>
        <time>2000-01-01T18:41:08.000Z</time>
      </trkpt>
      <trkpt lat="45.83564" lon="7.8299">
        <ele>1959</ele>
        <time>2000-01-01T18:41:18.000Z</time>
      </trkpt>
      <trkpt lat="45.83574" lon="7.82998">
        <ele>1986.7</ele>
        <time>2000-01-01T18:41:28.000Z</time>
      </trkpt>
      <trkpt lat="45.83585" lon="7.82996">
        <ele>1970</ele>
        <time>2000-01-01T18:41:38.000Z</time>
      </trkpt>
      <trkpt lat="45.83596" lon="7.82991">
        <ele>1997.3</ele>
        <time>2000-01-01T18:41:48.000Z</time>
      </trkpt>
      <trkpt lat="45.83618" lon="7.82987">
        <ele>1985</ele>
        <time>2000-01-01T18:41:58.000Z</time>
      </trkpt>
      <trkpt lat="45.83629" lon="7.8298">
        <ele>2012.3</ele>
        <time>2000-01-01T18:42:08.000Z</time>
      </trkpt>
      <trkpt lat="45.83635" lon="7.82967">
        <ele>1999</ele>
        <time>2000-01-01T18:42:18.000Z</time>
      </trkpt>
      <trkpt lat="45.83637" lon="7.82952">
        <ele>2014.6</ele>
        <time>2000-01-01T18:42:28.000Z</time>
      </trkpt>
      <trkpt lat="45.83647" lon="7.82945">
        <ele>2007</ele>
        <time>2000-01-01T18:42:38.000Z</time>
      </trkpt>
      <trkpt lat="45.83654" lon="7.82958">
        <ele>2024.2</ele>
        <time>2000-01-01T18:42:48.000Z</time>
      </trkpt>
      <trkpt lat="45.83663" lon="7.82954">
        <ele>2018</ele>
        <time>2000-01-01T18:42:58.000Z</time>
      </trkpt>
      <trkpt lat="45.83669" lon="7.8294">
        <ele>2031.9</ele>
        <time>2000-01-01T18:43:08.000Z</time>
      </trkpt>
      <trkpt lat="45.83678" lon="7.82931">
        <ele>2027</ele>
        <time>2000-01-01T18:43:18.000Z</time>
      </trkpt>
      <trkpt lat="45.83683" lon="7.82947">
        <ele>2041.3</ele>
        <time>2000-01-01T18:43:28.000Z</time>
      </trkpt>
      <trkpt lat="45.8369" lon="7.82956">
        <ele>2030</ele>
        <time>2000-01-01T18:43:38.000Z</time>
      </trkpt>
      <trkpt lat="45.83697" lon="7.82944">
        <ele>2050.8</ele>
        <time>2000-01-01T18:43:48.000Z</time>
      </trkpt>
      <trkpt lat="45.83705" lon="7.82936">
        <ele>2045</ele>
        <time>2000-01-01T18:43:58.000Z</time>
      </trkpt>
      <trkpt lat="45.83712" lon="7.82923">
        <ele>2059.8</ele>
        <time>2000-01-01T18:44:08.000Z</time>
      </trkpt>
      <trkpt lat="45.83721" lon="7.82925">
        <ele>2059</ele>
        <time>2000-01-01T18:44:18.000Z</time>
      </trkpt>
      <trkpt lat="45.83731" lon="7.82922">
        <ele>2071.6</ele>
        <time>2000-01-01T18:44:28.000Z</time>
      </trkpt>
      <trkpt lat="45.83735" lon="7.82907">
        <ele>2069</ele>
        <time>2000-01-01T18:44:38.000Z</time>
      </trkpt>
      <trkpt lat="45.83744" lon="7.8291">
        <ele>2080.2</ele>
        <time>2000-01-01T18:44:48.000Z</time>
      </trkpt>
      <trkpt lat="45.8375" lon="7.82924">
        <ele>2071</ele>
        <time>2000-01-01T18:44:58.000Z</time>
      </trkpt>
      <trkpt lat="45.83758" lon="7.82935">
        <ele>2090.6</ele>
        <time>2000-01-01T18:45:08.000Z</time>
      </trkpt>
      <trkpt lat="45.83769" lon="7.82944">
        <ele>2080</ele>
        <time>2000-01-01T18:45:18.000Z</time>
      </trkpt>
      <trkpt lat="45.83781" lon="7.82948">
        <ele>2105</ele>
        <time>2000-01-01T18:45:28.000Z</time>
      </trkpt>
      <trkpt lat="45.83787" lon="7.82962">
        <ele>2089</ele>
        <time>2000-01-01T18:45:38.000Z</time>
      </trkpt>
      <trkpt lat="45.83792" lon="7.82977">
        <ele>2115</ele>
        <time>2000-01-01T18:45:48.000Z</time>
      </trkpt>
      <trkpt lat="45.83802" lon="7.82971">
        <ele>2098</ele>
        <time>2000-01-01T18:45:58.000Z</time>
      </trkpt>
      <trkpt lat="45.83812" lon="7.82983">
        <ele>2125.3</ele>
        <time>2000-01-01T18:46:08.000Z</time>
      </trkpt>
      <trkpt lat="45.83824" lon="7.82992">
        <ele>2107</ele>
        <time>2000-01-01T18:46:18.000Z</time>
      </trkpt>
      <trkpt lat="45.8383" lon="7.83006">
        <ele>2134.8</ele>
        <time>2000-01-01T18:46:28.000Z</time>
      </trkpt>
      <trkpt lat="45.83834" lon="7.83022">
        <ele>2110</ele>
        <time>2000-01-01T18:46:38.000Z</time>
      </trkpt>
      <trkpt lat="45.83856" lon="7.83038">
        <ele>2121</ele>
        <time>2000-01-01T18:46:48.000Z</time>
      </trkpt>
      <trkpt lat="45.83866" lon="7.83047">
        <ele>2146.3</ele>
        <time>2000-01-01T18:46:58.000Z</time>
      </trkpt>
      <trkpt lat="45.83871" lon="7.83063">
        <ele>2133</ele>
        <time>2000-01-01T18:47:08.000Z</time>
      </trkpt>
      <trkpt lat="45.83883" lon="7.83066">
        <ele>2150</ele>
        <time>2000-01-01T18:47:18.000Z</time>
      </trkpt>
      <trkpt lat="45.83893" lon="7.83074">
        <ele>2146</ele>
        <time>2000-01-01T18:47:28.000Z</time>
      </trkpt>
      <trkpt lat="45.83904" lon="7.83072">
        <ele>2160.8</ele>
        <time>2000-01-01T18:47:38.000Z</time>
      </trkpt>
      <trkpt lat="45.83907" lon="7.83089">
        <ele>2152</ele>
        <time>2000-01-01T18:47:48.000Z</time>
      </trkpt>
      <trkpt lat="45.83917" lon="7.83089">
        <ele>2168.9</ele>
        <time>2000-01-01T18:47:58.000Z</time>
      </trkpt>
      <trkpt lat="45.8392" lon="7.83105">
        <ele>2159</ele>
        <time>2000-01-01T18:48:08.000Z</time>
      </trkpt>
      <trkpt lat="45.83915" lon="7.8314">
        <ele>2159</ele>
        <time>2000-01-01T18:48:18.000Z</time>
      </trkpt>
      <trkpt lat="45.83906" lon="7.83153">
        <ele>2175.5</ele>
        <time>2000-01-01T18:48:28.000Z</time>
      </trkpt>
      <trkpt lat="45.83909" lon="7.83169">
        <ele>2159</ele>
        <time>2000-01-01T18:48:38.000Z</time>
      </trkpt>
      <trkpt lat="45.83914" lon="7.83183">
        <ele>2187.6</ele>
        <time>2000-01-01T18:48:48.000Z</time>
      </trkpt>
      <trkpt lat="45.83925" lon="7.83183">
        <ele>2171</ele>
        <time>2000-01-01T18:48:58.000Z</time>
      </trkpt>
      <trkpt lat="45.83923" lon="7.83201">
        <ele>2196.6</ele>
        <time>2000-01-01T18:49:08.000Z</time>
      </trkpt>
      <trkpt lat="45.83926" lon="7.83218">
        <ele>2176</ele>
        <time>2000-01-01T18:49:18.000Z</time>
      </trkpt>
      <trkpt lat="45.83924" lon="7.83234">
        <ele>2207.7</ele>
        <time>2000-01-01T18:49:28.000Z</time>
      </trkpt>
      <trkpt lat="45.83938" lon="7.83232">
        <ele>2185</ele>
        <time>2000-01-01T18:49:38.000Z</time>
      </trkpt>
      <trkpt lat="45.83972" lon="7.83214">
        <ele>2202</ele>
        <time>2000-01-01T18:49:48.000Z</time>
      </trkpt>
      <trkpt lat="45.83983" lon="7.83215">
        <ele>2226.1</ele>
        <time>2000-01-01T18:49:58.000Z</time>
      </trkpt>
      <trkpt lat="45.83993" lon="7.83224">
        <ele>2208</ele>
        <time>2000-01-01T18:50:08.000Z</time>
      </trkpt>
      <trkpt lat="45.84004" lon="7.83227">
        <ele>2230.5</ele>
        <time>2000-01-01T18:50:18.000Z</time>
      </trkpt>
      <trkpt lat="45.84015" lon="7.83222">
        <ele>2210</ele>
        <time>2000-01-01T18:50:28.000Z</time>
      </trkpt>
      <trkpt lat="45.84027" lon="7.83229">
        <ele>2232.9</ele>
        <time>2000-01-01T18:50:38.000Z</time>
      </trkpt>
      <trkpt lat="45.84037" lon="7.83229">
        <ele>2213</ele>
        <time>2000-01-01T18:50:48.000Z</time>
      </trkpt>
      <trkpt lat="45.84045" lon="7.83241">
        <ele>2231.5</ele>
        <time>2000-01-01T18:50:58.000Z</time>
      </trkpt>
      <trkpt lat="45.84052" lon="7.8325">
        <ele>2215</ele>
        <time>2000-01-01T18:51:08.000Z</time>
      </trkpt>
      <trkpt lat="45.84063" lon="7.83256">
        <ele>2232</ele>
        <time>2000-01-01T18:51:18.000Z</time>
      </trkpt>
      <trkpt lat="45.84075" lon="7.83267">
        <ele>2217</ele>
        <time>2000-01-01T18:51:28.000Z</time>
      </trkpt>
      <trkpt lat="45.84084" lon="7.83281">
        <ele>2239.3</ele>
        <time>2000-01-01T18:51:38.000Z</time>
      </trkpt>
      <trkpt lat="45.84095" lon="7.83296">
        <ele>2222</ele>
        <time>2000-01-01T18:51:48.000Z</time>
      </trkpt>
      <trkpt lat="45.84109" lon="7.83309">
        <ele>2241.1</ele>
        <time>2000-01-01T18:51:58.000Z</time>
      </trkpt>
      <trkpt lat="45.84121" lon="7.83317">
        <ele>2221</ele>
        <time>2000-01-01T18:52:08.000Z</time>
      </trkpt>
      <trkpt lat="45.84154" lon="7.83325">
        <ele>2221</ele>
        <time>2000-01-01T18:52:18.000Z</time>
      </trkpt>
      <trkpt lat="45.84171" lon="7.83328">
        <ele>2248</ele>
        <time>2000-01-01T18:52:28.000Z</time>
      </trkpt>
      <trkpt lat="45.84183" lon="7.83332">
        <ele>2221</ele>
        <time>2000-01-01T18:52:38.000Z</time>
      </trkpt>
      <trkpt lat="45.84204" lon="7.83346">
        <ele>2222</ele>
        <time>2000-01-01T18:52:48.000Z</time>
      </trkpt>
      <trkpt lat="45.8422" lon="7.83355">
        <ele>2253.2</ele>
        <time>2000-01-01T18:52:58.000Z</time>
      </trkpt>
      <trkpt lat="45.84237" lon="7.83362">
        <ele>2228</ele>
        <time>2000-01-01T18:53:08.000Z</time>
      </trkpt>
      <trkpt lat="45.84248" lon="7.83369">
        <ele>2257.8</ele>
        <time>2000-01-01T18:53:18.000Z</time>
      </trkpt>
      <trkpt lat="45.84272" lon="7.83382">
        <ele>2233</ele>
        <time>2000-01-01T18:53:28.000Z</time>
      </trkpt>
      <trkpt lat="45.84286" lon="7.83392">
        <ele>2259.9</ele>
        <time>2000-01-01T18:53:38.000Z</time>
      </trkpt>
      <trkpt lat="45.84301" lon="7.83396">
        <ele>2231</ele>
        <time>2000-01-01T18:53:48.000Z</time>
      </trkpt>
      <trkpt lat="45.8431" lon="7.83396">
        <ele>2262.3</ele>
        <time>2000-01-01T18:53:58.000Z</time>
      </trkpt>
      <trkpt lat="45.84327" lon="7.83382">
        <ele>2229</ele>
        <time>2000-01-01T18:54:08.000Z</time>
      </trkpt>
      <trkpt lat="45.84345" lon="7.83378">
        <ele>2261.5</ele>
        <time>2000-01-01T18:54:18.000Z</time>
      </trkpt>
      <trkpt lat="45.84362" lon="7.83378">
        <ele>2225</ele>
        <time>2000-01-01T18:54:28.000Z</time>
      </trkpt>
      <trkpt lat="45.8438" lon="7.83385">
        <ele>2229</ele>
        <time>2000-01-01T18:54:38.000Z</time>
      </trkpt>
      <trkpt lat="45.84395" lon="7.83401">
        <ele>2258.5</ele>
        <time>2000-01-01T18:54:48.000Z</time>
      </trkpt>
      <trkpt lat="45.84405" lon="7.83419">
        <ele>2234</ele>
        <time>2000-01-01T18:54:58.000Z</time>
      </trkpt>
      <trkpt lat="45.84413" lon="7.83429">
        <ele>2262.5</ele>
        <time>2000-01-01T18:55:08.000Z</time>
      </trkpt>
      <trkpt lat="45.84432" lon="7.83438">
        <ele>2231</ele>
        <time>2000-01-01T18:55:18.000Z</time>
      </trkpt>
      <trkpt lat="45.84449" lon="7.83429">
        <ele>2261.5</ele>
        <time>2000-01-01T18:55:28.000Z</time>
      </trkpt>
      <trkpt lat="45.84469" lon="7.83425">
        <ele>2231</ele>
        <time>2000-01-01T18:55:38.000Z</time>
      </trkpt>
      <trkpt lat="45.84486" lon="7.83431">
        <ele>2259.3</ele>
        <time>2000-01-01T18:55:48.000Z</time>
      </trkpt>
      <trkpt lat="45.84507" lon="7.83443">
        <ele>2229</ele>
        <time>2000-01-01T18:55:58.000Z</time>
      </trkpt>
      <trkpt lat="45.84518" lon="7.83447">
        <ele>2264.5</ele>
        <time>2000-01-01T18:56:08.000Z</time>
      </trkpt>
      <trkpt lat="45.84537" lon="7.8345">
        <ele>2228</ele>
        <time>2000-01-01T18:56:18.000Z</time>
      </trkpt>
      <trkpt lat="45.84566" lon="7.8345">
        <ele>2228</ele>
        <time>2000-01-01T18:56:28.000Z</time>
      </trkpt>
      <trkpt lat="45.84578" lon="7.83451">
        <ele>2266.1</ele>
        <time>2000-01-01T18:56:38.000Z</time>
      </trkpt>
      <trkpt lat="45.84589" lon="7.83458">
        <ele>2229</ele>
        <time>2000-01-01T18:56:48.000Z</time>
      </trkpt>
      <trkpt lat="45.84595" lon="7.83479">
        <ele>2271.1</ele>
        <time>2000-01-01T18:56:58.000Z</time>
      </trkpt>
      <trkpt lat="45.8462" lon="7.835">
        <ele>2245</ele>
        <time>2000-01-01T18:57:08.000Z</time>
      </trkpt>
      <trkpt lat="45.84638" lon="7.83509">
        <ele>2249</ele>
        <time>2000-01-01T18:57:18.000Z</time>
      </trkpt>
      <trkpt lat="45.84652" lon="7.83514">
        <ele>2278.2</ele>
        <time>2000-01-01T18:57:28.000Z</time>
      </trkpt>
      <trkpt lat="45.84663" lon="7.83525">
        <ele>2252</ele>
        <time>2000-01-01T18:57:38.000Z</time>
      </trkpt>
      <trkpt lat="45.84681" lon="7.83525">
        <ele>2279.2</ele>
        <time>2000-01-01T18:57:48.000Z</time>
      </trkpt>
      <trkpt lat="45.8469" lon="7.83529">
        <ele>2256</ele>
        <time>2000-01-01T18:57:58.000Z</time>
      </trkpt>
      <trkpt lat="45.84708" lon="7.83534">
        <ele>2282.7</ele>
        <time>2000-01-01T18:58:08.000Z</time>
      </trkpt>
      <trkpt lat="45.84726" lon="7.83532">
        <ele>2259</ele>
        <time>2000-01-01T18:58:18.000Z</time>
      </trkpt>
      <trkpt lat="45.84734" lon="7.83539">
        <ele>2284.9</ele>
        <time>2000-01-01T18:58:28.000Z</time>
      </trkpt>
      <trkpt lat="45.84749" lon="7.83547">
        <ele>2261</ele>
        <time>2000-01-01T18:58:38.000Z</time>
      </trkpt>
      <trkpt lat="45.84762" lon="7.83557">
        <ele>2290.3</ele>
        <time>2000-01-01T18:58:48.000Z</time>
      </trkpt>
      <trkpt lat="45.84773" lon="7.83569">
        <ele>2266</ele>
        <time>2000-01-01T18:58:58.000Z</time>
      </trkpt>
      <trkpt lat="45.84792" lon="7.83571">
        <ele>2294.6</ele>
        <time>2000-01-01T18:59:08.000Z</time>
      </trkpt>
      <trkpt lat="45.84811" lon="7.83586">
        <ele>2266</ele>
        <time>2000-01-01T18:59:18.000Z</time>
      </trkpt>
      <trkpt lat="45.84838" lon="7.83588">
        <ele>2267</ele>
        <time>2000-01-01T18:59:28.000Z</time>
      </trkpt>
      <trkpt lat="45.84851" lon="7.83591">
        <ele>2301.3</ele>
        <time>2000-01-01T18:59:38.000Z</time>
      </trkpt>
      <trkpt lat="45.84873" lon="7.83603">
        <ele>2270</ele>
        <time>2000-01-01T18:59:48.000Z</time>
      </trkpt>
      <trkpt lat="45.84894" lon="7.83621">
        <ele>2277</ele>
        <time>2000-01-01T18:59:58.000Z</time>
      </trkpt>
      <trkpt lat="45.84908" lon="7.8363">
        <ele>2305.7</ele>
        <time>2000-01-01T19:00:08.000Z</time>
      </trkpt>
      <trkpt lat="45.84927" lon="7.83634">
        <ele>2278</ele>
        <time>2000-01-01T19:00:18.000Z</time>
      </trkpt>
      <trkpt lat="45.84943" lon="7.83641">
        <ele>2302.7</ele>
        <time>2000-01-01T19:00:28.000Z</time>
      </trkpt>
      <trkpt lat="45.8496" lon="7.8365">
        <ele>2281</ele>
        <time>2000-01-01T19:00:38.000Z</time>
      </trkpt>
      <trkpt lat="45.84977" lon="7.83669">
        <ele>2288</ele>
        <time>2000-01-01T19:00:48.000Z</time>
      </trkpt>
      <trkpt lat="45.84996" lon="7.83668">
        <ele>2288</ele>
        <time>2000-01-01T19:00:58.000Z</time>
      </trkpt>
      <trkpt lat="45.85004" lon="7.83658">
        <ele>2301.8</ele>
        <time>2000-01-01T19:01:08.000Z</time>
      </trkpt>
      <trkpt lat="45.85026" lon="7.83654">
        <ele>2288</ele>
        <time>2000-01-01T19:01:18.000Z</time>
      </trkpt>
      <trkpt lat="45.85036" lon="7.83655">
        <ele>2302.8</ele>
        <time>2000-01-01T19:01:28.000Z</time>
      </trkpt>
      <trkpt lat="45.85054" lon="7.83663">
        <ele>2291</ele>
        <time>2000-01-01T19:01:38.000Z</time>
      </trkpt>
      <trkpt lat="45.85071" lon="7.83673">
        <ele>2305.6</ele>
        <time>2000-01-01T19:01:48.000Z</time>
      </trkpt>
      <trkpt lat="45.85082" lon="7.83678">
        <ele>2291</ele>
        <time>2000-01-01T19:01:58.000Z</time>
      </trkpt>
      <trkpt lat="45.85089" lon="7.83694">
        <ele>2306.3</ele>
        <time>2000-01-01T19:02:08.000Z</time>
      </trkpt>
      <trkpt lat="45.85089" lon="7.8371">
        <ele>2298</ele>
        <time>2000-01-01T19:02:18.000Z</time>
      </trkpt>
      <trkpt lat="45.85092" lon="7.83735">
        <ele>2310.2</ele>
        <time>2000-01-01T19:02:28.000Z</time>
      </trkpt>
      <trkpt lat="45.85099" lon="7.8376">
        <ele>2301</ele>
        <time>2000-01-01T19:02:38.000Z</time>
      </trkpt>
      <trkpt lat="45.85109" lon="7.83768">
        <ele>2311.5</ele>
        <time>2000-01-01T19:02:48.000Z</time>
      </trkpt>
      <trkpt lat="45.85133" lon="7.83775">
        <ele>2298</ele>
        <time>2000-01-01T19:02:58.000Z</time>
      </trkpt>
      <trkpt lat="45.85157" lon="7.83762">
        <ele>2296</ele>
        <time>2000-01-01T19:03:08.000Z</time>
      </trkpt>
      <trkpt lat="45.85167" lon="7.83757">
        <ele>2310.9</ele>
        <time>2000-01-01T19:03:18.000Z</time>
      </trkpt>
      <trkpt lat="45.85184" lon="7.83758">
        <ele>2292</ele>
        <time>2000-01-01T19:03:28.000Z</time>
      </trkpt>
      <trkpt lat="45.85202" lon="7.83765">
        <ele>2291</ele>
        <time>2000-01-01T19:03:38.000Z</time>
      </trkpt>
      <trkpt lat="45.85219" lon="7.83768">
        <ele>2304.1</ele>
        <time>2000-01-01T19:03:48.000Z</time>
      </trkpt>
      <trkpt lat="45.85235" lon="7.83784">
        <ele>2291</ele>
        <time>2000-01-01T19:03:58.000Z</time>
      </trkpt>
      <trkpt lat="45.85274" lon="7.83779">
        <ele>2288</ele>
        <time>2000-01-01T19:04:08.000Z</time>
      </trkpt>
      <trkpt lat="45.85285" lon="7.83787">
        <ele>2302.4</ele>
        <time>2000-01-01T19:04:18.000Z</time>
      </trkpt>
      <trkpt lat="45.85293" lon="7.83798">
        <ele>2292</ele>
        <time>2000-01-01T19:04:28.000Z</time>
      </trkpt>
      <trkpt lat="45.85299" lon="7.83823">
        <ele>2305.8</ele>
        <time>2000-01-01T19:04:38.000Z</time>
      </trkpt>
      <trkpt lat="45.85301" lon="7.83842">
        <ele>2296</ele>
        <time>2000-01-01T19:04:48.000Z</time>
      </trkpt>
      <trkpt lat="45.85302" lon="7.83858">
        <ele>2307.5</ele>
        <time>2000-01-01T19:04:58.000Z</time>
      </trkpt>
      <trkpt lat="45.85306" lon="7.83899">
        <ele>2307</ele>
        <time>2000-01-01T19:05:08.000Z</time>
      </trkpt>
      <trkpt lat="45.85317" lon="7.83922">
        <ele>2308</ele>
        <time>2000-01-01T19:05:18.000Z</time>
      </trkpt>
      <trkpt lat="45.85324" lon="7.8394">
        <ele>2312</ele>
        <time>2000-01-01T19:05:28.000Z</time>
      </trkpt>
      <trkpt lat="45.85332" lon="7.83955">
        <ele>2313.1</ele>
        <time>2000-01-01T19:05:38.000Z</time>
      </trkpt>
      <trkpt lat="45.8535" lon="7.83982">
        <ele>2315</ele>
        <time>2000-01-01T19:05:48.000Z</time>
      </trkpt>
      <trkpt lat="45.85365" lon="7.84007">
        <ele>2315</ele>
        <time>2000-01-01T19:05:58.000Z</time>
      </trkpt>
      <trkpt lat="45.8538" lon="7.84039">
        <ele>2319</ele>
        <time>2000-01-01T19:06:08.000Z</time>
      </trkpt>
      <trkpt lat="45.85384" lon="7.84076">
        <ele>2324</ele>
        <time>2000-01-01T19:06:18.000Z</time>
      </trkpt>
      <trkpt lat="45.85385" lon="7.84095">
        <ele>2324.4</ele>
        <time>2000-01-01T19:06:28.000Z</time>
      </trkpt>
      <trkpt lat="45.85383" lon="7.84134">
        <ele>2330</ele>
        <time>2000-01-01T19:06:38.000Z</time>
      </trkpt>
      <trkpt lat="45.8538" lon="7.84161">
        <ele>2332</ele>
        <time>2000-01-01T19:06:48.000Z</time>
      </trkpt>
      <trkpt lat="45.85376" lon="7.84188">
        <ele>2335</ele>
        <time>2000-01-01T19:06:58.000Z</time>
      </trkpt>
      <trkpt lat="45.85381" lon="7.84216">
        <ele>2335</ele>
        <time>2000-01-01T19:07:08.000Z</time>
      </trkpt>
      <trkpt lat="45.85382" lon="7.84249">
        <ele>2337</ele>
        <time>2000-01-01T19:07:18.000Z</time>
      </trkpt>
      <trkpt lat="45.85378" lon="7.84287">
        <ele>2342</ele>
        <time>2000-01-01T19:07:28.000Z</time>
      </trkpt>
      <trkpt lat="45.85377" lon="7.84314">
        <ele>2345</ele>
        <time>2000-01-01T19:07:38.000Z</time>
      </trkpt>
      <trkpt lat="45.85383" lon="7.84337">
        <ele>2332.7</ele>
        <time>2000-01-01T19:07:48.000Z</time>
      </trkpt>
      <trkpt lat="45.85388" lon="7.84355">
        <ele>2344</ele>
        <time>2000-01-01T19:07:58.000Z</time>
      </trkpt>
      <trkpt lat="45.85391" lon="7.84369">
        <ele>2333</ele>
        <time>2000-01-01T19:08:08.000Z</time>
      </trkpt>
      <trkpt lat="45.85405" lon="7.84385">
        <ele>2344</ele>
        <time>2000-01-01T19:08:18.000Z</time>
      </trkpt>
      <trkpt lat="45.85428" lon="7.84397">
        <ele>2339</ele>
        <time>2000-01-01T19:08:28.000Z</time>
      </trkpt>
      <trkpt lat="45.85449" lon="7.84423">
        <ele>2334</ele>
        <time>2000-01-01T19:08:38.000Z</time>
      </trkpt>
      <trkpt lat="45.85462" lon="7.84454">
        <ele>2329</ele>
        <time>2000-01-01T19:08:48.000Z</time>
      </trkpt>
      <trkpt lat="45.85479" lon="7.84475">
        <ele>2326</ele>
        <time>2000-01-01T19:08:58.000Z</time>
      </trkpt>
      <trkpt lat="45.85488" lon="7.84482">
        <ele>2317.9</ele>
        <time>2000-01-01T19:09:08.000Z</time>
      </trkpt>
      <trkpt lat="45.85499" lon="7.84481">
        <ele>2320</ele>
        <time>2000-01-01T19:09:18.000Z</time>
      </trkpt>
      <trkpt lat="45.85522" lon="7.84473">
        <ele>2315</ele>
        <time>2000-01-01T19:09:28.000Z</time>
      </trkpt>
      <trkpt lat="45.85546" lon="7.84465">
        <ele>2311</ele>
        <time>2000-01-01T19:09:38.000Z</time>
      </trkpt>
      <trkpt lat="45.85564" lon="7.84462">
        <ele>2311.5</ele>
        <time>2000-01-01T19:09:48.000Z</time>
      </trkpt>
      <trkpt lat="45.85583" lon="7.84466">
        <ele>2311</ele>
        <time>2000-01-01T19:09:58.000Z</time>
      </trkpt>
      <trkpt lat="45.85592" lon="7.84472">
        <ele>2316.1</ele>
        <time>2000-01-01T19:10:08.000Z</time>
      </trkpt>
      <trkpt lat="45.85602" lon="7.84475">
        <ele>2315</ele>
        <time>2000-01-01T19:10:18.000Z</time>
      </trkpt>
      <trkpt lat="45.85615" lon="7.84469">
        <ele>2320.7</ele>
        <time>2000-01-01T19:10:28.000Z</time>
      </trkpt>
      <trkpt lat="45.85628" lon="7.84473">
        <ele>2317</ele>
        <time>2000-01-01T19:10:38.000Z</time>
      </trkpt>
      <trkpt lat="45.85637" lon="7.84485">
        <ele>2327</ele>
        <time>2000-01-01T19:10:48.000Z</time>
      </trkpt>
      <trkpt lat="45.85643" lon="7.84503">
        <ele>2325</ele>
        <time>2000-01-01T19:10:58.000Z</time>
      </trkpt>
      <trkpt lat="45.85639" lon="7.84518">
        <ele>2331.9</ele>
        <time>2000-01-01T19:11:08.000Z</time>
      </trkpt>
      <trkpt lat="45.85634" lon="7.84532">
        <ele>2326</ele>
        <time>2000-01-01T19:11:18.000Z</time>
      </trkpt>
      <trkpt lat="45.85636" lon="7.84564">
        <ele>2329</ele>
        <time>2000-01-01T19:11:28.000Z</time>
      </trkpt>
      <trkpt lat="45.85645" lon="7.84586">
        <ele>2336.8</ele>
        <time>2000-01-01T19:11:38.000Z</time>
      </trkpt>
      <trkpt lat="45.85662" lon="7.84618">
        <ele>2340</ele>
        <time>2000-01-01T19:11:48.000Z</time>
      </trkpt>
      <trkpt lat="45.85675" lon="7.84635">
        <ele>2342.8</ele>
        <time>2000-01-01T19:11:58.000Z</time>
      </trkpt>
      <trkpt lat="45.85689" lon="7.84649">
        <ele>2346</ele>
        <time>2000-01-01T19:12:08.000Z</time>
      </trkpt>
      <trkpt lat="45.857" lon="7.8466">
        <ele>2349.9</ele>
        <time>2000-01-01T19:12:18.000Z</time>
      </trkpt>
      <trkpt lat="45.85712" lon="7.84685">
        <ele>2353</ele>
        <time>2000-01-01T19:12:28.000Z</time>
      </trkpt>
      <trkpt lat="45.85732" lon="7.84681">
        <ele>2355</ele>
        <time>2000-01-01T19:12:38.000Z</time>
      </trkpt>
      <trkpt lat="45.85746" lon="7.84683">
        <ele>2359</ele>
        <time>2000-01-01T19:12:48.000Z</time>
      </trkpt>
      <trkpt lat="45.85765" lon="7.84694">
        <ele>2358</ele>
        <time>2000-01-01T19:12:58.000Z</time>
      </trkpt>
      <trkpt lat="45.85766" lon="7.84719">
        <ele>2368.3</ele>
        <time>2000-01-01T19:13:08.000Z</time>
      </trkpt>
      <trkpt lat="45.85759" lon="7.84745">
        <ele>2361</ele>
        <time>2000-01-01T19:13:18.000Z</time>
      </trkpt>
      <trkpt lat="45.85765" lon="7.84764">
        <ele>2375.8</ele>
        <time>2000-01-01T19:13:28.000Z</time>
      </trkpt>
      <trkpt lat="45.85766" lon="7.8478">
        <ele>2365</ele>
        <time>2000-01-01T19:13:38.000Z</time>
      </trkpt>
      <trkpt lat="45.85735" lon="7.8482">
        <ele>2368</ele>
        <time>2000-01-01T19:13:48.000Z</time>
      </trkpt>
      <trkpt lat="45.85752" lon="7.84839">
        <ele>2372</ele>
        <time>2000-01-01T19:13:58.000Z</time>
      </trkpt>
      <trkpt lat="45.85758" lon="7.84844">
        <ele>2391.4</ele>
        <time>2000-01-01T19:14:08.000Z</time>
      </trkpt>
      <trkpt lat="45.85759" lon="7.84849">
        <ele>2392.8</ele>
        <time>2000-01-01T19:14:18.000Z</time>
      </trkpt>
      <trkpt lat="45.85765" lon="7.84854">
        <ele>2394.7</ele>
        <time>2000-01-01T19:14:28.000Z</time>
      </trkpt>
      <trkpt lat="45.85773" lon="7.84866">
        <ele>2381</ele>
        <time>2000-01-01T19:14:38.000Z</time>
      </trkpt>
      <trkpt lat="45.85792" lon="7.8488">
        <ele>2389</ele>
        <time>2000-01-01T19:14:48.000Z</time>
      </trkpt>
      <trkpt lat="45.85807" lon="7.84882">
        <ele>2411.4</ele>
        <time>2000-01-01T19:14:58.000Z</time>
      </trkpt>
      <trkpt lat="45.8582" lon="7.84893">
        <ele>2396</ele>
        <time>2000-01-01T19:15:08.000Z</time>
      </trkpt>
      <trkpt lat="45.85844" lon="7.849">
        <ele>2404</ele>
        <time>2000-01-01T19:15:18.000Z</time>
      </trkpt>
      <trkpt lat="45.85873" lon="7.84904">
        <ele>2418</ele>
        <time>2000-01-01T19:15:28.000Z</time>
      </trkpt>
      <trkpt lat="45.85885" lon="7.8491">
        <ele>2430.9</ele>
        <time>2000-01-01T19:15:38.000Z</time>
      </trkpt>
      <trkpt lat="45.85899" lon="7.84924">
        <ele>2432</ele>
        <time>2000-01-01T19:15:48.000Z</time>
      </trkpt>
      <trkpt lat="45.85902" lon="7.84944">
        <ele>2443.8</ele>
        <time>2000-01-01T19:15:58.000Z</time>
      </trkpt>
      <trkpt lat="45.85911" lon="7.84954">
        <ele>2445</ele>
        <time>2000-01-01T19:16:08.000Z</time>
      </trkpt>
      <trkpt lat="45.85926" lon="7.84957">
        <ele>2450.2</ele>
        <time>2000-01-01T19:16:18.000Z</time>
      </trkpt>
      <trkpt lat="45.85942" lon="7.84963">
        <ele>2452</ele>
        <time>2000-01-01T19:16:28.000Z</time>
      </trkpt>
      <trkpt lat="45.85944" lon="7.84994">
        <ele>2458</ele>
        <time>2000-01-01T19:16:38.000Z</time>
      </trkpt>
      <trkpt lat="45.85951" lon="7.85006">
        <ele>2456.6</ele>
        <time>2000-01-01T19:16:48.000Z</time>
      </trkpt>
      <trkpt lat="45.85957" lon="7.85024">
        <ele>2465</ele>
        <time>2000-01-01T19:16:58.000Z</time>
      </trkpt>
      <trkpt lat="45.85965" lon="7.85044">
        <ele>2464.9</ele>
        <time>2000-01-01T19:17:08.000Z</time>
      </trkpt>
      <trkpt lat="45.85974" lon="7.85058">
        <ele>2468</ele>
        <time>2000-01-01T19:17:18.000Z</time>
      </trkpt>
      <trkpt lat="45.85983" lon="7.85073">
        <ele>2467.5</ele>
        <time>2000-01-01T19:17:28.000Z</time>
      </trkpt>
      <trkpt lat="45.85989" lon="7.85094">
        <ele>2473</ele>
        <time>2000-01-01T19:17:38.000Z</time>
      </trkpt>
      <trkpt lat="45.86" lon="7.85107">
        <ele>2472.2</ele>
        <time>2000-01-01T19:17:48.000Z</time>
      </trkpt>
      <trkpt lat="45.86005" lon="7.8512">
        <ele>2474</ele>
        <time>2000-01-01T19:17:58.000Z</time>
      </trkpt>
      <trkpt lat="45.8601" lon="7.85137">
        <ele>2476.1</ele>
        <time>2000-01-01T19:18:08.000Z</time>
      </trkpt>
      <trkpt lat="45.86016" lon="7.85154">
        <ele>2472</ele>
        <time>2000-01-01T19:18:18.000Z</time>
      </trkpt>
      <trkpt lat="45.86026" lon="7.85166">
        <ele>2476.7</ele>
        <time>2000-01-01T19:18:28.000Z</time>
      </trkpt>
      <trkpt lat="45.86055" lon="7.8518">
        <ele>2471</ele>
        <time>2000-01-01T19:18:38.000Z</time>
      </trkpt>
      <trkpt lat="45.86068" lon="7.85187">
        <ele>2478.3</ele>
        <time>2000-01-01T19:18:48.000Z</time>
      </trkpt>
      <trkpt lat="45.86076" lon="7.85196">
        <ele>2471</ele>
        <time>2000-01-01T19:18:58.000Z</time>
      </trkpt>
      <trkpt lat="45.86081" lon="7.8521">
        <ele>2480.7</ele>
        <time>2000-01-01T19:19:08.000Z</time>
      </trkpt>
      <trkpt lat="45.86093" lon="7.85228">
        <ele>2471</ele>
        <time>2000-01-01T19:19:18.000Z</time>
      </trkpt>
      <trkpt lat="45.86099" lon="7.85262">
        <ele>2472</ele>
        <time>2000-01-01T19:19:28.000Z</time>
      </trkpt>
      <trkpt lat="45.86105" lon="7.85292">
        <ele>2472</ele>
        <time>2000-01-01T19:19:38.000Z</time>
      </trkpt>
      <trkpt lat="45.8611" lon="7.85307">
        <ele>2485.2</ele>
        <time>2000-01-01T19:19:48.000Z</time>
      </trkpt>
      <trkpt lat="45.86123" lon="7.85329">
        <ele>2472</ele>
        <time>2000-01-01T19:19:58.000Z</time>
      </trkpt>
      <trkpt lat="45.86131" lon="7.85345">
        <ele>2485.4</ele>
        <time>2000-01-01T19:20:08.000Z</time>
      </trkpt>
      <trkpt lat="45.86146" lon="7.85382">
        <ele>2472</ele>
        <time>2000-01-01T19:20:18.000Z</time>
      </trkpt>
      <trkpt lat="45.8615" lon="7.85401">
        <ele>2489.8</ele>
        <time>2000-01-01T19:20:28.000Z</time>
      </trkpt>
      <trkpt lat="45.86156" lon="7.85421">
        <ele>2472</ele>
        <time>2000-01-01T19:20:38.000Z</time>
      </trkpt>
      <trkpt lat="45.86173" lon="7.85448">
        <ele>2472</ele>
        <time>2000-01-01T19:20:48.000Z</time>
      </trkpt>
      <trkpt lat="45.86189" lon="7.85481">
        <ele>2475</ele>
        <time>2000-01-01T19:20:58.000Z</time>
      </trkpt>
      <trkpt lat="45.86199" lon="7.85495">
        <ele>2499.7</ele>
        <time>2000-01-01T19:21:08.000Z</time>
      </trkpt>
      <trkpt lat="45.86217" lon="7.85515">
        <ele>2478</ele>
        <time>2000-01-01T19:21:18.000Z</time>
      </trkpt>
      <trkpt lat="45.86224" lon="7.85531">
        <ele>2505.1</ele>
        <time>2000-01-01T19:21:28.000Z</time>
      </trkpt>
      <trkpt lat="45.86233" lon="7.8555">
        <ele>2480</ele>
        <time>2000-01-01T19:21:38.000Z</time>
      </trkpt>
      <trkpt lat="45.8624" lon="7.85559">
        <ele>2506.9</ele>
        <time>2000-01-01T19:21:48.000Z</time>
      </trkpt>
      <trkpt lat="45.86266" lon="7.85602">
        <ele>2488</ele>
        <time>2000-01-01T19:21:58.000Z</time>
      </trkpt>
      <trkpt lat="45.86274" lon="7.85613">
        <ele>2514</ele>
        <time>2000-01-01T19:22:08.000Z</time>
      </trkpt>
      <trkpt lat="45.86293" lon="7.8566">
        <ele>2500</ele>
        <time>2000-01-01T19:22:18.000Z</time>
      </trkpt>
      <trkpt lat="45.8631" lon="7.85693">
        <ele>2510</ele>
        <time>2000-01-01T19:22:28.000Z</time>
      </trkpt>
      <trkpt lat="45.86337" lon="7.85729">
        <ele>2524</ele>
        <time>2000-01-01T19:22:38.000Z</time>
      </trkpt>
      <trkpt lat="45.86352" lon="7.85739">
        <ele>2546</ele>
        <time>2000-01-01T19:22:48.000Z</time>
      </trkpt>
      <trkpt lat="45.86369" lon="7.85769">
        <ele>2540</ele>
        <time>2000-01-01T19:22:58.000Z</time>
      </trkpt>
      <trkpt lat="45.86374" lon="7.85785">
        <ele>2555.6</ele>
        <time>2000-01-01T19:23:08.000Z</time>
      </trkpt>
      <trkpt lat="45.86378" lon="7.85804">
        <ele>2550</ele>
        <time>2000-01-01T19:23:18.000Z</time>
      </trkpt>
      <trkpt lat="45.86385" lon="7.85822">
        <ele>2559.9</ele>
        <time>2000-01-01T19:23:28.000Z</time>
      </trkpt>
      <trkpt lat="45.86398" lon="7.85839">
        <ele>2557</ele>
        <time>2000-01-01T19:23:38.000Z</time>
      </trkpt>
      <trkpt lat="45.86399" lon="7.85856">
        <ele>2564.3</ele>
        <time>2000-01-01T19:23:48.000Z</time>
      </trkpt>
      <trkpt lat="45.86421" lon="7.85877">
        <ele>2567</ele>
        <time>2000-01-01T19:23:58.000Z</time>
      </trkpt>
      <trkpt lat="45.86431" lon="7.85885">
        <ele>2570.8</ele>
        <time>2000-01-01T19:24:08.000Z</time>
      </trkpt>
      <trkpt lat="45.86442" lon="7.85893">
        <ele>2572</ele>
        <time>2000-01-01T19:24:18.000Z</time>
      </trkpt>
      <trkpt lat="45.86458" lon="7.85901">
        <ele>2577.7</ele>
        <time>2000-01-01T19:24:28.000Z</time>
      </trkpt>
      <trkpt lat="45.86468" lon="7.85903">
        <ele>2576</ele>
        <time>2000-01-01T19:24:38.000Z</time>
      </trkpt>
      <trkpt lat="45.86483" lon="7.85908">
        <ele>2583.3</ele>
        <time>2000-01-01T19:24:48.000Z</time>
      </trkpt>
      <trkpt lat="45.86492" lon="7.8591">
        <ele>2583</ele>
        <time>2000-01-01T19:24:58.000Z</time>
      </trkpt>
      <trkpt lat="45.86502" lon="7.85906">
        <ele>2586.7</ele>
        <time>2000-01-01T19:25:08.000Z</time>
      </trkpt>
      <trkpt lat="45.86515" lon="7.85911">
        <ele>2588</ele>
        <time>2000-01-01T19:25:18.000Z</time>
      </trkpt>
      <trkpt lat="45.86527" lon="7.8591">
        <ele>2592.8</ele>
        <time>2000-01-01T19:25:28.000Z</time>
      </trkpt>
      <trkpt lat="45.86538" lon="7.85905">
        <ele>2593</ele>
        <time>2000-01-01T19:25:38.000Z</time>
      </trkpt>
      <trkpt lat="45.86553" lon="7.85879">
        <ele>2598</ele>
        <time>2000-01-01T19:25:48.000Z</time>
      </trkpt>
      <trkpt lat="45.86558" lon="7.85864">
        <ele>2602.7</ele>
        <time>2000-01-01T19:25:58.000Z</time>
      </trkpt>
      <trkpt lat="45.86566" lon="7.85852">
        <ele>2601</ele>
        <time>2000-01-01T19:26:08.000Z</time>
      </trkpt>
      <trkpt lat="45.86578" lon="7.85843">
        <ele>2609.9</ele>
        <time>2000-01-01T19:26:18.000Z</time>
      </trkpt>
      <trkpt lat="45.8659" lon="7.85836">
        <ele>2608</ele>
        <time>2000-01-01T19:26:28.000Z</time>
      </trkpt>
      <trkpt lat="45.86602" lon="7.85826">
        <ele>2618.1</ele>
        <time>2000-01-01T19:26:38.000Z</time>
      </trkpt>
      <trkpt lat="45.86622" lon="7.85805">
        <ele>2622</ele>
        <time>2000-01-01T19:26:48.000Z</time>
      </trkpt>
      <trkpt lat="45.86635" lon="7.85814">
        <ele>2628.4</ele>
        <time>2000-01-01T19:26:58.000Z</time>
      </trkpt>
      <trkpt lat="45.86646" lon="7.85844">
        <ele>2631</ele>
        <time>2000-01-01T19:27:08.000Z</time>
      </trkpt>
      <trkpt lat="45.86657" lon="7.85856">
        <ele>2637.5</ele>
        <time>2000-01-01T19:27:18.000Z</time>
      </trkpt>
      <trkpt lat="45.86666" lon="7.85862">
        <ele>2640</ele>
        <time>2000-01-01T19:27:28.000Z</time>
      </trkpt>
      <trkpt lat="45.86675" lon="7.85891">
        <ele>2645</ele>
        <time>2000-01-01T19:27:38.000Z</time>
      </trkpt>
      <trkpt lat="45.86679" lon="7.85908">
        <ele>2653</ele>
        <time>2000-01-01T19:27:48.000Z</time>
      </trkpt>
      <trkpt lat="45.86684" lon="7.85948">
        <ele>2652</ele>
        <time>2000-01-01T19:27:58.000Z</time>
      </trkpt>
      <trkpt lat="45.86694" lon="7.85965">
        <ele>2656.4</ele>
        <time>2000-01-01T19:28:08.000Z</time>
      </trkpt>
      <trkpt lat="45.86707" lon="7.85961">
        <ele>2661</ele>
        <time>2000-01-01T19:28:18.000Z</time>
      </trkpt>
      <trkpt lat="45.86718" lon="7.85948">
        <ele>2664.8</ele>
        <time>2000-01-01T19:28:28.000Z</time>
      </trkpt>
      <trkpt lat="45.86722" lon="7.85936">
        <ele>2664</ele>
        <time>2000-01-01T19:28:38.000Z</time>
      </trkpt>
      <trkpt lat="45.86729" lon="7.85903">
        <ele>2668</ele>
        <time>2000-01-01T19:28:48.000Z</time>
      </trkpt>
      <trkpt lat="45.86736" lon="7.85876">
        <ele>2669</ele>
        <time>2000-01-01T19:28:58.000Z</time>
      </trkpt>
      <trkpt lat="45.86745" lon="7.85865">
        <ele>2678</ele>
        <time>2000-01-01T19:29:08.000Z</time>
      </trkpt>
      <trkpt lat="45.86756" lon="7.85867">
        <ele>2672</ele>
        <time>2000-01-01T19:29:18.000Z</time>
      </trkpt>
      <trkpt lat="45.86772" lon="7.85878">
        <ele>2684.9</ele>
        <time>2000-01-01T19:29:28.000Z</time>
      </trkpt>
      <trkpt lat="45.8679" lon="7.85881">
        <ele>2683</ele>
        <time>2000-01-01T19:29:38.000Z</time>
      </trkpt>
      <trkpt lat="45.868" lon="7.8589">
        <ele>2694</ele>
        <time>2000-01-01T19:29:48.000Z</time>
      </trkpt>
      <trkpt lat="45.8681" lon="7.85906">
        <ele>2690</ele>
        <time>2000-01-01T19:29:58.000Z</time>
      </trkpt>
      <trkpt lat="45.86822" lon="7.85921">
        <ele>2703.5</ele>
        <time>2000-01-01T19:30:08.000Z</time>
      </trkpt>
      <trkpt lat="45.8683" lon="7.85932">
        <ele>2699</ele>
        <time>2000-01-01T19:30:18.000Z</time>
      </trkpt>
      <trkpt lat="45.86843" lon="7.85965">
        <ele>2704</ele>
        <time>2000-01-01T19:30:28.000Z</time>
      </trkpt>
      <trkpt lat="45.86855" lon="7.85971">
        <ele>2716.8</ele>
        <time>2000-01-01T19:30:38.000Z</time>
      </trkpt>
      <trkpt lat="45.86866" lon="7.8598">
        <ele>2710</ele>
        <time>2000-01-01T19:30:48.000Z</time>
      </trkpt>
      <trkpt lat="45.86877" lon="7.8598">
        <ele>2721.1</ele>
        <time>2000-01-01T19:30:58.000Z</time>
      </trkpt>
      <trkpt lat="45.86885" lon="7.86006">
        <ele>2715</ele>
        <time>2000-01-01T19:31:08.000Z</time>
      </trkpt>
      <trkpt lat="45.8689" lon="7.86025">
        <ele>2727.2</ele>
        <time>2000-01-01T19:31:18.000Z</time>
      </trkpt>
      <trkpt lat="45.86894" lon="7.8604">
        <ele>2720</ele>
        <time>2000-01-01T19:31:28.000Z</time>
      </trkpt>
      <trkpt lat="45.86904" lon="7.8605">
        <ele>2731.6</ele>
        <time>2000-01-01T19:31:38.000Z</time>
      </trkpt>
      <trkpt lat="45.86918" lon="7.86058">
        <ele>2726</ele>
        <time>2000-01-01T19:31:48.000Z</time>
      </trkpt>
      <trkpt lat="45.86929" lon="7.86063">
        <ele>2737.3</ele>
        <time>2000-01-01T19:31:58.000Z</time>
      </trkpt>
      <trkpt lat="45.86939" lon="7.86073">
        <ele>2733</ele>
        <time>2000-01-01T19:32:08.000Z</time>
      </trkpt>
      <trkpt lat="45.86957" lon="7.86096">
        <ele>2739</ele>
        <time>2000-01-01T19:32:18.000Z</time>
      </trkpt>
      <trkpt lat="45.86968" lon="7.86132">
        <ele>2747</ele>
        <time>2000-01-01T19:32:28.000Z</time>
      </trkpt>
      <trkpt lat="45.8697" lon="7.8615">
        <ele>2757.2</ele>
        <time>2000-01-01T19:32:38.000Z</time>
      </trkpt>
      <trkpt lat="45.86994" lon="7.86165">
        <ele>2756</ele>
        <time>2000-01-01T19:32:48.000Z</time>
      </trkpt>
      <trkpt lat="45.87006" lon="7.86176">
        <ele>2766.2</ele>
        <time>2000-01-01T19:32:58.000Z</time>
      </trkpt>
      <trkpt lat="45.87019" lon="7.8618">
        <ele>2761</ele>
        <time>2000-01-01T19:33:08.000Z</time>
      </trkpt>
      <trkpt lat="45.87033" lon="7.86178">
        <ele>2772.9</ele>
        <time>2000-01-01T19:33:18.000Z</time>
      </trkpt>
      <trkpt lat="45.87045" lon="7.86173">
        <ele>2764</ele>
        <time>2000-01-01T19:33:28.000Z</time>
      </trkpt>
      <trkpt lat="45.87058" lon="7.86167">
        <ele>2777.6</ele>
        <time>2000-01-01T19:33:38.000Z</time>
      </trkpt>
      <trkpt lat="45.87074" lon="7.86162">
        <ele>2764</ele>
        <time>2000-01-01T19:33:48.000Z</time>
      </trkpt>
      <trkpt lat="45.87114" lon="7.86164">
        <ele>2764</ele>
        <time>2000-01-01T19:33:58.000Z</time>
      </trkpt>
      <trkpt lat="45.87129" lon="7.8617">
        <ele>2788.8</ele>
        <time>2000-01-01T19:34:08.000Z</time>
      </trkpt>
      <trkpt lat="45.87137" lon="7.86179">
        <ele>2767</ele>
        <time>2000-01-01T19:34:18.000Z</time>
      </trkpt>
      <trkpt lat="45.87145" lon="7.86193">
        <ele>2792.3</ele>
        <time>2000-01-01T19:34:28.000Z</time>
      </trkpt>
      <trkpt lat="45.87156" lon="7.86207">
        <ele>2777</ele>
        <time>2000-01-01T19:34:38.000Z</time>
      </trkpt>
      <trkpt lat="45.87162" lon="7.86217">
        <ele>2797</ele>
        <time>2000-01-01T19:34:48.000Z</time>
      </trkpt>
      <trkpt lat="45.8717" lon="7.86225">
        <ele>2782</ele>
        <time>2000-01-01T19:34:58.000Z</time>
      </trkpt>
      <trkpt lat="45.87179" lon="7.86238">
        <ele>2801.7</ele>
        <time>2000-01-01T19:35:08.000Z</time>
      </trkpt>
      <trkpt lat="45.87193" lon="7.86248">
        <ele>2789</ele>
        <time>2000-01-01T19:35:18.000Z</time>
      </trkpt>
      <trkpt lat="45.8721" lon="7.86252">
        <ele>2805.9</ele>
        <time>2000-01-01T19:35:28.000Z</time>
      </trkpt>
      <trkpt lat="45.87222" lon="7.86257">
        <ele>2792</ele>
        <time>2000-01-01T19:35:38.000Z</time>
      </trkpt>
      <trkpt lat="45.87236" lon="7.86259">
        <ele>2810.7</ele>
        <time>2000-01-01T19:35:48.000Z</time>
      </trkpt>
      <trkpt lat="45.87261" lon="7.86257">
        <ele>2792</ele>
        <time>2000-01-01T19:35:58.000Z</time>
      </trkpt>
      <trkpt lat="45.87277" lon="7.86273">
        <ele>2799</ele>
        <time>2000-01-01T19:36:08.000Z</time>
      </trkpt>
      <trkpt lat="45.87288" lon="7.86284">
        <ele>2814.9</ele>
        <time>2000-01-01T19:36:18.000Z</time>
      </trkpt>
      <trkpt lat="45.87317" lon="7.8631">
        <ele>2814</ele>
        <time>2000-01-01T19:36:28.000Z</time>
      </trkpt>
      <trkpt lat="45.87337" lon="7.86335">
        <ele>2820</ele>
        <time>2000-01-01T19:36:38.000Z</time>
      </trkpt>
      <trkpt lat="45.87351" lon="7.86345">
        <ele>2826.7</ele>
        <time>2000-01-01T19:36:48.000Z</time>
      </trkpt>
      <trkpt lat="45.87373" lon="7.8633">
        <ele>2823</ele>
        <time>2000-01-01T19:36:58.000Z</time>
      </trkpt>
      <trkpt lat="45.87389" lon="7.86338">
        <ele>2834</ele>
        <time>2000-01-01T19:37:08.000Z</time>
      </trkpt>
      <trkpt lat="45.874" lon="7.86351">
        <ele>2829</ele>
        <time>2000-01-01T19:37:18.000Z</time>
      </trkpt>
      <trkpt lat="45.87405" lon="7.86363">
        <ele>2838.6</ele>
        <time>2000-01-01T19:37:28.000Z</time>
      </trkpt>
      <trkpt lat="45.8741" lon="7.86378">
        <ele>2833</ele>
        <time>2000-01-01T19:37:38.000Z</time>
      </trkpt>
      <trkpt lat="45.87407" lon="7.86405">
        <ele>2838</ele>
        <time>2000-01-01T19:37:48.000Z</time>
      </trkpt>
      <trkpt lat="45.87402" lon="7.8644">
        <ele>2843</ele>
        <time>2000-01-01T19:37:58.000Z</time>
      </trkpt>
      <trkpt lat="45.87411" lon="7.86453">
        <ele>2851.5</ele>
        <time>2000-01-01T19:38:08.000Z</time>
      </trkpt>
      <trkpt lat="45.87439" lon="7.86451">
        <ele>2851</ele>
        <time>2000-01-01T19:38:18.000Z</time>
      </trkpt>
      <trkpt lat="45.87452" lon="7.86446">
        <ele>2859.6</ele>
        <time>2000-01-01T19:38:28.000Z</time>
      </trkpt>
      <trkpt lat="45.8746" lon="7.86441">
        <ele>2855</ele>
        <time>2000-01-01T19:38:38.000Z</time>
      </trkpt>
      <trkpt lat="45.87469" lon="7.86443">
        <ele>2862.4</ele>
        <time>2000-01-01T19:38:48.000Z</time>
      </trkpt>
      <trkpt lat="45.87475" lon="7.86457">
        <ele>2862</ele>
        <time>2000-01-01T19:38:58.000Z</time>
      </trkpt>
      <trkpt lat="45.87479" lon="7.86484">
        <ele>2865</ele>
        <time>2000-01-01T19:39:08.000Z</time>
      </trkpt>
      <trkpt lat="45.8748" lon="7.86499">
        <ele>2870.7</ele>
        <time>2000-01-01T19:39:18.000Z</time>
      </trkpt>
      <trkpt lat="45.87485" lon="7.86518">
        <ele>2869</ele>
        <time>2000-01-01T19:39:28.000Z</time>
      </trkpt>
      <trkpt lat="45.87496" lon="7.86526">
        <ele>2875.1</ele>
        <time>2000-01-01T19:39:38.000Z</time>
      </trkpt>
      <trkpt lat="45.87509" lon="7.86528">
        <ele>2874</ele>
        <time>2000-01-01T19:39:48.000Z</time>
      </trkpt>
      <trkpt lat="45.87522" lon="7.86527">
        <ele>2882.3</ele>
        <time>2000-01-01T19:39:58.000Z</time>
      </trkpt>
      <trkpt lat="45.87536" lon="7.86525">
        <ele>2881</ele>
        <time>2000-01-01T19:40:08.000Z</time>
      </trkpt>
      <trkpt lat="45.87548" lon="7.86522">
        <ele>2888.9</ele>
        <time>2000-01-01T19:40:18.000Z</time>
      </trkpt>
      <trkpt lat="45.87569" lon="7.86521">
        <ele>2890</ele>
        <time>2000-01-01T19:40:28.000Z</time>
      </trkpt>
      <trkpt lat="45.87579" lon="7.8652">
        <ele>2898.6</ele>
        <time>2000-01-01T19:40:38.000Z</time>
      </trkpt>
      <trkpt lat="45.87592" lon="7.86528">
        <ele>2902</ele>
        <time>2000-01-01T19:40:48.000Z</time>
      </trkpt>
      <trkpt lat="45.87597" lon="7.86541">
        <ele>2907.2</ele>
        <time>2000-01-01T19:40:58.000Z</time>
      </trkpt>
      <trkpt lat="45.87605" lon="7.86598">
        <ele>2911</ele>
        <time>2000-01-01T19:41:08.000Z</time>
      </trkpt>
      <trkpt lat="45.87605" lon="7.86614">
        <ele>2914.1</ele>
        <time>2000-01-01T19:41:18.000Z</time>
      </trkpt>
      <trkpt lat="45.87607" lon="7.86632">
        <ele>2915</ele>
        <time>2000-01-01T19:41:28.000Z</time>
      </trkpt>
      <trkpt lat="45.87611" lon="7.86653">
        <ele>2925.5</ele>
        <time>2000-01-01T19:41:38.000Z</time>
      </trkpt>
      <trkpt lat="45.87607" lon="7.86677">
        <ele>2919</ele>
        <time>2000-01-01T19:41:48.000Z</time>
      </trkpt>
      <trkpt lat="45.87611" lon="7.86694">
        <ele>2935.9</ele>
        <time>2000-01-01T19:41:58.000Z</time>
      </trkpt>
      <trkpt lat="45.87612" lon="7.86712">
        <ele>2929</ele>
        <time>2000-01-01T19:42:08.000Z</time>
      </trkpt>
      <trkpt lat="45.87613" lon="7.86734">
        <ele>2945.4</ele>
        <time>2000-01-01T19:42:18.000Z</time>
      </trkpt>
      <trkpt lat="45.87611" lon="7.86763">
        <ele>2937</ele>
        <time>2000-01-01T19:42:28.000Z</time>
      </trkpt>
      <trkpt lat="45.87609" lon="7.86777">
        <ele>2951.2</ele>
        <time>2000-01-01T19:42:38.000Z</time>
      </trkpt>
      <trkpt lat="45.87611" lon="7.86796">
        <ele>2940</ele>
        <time>2000-01-01T19:42:48.000Z</time>
      </trkpt>
      <trkpt lat="45.8762" lon="7.86807">
        <ele>2955.6</ele>
        <time>2000-01-01T19:42:58.000Z</time>
      </trkpt>
      <trkpt lat="45.87634" lon="7.86803">
        <ele>2948</ele>
        <time>2000-01-01T19:43:08.000Z</time>
      </trkpt>
      <trkpt lat="45.87641" lon="7.86794">
        <ele>2959.8</ele>
        <time>2000-01-01T19:43:18.000Z</time>
      </trkpt>
      <trkpt lat="45.87647" lon="7.8678">
        <ele>2951</ele>
        <time>2000-01-01T19:43:28.000Z</time>
      </trkpt>
      <trkpt lat="45.87648" lon="7.86766">
        <ele>2959.4</ele>
        <time>2000-01-01T19:43:38.000Z</time>
      </trkpt>
      <trkpt lat="45.87644" lon="7.86788">
        <ele>2951</ele>
        <time>2000-01-01T19:43:48.000Z</time>
      </trkpt>
      <trkpt lat="45.87639" lon="7.86801">
        <ele>2959.2</ele>
        <time>2000-01-01T19:43:58.000Z</time>
      </trkpt>
      <trkpt lat="45.87621" lon="7.86822">
        <ele>2946</ele>
        <time>2000-01-01T19:44:08.000Z</time>
      </trkpt>
      <trkpt lat="45.87612" lon="7.86828">
        <ele>2954.1</ele>
        <time>2000-01-01T19:44:18.000Z</time>
      </trkpt>
      <trkpt lat="45.876" lon="7.86831">
        <ele>2942</ele>
        <time>2000-01-01T19:44:28.000Z</time>
      </trkpt>
      <trkpt lat="45.8759" lon="7.8684">
        <ele>2948.5</ele>
        <time>2000-01-01T19:44:38.000Z</time>
      </trkpt>
      <trkpt lat="45.87588" lon="7.86856">
        <ele>2938</ele>
        <time>2000-01-01T19:44:48.000Z</time>
      </trkpt>
      <trkpt lat="45.87581" lon="7.86879">
        <ele>2944</ele>
        <time>2000-01-01T19:44:58.000Z</time>
      </trkpt>
      <trkpt lat="45.87573" lon="7.86886">
        <ele>2936</ele>
        <time>2000-01-01T19:45:08.000Z</time>
      </trkpt>
      <trkpt lat="45.87561" lon="7.8689">
        <ele>2938.9</ele>
        <time>2000-01-01T19:45:18.000Z</time>
      </trkpt>
      <trkpt lat="45.87553" lon="7.86896">
        <ele>2935</ele>
        <time>2000-01-01T19:45:28.000Z</time>
      </trkpt>
      <trkpt lat="45.87541" lon="7.86906">
        <ele>2934.1</ele>
        <time>2000-01-01T19:45:38.000Z</time>
      </trkpt>
      <trkpt lat="45.87524" lon="7.86923">
        <ele>2935</ele>
        <time>2000-01-01T19:45:48.000Z</time>
      </trkpt>
      <trkpt lat="45.87511" lon="7.8694">
        <ele>2927.7</ele>
        <time>2000-01-01T19:45:58.000Z</time>
      </trkpt>
      <trkpt lat="45.87502" lon="7.86953">
        <ele>2936</ele>
        <time>2000-01-01T19:46:08.000Z</time>
      </trkpt>
      <trkpt lat="45.87496" lon="7.86968">
        <ele>2922.7</ele>
        <time>2000-01-01T19:46:18.000Z</time>
      </trkpt>
      <trkpt lat="45.87493" lon="7.86984">
        <ele>2936</ele>
        <time>2000-01-01T19:46:28.000Z</time>
      </trkpt>
      <trkpt lat="45.8749" lon="7.87006">
        <ele>2916.9</ele>
        <time>2000-01-01T19:46:38.000Z</time>
      </trkpt>
      <trkpt lat="45.87487" lon="7.87023">
        <ele>2932</ele>
        <time>2000-01-01T19:46:48.000Z</time>
      </trkpt>
      <trkpt lat="45.87487" lon="7.87042">
        <ele>2910.5</ele>
        <time>2000-01-01T19:46:58.000Z</time>
      </trkpt>
      <trkpt lat="45.87485" lon="7.87063">
        <ele>2927</ele>
        <time>2000-01-01T19:47:08.000Z</time>
      </trkpt>
      <trkpt lat="45.87479" lon="7.87079">
        <ele>2905.5</ele>
        <time>2000-01-01T19:47:18.000Z</time>
      </trkpt>
      <trkpt lat="45.87471" lon="7.87097">
        <ele>2925</ele>
        <time>2000-01-01T19:47:28.000Z</time>
      </trkpt>
      <trkpt lat="45.87467" lon="7.87124">
        <ele>2923</ele>
        <time>2000-01-01T19:47:38.000Z</time>
      </trkpt>
      <trkpt lat="45.87457" lon="7.87143">
        <ele>2905.4</ele>
        <time>2000-01-01T19:47:48.000Z</time>
      </trkpt>
      <trkpt lat="45.87451" lon="7.87154">
        <ele>2920</ele>
        <time>2000-01-01T19:47:58.000Z</time>
      </trkpt>
      <trkpt lat="45.87441" lon="7.87176">
        <ele>2902.2</ele>
        <time>2000-01-01T19:48:08.000Z</time>
      </trkpt>
      <trkpt lat="45.87428" lon="7.87194">
        <ele>2916</ele>
        <time>2000-01-01T19:48:18.000Z</time>
      </trkpt>
      <trkpt lat="45.87412" lon="7.87209">
        <ele>2915</ele>
        <time>2000-01-01T19:48:28.000Z</time>
      </trkpt>
      <trkpt lat="45.87385" lon="7.87213">
        <ele>2916</ele>
        <time>2000-01-01T19:48:38.000Z</time>
      </trkpt>
      <trkpt lat="45.87371" lon="7.87207">
        <ele>2899.7</ele>
        <time>2000-01-01T19:48:48.000Z</time>
      </trkpt>
      <trkpt lat="45.87352" lon="7.87207">
        <ele>2918</ele>
        <time>2000-01-01T19:48:58.000Z</time>
      </trkpt>
      <trkpt lat="45.87342" lon="7.87206">
        <ele>2894.6</ele>
        <time>2000-01-01T19:49:08.000Z</time>
      </trkpt>
      <trkpt lat="45.87333" lon="7.87206">
        <ele>2892.8</ele>
        <time>2000-01-01T19:49:18.000Z</time>
      </trkpt>
      <trkpt lat="45.87324" lon="7.87207">
        <ele>2918</ele>
        <time>2000-01-01T19:49:28.000Z</time>
      </trkpt>
      <trkpt lat="45.87313" lon="7.8721">
        <ele>2890.7</ele>
        <time>2000-01-01T19:49:38.000Z</time>
      </trkpt>
      <trkpt lat="45.87275" lon="7.87206">
        <ele>2916</ele>
        <time>2000-01-01T19:49:48.000Z</time>
      </trkpt>
      <trkpt lat="45.87257" lon="7.87208">
        <ele>2889.2</ele>
        <time>2000-01-01T19:49:58.000Z</time>
      </trkpt>
      <trkpt lat="45.87232" lon="7.87214">
        <ele>2906</ele>
        <time>2000-01-01T19:50:08.000Z</time>
      </trkpt>
      <trkpt lat="45.87218" lon="7.87221">
        <ele>2883</ele>
        <time>2000-01-01T19:50:18.000Z</time>
      </trkpt>
      <trkpt lat="45.87199" lon="7.87226">
        <ele>2896</ele>
        <time>2000-01-01T19:50:28.000Z</time>
      </trkpt>
      <trkpt lat="45.87178" lon="7.8724">
        <ele>2890</ele>
        <time>2000-01-01T19:50:38.000Z</time>
      </trkpt>
      <trkpt lat="45.87147" lon="7.87242">
        <ele>2885</ele>
        <time>2000-01-01T19:50:48.000Z</time>
      </trkpt>
      <trkpt lat="45.87128" lon="7.87247">
        <ele>2881</ele>
        <time>2000-01-01T19:50:58.000Z</time>
      </trkpt>
      <trkpt lat="45.87115" lon="7.87247">
        <ele>2869</ele>
        <time>2000-01-01T19:51:08.000Z</time>
      </trkpt>
      <trkpt lat="45.87093" lon="7.87242">
        <ele>2874</ele>
        <time>2000-01-01T19:51:18.000Z</time>
      </trkpt>
      <trkpt lat="45.87064" lon="7.8728">
        <ele>2859</ele>
        <time>2000-01-01T19:51:28.000Z</time>
      </trkpt>
      <trkpt lat="45.87048" lon="7.87273">
        <ele>2858.3</ele>
        <time>2000-01-01T19:51:38.000Z</time>
      </trkpt>
      <trkpt lat="45.87043" lon="7.87245">
        <ele>2855</ele>
        <time>2000-01-01T19:51:48.000Z</time>
      </trkpt>
      <trkpt lat="45.87039" lon="7.87232">
        <ele>2856.2</ele>
        <time>2000-01-01T19:51:58.000Z</time>
      </trkpt>
      <trkpt lat="45.87033" lon="7.87191">
        <ele>2852</ele>
        <time>2000-01-01T19:52:08.000Z</time>
      </trkpt>
      <trkpt lat="45.87028" lon="7.87178">
        <ele>2850.7</ele>
        <time>2000-01-01T19:52:18.000Z</time>
      </trkpt>
      <trkpt lat="45.87022" lon="7.87159">
        <ele>2848</ele>
        <time>2000-01-01T19:52:28.000Z</time>
      </trkpt>
      <trkpt lat="45.87015" lon="7.87144">
        <ele>2843.7</ele>
        <time>2000-01-01T19:52:38.000Z</time>
      </trkpt>
      <trkpt lat="45.87001" lon="7.87124">
        <ele>2838</ele>
        <time>2000-01-01T19:52:48.000Z</time>
      </trkpt>
      <trkpt lat="45.86986" lon="7.871">
        <ele>2832</ele>
        <time>2000-01-01T19:52:58.000Z</time>
      </trkpt>
      <trkpt lat="45.86976" lon="7.87088">
        <ele>2824.1</ele>
        <time>2000-01-01T19:53:08.000Z</time>
      </trkpt>
      <trkpt lat="45.86966" lon="7.87075">
        <ele>2827</ele>
        <time>2000-01-01T19:53:18.000Z</time>
      </trkpt>
      <trkpt lat="45.86955" lon="7.87073">
        <ele>2819.5</ele>
        <time>2000-01-01T19:53:28.000Z</time>
      </trkpt>
      <trkpt lat="45.86949" lon="7.87085">
        <ele>2818</ele>
        <time>2000-01-01T19:53:38.000Z</time>
      </trkpt>
      <trkpt lat="45.86937" lon="7.87074">
        <ele>2814.1</ele>
        <time>2000-01-01T19:53:48.000Z</time>
      </trkpt>
      <trkpt lat="45.86927" lon="7.87067">
        <ele>2816</ele>
        <time>2000-01-01T19:53:58.000Z</time>
      </trkpt>
      <trkpt lat="45.86915" lon="7.87071">
        <ele>2809.8</ele>
        <time>2000-01-01T19:54:08.000Z</time>
      </trkpt>
      <trkpt lat="45.86916" lon="7.87087">
        <ele>2808</ele>
        <time>2000-01-01T19:54:18.000Z</time>
      </trkpt>
      <trkpt lat="45.86922" lon="7.87098">
        <ele>2800.3</ele>
        <time>2000-01-01T19:54:28.000Z</time>
      </trkpt>
      <trkpt lat="45.8693" lon="7.87108">
        <ele>2806</ele>
        <time>2000-01-01T19:54:38.000Z</time>
      </trkpt>
      <trkpt lat="45.86917" lon="7.87114">
        <ele>2792.1</ele>
        <time>2000-01-01T19:54:48.000Z</time>
      </trkpt>
      <trkpt lat="45.86924" lon="7.87126">
        <ele>2801</ele>
        <time>2000-01-01T19:54:58.000Z</time>
      </trkpt>
      <trkpt lat="45.86923" lon="7.87146">
        <ele>2783.6</ele>
        <time>2000-01-01T19:55:08.000Z</time>
      </trkpt>
      <trkpt lat="45.86916" lon="7.87157">
        <ele>2790</ele>
        <time>2000-01-01T19:55:18.000Z</time>
      </trkpt>
      <trkpt lat="45.86914" lon="7.87171">
        <ele>2774.9</ele>
        <time>2000-01-01T19:55:28.000Z</time>
      </trkpt>
      <trkpt lat="45.86916" lon="7.87188">
        <ele>2783</ele>
        <time>2000-01-01T19:55:38.000Z</time>
      </trkpt>
      <trkpt lat="45.86913" lon="7.87211">
        <ele>2766.3</ele>
        <time>2000-01-01T19:55:48.000Z</time>
      </trkpt>
      <trkpt lat="45.86904" lon="7.87224">
        <ele>2771</ele>
        <time>2000-01-01T19:55:58.000Z</time>
      </trkpt>
      <trkpt lat="45.86894" lon="7.87223">
        <ele>2759.2</ele>
        <time>2000-01-01T19:56:08.000Z</time>
      </trkpt>
      <trkpt lat="45.86887" lon="7.87212">
        <ele>2763</ele>
        <time>2000-01-01T19:56:18.000Z</time>
      </trkpt>
      <trkpt lat="45.86877" lon="7.8721">
        <ele>2751.8</ele>
        <time>2000-01-01T19:56:28.000Z</time>
      </trkpt>
      <trkpt lat="45.86877" lon="7.87223">
        <ele>2756</ele>
        <time>2000-01-01T19:56:38.000Z</time>
      </trkpt>
      <trkpt lat="45.86877" lon="7.87239">
        <ele>2747.8</ele>
        <time>2000-01-01T19:56:48.000Z</time>
      </trkpt>
      <trkpt lat="45.86875" lon="7.87253">
        <ele>2750</ele>
        <time>2000-01-01T19:56:58.000Z</time>
      </trkpt>
      <trkpt lat="45.86875" lon="7.87287">
        <ele>2745</ele>
        <time>2000-01-01T19:57:08.000Z</time>
      </trkpt>
      <trkpt lat="45.8688" lon="7.8732">
        <ele>2738</ele>
        <time>2000-01-01T19:57:18.000Z</time>
      </trkpt>
      <trkpt lat="45.86874" lon="7.87336">
        <ele>2730.9</ele>
        <time>2000-01-01T19:57:28.000Z</time>
      </trkpt>
      <trkpt lat="45.86872" lon="7.87352">
        <ele>2733</ele>
        <time>2000-01-01T19:57:38.000Z</time>
      </trkpt>
      <trkpt lat="45.86854" lon="7.87328">
        <ele>2729</ele>
        <time>2000-01-01T19:57:48.000Z</time>
      </trkpt>
      <trkpt lat="45.86852" lon="7.87342">
        <ele>2716.9</ele>
        <time>2000-01-01T19:57:58.000Z</time>
      </trkpt>
      <trkpt lat="45.86842" lon="7.8734">
        <ele>2724</ele>
        <time>2000-01-01T19:58:08.000Z</time>
      </trkpt>
      <trkpt lat="45.8684" lon="7.87359">
        <ele>2706.3</ele>
        <time>2000-01-01T19:58:18.000Z</time>
      </trkpt>
      <trkpt lat="45.86839" lon="7.87382">
        <ele>2710</ele>
        <time>2000-01-01T19:58:28.000Z</time>
      </trkpt>
      <trkpt lat="45.86836" lon="7.87398">
        <ele>2696.6</ele>
        <time>2000-01-01T19:58:38.000Z</time>
      </trkpt>
      <trkpt lat="45.8683" lon="7.87418">
        <ele>2700</ele>
        <time>2000-01-01T19:58:48.000Z</time>
      </trkpt>
      <trkpt lat="45.86818" lon="7.87416">
        <ele>2687.6</ele>
        <time>2000-01-01T19:58:58.000Z</time>
      </trkpt>
      <trkpt lat="45.86811" lon="7.87427">
        <ele>2694</ele>
        <time>2000-01-01T19:59:08.000Z</time>
      </trkpt>
      <trkpt lat="45.86799" lon="7.87452">
        <ele>2678</ele>
        <time>2000-01-01T19:59:18.000Z</time>
      </trkpt>
      <trkpt lat="45.86789" lon="7.87457">
        <ele>2673.6</ele>
        <time>2000-01-01T19:59:28.000Z</time>
      </trkpt>
      <trkpt lat="45.86782" lon="7.87466">
        <ele>2674</ele>
        <time>2000-01-01T19:59:38.000Z</time>
      </trkpt>
      <trkpt lat="45.86774" lon="7.87479">
        <ele>2663</ele>
        <time>2000-01-01T19:59:48.000Z</time>
      </trkpt>
      <trkpt lat="45.86761" lon="7.87474">
        <ele>2666</ele>
        <time>2000-01-01T19:59:58.000Z</time>
      </trkpt>
      <trkpt lat="45.86748" lon="7.87464">
        <ele>2653.8</ele>
        <time>2000-01-01T20:00:08.000Z</time>
      </trkpt>
      <trkpt lat="45.86753" lon="7.87495">
        <ele>2658</ele>
        <time>2000-01-01T20:00:18.000Z</time>
      </trkpt>
      <trkpt lat="45.86749" lon="7.87515">
        <ele>2642.5</ele>
        <time>2000-01-01T20:00:28.000Z</time>
      </trkpt>
      <trkpt lat="45.86741" lon="7.87523">
        <ele>2647</ele>
        <time>2000-01-01T20:00:38.000Z</time>
      </trkpt>
      <trkpt lat="45.86728" lon="7.87521">
        <ele>2633.7</ele>
        <time>2000-01-01T20:00:48.000Z</time>
      </trkpt>
      <trkpt lat="45.86714" lon="7.87522">
        <ele>2637</ele>
        <time>2000-01-01T20:00:58.000Z</time>
      </trkpt>
      <trkpt lat="45.86705" lon="7.87528">
        <ele>2625</ele>
        <time>2000-01-01T20:01:08.000Z</time>
      </trkpt>
      <trkpt lat="45.86709" lon="7.87544">
        <ele>2629</ele>
        <time>2000-01-01T20:01:18.000Z</time>
      </trkpt>
      <trkpt lat="45.86712" lon="7.87559">
        <ele>2619.1</ele>
        <time>2000-01-01T20:01:28.000Z</time>
      </trkpt>
      <trkpt lat="45.86702" lon="7.87566">
        <ele>2624</ele>
        <time>2000-01-01T20:01:38.000Z</time>
      </trkpt>
      <trkpt lat="45.86712" lon="7.87583">
        <ele>2612.8</ele>
        <time>2000-01-01T20:01:48.000Z</time>
      </trkpt>
      <trkpt lat="45.86717" lon="7.876">
        <ele>2617</ele>
        <time>2000-01-01T20:01:58.000Z</time>
      </trkpt>
      <trkpt lat="45.86715" lon="7.87615">
        <ele>2604.3</ele>
        <time>2000-01-01T20:02:08.000Z</time>
      </trkpt>
      <trkpt lat="45.86706" lon="7.87633">
        <ele>2605</ele>
        <time>2000-01-01T20:02:18.000Z</time>
      </trkpt>
      <trkpt lat="45.86708" lon="7.87654">
        <ele>2593.4</ele>
        <time>2000-01-01T20:02:28.000Z</time>
      </trkpt>
      <trkpt lat="45.86708" lon="7.8768">
        <ele>2591</ele>
        <time>2000-01-01T20:02:38.000Z</time>
      </trkpt>
      <trkpt lat="45.86713" lon="7.87694">
        <ele>2587.8</ele>
        <time>2000-01-01T20:02:48.000Z</time>
      </trkpt>
      <trkpt lat="45.86712" lon="7.87713">
        <ele>2588</ele>
        <time>2000-01-01T20:02:58.000Z</time>
      </trkpt>
      <trkpt lat="45.86713" lon="7.87729">
        <ele>2581.8</ele>
        <time>2000-01-01T20:03:08.000Z</time>
      </trkpt>
      <trkpt lat="45.86711" lon="7.87743">
        <ele>2580</ele>
        <time>2000-01-01T20:03:18.000Z</time>
      </trkpt>
      <trkpt lat="45.86709" lon="7.87762">
        <ele>2573.5</ele>
        <time>2000-01-01T20:03:28.000Z</time>
      </trkpt>
      <trkpt lat="45.8671" lon="7.87781">
        <ele>2568</ele>
        <time>2000-01-01T20:03:38.000Z</time>
      </trkpt>
      <trkpt lat="45.86713" lon="7.87794">
        <ele>2569</ele>
        <time>2000-01-01T20:03:48.000Z</time>
      </trkpt>
      <trkpt lat="45.86717" lon="7.87805">
        <ele>2568.7</ele>
        <time>2000-01-01T20:03:58.000Z</time>
      </trkpt>
      <trkpt lat="45.86714" lon="7.87824">
        <ele>2555</ele>
        <time>2000-01-01T20:04:08.000Z</time>
      </trkpt>
      <trkpt lat="45.867" lon="7.87816">
        <ele>2556.9</ele>
        <time>2000-01-01T20:04:18.000Z</time>
      </trkpt>
      <trkpt lat="45.86689" lon="7.87807">
        <ele>2545</ele>
        <time>2000-01-01T20:04:28.000Z</time>
      </trkpt>
      <trkpt lat="45.86678" lon="7.87802">
        <ele>2550.9</ele>
        <time>2000-01-01T20:04:38.000Z</time>
      </trkpt>
      <trkpt lat="45.86664" lon="7.87799">
        <ele>2542</ele>
        <time>2000-01-01T20:04:48.000Z</time>
      </trkpt>
      <trkpt lat="45.8666" lon="7.87785">
        <ele>2544.8</ele>
        <time>2000-01-01T20:04:58.000Z</time>
      </trkpt>
      <trkpt lat="45.86658" lon="7.8777">
        <ele>2539</ele>
        <time>2000-01-01T20:05:08.000Z</time>
      </trkpt>
      <trkpt lat="45.86651" lon="7.87781">
        <ele>2540.8</ele>
        <time>2000-01-01T20:05:18.000Z</time>
      </trkpt>
      <trkpt lat="45.86645" lon="7.87792">
        <ele>2530</ele>
        <time>2000-01-01T20:05:28.000Z</time>
      </trkpt>
      <trkpt lat="45.86643" lon="7.87813">
        <ele>2533.9</ele>
        <time>2000-01-01T20:05:38.000Z</time>
      </trkpt>
      <trkpt lat="45.86636" lon="7.87826">
        <ele>2519</ele>
        <time>2000-01-01T20:05:48.000Z</time>
      </trkpt>
      <trkpt lat="45.86621" lon="7.87821">
        <ele>2523.6</ele>
        <time>2000-01-01T20:05:58.000Z</time>
      </trkpt>
      <trkpt lat="45.86609" lon="7.87813">
        <ele>2513</ele>
        <time>2000-01-01T20:06:08.000Z</time>
      </trkpt>
      <trkpt lat="45.86608" lon="7.87832">
        <ele>2515.9</ele>
        <time>2000-01-01T20:06:18.000Z</time>
      </trkpt>
      <trkpt lat="45.86606" lon="7.87848">
        <ele>2503</ele>
        <time>2000-01-01T20:06:28.000Z</time>
      </trkpt>
      <trkpt lat="45.86596" lon="7.87845">
        <ele>2508.1</ele>
        <time>2000-01-01T20:06:38.000Z</time>
      </trkpt>
      <trkpt lat="45.86597" lon="7.87862">
        <ele>2493</ele>
        <time>2000-01-01T20:06:48.000Z</time>
      </trkpt>
      <trkpt lat="45.86598" lon="7.8788">
        <ele>2500.5</ele>
        <time>2000-01-01T20:06:58.000Z</time>
      </trkpt>
      <trkpt lat="45.86603" lon="7.87894">
        <ele>2486</ele>
        <time>2000-01-01T20:07:08.000Z</time>
      </trkpt>
      <trkpt lat="45.86613" lon="7.87906">
        <ele>2497.1</ele>
        <time>2000-01-01T20:07:18.000Z</time>
      </trkpt>
      <trkpt lat="45.86624" lon="7.87917">
        <ele>2486</ele>
        <time>2000-01-01T20:07:28.000Z</time>
      </trkpt>
      <trkpt lat="45.86634" lon="7.8792">
        <ele>2490.4</ele>
        <time>2000-01-01T20:07:38.000Z</time>
      </trkpt>
      <trkpt lat="45.86644" lon="7.8793">
        <ele>2481</ele>
        <time>2000-01-01T20:07:48.000Z</time>
      </trkpt>
      <trkpt lat="45.86636" lon="7.87937">
        <ele>2482.2</ele>
        <time>2000-01-01T20:07:58.000Z</time>
      </trkpt>
      <trkpt lat="45.86623" lon="7.87942">
        <ele>2477</ele>
        <time>2000-01-01T20:08:08.000Z</time>
      </trkpt>
      <trkpt lat="45.86629" lon="7.87952">
        <ele>2474.9</ele>
        <time>2000-01-01T20:08:18.000Z</time>
      </trkpt>
      <trkpt lat="45.86635" lon="7.87966">
        <ele>2475</ele>
        <time>2000-01-01T20:08:28.000Z</time>
      </trkpt>
      <trkpt lat="45.86638" lon="7.87982">
        <ele>2468.2</ele>
        <time>2000-01-01T20:08:38.000Z</time>
      </trkpt>
      <trkpt lat="45.86634" lon="7.87996">
        <ele>2466</ele>
        <time>2000-01-01T20:08:48.000Z</time>
      </trkpt>
      <trkpt lat="45.8662" lon="7.8798">
        <ele>2462.3</ele>
        <time>2000-01-01T20:08:58.000Z</time>
      </trkpt>
      <trkpt lat="45.86604" lon="7.87975">
        <ele>2459</ele>
        <time>2000-01-01T20:09:08.000Z</time>
      </trkpt>
      <trkpt lat="45.86592" lon="7.87974">
        <ele>2455.1</ele>
        <time>2000-01-01T20:09:18.000Z</time>
      </trkpt>
      <trkpt lat="45.86581" lon="7.87977">
        <ele>2454</ele>
        <time>2000-01-01T20:09:28.000Z</time>
      </trkpt>
      <trkpt lat="45.86568" lon="7.87977">
        <ele>2450.2</ele>
        <time>2000-01-01T20:09:38.000Z</time>
      </trkpt>
      <trkpt lat="45.86557" lon="7.87999">
        <ele>2449</ele>
        <time>2000-01-01T20:09:48.000Z</time>
      </trkpt>
      <trkpt lat="45.86552" lon="7.88017">
        <ele>2437.3</ele>
        <time>2000-01-01T20:09:58.000Z</time>
      </trkpt>
      <trkpt lat="45.8655" lon="7.88031">
        <ele>2437</ele>
        <time>2000-01-01T20:10:08.000Z</time>
      </trkpt>
      <trkpt lat="45.86542" lon="7.88045">
        <ele>2431.2</ele>
        <time>2000-01-01T20:10:18.000Z</time>
      </trkpt>
      <trkpt lat="45.86538" lon="7.88062">
        <ele>2430</ele>
        <time>2000-01-01T20:10:28.000Z</time>
      </trkpt>
      <trkpt lat="45.86523" lon="7.88094">
        <ele>2421</ele>
        <time>2000-01-01T20:10:38.000Z</time>
      </trkpt>
      <trkpt lat="45.86518" lon="7.88109">
        <ele>2419.1</ele>
        <time>2000-01-01T20:10:48.000Z</time>
      </trkpt>
      <trkpt lat="45.86508" lon="7.88126">
        <ele>2415</ele>
        <time>2000-01-01T20:10:58.000Z</time>
      </trkpt>
      <trkpt lat="45.86494" lon="7.88147">
        <ele>2410</ele>
        <time>2000-01-01T20:11:08.000Z</time>
      </trkpt>
      <trkpt lat="45.86479" lon="7.8816">
        <ele>2408.2</ele>
        <time>2000-01-01T20:11:18.000Z</time>
      </trkpt>
      <trkpt lat="45.86469" lon="7.88171">
        <ele>2408</ele>
        <time>2000-01-01T20:11:28.000Z</time>
      </trkpt>
      <trkpt lat="45.86459" lon="7.88178">
        <ele>2403.1</ele>
        <time>2000-01-01T20:11:38.000Z</time>
      </trkpt>
      <trkpt lat="45.86444" lon="7.88181">
        <ele>2409</ele>
        <time>2000-01-01T20:11:48.000Z</time>
      </trkpt>
      <trkpt lat="45.86429" lon="7.88198">
        <ele>2411</ele>
        <time>2000-01-01T20:11:58.000Z</time>
      </trkpt>
      <trkpt lat="45.86415" lon="7.88208">
        <ele>2403.8</ele>
        <time>2000-01-01T20:12:08.000Z</time>
      </trkpt>
      <trkpt lat="45.86406" lon="7.88217">
        <ele>2412</ele>
        <time>2000-01-01T20:12:18.000Z</time>
      </trkpt>
      <trkpt lat="45.86397" lon="7.88226">
        <ele>2406.6</ele>
        <time>2000-01-01T20:12:28.000Z</time>
      </trkpt>
      <trkpt lat="45.86365" lon="7.88265">
        <ele>2416</ele>
        <time>2000-01-01T20:12:38.000Z</time>
      </trkpt>
      <trkpt lat="45.86349" lon="7.88279">
        <ele>2404</ele>
        <time>2000-01-01T20:12:48.000Z</time>
      </trkpt>
      <trkpt lat="45.8634" lon="7.8829">
        <ele>2415</ele>
        <time>2000-01-01T20:12:58.000Z</time>
      </trkpt>
      <trkpt lat="45.8632" lon="7.88331">
        <ele>2414</ele>
        <time>2000-01-01T20:13:08.000Z</time>
      </trkpt>
      <trkpt lat="45.86315" lon="7.88353">
        <ele>2400.8</ele>
        <time>2000-01-01T20:13:18.000Z</time>
      </trkpt>
      <trkpt lat="45.86314" lon="7.88368">
        <ele>2410</ele>
        <time>2000-01-01T20:13:28.000Z</time>
      </trkpt>
      <trkpt lat="45.86303" lon="7.8839">
        <ele>2409</ele>
        <time>2000-01-01T20:13:38.000Z</time>
      </trkpt>
      <trkpt lat="45.86301" lon="7.88406">
        <ele>2397.1</ele>
        <time>2000-01-01T20:13:48.000Z</time>
      </trkpt>
      <trkpt lat="45.86297" lon="7.88425">
        <ele>2406</ele>
        <time>2000-01-01T20:13:58.000Z</time>
      </trkpt>
      <trkpt lat="45.86292" lon="7.8844">
        <ele>2397.5</ele>
        <time>2000-01-01T20:14:08.000Z</time>
      </trkpt>
      <trkpt lat="45.86284" lon="7.88449">
        <ele>2406</ele>
        <time>2000-01-01T20:14:18.000Z</time>
      </trkpt>
      <trkpt lat="45.86275" lon="7.88469">
        <ele>2398</ele>
        <time>2000-01-01T20:14:28.000Z</time>
      </trkpt>
      <trkpt lat="45.86261" lon="7.88497">
        <ele>2403</ele>
        <time>2000-01-01T20:14:38.000Z</time>
      </trkpt>
      <trkpt lat="45.8625" lon="7.88512">
        <ele>2396.1</ele>
        <time>2000-01-01T20:14:48.000Z</time>
      </trkpt>
      <trkpt lat="45.86235" lon="7.88535">
        <ele>2401</ele>
        <time>2000-01-01T20:14:58.000Z</time>
      </trkpt>
      <trkpt lat="45.86226" lon="7.88548">
        <ele>2397</ele>
        <time>2000-01-01T20:15:08.000Z</time>
      </trkpt>
      <trkpt lat="45.86215" lon="7.8857">
        <ele>2400</ele>
        <time>2000-01-01T20:15:18.000Z</time>
      </trkpt>
      <trkpt lat="45.86198" lon="7.88602">
        <ele>2400</ele>
        <time>2000-01-01T20:15:28.000Z</time>
      </trkpt>
      <trkpt lat="45.86186" lon="7.88621">
        <ele>2395.4</ele>
        <time>2000-01-01T20:15:38.000Z</time>
      </trkpt>
      <trkpt lat="45.86178" lon="7.88631">
        <ele>2405</ele>
        <time>2000-01-01T20:15:48.000Z</time>
      </trkpt>
      <trkpt lat="45.86171" lon="7.88643">
        <ele>2397.5</ele>
        <time>2000-01-01T20:15:58.000Z</time>
      </trkpt>
      <trkpt lat="45.86159" lon="7.88688">
        <ele>2405</ele>
        <time>2000-01-01T20:16:08.000Z</time>
      </trkpt>
      <trkpt lat="45.8615" lon="7.88737">
        <ele>2406</ele>
        <time>2000-01-01T20:16:18.000Z</time>
      </trkpt>
      <trkpt lat="45.86143" lon="7.88751">
        <ele>2397</ele>
        <time>2000-01-01T20:16:28.000Z</time>
      </trkpt>
      <trkpt lat="45.86137" lon="7.88777">
        <ele>2415</ele>
        <time>2000-01-01T20:16:38.000Z</time>
      </trkpt>
      <trkpt lat="45.86135" lon="7.8879">
        <ele>2397.2</ele>
        <time>2000-01-01T20:16:48.000Z</time>
      </trkpt>
      <trkpt lat="45.8613" lon="7.88808">
        <ele>2412</ele>
        <time>2000-01-01T20:16:58.000Z</time>
      </trkpt>
      <trkpt lat="45.86126" lon="7.88829">
        <ele>2402.1</ele>
        <time>2000-01-01T20:17:08.000Z</time>
      </trkpt>
      <trkpt lat="45.86127" lon="7.88843">
        <ele>2411</ele>
        <time>2000-01-01T20:17:18.000Z</time>
      </trkpt>
      <trkpt lat="45.86121" lon="7.88858">
        <ele>2404.1</ele>
        <time>2000-01-01T20:17:28.000Z</time>
      </trkpt>
      <trkpt lat="45.86118" lon="7.88875">
        <ele>2411</ele>
        <time>2000-01-01T20:17:38.000Z</time>
      </trkpt>
      <trkpt lat="45.86116" lon="7.88908">
        <ele>2411</ele>
        <time>2000-01-01T20:17:48.000Z</time>
      </trkpt>
      <trkpt lat="45.86111" lon="7.88922">
        <ele>2409.8</ele>
        <time>2000-01-01T20:17:58.000Z</time>
      </trkpt>
      <trkpt lat="45.86101" lon="7.88927">
        <ele>2408</ele>
        <time>2000-01-01T20:18:08.000Z</time>
      </trkpt>
      <trkpt lat="45.86104" lon="7.88947">
        <ele>2412.5</ele>
        <time>2000-01-01T20:18:18.000Z</time>
      </trkpt>
      <trkpt lat="45.86109" lon="7.88966">
        <ele>2409</ele>
        <time>2000-01-01T20:18:28.000Z</time>
      </trkpt>
      <trkpt lat="45.86105" lon="7.8898">
        <ele>2412.7</ele>
        <time>2000-01-01T20:18:38.000Z</time>
      </trkpt>
      <trkpt lat="45.86098" lon="7.88993">
        <ele>2402</ele>
        <time>2000-01-01T20:18:48.000Z</time>
      </trkpt>
      <trkpt lat="45.86098" lon="7.89007">
        <ele>2423.4</ele>
        <time>2000-01-01T20:18:58.000Z</time>
      </trkpt>
      <trkpt lat="45.86103" lon="7.8902">
        <ele>2395</ele>
        <time>2000-01-01T20:19:08.000Z</time>
      </trkpt>
      <trkpt lat="45.86105" lon="7.89039">
        <ele>2420.2</ele>
        <time>2000-01-01T20:19:18.000Z</time>
      </trkpt>
      <trkpt lat="45.86103" lon="7.89069">
        <ele>2393</ele>
        <time>2000-01-01T20:19:28.000Z</time>
      </trkpt>
      <trkpt lat="45.86096" lon="7.89083">
        <ele>2420.5</ele>
        <time>2000-01-01T20:19:38.000Z</time>
      </trkpt>
      <trkpt lat="45.86091" lon="7.891">
        <ele>2394</ele>
        <time>2000-01-01T20:19:48.000Z</time>
      </trkpt>
      <trkpt lat="45.86088" lon="7.89115">
        <ele>2419.5</ele>
        <time>2000-01-01T20:19:58.000Z</time>
      </trkpt>
      <trkpt lat="45.86075" lon="7.89149">
        <ele>2395</ele>
        <time>2000-01-01T20:20:08.000Z</time>
      </trkpt>
      <trkpt lat="45.86061" lon="7.89166">
        <ele>2424.4</ele>
        <time>2000-01-01T20:20:18.000Z</time>
      </trkpt>
      <trkpt lat="45.86046" lon="7.89169">
        <ele>2415</ele>
        <time>2000-01-01T20:20:28.000Z</time>
      </trkpt>
      <trkpt lat="45.86028" lon="7.89175">
        <ele>2432.8</ele>
        <time>2000-01-01T20:20:38.000Z</time>
      </trkpt>
      <trkpt lat="45.8602" lon="7.89181">
        <ele>2419</ele>
        <time>2000-01-01T20:20:48.000Z</time>
      </trkpt>
      <trkpt lat="45.86013" lon="7.89193">
        <ele>2432.5</ele>
        <time>2000-01-01T20:20:58.000Z</time>
      </trkpt>
      <trkpt lat="45.86001" lon="7.89216">
        <ele>2423</ele>
        <time>2000-01-01T20:21:08.000Z</time>
      </trkpt>
      <trkpt lat="45.85996" lon="7.89229">
        <ele>2433.3</ele>
        <time>2000-01-01T20:21:18.000Z</time>
      </trkpt>
      <trkpt lat="45.85987" lon="7.89247">
        <ele>2424</ele>
        <time>2000-01-01T20:21:28.000Z</time>
      </trkpt>
      <trkpt lat="45.85978" lon="7.8927">
        <ele>2431</ele>
        <time>2000-01-01T20:21:38.000Z</time>
      </trkpt>
      <trkpt lat="45.85974" lon="7.89287">
        <ele>2423</ele>
        <time>2000-01-01T20:21:48.000Z</time>
      </trkpt>
      <trkpt lat="45.85972" lon="7.89306">
        <ele>2428.9</ele>
        <time>2000-01-01T20:21:58.000Z</time>
      </trkpt>
      <trkpt lat="45.85968" lon="7.89319">
        <ele>2423</ele>
        <time>2000-01-01T20:22:08.000Z</time>
      </trkpt>
      <trkpt lat="45.85955" lon="7.89316">
        <ele>2421.5</ele>
        <time>2000-01-01T20:22:18.000Z</time>
      </trkpt>
      <trkpt lat="45.8594" lon="7.89314">
        <ele>2423</ele>
        <time>2000-01-01T20:22:28.000Z</time>
      </trkpt>
      <trkpt lat="45.85927" lon="7.8932">
        <ele>2410.4</ele>
        <time>2000-01-01T20:22:38.000Z</time>
      </trkpt>
      <trkpt lat="45.85915" lon="7.89322">
        <ele>2423</ele>
        <time>2000-01-01T20:22:48.000Z</time>
      </trkpt>
      <trkpt lat="45.85904" lon="7.89316">
        <ele>2404.5</ele>
        <time>2000-01-01T20:22:58.000Z</time>
      </trkpt>
      <trkpt lat="45.85893" lon="7.89317">
        <ele>2419</ele>
        <time>2000-01-01T20:23:08.000Z</time>
      </trkpt>
      <trkpt lat="45.85883" lon="7.89322">
        <ele>2399.3</ele>
        <time>2000-01-01T20:23:18.000Z</time>
      </trkpt>
      <trkpt lat="45.85872" lon="7.89337">
        <ele>2415</ele>
        <time>2000-01-01T20:23:28.000Z</time>
      </trkpt>
      <trkpt lat="45.85862" lon="7.8937">
        <ele>2404</ele>
        <time>2000-01-01T20:23:38.000Z</time>
      </trkpt>
      <trkpt lat="45.85873" lon="7.89376">
        <ele>2384.2</ele>
        <time>2000-01-01T20:23:48.000Z</time>
      </trkpt>
      <trkpt lat="45.85878" lon="7.89391">
        <ele>2403</ele>
        <time>2000-01-01T20:23:58.000Z</time>
      </trkpt>
      <trkpt lat="45.85886" lon="7.89402">
        <ele>2375.3</ele>
        <time>2000-01-01T20:24:08.000Z</time>
      </trkpt>
      <trkpt lat="45.8588" lon="7.89417">
        <ele>2402</ele>
        <time>2000-01-01T20:24:18.000Z</time>
      </trkpt>
      <trkpt lat="45.85877" lon="7.89438">
        <ele>2369.5</ele>
        <time>2000-01-01T20:24:28.000Z</time>
      </trkpt>
      <trkpt lat="45.85872" lon="7.89459">
        <ele>2393</ele>
        <time>2000-01-01T20:24:38.000Z</time>
      </trkpt>
      <trkpt lat="45.85867" lon="7.89486">
        <ele>2384</ele>
        <time>2000-01-01T20:24:48.000Z</time>
      </trkpt>
      <trkpt lat="45.8586" lon="7.89496">
        <ele>2356.2</ele>
        <time>2000-01-01T20:24:58.000Z</time>
      </trkpt>
      <trkpt lat="45.85847" lon="7.895">
        <ele>2374</ele>
        <time>2000-01-01T20:25:08.000Z</time>
      </trkpt>
      <trkpt lat="45.85839" lon="7.89508">
        <ele>2353.4</ele>
        <time>2000-01-01T20:25:18.000Z</time>
      </trkpt>
      <trkpt lat="45.85836" lon="7.8952">
        <ele>2365</ele>
        <time>2000-01-01T20:25:28.000Z</time>
      </trkpt>
      <trkpt lat="45.85836" lon="7.89542">
        <ele>2349.8</ele>
        <time>2000-01-01T20:25:38.000Z</time>
      </trkpt>
      <trkpt lat="45.85848" lon="7.89588">
        <ele>2360</ele>
        <time>2000-01-01T20:25:48.000Z</time>
      </trkpt>
      <trkpt lat="45.85838" lon="7.89588">
        <ele>2341.1</ele>
        <time>2000-01-01T20:25:58.000Z</time>
      </trkpt>
      <trkpt lat="45.85829" lon="7.89582">
        <ele>2352</ele>
        <time>2000-01-01T20:26:08.000Z</time>
      </trkpt>
      <trkpt lat="45.85819" lon="7.89588">
        <ele>2336</ele>
        <time>2000-01-01T20:26:18.000Z</time>
      </trkpt>
      <trkpt lat="45.85808" lon="7.896">
        <ele>2346</ele>
        <time>2000-01-01T20:26:28.000Z</time>
      </trkpt>
      <trkpt lat="45.85799" lon="7.89607">
        <ele>2326.5</ele>
        <time>2000-01-01T20:26:38.000Z</time>
      </trkpt>
      <trkpt lat="45.85787" lon="7.89613">
        <ele>2337</ele>
        <time>2000-01-01T20:26:48.000Z</time>
      </trkpt>
      <trkpt lat="45.85781" lon="7.89631">
        <ele>2318.7</ele>
        <time>2000-01-01T20:26:58.000Z</time>
      </trkpt>
      <trkpt lat="45.85772" lon="7.89647">
        <ele>2329</ele>
        <time>2000-01-01T20:27:08.000Z</time>
      </trkpt>
      <trkpt lat="45.85763" lon="7.8966">
        <ele>2310.3</ele>
        <time>2000-01-01T20:27:18.000Z</time>
      </trkpt>
      <trkpt lat="45.85754" lon="7.89661">
        <ele>2321</ele>
        <time>2000-01-01T20:27:28.000Z</time>
      </trkpt>
      <trkpt lat="45.85744" lon="7.89672">
        <ele>2304.5</ele>
        <time>2000-01-01T20:27:38.000Z</time>
      </trkpt>
      <trkpt lat="45.85735" lon="7.89684">
        <ele>2314</ele>
        <time>2000-01-01T20:27:48.000Z</time>
      </trkpt>
      <trkpt lat="45.85724" lon="7.89693">
        <ele>2295.7</ele>
        <time>2000-01-01T20:27:58.000Z</time>
      </trkpt>
      <trkpt lat="45.85712" lon="7.89712">
        <ele>2305</ele>
        <time>2000-01-01T20:28:08.000Z</time>
      </trkpt>
      <trkpt lat="45.85704" lon="7.89723">
        <ele>2289.1</ele>
        <time>2000-01-01T20:28:18.000Z</time>
      </trkpt>
      <trkpt lat="45.85703" lon="7.89737">
        <ele>2301</ele>
        <time>2000-01-01T20:28:28.000Z</time>
      </trkpt>
      <trkpt lat="45.85693" lon="7.89747">
        <ele>2286.5</ele>
        <time>2000-01-01T20:28:38.000Z</time>
      </trkpt>
      <trkpt lat="45.85671" lon="7.89765">
        <ele>2289</ele>
        <time>2000-01-01T20:28:48.000Z</time>
      </trkpt>
      <trkpt lat="45.85661" lon="7.89776">
        <ele>2278</ele>
        <time>2000-01-01T20:28:58.000Z</time>
      </trkpt>
      <trkpt lat="45.85651" lon="7.8979">
        <ele>2280</ele>
        <time>2000-01-01T20:29:08.000Z</time>
      </trkpt>
      <trkpt lat="45.85643" lon="7.89803">
        <ele>2271.9</ele>
        <time>2000-01-01T20:29:18.000Z</time>
      </trkpt>
      <trkpt lat="45.85632" lon="7.89803">
        <ele>2271</ele>
        <time>2000-01-01T20:29:28.000Z</time>
      </trkpt>
      <trkpt lat="45.85618" lon="7.89806">
        <ele>2263.3</ele>
        <time>2000-01-01T20:29:38.000Z</time>
      </trkpt>
      <trkpt lat="45.85608" lon="7.8981">
        <ele>2261</ele>
        <time>2000-01-01T20:29:48.000Z</time>
      </trkpt>
      <trkpt lat="45.85596" lon="7.89816">
        <ele>2252</ele>
        <time>2000-01-01T20:29:58.000Z</time>
      </trkpt>
      <trkpt lat="45.85584" lon="7.89826">
        <ele>2250</ele>
        <time>2000-01-01T20:30:08.000Z</time>
      </trkpt>
      <trkpt lat="45.85577" lon="7.89838">
        <ele>2242.2</ele>
        <time>2000-01-01T20:30:18.000Z</time>
      </trkpt>
      <trkpt lat="45.85566" lon="7.8984">
        <ele>2241</ele>
        <time>2000-01-01T20:30:28.000Z</time>
      </trkpt>
      <trkpt lat="45.85554" lon="7.89837">
        <ele>2235</ele>
        <time>2000-01-01T20:30:38.000Z</time>
      </trkpt>
      <trkpt lat="45.85544" lon="7.89844">
        <ele>2232</ele>
        <time>2000-01-01T20:30:48.000Z</time>
      </trkpt>
      <trkpt lat="45.85536" lon="7.89858">
        <ele>2226.1</ele>
        <time>2000-01-01T20:30:58.000Z</time>
      </trkpt>
      <trkpt lat="45.8553" lon="7.89876">
        <ele>2220</ele>
        <time>2000-01-01T20:31:08.000Z</time>
      </trkpt>
      <trkpt lat="45.85534" lon="7.89893">
        <ele>2216.7</ele>
        <time>2000-01-01T20:31:18.000Z</time>
      </trkpt>
      <trkpt lat="45.85528" lon="7.89908">
        <ele>2213</ele>
        <time>2000-01-01T20:31:28.000Z</time>
      </trkpt>
      <trkpt lat="45.85522" lon="7.89926">
        <ele>2207</ele>
        <time>2000-01-01T20:31:38.000Z</time>
      </trkpt>
      <trkpt lat="45.85513" lon="7.89933">
        <ele>2204</ele>
        <time>2000-01-01T20:31:48.000Z</time>
      </trkpt>
      <trkpt lat="45.85507" lon="7.89942">
        <ele>2197.3</ele>
        <time>2000-01-01T20:31:58.000Z</time>
      </trkpt>
      <trkpt lat="45.85495" lon="7.89941">
        <ele>2193</ele>
        <time>2000-01-01T20:32:08.000Z</time>
      </trkpt>
      <trkpt lat="45.85474" lon="7.89947">
        <ele>2185</ele>
        <time>2000-01-01T20:32:18.000Z</time>
      </trkpt>
      <trkpt lat="45.85465" lon="7.89955">
        <ele>2180.7</ele>
        <time>2000-01-01T20:32:28.000Z</time>
      </trkpt>
      <trkpt lat="45.8546" lon="7.89969">
        <ele>2172</ele>
        <time>2000-01-01T20:32:38.000Z</time>
      </trkpt>
      <trkpt lat="45.85461" lon="7.89986">
        <ele>2171.5</ele>
        <time>2000-01-01T20:32:48.000Z</time>
      </trkpt>
      <trkpt lat="45.85461" lon="7.9">
        <ele>2171</ele>
        <time>2000-01-01T20:32:58.000Z</time>
      </trkpt>
      <trkpt lat="45.85456" lon="7.90015">
        <ele>2166</ele>
        <time>2000-01-01T20:33:08.000Z</time>
      </trkpt>
      <trkpt lat="45.85449" lon="7.90031">
        <ele>2158</ele>
        <time>2000-01-01T20:33:18.000Z</time>
      </trkpt>
      <trkpt lat="45.85446" lon="7.90045">
        <ele>2159.7</ele>
        <time>2000-01-01T20:33:28.000Z</time>
      </trkpt>
      <trkpt lat="45.85441" lon="7.9006">
        <ele>2158</ele>
        <time>2000-01-01T20:33:38.000Z</time>
      </trkpt>
      <trkpt lat="45.85433" lon="7.90076">
        <ele>2153.7</ele>
        <time>2000-01-01T20:33:48.000Z</time>
      </trkpt>
      <trkpt lat="45.85426" lon="7.90087">
        <ele>2147</ele>
        <time>2000-01-01T20:33:58.000Z</time>
      </trkpt>
      <trkpt lat="45.85422" lon="7.90099">
        <ele>2149.6</ele>
        <time>2000-01-01T20:34:08.000Z</time>
      </trkpt>
      <trkpt lat="45.85416" lon="7.90109">
        <ele>2146.6</ele>
        <time>2000-01-01T20:34:18.000Z</time>
      </trkpt>
      <trkpt lat="45.85406" lon="7.90117">
        <ele>2136</ele>
        <time>2000-01-01T20:34:28.000Z</time>
      </trkpt>
      <trkpt lat="45.85398" lon="7.90134">
        <ele>2136.7</ele>
        <time>2000-01-01T20:34:38.000Z</time>
      </trkpt>
      <trkpt lat="45.85384" lon="7.90156">
        <ele>2128</ele>
        <time>2000-01-01T20:34:48.000Z</time>
      </trkpt>
      <trkpt lat="45.85375" lon="7.90171">
        <ele>2126.6</ele>
        <time>2000-01-01T20:34:58.000Z</time>
      </trkpt>
      <trkpt lat="45.85369" lon="7.90185">
        <ele>2118</ele>
        <time>2000-01-01T20:35:08.000Z</time>
      </trkpt>
      <trkpt lat="45.85364" lon="7.90203">
        <ele>2121.9</ele>
        <time>2000-01-01T20:35:18.000Z</time>
      </trkpt>
      <trkpt lat="45.8535" lon="7.90208">
        <ele>2114</ele>
        <time>2000-01-01T20:35:28.000Z</time>
      </trkpt>
      <trkpt lat="45.85341" lon="7.9022">
        <ele>2115.5</ele>
        <time>2000-01-01T20:35:38.000Z</time>
      </trkpt>
      <trkpt lat="45.85331" lon="7.90238">
        <ele>2110</ele>
        <time>2000-01-01T20:35:48.000Z</time>
      </trkpt>
      <trkpt lat="45.85323" lon="7.90256">
        <ele>2115.5</ele>
        <time>2000-01-01T20:35:58.000Z</time>
      </trkpt>
      <trkpt lat="45.85314" lon="7.90263">
        <ele>2107</ele>
        <time>2000-01-01T20:36:08.000Z</time>
      </trkpt>
      <trkpt lat="45.85303" lon="7.90259">
        <ele>2106.3</ele>
        <time>2000-01-01T20:36:18.000Z</time>
      </trkpt>
      <trkpt lat="45.85271" lon="7.90266">
        <ele>2079</ele>
        <time>2000-01-01T20:36:28.000Z</time>
      </trkpt>
      <trkpt lat="45.85261" lon="7.90274">
        <ele>2098.2</ele>
        <time>2000-01-01T20:36:38.000Z</time>
      </trkpt>
      <trkpt lat="45.85238" lon="7.90274">
        <ele>2060</ele>
        <time>2000-01-01T20:36:48.000Z</time>
      </trkpt>
      <trkpt lat="45.85234" lon="7.90261">
        <ele>2081.2</ele>
        <time>2000-01-01T20:36:58.000Z</time>
      </trkpt>
      <trkpt lat="45.8524" lon="7.90243">
        <ele>2053</ele>
        <time>2000-01-01T20:37:08.000Z</time>
      </trkpt>
      <trkpt lat="45.85247" lon="7.90231">
        <ele>2072</ele>
        <time>2000-01-01T20:37:18.000Z</time>
      </trkpt>
      <trkpt lat="45.85258" lon="7.90222">
        <ele>2054</ele>
        <time>2000-01-01T20:37:28.000Z</time>
      </trkpt>
      <trkpt lat="45.85265" lon="7.90209">
        <ele>2064</ele>
        <time>2000-01-01T20:37:38.000Z</time>
      </trkpt>
      <trkpt lat="45.85275" lon="7.90204">
        <ele>2050</ele>
        <time>2000-01-01T20:37:48.000Z</time>
      </trkpt>
      <trkpt lat="45.85278" lon="7.90191">
        <ele>2057.8</ele>
        <time>2000-01-01T20:37:58.000Z</time>
      </trkpt>
      <trkpt lat="45.85269" lon="7.90191">
        <ele>2046</ele>
        <time>2000-01-01T20:38:08.000Z</time>
      </trkpt>
      <trkpt lat="45.85254" lon="7.90197">
        <ele>2052.9</ele>
        <time>2000-01-01T20:38:18.000Z</time>
      </trkpt>
      <trkpt lat="45.85245" lon="7.90199">
        <ele>2034</ele>
        <time>2000-01-01T20:38:28.000Z</time>
      </trkpt>
      <trkpt lat="45.85241" lon="7.90183">
        <ele>2040.7</ele>
        <time>2000-01-01T20:38:38.000Z</time>
      </trkpt>
      <trkpt lat="45.85247" lon="7.90171">
        <ele>2030</ele>
        <time>2000-01-01T20:38:48.000Z</time>
      </trkpt>
      <trkpt lat="45.85258" lon="7.90162">
        <ele>2037.2</ele>
        <time>2000-01-01T20:38:58.000Z</time>
      </trkpt>
      <trkpt lat="45.85247" lon="7.90156">
        <ele>2027</ele>
        <time>2000-01-01T20:39:08.000Z</time>
      </trkpt>
      <trkpt lat="45.85239" lon="7.90151">
        <ele>2024</ele>
        <time>2000-01-01T20:39:18.000Z</time>
      </trkpt>
      <trkpt lat="45.85237" lon="7.90137">
        <ele>2017.1</ele>
        <time>2000-01-01T20:39:28.000Z</time>
      </trkpt>
      <trkpt lat="45.85226" lon="7.90132">
        <ele>2012</ele>
        <time>2000-01-01T20:39:38.000Z</time>
      </trkpt>
      <trkpt lat="45.85218" lon="7.9012">
        <ele>2003.9</ele>
        <time>2000-01-01T20:39:48.000Z</time>
      </trkpt>
      <trkpt lat="45.85208" lon="7.90117">
        <ele>2004</ele>
        <time>2000-01-01T20:39:58.000Z</time>
      </trkpt>
      <trkpt lat="45.85208" lon="7.90098">
        <ele>1990.9</ele>
        <time>2000-01-01T20:40:08.000Z</time>
      </trkpt>
      <trkpt lat="45.85197" lon="7.90098">
        <ele>2004</ele>
        <time>2000-01-01T20:40:18.000Z</time>
      </trkpt>
      <trkpt lat="45.85188" lon="7.90105">
        <ele>1983.4</ele>
        <time>2000-01-01T20:40:28.000Z</time>
      </trkpt>
      <trkpt lat="45.85177" lon="7.9011">
        <ele>1995</ele>
        <time>2000-01-01T20:40:38.000Z</time>
      </trkpt>
      <trkpt lat="45.85167" lon="7.90108">
        <ele>1972.7</ele>
        <time>2000-01-01T20:40:48.000Z</time>
      </trkpt>
      <trkpt lat="45.85156" lon="7.90112">
        <ele>1985</ele>
        <time>2000-01-01T20:40:58.000Z</time>
      </trkpt>
      <trkpt lat="45.85145" lon="7.90117">
        <ele>1962.6</ele>
        <time>2000-01-01T20:41:08.000Z</time>
      </trkpt>
      <trkpt lat="45.85134" lon="7.90142">
        <ele>1974</ele>
        <time>2000-01-01T20:41:18.000Z</time>
      </trkpt>
      <trkpt lat="45.85123" lon="7.90153">
        <ele>1957.7</ele>
        <time>2000-01-01T20:41:28.000Z</time>
      </trkpt>
      <trkpt lat="45.85113" lon="7.90156">
        <ele>1966</ele>
        <time>2000-01-01T20:41:38.000Z</time>
      </trkpt>
      <trkpt lat="45.85103" lon="7.9016">
        <ele>1948.4</ele>
        <time>2000-01-01T20:41:48.000Z</time>
      </trkpt>
      <trkpt lat="45.85092" lon="7.90159">
        <ele>1957</ele>
        <time>2000-01-01T20:41:58.000Z</time>
      </trkpt>
      <trkpt lat="45.85085" lon="7.90167">
        <ele>1939.1</ele>
        <time>2000-01-01T20:42:08.000Z</time>
      </trkpt>
      <trkpt lat="45.8508" lon="7.90179">
        <ele>1946</ele>
        <time>2000-01-01T20:42:18.000Z</time>
      </trkpt>
      <trkpt lat="45.85066" lon="7.90176">
        <ele>1930.2</ele>
        <time>2000-01-01T20:42:28.000Z</time>
      </trkpt>
      <trkpt lat="45.85055" lon="7.90175">
        <ele>1939</ele>
        <time>2000-01-01T20:42:38.000Z</time>
      </trkpt>
      <trkpt lat="45.85044" lon="7.90176">
        <ele>1920.5</ele>
        <time>2000-01-01T20:42:48.000Z</time>
      </trkpt>
      <trkpt lat="45.85015" lon="7.90173">
        <ele>1924</ele>
        <time>2000-01-01T20:42:58.000Z</time>
      </trkpt>
      <trkpt lat="45.84991" lon="7.90163">
        <ele>1919</ele>
        <time>2000-01-01T20:43:08.000Z</time>
      </trkpt>
      <trkpt lat="45.84989" lon="7.90148">
        <ele>1897.4</ele>
        <time>2000-01-01T20:43:18.000Z</time>
      </trkpt>
      <trkpt lat="45.84978" lon="7.90149">
        <ele>1914</ele>
        <time>2000-01-01T20:43:28.000Z</time>
      </trkpt>
      <trkpt lat="45.84966" lon="7.90152">
        <ele>1889.9</ele>
        <time>2000-01-01T20:43:38.000Z</time>
      </trkpt>
      <trkpt lat="45.84952" lon="7.90151">
        <ele>1905</ele>
        <time>2000-01-01T20:43:48.000Z</time>
      </trkpt>
      <trkpt lat="45.84943" lon="7.90157">
        <ele>1882.2</ele>
        <time>2000-01-01T20:43:58.000Z</time>
      </trkpt>
      <trkpt lat="45.84928" lon="7.90158">
        <ele>1895</ele>
        <time>2000-01-01T20:44:08.000Z</time>
      </trkpt>
      <trkpt lat="45.84915" lon="7.90159">
        <ele>1874.1</ele>
        <time>2000-01-01T20:44:18.000Z</time>
      </trkpt>
      <trkpt lat="45.84906" lon="7.90165">
        <ele>1889</ele>
        <time>2000-01-01T20:44:28.000Z</time>
      </trkpt>
      <trkpt lat="45.84892" lon="7.90158">
        <ele>1869.3</ele>
        <time>2000-01-01T20:44:38.000Z</time>
      </trkpt>
      <trkpt lat="45.8488" lon="7.90159">
        <ele>1881</ele>
        <time>2000-01-01T20:44:48.000Z</time>
      </trkpt>
      <trkpt lat="45.84866" lon="7.90156">
        <ele>1864.6</ele>
        <time>2000-01-01T20:44:58.000Z</time>
      </trkpt>
      <trkpt lat="45.84855" lon="7.90153">
        <ele>1876</ele>
        <time>2000-01-01T20:45:08.000Z</time>
      </trkpt>
      <trkpt lat="45.84842" lon="7.90155">
        <ele>1860.2</ele>
        <time>2000-01-01T20:45:18.000Z</time>
      </trkpt>
      <trkpt lat="45.84829" lon="7.90162">
        <ele>1867</ele>
        <time>2000-01-01T20:45:28.000Z</time>
      </trkpt>
      <trkpt lat="45.84819" lon="7.90169">
        <ele>1854.9</ele>
        <time>2000-01-01T20:45:38.000Z</time>
      </trkpt>
      <trkpt lat="45.84806" lon="7.90178">
        <ele>1860</ele>
        <time>2000-01-01T20:45:48.000Z</time>
      </trkpt>
      <trkpt lat="45.84795" lon="7.90184">
        <ele>1851.1</ele>
        <time>2000-01-01T20:45:58.000Z</time>
      </trkpt>
      <trkpt lat="45.84784" lon="7.90189">
        <ele>1853</ele>
        <time>2000-01-01T20:46:08.000Z</time>
      </trkpt>
      <trkpt lat="45.84775" lon="7.90191">
        <ele>1848</ele>
        <time>2000-01-01T20:46:18.000Z</time>
      </trkpt>
      <trkpt lat="45.84763" lon="7.90189">
        <ele>1848</ele>
        <time>2000-01-01T20:46:28.000Z</time>
      </trkpt>
      <trkpt lat="45.84746" lon="7.90181">
        <ele>1844.9</ele>
        <time>2000-01-01T20:46:38.000Z</time>
      </trkpt>
      <trkpt lat="45.84738" lon="7.90175">
        <ele>1842</ele>
        <time>2000-01-01T20:46:48.000Z</time>
      </trkpt>
      <trkpt lat="45.84709" lon="7.90163">
        <ele>1836</ele>
        <time>2000-01-01T20:46:58.000Z</time>
      </trkpt>
      <trkpt lat="45.84689" lon="7.90165">
        <ele>1831</ele>
        <time>2000-01-01T20:47:08.000Z</time>
      </trkpt>
      <trkpt lat="45.84678" lon="7.90164">
        <ele>1837.6</ele>
        <time>2000-01-01T20:47:18.000Z</time>
      </trkpt>
      <trkpt lat="45.84652" lon="7.90164">
        <ele>1823</ele>
        <time>2000-01-01T20:47:28.000Z</time>
      </trkpt>
      <trkpt lat="45.84644" lon="7.90171">
        <ele>1831.4</ele>
        <time>2000-01-01T20:47:38.000Z</time>
      </trkpt>
      <trkpt lat="45.84636" lon="7.90187">
        <ele>1813</ele>
        <time>2000-01-01T20:47:48.000Z</time>
      </trkpt>
      <trkpt lat="45.84633" lon="7.90206">
        <ele>1833.6</ele>
        <time>2000-01-01T20:47:58.000Z</time>
      </trkpt>
      <trkpt lat="45.84625" lon="7.90215">
        <ele>1810</ele>
        <time>2000-01-01T20:48:08.000Z</time>
      </trkpt>
      <trkpt lat="45.84606" lon="7.90242">
        <ele>1810</ele>
        <time>2000-01-01T20:48:18.000Z</time>
      </trkpt>
      <trkpt lat="45.84592" lon="7.90254">
        <ele>1837</ele>
        <time>2000-01-01T20:48:28.000Z</time>
      </trkpt>
      <trkpt lat="45.84572" lon="7.90274">
        <ele>1812</ele>
        <time>2000-01-01T20:48:38.000Z</time>
      </trkpt>
      <trkpt lat="45.84558" lon="7.90292">
        <ele>1839.4</ele>
        <time>2000-01-01T20:48:48.000Z</time>
      </trkpt>
      <trkpt lat="45.84541" lon="7.90321">
        <ele>1825</ele>
        <time>2000-01-01T20:48:58.000Z</time>
      </trkpt>
      <trkpt lat="45.84534" lon="7.90352">
        <ele>1831</ele>
        <time>2000-01-01T20:49:08.000Z</time>
      </trkpt>
      <trkpt lat="45.84526" lon="7.90372">
        <ele>1836.3</ele>
        <time>2000-01-01T20:49:18.000Z</time>
      </trkpt>
      <trkpt lat="45.84518" lon="7.90386">
        <ele>1831</ele>
        <time>2000-01-01T20:49:28.000Z</time>
      </trkpt>
      <trkpt lat="45.84508" lon="7.90396">
        <ele>1831.5</ele>
        <time>2000-01-01T20:49:38.000Z</time>
      </trkpt>
      <trkpt lat="45.84479" lon="7.90421">
        <ele>1826</ele>
        <time>2000-01-01T20:49:48.000Z</time>
      </trkpt>
      <trkpt lat="45.84467" lon="7.90421">
        <ele>1823.6</ele>
        <time>2000-01-01T20:49:58.000Z</time>
      </trkpt>
      <trkpt lat="45.84453" lon="7.90422">
        <ele>1820</ele>
        <time>2000-01-01T20:50:08.000Z</time>
      </trkpt>
      <trkpt lat="45.84435" lon="7.90426">
        <ele>1822.2</ele>
        <time>2000-01-01T20:50:18.000Z</time>
      </trkpt>
      <trkpt lat="45.84414" lon="7.90438">
        <ele>1816</ele>
        <time>2000-01-01T20:50:28.000Z</time>
      </trkpt>
      <trkpt lat="45.84405" lon="7.90474">
        <ele>1816</ele>
        <time>2000-01-01T20:50:38.000Z</time>
      </trkpt>
      <trkpt lat="45.84405" lon="7.90489">
        <ele>1818.9</ele>
        <time>2000-01-01T20:50:48.000Z</time>
      </trkpt>
      <trkpt lat="45.84405" lon="7.90511">
        <ele>1817</ele>
        <time>2000-01-01T20:50:58.000Z</time>
      </trkpt>
      <trkpt lat="45.84402" lon="7.90527">
        <ele>1815.2</ele>
        <time>2000-01-01T20:51:08.000Z</time>
      </trkpt>
      <trkpt lat="45.84393" lon="7.90543">
        <ele>1817</ele>
        <time>2000-01-01T20:51:18.000Z</time>
      </trkpt>
      <trkpt lat="45.84388" lon="7.90558">
        <ele>1809.8</ele>
        <time>2000-01-01T20:51:28.000Z</time>
      </trkpt>
      <trkpt lat="45.84381" lon="7.90575">
        <ele>1814</ele>
        <time>2000-01-01T20:51:38.000Z</time>
      </trkpt>
      <trkpt lat="45.84373" lon="7.90602">
        <ele>1810</ele>
        <time>2000-01-01T20:51:48.000Z</time>
      </trkpt>
      <trkpt lat="45.84368" lon="7.90636">
        <ele>1805</ele>
        <time>2000-01-01T20:51:58.000Z</time>
      </trkpt>
      <trkpt lat="45.8436" lon="7.90672">
        <ele>1805</ele>
        <time>2000-01-01T20:52:08.000Z</time>
      </trkpt>
      <trkpt lat="45.84362" lon="7.90686">
        <ele>1800</ele>
        <time>2000-01-01T20:52:18.000Z</time>
      </trkpt>
      <trkpt lat="45.84363" lon="7.90702">
        <ele>1805</ele>
        <time>2000-01-01T20:52:28.000Z</time>
      </trkpt>
      <trkpt lat="45.84355" lon="7.90734">
        <ele>1798</ele>
        <time>2000-01-01T20:52:38.000Z</time>
      </trkpt>
      <trkpt lat="45.84352" lon="7.90757">
        <ele>1794.8</ele>
        <time>2000-01-01T20:52:48.000Z</time>
      </trkpt>
      <trkpt lat="45.84347" lon="7.90782">
        <ele>1790</ele>
        <time>2000-01-01T20:52:58.000Z</time>
      </trkpt>
      <trkpt lat="45.84342" lon="7.90795">
        <ele>1790.9</ele>
        <time>2000-01-01T20:53:08.000Z</time>
      </trkpt>
      <trkpt lat="45.84336" lon="7.90812">
        <ele>1783</ele>
        <time>2000-01-01T20:53:18.000Z</time>
      </trkpt>
      <trkpt lat="45.8433" lon="7.90838">
        <ele>1782</ele>
        <time>2000-01-01T20:53:28.000Z</time>
      </trkpt>
      <trkpt lat="45.84333" lon="7.90878">
        <ele>1780</ele>
        <time>2000-01-01T20:53:38.000Z</time>
      </trkpt>
      <trkpt lat="45.84334" lon="7.90898">
        <ele>1788.9</ele>
        <time>2000-01-01T20:53:48.000Z</time>
      </trkpt>
      <trkpt lat="45.84338" lon="7.9091">
        <ele>1778</ele>
        <time>2000-01-01T20:53:58.000Z</time>
      </trkpt>
      <trkpt lat="45.84336" lon="7.90947">
        <ele>1777</ele>
        <time>2000-01-01T20:54:08.000Z</time>
      </trkpt>
      <trkpt lat="45.84337" lon="7.9096">
        <ele>1783.9</ele>
        <time>2000-01-01T20:54:18.000Z</time>
      </trkpt>
      <trkpt lat="45.84332" lon="7.90976">
        <ele>1776</ele>
        <time>2000-01-01T20:54:28.000Z</time>
      </trkpt>
      <trkpt lat="45.84332" lon="7.90999">
        <ele>1779</ele>
        <time>2000-01-01T20:54:38.000Z</time>
      </trkpt>
      <trkpt lat="45.84333" lon="7.91012">
        <ele>1777</ele>
        <time>2000-01-01T20:54:48.000Z</time>
      </trkpt>
      <trkpt lat="45.84336" lon="7.91026">
        <ele>1781.1</ele>
        <time>2000-01-01T20:54:58.000Z</time>
      </trkpt>
      <trkpt lat="45.84341" lon="7.91041">
        <ele>1777</ele>
        <time>2000-01-01T20:55:08.000Z</time>
      </trkpt>
      <trkpt lat="45.84349" lon="7.91081">
        <ele>1778</ele>
        <time>2000-01-01T20:55:18.000Z</time>
      </trkpt>
      <trkpt lat="45.84356" lon="7.91107">
        <ele>1775</ele>
        <time>2000-01-01T20:55:28.000Z</time>
      </trkpt>
      <trkpt lat="45.84347" lon="7.91142">
        <ele>1772</ele>
        <time>2000-01-01T20:55:38.000Z</time>
      </trkpt>
      <trkpt lat="45.84343" lon="7.91175">
        <ele>1767</ele>
        <time>2000-01-01T20:55:48.000Z</time>
      </trkpt>
      <trkpt lat="45.84341" lon="7.91197">
        <ele>1766.1</ele>
        <time>2000-01-01T20:55:58.000Z</time>
      </trkpt>
      <trkpt lat="45.84343" lon="7.91238">
        <ele>1752</ele>
        <time>2000-01-01T20:56:08.000Z</time>
      </trkpt>
      <trkpt lat="45.8434" lon="7.91257">
        <ele>1755.6</ele>
        <time>2000-01-01T20:56:18.000Z</time>
      </trkpt>
      <trkpt lat="45.84345" lon="7.91276">
        <ele>1749</ele>
        <time>2000-01-01T20:56:28.000Z</time>
      </trkpt>
      <trkpt lat="45.84356" lon="7.91286">
        <ele>1748.3</ele>
        <time>2000-01-01T20:56:38.000Z</time>
      </trkpt>
      <trkpt lat="45.84364" lon="7.91288">
        <ele>1748</ele>
        <time>2000-01-01T20:56:48.000Z</time>
      </trkpt>
      <trkpt lat="45.84388" lon="7.91298">
        <ele>1748</ele>
        <time>2000-01-01T20:56:58.000Z</time>
      </trkpt>
      <trkpt lat="45.84399" lon="7.91305">
        <ele>1743.9</ele>
        <time>2000-01-01T20:57:08.000Z</time>
      </trkpt>
      <trkpt lat="45.84411" lon="7.91321">
        <ele>1745</ele>
        <time>2000-01-01T20:57:18.000Z</time>
      </trkpt>
      <trkpt lat="45.84417" lon="7.91337">
        <ele>1738.8</ele>
        <time>2000-01-01T20:57:28.000Z</time>
      </trkpt>
      <trkpt lat="45.84414" lon="7.91364">
        <ele>1743</ele>
        <time>2000-01-01T20:57:38.000Z</time>
      </trkpt>
      <trkpt lat="45.84398" lon="7.914">
        <ele>1737</ele>
        <time>2000-01-01T20:57:48.000Z</time>
      </trkpt>
      <trkpt lat="45.84403" lon="7.91429">
        <ele>1737</ele>
        <time>2000-01-01T20:57:58.000Z</time>
      </trkpt>
      <trkpt lat="45.84406" lon="7.91456">
        <ele>1736</ele>
        <time>2000-01-01T20:58:08.000Z</time>
      </trkpt>
      <trkpt lat="45.84417" lon="7.91481">
        <ele>1735</ele>
        <time>2000-01-01T20:58:18.000Z</time>
      </trkpt>
      <trkpt lat="45.84425" lon="7.91492">
        <ele>1735.4</ele>
        <time>2000-01-01T20:58:28.000Z</time>
      </trkpt>
      <trkpt lat="45.84431" lon="7.91502">
        <ele>1735</ele>
        <time>2000-01-01T20:58:38.000Z</time>
      </trkpt>
      <trkpt lat="45.84421" lon="7.91533">
        <ele>1732</ele>
        <time>2000-01-01T20:58:48.000Z</time>
      </trkpt>
      <trkpt lat="45.84408" lon="7.91549">
        <ele>1733.6</ele>
        <time>2000-01-01T20:58:58.000Z</time>
      </trkpt>
      <trkpt lat="45.84407" lon="7.91572">
        <ele>1728</ele>
        <time>2000-01-01T20:59:08.000Z</time>
      </trkpt>
      <trkpt lat="45.84407" lon="7.91597">
        <ele>1733.8</ele>
        <time>2000-01-01T20:59:18.000Z</time>
      </trkpt>
      <trkpt lat="45.84414" lon="7.9163">
        <ele>1725</ele>
        <time>2000-01-01T20:59:28.000Z</time>
      </trkpt>
      <trkpt lat="45.84424" lon="7.91655">
        <ele>1723</ele>
        <time>2000-01-01T20:59:38.000Z</time>
      </trkpt>
      <trkpt lat="45.84431" lon="7.91689">
        <ele>1721</ele>
        <time>2000-01-01T20:59:48.000Z</time>
      </trkpt>
      <trkpt lat="45.84439" lon="7.91713">
        <ele>1718</ele>
        <time>2000-01-01T20:59:58.000Z</time>
      </trkpt>
      <trkpt lat="45.84446" lon="7.91731">
        <ele>1722.7</ele>
        <time>2000-01-01T21:00:08.000Z</time>
      </trkpt>
      <trkpt lat="45.84455" lon="7.91756">
        <ele>1712</ele>
        <time>2000-01-01T21:00:18.000Z</time>
      </trkpt>
      <trkpt lat="45.84465" lon="7.91779">
        <ele>1710</ele>
        <time>2000-01-01T21:00:28.000Z</time>
      </trkpt>
      <trkpt lat="45.84479" lon="7.91814">
        <ele>1702</ele>
        <time>2000-01-01T21:00:38.000Z</time>
      </trkpt>
      <trkpt lat="45.84481" lon="7.91828">
        <ele>1711.9</ele>
        <time>2000-01-01T21:00:48.000Z</time>
      </trkpt>
      <trkpt lat="45.84479" lon="7.91844">
        <ele>1696</ele>
        <time>2000-01-01T21:00:58.000Z</time>
      </trkpt>
      <trkpt lat="45.84478" lon="7.91865">
        <ele>1706.4</ele>
        <time>2000-01-01T21:01:08.000Z</time>
      </trkpt>
      <trkpt lat="45.84479" lon="7.91893">
        <ele>1686</ele>
        <time>2000-01-01T21:01:18.000Z</time>
      </trkpt>
      <trkpt lat="45.84476" lon="7.91909">
        <ele>1699.5</ele>
        <time>2000-01-01T21:01:28.000Z</time>
      </trkpt>
      <trkpt lat="45.8446" lon="7.91899">
        <ele>1688</ele>
        <time>2000-01-01T21:01:38.000Z</time>
      </trkpt>
      <trkpt lat="45.84433" lon="7.91864">
        <ele>1690</ele>
        <time>2000-01-01T21:01:48.000Z</time>
      </trkpt>
      <trkpt lat="45.84418" lon="7.9185">
        <ele>1697.4</ele>
        <time>2000-01-01T21:01:58.000Z</time>
      </trkpt>
      <trkpt lat="45.844" lon="7.91842">
        <ele>1688</ele>
        <time>2000-01-01T21:02:08.000Z</time>
      </trkpt>
      <trkpt lat="45.844" lon="7.91862">
        <ele>1693.6</ele>
        <time>2000-01-01T21:02:18.000Z</time>
      </trkpt>
      <trkpt lat="45.84404" lon="7.91875">
        <ele>1687</ele>
        <time>2000-01-01T21:02:28.000Z</time>
      </trkpt>
      <trkpt lat="45.84424" lon="7.91894">
        <ele>1683</ele>
        <time>2000-01-01T21:02:38.000Z</time>
      </trkpt>
      <trkpt lat="45.84431" lon="7.91913">
        <ele>1687.3</ele>
        <time>2000-01-01T21:02:48.000Z</time>
      </trkpt>
      <trkpt lat="45.84432" lon="7.91928">
        <ele>1678</ele>
        <time>2000-01-01T21:02:58.000Z</time>
      </trkpt>
      <trkpt lat="45.84436" lon="7.9195">
        <ele>1682.7</ele>
        <time>2000-01-01T21:03:08.000Z</time>
      </trkpt>
      <trkpt lat="45.84442" lon="7.91964">
        <ele>1671</ele>
        <time>2000-01-01T21:03:18.000Z</time>
      </trkpt>
      <trkpt lat="45.84448" lon="7.91985">
        <ele>1681.4</ele>
        <time>2000-01-01T21:03:28.000Z</time>
      </trkpt>
      <trkpt lat="45.84451" lon="7.92006">
        <ele>1667</ele>
        <time>2000-01-01T21:03:38.000Z</time>
      </trkpt>
      <trkpt lat="45.84454" lon="7.92019">
        <ele>1677.5</ele>
        <time>2000-01-01T21:03:48.000Z</time>
      </trkpt>
      <trkpt lat="45.84461" lon="7.92043">
        <ele>1664</ele>
        <time>2000-01-01T21:03:58.000Z</time>
      </trkpt>
      <trkpt lat="45.84464" lon="7.92058">
        <ele>1674.9</ele>
        <time>2000-01-01T21:04:08.000Z</time>
      </trkpt>
      <trkpt lat="45.84464" lon="7.9208">
        <ele>1664</ele>
        <time>2000-01-01T21:04:18.000Z</time>
      </trkpt>
      <trkpt lat="45.8447" lon="7.92095">
        <ele>1671.3</ele>
        <time>2000-01-01T21:04:28.000Z</time>
      </trkpt>
      <trkpt lat="45.84472" lon="7.92137">
        <ele>1664</ele>
        <time>2000-01-01T21:04:38.000Z</time>
      </trkpt>
      <trkpt lat="45.84479" lon="7.92156">
        <ele>1665.4</ele>
        <time>2000-01-01T21:04:48.000Z</time>
      </trkpt>
      <trkpt lat="45.84482" lon="7.92172">
        <ele>1664</ele>
        <time>2000-01-01T21:04:58.000Z</time>
      </trkpt>
      <trkpt lat="45.84486" lon="7.92201">
        <ele>1661</ele>
        <time>2000-01-01T21:05:08.000Z</time>
      </trkpt>
      <trkpt lat="45.84483" lon="7.92247">
        <ele>1657</ele>
        <time>2000-01-01T21:05:18.000Z</time>
      </trkpt>
      <trkpt lat="45.84483" lon="7.92263">
        <ele>1655.3</ele>
        <time>2000-01-01T21:05:28.000Z</time>
      </trkpt>
      <trkpt lat="45.84477" lon="7.92279">
        <ele>1650</ele>
        <time>2000-01-01T21:05:38.000Z</time>
      </trkpt>
      <trkpt lat="45.84469" lon="7.92287">
        <ele>1648.6</ele>
        <time>2000-01-01T21:05:48.000Z</time>
      </trkpt>
      <trkpt lat="45.84467" lon="7.9231">
        <ele>1642</ele>
        <time>2000-01-01T21:05:58.000Z</time>
      </trkpt>
      <trkpt lat="45.84473" lon="7.92326">
        <ele>1637.6</ele>
        <time>2000-01-01T21:06:08.000Z</time>
      </trkpt>
      <trkpt lat="45.8448" lon="7.92342">
        <ele>1637</ele>
        <time>2000-01-01T21:06:18.000Z</time>
      </trkpt>
      <trkpt lat="45.84491" lon="7.92363">
        <ele>1633.8</ele>
        <time>2000-01-01T21:06:28.000Z</time>
      </trkpt>
      <trkpt lat="45.84496" lon="7.92378">
        <ele>1637</ele>
        <time>2000-01-01T21:06:38.000Z</time>
      </trkpt>
      <trkpt lat="45.84502" lon="7.92396">
        <ele>1629.3</ele>
        <time>2000-01-01T21:06:48.000Z</time>
      </trkpt>
      <trkpt lat="45.84504" lon="7.92414">
        <ele>1632</ele>
        <time>2000-01-01T21:06:58.000Z</time>
      </trkpt>
      <trkpt lat="45.8451" lon="7.92447">
        <ele>1630</ele>
        <time>2000-01-01T21:07:08.000Z</time>
      </trkpt>
      <trkpt lat="45.84517" lon="7.9246">
        <ele>1619.4</ele>
        <time>2000-01-01T21:07:18.000Z</time>
      </trkpt>
      <trkpt lat="45.84524" lon="7.9247">
        <ele>1630</ele>
        <time>2000-01-01T21:07:28.000Z</time>
      </trkpt>
      <trkpt lat="45.84532" lon="7.92478">
        <ele>1621.7</ele>
        <time>2000-01-01T21:07:38.000Z</time>
      </trkpt>
      <trkpt lat="45.84538" lon="7.92501">
        <ele>1625</ele>
        <time>2000-01-01T21:07:48.000Z</time>
      </trkpt>
      <trkpt lat="45.8455" lon="7.92563">
        <ele>1614</ele>
        <time>2000-01-01T21:07:58.000Z</time>
      </trkpt>
      <trkpt lat="45.84557" lon="7.92572">
        <ele>1610.5</ele>
        <time>2000-01-01T21:08:08.000Z</time>
      </trkpt>
      <trkpt lat="45.84563" lon="7.92584">
        <ele>1610</ele>
        <time>2000-01-01T21:08:18.000Z</time>
      </trkpt>
      <trkpt lat="45.84566" lon="7.92602">
        <ele>1602.9</ele>
        <time>2000-01-01T21:08:28.000Z</time>
      </trkpt>
      <trkpt lat="45.84556" lon="7.92592">
        <ele>1604</ele>
        <time>2000-01-01T21:08:38.000Z</time>
      </trkpt>
      <trkpt lat="45.84551" lon="7.92608">
        <ele>1594</ele>
        <time>2000-01-01T21:08:48.000Z</time>
      </trkpt>
      <trkpt lat="45.84545" lon="7.92618">
        <ele>1593</ele>
        <time>2000-01-01T21:08:58.000Z</time>
      </trkpt>
      <trkpt lat="45.84532" lon="7.92631">
        <ele>1582.8</ele>
        <time>2000-01-01T21:09:08.000Z</time>
      </trkpt>
      <trkpt lat="45.84513" lon="7.92645">
        <ele>1569</ele>
        <time>2000-01-01T21:09:18.000Z</time>
      </trkpt>
      <trkpt lat="45.84501" lon="7.92648">
        <ele>1573.4</ele>
        <time>2000-01-01T21:09:28.000Z</time>
      </trkpt>
      <trkpt lat="45.84491" lon="7.92634">
        <ele>1564</ele>
        <time>2000-01-01T21:09:38.000Z</time>
      </trkpt>
      <trkpt lat="45.84486" lon="7.92662">
        <ele>1549</ele>
        <time>2000-01-01T21:09:48.000Z</time>
      </trkpt>
      <trkpt lat="45.84485" lon="7.92678">
        <ele>1554.2</ele>
        <time>2000-01-01T21:09:58.000Z</time>
      </trkpt>
      <trkpt lat="45.84491" lon="7.92689">
        <ele>1544</ele>
        <time>2000-01-01T21:10:08.000Z</time>
      </trkpt>
      <trkpt lat="45.8449" lon="7.92703">
        <ele>1544.5</ele>
        <time>2000-01-01T21:10:18.000Z</time>
      </trkpt>
      <trkpt lat="45.84491" lon="7.9272">
        <ele>1531</ele>
        <time>2000-01-01T21:10:28.000Z</time>
      </trkpt>
      <trkpt lat="45.84487" lon="7.92734">
        <ele>1529.8</ele>
        <time>2000-01-01T21:10:38.000Z</time>
      </trkpt>
      <trkpt lat="45.84494" lon="7.92746">
        <ele>1517</ele>
        <time>2000-01-01T21:10:48.000Z</time>
      </trkpt>
      <trkpt lat="45.845" lon="7.92759">
        <ele>1517.8</ele>
        <time>2000-01-01T21:10:58.000Z</time>
      </trkpt>
      <trkpt lat="45.84494" lon="7.9277">
        <ele>1509</ele>
        <time>2000-01-01T21:11:08.000Z</time>
      </trkpt>
      <trkpt lat="45.84488" lon="7.92785">
        <ele>1506.8</ele>
        <time>2000-01-01T21:11:18.000Z</time>
      </trkpt>
      <trkpt lat="45.84484" lon="7.92799">
        <ele>1492</ele>
        <time>2000-01-01T21:11:28.000Z</time>
      </trkpt>
      <trkpt lat="45.84485" lon="7.92839">
        <ele>1475</ele>
        <time>2000-01-01T21:11:38.000Z</time>
      </trkpt>
      <trkpt lat="45.84489" lon="7.92857">
        <ele>1482.2</ele>
        <time>2000-01-01T21:11:48.000Z</time>
      </trkpt>
      <trkpt lat="45.84499" lon="7.92872">
        <ele>1462</ele>
        <time>2000-01-01T21:11:58.000Z</time>
      </trkpt>
      <trkpt lat="45.84493" lon="7.92884">
        <ele>1473.5</ele>
        <time>2000-01-01T21:12:08.000Z</time>
      </trkpt>
      <trkpt lat="45.845" lon="7.92892">
        <ele>1457</ele>
        <time>2000-01-01T21:12:18.000Z</time>
      </trkpt>
      <trkpt lat="45.84493" lon="7.92907">
        <ele>1465.6</ele>
        <time>2000-01-01T21:12:28.000Z</time>
      </trkpt>
      <trkpt lat="45.84485" lon="7.92921">
        <ele>1438</ele>
        <time>2000-01-01T21:12:38.000Z</time>
      </trkpt>
      <trkpt lat="45.84493" lon="7.92932">
        <ele>1455.5</ele>
        <time>2000-01-01T21:12:48.000Z</time>
      </trkpt>
      <trkpt lat="45.8449" lon="7.92948">
        <ele>1430</ele>
        <time>2000-01-01T21:12:58.000Z</time>
      </trkpt>
      <trkpt lat="45.84496" lon="7.92966">
        <ele>1443.2</ele>
        <time>2000-01-01T21:13:08.000Z</time>
      </trkpt>
      <trkpt lat="45.84507" lon="7.92976">
        <ele>1426</ele>
        <time>2000-01-01T21:13:18.000Z</time>
      </trkpt>
      <trkpt lat="45.84511" lon="7.92991">
        <ele>1433.2</ele>
        <time>2000-01-01T21:13:28.000Z</time>
      </trkpt>
      <trkpt lat="45.84509" lon="7.9303">
        <ele>1425</ele>
        <time>2000-01-01T21:13:38.000Z</time>
      </trkpt>
      <trkpt lat="45.8452" lon="7.93031">
        <ele>1421.6</ele>
        <time>2000-01-01T21:13:48.000Z</time>
      </trkpt>
      <trkpt lat="45.84531" lon="7.9302">
        <ele>1424</ele>
        <time>2000-01-01T21:13:58.000Z</time>
      </trkpt>
      <trkpt lat="45.84543" lon="7.93029">
        <ele>1408.7</ele>
        <time>2000-01-01T21:14:08.000Z</time>
      </trkpt>
      <trkpt lat="45.84545" lon="7.9305">
        <ele>1410</ele>
        <time>2000-01-01T21:14:18.000Z</time>
      </trkpt>
      <trkpt lat="45.8455" lon="7.93062">
        <ele>1397.9</ele>
        <time>2000-01-01T21:14:28.000Z</time>
      </trkpt>
      <trkpt lat="45.8456" lon="7.93072">
        <ele>1403</ele>
        <time>2000-01-01T21:14:38.000Z</time>
      </trkpt>
      <trkpt lat="45.84567" lon="7.93087">
        <ele>1382.5</ele>
        <time>2000-01-01T21:14:48.000Z</time>
      </trkpt>
      <trkpt lat="45.84569" lon="7.93103">
        <ele>1392</ele>
        <time>2000-01-01T21:14:58.000Z</time>
      </trkpt>
      <trkpt lat="45.84577" lon="7.93112">
        <ele>1372</ele>
        <time>2000-01-01T21:15:08.000Z</time>
      </trkpt>
      <trkpt lat="45.84573" lon="7.9316">
        <ele>1371</ele>
        <time>2000-01-01T21:15:18.000Z</time>
      </trkpt>
      <trkpt lat="45.84581" lon="7.93168">
        <ele>1357</ele>
        <time>2000-01-01T21:15:28.000Z</time>
      </trkpt>
      <trkpt lat="45.84593" lon="7.93214">
        <ele>1360</ele>
        <time>2000-01-01T21:15:38.000Z</time>
      </trkpt>
      <trkpt lat="45.84593" lon="7.93229">
        <ele>1335.4</ele>
        <time>2000-01-01T21:15:48.000Z</time>
      </trkpt>
      <trkpt lat="45.84609" lon="7.93256">
        <ele>1349</ele>
        <time>2000-01-01T21:15:58.000Z</time>
      </trkpt>
      <trkpt lat="45.84624" lon="7.93266">
        <ele>1324.8</ele>
        <time>2000-01-01T21:16:08.000Z</time>
      </trkpt>
      <trkpt lat="45.84638" lon="7.93295">
        <ele>1335</ele>
        <time>2000-01-01T21:16:18.000Z</time>
      </trkpt>
      <trkpt lat="45.84651" lon="7.93296">
        <ele>1315.2</ele>
        <time>2000-01-01T21:16:28.000Z</time>
      </trkpt>
      <trkpt lat="45.84663" lon="7.93303">
        <ele>1329</ele>
        <time>2000-01-01T21:16:38.000Z</time>
      </trkpt>
      <trkpt lat="45.84667" lon="7.93316">
        <ele>1307.4</ele>
        <time>2000-01-01T21:16:48.000Z</time>
      </trkpt>
      <trkpt lat="45.8467" lon="7.93329">
        <ele>1322</ele>
        <time>2000-01-01T21:16:58.000Z</time>
      </trkpt>
      <trkpt lat="45.84677" lon="7.93344">
        <ele>1301.9</ele>
        <time>2000-01-01T21:17:08.000Z</time>
      </trkpt>
      <trkpt lat="45.84691" lon="7.93359">
        <ele>1307</ele>
        <time>2000-01-01T21:17:18.000Z</time>
      </trkpt>
      <trkpt lat="45.84701" lon="7.93365">
        <ele>1301.5</ele>
        <time>2000-01-01T21:17:28.000Z</time>
      </trkpt>
      <trkpt lat="45.84722" lon="7.9337">
        <ele>1290</ele>
        <time>2000-01-01T21:17:38.000Z</time>
      </trkpt>
      <trkpt lat="45.84732" lon="7.93373">
        <ele>1296.5</ele>
        <time>2000-01-01T21:17:48.000Z</time>
      </trkpt>
      <trkpt lat="45.84755" lon="7.93371">
        <ele>1277</ele>
        <time>2000-01-01T21:17:58.000Z</time>
      </trkpt>
      <trkpt lat="45.84765" lon="7.93371">
        <ele>1290.6</ele>
        <time>2000-01-01T21:18:08.000Z</time>
      </trkpt>
      <trkpt lat="45.84775" lon="7.93368">
        <ele>1272</ele>
        <time>2000-01-01T21:18:18.000Z</time>
      </trkpt>
      <trkpt lat="45.84786" lon="7.93367">
        <ele>1284.6</ele>
        <time>2000-01-01T21:18:28.000Z</time>
      </trkpt>
      <trkpt lat="45.84797" lon="7.93364">
        <ele>1263</ele>
        <time>2000-01-01T21:18:38.000Z</time>
      </trkpt>
      <trkpt lat="45.84808" lon="7.93365">
        <ele>1276.4</ele>
        <time>2000-01-01T21:18:48.000Z</time>
      </trkpt>
      <trkpt lat="45.84818" lon="7.93363">
        <ele>1256</ele>
        <time>2000-01-01T21:18:58.000Z</time>
      </trkpt>
      <trkpt lat="45.84823" lon="7.93351">
        <ele>1273.8</ele>
        <time>2000-01-01T21:19:08.000Z</time>
      </trkpt>
      <trkpt lat="45.84831" lon="7.93362">
        <ele>1250</ele>
        <time>2000-01-01T21:19:18.000Z</time>
      </trkpt>
      <trkpt lat="45.84834" lon="7.93376">
        <ele>1253.3</ele>
        <time>2000-01-01T21:19:28.000Z</time>
      </trkpt>
      <trkpt lat="45.84848" lon="7.93384">
        <ele>1238</ele>
        <time>2000-01-01T21:19:38.000Z</time>
      </trkpt>
      <trkpt lat="45.84852" lon="7.93389">
        <ele>1240.9</ele>
        <time>2000-01-01T21:19:48.000Z</time>
      </trkpt>
      <trkpt lat="45.84854" lon="7.93395">
        <ele>1237</ele>
        <time>2000-01-01T21:19:58.000Z</time>
      </trkpt>
      <trkpt lat="45.84863" lon="7.93401">
        <ele>1222</ele>
        <time>2000-01-01T21:20:08.000Z</time>
      </trkpt>
      <trkpt lat="45.84866" lon="7.93405">
        <ele>1228.5</ele>
        <time>2000-01-01T21:20:18.000Z</time>
      </trkpt>
      <trkpt lat="45.84862" lon="7.93409">
        <ele>1227.6</ele>
        <time>2000-01-01T21:20:28.000Z</time>
      </trkpt>
      <trkpt lat="45.84863" lon="7.93414">
        <ele>1224.8</ele>
        <time>2000-01-01T21:20:38.000Z</time>
      </trkpt>
      <trkpt lat="45.84864" lon="7.93414">
        <ele>1224.5</ele>
        <time>2000-01-01T21:20:48.000Z</time>
      </trkpt>
      <trkpt lat="45.84887" lon="7.93415">
        <ele>1213</ele>
        <time>2000-01-01T21:20:58.000Z</time>
      </trkpt>
      <trkpt lat="45.84896" lon="7.9341">
        <ele>1219.7</ele>
        <time>2000-01-01T21:21:08.000Z</time>
      </trkpt>
      <trkpt lat="45.84913" lon="7.93409">
        <ele>1213</ele>
        <time>2000-01-01T21:21:18.000Z</time>
      </trkpt>
      <trkpt lat="45.84926" lon="7.93416">
        <ele>1217.7</ele>
        <time>2000-01-01T21:21:28.000Z</time>
      </trkpt>
      <trkpt lat="45.84932" lon="7.93417">
        <ele>1205</ele>
        <time>2000-01-01T21:21:38.000Z</time>
      </trkpt>
      <trkpt lat="45.84947" lon="7.93425">
        <ele>1213.8</ele>
        <time>2000-01-01T21:21:48.000Z</time>
      </trkpt>
      <trkpt lat="45.84966" lon="7.93415">
        <ele>1201</ele>
        <time>2000-01-01T21:21:58.000Z</time>
      </trkpt>
      <trkpt lat="45.84979" lon="7.93412">
        <ele>1220.4</ele>
        <time>2000-01-01T21:22:08.000Z</time>
      </trkpt>
      <trkpt lat="45.85011" lon="7.93429">
        <ele>1197</ele>
        <time>2000-01-01T21:22:18.000Z</time>
      </trkpt>
      <trkpt lat="45.85018" lon="7.93432">
        <ele>1208.7</ele>
        <time>2000-01-01T21:22:28.000Z</time>
      </trkpt>
      <trkpt lat="45.85028" lon="7.93432">
        <ele>1207.5</ele>
        <time>2000-01-01T21:22:38.000Z</time>
      </trkpt>
      <trkpt lat="45.85033" lon="7.9343">
        <ele>1193</ele>
        <time>2000-01-01T21:22:48.000Z</time>
      </trkpt>
      <trkpt lat="45.85035" lon="7.93431">
        <ele>1207.7</ele>
        <time>2000-01-01T21:22:58.000Z</time>
      </trkpt>
      <trkpt lat="45.85036" lon="7.93429">
        <ele>1208.4</ele>
        <time>2000-01-01T21:23:08.000Z</time>
      </trkpt>
      <trkpt lat="45.85043" lon="7.93431">
        <ele>1207.6</ele>
        <time>2000-01-01T21:23:18.000Z</time>
      </trkpt>
      <trkpt lat="45.85052" lon="7.93444">
        <ele>1192</ele>
        <time>2000-01-01T21:23:28.000Z</time>
      </trkpt>
      <trkpt lat="45.85056" lon="7.93446">
        <ele>1202.5</ele>
        <time>2000-01-01T21:23:38.000Z</time>
      </trkpt>
      <trkpt lat="45.85059" lon="7.9345">
        <ele>1201.8</ele>
        <time>2000-01-01T21:23:48.000Z</time>
      </trkpt>
      <trkpt lat="45.8506" lon="7.93453">
        <ele>1201</ele>
        <time>2000-01-01T21:23:58.000Z</time>
      </trkpt>
      <trkpt lat="45.8506" lon="7.93463">
        <ele>1197.5</ele>
        <time>2000-01-01T21:24:08.000Z</time>
      </trkpt>
      <trkpt lat="45.85067" lon="7.93475">
        <ele>1187</ele>
        <time>2000-01-01T21:24:18.000Z</time>
      </trkpt>
      <trkpt lat="45.85079" lon="7.93501">
        <ele>1184</ele>
        <time>2000-01-01T21:24:28.000Z</time>
      </trkpt>
      <trkpt lat="45.85086" lon="7.93524">
        <ele>1191.7</ele>
        <time>2000-01-01T21:24:38.000Z</time>
      </trkpt>
      <trkpt lat="45.85102" lon="7.93564">
        <ele>1181</ele>
        <time>2000-01-01T21:24:48.000Z</time>
      </trkpt>
      <trkpt lat="45.85102" lon="7.93587">
        <ele>1183.1</ele>
        <time>2000-01-01T21:24:58.000Z</time>
      </trkpt>
      <trkpt lat="45.85115" lon="7.93604">
        <ele>1180</ele>
        <time>2000-01-01T21:25:08.000Z</time>
      </trkpt>
      <trkpt lat="45.85135" lon="7.93624">
        <ele>1180</ele>
        <time>2000-01-01T21:25:18.000Z</time>
      </trkpt>
      <trkpt lat="45.85157" lon="7.93645">
        <ele>1180</ele>
        <time>2000-01-01T21:25:28.000Z</time>
      </trkpt>
      <trkpt lat="45.85174" lon="7.93673">
        <ele>1181</ele>
        <time>2000-01-01T21:25:38.000Z</time>
      </trkpt>
      <trkpt lat="45.8519" lon="7.93677">
        <ele>1181.5</ele>
        <time>2000-01-01T21:25:48.000Z</time>
      </trkpt>
      <trkpt lat="45.85238" lon="7.93679">
        <ele>1180</ele>
        <time>2000-01-01T21:25:58.000Z</time>
      </trkpt>
      <trkpt lat="45.85242" lon="7.93709">
        <ele>1180</ele>
        <time>2000-01-01T21:26:08.000Z</time>
      </trkpt>
      <trkpt lat="45.85242" lon="7.93731">
        <ele>1173.9</ele>
        <time>2000-01-01T21:26:18.000Z</time>
      </trkpt>
      <trkpt lat="45.85242" lon="7.93751">
        <ele>1178</ele>
        <time>2000-01-01T21:26:28.000Z</time>
      </trkpt>
      <trkpt lat="45.85251" lon="7.93756">
        <ele>1173.8</ele>
        <time>2000-01-01T21:26:38.000Z</time>
      </trkpt>
      <trkpt lat="45.8525" lon="7.93785">
        <ele>1178</ele>
        <time>2000-01-01T21:26:48.000Z</time>
      </trkpt>
      <trkpt lat="45.8524" lon="7.93814">
        <ele>1177</ele>
        <time>2000-01-01T21:26:58.000Z</time>
      </trkpt>
      <trkpt lat="45.8523" lon="7.93815">
        <ele>1171.6</ele>
        <time>2000-01-01T21:27:08.000Z</time>
      </trkpt>
      <trkpt lat="45.85231" lon="7.93855">
        <ele>1177</ele>
        <time>2000-01-01T21:27:18.000Z</time>
      </trkpt>
      <trkpt lat="45.85232" lon="7.93877">
        <ele>1168.4</ele>
        <time>2000-01-01T21:27:28.000Z</time>
      </trkpt>
      <trkpt lat="45.85226" lon="7.93891">
        <ele>1177</ele>
        <time>2000-01-01T21:27:38.000Z</time>
      </trkpt>
      <trkpt lat="45.85226" lon="7.93899">
        <ele>1167.3</ele>
        <time>2000-01-01T21:27:48.000Z</time>
      </trkpt>
      <trkpt lat="45.85235" lon="7.93887">
        <ele>1168.4</ele>
        <time>2000-01-01T21:27:58.000Z</time>
      </trkpt>
      <trkpt lat="45.85238" lon="7.93872">
        <ele>1177</ele>
        <time>2000-01-01T21:28:08.000Z</time>
      </trkpt>
      <trkpt lat="45.85237" lon="7.93866">
        <ele>1169.5</ele>
        <time>2000-01-01T21:28:18.000Z</time>
      </trkpt>
      <trkpt lat="45.85234" lon="7.9386">
        <ele>1169.2</ele>
        <time>2000-01-01T21:28:28.000Z</time>
      </trkpt>
      <trkpt lat="45.85233" lon="7.93852">
        <ele>1169.9</ele>
        <time>2000-01-01T21:28:38.000Z</time>
      </trkpt>
      <trkpt lat="45.85234" lon="7.93845">
        <ele>1177</ele>
        <time>2000-01-01T21:28:48.000Z</time>
      </trkpt>
      <trkpt lat="45.85234" lon="7.93837">
        <ele>1171.5</ele>
        <time>2000-01-01T21:28:58.000Z</time>
      </trkpt>
      <trkpt lat="45.85232" lon="7.93824">
        <ele>1171.7</ele>
        <time>2000-01-01T21:29:08.000Z</time>
      </trkpt>
      <trkpt lat="45.85232" lon="7.93817">
        <ele>1177</ele>
        <time>2000-01-01T21:29:18.000Z</time>
      </trkpt>
      <trkpt lat="45.85238" lon="7.93818">
        <ele>1172.1</ele>
        <time>2000-01-01T21:29:28.000Z</time>
      </trkpt>
      <trkpt lat="45.85243" lon="7.93817">
        <ele>1172.5</ele>
        <time>2000-01-01T21:29:38.000Z</time>
      </trkpt>
      <trkpt lat="45.85245" lon="7.93811">
        <ele>1172.6</ele>
        <time>2000-01-01T21:29:48.000Z</time>
      </trkpt>
      <trkpt lat="45.85247" lon="7.93805">
        <ele>1178</ele>
        <time>2000-01-01T21:29:58.000Z</time>
      </trkpt>
      <trkpt lat="45.85248" lon="7.93798">
        <ele>1172.9</ele>
        <time>2000-01-01T21:30:08.000Z</time>
      </trkpt>
      <trkpt lat="45.85251" lon="7.93792">
        <ele>1173.1</ele>
        <time>2000-01-01T21:30:18.000Z</time>
      </trkpt>
      <trkpt lat="45.85254" lon="7.93785">
        <ele>1173.3</ele>
        <time>2000-01-01T21:30:28.000Z</time>
      </trkpt>
      <trkpt lat="45.85259" lon="7.93784">
        <ele>1178</ele>
        <time>2000-01-01T21:30:38.000Z</time>
      </trkpt>
      <trkpt lat="45.85263" lon="7.93788">
        <ele>1174.1</ele>
        <time>2000-01-01T21:30:48.000Z</time>
      </trkpt>
      <trkpt lat="45.85268" lon="7.93787">
        <ele>1174.5</ele>
        <time>2000-01-01T21:30:58.000Z</time>
      </trkpt>
      <trkpt lat="45.85279" lon="7.93774">
        <ele>1178</ele>
        <time>2000-01-01T21:31:08.000Z</time>
      </trkpt>
      <trkpt lat="45.85283" lon="7.93772">
        <ele>1175.5</ele>
        <time>2000-01-01T21:31:18.000Z</time>
      </trkpt>
      <trkpt lat="45.85294" lon="7.93772">
        <ele>1176.6</ele>
        <time>2000-01-01T21:31:28.000Z</time>
      </trkpt>
      <trkpt lat="45.85299" lon="7.9377">
        <ele>1179</ele>
        <time>2000-01-01T21:31:38.000Z</time>
      </trkpt>
      <trkpt lat="45.85303" lon="7.93766">
        <ele>1177.3</ele>
        <time>2000-01-01T21:31:48.000Z</time>
      </trkpt>
      <trkpt lat="45.85305" lon="7.93759">
        <ele>1177.3</ele>
        <time>2000-01-01T21:31:58.000Z</time>
      </trkpt>
      <trkpt lat="45.85312" lon="7.93745">
        <ele>1180</ele>
        <time>2000-01-01T21:32:08.000Z</time>
      </trkpt>
      <trkpt lat="45.85355" lon="7.93742">
        <ele>1181</ele>
        <time>2000-01-01T21:32:18.000Z</time>
      </trkpt>
      <trkpt lat="45.85368" lon="7.93738">
        <ele>1182.3</ele>
        <time>2000-01-01T21:32:28.000Z</time>
      </trkpt>
      <trkpt lat="45.85382" lon="7.93738">
        <ele>1182</ele>
        <time>2000-01-01T21:32:38.000Z</time>
      </trkpt>
      <trkpt lat="45.85398" lon="7.9374">
        <ele>1183.9</ele>
        <time>2000-01-01T21:32:48.000Z</time>
      </trkpt>
      <trkpt lat="45.85423" lon="7.93733">
        <ele>1184</ele>
        <time>2000-01-01T21:32:58.000Z</time>
      </trkpt>
      <trkpt lat="45.85441" lon="7.93724">
        <ele>1186.7</ele>
        <time>2000-01-01T21:33:08.000Z</time>
      </trkpt>
      <trkpt lat="45.85459" lon="7.93715">
        <ele>1189</ele>
        <time>2000-01-01T21:33:18.000Z</time>
      </trkpt>
      <trkpt lat="45.85482" lon="7.93728">
        <ele>1193</ele>
        <time>2000-01-01T21:33:28.000Z</time>
      </trkpt>
      <trkpt lat="45.855" lon="7.93723">
        <ele>1187.9</ele>
        <time>2000-01-01T21:33:38.000Z</time>
      </trkpt>
      <trkpt lat="45.8551" lon="7.93723">
        <ele>1195</ele>
        <time>2000-01-01T21:33:48.000Z</time>
      </trkpt>
      <trkpt lat="45.85521" lon="7.93732">
        <ele>1187.5</ele>
        <time>2000-01-01T21:33:58.000Z</time>
      </trkpt>
      <trkpt lat="45.85527" lon="7.93742">
        <ele>1196</ele>
        <time>2000-01-01T21:34:08.000Z</time>
      </trkpt>
      <trkpt lat="45.85518" lon="7.93802">
        <ele>1200</ele>
        <time>2000-01-01T21:34:18.000Z</time>
      </trkpt>
      <trkpt lat="45.85537" lon="7.93818">
        <ele>1203</ele>
        <time>2000-01-01T21:34:28.000Z</time>
      </trkpt>
      <trkpt lat="45.85552" lon="7.9382">
        <ele>1201.8</ele>
        <time>2000-01-01T21:34:38.000Z</time>
      </trkpt>
      <trkpt lat="45.85567" lon="7.93832">
        <ele>1207</ele>
        <time>2000-01-01T21:34:48.000Z</time>
      </trkpt>
      <trkpt lat="45.85579" lon="7.93843">
        <ele>1206.5</ele>
        <time>2000-01-01T21:34:58.000Z</time>
      </trkpt>
      <trkpt lat="45.85599" lon="7.93859">
        <ele>1216</ele>
        <time>2000-01-01T21:35:08.000Z</time>
      </trkpt>
      <trkpt lat="45.85608" lon="7.93862">
        <ele>1209.6</ele>
        <time>2000-01-01T21:35:18.000Z</time>
      </trkpt>
      <trkpt lat="45.85617" lon="7.93856">
        <ele>1216</ele>
        <time>2000-01-01T21:35:28.000Z</time>
      </trkpt>
      <trkpt lat="45.85649" lon="7.93863">
        <ele>1222</ele>
        <time>2000-01-01T21:35:38.000Z</time>
      </trkpt>
      <trkpt lat="45.85663" lon="7.9388">
        <ele>1205.1</ele>
        <time>2000-01-01T21:35:48.000Z</time>
      </trkpt>
      <trkpt lat="45.85673" lon="7.93882">
        <ele>1227</ele>
        <time>2000-01-01T21:35:58.000Z</time>
      </trkpt>
      <trkpt lat="45.85689" lon="7.9388">
        <ele>1205.5</ele>
        <time>2000-01-01T21:36:08.000Z</time>
      </trkpt>
      <trkpt lat="45.85707" lon="7.93875">
        <ele>1225</ele>
        <time>2000-01-01T21:36:18.000Z</time>
      </trkpt>
      <trkpt lat="45.85723" lon="7.93862">
        <ele>1205.3</ele>
        <time>2000-01-01T21:36:28.000Z</time>
      </trkpt>
      <trkpt lat="45.85743" lon="7.93841">
        <ele>1226</ele>
        <time>2000-01-01T21:36:38.000Z</time>
      </trkpt>
      <trkpt lat="45.85758" lon="7.93835">
        <ele>1205.3</ele>
        <time>2000-01-01T21:36:48.000Z</time>
      </trkpt>
      <trkpt lat="45.85775" lon="7.93844">
        <ele>1227</ele>
        <time>2000-01-01T21:36:58.000Z</time>
      </trkpt>
      <trkpt lat="45.85791" lon="7.93861">
        <ele>1228</ele>
        <time>2000-01-01T21:37:08.000Z</time>
      </trkpt>
      <trkpt lat="45.85801" lon="7.93864">
        <ele>1214.6</ele>
        <time>2000-01-01T21:37:18.000Z</time>
      </trkpt>
      <trkpt lat="45.8582" lon="7.93853">
        <ele>1225</ele>
        <time>2000-01-01T21:37:28.000Z</time>
      </trkpt>
      <trkpt lat="45.85831" lon="7.93849">
        <ele>1216</ele>
        <time>2000-01-01T21:37:38.000Z</time>
      </trkpt>
      <trkpt lat="45.8585" lon="7.93834">
        <ele>1222</ele>
        <time>2000-01-01T21:37:48.000Z</time>
      </trkpt>
      <trkpt lat="45.8586" lon="7.93832">
        <ele>1215.5</ele>
        <time>2000-01-01T21:37:58.000Z</time>
      </trkpt>
      <trkpt lat="45.85872" lon="7.93831">
        <ele>1222</ele>
        <time>2000-01-01T21:38:08.000Z</time>
      </trkpt>
      <trkpt lat="45.85889" lon="7.9382">
        <ele>1222</ele>
        <time>2000-01-01T21:38:18.000Z</time>
      </trkpt>
      <trkpt lat="45.85923" lon="7.9383">
        <ele>1224</ele>
        <time>2000-01-01T21:38:28.000Z</time>
      </trkpt>
      <trkpt lat="45.85962" lon="7.93826">
        <ele>1227</ele>
        <time>2000-01-01T21:38:38.000Z</time>
      </trkpt>
      <trkpt lat="45.85978" lon="7.9382">
        <ele>1228.7</ele>
        <time>2000-01-01T21:38:48.000Z</time>
      </trkpt>
      <trkpt lat="45.85995" lon="7.93821">
        <ele>1230</ele>
        <time>2000-01-01T21:38:58.000Z</time>
      </trkpt>
      <trkpt lat="45.86026" lon="7.93825">
        <ele>1234</ele>
        <time>2000-01-01T21:39:08.000Z</time>
      </trkpt>
      <trkpt lat="45.86036" lon="7.93828">
        <ele>1238.2</ele>
        <time>2000-01-01T21:39:18.000Z</time>
      </trkpt>
      <trkpt lat="45.86047" lon="7.93836">
        <ele>1237</ele>
        <time>2000-01-01T21:39:28.000Z</time>
      </trkpt>
      <trkpt lat="45.8607" lon="7.93836">
        <ele>1240</ele>
        <time>2000-01-01T21:39:38.000Z</time>
      </trkpt>
      <trkpt lat="45.86081" lon="7.93819">
        <ele>1245.1</ele>
        <time>2000-01-01T21:39:48.000Z</time>
      </trkpt>
      <trkpt lat="45.86086" lon="7.93796">
        <ele>1240</ele>
        <time>2000-01-01T21:39:58.000Z</time>
      </trkpt>
      <trkpt lat="45.86096" lon="7.93756">
        <ele>1239</ele>
        <time>2000-01-01T21:40:08.000Z</time>
      </trkpt>
      <trkpt lat="45.86094" lon="7.93726">
        <ele>1237</ele>
        <time>2000-01-01T21:40:18.000Z</time>
      </trkpt>
      <trkpt lat="45.86086" lon="7.93716">
        <ele>1241.4</ele>
        <time>2000-01-01T21:40:28.000Z</time>
      </trkpt>
      <trkpt lat="45.86085" lon="7.93699">
        <ele>1236</ele>
        <time>2000-01-01T21:40:38.000Z</time>
      </trkpt>
      <trkpt lat="45.86099" lon="7.93693">
        <ele>1237.8</ele>
        <time>2000-01-01T21:40:48.000Z</time>
      </trkpt>
      <trkpt lat="45.86117" lon="7.93681">
        <ele>1236</ele>
        <time>2000-01-01T21:40:58.000Z</time>
      </trkpt>
      <trkpt lat="45.86124" lon="7.93662">
        <ele>1236.7</ele>
        <time>2000-01-01T21:41:08.000Z</time>
      </trkpt>
      <trkpt lat="45.86132" lon="7.9365">
        <ele>1235</ele>
        <time>2000-01-01T21:41:18.000Z</time>
      </trkpt>
      <trkpt lat="45.8614" lon="7.93641">
        <ele>1238.3</ele>
        <time>2000-01-01T21:41:28.000Z</time>
      </trkpt>
      <trkpt lat="45.86152" lon="7.93634">
        <ele>1234</ele>
        <time>2000-01-01T21:41:38.000Z</time>
      </trkpt>
      <trkpt lat="45.86161" lon="7.9361">
        <ele>1233</ele>
        <time>2000-01-01T21:41:48.000Z</time>
      </trkpt>
      <trkpt lat="45.86174" lon="7.93588">
        <ele>1234</ele>
        <time>2000-01-01T21:41:58.000Z</time>
      </trkpt>
      <trkpt lat="45.86191" lon="7.93577">
        <ele>1234.5</ele>
        <time>2000-01-01T21:42:08.000Z</time>
      </trkpt>
      <trkpt lat="45.86207" lon="7.9359">
        <ele>1235</ele>
        <time>2000-01-01T21:42:18.000Z</time>
      </trkpt>
      <trkpt lat="45.86235" lon="7.93625">
        <ele>1240</ele>
        <time>2000-01-01T21:42:28.000Z</time>
      </trkpt>
      <trkpt lat="45.86246" lon="7.93637">
        <ele>1241.9</ele>
        <time>2000-01-01T21:42:38.000Z</time>
      </trkpt>
      <trkpt lat="45.86263" lon="7.9365">
        <ele>1243</ele>
        <time>2000-01-01T21:42:48.000Z</time>
      </trkpt>
      <trkpt lat="45.86271" lon="7.93663">
        <ele>1243.1</ele>
        <time>2000-01-01T21:42:58.000Z</time>
      </trkpt>
      <trkpt lat="45.86278" lon="7.93678">
        <ele>1247</ele>
        <time>2000-01-01T21:43:08.000Z</time>
      </trkpt>
      <trkpt lat="45.86287" lon="7.9368">
        <ele>1244.7</ele>
        <time>2000-01-01T21:43:18.000Z</time>
      </trkpt>
      <trkpt lat="45.86312" lon="7.93673">
        <ele>1248</ele>
        <time>2000-01-01T21:43:28.000Z</time>
      </trkpt>
      <trkpt lat="45.8633" lon="7.93659">
        <ele>1248</ele>
        <time>2000-01-01T21:43:38.000Z</time>
      </trkpt>
      <trkpt lat="45.86347" lon="7.93645">
        <ele>1248</ele>
        <time>2000-01-01T21:43:48.000Z</time>
      </trkpt>
      <trkpt lat="45.86357" lon="7.9363">
        <ele>1241</ele>
        <time>2000-01-01T21:43:58.000Z</time>
      </trkpt>
      <trkpt lat="45.86378" lon="7.93656">
        <ele>1251</ele>
        <time>2000-01-01T21:44:08.000Z</time>
      </trkpt>
      <trkpt lat="45.86384" lon="7.93667">
        <ele>1249</ele>
        <time>2000-01-01T21:44:18.000Z</time>
      </trkpt>
      <trkpt lat="45.86393" lon="7.93675">
        <ele>1255</ele>
        <time>2000-01-01T21:44:28.000Z</time>
      </trkpt>
      <trkpt lat="45.86403" lon="7.93687">
        <ele>1253.3</ele>
        <time>2000-01-01T21:44:38.000Z</time>
      </trkpt>
      <trkpt lat="45.86431" lon="7.93689">
        <ele>1257</ele>
        <time>2000-01-01T21:44:48.000Z</time>
      </trkpt>
      <trkpt lat="45.86441" lon="7.93691">
        <ele>1252.4</ele>
        <time>2000-01-01T21:44:58.000Z</time>
      </trkpt>
      <trkpt lat="45.86466" lon="7.93681">
        <ele>1258</ele>
        <time>2000-01-01T21:45:08.000Z</time>
      </trkpt>
      <trkpt lat="45.86479" lon="7.93687">
        <ele>1249.8</ele>
        <time>2000-01-01T21:45:18.000Z</time>
      </trkpt>
      <trkpt lat="45.86496" lon="7.93701">
        <ele>1261</ele>
        <time>2000-01-01T21:45:28.000Z</time>
      </trkpt>
      <trkpt lat="45.86505" lon="7.93707">
        <ele>1252.8</ele>
        <time>2000-01-01T21:45:38.000Z</time>
      </trkpt>
      <trkpt lat="45.86519" lon="7.93714">
        <ele>1263</ele>
        <time>2000-01-01T21:45:48.000Z</time>
      </trkpt>
      <trkpt lat="45.86537" lon="7.93726">
        <ele>1265</ele>
        <time>2000-01-01T21:45:58.000Z</time>
      </trkpt>
      <trkpt lat="45.86563" lon="7.9375">
        <ele>1268</ele>
        <time>2000-01-01T21:46:08.000Z</time>
      </trkpt>
      <trkpt lat="45.86576" lon="7.93764">
        <ele>1256.6</ele>
        <time>2000-01-01T21:46:18.000Z</time>
      </trkpt>
      <trkpt lat="45.86602" lon="7.93787">
        <ele>1270</ele>
        <time>2000-01-01T21:46:28.000Z</time>
      </trkpt>
      <trkpt lat="45.86616" lon="7.93804">
        <ele>1258.1</ele>
        <time>2000-01-01T21:46:38.000Z</time>
      </trkpt>
      <trkpt lat="45.86634" lon="7.9383">
        <ele>1275</ele>
        <time>2000-01-01T21:46:48.000Z</time>
      </trkpt>
      <trkpt lat="45.86654" lon="7.93843">
        <ele>1276</ele>
        <time>2000-01-01T21:46:58.000Z</time>
      </trkpt>
      <trkpt lat="45.86674" lon="7.93847">
        <ele>1277</ele>
        <time>2000-01-01T21:47:08.000Z</time>
      </trkpt>
      <trkpt lat="45.86688" lon="7.93844">
        <ele>1260.6</ele>
        <time>2000-01-01T21:47:18.000Z</time>
      </trkpt>
      <trkpt lat="45.86702" lon="7.93838">
        <ele>1277</ele>
        <time>2000-01-01T21:47:28.000Z</time>
      </trkpt>
      <trkpt lat="45.86712" lon="7.93837">
        <ele>1259.5</ele>
        <time>2000-01-01T21:47:38.000Z</time>
      </trkpt>
      <trkpt lat="45.86722" lon="7.93837">
        <ele>1278</ele>
        <time>2000-01-01T21:47:48.000Z</time>
      </trkpt>
      <trkpt lat="45.86745" lon="7.93843">
        <ele>1281</ele>
        <time>2000-01-01T21:47:58.000Z</time>
      </trkpt>
      <trkpt lat="45.86758" lon="7.93852">
        <ele>1275.9</ele>
        <time>2000-01-01T21:48:08.000Z</time>
      </trkpt>
      <trkpt lat="45.86786" lon="7.93873">
        <ele>1288</ele>
        <time>2000-01-01T21:48:18.000Z</time>
      </trkpt>
      <trkpt lat="45.868" lon="7.9387">
        <ele>1292</ele>
        <time>2000-01-01T21:48:28.000Z</time>
      </trkpt>
      <trkpt lat="45.86811" lon="7.93858">
        <ele>1289</ele>
        <time>2000-01-01T21:48:38.000Z</time>
      </trkpt>
      <trkpt lat="45.86833" lon="7.93856">
        <ele>1290</ele>
        <time>2000-01-01T21:48:48.000Z</time>
      </trkpt>
      <trkpt lat="45.86845" lon="7.93847">
        <ele>1286.1</ele>
        <time>2000-01-01T21:48:58.000Z</time>
      </trkpt>
      <trkpt lat="45.86852" lon="7.93836">
        <ele>1291</ele>
        <time>2000-01-01T21:49:08.000Z</time>
      </trkpt>
      <trkpt lat="45.86857" lon="7.93813">
        <ele>1275.4</ele>
        <time>2000-01-01T21:49:18.000Z</time>
      </trkpt>
      <trkpt lat="45.86869" lon="7.93796">
        <ele>1291</ele>
        <time>2000-01-01T21:49:28.000Z</time>
      </trkpt>
      <trkpt lat="45.86879" lon="7.93787">
        <ele>1279.9</ele>
        <time>2000-01-01T21:49:38.000Z</time>
      </trkpt>
      <trkpt lat="45.8689" lon="7.93781">
        <ele>1294</ele>
        <time>2000-01-01T21:49:48.000Z</time>
      </trkpt>
      <trkpt lat="45.86913" lon="7.93775">
        <ele>1298</ele>
        <time>2000-01-01T21:49:58.000Z</time>
      </trkpt>
      <trkpt lat="45.8692" lon="7.93766">
        <ele>1284.7</ele>
        <time>2000-01-01T21:50:08.000Z</time>
      </trkpt>
      <trkpt lat="45.86937" lon="7.93772">
        <ele>1302</ele>
        <time>2000-01-01T21:50:18.000Z</time>
      </trkpt>
      <trkpt lat="45.86943" lon="7.9379">
        <ele>1290.4</ele>
        <time>2000-01-01T21:50:28.000Z</time>
      </trkpt>
      <trkpt lat="45.86959" lon="7.9379">
        <ele>1307</ele>
        <time>2000-01-01T21:50:38.000Z</time>
      </trkpt>
      <trkpt lat="45.86969" lon="7.93792">
        <ele>1292.1</ele>
        <time>2000-01-01T21:50:48.000Z</time>
      </trkpt>
      <trkpt lat="45.86979" lon="7.93791">
        <ele>1309</ele>
        <time>2000-01-01T21:50:58.000Z</time>
      </trkpt>
      <trkpt lat="45.86991" lon="7.93789">
        <ele>1293.1</ele>
        <time>2000-01-01T21:51:08.000Z</time>
      </trkpt>
      <trkpt lat="45.87013" lon="7.93782">
        <ele>1309</ele>
        <time>2000-01-01T21:51:18.000Z</time>
      </trkpt>
      <trkpt lat="45.87028" lon="7.93778">
        <ele>1293.2</ele>
        <time>2000-01-01T21:51:28.000Z</time>
      </trkpt>
      <trkpt lat="45.87039" lon="7.93774">
        <ele>1306</ele>
        <time>2000-01-01T21:51:38.000Z</time>
      </trkpt>
      <trkpt lat="45.87063" lon="7.93773">
        <ele>1306</ele>
        <time>2000-01-01T21:51:48.000Z</time>
      </trkpt>
      <trkpt lat="45.87075" lon="7.9377">
        <ele>1305</ele>
        <time>2000-01-01T21:51:58.000Z</time>
      </trkpt>
      <trkpt lat="45.87088" lon="7.93768">
        <ele>1309</ele>
        <time>2000-01-01T21:52:08.000Z</time>
      </trkpt>
      <trkpt lat="45.87126" lon="7.93789">
        <ele>1313</ele>
        <time>2000-01-01T21:52:18.000Z</time>
      </trkpt>
      <trkpt lat="45.87137" lon="7.9379">
        <ele>1315.9</ele>
        <time>2000-01-01T21:52:28.000Z</time>
      </trkpt>
      <trkpt lat="45.87149" lon="7.93797">
        <ele>1318</ele>
        <time>2000-01-01T21:52:38.000Z</time>
      </trkpt>
      <trkpt lat="45.8716" lon="7.93795">
        <ele>1315.1</ele>
        <time>2000-01-01T21:52:48.000Z</time>
      </trkpt>
      <trkpt lat="45.87172" lon="7.93799">
        <ele>1325</ele>
        <time>2000-01-01T21:52:58.000Z</time>
      </trkpt>
      <trkpt lat="45.87184" lon="7.93799">
        <ele>1314.4</ele>
        <time>2000-01-01T21:53:08.000Z</time>
      </trkpt>
      <trkpt lat="45.87195" lon="7.93796">
        <ele>1327</ele>
        <time>2000-01-01T21:53:18.000Z</time>
      </trkpt>
      <trkpt lat="45.87213" lon="7.93777">
        <ele>1329</ele>
        <time>2000-01-01T21:53:28.000Z</time>
      </trkpt>
      <trkpt lat="45.87237" lon="7.93743">
        <ele>1331</ele>
        <time>2000-01-01T21:53:38.000Z</time>
      </trkpt>
      <trkpt lat="45.87261" lon="7.93718">
        <ele>1333</ele>
        <time>2000-01-01T21:53:48.000Z</time>
      </trkpt>
      <trkpt lat="45.87278" lon="7.93709">
        <ele>1322.3</ele>
        <time>2000-01-01T21:53:58.000Z</time>
      </trkpt>
      <trkpt lat="45.87292" lon="7.9372">
        <ele>1337</ele>
        <time>2000-01-01T21:54:08.000Z</time>
      </trkpt>
      <trkpt lat="45.87305" lon="7.9372">
        <ele>1333</ele>
        <time>2000-01-01T21:54:18.000Z</time>
      </trkpt>
      <trkpt lat="45.87315" lon="7.93701">
        <ele>1338</ele>
        <time>2000-01-01T21:54:28.000Z</time>
      </trkpt>
      <trkpt lat="45.87321" lon="7.93687">
        <ele>1324.8</ele>
        <time>2000-01-01T21:54:38.000Z</time>
      </trkpt>
      <trkpt lat="45.87329" lon="7.9369">
        <ele>1339</ele>
        <time>2000-01-01T21:54:48.000Z</time>
      </trkpt>
      <trkpt lat="45.8734" lon="7.93685">
        <ele>1328.5</ele>
        <time>2000-01-01T21:54:58.000Z</time>
      </trkpt>
      <trkpt lat="45.87351" lon="7.93687">
        <ele>1343</ele>
        <time>2000-01-01T21:55:08.000Z</time>
      </trkpt>
      <trkpt lat="45.87361" lon="7.93686">
        <ele>1334</ele>
        <time>2000-01-01T21:55:18.000Z</time>
      </trkpt>
      <trkpt lat="45.87372" lon="7.93682">
        <ele>1344</ele>
        <time>2000-01-01T21:55:28.000Z</time>
      </trkpt>
      <trkpt lat="45.87385" lon="7.93672">
        <ele>1329.7</ele>
        <time>2000-01-01T21:55:38.000Z</time>
      </trkpt>
      <trkpt lat="45.87398" lon="7.93676">
        <ele>1344</ele>
        <time>2000-01-01T21:55:48.000Z</time>
      </trkpt>
      <trkpt lat="45.87406" lon="7.93681">
        <ele>1333.7</ele>
        <time>2000-01-01T21:55:58.000Z</time>
      </trkpt>
      <trkpt lat="45.87412" lon="7.93696">
        <ele>1347</ele>
        <time>2000-01-01T21:56:08.000Z</time>
      </trkpt>
      <trkpt lat="45.8743" lon="7.93695">
        <ele>1337.8</ele>
        <time>2000-01-01T21:56:18.000Z</time>
      </trkpt>
      <trkpt lat="45.87447" lon="7.93697">
        <ele>1350</ele>
        <time>2000-01-01T21:56:28.000Z</time>
      </trkpt>
      <trkpt lat="45.87464" lon="7.93696">
        <ele>1338.2</ele>
        <time>2000-01-01T21:56:38.000Z</time>
      </trkpt>
      <trkpt lat="45.87477" lon="7.93694">
        <ele>1353</ele>
        <time>2000-01-01T21:56:48.000Z</time>
      </trkpt>
      <trkpt lat="45.87488" lon="7.93698">
        <ele>1339.9</ele>
        <time>2000-01-01T21:56:58.000Z</time>
      </trkpt>
      <trkpt lat="45.87502" lon="7.93696">
        <ele>1358</ele>
        <time>2000-01-01T21:57:08.000Z</time>
      </trkpt>
      <trkpt lat="45.87513" lon="7.9369">
        <ele>1341.7</ele>
        <time>2000-01-01T21:57:18.000Z</time>
      </trkpt>
      <trkpt lat="45.87522" lon="7.93691">
        <ele>1362</ele>
        <time>2000-01-01T21:57:28.000Z</time>
      </trkpt>
      <trkpt lat="45.87536" lon="7.93686">
        <ele>1345.1</ele>
        <time>2000-01-01T21:57:38.000Z</time>
      </trkpt>
      <trkpt lat="45.87541" lon="7.93671">
        <ele>1362</ele>
        <time>2000-01-01T21:57:48.000Z</time>
      </trkpt>
      <trkpt lat="45.87559" lon="7.9364">
        <ele>1362</ele>
        <time>2000-01-01T21:57:58.000Z</time>
      </trkpt>
      <trkpt lat="45.87571" lon="7.93641">
        <ele>1348.4</ele>
        <time>2000-01-01T21:58:08.000Z</time>
      </trkpt>
      <trkpt lat="45.87589" lon="7.93634">
        <ele>1363</ele>
        <time>2000-01-01T21:58:18.000Z</time>
      </trkpt>
      <trkpt lat="45.87601" lon="7.93636">
        <ele>1356.3</ele>
        <time>2000-01-01T21:58:28.000Z</time>
      </trkpt>
      <trkpt lat="45.87616" lon="7.9364">
        <ele>1370</ele>
        <time>2000-01-01T21:58:38.000Z</time>
      </trkpt>
      <trkpt lat="45.87625" lon="7.93654">
        <ele>1364.5</ele>
        <time>2000-01-01T21:58:48.000Z</time>
      </trkpt>
      <trkpt lat="45.87634" lon="7.9366">
        <ele>1382</ele>
        <time>2000-01-01T21:58:58.000Z</time>
      </trkpt>
      <trkpt lat="45.87634" lon="7.93641">
        <ele>1366.7</ele>
        <time>2000-01-01T21:59:08.000Z</time>
      </trkpt>
      <trkpt lat="45.87652" lon="7.93661">
        <ele>1384</ele>
        <time>2000-01-01T21:59:18.000Z</time>
      </trkpt>
      <trkpt lat="45.87663" lon="7.93655">
        <ele>1376.1</ele>
        <time>2000-01-01T21:59:28.000Z</time>
      </trkpt>
      <trkpt lat="45.87669" lon="7.93633">
        <ele>1387</ele>
        <time>2000-01-01T21:59:38.000Z</time>
      </trkpt>
      <trkpt lat="45.87675" lon="7.93618">
        <ele>1377.7</ele>
        <time>2000-01-01T21:59:48.000Z</time>
      </trkpt>
      <trkpt lat="45.87682" lon="7.93608">
        <ele>1388</ele>
        <time>2000-01-01T21:59:58.000Z</time>
      </trkpt>
      <trkpt lat="45.87692" lon="7.93605">
        <ele>1383.4</ele>
        <time>2000-01-01T22:00:08.000Z</time>
      </trkpt>
      <trkpt lat="45.87702" lon="7.93605">
        <ele>1394</ele>
        <time>2000-01-01T22:00:18.000Z</time>
      </trkpt>
      <trkpt lat="45.87711" lon="7.93587">
        <ele>1387.4</ele>
        <time>2000-01-01T22:00:28.000Z</time>
      </trkpt>
      <trkpt lat="45.87721" lon="7.93595">
        <ele>1395</ele>
        <time>2000-01-01T22:00:38.000Z</time>
      </trkpt>
      <trkpt lat="45.8773" lon="7.93586">
        <ele>1394.5</ele>
        <time>2000-01-01T22:00:48.000Z</time>
      </trkpt>
      <trkpt lat="45.8774" lon="7.93573">
        <ele>1397</ele>
        <time>2000-01-01T22:00:58.000Z</time>
      </trkpt>
      <trkpt lat="45.87748" lon="7.93566">
        <ele>1394.8</ele>
        <time>2000-01-01T22:01:08.000Z</time>
      </trkpt>
      <trkpt lat="45.87764" lon="7.93571">
        <ele>1405</ele>
        <time>2000-01-01T22:01:18.000Z</time>
      </trkpt>
      <trkpt lat="45.87789" lon="7.93576">
        <ele>1409</ele>
        <time>2000-01-01T22:01:28.000Z</time>
      </trkpt>
      <trkpt lat="45.87797" lon="7.93566">
        <ele>1397.6</ele>
        <time>2000-01-01T22:01:38.000Z</time>
      </trkpt>
      <trkpt lat="45.87813" lon="7.93563">
        <ele>1412</ele>
        <time>2000-01-01T22:01:48.000Z</time>
      </trkpt>
      <trkpt lat="45.87825" lon="7.93563">
        <ele>1401.2</ele>
        <time>2000-01-01T22:01:58.000Z</time>
      </trkpt>
      <trkpt lat="45.87851" lon="7.93554">
        <ele>1410</ele>
        <time>2000-01-01T22:02:08.000Z</time>
      </trkpt>
      <trkpt lat="45.87862" lon="7.93537">
        <ele>1404.7</ele>
        <time>2000-01-01T22:02:18.000Z</time>
      </trkpt>
      <trkpt lat="45.8787" lon="7.93522">
        <ele>1409</ele>
        <time>2000-01-01T22:02:28.000Z</time>
      </trkpt>
      <trkpt lat="45.87877" lon="7.93509">
        <ele>1401</ele>
        <time>2000-01-01T22:02:38.000Z</time>
      </trkpt>
      <trkpt lat="45.87859" lon="7.93486">
        <ele>1405</ele>
        <time>2000-01-01T22:02:48.000Z</time>
      </trkpt>
      <trkpt lat="45.87872" lon="7.9346">
        <ele>1402</ele>
        <time>2000-01-01T22:02:58.000Z</time>
      </trkpt>
      <trkpt lat="45.87887" lon="7.93452">
        <ele>1395.2</ele>
        <time>2000-01-01T22:03:08.000Z</time>
      </trkpt>
      <trkpt lat="45.87897" lon="7.93438">
        <ele>1402</ele>
        <time>2000-01-01T22:03:18.000Z</time>
      </trkpt>
      <trkpt lat="45.87906" lon="7.93423">
        <ele>1402.2</ele>
        <time>2000-01-01T22:03:28.000Z</time>
      </trkpt>
      <trkpt lat="45.87916" lon="7.93411">
        <ele>1404</ele>
        <time>2000-01-01T22:03:38.000Z</time>
      </trkpt>
      <trkpt lat="45.87929" lon="7.93408">
        <ele>1404.9</ele>
        <time>2000-01-01T22:03:48.000Z</time>
      </trkpt>
      <trkpt lat="45.87939" lon="7.93401">
        <ele>1407</ele>
        <time>2000-01-01T22:03:58.000Z</time>
      </trkpt>
      <trkpt lat="45.87972" lon="7.93392">
        <ele>1409</ele>
        <time>2000-01-01T22:04:08.000Z</time>
      </trkpt>
      <trkpt lat="45.87986" lon="7.93387">
        <ele>1404.7</ele>
        <time>2000-01-01T22:04:18.000Z</time>
      </trkpt>
      <trkpt lat="45.87996" lon="7.9338">
        <ele>1412</ele>
        <time>2000-01-01T22:04:28.000Z</time>
      </trkpt>
      <trkpt lat="45.88003" lon="7.93373">
        <ele>1408.2</ele>
        <time>2000-01-01T22:04:38.000Z</time>
      </trkpt>
      <trkpt lat="45.88016" lon="7.93378">
        <ele>1414</ele>
        <time>2000-01-01T22:04:48.000Z</time>
      </trkpt>
      <trkpt lat="45.88032" lon="7.93377">
        <ele>1406.7</ele>
        <time>2000-01-01T22:04:58.000Z</time>
      </trkpt>
      <trkpt lat="45.88059" lon="7.93383">
        <ele>1414</ele>
        <time>2000-01-01T22:05:08.000Z</time>
      </trkpt>
      <trkpt lat="45.88069" lon="7.93379">
        <ele>1405.5</ele>
        <time>2000-01-01T22:05:18.000Z</time>
      </trkpt>
      <trkpt lat="45.88074" lon="7.93363">
        <ele>1417</ele>
        <time>2000-01-01T22:05:28.000Z</time>
      </trkpt>
      <trkpt lat="45.88084" lon="7.93352">
        <ele>1408.6</ele>
        <time>2000-01-01T22:05:38.000Z</time>
      </trkpt>
      <trkpt lat="45.88094" lon="7.93338">
        <ele>1420</ele>
        <time>2000-01-01T22:05:48.000Z</time>
      </trkpt>
      <trkpt lat="45.88104" lon="7.93333">
        <ele>1409.8</ele>
        <time>2000-01-01T22:05:58.000Z</time>
      </trkpt>
      <trkpt lat="45.88103" lon="7.93312">
        <ele>1423</ele>
        <time>2000-01-01T22:06:08.000Z</time>
      </trkpt>
      <trkpt lat="45.88111" lon="7.93298">
        <ele>1414.4</ele>
        <time>2000-01-01T22:06:18.000Z</time>
      </trkpt>
      <trkpt lat="45.88116" lon="7.93279">
        <ele>1428</ele>
        <time>2000-01-01T22:06:28.000Z</time>
      </trkpt>
      <trkpt lat="45.88123" lon="7.93262">
        <ele>1418</ele>
        <time>2000-01-01T22:06:38.000Z</time>
      </trkpt>
      <trkpt lat="45.88137" lon="7.93237">
        <ele>1431</ele>
        <time>2000-01-01T22:06:48.000Z</time>
      </trkpt>
      <trkpt lat="45.88139" lon="7.93214">
        <ele>1420.8</ele>
        <time>2000-01-01T22:06:58.000Z</time>
      </trkpt>
      <trkpt lat="45.88146" lon="7.93199">
        <ele>1433</ele>
        <time>2000-01-01T22:07:08.000Z</time>
      </trkpt>
      <trkpt lat="45.88154" lon="7.93192">
        <ele>1421.6</ele>
        <time>2000-01-01T22:07:18.000Z</time>
      </trkpt>
      <trkpt lat="45.88173" lon="7.93174">
        <ele>1436</ele>
        <time>2000-01-01T22:07:28.000Z</time>
      </trkpt>
      <trkpt lat="45.88182" lon="7.93176">
        <ele>1421.8</ele>
        <time>2000-01-01T22:07:38.000Z</time>
      </trkpt>
      <trkpt lat="45.88195" lon="7.93176">
        <ele>1439</ele>
        <time>2000-01-01T22:07:48.000Z</time>
      </trkpt>
      <trkpt lat="45.88206" lon="7.93173">
        <ele>1425.8</ele>
        <time>2000-01-01T22:07:58.000Z</time>
      </trkpt>
      <trkpt lat="45.88216" lon="7.93175">
        <ele>1439</ele>
        <time>2000-01-01T22:08:08.000Z</time>
      </trkpt>
      <trkpt lat="45.8823" lon="7.93188">
        <ele>1428.5</ele>
        <time>2000-01-01T22:08:18.000Z</time>
      </trkpt>
      <trkpt lat="45.88236" lon="7.93199">
        <ele>1440</ele>
        <time>2000-01-01T22:08:28.000Z</time>
      </trkpt>
      <trkpt lat="45.88246" lon="7.9319">
        <ele>1435.1</ele>
        <time>2000-01-01T22:08:38.000Z</time>
      </trkpt>
      <trkpt lat="45.88258" lon="7.93185">
        <ele>1447</ele>
        <time>2000-01-01T22:08:48.000Z</time>
      </trkpt>
      <trkpt lat="45.88267" lon="7.93175">
        <ele>1448.1</ele>
        <time>2000-01-01T22:08:58.000Z</time>
      </trkpt>
      <trkpt lat="45.88265" lon="7.93162">
        <ele>1456</ele>
        <time>2000-01-01T22:09:08.000Z</time>
      </trkpt>
      <trkpt lat="45.88268" lon="7.93142">
        <ele>1464.4</ele>
        <time>2000-01-01T22:09:18.000Z</time>
      </trkpt>
      <trkpt lat="45.88284" lon="7.93142">
        <ele>1469</ele>
        <time>2000-01-01T22:09:28.000Z</time>
      </trkpt>
      <trkpt lat="45.88294" lon="7.93143">
        <ele>1467.8</ele>
        <time>2000-01-01T22:09:38.000Z</time>
      </trkpt>
      <trkpt lat="45.88301" lon="7.93134">
        <ele>1480</ele>
        <time>2000-01-01T22:09:48.000Z</time>
      </trkpt>
      <trkpt lat="45.88298" lon="7.9312">
        <ele>1483.7</ele>
        <time>2000-01-01T22:09:58.000Z</time>
      </trkpt>
      <trkpt lat="45.88296" lon="7.93106">
        <ele>1495</ele>
        <time>2000-01-01T22:10:08.000Z</time>
      </trkpt>
      <trkpt lat="45.88306" lon="7.93105">
        <ele>1494.3</ele>
        <time>2000-01-01T22:10:18.000Z</time>
      </trkpt>
      <trkpt lat="45.88315" lon="7.93101">
        <ele>1500</ele>
        <time>2000-01-01T22:10:28.000Z</time>
      </trkpt>
      <trkpt lat="45.88325" lon="7.93096">
        <ele>1496.6</ele>
        <time>2000-01-01T22:10:38.000Z</time>
      </trkpt>
      <trkpt lat="45.88332" lon="7.93084">
        <ele>1512</ele>
        <time>2000-01-01T22:10:48.000Z</time>
      </trkpt>
      <trkpt lat="45.88342" lon="7.93079">
        <ele>1505.4</ele>
        <time>2000-01-01T22:10:58.000Z</time>
      </trkpt>
      <trkpt lat="45.88349" lon="7.93069">
        <ele>1522</ele>
        <time>2000-01-01T22:11:08.000Z</time>
      </trkpt>
      <trkpt lat="45.88351" lon="7.93055">
        <ele>1523.5</ele>
        <time>2000-01-01T22:11:18.000Z</time>
      </trkpt>
      <trkpt lat="45.88359" lon="7.93045">
        <ele>1530</ele>
        <time>2000-01-01T22:11:28.000Z</time>
      </trkpt>
      <trkpt lat="45.88361" lon="7.9303">
        <ele>1539.5</ele>
        <time>2000-01-01T22:11:38.000Z</time>
      </trkpt>
      <trkpt lat="45.88369" lon="7.93021">
        <ele>1538</ele>
        <time>2000-01-01T22:11:48.000Z</time>
      </trkpt>
      <trkpt lat="45.88378" lon="7.93011">
        <ele>1554.3</ele>
        <time>2000-01-01T22:11:58.000Z</time>
      </trkpt>
      <trkpt lat="45.88387" lon="7.93008">
        <ele>1541</ele>
        <time>2000-01-01T22:12:08.000Z</time>
      </trkpt>
      <trkpt lat="45.8839" lon="7.92994">
        <ele>1559.3</ele>
        <time>2000-01-01T22:12:18.000Z</time>
      </trkpt>
      <trkpt lat="45.88397" lon="7.92984">
        <ele>1543</ele>
        <time>2000-01-01T22:12:28.000Z</time>
      </trkpt>
      <trkpt lat="45.88393" lon="7.92969">
        <ele>1564.1</ele>
        <time>2000-01-01T22:12:38.000Z</time>
      </trkpt>
      <trkpt lat="45.88391" lon="7.92955">
        <ele>1549</ele>
        <time>2000-01-01T22:12:48.000Z</time>
      </trkpt>
      <trkpt lat="45.88374" lon="7.92929">
        <ele>1558</ele>
        <time>2000-01-01T22:12:58.000Z</time>
      </trkpt>
      <trkpt lat="45.88373" lon="7.92914">
        <ele>1576.3</ele>
        <time>2000-01-01T22:13:08.000Z</time>
      </trkpt>
      <trkpt lat="45.88373" lon="7.929">
        <ele>1561</ele>
        <time>2000-01-01T22:13:18.000Z</time>
      </trkpt>
      <trkpt lat="45.88376" lon="7.92884">
        <ele>1581.6</ele>
        <time>2000-01-01T22:13:28.000Z</time>
      </trkpt>
      <trkpt lat="45.88373" lon="7.92849">
        <ele>1565</ele>
        <time>2000-01-01T22:13:38.000Z</time>
      </trkpt>
      <trkpt lat="45.88377" lon="7.92837">
        <ele>1582.5</ele>
        <time>2000-01-01T22:13:48.000Z</time>
      </trkpt>
      <trkpt lat="45.88395" lon="7.92825">
        <ele>1570</ele>
        <time>2000-01-01T22:13:58.000Z</time>
      </trkpt>
      <trkpt lat="45.88402" lon="7.92797">
        <ele>1573</ele>
        <time>2000-01-01T22:14:08.000Z</time>
      </trkpt>
      <trkpt lat="45.88406" lon="7.92782">
        <ele>1587.1</ele>
        <time>2000-01-01T22:14:18.000Z</time>
      </trkpt>
      <trkpt lat="45.88427" lon="7.92747">
        <ele>1577</ele>
        <time>2000-01-01T22:14:28.000Z</time>
      </trkpt>
      <trkpt lat="45.88447" lon="7.92718">
        <ele>1577</ele>
        <time>2000-01-01T22:14:38.000Z</time>
      </trkpt>
      <trkpt lat="45.88465" lon="7.92719">
        <ele>1584.3</ele>
        <time>2000-01-01T22:14:48.000Z</time>
      </trkpt>
      <trkpt lat="45.88478" lon="7.92713">
        <ele>1579</ele>
        <time>2000-01-01T22:14:58.000Z</time>
      </trkpt>
      <trkpt lat="45.88487" lon="7.927">
        <ele>1574.4</ele>
        <time>2000-01-01T22:15:08.000Z</time>
      </trkpt>
      <trkpt lat="45.885" lon="7.92686">
        <ele>1581</ele>
        <time>2000-01-01T22:15:18.000Z</time>
      </trkpt>
      <trkpt lat="45.88512" lon="7.9269">
        <ele>1581.9</ele>
        <time>2000-01-01T22:15:28.000Z</time>
      </trkpt>
      <trkpt lat="45.88515" lon="7.92705">
        <ele>1583</ele>
        <time>2000-01-01T22:15:38.000Z</time>
      </trkpt>
      <trkpt lat="45.8853" lon="7.92702">
        <ele>1593.8</ele>
        <time>2000-01-01T22:15:48.000Z</time>
      </trkpt>
      <trkpt lat="45.88533" lon="7.92719">
        <ele>1591</ele>
        <time>2000-01-01T22:15:58.000Z</time>
      </trkpt>
      <trkpt lat="45.88544" lon="7.9272">
        <ele>1600.4</ele>
        <time>2000-01-01T22:16:08.000Z</time>
      </trkpt>
      <trkpt lat="45.88558" lon="7.92719">
        <ele>1600</ele>
        <time>2000-01-01T22:16:18.000Z</time>
      </trkpt>
      <trkpt lat="45.88567" lon="7.92725">
        <ele>1606.2</ele>
        <time>2000-01-01T22:16:28.000Z</time>
      </trkpt>
      <trkpt lat="45.88579" lon="7.92728">
        <ele>1608</ele>
        <time>2000-01-01T22:16:38.000Z</time>
      </trkpt>
      <trkpt lat="45.8859" lon="7.92748">
        <ele>1612.3</ele>
        <time>2000-01-01T22:16:48.000Z</time>
      </trkpt>
      <trkpt lat="45.88599" lon="7.92758">
        <ele>1617</ele>
        <time>2000-01-01T22:16:58.000Z</time>
      </trkpt>
      <trkpt lat="45.88608" lon="7.92763">
        <ele>1617.2</ele>
        <time>2000-01-01T22:17:08.000Z</time>
      </trkpt>
      <trkpt lat="45.88618" lon="7.92773">
        <ele>1620</ele>
        <time>2000-01-01T22:17:18.000Z</time>
      </trkpt>
      <trkpt lat="45.88619" lon="7.92801">
        <ele>1621</ele>
        <time>2000-01-01T22:17:28.000Z</time>
      </trkpt>
      <trkpt lat="45.8862" lon="7.92816">
        <ele>1623.8</ele>
        <time>2000-01-01T22:17:38.000Z</time>
      </trkpt>
      <trkpt lat="45.8862" lon="7.9283">
        <ele>1622</ele>
        <time>2000-01-01T22:17:48.000Z</time>
      </trkpt>
      <trkpt lat="45.88625" lon="7.9284">
        <ele>1625.9</ele>
        <time>2000-01-01T22:17:58.000Z</time>
      </trkpt>
      <trkpt lat="45.88634" lon="7.92836">
        <ele>1629.7</ele>
        <time>2000-01-01T22:18:08.000Z</time>
      </trkpt>
      <trkpt lat="45.88645" lon="7.92813">
        <ele>1636</ele>
        <time>2000-01-01T22:18:18.000Z</time>
      </trkpt>
      <trkpt lat="45.88651" lon="7.92793">
        <ele>1636.1</ele>
        <time>2000-01-01T22:18:28.000Z</time>
      </trkpt>
      <trkpt lat="45.88657" lon="7.9278">
        <ele>1642</ele>
        <time>2000-01-01T22:18:38.000Z</time>
      </trkpt>
      <trkpt lat="45.8866" lon="7.92763">
        <ele>1639.1</ele>
        <time>2000-01-01T22:18:48.000Z</time>
      </trkpt>
      <trkpt lat="45.88666" lon="7.92748">
        <ele>1649</ele>
        <time>2000-01-01T22:18:58.000Z</time>
      </trkpt>
      <trkpt lat="45.88676" lon="7.92737">
        <ele>1645</ele>
        <time>2000-01-01T22:19:08.000Z</time>
      </trkpt>
      <trkpt lat="45.88689" lon="7.92728">
        <ele>1660</ele>
        <time>2000-01-01T22:19:18.000Z</time>
      </trkpt>
      <trkpt lat="45.88694" lon="7.92713">
        <ele>1651.1</ele>
        <time>2000-01-01T22:19:28.000Z</time>
      </trkpt>
      <trkpt lat="45.88697" lon="7.92697">
        <ele>1667</ele>
        <time>2000-01-01T22:19:38.000Z</time>
      </trkpt>
      <trkpt lat="45.88702" lon="7.9268">
        <ele>1656.6</ele>
        <time>2000-01-01T22:19:48.000Z</time>
      </trkpt>
      <trkpt lat="45.88702" lon="7.92663">
        <ele>1663</ele>
        <time>2000-01-01T22:19:58.000Z</time>
      </trkpt>
      <trkpt lat="45.88698" lon="7.92646">
        <ele>1658.4</ele>
        <time>2000-01-01T22:20:08.000Z</time>
      </trkpt>
      <trkpt lat="45.88683" lon="7.92614">
        <ele>1666</ele>
        <time>2000-01-01T22:20:18.000Z</time>
      </trkpt>
      <trkpt lat="45.88691" lon="7.92599">
        <ele>1662.5</ele>
        <time>2000-01-01T22:20:28.000Z</time>
      </trkpt>
      <trkpt lat="45.88702" lon="7.92581">
        <ele>1669</ele>
        <time>2000-01-01T22:20:38.000Z</time>
      </trkpt>
      <trkpt lat="45.88713" lon="7.92568">
        <ele>1669.3</ele>
        <time>2000-01-01T22:20:48.000Z</time>
      </trkpt>
      <trkpt lat="45.88719" lon="7.92557">
        <ele>1671</ele>
        <time>2000-01-01T22:20:58.000Z</time>
      </trkpt>
      <trkpt lat="45.88725" lon="7.92596">
        <ele>1681</ele>
        <time>2000-01-01T22:21:08.000Z</time>
      </trkpt>
      <trkpt lat="45.88734" lon="7.92588">
        <ele>1682.6</ele>
        <time>2000-01-01T22:21:18.000Z</time>
      </trkpt>
      <trkpt lat="45.88748" lon="7.92567">
        <ele>1691</ele>
        <time>2000-01-01T22:21:28.000Z</time>
      </trkpt>
      <trkpt lat="45.88757" lon="7.92543">
        <ele>1694.3</ele>
        <time>2000-01-01T22:21:38.000Z</time>
      </trkpt>
      <trkpt lat="45.88764" lon="7.92529">
        <ele>1699</ele>
        <time>2000-01-01T22:21:48.000Z</time>
      </trkpt>
      <trkpt lat="45.88772" lon="7.92481">
        <ele>1701</ele>
        <time>2000-01-01T22:21:58.000Z</time>
      </trkpt>
      <trkpt lat="45.88773" lon="7.92465">
        <ele>1693.2</ele>
        <time>2000-01-01T22:22:08.000Z</time>
      </trkpt>
      <trkpt lat="45.8879" lon="7.92435">
        <ele>1703</ele>
        <time>2000-01-01T22:22:18.000Z</time>
      </trkpt>
      <trkpt lat="45.88793" lon="7.92418">
        <ele>1703.8</ele>
        <time>2000-01-01T22:22:28.000Z</time>
      </trkpt>
      <trkpt lat="45.88795" lon="7.92405">
        <ele>1705</ele>
        <time>2000-01-01T22:22:38.000Z</time>
      </trkpt>
      <trkpt lat="45.88799" lon="7.9239">
        <ele>1707.7</ele>
        <time>2000-01-01T22:22:48.000Z</time>
      </trkpt>
      <trkpt lat="45.88811" lon="7.92404">
        <ele>1717</ele>
        <time>2000-01-01T22:22:58.000Z</time>
      </trkpt>
      <trkpt lat="45.88818" lon="7.92417">
        <ele>1718.6</ele>
        <time>2000-01-01T22:23:08.000Z</time>
      </trkpt>
      <trkpt lat="45.88818" lon="7.92438">
        <ele>1717</ele>
        <time>2000-01-01T22:23:18.000Z</time>
      </trkpt>
      <trkpt lat="45.888" lon="7.92472">
        <ele>1716</ele>
        <time>2000-01-01T22:23:28.000Z</time>
      </trkpt>
      <trkpt lat="45.88794" lon="7.92486">
        <ele>1712.2</ele>
        <time>2000-01-01T22:23:38.000Z</time>
      </trkpt>
      <trkpt lat="45.88796" lon="7.92502">
        <ele>1717</ele>
        <time>2000-01-01T22:23:48.000Z</time>
      </trkpt>
      <trkpt lat="45.88794" lon="7.92522">
        <ele>1719.9</ele>
        <time>2000-01-01T22:23:58.000Z</time>
      </trkpt>
      <trkpt lat="45.88795" lon="7.92542">
        <ele>1719</ele>
        <time>2000-01-01T22:24:08.000Z</time>
      </trkpt>
      <trkpt lat="45.88795" lon="7.92558">
        <ele>1725.7</ele>
        <time>2000-01-01T22:24:18.000Z</time>
      </trkpt>
      <trkpt lat="45.88796" lon="7.92577">
        <ele>1723</ele>
        <time>2000-01-01T22:24:28.000Z</time>
      </trkpt>
      <trkpt lat="45.88805" lon="7.92574">
        <ele>1730.1</ele>
        <time>2000-01-01T22:24:38.000Z</time>
      </trkpt>
      <trkpt lat="45.88812" lon="7.92562">
        <ele>1733</ele>
        <time>2000-01-01T22:24:48.000Z</time>
      </trkpt>
      <trkpt lat="45.88824" lon="7.92537">
        <ele>1736</ele>
        <time>2000-01-01T22:24:58.000Z</time>
      </trkpt>
      <trkpt lat="45.88832" lon="7.92518">
        <ele>1746.3</ele>
        <time>2000-01-01T22:25:08.000Z</time>
      </trkpt>
      <trkpt lat="45.88837" lon="7.92499">
        <ele>1738</ele>
        <time>2000-01-01T22:25:18.000Z</time>
      </trkpt>
      <trkpt lat="45.88846" lon="7.92491">
        <ele>1752.8</ele>
        <time>2000-01-01T22:25:28.000Z</time>
      </trkpt>
      <trkpt lat="45.88854" lon="7.9248">
        <ele>1749</ele>
        <time>2000-01-01T22:25:38.000Z</time>
      </trkpt>
      <trkpt lat="45.88857" lon="7.92462">
        <ele>1756.3</ele>
        <time>2000-01-01T22:25:48.000Z</time>
      </trkpt>
      <trkpt lat="45.88864" lon="7.9244">
        <ele>1748</ele>
        <time>2000-01-01T22:25:58.000Z</time>
      </trkpt>
      <trkpt lat="45.88866" lon="7.92414">
        <ele>1753.8</ele>
        <time>2000-01-01T22:26:08.000Z</time>
      </trkpt>
      <trkpt lat="45.88878" lon="7.92374">
        <ele>1748</ele>
        <time>2000-01-01T22:26:18.000Z</time>
      </trkpt>
      <trkpt lat="45.88886" lon="7.92365">
        <ele>1760.8</ele>
        <time>2000-01-01T22:26:28.000Z</time>
      </trkpt>
      <trkpt lat="45.88891" lon="7.92353">
        <ele>1756</ele>
        <time>2000-01-01T22:26:38.000Z</time>
      </trkpt>
      <trkpt lat="45.88899" lon="7.92341">
        <ele>1763.6</ele>
        <time>2000-01-01T22:26:48.000Z</time>
      </trkpt>
      <trkpt lat="45.88912" lon="7.9233">
        <ele>1763</ele>
        <time>2000-01-01T22:26:58.000Z</time>
      </trkpt>
      <trkpt lat="45.88915" lon="7.92317">
        <ele>1768.3</ele>
        <time>2000-01-01T22:27:08.000Z</time>
      </trkpt>
      <trkpt lat="45.88923" lon="7.92296">
        <ele>1763</ele>
        <time>2000-01-01T22:27:18.000Z</time>
      </trkpt>
      <trkpt lat="45.88932" lon="7.92286">
        <ele>1772.4</ele>
        <time>2000-01-01T22:27:28.000Z</time>
      </trkpt>
      <trkpt lat="45.88944" lon="7.92277">
        <ele>1769</ele>
        <time>2000-01-01T22:27:38.000Z</time>
      </trkpt>
      <trkpt lat="45.88954" lon="7.92268">
        <ele>1778.6</ele>
        <time>2000-01-01T22:27:48.000Z</time>
      </trkpt>
      <trkpt lat="45.88961" lon="7.92259">
        <ele>1771</ele>
        <time>2000-01-01T22:27:58.000Z</time>
      </trkpt>
      <trkpt lat="45.88958" lon="7.92273">
        <ele>1780.5</ele>
        <time>2000-01-01T22:28:08.000Z</time>
      </trkpt>
      <trkpt lat="45.88946" lon="7.92301">
        <ele>1774</ele>
        <time>2000-01-01T22:28:18.000Z</time>
      </trkpt>
      <trkpt lat="45.88953" lon="7.92317">
        <ele>1783.9</ele>
        <time>2000-01-01T22:28:28.000Z</time>
      </trkpt>
      <trkpt lat="45.88951" lon="7.92347">
        <ele>1779</ele>
        <time>2000-01-01T22:28:38.000Z</time>
      </trkpt>
      <trkpt lat="45.88946" lon="7.92364">
        <ele>1789.9</ele>
        <time>2000-01-01T22:28:48.000Z</time>
      </trkpt>
      <trkpt lat="45.88941" lon="7.92376">
        <ele>1779</ele>
        <time>2000-01-01T22:28:58.000Z</time>
      </trkpt>
      <trkpt lat="45.88935" lon="7.92391">
        <ele>1793.6</ele>
        <time>2000-01-01T22:29:08.000Z</time>
      </trkpt>
      <trkpt lat="45.8893" lon="7.92415">
        <ele>1779</ele>
        <time>2000-01-01T22:29:18.000Z</time>
      </trkpt>
      <trkpt lat="45.88941" lon="7.92428">
        <ele>1799</ele>
        <time>2000-01-01T22:29:28.000Z</time>
      </trkpt>
      <trkpt lat="45.88948" lon="7.92438">
        <ele>1791</ele>
        <time>2000-01-01T22:29:38.000Z</time>
      </trkpt>
      <trkpt lat="45.88959" lon="7.92433">
        <ele>1804.1</ele>
        <time>2000-01-01T22:29:48.000Z</time>
      </trkpt>
      <trkpt lat="45.88962" lon="7.92418">
        <ele>1798</ele>
        <time>2000-01-01T22:29:58.000Z</time>
      </trkpt>
      <trkpt lat="45.88974" lon="7.92412">
        <ele>1808.6</ele>
        <time>2000-01-01T22:30:08.000Z</time>
      </trkpt>
      <trkpt lat="45.88984" lon="7.92408">
        <ele>1807</ele>
        <time>2000-01-01T22:30:18.000Z</time>
      </trkpt>
      <trkpt lat="45.88994" lon="7.92395">
        <ele>1814</ele>
        <time>2000-01-01T22:30:28.000Z</time>
      </trkpt>
      <trkpt lat="45.89009" lon="7.92379">
        <ele>1813</ele>
        <time>2000-01-01T22:30:38.000Z</time>
      </trkpt>
      <trkpt lat="45.89026" lon="7.92351">
        <ele>1822</ele>
        <time>2000-01-01T22:30:48.000Z</time>
      </trkpt>
      <trkpt lat="45.89027" lon="7.92366">
        <ele>1823.7</ele>
        <time>2000-01-01T22:30:58.000Z</time>
      </trkpt>
      <trkpt lat="45.89021" lon="7.92378">
        <ele>1823</ele>
        <time>2000-01-01T22:31:08.000Z</time>
      </trkpt>
      <trkpt lat="45.89018" lon="7.92393">
        <ele>1824.6</ele>
        <time>2000-01-01T22:31:18.000Z</time>
      </trkpt>
      <trkpt lat="45.89019" lon="7.92409">
        <ele>1824</ele>
        <time>2000-01-01T22:31:28.000Z</time>
      </trkpt>
      <trkpt lat="45.89018" lon="7.92424">
        <ele>1829.1</ele>
        <time>2000-01-01T22:31:38.000Z</time>
      </trkpt>
      <trkpt lat="45.89015" lon="7.92443">
        <ele>1826</ele>
        <time>2000-01-01T22:31:48.000Z</time>
      </trkpt>
      <trkpt lat="45.89009" lon="7.92453">
        <ele>1830.4</ele>
        <time>2000-01-01T22:31:58.000Z</time>
      </trkpt>
      <trkpt lat="45.89005" lon="7.92483">
        <ele>1829</ele>
        <time>2000-01-01T22:32:08.000Z</time>
      </trkpt>
      <trkpt lat="45.89017" lon="7.92484">
        <ele>1841.7</ele>
        <time>2000-01-01T22:32:18.000Z</time>
      </trkpt>
      <trkpt lat="45.89044" lon="7.9246">
        <ele>1852</ele>
        <time>2000-01-01T22:32:28.000Z</time>
      </trkpt>
      <trkpt lat="45.89053" lon="7.92448">
        <ele>1853.4</ele>
        <time>2000-01-01T22:32:38.000Z</time>
      </trkpt>
      <trkpt lat="45.89057" lon="7.9243">
        <ele>1854</ele>
        <time>2000-01-01T22:32:48.000Z</time>
      </trkpt>
      <trkpt lat="45.89062" lon="7.92412">
        <ele>1853.9</ele>
        <time>2000-01-01T22:32:58.000Z</time>
      </trkpt>
      <trkpt lat="45.89071" lon="7.92404">
        <ele>1862</ele>
        <time>2000-01-01T22:33:08.000Z</time>
      </trkpt>
      <trkpt lat="45.89078" lon="7.92395">
        <ele>1860.7</ele>
        <time>2000-01-01T22:33:18.000Z</time>
      </trkpt>
      <trkpt lat="45.89085" lon="7.92382">
        <ele>1864</ele>
        <time>2000-01-01T22:33:28.000Z</time>
      </trkpt>
      <trkpt lat="45.89092" lon="7.92366">
        <ele>1864.8</ele>
        <time>2000-01-01T22:33:38.000Z</time>
      </trkpt>
      <trkpt lat="45.89104" lon="7.92351">
        <ele>1864</ele>
        <time>2000-01-01T22:33:48.000Z</time>
      </trkpt>
      <trkpt lat="45.89105" lon="7.92332">
        <ele>1868.2</ele>
        <time>2000-01-01T22:33:58.000Z</time>
      </trkpt>
      <trkpt lat="45.89109" lon="7.92321">
        <ele>1865</ele>
        <time>2000-01-01T22:34:08.000Z</time>
      </trkpt>
      <trkpt lat="45.89119" lon="7.92313">
        <ele>1872</ele>
        <time>2000-01-01T22:34:18.000Z</time>
      </trkpt>
      <trkpt lat="45.89129" lon="7.92307">
        <ele>1873</ele>
        <time>2000-01-01T22:34:28.000Z</time>
      </trkpt>
      <trkpt lat="45.89139" lon="7.92299">
        <ele>1879.7</ele>
        <time>2000-01-01T22:34:38.000Z</time>
      </trkpt>
      <trkpt lat="45.89135" lon="7.92319">
        <ele>1882</ele>
        <time>2000-01-01T22:34:48.000Z</time>
      </trkpt>
      <trkpt lat="45.89124" lon="7.92353">
        <ele>1885</ele>
        <time>2000-01-01T22:34:58.000Z</time>
      </trkpt>
      <trkpt lat="45.89124" lon="7.92367">
        <ele>1887</ele>
        <time>2000-01-01T22:35:08.000Z</time>
      </trkpt>
      <trkpt lat="45.89126" lon="7.92385">
        <ele>1893</ele>
        <time>2000-01-01T22:35:18.000Z</time>
      </trkpt>
      <trkpt lat="45.89123" lon="7.92402">
        <ele>1893.1</ele>
        <time>2000-01-01T22:35:28.000Z</time>
      </trkpt>
      <trkpt lat="45.89123" lon="7.92417">
        <ele>1900</ele>
        <time>2000-01-01T22:35:38.000Z</time>
      </trkpt>
      <trkpt lat="45.89121" lon="7.92436">
        <ele>1898</ele>
        <time>2000-01-01T22:35:48.000Z</time>
      </trkpt>
      <trkpt lat="45.89116" lon="7.92453">
        <ele>1900</ele>
        <time>2000-01-01T22:35:58.000Z</time>
      </trkpt>
      <trkpt lat="45.89104" lon="7.92473">
        <ele>1900</ele>
        <time>2000-01-01T22:36:08.000Z</time>
      </trkpt>
      <trkpt lat="45.89099" lon="7.9249">
        <ele>1900.7</ele>
        <time>2000-01-01T22:36:18.000Z</time>
      </trkpt>
      <trkpt lat="45.89088" lon="7.92515">
        <ele>1901</ele>
        <time>2000-01-01T22:36:28.000Z</time>
      </trkpt>
      <trkpt lat="45.89088" lon="7.92537">
        <ele>1904.5</ele>
        <time>2000-01-01T22:36:38.000Z</time>
      </trkpt>
      <trkpt lat="45.89086" lon="7.92553">
        <ele>1903</ele>
        <time>2000-01-01T22:36:48.000Z</time>
      </trkpt>
      <trkpt lat="45.89085" lon="7.92582">
        <ele>1905</ele>
        <time>2000-01-01T22:36:58.000Z</time>
      </trkpt>
      <trkpt lat="45.89079" lon="7.92606">
        <ele>1914.2</ele>
        <time>2000-01-01T22:37:08.000Z</time>
      </trkpt>
      <trkpt lat="45.89073" lon="7.92618">
        <ele>1905</ele>
        <time>2000-01-01T22:37:18.000Z</time>
      </trkpt>
      <trkpt lat="45.89064" lon="7.92628">
        <ele>1911.9</ele>
        <time>2000-01-01T22:37:28.000Z</time>
      </trkpt>
      <trkpt lat="45.89061" lon="7.92652">
        <ele>1904</ele>
        <time>2000-01-01T22:37:38.000Z</time>
      </trkpt>
      <trkpt lat="45.89062" lon="7.92667">
        <ele>1919.2</ele>
        <time>2000-01-01T22:37:48.000Z</time>
      </trkpt>
      <trkpt lat="45.89059" lon="7.92686">
        <ele>1904</ele>
        <time>2000-01-01T22:37:58.000Z</time>
      </trkpt>
      <trkpt lat="45.8906" lon="7.92699">
        <ele>1918.7</ele>
        <time>2000-01-01T22:38:08.000Z</time>
      </trkpt>
      <trkpt lat="45.89065" lon="7.92715">
        <ele>1915</ele>
        <time>2000-01-01T22:38:18.000Z</time>
      </trkpt>
      <trkpt lat="45.89072" lon="7.92733">
        <ele>1925.4</ele>
        <time>2000-01-01T22:38:28.000Z</time>
      </trkpt>
      <trkpt lat="45.89075" lon="7.92748">
        <ele>1925</ele>
        <time>2000-01-01T22:38:38.000Z</time>
      </trkpt>
      <trkpt lat="45.89069" lon="7.92764">
        <ele>1924.3</ele>
        <time>2000-01-01T22:38:48.000Z</time>
      </trkpt>
      <trkpt lat="45.89089" lon="7.92794">
        <ele>1928</ele>
        <time>2000-01-01T22:38:58.000Z</time>
      </trkpt>
      <trkpt lat="45.89077" lon="7.92814">
        <ele>1931.5</ele>
        <time>2000-01-01T22:39:08.000Z</time>
      </trkpt>
      <trkpt lat="45.8907" lon="7.92828">
        <ele>1928</ele>
        <time>2000-01-01T22:39:18.000Z</time>
      </trkpt>
      <trkpt lat="45.89068" lon="7.92855">
        <ele>1928</ele>
        <time>2000-01-01T22:39:28.000Z</time>
      </trkpt>
      <trkpt lat="45.89068" lon="7.92883">
        <ele>1930</ele>
        <time>2000-01-01T22:39:38.000Z</time>
      </trkpt>
      <trkpt lat="45.89064" lon="7.92918">
        <ele>1929</ele>
        <time>2000-01-01T22:39:48.000Z</time>
      </trkpt>
      <trkpt lat="45.89059" lon="7.92946">
        <ele>1933</ele>
        <time>2000-01-01T22:39:58.000Z</time>
      </trkpt>
      <trkpt lat="45.89059" lon="7.9297">
        <ele>1929</ele>
        <time>2000-01-01T22:40:08.000Z</time>
      </trkpt>
      <trkpt lat="45.89067" lon="7.92996">
        <ele>1931</ele>
        <time>2000-01-01T22:40:18.000Z</time>
      </trkpt>
      <trkpt lat="45.89059" lon="7.93012">
        <ele>1931.8</ele>
        <time>2000-01-01T22:40:28.000Z</time>
      </trkpt>
      <trkpt lat="45.89044" lon="7.93021">
        <ele>1932</ele>
        <time>2000-01-01T22:40:38.000Z</time>
      </trkpt>
      <trkpt lat="45.89045" lon="7.93055">
        <ele>1934</ele>
        <time>2000-01-01T22:40:48.000Z</time>
      </trkpt>
      <trkpt lat="45.89038" lon="7.93088">
        <ele>1934</ele>
        <time>2000-01-01T22:40:58.000Z</time>
      </trkpt>
      <trkpt lat="45.89031" lon="7.93121">
        <ele>1940</ele>
        <time>2000-01-01T22:41:08.000Z</time>
      </trkpt>
      <trkpt lat="45.89027" lon="7.93144">
        <ele>1940.6</ele>
        <time>2000-01-01T22:41:18.000Z</time>
      </trkpt>
      <trkpt lat="45.89023" lon="7.9318">
        <ele>1943</ele>
        <time>2000-01-01T22:41:28.000Z</time>
      </trkpt>
      <trkpt lat="45.89023" lon="7.932">
        <ele>1949.2</ele>
        <time>2000-01-01T22:41:38.000Z</time>
      </trkpt>
      <trkpt lat="45.89025" lon="7.93217">
        <ele>1947</ele>
        <time>2000-01-01T22:41:48.000Z</time>
      </trkpt>
      <trkpt lat="45.89034" lon="7.93249">
        <ele>1956</ele>
        <time>2000-01-01T22:41:58.000Z</time>
      </trkpt>
      <trkpt lat="45.89044" lon="7.93275">
        <ele>1965</ele>
        <time>2000-01-01T22:42:08.000Z</time>
      </trkpt>
      <trkpt lat="45.89048" lon="7.93288">
        <ele>1965.3</ele>
        <time>2000-01-01T22:42:18.000Z</time>
      </trkpt>
      <trkpt lat="45.8905" lon="7.93312">
        <ele>1977</ele>
        <time>2000-01-01T22:42:28.000Z</time>
      </trkpt>
      <trkpt lat="45.89048" lon="7.93331">
        <ele>1972.9</ele>
        <time>2000-01-01T22:42:38.000Z</time>
      </trkpt>
      <trkpt lat="45.89047" lon="7.93363">
        <ele>1979</ele>
        <time>2000-01-01T22:42:48.000Z</time>
      </trkpt>
      <trkpt lat="45.89046" lon="7.93386">
        <ele>1981.7</ele>
        <time>2000-01-01T22:42:58.000Z</time>
      </trkpt>
      <trkpt lat="45.89042" lon="7.93421">
        <ele>1982</ele>
        <time>2000-01-01T22:43:08.000Z</time>
      </trkpt>
      <trkpt lat="45.89041" lon="7.93477">
        <ele>1985</ele>
        <time>2000-01-01T22:43:18.000Z</time>
      </trkpt>
      <trkpt lat="45.89043" lon="7.93493">
        <ele>1994.5</ele>
        <time>2000-01-01T22:43:28.000Z</time>
      </trkpt>
      <trkpt lat="45.8905" lon="7.93511">
        <ele>1987</ele>
        <time>2000-01-01T22:43:38.000Z</time>
      </trkpt>
      <trkpt lat="45.89057" lon="7.93524">
        <ele>1999.6</ele>
        <time>2000-01-01T22:43:48.000Z</time>
      </trkpt>
      <trkpt lat="45.89077" lon="7.93553">
        <ele>1995</ele>
        <time>2000-01-01T22:43:58.000Z</time>
      </trkpt>
      <trkpt lat="45.89091" lon="7.93565">
        <ele>2009.8</ele>
        <time>2000-01-01T22:44:08.000Z</time>
      </trkpt>
      <trkpt lat="45.89104" lon="7.93574">
        <ele>2014</ele>
        <time>2000-01-01T22:44:18.000Z</time>
      </trkpt>
      <trkpt lat="45.89111" lon="7.93583">
        <ele>2015.1</ele>
        <time>2000-01-01T22:44:28.000Z</time>
      </trkpt>
      <trkpt lat="45.8911" lon="7.93606">
        <ele>2014</ele>
        <time>2000-01-01T22:44:38.000Z</time>
      </trkpt>
      <trkpt lat="45.89114" lon="7.9362">
        <ele>2015.3</ele>
        <time>2000-01-01T22:44:48.000Z</time>
      </trkpt>
      <trkpt lat="45.89116" lon="7.93634">
        <ele>2014</ele>
        <time>2000-01-01T22:44:58.000Z</time>
      </trkpt>
      <trkpt lat="45.89124" lon="7.93658">
        <ele>2015.4</ele>
        <time>2000-01-01T22:45:08.000Z</time>
      </trkpt>
      <trkpt lat="45.89142" lon="7.93683">
        <ele>2028</ele>
        <time>2000-01-01T22:45:18.000Z</time>
      </trkpt>
      <trkpt lat="45.89149" lon="7.93704">
        <ele>2025.1</ele>
        <time>2000-01-01T22:45:28.000Z</time>
      </trkpt>
      <trkpt lat="45.89152" lon="7.93724">
        <ele>2032</ele>
        <time>2000-01-01T22:45:38.000Z</time>
      </trkpt>
      <trkpt lat="45.89157" lon="7.93738">
        <ele>2027.5</ele>
        <time>2000-01-01T22:45:48.000Z</time>
      </trkpt>
      <trkpt lat="45.89161" lon="7.93754">
        <ele>2033</ele>
        <time>2000-01-01T22:45:58.000Z</time>
      </trkpt>
      <trkpt lat="45.89162" lon="7.93774">
        <ele>2031</ele>
        <time>2000-01-01T22:46:08.000Z</time>
      </trkpt>
      <trkpt lat="45.89163" lon="7.93809">
        <ele>2033</ele>
        <time>2000-01-01T22:46:18.000Z</time>
      </trkpt>
      <trkpt lat="45.89164" lon="7.93827">
        <ele>2036.3</ele>
        <time>2000-01-01T22:46:28.000Z</time>
      </trkpt>
      <trkpt lat="45.89169" lon="7.93845">
        <ele>2033</ele>
        <time>2000-01-01T22:46:38.000Z</time>
      </trkpt>
      <trkpt lat="45.89173" lon="7.93863">
        <ele>2040.9</ele>
        <time>2000-01-01T22:46:48.000Z</time>
      </trkpt>
      <trkpt lat="45.89181" lon="7.93886">
        <ele>2043</ele>
        <time>2000-01-01T22:46:58.000Z</time>
      </trkpt>
      <trkpt lat="45.89187" lon="7.93897">
        <ele>2047.1</ele>
        <time>2000-01-01T22:47:08.000Z</time>
      </trkpt>
      <trkpt lat="45.8919" lon="7.93911">
        <ele>2046</ele>
        <time>2000-01-01T22:47:18.000Z</time>
      </trkpt>
      <trkpt lat="45.89195" lon="7.93925">
        <ele>2048.9</ele>
        <time>2000-01-01T22:47:28.000Z</time>
      </trkpt>
      <trkpt lat="45.89204" lon="7.93937">
        <ele>2050</ele>
        <time>2000-01-01T22:47:38.000Z</time>
      </trkpt>
      <trkpt lat="45.89211" lon="7.93945">
        <ele>2055.6</ele>
        <time>2000-01-01T22:47:48.000Z</time>
      </trkpt>
      <trkpt lat="45.8922" lon="7.93961">
        <ele>2053</ele>
        <time>2000-01-01T22:47:58.000Z</time>
      </trkpt>
      <trkpt lat="45.8923" lon="7.93982">
        <ele>2062</ele>
        <time>2000-01-01T22:48:08.000Z</time>
      </trkpt>
      <trkpt lat="45.89237" lon="7.93992">
        <ele>2063</ele>
        <time>2000-01-01T22:48:18.000Z</time>
      </trkpt>
      <trkpt lat="45.89242" lon="7.94006">
        <ele>2065.7</ele>
        <time>2000-01-01T22:48:28.000Z</time>
      </trkpt>
      <trkpt lat="45.89258" lon="7.94034">
        <ele>2071</ele>
        <time>2000-01-01T22:48:38.000Z</time>
      </trkpt>
      <trkpt lat="45.89265" lon="7.94058">
        <ele>2074.6</ele>
        <time>2000-01-01T22:48:48.000Z</time>
      </trkpt>
      <trkpt lat="45.89268" lon="7.94077">
        <ele>2076</ele>
        <time>2000-01-01T22:48:58.000Z</time>
      </trkpt>
      <trkpt lat="45.89275" lon="7.94093">
        <ele>2079.4</ele>
        <time>2000-01-01T22:49:08.000Z</time>
      </trkpt>
      <trkpt lat="45.89281" lon="7.94108">
        <ele>2085</ele>
        <time>2000-01-01T22:49:18.000Z</time>
      </trkpt>
      <trkpt lat="45.89285" lon="7.94124">
        <ele>2084</ele>
        <time>2000-01-01T22:49:28.000Z</time>
      </trkpt>
      <trkpt lat="45.89287" lon="7.94141">
        <ele>2087</ele>
        <time>2000-01-01T22:49:38.000Z</time>
      </trkpt>
      <trkpt lat="45.89292" lon="7.94153">
        <ele>2087.6</ele>
        <time>2000-01-01T22:49:48.000Z</time>
      </trkpt>
      <trkpt lat="45.89302" lon="7.94164">
        <ele>2096</ele>
        <time>2000-01-01T22:49:58.000Z</time>
      </trkpt>
      <trkpt lat="45.89312" lon="7.94155">
        <ele>2097.2</ele>
        <time>2000-01-01T22:50:08.000Z</time>
      </trkpt>
      <trkpt lat="45.89321" lon="7.94143">
        <ele>2098</ele>
        <time>2000-01-01T22:50:18.000Z</time>
      </trkpt>
      <trkpt lat="45.89322" lon="7.94126">
        <ele>2101.6</ele>
        <time>2000-01-01T22:50:28.000Z</time>
      </trkpt>
      <trkpt lat="45.89319" lon="7.94098">
        <ele>2100</ele>
        <time>2000-01-01T22:50:38.000Z</time>
      </trkpt>
      <trkpt lat="45.8932" lon="7.94077">
        <ele>2103.4</ele>
        <time>2000-01-01T22:50:48.000Z</time>
      </trkpt>
      <trkpt lat="45.89326" lon="7.94065">
        <ele>2106</ele>
        <time>2000-01-01T22:50:58.000Z</time>
      </trkpt>
      <trkpt lat="45.8933" lon="7.94049">
        <ele>2110.5</ele>
        <time>2000-01-01T22:51:08.000Z</time>
      </trkpt>
      <trkpt lat="45.89336" lon="7.94016">
        <ele>2115</ele>
        <time>2000-01-01T22:51:18.000Z</time>
      </trkpt>
      <trkpt lat="45.89337" lon="7.94">
        <ele>2119.2</ele>
        <time>2000-01-01T22:51:28.000Z</time>
      </trkpt>
      <trkpt lat="45.89335" lon="7.93985">
        <ele>2118</ele>
        <time>2000-01-01T22:51:38.000Z</time>
      </trkpt>
      <trkpt lat="45.89335" lon="7.93969">
        <ele>2123.1</ele>
        <time>2000-01-01T22:51:48.000Z</time>
      </trkpt>
      <trkpt lat="45.89343" lon="7.93954">
        <ele>2127</ele>
        <time>2000-01-01T22:51:58.000Z</time>
      </trkpt>
      <trkpt lat="45.89348" lon="7.93938">
        <ele>2131</ele>
        <time>2000-01-01T22:52:08.000Z</time>
      </trkpt>
      <trkpt lat="45.8935" lon="7.93924">
        <ele>2137</ele>
        <time>2000-01-01T22:52:18.000Z</time>
      </trkpt>
      <trkpt lat="45.89349" lon="7.939">
        <ele>2133.6</ele>
        <time>2000-01-01T22:52:28.000Z</time>
      </trkpt>
      <trkpt lat="45.89362" lon="7.93919">
        <ele>2144</ele>
        <time>2000-01-01T22:52:38.000Z</time>
      </trkpt>
      <trkpt lat="45.89365" lon="7.93934">
        <ele>2141</ele>
        <time>2000-01-01T22:52:48.000Z</time>
      </trkpt>
      <trkpt lat="45.89375" lon="7.93957">
        <ele>2146</ele>
        <time>2000-01-01T22:52:58.000Z</time>
      </trkpt>
      <trkpt lat="45.89386" lon="7.93981">
        <ele>2149</ele>
        <time>2000-01-01T22:53:08.000Z</time>
      </trkpt>
      <trkpt lat="45.89391" lon="7.93996">
        <ele>2153.1</ele>
        <time>2000-01-01T22:53:18.000Z</time>
      </trkpt>
      <trkpt lat="45.89402" lon="7.94015">
        <ele>2157</ele>
        <time>2000-01-01T22:53:28.000Z</time>
      </trkpt>
      <trkpt lat="45.89409" lon="7.94024">
        <ele>2160.7</ele>
        <time>2000-01-01T22:53:38.000Z</time>
      </trkpt>
      <trkpt lat="45.89416" lon="7.94037">
        <ele>2161</ele>
        <time>2000-01-01T22:53:48.000Z</time>
      </trkpt>
      <trkpt lat="45.89421" lon="7.94051">
        <ele>2166.7</ele>
        <time>2000-01-01T22:53:58.000Z</time>
      </trkpt>
      <trkpt lat="45.89425" lon="7.94072">
        <ele>2164</ele>
        <time>2000-01-01T22:54:08.000Z</time>
      </trkpt>
      <trkpt lat="45.89432" lon="7.94086">
        <ele>2169.7</ele>
        <time>2000-01-01T22:54:18.000Z</time>
      </trkpt>
      <trkpt lat="45.89444" lon="7.94094">
        <ele>2174</ele>
        <time>2000-01-01T22:54:28.000Z</time>
      </trkpt>
      <trkpt lat="45.89453" lon="7.94104">
        <ele>2179.1</ele>
        <time>2000-01-01T22:54:38.000Z</time>
      </trkpt>
      <trkpt lat="45.89462" lon="7.94111">
        <ele>2184</ele>
        <time>2000-01-01T22:54:48.000Z</time>
      </trkpt>
      <trkpt lat="45.89471" lon="7.94114">
        <ele>2185</ele>
        <time>2000-01-01T22:54:58.000Z</time>
      </trkpt>
      <trkpt lat="45.89478" lon="7.94125">
        <ele>2188</ele>
        <time>2000-01-01T22:55:08.000Z</time>
      </trkpt>
      <trkpt lat="45.89491" lon="7.94136">
        <ele>2192.7</ele>
        <time>2000-01-01T22:55:18.000Z</time>
      </trkpt>
      <trkpt lat="45.89499" lon="7.94146">
        <ele>2197</ele>
        <time>2000-01-01T22:55:28.000Z</time>
      </trkpt>
      <trkpt lat="45.89504" lon="7.94163">
        <ele>2196.8</ele>
        <time>2000-01-01T22:55:38.000Z</time>
      </trkpt>
      <trkpt lat="45.89514" lon="7.94176">
        <ele>2203</ele>
        <time>2000-01-01T22:55:48.000Z</time>
      </trkpt>
      <trkpt lat="45.89523" lon="7.94193">
        <ele>2202.3</ele>
        <time>2000-01-01T22:55:58.000Z</time>
      </trkpt>
      <trkpt lat="45.89531" lon="7.94205">
        <ele>2211</ele>
        <time>2000-01-01T22:56:08.000Z</time>
      </trkpt>
      <trkpt lat="45.89545" lon="7.9423">
        <ele>2214</ele>
        <time>2000-01-01T22:56:18.000Z</time>
      </trkpt>
      <trkpt lat="45.89557" lon="7.94255">
        <ele>2217</ele>
        <time>2000-01-01T22:56:28.000Z</time>
      </trkpt>
      <trkpt lat="45.89558" lon="7.94268">
        <ele>2214.6</ele>
        <time>2000-01-01T22:56:38.000Z</time>
      </trkpt>
      <trkpt lat="45.89563" lon="7.94285">
        <ele>2223</ele>
        <time>2000-01-01T22:56:48.000Z</time>
      </trkpt>
      <trkpt lat="45.89567" lon="7.94302">
        <ele>2220.1</ele>
        <time>2000-01-01T22:56:58.000Z</time>
      </trkpt>
      <trkpt lat="45.8957" lon="7.94321">
        <ele>2228</ele>
        <time>2000-01-01T22:57:08.000Z</time>
      </trkpt>
      <trkpt lat="45.89574" lon="7.94337">
        <ele>2227.2</ele>
        <time>2000-01-01T22:57:18.000Z</time>
      </trkpt>
      <trkpt lat="45.89573" lon="7.94355">
        <ele>2229</ele>
        <time>2000-01-01T22:57:28.000Z</time>
      </trkpt>
      <trkpt lat="45.89572" lon="7.94378">
        <ele>2233</ele>
        <time>2000-01-01T22:57:38.000Z</time>
      </trkpt>
      <trkpt lat="45.89572" lon="7.94399">
        <ele>2232</ele>
        <time>2000-01-01T22:57:48.000Z</time>
      </trkpt>
      <trkpt lat="45.89575" lon="7.94413">
        <ele>2237.7</ele>
        <time>2000-01-01T22:57:58.000Z</time>
      </trkpt>
      <trkpt lat="45.89581" lon="7.94427">
        <ele>2239</ele>
        <time>2000-01-01T22:58:08.000Z</time>
      </trkpt>
      <trkpt lat="45.89585" lon="7.94442">
        <ele>2242.6</ele>
        <time>2000-01-01T22:58:18.000Z</time>
      </trkpt>
      <trkpt lat="45.89592" lon="7.94457">
        <ele>2245</ele>
        <time>2000-01-01T22:58:28.000Z</time>
      </trkpt>
      <trkpt lat="45.89595" lon="7.94471">
        <ele>2247.2</ele>
        <time>2000-01-01T22:58:38.000Z</time>
      </trkpt>
      <trkpt lat="45.89597" lon="7.94488">
        <ele>2248</ele>
        <time>2000-01-01T22:58:48.000Z</time>
      </trkpt>
      <trkpt lat="45.89598" lon="7.94506">
        <ele>2252.7</ele>
        <time>2000-01-01T22:58:58.000Z</time>
      </trkpt>
      <trkpt lat="45.89604" lon="7.94543">
        <ele>2258</ele>
        <time>2000-01-01T22:59:08.000Z</time>
      </trkpt>
      <trkpt lat="45.89607" lon="7.94556">
        <ele>2261.4</ele>
        <time>2000-01-01T22:59:18.000Z</time>
      </trkpt>
      <trkpt lat="45.89607" lon="7.94576">
        <ele>2262</ele>
        <time>2000-01-01T22:59:28.000Z</time>
      </trkpt>
      <trkpt lat="45.8961" lon="7.94592">
        <ele>2268</ele>
        <time>2000-01-01T22:59:38.000Z</time>
      </trkpt>
      <trkpt lat="45.89615" lon="7.94605">
        <ele>2270</ele>
        <time>2000-01-01T22:59:48.000Z</time>
      </trkpt>
      <trkpt lat="45.8962" lon="7.94621">
        <ele>2275</ele>
        <time>2000-01-01T22:59:58.000Z</time>
      </trkpt>
      <trkpt lat="45.89621" lon="7.94643">
        <ele>2280</ele>
        <time>2000-01-01T23:00:08.000Z</time>
      </trkpt>
      <trkpt lat="45.89616" lon="7.94675">
        <ele>2283</ele>
        <time>2000-01-01T23:00:18.000Z</time>
      </trkpt>
      <trkpt lat="45.8961" lon="7.94694">
        <ele>2284.6</ele>
        <time>2000-01-01T23:00:28.000Z</time>
      </trkpt>
      <trkpt lat="45.89605" lon="7.9471">
        <ele>2286</ele>
        <time>2000-01-01T23:00:38.000Z</time>
      </trkpt>
      <trkpt lat="45.89599" lon="7.9473">
        <ele>2291.1</ele>
        <time>2000-01-01T23:00:48.000Z</time>
      </trkpt>
      <trkpt lat="45.89593" lon="7.94742">
        <ele>2292</ele>
        <time>2000-01-01T23:00:58.000Z</time>
      </trkpt>
      <trkpt lat="45.89589" lon="7.9476">
        <ele>2296.8</ele>
        <time>2000-01-01T23:01:08.000Z</time>
      </trkpt>
      <trkpt lat="45.89588" lon="7.94779">
        <ele>2296</ele>
        <time>2000-01-01T23:01:18.000Z</time>
      </trkpt>
      <trkpt lat="45.89586" lon="7.94796">
        <ele>2304.7</ele>
        <time>2000-01-01T23:01:28.000Z</time>
      </trkpt>
      <trkpt lat="45.89586" lon="7.9481">
        <ele>2305</ele>
        <time>2000-01-01T23:01:38.000Z</time>
      </trkpt>
      <trkpt lat="45.89579" lon="7.94826">
        <ele>2309.4</ele>
        <time>2000-01-01T23:01:48.000Z</time>
      </trkpt>
      <trkpt lat="45.89573" lon="7.94836">
        <ele>2306</ele>
        <time>2000-01-01T23:01:58.000Z</time>
      </trkpt>
      <trkpt lat="45.89583" lon="7.94835">
        <ele>2312.3</ele>
        <time>2000-01-01T23:02:08.000Z</time>
      </trkpt>
      <trkpt lat="45.89592" lon="7.94824">
        <ele>2310</ele>
        <time>2000-01-01T23:02:18.000Z</time>
      </trkpt>
      <trkpt lat="45.89603" lon="7.94819">
        <ele>2314.6</ele>
        <time>2000-01-01T23:02:28.000Z</time>
      </trkpt>
      <trkpt lat="45.89622" lon="7.94795">
        <ele>2312</ele>
        <time>2000-01-01T23:02:38.000Z</time>
      </trkpt>
      <trkpt lat="45.89637" lon="7.94787">
        <ele>2317.8</ele>
        <time>2000-01-01T23:02:48.000Z</time>
      </trkpt>
      <trkpt lat="45.89675" lon="7.94767">
        <ele>2319</ele>
        <time>2000-01-01T23:02:58.000Z</time>
      </trkpt>
      <trkpt lat="45.89682" lon="7.94752">
        <ele>2323.5</ele>
        <time>2000-01-01T23:03:08.000Z</time>
      </trkpt>
      <trkpt lat="45.8969" lon="7.94745">
        <ele>2319</ele>
        <time>2000-01-01T23:03:18.000Z</time>
      </trkpt>
      <trkpt lat="45.89703" lon="7.94749">
        <ele>2330.5</ele>
        <time>2000-01-01T23:03:28.000Z</time>
      </trkpt>
      <trkpt lat="45.89714" lon="7.94739">
        <ele>2329</ele>
        <time>2000-01-01T23:03:38.000Z</time>
      </trkpt>
      <trkpt lat="45.89728" lon="7.94729">
        <ele>2333.5</ele>
        <time>2000-01-01T23:03:48.000Z</time>
      </trkpt>
      <trkpt lat="45.89734" lon="7.94719">
        <ele>2333</ele>
        <time>2000-01-01T23:03:58.000Z</time>
      </trkpt>
      <trkpt lat="45.89749" lon="7.94704">
        <ele>2338.3</ele>
        <time>2000-01-01T23:04:08.000Z</time>
      </trkpt>
      <trkpt lat="45.89761" lon="7.94694">
        <ele>2343</ele>
        <time>2000-01-01T23:04:18.000Z</time>
      </trkpt>
      <trkpt lat="45.89773" lon="7.94692">
        <ele>2344.1</ele>
        <time>2000-01-01T23:04:28.000Z</time>
      </trkpt>
      <trkpt lat="45.89776" lon="7.94707">
        <ele>2348</ele>
        <time>2000-01-01T23:04:38.000Z</time>
      </trkpt>
      <trkpt lat="45.8978" lon="7.94722">
        <ele>2348.8</ele>
        <time>2000-01-01T23:04:48.000Z</time>
      </trkpt>
      <trkpt lat="45.89782" lon="7.94736">
        <ele>2357</ele>
        <time>2000-01-01T23:04:58.000Z</time>
      </trkpt>
      <trkpt lat="45.89777" lon="7.94749">
        <ele>2352.7</ele>
        <time>2000-01-01T23:05:08.000Z</time>
      </trkpt>
      <trkpt lat="45.89768" lon="7.94791">
        <ele>2360</ele>
        <time>2000-01-01T23:05:18.000Z</time>
      </trkpt>
      <trkpt lat="45.89755" lon="7.94825">
        <ele>2362</ele>
        <time>2000-01-01T23:05:28.000Z</time>
      </trkpt>
      <trkpt lat="45.89751" lon="7.94839">
        <ele>2368.7</ele>
        <time>2000-01-01T23:05:38.000Z</time>
      </trkpt>
      <trkpt lat="45.89748" lon="7.94853">
        <ele>2365</ele>
        <time>2000-01-01T23:05:48.000Z</time>
      </trkpt>
      <trkpt lat="45.8976" lon="7.94855">
        <ele>2374.7</ele>
        <time>2000-01-01T23:05:58.000Z</time>
      </trkpt>
      <trkpt lat="45.89775" lon="7.94852">
        <ele>2375</ele>
        <time>2000-01-01T23:06:08.000Z</time>
      </trkpt>
      <trkpt lat="45.89784" lon="7.94848">
        <ele>2379.4</ele>
        <time>2000-01-01T23:06:18.000Z</time>
      </trkpt>
      <trkpt lat="45.89794" lon="7.94838">
        <ele>2377</ele>
        <time>2000-01-01T23:06:28.000Z</time>
      </trkpt>
      <trkpt lat="45.89801" lon="7.94829">
        <ele>2381.9</ele>
        <time>2000-01-01T23:06:38.000Z</time>
      </trkpt>
      <trkpt lat="45.89809" lon="7.94821">
        <ele>2379</ele>
        <time>2000-01-01T23:06:48.000Z</time>
      </trkpt>
      <trkpt lat="45.8982" lon="7.94808">
        <ele>2387.4</ele>
        <time>2000-01-01T23:06:58.000Z</time>
      </trkpt>
      <trkpt lat="45.8983" lon="7.94799">
        <ele>2381</ele>
        <time>2000-01-01T23:07:08.000Z</time>
      </trkpt>
      <trkpt lat="45.89841" lon="7.94794">
        <ele>2391.9</ele>
        <time>2000-01-01T23:07:18.000Z</time>
      </trkpt>
      <trkpt lat="45.8986" lon="7.94781">
        <ele>2391</ele>
        <time>2000-01-01T23:07:28.000Z</time>
      </trkpt>
      <trkpt lat="45.89875" lon="7.94778">
        <ele>2398</ele>
        <time>2000-01-01T23:07:38.000Z</time>
      </trkpt>
      <trkpt lat="45.89885" lon="7.94778">
        <ele>2401</ele>
        <time>2000-01-01T23:07:48.000Z</time>
      </trkpt>
      <trkpt lat="45.89894" lon="7.94773">
        <ele>2402.6</ele>
        <time>2000-01-01T23:07:58.000Z</time>
      </trkpt>
      <trkpt lat="45.89896" lon="7.9479">
        <ele>2407</ele>
        <time>2000-01-01T23:08:08.000Z</time>
      </trkpt>
      <trkpt lat="45.89888" lon="7.94824">
        <ele>2408</ele>
        <time>2000-01-01T23:08:18.000Z</time>
      </trkpt>
      <trkpt lat="45.8988" lon="7.9486">
        <ele>2410</ele>
        <time>2000-01-01T23:08:28.000Z</time>
      </trkpt>
      <trkpt lat="45.89881" lon="7.94883">
        <ele>2417.6</ele>
        <time>2000-01-01T23:08:38.000Z</time>
      </trkpt>
      <trkpt lat="45.89885" lon="7.94896">
        <ele>2419</ele>
        <time>2000-01-01T23:08:48.000Z</time>
      </trkpt>
      <trkpt lat="45.89885" lon="7.94917">
        <ele>2422.7</ele>
        <time>2000-01-01T23:08:58.000Z</time>
      </trkpt>
      <trkpt lat="45.8988" lon="7.94932">
        <ele>2426</ele>
        <time>2000-01-01T23:09:08.000Z</time>
      </trkpt>
      <trkpt lat="45.89878" lon="7.94947">
        <ele>2428.1</ele>
        <time>2000-01-01T23:09:18.000Z</time>
      </trkpt>
      <trkpt lat="45.89871" lon="7.94966">
        <ele>2428</ele>
        <time>2000-01-01T23:09:28.000Z</time>
      </trkpt>
      <trkpt lat="45.89867" lon="7.94982">
        <ele>2432.6</ele>
        <time>2000-01-01T23:09:38.000Z</time>
      </trkpt>
      <trkpt lat="45.89861" lon="7.94998">
        <ele>2429</ele>
        <time>2000-01-01T23:09:48.000Z</time>
      </trkpt>
      <trkpt lat="45.89858" lon="7.95013">
        <ele>2437</ele>
        <time>2000-01-01T23:09:58.000Z</time>
      </trkpt>
      <trkpt lat="45.89853" lon="7.9505">
        <ele>2439</ele>
        <time>2000-01-01T23:10:08.000Z</time>
      </trkpt>
      <trkpt lat="45.89848" lon="7.95066">
        <ele>2445.1</ele>
        <time>2000-01-01T23:10:18.000Z</time>
      </trkpt>
      <trkpt lat="45.89846" lon="7.95082">
        <ele>2443</ele>
        <time>2000-01-01T23:10:28.000Z</time>
      </trkpt>
      <trkpt lat="45.89857" lon="7.95075">
        <ele>2449.3</ele>
        <time>2000-01-01T23:10:38.000Z</time>
      </trkpt>
      <trkpt lat="45.89868" lon="7.95067">
        <ele>2444</ele>
        <time>2000-01-01T23:10:48.000Z</time>
      </trkpt>
      <trkpt lat="45.8988" lon="7.95062">
        <ele>2453.1</ele>
        <time>2000-01-01T23:10:58.000Z</time>
      </trkpt>
      <trkpt lat="45.8989" lon="7.95057">
        <ele>2449</ele>
        <time>2000-01-01T23:11:08.000Z</time>
      </trkpt>
      <trkpt lat="45.899" lon="7.95057">
        <ele>2456</ele>
        <time>2000-01-01T23:11:18.000Z</time>
      </trkpt>
      <trkpt lat="45.8993" lon="7.95051">
        <ele>2458</ele>
        <time>2000-01-01T23:11:28.000Z</time>
      </trkpt>
      <trkpt lat="45.89945" lon="7.95046">
        <ele>2462.4</ele>
        <time>2000-01-01T23:11:38.000Z</time>
      </trkpt>
      <trkpt lat="45.89957" lon="7.95042">
        <ele>2464</ele>
        <time>2000-01-01T23:11:48.000Z</time>
      </trkpt>
      <trkpt lat="45.89967" lon="7.95044">
        <ele>2468.5</ele>
        <time>2000-01-01T23:11:58.000Z</time>
      </trkpt>
      <trkpt lat="45.89977" lon="7.95039">
        <ele>2469</ele>
        <time>2000-01-01T23:12:08.000Z</time>
      </trkpt>
      <trkpt lat="45.89991" lon="7.95026">
        <ele>2472.5</ele>
        <time>2000-01-01T23:12:18.000Z</time>
      </trkpt>
      <trkpt lat="45.90004" lon="7.95007">
        <ele>2473</ele>
        <time>2000-01-01T23:12:28.000Z</time>
      </trkpt>
      <trkpt lat="45.90016" lon="7.95001">
        <ele>2477.9</ele>
        <time>2000-01-01T23:12:38.000Z</time>
      </trkpt>
      <trkpt lat="45.90025" lon="7.94991">
        <ele>2478</ele>
        <time>2000-01-01T23:12:48.000Z</time>
      </trkpt>
      <trkpt lat="45.90034" lon="7.9498">
        <ele>2483.1</ele>
        <time>2000-01-01T23:12:58.000Z</time>
      </trkpt>
      <trkpt lat="45.9004" lon="7.94963">
        <ele>2478</ele>
        <time>2000-01-01T23:13:08.000Z</time>
      </trkpt>
      <trkpt lat="45.90044" lon="7.94948">
        <ele>2484.2</ele>
        <time>2000-01-01T23:13:18.000Z</time>
      </trkpt>
      <trkpt lat="45.90049" lon="7.94965">
        <ele>2482</ele>
        <time>2000-01-01T23:13:28.000Z</time>
      </trkpt>
      <trkpt lat="45.90051" lon="7.94984">
        <ele>2490.8</ele>
        <time>2000-01-01T23:13:38.000Z</time>
      </trkpt>
      <trkpt lat="45.90048" lon="7.95039">
        <ele>2491</ele>
        <time>2000-01-01T23:13:48.000Z</time>
      </trkpt>
      <trkpt lat="45.90053" lon="7.95091">
        <ele>2506</ele>
        <time>2000-01-01T23:13:58.000Z</time>
      </trkpt>
      <trkpt lat="45.90059" lon="7.9511">
        <ele>2512.9</ele>
        <time>2000-01-01T23:14:08.000Z</time>
      </trkpt>
      <trkpt lat="45.90067" lon="7.95127">
        <ele>2516</ele>
        <time>2000-01-01T23:14:18.000Z</time>
      </trkpt>
      <trkpt lat="45.90072" lon="7.95143">
        <ele>2520.6</ele>
        <time>2000-01-01T23:14:28.000Z</time>
      </trkpt>
      <trkpt lat="45.90074" lon="7.95157">
        <ele>2526</ele>
        <time>2000-01-01T23:14:38.000Z</time>
      </trkpt>
      <trkpt lat="45.90074" lon="7.95172">
        <ele>2527.5</ele>
        <time>2000-01-01T23:14:48.000Z</time>
      </trkpt>
      <trkpt lat="45.90075" lon="7.95188">
        <ele>2531</ele>
        <time>2000-01-01T23:14:58.000Z</time>
      </trkpt>
      <trkpt lat="45.90077" lon="7.95207">
        <ele>2533.1</ele>
        <time>2000-01-01T23:15:08.000Z</time>
      </trkpt>
      <trkpt lat="45.90077" lon="7.95225">
        <ele>2537</ele>
        <time>2000-01-01T23:15:18.000Z</time>
      </trkpt>
      <trkpt lat="45.90076" lon="7.95245">
        <ele>2539.7</ele>
        <time>2000-01-01T23:15:28.000Z</time>
      </trkpt>
      <trkpt lat="45.90077" lon="7.95268">
        <ele>2542</ele>
        <time>2000-01-01T23:15:38.000Z</time>
      </trkpt>
      <trkpt lat="45.90074" lon="7.95288">
        <ele>2546.8</ele>
        <time>2000-01-01T23:15:48.000Z</time>
      </trkpt>
      <trkpt lat="45.90073" lon="7.95304">
        <ele>2544</ele>
        <time>2000-01-01T23:15:58.000Z</time>
      </trkpt>
      <trkpt lat="45.9007" lon="7.95324">
        <ele>2550.3</ele>
        <time>2000-01-01T23:16:08.000Z</time>
      </trkpt>
      <trkpt lat="45.90058" lon="7.95359">
        <ele>2547</ele>
        <time>2000-01-01T23:16:18.000Z</time>
      </trkpt>
      <trkpt lat="45.90052" lon="7.95381">
        <ele>2555.7</ele>
        <time>2000-01-01T23:16:28.000Z</time>
      </trkpt>
      <trkpt lat="45.90053" lon="7.95397">
        <ele>2553</ele>
        <time>2000-01-01T23:16:38.000Z</time>
      </trkpt>
      <trkpt lat="45.90073" lon="7.95394">
        <ele>2562</ele>
        <time>2000-01-01T23:16:48.000Z</time>
      </trkpt>
      <trkpt lat="45.90084" lon="7.95392">
        <ele>2568.2</ele>
        <time>2000-01-01T23:16:58.000Z</time>
      </trkpt>
      <trkpt lat="45.90095" lon="7.95388">
        <ele>2568</ele>
        <time>2000-01-01T23:17:08.000Z</time>
      </trkpt>
      <trkpt lat="45.90106" lon="7.95388">
        <ele>2576.6</ele>
        <time>2000-01-01T23:17:18.000Z</time>
      </trkpt>
      <trkpt lat="45.90099" lon="7.95408">
        <ele>2572</ele>
        <time>2000-01-01T23:17:28.000Z</time>
      </trkpt>
      <trkpt lat="45.90095" lon="7.95445">
        <ele>2575</ele>
        <time>2000-01-01T23:17:38.000Z</time>
      </trkpt>
      <trkpt lat="45.90099" lon="7.9546">
        <ele>2587</ele>
        <time>2000-01-01T23:17:48.000Z</time>
      </trkpt>
      <trkpt lat="45.90102" lon="7.95473">
        <ele>2582</ele>
        <time>2000-01-01T23:17:58.000Z</time>
      </trkpt>
      <trkpt lat="45.90104" lon="7.95492">
        <ele>2591.7</ele>
        <time>2000-01-01T23:18:08.000Z</time>
      </trkpt>
      <trkpt lat="45.9011" lon="7.95534">
        <ele>2586</ele>
        <time>2000-01-01T23:18:18.000Z</time>
      </trkpt>
      <trkpt lat="45.90121" lon="7.95549">
        <ele>2604.8</ele>
        <time>2000-01-01T23:18:28.000Z</time>
      </trkpt>
      <trkpt lat="45.90123" lon="7.95564">
        <ele>2603</ele>
        <time>2000-01-01T23:18:38.000Z</time>
      </trkpt>
      <trkpt lat="45.90137" lon="7.956">
        <ele>2612</ele>
        <time>2000-01-01T23:18:48.000Z</time>
      </trkpt>
      <trkpt lat="45.90157" lon="7.95656">
        <ele>2627</ele>
        <time>2000-01-01T23:18:58.000Z</time>
      </trkpt>
      <trkpt lat="45.90163" lon="7.95669">
        <ele>2630.3</ele>
        <time>2000-01-01T23:19:08.000Z</time>
      </trkpt>
      <trkpt lat="45.9017" lon="7.95702">
        <ele>2643</ele>
        <time>2000-01-01T23:19:18.000Z</time>
      </trkpt>
      <trkpt lat="45.9017" lon="7.95721">
        <ele>2640.5</ele>
        <time>2000-01-01T23:19:28.000Z</time>
      </trkpt>
      <trkpt lat="45.90171" lon="7.95735">
        <ele>2643</ele>
        <time>2000-01-01T23:19:38.000Z</time>
      </trkpt>
      <trkpt lat="45.90177" lon="7.95725">
        <ele>2646.6</ele>
        <time>2000-01-01T23:19:48.000Z</time>
      </trkpt>
      <trkpt lat="45.9018" lon="7.95707">
        <ele>2652</ele>
        <time>2000-01-01T23:19:58.000Z</time>
      </trkpt>
      <trkpt lat="45.90183" lon="7.95687">
        <ele>2647.7</ele>
        <time>2000-01-01T23:20:08.000Z</time>
      </trkpt>
      <trkpt lat="45.90192" lon="7.95667">
        <ele>2663</ele>
        <time>2000-01-01T23:20:18.000Z</time>
      </trkpt>
      <trkpt lat="45.90194" lon="7.95652">
        <ele>2660.3</ele>
        <time>2000-01-01T23:20:28.000Z</time>
      </trkpt>
      <trkpt lat="45.90201" lon="7.95663">
        <ele>2667</ele>
        <time>2000-01-01T23:20:38.000Z</time>
      </trkpt>
      <trkpt lat="45.90202" lon="7.9568">
        <ele>2670.6</ele>
        <time>2000-01-01T23:20:48.000Z</time>
      </trkpt>
      <trkpt lat="45.90205" lon="7.95694">
        <ele>2671</ele>
        <time>2000-01-01T23:20:58.000Z</time>
      </trkpt>
      <trkpt lat="45.90212" lon="7.9571">
        <ele>2677.5</ele>
        <time>2000-01-01T23:21:08.000Z</time>
      </trkpt>
      <trkpt lat="45.90215" lon="7.95731">
        <ele>2677</ele>
        <time>2000-01-01T23:21:18.000Z</time>
      </trkpt>
      <trkpt lat="45.90222" lon="7.95745">
        <ele>2684</ele>
        <time>2000-01-01T23:21:28.000Z</time>
      </trkpt>
      <trkpt lat="45.90224" lon="7.95762">
        <ele>2683</ele>
        <time>2000-01-01T23:21:38.000Z</time>
      </trkpt>
      <trkpt lat="45.90225" lon="7.95778">
        <ele>2688.8</ele>
        <time>2000-01-01T23:21:48.000Z</time>
      </trkpt>
      <trkpt lat="45.90231" lon="7.95799">
        <ele>2690</ele>
        <time>2000-01-01T23:21:58.000Z</time>
      </trkpt>
      <trkpt lat="45.90236" lon="7.95816">
        <ele>2705.8</ele>
        <time>2000-01-01T23:22:08.000Z</time>
      </trkpt>
      <trkpt lat="45.90232" lon="7.95831">
        <ele>2692</ele>
        <time>2000-01-01T23:22:18.000Z</time>
      </trkpt>
      <trkpt lat="45.90231" lon="7.95848">
        <ele>2706.9</ele>
        <time>2000-01-01T23:22:28.000Z</time>
      </trkpt>
      <trkpt lat="45.90232" lon="7.95867">
        <ele>2697</ele>
        <time>2000-01-01T23:22:38.000Z</time>
      </trkpt>
      <trkpt lat="45.9023" lon="7.95889">
        <ele>2713.2</ele>
        <time>2000-01-01T23:22:48.000Z</time>
      </trkpt>
      <trkpt lat="45.90226" lon="7.95903">
        <ele>2700</ele>
        <time>2000-01-01T23:22:58.000Z</time>
      </trkpt>
      <trkpt lat="45.90235" lon="7.95907">
        <ele>2723</ele>
        <time>2000-01-01T23:23:08.000Z</time>
      </trkpt>
      <trkpt lat="45.9024" lon="7.95888">
        <ele>2700</ele>
        <time>2000-01-01T23:23:18.000Z</time>
      </trkpt>
      <trkpt lat="45.9024" lon="7.95868">
        <ele>2717.8</ele>
        <time>2000-01-01T23:23:28.000Z</time>
      </trkpt>
      <trkpt lat="45.90244" lon="7.95852">
        <ele>2704</ele>
        <time>2000-01-01T23:23:38.000Z</time>
      </trkpt>
      <trkpt lat="45.90251" lon="7.95839">
        <ele>2723.5</ele>
        <time>2000-01-01T23:23:48.000Z</time>
      </trkpt>
      <trkpt lat="45.90271" lon="7.9582">
        <ele>2708</ele>
        <time>2000-01-01T23:23:58.000Z</time>
      </trkpt>
      <trkpt lat="45.90283" lon="7.95798">
        <ele>2713</ele>
        <time>2000-01-01T23:24:08.000Z</time>
      </trkpt>
      <trkpt lat="45.90295" lon="7.95807">
        <ele>2729.3</ele>
        <time>2000-01-01T23:24:18.000Z</time>
      </trkpt>
      <trkpt lat="45.90303" lon="7.95818">
        <ele>2715</ele>
        <time>2000-01-01T23:24:28.000Z</time>
      </trkpt>
      <trkpt lat="45.90311" lon="7.95823">
        <ele>2729.6</ele>
        <time>2000-01-01T23:24:38.000Z</time>
      </trkpt>
      <trkpt lat="45.90331" lon="7.95831">
        <ele>2715</ele>
        <time>2000-01-01T23:24:48.000Z</time>
      </trkpt>
      <trkpt lat="45.90344" lon="7.95829">
        <ele>2724.7</ele>
        <time>2000-01-01T23:24:58.000Z</time>
      </trkpt>
      <trkpt lat="45.90362" lon="7.95825">
        <ele>2715</ele>
        <time>2000-01-01T23:25:08.000Z</time>
      </trkpt>
      <trkpt lat="45.90374" lon="7.95821">
        <ele>2716.5</ele>
        <time>2000-01-01T23:25:18.000Z</time>
      </trkpt>
      <trkpt lat="45.90381" lon="7.95806">
        <ele>2701</ele>
        <time>2000-01-01T23:25:28.000Z</time>
      </trkpt>
      <trkpt lat="45.90393" lon="7.95797">
        <ele>2707.7</ele>
        <time>2000-01-01T23:25:38.000Z</time>
      </trkpt>
      <trkpt lat="45.90393" lon="7.95776">
        <ele>2690</ele>
        <time>2000-01-01T23:25:48.000Z</time>
      </trkpt>
      <trkpt lat="45.90388" lon="7.95764">
        <ele>2702.1</ele>
        <time>2000-01-01T23:25:58.000Z</time>
      </trkpt>
      <trkpt lat="45.90399" lon="7.95761">
        <ele>2689</ele>
        <time>2000-01-01T23:26:08.000Z</time>
      </trkpt>
      <trkpt lat="45.90409" lon="7.95754">
        <ele>2698.3</ele>
        <time>2000-01-01T23:26:18.000Z</time>
      </trkpt>
      <trkpt lat="45.90405" lon="7.95738">
        <ele>2680</ele>
        <time>2000-01-01T23:26:28.000Z</time>
      </trkpt>
      <trkpt lat="45.90413" lon="7.95724">
        <ele>2688.9</ele>
        <time>2000-01-01T23:26:38.000Z</time>
      </trkpt>
      <trkpt lat="45.90424" lon="7.95712">
        <ele>2664</ele>
        <time>2000-01-01T23:26:48.000Z</time>
      </trkpt>
      <trkpt lat="45.90435" lon="7.95702">
        <ele>2677.8</ele>
        <time>2000-01-01T23:26:58.000Z</time>
      </trkpt>
      <trkpt lat="45.90446" lon="7.9571">
        <ele>2648</ele>
        <time>2000-01-01T23:27:08.000Z</time>
      </trkpt>
      <trkpt lat="45.90453" lon="7.95697">
        <ele>2671</ele>
        <time>2000-01-01T23:27:18.000Z</time>
      </trkpt>
      <trkpt lat="45.90467" lon="7.95674">
        <ele>2634</ele>
        <time>2000-01-01T23:27:28.000Z</time>
      </trkpt>
      <trkpt lat="45.90477" lon="7.95668">
        <ele>2658</ele>
        <time>2000-01-01T23:27:38.000Z</time>
      </trkpt>
      <trkpt lat="45.90472" lon="7.95651">
        <ele>2641</ele>
        <time>2000-01-01T23:27:48.000Z</time>
      </trkpt>
      <trkpt lat="45.90462" lon="7.95641">
        <ele>2655.3</ele>
        <time>2000-01-01T23:27:58.000Z</time>
      </trkpt>
      <trkpt lat="45.90448" lon="7.9564">
        <ele>2639</ele>
        <time>2000-01-01T23:28:08.000Z</time>
      </trkpt>
      <trkpt lat="45.90463" lon="7.95617">
        <ele>2637</ele>
        <time>2000-01-01T23:28:18.000Z</time>
      </trkpt>
      <trkpt lat="45.90451" lon="7.95608">
        <ele>2644.2</ele>
        <time>2000-01-01T23:28:28.000Z</time>
      </trkpt>
      <trkpt lat="45.90462" lon="7.95603">
        <ele>2637</ele>
        <time>2000-01-01T23:28:38.000Z</time>
      </trkpt>
      <trkpt lat="45.90454" lon="7.95585">
        <ele>2639</ele>
        <time>2000-01-01T23:28:48.000Z</time>
      </trkpt>
      <trkpt lat="45.90476" lon="7.95574">
        <ele>2633</ele>
        <time>2000-01-01T23:28:58.000Z</time>
      </trkpt>
      <trkpt lat="45.90485" lon="7.95585">
        <ele>2629.6</ele>
        <time>2000-01-01T23:29:08.000Z</time>
      </trkpt>
      <trkpt lat="45.90503" lon="7.9559">
        <ele>2612</ele>
        <time>2000-01-01T23:29:18.000Z</time>
      </trkpt>
      <trkpt lat="45.90499" lon="7.95565">
        <ele>2618.8</ele>
        <time>2000-01-01T23:29:28.000Z</time>
      </trkpt>
      <trkpt lat="45.90514" lon="7.95557">
        <ele>2609</ele>
        <time>2000-01-01T23:29:38.000Z</time>
      </trkpt>
      <trkpt lat="45.90524" lon="7.95562">
        <ele>2609.4</ele>
        <time>2000-01-01T23:29:48.000Z</time>
      </trkpt>
      <trkpt lat="45.90534" lon="7.95572">
        <ele>2590</ele>
        <time>2000-01-01T23:29:58.000Z</time>
      </trkpt>
      <trkpt lat="45.90545" lon="7.95584">
        <ele>2602.1</ele>
        <time>2000-01-01T23:30:08.000Z</time>
      </trkpt>
      <trkpt lat="45.90551" lon="7.95604">
        <ele>2569</ele>
        <time>2000-01-01T23:30:18.000Z</time>
      </trkpt>
      <trkpt lat="45.90552" lon="7.95588">
        <ele>2598.2</ele>
        <time>2000-01-01T23:30:28.000Z</time>
      </trkpt>
      <trkpt lat="45.90562" lon="7.956">
        <ele>2566</ele>
        <time>2000-01-01T23:30:38.000Z</time>
      </trkpt>
      <trkpt lat="45.90565" lon="7.95614">
        <ele>2590.1</ele>
        <time>2000-01-01T23:30:48.000Z</time>
      </trkpt>
      <trkpt lat="45.90556" lon="7.9563">
        <ele>2563</ele>
        <time>2000-01-01T23:30:58.000Z</time>
      </trkpt>
      <trkpt lat="45.90571" lon="7.95629">
        <ele>2579.5</ele>
        <time>2000-01-01T23:31:08.000Z</time>
      </trkpt>
      <trkpt lat="45.90559" lon="7.95639">
        <ele>2563</ele>
        <time>2000-01-01T23:31:18.000Z</time>
      </trkpt>
      <trkpt lat="45.90556" lon="7.95652">
        <ele>2578.9</ele>
        <time>2000-01-01T23:31:28.000Z</time>
      </trkpt>
      <trkpt lat="45.90568" lon="7.95649">
        <ele>2552</ele>
        <time>2000-01-01T23:31:38.000Z</time>
      </trkpt>
      <trkpt lat="45.90578" lon="7.95641">
        <ele>2570.5</ele>
        <time>2000-01-01T23:31:48.000Z</time>
      </trkpt>
      <trkpt lat="45.90591" lon="7.95642">
        <ele>2541</ele>
        <time>2000-01-01T23:31:58.000Z</time>
      </trkpt>
      <trkpt lat="45.90589" lon="7.95655">
        <ele>2557.4</ele>
        <time>2000-01-01T23:32:08.000Z</time>
      </trkpt>
      <trkpt lat="45.90583" lon="7.95678">
        <ele>2530</ele>
        <time>2000-01-01T23:32:18.000Z</time>
      </trkpt>
      <trkpt lat="45.90599" lon="7.9567">
        <ele>2544.3</ele>
        <time>2000-01-01T23:32:28.000Z</time>
      </trkpt>
      <trkpt lat="45.90608" lon="7.9567">
        <ele>2515</ele>
        <time>2000-01-01T23:32:38.000Z</time>
      </trkpt>
      <trkpt lat="45.9062" lon="7.95659">
        <ele>2534</ele>
        <time>2000-01-01T23:32:48.000Z</time>
      </trkpt>
      <trkpt lat="45.90622" lon="7.95672">
        <ele>2515</ele>
        <time>2000-01-01T23:32:58.000Z</time>
      </trkpt>
      <trkpt lat="45.90613" lon="7.95688">
        <ele>2527.6</ele>
        <time>2000-01-01T23:33:08.000Z</time>
      </trkpt>
      <trkpt lat="45.90598" lon="7.95706">
        <ele>2515</ele>
        <time>2000-01-01T23:33:18.000Z</time>
      </trkpt>
      <trkpt lat="45.90587" lon="7.95713">
        <ele>2527.1</ele>
        <time>2000-01-01T23:33:28.000Z</time>
      </trkpt>
      <trkpt lat="45.90601" lon="7.95717">
        <ele>2505</ele>
        <time>2000-01-01T23:33:38.000Z</time>
      </trkpt>
      <trkpt lat="45.90597" lon="7.95728">
        <ele>2515.5</ele>
        <time>2000-01-01T23:33:48.000Z</time>
      </trkpt>
      <trkpt lat="45.90608" lon="7.95728">
        <ele>2503</ele>
        <time>2000-01-01T23:33:58.000Z</time>
      </trkpt>
      <trkpt lat="45.9062" lon="7.95723">
        <ele>2506.9</ele>
        <time>2000-01-01T23:34:08.000Z</time>
      </trkpt>
      <trkpt lat="45.90613" lon="7.95743">
        <ele>2489</ele>
        <time>2000-01-01T23:34:18.000Z</time>
      </trkpt>
      <trkpt lat="45.90638" lon="7.95728">
        <ele>2479</ele>
        <time>2000-01-01T23:34:28.000Z</time>
      </trkpt>
      <trkpt lat="45.90631" lon="7.95746">
        <ele>2492.8</ele>
        <time>2000-01-01T23:34:38.000Z</time>
      </trkpt>
      <trkpt lat="45.9064" lon="7.95738">
        <ele>2468</ele>
        <time>2000-01-01T23:34:48.000Z</time>
      </trkpt>
      <trkpt lat="45.90637" lon="7.95753">
        <ele>2487.8</ele>
        <time>2000-01-01T23:34:58.000Z</time>
      </trkpt>
      <trkpt lat="45.90648" lon="7.95746">
        <ele>2465</ele>
        <time>2000-01-01T23:35:08.000Z</time>
      </trkpt>
      <trkpt lat="45.90648" lon="7.95772">
        <ele>2477.4</ele>
        <time>2000-01-01T23:35:18.000Z</time>
      </trkpt>
      <trkpt lat="45.90659" lon="7.95773">
        <ele>2451</ele>
        <time>2000-01-01T23:35:28.000Z</time>
      </trkpt>
      <trkpt lat="45.90668" lon="7.95754">
        <ele>2470.8</ele>
        <time>2000-01-01T23:35:38.000Z</time>
      </trkpt>
      <trkpt lat="45.90674" lon="7.95737">
        <ele>2446</ele>
        <time>2000-01-01T23:35:48.000Z</time>
      </trkpt>
      <trkpt lat="45.90678" lon="7.95722">
        <ele>2464.9</ele>
        <time>2000-01-01T23:35:58.000Z</time>
      </trkpt>
      <trkpt lat="45.90681" lon="7.9571">
        <ele>2443</ele>
        <time>2000-01-01T23:36:08.000Z</time>
      </trkpt>
      <trkpt lat="45.90696" lon="7.95692">
        <ele>2442</ele>
        <time>2000-01-01T23:36:18.000Z</time>
      </trkpt>
      <trkpt lat="45.90702" lon="7.95673">
        <ele>2456.4</ele>
        <time>2000-01-01T23:36:28.000Z</time>
      </trkpt>
      <trkpt lat="45.90706" lon="7.95657">
        <ele>2442</ele>
        <time>2000-01-01T23:36:38.000Z</time>
      </trkpt>
      <trkpt lat="45.90709" lon="7.95683">
        <ele>2450.3</ele>
        <time>2000-01-01T23:36:48.000Z</time>
      </trkpt>
      <trkpt lat="45.90709" lon="7.95704">
        <ele>2431</ele>
        <time>2000-01-01T23:36:58.000Z</time>
      </trkpt>
      <trkpt lat="45.90721" lon="7.95696">
        <ele>2441.6</ele>
        <time>2000-01-01T23:37:08.000Z</time>
      </trkpt>
      <trkpt lat="45.90728" lon="7.95674">
        <ele>2427</ele>
        <time>2000-01-01T23:37:18.000Z</time>
      </trkpt>
      <trkpt lat="45.90731" lon="7.95657">
        <ele>2436.1</ele>
        <time>2000-01-01T23:37:28.000Z</time>
      </trkpt>
      <trkpt lat="45.90737" lon="7.95638">
        <ele>2424</ele>
        <time>2000-01-01T23:37:38.000Z</time>
      </trkpt>
      <trkpt lat="45.90737" lon="7.95659">
        <ele>2431.4</ele>
        <time>2000-01-01T23:37:48.000Z</time>
      </trkpt>
      <trkpt lat="45.90739" lon="7.95677">
        <ele>2416</ele>
        <time>2000-01-01T23:37:58.000Z</time>
      </trkpt>
      <trkpt lat="45.9074" lon="7.95692">
        <ele>2427.6</ele>
        <time>2000-01-01T23:38:08.000Z</time>
      </trkpt>
      <trkpt lat="45.90751" lon="7.95676">
        <ele>2401</ele>
        <time>2000-01-01T23:38:18.000Z</time>
      </trkpt>
      <trkpt lat="45.90761" lon="7.95668">
        <ele>2414.2</ele>
        <time>2000-01-01T23:38:28.000Z</time>
      </trkpt>
      <trkpt lat="45.90765" lon="7.95684">
        <ele>2392</ele>
        <time>2000-01-01T23:38:38.000Z</time>
      </trkpt>
      <trkpt lat="45.90777" lon="7.95679">
        <ele>2404</ele>
        <time>2000-01-01T23:38:48.000Z</time>
      </trkpt>
      <trkpt lat="45.90778" lon="7.95699">
        <ele>2383</ele>
        <time>2000-01-01T23:38:58.000Z</time>
      </trkpt>
      <trkpt lat="45.90775" lon="7.95712">
        <ele>2400.8</ele>
        <time>2000-01-01T23:39:08.000Z</time>
      </trkpt>
      <trkpt lat="45.90768" lon="7.9573">
        <ele>2383</ele>
        <time>2000-01-01T23:39:18.000Z</time>
      </trkpt>
      <trkpt lat="45.90762" lon="7.95742">
        <ele>2398.6</ele>
        <time>2000-01-01T23:39:28.000Z</time>
      </trkpt>
      <trkpt lat="45.90758" lon="7.95758">
        <ele>2378</ele>
        <time>2000-01-01T23:39:38.000Z</time>
      </trkpt>
      <trkpt lat="45.90755" lon="7.95776">
        <ele>2391.5</ele>
        <time>2000-01-01T23:39:48.000Z</time>
      </trkpt>
      <trkpt lat="45.90771" lon="7.95765">
        <ele>2373</ele>
        <time>2000-01-01T23:39:58.000Z</time>
      </trkpt>
      <trkpt lat="45.90779" lon="7.95756">
        <ele>2385.4</ele>
        <time>2000-01-01T23:40:08.000Z</time>
      </trkpt>
      <trkpt lat="45.9078" lon="7.9577">
        <ele>2368</ele>
        <time>2000-01-01T23:40:18.000Z</time>
      </trkpt>
      <trkpt lat="45.90779" lon="7.95791">
        <ele>2377.4</ele>
        <time>2000-01-01T23:40:28.000Z</time>
      </trkpt>
      <trkpt lat="45.90792" lon="7.95777">
        <ele>2366</ele>
        <time>2000-01-01T23:40:38.000Z</time>
      </trkpt>
      <trkpt lat="45.90795" lon="7.95793">
        <ele>2366.9</ele>
        <time>2000-01-01T23:40:48.000Z</time>
      </trkpt>
      <trkpt lat="45.90793" lon="7.95808">
        <ele>2365</ele>
        <time>2000-01-01T23:40:58.000Z</time>
      </trkpt>
      <trkpt lat="45.90793" lon="7.95826">
        <ele>2363.6</ele>
        <time>2000-01-01T23:41:08.000Z</time>
      </trkpt>
      <trkpt lat="45.90796" lon="7.9585">
        <ele>2364</ele>
        <time>2000-01-01T23:41:18.000Z</time>
      </trkpt>
      <trkpt lat="45.90794" lon="7.95863">
        <ele>2359.1</ele>
        <time>2000-01-01T23:41:28.000Z</time>
      </trkpt>
      <trkpt lat="45.90797" lon="7.95901">
        <ele>2362</ele>
        <time>2000-01-01T23:41:38.000Z</time>
      </trkpt>
      <trkpt lat="45.90797" lon="7.95948">
        <ele>2358</ele>
        <time>2000-01-01T23:41:48.000Z</time>
      </trkpt>
      <trkpt lat="45.90796" lon="7.95968">
        <ele>2348.3</ele>
        <time>2000-01-01T23:41:58.000Z</time>
      </trkpt>
      <trkpt lat="45.90807" lon="7.95977">
        <ele>2351</ele>
        <time>2000-01-01T23:42:08.000Z</time>
      </trkpt>
      <trkpt lat="45.90821" lon="7.95975">
        <ele>2339.6</ele>
        <time>2000-01-01T23:42:18.000Z</time>
      </trkpt>
      <trkpt lat="45.90838" lon="7.95967">
        <ele>2340</ele>
        <time>2000-01-01T23:42:28.000Z</time>
      </trkpt>
      <trkpt lat="45.90851" lon="7.95951">
        <ele>2331.6</ele>
        <time>2000-01-01T23:42:38.000Z</time>
      </trkpt>
      <trkpt lat="45.90859" lon="7.95966">
        <ele>2331</ele>
        <time>2000-01-01T23:42:48.000Z</time>
      </trkpt>
      <trkpt lat="45.90856" lon="7.95985">
        <ele>2322.1</ele>
        <time>2000-01-01T23:42:58.000Z</time>
      </trkpt>
      <trkpt lat="45.9085" lon="7.96003">
        <ele>2331</ele>
        <time>2000-01-01T23:43:08.000Z</time>
      </trkpt>
      <trkpt lat="45.90843" lon="7.96021">
        <ele>2317.5</ele>
        <time>2000-01-01T23:43:18.000Z</time>
      </trkpt>
      <trkpt lat="45.90839" lon="7.96039">
        <ele>2332</ele>
        <time>2000-01-01T23:43:28.000Z</time>
      </trkpt>
      <trkpt lat="45.90835" lon="7.96053">
        <ele>2310</ele>
        <time>2000-01-01T23:43:38.000Z</time>
      </trkpt>
      <trkpt lat="45.90828" lon="7.96067">
        <ele>2330</ele>
        <time>2000-01-01T23:43:48.000Z</time>
      </trkpt>
      <trkpt lat="45.90824" lon="7.96086">
        <ele>2306</ele>
        <time>2000-01-01T23:43:58.000Z</time>
      </trkpt>
      <trkpt lat="45.90822" lon="7.96103">
        <ele>2328</ele>
        <time>2000-01-01T23:44:08.000Z</time>
      </trkpt>
      <trkpt lat="45.90818" lon="7.96118">
        <ele>2303.9</ele>
        <time>2000-01-01T23:44:18.000Z</time>
      </trkpt>
      <trkpt lat="45.90813" lon="7.96132">
        <ele>2328</ele>
        <time>2000-01-01T23:44:28.000Z</time>
      </trkpt>
      <trkpt lat="45.90813" lon="7.96153">
        <ele>2300.6</ele>
        <time>2000-01-01T23:44:38.000Z</time>
      </trkpt>
      <trkpt lat="45.90812" lon="7.96167">
        <ele>2324</ele>
        <time>2000-01-01T23:44:48.000Z</time>
      </trkpt>
      <trkpt lat="45.90812" lon="7.9619">
        <ele>2297.4</ele>
        <time>2000-01-01T23:44:58.000Z</time>
      </trkpt>
      <trkpt lat="45.90806" lon="7.96206">
        <ele>2324</ele>
        <time>2000-01-01T23:45:08.000Z</time>
      </trkpt>
      <trkpt lat="45.90791" lon="7.96249">
        <ele>2323</ele>
        <time>2000-01-01T23:45:18.000Z</time>
      </trkpt>
      <trkpt lat="45.90787" lon="7.96262">
        <ele>2293</ele>
        <time>2000-01-01T23:45:28.000Z</time>
      </trkpt>
      <trkpt lat="45.90783" lon="7.96282">
        <ele>2320</ele>
        <time>2000-01-01T23:45:38.000Z</time>
      </trkpt>
      <trkpt lat="45.90783" lon="7.96299">
        <ele>2288.7</ele>
        <time>2000-01-01T23:45:48.000Z</time>
      </trkpt>
      <trkpt lat="45.90777" lon="7.96314">
        <ele>2319</ele>
        <time>2000-01-01T23:45:58.000Z</time>
      </trkpt>
      <trkpt lat="45.90771" lon="7.96334">
        <ele>2287.9</ele>
        <time>2000-01-01T23:46:08.000Z</time>
      </trkpt>
      <trkpt lat="45.90778" lon="7.96355">
        <ele>2311</ele>
        <time>2000-01-01T23:46:18.000Z</time>
      </trkpt>
      <trkpt lat="45.90796" lon="7.96357">
        <ele>2280.6</ele>
        <time>2000-01-01T23:46:28.000Z</time>
      </trkpt>
      <trkpt lat="45.90807" lon="7.96363">
        <ele>2294</ele>
        <time>2000-01-01T23:46:38.000Z</time>
      </trkpt>
      <trkpt lat="45.90822" lon="7.96375">
        <ele>2272.2</ele>
        <time>2000-01-01T23:46:48.000Z</time>
      </trkpt>
      <trkpt lat="45.90825" lon="7.96388">
        <ele>2280</ele>
        <time>2000-01-01T23:46:58.000Z</time>
      </trkpt>
      <trkpt lat="45.90818" lon="7.96416">
        <ele>2279</ele>
        <time>2000-01-01T23:47:08.000Z</time>
      </trkpt>
      <trkpt lat="45.90827" lon="7.9641">
        <ele>2264.7</ele>
        <time>2000-01-01T23:47:18.000Z</time>
      </trkpt>
      <trkpt lat="45.90838" lon="7.96399">
        <ele>2274</ele>
        <time>2000-01-01T23:47:28.000Z</time>
      </trkpt>
      <trkpt lat="45.90849" lon="7.96383">
        <ele>2258.3</ele>
        <time>2000-01-01T23:47:38.000Z</time>
      </trkpt>
      <trkpt lat="45.90858" lon="7.96374">
        <ele>2267</ele>
        <time>2000-01-01T23:47:48.000Z</time>
      </trkpt>
      <trkpt lat="45.90867" lon="7.96359">
        <ele>2253.5</ele>
        <time>2000-01-01T23:47:58.000Z</time>
      </trkpt>
      <trkpt lat="45.9087" lon="7.9634">
        <ele>2267</ele>
        <time>2000-01-01T23:48:08.000Z</time>
      </trkpt>
      <trkpt lat="45.90869" lon="7.96315">
        <ele>2251.7</ele>
        <time>2000-01-01T23:48:18.000Z</time>
      </trkpt>
      <trkpt lat="45.90874" lon="7.96297">
        <ele>2269</ele>
        <time>2000-01-01T23:48:28.000Z</time>
      </trkpt>
      <trkpt lat="45.90882" lon="7.96277">
        <ele>2246.7</ele>
        <time>2000-01-01T23:48:38.000Z</time>
      </trkpt>
      <trkpt lat="45.90886" lon="7.96257">
        <ele>2259</ele>
        <time>2000-01-01T23:48:48.000Z</time>
      </trkpt>
      <trkpt lat="45.90895" lon="7.96272">
        <ele>2240</ele>
        <time>2000-01-01T23:48:58.000Z</time>
      </trkpt>
      <trkpt lat="45.90901" lon="7.96317">
        <ele>2249</ele>
        <time>2000-01-01T23:49:08.000Z</time>
      </trkpt>
      <trkpt lat="45.90906" lon="7.96302">
        <ele>2231.3</ele>
        <time>2000-01-01T23:49:18.000Z</time>
      </trkpt>
      <trkpt lat="45.90911" lon="7.96284">
        <ele>2248</ele>
        <time>2000-01-01T23:49:28.000Z</time>
      </trkpt>
      <trkpt lat="45.90921" lon="7.96301">
        <ele>2222</ele>
        <time>2000-01-01T23:49:38.000Z</time>
      </trkpt>
      <trkpt lat="45.90927" lon="7.96283">
        <ele>2242</ele>
        <time>2000-01-01T23:49:48.000Z</time>
      </trkpt>
      <trkpt lat="45.90933" lon="7.96298">
        <ele>2213.8</ele>
        <time>2000-01-01T23:49:58.000Z</time>
      </trkpt>
      <trkpt lat="45.9094" lon="7.96275">
        <ele>2231</ele>
        <time>2000-01-01T23:50:08.000Z</time>
      </trkpt>
      <trkpt lat="45.90946" lon="7.96286">
        <ele>2205.1</ele>
        <time>2000-01-01T23:50:18.000Z</time>
      </trkpt>
      <trkpt lat="45.90952" lon="7.96267">
        <ele>2226</ele>
        <time>2000-01-01T23:50:28.000Z</time>
      </trkpt>
      <trkpt lat="45.90958" lon="7.96254">
        <ele>2200.4</ele>
        <time>2000-01-01T23:50:38.000Z</time>
      </trkpt>
      <trkpt lat="45.90966" lon="7.96235">
        <ele>2223</ele>
        <time>2000-01-01T23:50:48.000Z</time>
      </trkpt>
      <trkpt lat="45.90971" lon="7.96224">
        <ele>2195.8</ele>
        <time>2000-01-01T23:50:58.000Z</time>
      </trkpt>
      <trkpt lat="45.90981" lon="7.96209">
        <ele>2213</ele>
        <time>2000-01-01T23:51:08.000Z</time>
      </trkpt>
      <trkpt lat="45.90987" lon="7.96198">
        <ele>2193.4</ele>
        <time>2000-01-01T23:51:18.000Z</time>
      </trkpt>
      <trkpt lat="45.9099" lon="7.96227">
        <ele>2211</ele>
        <time>2000-01-01T23:51:28.000Z</time>
      </trkpt>
      <trkpt lat="45.90988" lon="7.96259">
        <ele>2208</ele>
        <time>2000-01-01T23:51:38.000Z</time>
      </trkpt>
      <trkpt lat="45.90992" lon="7.96292">
        <ele>2204</ele>
        <time>2000-01-01T23:51:48.000Z</time>
      </trkpt>
      <trkpt lat="45.90992" lon="7.96318">
        <ele>2180.3</ele>
        <time>2000-01-01T23:51:58.000Z</time>
      </trkpt>
      <trkpt lat="45.9099" lon="7.96337">
        <ele>2203</ele>
        <time>2000-01-01T23:52:08.000Z</time>
      </trkpt>
      <trkpt lat="45.90983" lon="7.96347">
        <ele>2179.5</ele>
        <time>2000-01-01T23:52:18.000Z</time>
      </trkpt>
      <trkpt lat="45.9098" lon="7.9636">
        <ele>2203</ele>
        <time>2000-01-01T23:52:28.000Z</time>
      </trkpt>
      <trkpt lat="45.90977" lon="7.96376">
        <ele>2178.3</ele>
        <time>2000-01-01T23:52:38.000Z</time>
      </trkpt>
      <trkpt lat="45.90983" lon="7.96394">
        <ele>2193</ele>
        <time>2000-01-01T23:52:48.000Z</time>
      </trkpt>
      <trkpt lat="45.90992" lon="7.96401">
        <ele>2170.7</ele>
        <time>2000-01-01T23:52:58.000Z</time>
      </trkpt>
      <trkpt lat="45.90996" lon="7.96416">
        <ele>2187</ele>
        <time>2000-01-01T23:53:08.000Z</time>
      </trkpt>
      <trkpt lat="45.90996" lon="7.96434">
        <ele>2168.4</ele>
        <time>2000-01-01T23:53:18.000Z</time>
      </trkpt>
      <trkpt lat="45.90998" lon="7.96454">
        <ele>2184</ele>
        <time>2000-01-01T23:53:28.000Z</time>
      </trkpt>
      <trkpt lat="45.91009" lon="7.96469">
        <ele>2167.7</ele>
        <time>2000-01-01T23:53:38.000Z</time>
      </trkpt>
      <trkpt lat="45.91019" lon="7.9647">
        <ele>2175</ele>
        <time>2000-01-01T23:53:48.000Z</time>
      </trkpt>
      <trkpt lat="45.91035" lon="7.9647">
        <ele>2162.4</ele>
        <time>2000-01-01T23:53:58.000Z</time>
      </trkpt>
      <trkpt lat="45.91049" lon="7.96472">
        <ele>2164</ele>
        <time>2000-01-01T23:54:08.000Z</time>
      </trkpt>
      <trkpt lat="45.91059" lon="7.96472">
        <ele>2158.1</ele>
        <time>2000-01-01T23:54:18.000Z</time>
      </trkpt>
      <trkpt lat="45.91065" lon="7.96457">
        <ele>2157</ele>
        <time>2000-01-01T23:54:28.000Z</time>
      </trkpt>
      <trkpt lat="45.91066" lon="7.9644">
        <ele>2153.7</ele>
        <time>2000-01-01T23:54:38.000Z</time>
      </trkpt>
      <trkpt lat="45.91072" lon="7.96418">
        <ele>2154</ele>
        <time>2000-01-01T23:54:48.000Z</time>
      </trkpt>
      <trkpt lat="45.91077" lon="7.96401">
        <ele>2147.7</ele>
        <time>2000-01-01T23:54:58.000Z</time>
      </trkpt>
      <trkpt lat="45.91089" lon="7.96393">
        <ele>2150</ele>
        <time>2000-01-01T23:55:08.000Z</time>
      </trkpt>
      <trkpt lat="45.91109" lon="7.96401">
        <ele>2143</ele>
        <time>2000-01-01T23:55:18.000Z</time>
      </trkpt>
      <trkpt lat="45.91112" lon="7.96416">
        <ele>2141.5</ele>
        <time>2000-01-01T23:55:28.000Z</time>
      </trkpt>
      <trkpt lat="45.91119" lon="7.96404">
        <ele>2139</ele>
        <time>2000-01-01T23:55:38.000Z</time>
      </trkpt>
      <trkpt lat="45.91124" lon="7.9645">
        <ele>2136</ele>
        <time>2000-01-01T23:55:48.000Z</time>
      </trkpt>
      <trkpt lat="45.91133" lon="7.96433">
        <ele>2130.2</ele>
        <time>2000-01-01T23:55:58.000Z</time>
      </trkpt>
      <trkpt lat="45.91137" lon="7.96413">
        <ele>2132</ele>
        <time>2000-01-01T23:56:08.000Z</time>
      </trkpt>
      <trkpt lat="45.91145" lon="7.96383">
        <ele>2128</ele>
        <time>2000-01-01T23:56:18.000Z</time>
      </trkpt>
      <trkpt lat="45.91148" lon="7.96401">
        <ele>2122.9</ele>
        <time>2000-01-01T23:56:28.000Z</time>
      </trkpt>
      <trkpt lat="45.91151" lon="7.96425">
        <ele>2125</ele>
        <time>2000-01-01T23:56:38.000Z</time>
      </trkpt>
      <trkpt lat="45.91157" lon="7.96412">
        <ele>2117.7</ele>
        <time>2000-01-01T23:56:48.000Z</time>
      </trkpt>
      <trkpt lat="45.91165" lon="7.96381">
        <ele>2121</ele>
        <time>2000-01-01T23:56:58.000Z</time>
      </trkpt>
      <trkpt lat="45.91173" lon="7.96392">
        <ele>2111</ele>
        <time>2000-01-01T23:57:08.000Z</time>
      </trkpt>
      <trkpt lat="45.91182" lon="7.96411">
        <ele>2115</ele>
        <time>2000-01-01T23:57:18.000Z</time>
      </trkpt>
      <trkpt lat="45.91196" lon="7.96426">
        <ele>2106.6</ele>
        <time>2000-01-01T23:57:28.000Z</time>
      </trkpt>
      <trkpt lat="45.9121" lon="7.96414">
        <ele>2108</ele>
        <time>2000-01-01T23:57:38.000Z</time>
      </trkpt>
      <trkpt lat="45.91218" lon="7.96403">
        <ele>2099.5</ele>
        <time>2000-01-01T23:57:48.000Z</time>
      </trkpt>
      <trkpt lat="45.91231" lon="7.96412">
        <ele>2103</ele>
        <time>2000-01-01T23:57:58.000Z</time>
      </trkpt>
      <trkpt lat="45.91233" lon="7.96435">
        <ele>2094.6</ele>
        <time>2000-01-01T23:58:08.000Z</time>
      </trkpt>
      <trkpt lat="45.91234" lon="7.96454">
        <ele>2098</ele>
        <time>2000-01-01T23:58:18.000Z</time>
      </trkpt>
      <trkpt lat="45.91242" lon="7.96484">
        <ele>2094</ele>
        <time>2000-01-01T23:58:28.000Z</time>
      </trkpt>
      <trkpt lat="45.91246" lon="7.96506">
        <ele>2085.5</ele>
        <time>2000-01-01T23:58:38.000Z</time>
      </trkpt>
      <trkpt lat="45.91249" lon="7.96522">
        <ele>2093</ele>
        <time>2000-01-01T23:58:48.000Z</time>
      </trkpt>
      <trkpt lat="45.9125" lon="7.96537">
        <ele>2079.3</ele>
        <time>2000-01-01T23:58:58.000Z</time>
      </trkpt>
      <trkpt lat="45.91246" lon="7.96573">
        <ele>2091</ele>
        <time>2000-01-01T23:59:08.000Z</time>
      </trkpt>
      <trkpt lat="45.91246" lon="7.96593">
        <ele>2073.8</ele>
        <time>2000-01-01T23:59:18.000Z</time>
      </trkpt>
      <trkpt lat="45.91251" lon="7.96607">
        <ele>2085</ele>
        <time>2000-01-01T23:59:28.000Z</time>
      </trkpt>
      <trkpt lat="45.91254" lon="7.96621">
        <ele>2071.2</ele>
        <time>2000-01-01T23:59:38.000Z</time>
      </trkpt>
      <trkpt lat="45.91257" lon="7.9664">
        <ele>2083</ele>
        <time>2000-01-01T23:59:48.000Z</time>
      </trkpt>
      <trkpt lat="45.91253" lon="7.96656">
        <ele>2071.2</ele>
        <time>2000-01-01T23:59:58.000Z</time>
      </trkpt>
      <trkpt lat="45.91259" lon="7.9667">
        <ele>2082</ele>
        <time>2000-01-02T00:00:08.000Z</time>
      </trkpt>
      <trkpt lat="45.91257" lon="7.9669">
        <ele>2069.7</ele>
        <time>2000-01-02T00:00:18.000Z</time>
      </trkpt>
      <trkpt lat="45.91261" lon="7.96719">
        <ele>2081</ele>
        <time>2000-01-02T00:00:28.000Z</time>
      </trkpt>
      <trkpt lat="45.91262" lon="7.96736">
        <ele>2070.7</ele>
        <time>2000-01-02T00:00:38.000Z</time>
      </trkpt>
      <trkpt lat="45.91265" lon="7.96754">
        <ele>2080</ele>
        <time>2000-01-02T00:00:48.000Z</time>
      </trkpt>
      <trkpt lat="45.91278" lon="7.96785">
        <ele>2077</ele>
        <time>2000-01-02T00:00:58.000Z</time>
      </trkpt>
      <trkpt lat="45.91281" lon="7.96799">
        <ele>2069.6</ele>
        <time>2000-01-02T00:01:08.000Z</time>
      </trkpt>
      <trkpt lat="45.91292" lon="7.96817">
        <ele>2069</ele>
        <time>2000-01-02T00:01:18.000Z</time>
      </trkpt>
      <trkpt lat="45.91299" lon="7.96831">
        <ele>2069.6</ele>
        <time>2000-01-02T00:01:28.000Z</time>
      </trkpt>
      <trkpt lat="45.91312" lon="7.96856">
        <ele>2068</ele>
        <time>2000-01-02T00:01:38.000Z</time>
      </trkpt>
      <trkpt lat="45.91329" lon="7.96895">
        <ele>2067</ele>
        <time>2000-01-02T00:01:48.000Z</time>
      </trkpt>
      <trkpt lat="45.91346" lon="7.9693">
        <ele>2067</ele>
        <time>2000-01-02T00:01:58.000Z</time>
      </trkpt>
      <trkpt lat="45.91357" lon="7.96935">
        <ele>2069.6</ele>
        <time>2000-01-02T00:02:08.000Z</time>
      </trkpt>
      <trkpt lat="45.91377" lon="7.96935">
        <ele>2062</ele>
        <time>2000-01-02T00:02:18.000Z</time>
      </trkpt>
      <trkpt lat="45.91385" lon="7.96942">
        <ele>2066.3</ele>
        <time>2000-01-02T00:02:28.000Z</time>
      </trkpt>
      <trkpt lat="45.91387" lon="7.96958">
        <ele>2062</ele>
        <time>2000-01-02T00:02:38.000Z</time>
      </trkpt>
      <trkpt lat="45.91393" lon="7.96982">
        <ele>2068.3</ele>
        <time>2000-01-02T00:02:48.000Z</time>
      </trkpt>
      <trkpt lat="45.91397" lon="7.96996">
        <ele>2062</ele>
        <time>2000-01-02T00:02:58.000Z</time>
      </trkpt>
      <trkpt lat="45.91405" lon="7.97007">
        <ele>2067.8</ele>
        <time>2000-01-02T00:03:08.000Z</time>
      </trkpt>
      <trkpt lat="45.91415" lon="7.97022">
        <ele>2062</ele>
        <time>2000-01-02T00:03:18.000Z</time>
      </trkpt>
      <trkpt lat="45.91439" lon="7.97024">
        <ele>2054</ele>
        <time>2000-01-02T00:03:28.000Z</time>
      </trkpt>
      <trkpt lat="45.9145" lon="7.97036">
        <ele>2059.4</ele>
        <time>2000-01-02T00:03:38.000Z</time>
      </trkpt>
      <trkpt lat="45.91465" lon="7.97049">
        <ele>2047</ele>
        <time>2000-01-02T00:03:48.000Z</time>
      </trkpt>
      <trkpt lat="45.91477" lon="7.97053">
        <ele>2050.3</ele>
        <time>2000-01-02T00:03:58.000Z</time>
      </trkpt>
      <trkpt lat="45.91487" lon="7.97065">
        <ele>2043</ele>
        <time>2000-01-02T00:04:08.000Z</time>
      </trkpt>
      <trkpt lat="45.91499" lon="7.97077">
        <ele>2045.1</ele>
        <time>2000-01-02T00:04:18.000Z</time>
      </trkpt>
      <trkpt lat="45.91506" lon="7.97086">
        <ele>2039</ele>
        <time>2000-01-02T00:04:28.000Z</time>
      </trkpt>
      <trkpt lat="45.91517" lon="7.97096">
        <ele>2040.3</ele>
        <time>2000-01-02T00:04:38.000Z</time>
      </trkpt>
      <trkpt lat="45.91526" lon="7.97107">
        <ele>2034</ele>
        <time>2000-01-02T00:04:48.000Z</time>
      </trkpt>
      <trkpt lat="45.91546" lon="7.97127">
        <ele>2030</ele>
        <time>2000-01-02T00:04:58.000Z</time>
      </trkpt>
      <trkpt lat="45.91561" lon="7.97147">
        <ele>2029</ele>
        <time>2000-01-02T00:05:08.000Z</time>
      </trkpt>
      <trkpt lat="45.91574" lon="7.97175">
        <ele>2028</ele>
        <time>2000-01-02T00:05:18.000Z</time>
      </trkpt>
      <trkpt lat="45.91594" lon="7.97184">
        <ele>2027</ele>
        <time>2000-01-02T00:05:28.000Z</time>
      </trkpt>
      <trkpt lat="45.91601" lon="7.97193">
        <ele>2031.1</ele>
        <time>2000-01-02T00:05:38.000Z</time>
      </trkpt>
      <trkpt lat="45.91608" lon="7.97213">
        <ele>2026</ele>
        <time>2000-01-02T00:05:48.000Z</time>
      </trkpt>
      <trkpt lat="45.91622" lon="7.97234">
        <ele>2025</ele>
        <time>2000-01-02T00:05:58.000Z</time>
      </trkpt>
      <trkpt lat="45.91635" lon="7.97254">
        <ele>2025</ele>
        <time>2000-01-02T00:06:08.000Z</time>
      </trkpt>
      <trkpt lat="45.91645" lon="7.97267">
        <ele>2033.2</ele>
        <time>2000-01-02T00:06:18.000Z</time>
      </trkpt>
      <trkpt lat="45.91659" lon="7.97286">
        <ele>2022</ele>
        <time>2000-01-02T00:06:28.000Z</time>
      </trkpt>
      <trkpt lat="45.91672" lon="7.97293">
        <ele>2032.5</ele>
        <time>2000-01-02T00:06:38.000Z</time>
      </trkpt>
      <trkpt lat="45.91687" lon="7.97295">
        <ele>2020</ele>
        <time>2000-01-02T00:06:48.000Z</time>
      </trkpt>
      <trkpt lat="45.91709" lon="7.97312">
        <ele>2020</ele>
        <time>2000-01-02T00:06:58.000Z</time>
      </trkpt>
      <trkpt lat="45.91718" lon="7.97318">
        <ele>2024</ele>
        <time>2000-01-02T00:07:08.000Z</time>
      </trkpt>
      <trkpt lat="45.91725" lon="7.97327">
        <ele>2017</ele>
        <time>2000-01-02T00:07:18.000Z</time>
      </trkpt>
      <trkpt lat="45.91738" lon="7.9734">
        <ele>2023.8</ele>
        <time>2000-01-02T00:07:28.000Z</time>
      </trkpt>
      <trkpt lat="45.91758" lon="7.97347">
        <ele>2014</ele>
        <time>2000-01-02T00:07:38.000Z</time>
      </trkpt>
      <trkpt lat="45.9177" lon="7.97351">
        <ele>2021.6</ele>
        <time>2000-01-02T00:07:48.000Z</time>
      </trkpt>
      <trkpt lat="45.91784" lon="7.9734">
        <ele>2005</ele>
        <time>2000-01-02T00:07:58.000Z</time>
      </trkpt>
      <trkpt lat="45.91796" lon="7.97346">
        <ele>2014.8</ele>
        <time>2000-01-02T00:08:08.000Z</time>
      </trkpt>
      <trkpt lat="45.91801" lon="7.97358">
        <ele>2004</ele>
        <time>2000-01-02T00:08:18.000Z</time>
      </trkpt>
      <trkpt lat="45.91818" lon="7.97377">
        <ele>2003</ele>
        <time>2000-01-02T00:08:28.000Z</time>
      </trkpt>
      <trkpt lat="45.91834" lon="7.97383">
        <ele>2015.6</ele>
        <time>2000-01-02T00:08:38.000Z</time>
      </trkpt>
      <trkpt lat="45.91841" lon="7.97408">
        <ele>2003</ele>
        <time>2000-01-02T00:08:48.000Z</time>
      </trkpt>
      <trkpt lat="45.91842" lon="7.97424">
        <ele>2013.9</ele>
        <time>2000-01-02T00:08:58.000Z</time>
      </trkpt>
      <trkpt lat="45.91846" lon="7.97437">
        <ele>2003</ele>
        <time>2000-01-02T00:09:08.000Z</time>
      </trkpt>
      <trkpt lat="45.91856" lon="7.97439">
        <ele>2010.6</ele>
        <time>2000-01-02T00:09:18.000Z</time>
      </trkpt>
      <trkpt lat="45.91868" lon="7.97446">
        <ele>1996</ele>
        <time>2000-01-02T00:09:28.000Z</time>
      </trkpt>
      <trkpt lat="45.91875" lon="7.97436">
        <ele>2000.9</ele>
        <time>2000-01-02T00:09:38.000Z</time>
      </trkpt>
      <trkpt lat="45.9188" lon="7.97455">
        <ele>1989</ele>
        <time>2000-01-02T00:09:48.000Z</time>
      </trkpt>
      <trkpt lat="45.91891" lon="7.97472">
        <ele>1996.1</ele>
        <time>2000-01-02T00:09:58.000Z</time>
      </trkpt>
      <trkpt lat="45.91899" lon="7.97482">
        <ele>1987</ele>
        <time>2000-01-02T00:10:08.000Z</time>
      </trkpt>
      <trkpt lat="45.91907" lon="7.97471">
        <ele>1989.1</ele>
        <time>2000-01-02T00:10:18.000Z</time>
      </trkpt>
      <trkpt lat="45.91913" lon="7.97485">
        <ele>1984</ele>
        <time>2000-01-02T00:10:28.000Z</time>
      </trkpt>
      <trkpt lat="45.91913" lon="7.97505">
        <ele>1987</ele>
        <time>2000-01-02T00:10:38.000Z</time>
      </trkpt>
      <trkpt lat="45.91917" lon="7.9752">
        <ele>1981</ele>
        <time>2000-01-02T00:10:48.000Z</time>
      </trkpt>
      <trkpt lat="45.91928" lon="7.97538">
        <ele>1979.5</ele>
        <time>2000-01-02T00:10:58.000Z</time>
      </trkpt>
      <trkpt lat="45.9194" lon="7.97554">
        <ele>1975</ele>
        <time>2000-01-02T00:11:08.000Z</time>
      </trkpt>
      <trkpt lat="45.91943" lon="7.97539">
        <ele>1971.9</ele>
        <time>2000-01-02T00:11:18.000Z</time>
      </trkpt>
      <trkpt lat="45.91959" lon="7.97563">
        <ele>1966</ele>
        <time>2000-01-02T00:11:28.000Z</time>
      </trkpt>
      <trkpt lat="45.9197" lon="7.97578">
        <ele>1960.2</ele>
        <time>2000-01-02T00:11:38.000Z</time>
      </trkpt>
      <trkpt lat="45.91977" lon="7.97588">
        <ele>1958</ele>
        <time>2000-01-02T00:11:48.000Z</time>
      </trkpt>
      <trkpt lat="45.91976" lon="7.97573">
        <ele>1957.1</ele>
        <time>2000-01-02T00:11:58.000Z</time>
      </trkpt>
      <trkpt lat="45.91988" lon="7.97588">
        <ele>1953</ele>
        <time>2000-01-02T00:12:08.000Z</time>
      </trkpt>
      <trkpt lat="45.91996" lon="7.976">
        <ele>1949.8</ele>
        <time>2000-01-02T00:12:18.000Z</time>
      </trkpt>
      <trkpt lat="45.92004" lon="7.97614">
        <ele>1947</ele>
        <time>2000-01-02T00:12:28.000Z</time>
      </trkpt>
      <trkpt lat="45.92033" lon="7.97657">
        <ele>1940</ele>
        <time>2000-01-02T00:12:38.000Z</time>
      </trkpt>
      <trkpt lat="45.92041" lon="7.97622">
        <ele>1931</ele>
        <time>2000-01-02T00:12:48.000Z</time>
      </trkpt>
      <trkpt lat="45.92051" lon="7.9762">
        <ele>1931.1</ele>
        <time>2000-01-02T00:12:58.000Z</time>
      </trkpt>
      <trkpt lat="45.92057" lon="7.9761">
        <ele>1926</ele>
        <time>2000-01-02T00:13:08.000Z</time>
      </trkpt>
      <trkpt lat="45.92052" lon="7.97592">
        <ele>1925.8</ele>
        <time>2000-01-02T00:13:18.000Z</time>
      </trkpt>
      <trkpt lat="45.92041" lon="7.97579">
        <ele>1924</ele>
        <time>2000-01-02T00:13:28.000Z</time>
      </trkpt>
      <trkpt lat="45.92031" lon="7.97543">
        <ele>1924</ele>
        <time>2000-01-02T00:13:38.000Z</time>
      </trkpt>
      <trkpt lat="45.92034" lon="7.97505">
        <ele>1918</ele>
        <time>2000-01-02T00:13:48.000Z</time>
      </trkpt>
      <trkpt lat="45.92032" lon="7.9749">
        <ele>1916.7</ele>
        <time>2000-01-02T00:13:58.000Z</time>
      </trkpt>
      <trkpt lat="45.92034" lon="7.97472">
        <ele>1914</ele>
        <time>2000-01-02T00:14:08.000Z</time>
      </trkpt>
      <trkpt lat="45.92036" lon="7.97443">
        <ele>1909</ele>
        <time>2000-01-02T00:14:18.000Z</time>
      </trkpt>
      <trkpt lat="45.92037" lon="7.9742">
        <ele>1907.8</ele>
        <time>2000-01-02T00:14:28.000Z</time>
      </trkpt>
      <trkpt lat="45.92036" lon="7.97406">
        <ele>1903</ele>
        <time>2000-01-02T00:14:38.000Z</time>
      </trkpt>
      <trkpt lat="45.9203" lon="7.97385">
        <ele>1904.9</ele>
        <time>2000-01-02T00:14:48.000Z</time>
      </trkpt>
      <trkpt lat="45.92033" lon="7.97369">
        <ele>1895</ele>
        <time>2000-01-02T00:14:58.000Z</time>
      </trkpt>
      <trkpt lat="45.92033" lon="7.97346">
        <ele>1898.7</ele>
        <time>2000-01-02T00:15:08.000Z</time>
      </trkpt>
      <trkpt lat="45.92032" lon="7.9733">
        <ele>1890</ele>
        <time>2000-01-02T00:15:18.000Z</time>
      </trkpt>
      <trkpt lat="45.92041" lon="7.97328">
        <ele>1892.5</ele>
        <time>2000-01-02T00:15:28.000Z</time>
      </trkpt>
      <trkpt lat="45.92053" lon="7.97326">
        <ele>1876</ele>
        <time>2000-01-02T00:15:38.000Z</time>
      </trkpt>
      <trkpt lat="45.92064" lon="7.97317">
        <ele>1882.9</ele>
        <time>2000-01-02T00:15:48.000Z</time>
      </trkpt>
      <trkpt lat="45.92058" lon="7.97295">
        <ele>1875</ele>
        <time>2000-01-02T00:15:58.000Z</time>
      </trkpt>
      <trkpt lat="45.92049" lon="7.9729">
        <ele>1878.1</ele>
        <time>2000-01-02T00:16:08.000Z</time>
      </trkpt>
      <trkpt lat="45.92039" lon="7.97281">
        <ele>1874</ele>
        <time>2000-01-02T00:16:18.000Z</time>
      </trkpt>
      <trkpt lat="45.9205" lon="7.97277">
        <ele>1871.7</ele>
        <time>2000-01-02T00:16:28.000Z</time>
      </trkpt>
      <trkpt lat="45.92073" lon="7.9728">
        <ele>1864</ele>
        <time>2000-01-02T00:16:38.000Z</time>
      </trkpt>
      <trkpt lat="45.92066" lon="7.9727">
        <ele>1864.2</ele>
        <time>2000-01-02T00:16:48.000Z</time>
      </trkpt>
      <trkpt lat="45.92056" lon="7.97269">
        <ele>1855</ele>
        <time>2000-01-02T00:16:58.000Z</time>
      </trkpt>
      <trkpt lat="45.92044" lon="7.97262">
        <ele>1864.5</ele>
        <time>2000-01-02T00:17:08.000Z</time>
      </trkpt>
      <trkpt lat="45.92066" lon="7.97251">
        <ele>1851</ele>
        <time>2000-01-02T00:17:18.000Z</time>
      </trkpt>
      <trkpt lat="45.92055" lon="7.97239">
        <ele>1848.3</ele>
        <time>2000-01-02T00:17:28.000Z</time>
      </trkpt>
      <trkpt lat="45.92045" lon="7.97231">
        <ele>1847</ele>
        <time>2000-01-02T00:17:38.000Z</time>
      </trkpt>
      <trkpt lat="45.92038" lon="7.97223">
        <ele>1848.2</ele>
        <time>2000-01-02T00:17:48.000Z</time>
      </trkpt>
      <trkpt lat="45.92031" lon="7.97212">
        <ele>1844</ele>
        <time>2000-01-02T00:17:58.000Z</time>
      </trkpt>
      <trkpt lat="45.92042" lon="7.97213">
        <ele>1842.2</ele>
        <time>2000-01-02T00:18:08.000Z</time>
      </trkpt>
      <trkpt lat="45.92039" lon="7.97198">
        <ele>1835</ele>
        <time>2000-01-02T00:18:18.000Z</time>
      </trkpt>
      <trkpt lat="45.92034" lon="7.97184">
        <ele>1834.2</ele>
        <time>2000-01-02T00:18:28.000Z</time>
      </trkpt>
      <trkpt lat="45.92049" lon="7.9719">
        <ele>1829</ele>
        <time>2000-01-02T00:18:38.000Z</time>
      </trkpt>
      <trkpt lat="45.92061" lon="7.97186">
        <ele>1824.3</ele>
        <time>2000-01-02T00:18:48.000Z</time>
      </trkpt>
      <trkpt lat="45.92058" lon="7.9717">
        <ele>1811</ele>
        <time>2000-01-02T00:18:58.000Z</time>
      </trkpt>
      <trkpt lat="45.92066" lon="7.97152">
        <ele>1812.7</ele>
        <time>2000-01-02T00:19:08.000Z</time>
      </trkpt>
      <trkpt lat="45.92058" lon="7.97142">
        <ele>1802</ele>
        <time>2000-01-02T00:19:18.000Z</time>
      </trkpt>
      <trkpt lat="45.92062" lon="7.97129">
        <ele>1804.3</ele>
        <time>2000-01-02T00:19:28.000Z</time>
      </trkpt>
      <trkpt lat="45.92056" lon="7.97117">
        <ele>1788</ele>
        <time>2000-01-02T00:19:38.000Z</time>
      </trkpt>
      <trkpt lat="45.92048" lon="7.97109">
        <ele>1797.8</ele>
        <time>2000-01-02T00:19:48.000Z</time>
      </trkpt>
      <trkpt lat="45.9206" lon="7.97109">
        <ele>1779</ele>
        <time>2000-01-02T00:19:58.000Z</time>
      </trkpt>
      <trkpt lat="45.9206" lon="7.97096">
        <ele>1787</ele>
        <time>2000-01-02T00:20:08.000Z</time>
      </trkpt>
      <trkpt lat="45.92071" lon="7.97092">
        <ele>1769</ele>
        <time>2000-01-02T00:20:18.000Z</time>
      </trkpt>
      <trkpt lat="45.92082" lon="7.97083">
        <ele>1775.1</ele>
        <time>2000-01-02T00:20:28.000Z</time>
      </trkpt>
      <trkpt lat="45.92094" lon="7.97077">
        <ele>1753</ele>
        <time>2000-01-02T00:20:38.000Z</time>
      </trkpt>
      <trkpt lat="45.92092" lon="7.97063">
        <ele>1764</ele>
        <time>2000-01-02T00:20:48.000Z</time>
      </trkpt>
      <trkpt lat="45.92103" lon="7.97068">
        <ele>1745</ele>
        <time>2000-01-02T00:20:58.000Z</time>
      </trkpt>
      <trkpt lat="45.92101" lon="7.97053">
        <ele>1758.7</ele>
        <time>2000-01-02T00:21:08.000Z</time>
      </trkpt>
      <trkpt lat="45.92113" lon="7.97043">
        <ele>1732</ele>
        <time>2000-01-02T00:21:18.000Z</time>
      </trkpt>
      <trkpt lat="45.92113" lon="7.97029">
        <ele>1748.9</ele>
        <time>2000-01-02T00:21:28.000Z</time>
      </trkpt>
      <trkpt lat="45.92103" lon="7.97018">
        <ele>1729</ele>
        <time>2000-01-02T00:21:38.000Z</time>
      </trkpt>
      <trkpt lat="45.92083" lon="7.97012">
        <ele>1726</ele>
        <time>2000-01-02T00:21:48.000Z</time>
      </trkpt>
      <trkpt lat="45.92092" lon="7.97001">
        <ele>1736.5</ele>
        <time>2000-01-02T00:21:58.000Z</time>
      </trkpt>
      <trkpt lat="45.92084" lon="7.96989">
        <ele>1712</ele>
        <time>2000-01-02T00:22:08.000Z</time>
      </trkpt>
      <trkpt lat="45.92094" lon="7.96985">
        <ele>1728.3</ele>
        <time>2000-01-02T00:22:18.000Z</time>
      </trkpt>
      <trkpt lat="45.92111" lon="7.96984">
        <ele>1702</ele>
        <time>2000-01-02T00:22:28.000Z</time>
      </trkpt>
      <trkpt lat="45.92125" lon="7.96985">
        <ele>1723.3</ele>
        <time>2000-01-02T00:22:38.000Z</time>
      </trkpt>
      <trkpt lat="45.92123" lon="7.96972">
        <ele>1694</ele>
        <time>2000-01-02T00:22:48.000Z</time>
      </trkpt>
      <trkpt lat="45.92138" lon="7.96967">
        <ele>1710.9</ele>
        <time>2000-01-02T00:22:58.000Z</time>
      </trkpt>
      <trkpt lat="45.92164" lon="7.96971">
        <ele>1681</ele>
        <time>2000-01-02T00:23:08.000Z</time>
      </trkpt>
      <trkpt lat="45.92179" lon="7.96977">
        <ele>1699.8</ele>
        <time>2000-01-02T00:23:18.000Z</time>
      </trkpt>
      <trkpt lat="45.9219" lon="7.96979">
        <ele>1672</ele>
        <time>2000-01-02T00:23:28.000Z</time>
      </trkpt>
      <trkpt lat="45.92198" lon="7.96973">
        <ele>1691</ele>
        <time>2000-01-02T00:23:38.000Z</time>
      </trkpt>
      <trkpt lat="45.92178" lon="7.96929">
        <ele>1656</ele>
        <time>2000-01-02T00:23:48.000Z</time>
      </trkpt>
      <trkpt lat="45.92172" lon="7.96918">
        <ele>1677</ele>
        <time>2000-01-02T00:23:58.000Z</time>
      </trkpt>
      <trkpt lat="45.92167" lon="7.96905">
        <ele>1653</ele>
        <time>2000-01-02T00:24:08.000Z</time>
      </trkpt>
      <trkpt lat="45.92175" lon="7.96892">
        <ele>1667</ele>
        <time>2000-01-02T00:24:18.000Z</time>
      </trkpt>
      <trkpt lat="45.92169" lon="7.96878">
        <ele>1645</ele>
        <time>2000-01-02T00:24:28.000Z</time>
      </trkpt>
      <trkpt lat="45.92171" lon="7.96863">
        <ele>1655.9</ele>
        <time>2000-01-02T00:24:38.000Z</time>
      </trkpt>
      <trkpt lat="45.92165" lon="7.96853">
        <ele>1639</ele>
        <time>2000-01-02T00:24:48.000Z</time>
      </trkpt>
      <trkpt lat="45.92176" lon="7.96848">
        <ele>1649.3</ele>
        <time>2000-01-02T00:24:58.000Z</time>
      </trkpt>
      <trkpt lat="45.9217" lon="7.96833">
        <ele>1636</ele>
        <time>2000-01-02T00:25:08.000Z</time>
      </trkpt>
      <trkpt lat="45.92182" lon="7.9683">
        <ele>1642</ele>
        <time>2000-01-02T00:25:18.000Z</time>
      </trkpt>
      <trkpt lat="45.92199" lon="7.9683">
        <ele>1630</ele>
        <time>2000-01-02T00:25:28.000Z</time>
      </trkpt>
      <trkpt lat="45.92218" lon="7.96836">
        <ele>1626</ele>
        <time>2000-01-02T00:25:38.000Z</time>
      </trkpt>
      <trkpt lat="45.92229" lon="7.96839">
        <ele>1632.5</ele>
        <time>2000-01-02T00:25:48.000Z</time>
      </trkpt>
      <trkpt lat="45.92225" lon="7.96823">
        <ele>1623</ele>
        <time>2000-01-02T00:25:58.000Z</time>
      </trkpt>
      <trkpt lat="45.92234" lon="7.96808">
        <ele>1627.9</ele>
        <time>2000-01-02T00:26:08.000Z</time>
      </trkpt>
      <trkpt lat="45.92258" lon="7.96788">
        <ele>1612</ele>
        <time>2000-01-02T00:26:18.000Z</time>
      </trkpt>
      <trkpt lat="45.92265" lon="7.96781">
        <ele>1624.8</ele>
        <time>2000-01-02T00:26:28.000Z</time>
      </trkpt>
      <trkpt lat="45.92275" lon="7.96777">
        <ele>1608</ele>
        <time>2000-01-02T00:26:38.000Z</time>
      </trkpt>
      <trkpt lat="45.92288" lon="7.96784">
        <ele>1620.9</ele>
        <time>2000-01-02T00:26:48.000Z</time>
      </trkpt>
      <trkpt lat="45.92297" lon="7.96784">
        <ele>1605</ele>
        <time>2000-01-02T00:26:58.000Z</time>
      </trkpt>
      <trkpt lat="45.92308" lon="7.96772">
        <ele>1616</ele>
        <time>2000-01-02T00:27:08.000Z</time>
      </trkpt>
      <trkpt lat="45.92314" lon="7.96754">
        <ele>1597</ele>
        <time>2000-01-02T00:27:18.000Z</time>
      </trkpt>
      <trkpt lat="45.92316" lon="7.9674">
        <ele>1610.5</ele>
        <time>2000-01-02T00:27:28.000Z</time>
      </trkpt>
      <trkpt lat="45.92334" lon="7.96751">
        <ele>1593</ele>
        <time>2000-01-02T00:27:38.000Z</time>
      </trkpt>
      <trkpt lat="45.92345" lon="7.96752">
        <ele>1603.4</ele>
        <time>2000-01-02T00:27:48.000Z</time>
      </trkpt>
      <trkpt lat="45.92357" lon="7.96752">
        <ele>1588</ele>
        <time>2000-01-02T00:27:58.000Z</time>
      </trkpt>
      <trkpt lat="45.92372" lon="7.96764">
        <ele>1596</ele>
        <time>2000-01-02T00:28:08.000Z</time>
      </trkpt>
      <trkpt lat="45.92387" lon="7.96773">
        <ele>1581</ele>
        <time>2000-01-02T00:28:18.000Z</time>
      </trkpt>
      <trkpt lat="45.92408" lon="7.9679">
        <ele>1577</ele>
        <time>2000-01-02T00:28:28.000Z</time>
      </trkpt>
      <trkpt lat="45.92432" lon="7.96806">
        <ele>1570</ele>
        <time>2000-01-02T00:28:38.000Z</time>
      </trkpt>
      <trkpt lat="45.92447" lon="7.96804">
        <ele>1579.1</ele>
        <time>2000-01-02T00:28:48.000Z</time>
      </trkpt>
      <trkpt lat="45.92458" lon="7.96805">
        <ele>1563</ele>
        <time>2000-01-02T00:28:58.000Z</time>
      </trkpt>
      <trkpt lat="45.92474" lon="7.96803">
        <ele>1574.7</ele>
        <time>2000-01-02T00:29:08.000Z</time>
      </trkpt>
      <trkpt lat="45.92485" lon="7.96803">
        <ele>1552</ele>
        <time>2000-01-02T00:29:18.000Z</time>
      </trkpt>
      <trkpt lat="45.92496" lon="7.96799">
        <ele>1568.9</ele>
        <time>2000-01-02T00:29:28.000Z</time>
      </trkpt>
      <trkpt lat="45.92507" lon="7.96797">
        <ele>1545</ele>
        <time>2000-01-02T00:29:38.000Z</time>
      </trkpt>
      <trkpt lat="45.92517" lon="7.96802">
        <ele>1562.9</ele>
        <time>2000-01-02T00:29:48.000Z</time>
      </trkpt>
      <trkpt lat="45.92526" lon="7.9682">
        <ele>1542</ele>
        <time>2000-01-02T00:29:58.000Z</time>
      </trkpt>
      <trkpt lat="45.9253" lon="7.9685">
        <ele>1540</ele>
        <time>2000-01-02T00:30:08.000Z</time>
      </trkpt>
      <trkpt lat="45.92554" lon="7.96846">
        <ele>1533</ele>
        <time>2000-01-02T00:30:18.000Z</time>
      </trkpt>
      <trkpt lat="45.92569" lon="7.96858">
        <ele>1550.6</ele>
        <time>2000-01-02T00:30:28.000Z</time>
      </trkpt>
      <trkpt lat="45.9257" lon="7.96874">
        <ele>1531</ele>
        <time>2000-01-02T00:30:38.000Z</time>
      </trkpt>
      <trkpt lat="45.92576" lon="7.96886">
        <ele>1547.8</ele>
        <time>2000-01-02T00:30:48.000Z</time>
      </trkpt>
      <trkpt lat="45.92581" lon="7.96905">
        <ele>1530</ele>
        <time>2000-01-02T00:30:58.000Z</time>
      </trkpt>
      <trkpt lat="45.92584" lon="7.96926">
        <ele>1543.9</ele>
        <time>2000-01-02T00:31:08.000Z</time>
      </trkpt>
      <trkpt lat="45.92598" lon="7.96937">
        <ele>1529</ele>
        <time>2000-01-02T00:31:18.000Z</time>
      </trkpt>
      <trkpt lat="45.92606" lon="7.96968">
        <ele>1529</ele>
        <time>2000-01-02T00:31:28.000Z</time>
      </trkpt>
      <trkpt lat="45.92603" lon="7.96986">
        <ele>1536.3</ele>
        <time>2000-01-02T00:31:38.000Z</time>
      </trkpt>
      <trkpt lat="45.92611" lon="7.97">
        <ele>1529</ele>
        <time>2000-01-02T00:31:48.000Z</time>
      </trkpt>
      <trkpt lat="45.92618" lon="7.97018">
        <ele>1532.1</ele>
        <time>2000-01-02T00:31:58.000Z</time>
      </trkpt>
      <trkpt lat="45.92619" lon="7.97032">
        <ele>1529</ele>
        <time>2000-01-02T00:32:08.000Z</time>
      </trkpt>
      <trkpt lat="45.92626" lon="7.97054">
        <ele>1529.9</ele>
        <time>2000-01-02T00:32:18.000Z</time>
      </trkpt>
      <trkpt lat="45.92632" lon="7.97065">
        <ele>1525</ele>
        <time>2000-01-02T00:32:28.000Z</time>
      </trkpt>
      <trkpt lat="45.92633" lon="7.97081">
        <ele>1530.7</ele>
        <time>2000-01-02T00:32:38.000Z</time>
      </trkpt>
      <trkpt lat="45.92644" lon="7.97094">
        <ele>1525</ele>
        <time>2000-01-02T00:32:48.000Z</time>
      </trkpt>
      <trkpt lat="45.92656" lon="7.97098">
        <ele>1524.2</ele>
        <time>2000-01-02T00:32:58.000Z</time>
      </trkpt>
      <trkpt lat="45.92653" lon="7.97116">
        <ele>1523</ele>
        <time>2000-01-02T00:33:08.000Z</time>
      </trkpt>
      <trkpt lat="45.9267" lon="7.97157">
        <ele>1523</ele>
        <time>2000-01-02T00:33:18.000Z</time>
      </trkpt>
      <trkpt lat="45.92672" lon="7.97189">
        <ele>1522</ele>
        <time>2000-01-02T00:33:28.000Z</time>
      </trkpt>
      <trkpt lat="45.92679" lon="7.97209">
        <ele>1520.5</ele>
        <time>2000-01-02T00:33:38.000Z</time>
      </trkpt>
      <trkpt lat="45.92714" lon="7.97223">
        <ele>1520</ele>
        <time>2000-01-02T00:33:48.000Z</time>
      </trkpt>
      <trkpt lat="45.92717" lon="7.97242">
        <ele>1511.9</ele>
        <time>2000-01-02T00:33:58.000Z</time>
      </trkpt>
      <trkpt lat="45.92716" lon="7.97262">
        <ele>1518</ele>
        <time>2000-01-02T00:34:08.000Z</time>
      </trkpt>
      <trkpt lat="45.92729" lon="7.9728">
        <ele>1508.1</ele>
        <time>2000-01-02T00:34:18.000Z</time>
      </trkpt>
      <trkpt lat="45.92737" lon="7.97297">
        <ele>1516</ele>
        <time>2000-01-02T00:34:28.000Z</time>
      </trkpt>
      <trkpt lat="45.92753" lon="7.97303">
        <ele>1506.8</ele>
        <time>2000-01-02T00:34:38.000Z</time>
      </trkpt>
      <trkpt lat="45.92772" lon="7.97317">
        <ele>1507</ele>
        <time>2000-01-02T00:34:48.000Z</time>
      </trkpt>
      <trkpt lat="45.92784" lon="7.97321">
        <ele>1507</ele>
        <time>2000-01-02T00:34:58.000Z</time>
      </trkpt>
      <trkpt lat="45.92795" lon="7.9733">
        <ele>1504</ele>
        <time>2000-01-02T00:35:08.000Z</time>
      </trkpt>
      <trkpt lat="45.92805" lon="7.97331">
        <ele>1503.8</ele>
        <time>2000-01-02T00:35:18.000Z</time>
      </trkpt>
      <trkpt lat="45.92815" lon="7.97338">
        <ele>1501</ele>
        <time>2000-01-02T00:35:28.000Z</time>
      </trkpt>
      <trkpt lat="45.92823" lon="7.97342">
        <ele>1504.1</ele>
        <time>2000-01-02T00:35:38.000Z</time>
      </trkpt>
      <trkpt lat="45.92833" lon="7.97349">
        <ele>1500</ele>
        <time>2000-01-02T00:35:48.000Z</time>
      </trkpt>
      <trkpt lat="45.92847" lon="7.97352">
        <ele>1503.4</ele>
        <time>2000-01-02T00:35:58.000Z</time>
      </trkpt>
      <trkpt lat="45.92856" lon="7.97362">
        <ele>1499</ele>
        <time>2000-01-02T00:36:08.000Z</time>
      </trkpt>
      <trkpt lat="45.92862" lon="7.97372">
        <ele>1504.8</ele>
        <time>2000-01-02T00:36:18.000Z</time>
      </trkpt>
      <trkpt lat="45.92873" lon="7.97367">
        <ele>1496</ele>
        <time>2000-01-02T00:36:28.000Z</time>
      </trkpt>
      <trkpt lat="45.92887" lon="7.97376">
        <ele>1500.5</ele>
        <time>2000-01-02T00:36:38.000Z</time>
      </trkpt>
      <trkpt lat="45.92904" lon="7.97375">
        <ele>1494</ele>
        <time>2000-01-02T00:36:48.000Z</time>
      </trkpt>
      <trkpt lat="45.92915" lon="7.97382">
        <ele>1498.4</ele>
        <time>2000-01-02T00:36:58.000Z</time>
      </trkpt>
      <trkpt lat="45.92923" lon="7.97389">
        <ele>1493</ele>
        <time>2000-01-02T00:37:08.000Z</time>
      </trkpt>
      <trkpt lat="45.92929" lon="7.97403">
        <ele>1498.9</ele>
        <time>2000-01-02T00:37:18.000Z</time>
      </trkpt>
      <trkpt lat="45.92941" lon="7.97401">
        <ele>1492</ele>
        <time>2000-01-02T00:37:28.000Z</time>
      </trkpt>
      <trkpt lat="45.92953" lon="7.97409">
        <ele>1494</ele>
        <time>2000-01-02T00:37:38.000Z</time>
      </trkpt>
      <trkpt lat="45.92965" lon="7.97406">
        <ele>1490</ele>
        <time>2000-01-02T00:37:48.000Z</time>
      </trkpt>
      <trkpt lat="45.92974" lon="7.97417">
        <ele>1490.8</ele>
        <time>2000-01-02T00:37:58.000Z</time>
      </trkpt>
      <trkpt lat="45.92993" lon="7.97424">
        <ele>1489</ele>
        <time>2000-01-02T00:38:08.000Z</time>
      </trkpt>
      <trkpt lat="45.93002" lon="7.97422">
        <ele>1487</ele>
        <time>2000-01-02T00:38:18.000Z</time>
      </trkpt>
      <trkpt lat="45.93014" lon="7.97422">
        <ele>1487</ele>
        <time>2000-01-02T00:38:28.000Z</time>
      </trkpt>
      <trkpt lat="45.93031" lon="7.97427">
        <ele>1484.2</ele>
        <time>2000-01-02T00:38:38.000Z</time>
      </trkpt>
      <trkpt lat="45.93037" lon="7.97454">
        <ele>1487</ele>
        <time>2000-01-02T00:38:48.000Z</time>
      </trkpt>
      <trkpt lat="45.93052" lon="7.97471">
        <ele>1487</ele>
        <time>2000-01-02T00:38:58.000Z</time>
      </trkpt>
      <trkpt lat="45.93062" lon="7.97465">
        <ele>1483.4</ele>
        <time>2000-01-02T00:39:08.000Z</time>
      </trkpt>
      <trkpt lat="45.93074" lon="7.97465">
        <ele>1484</ele>
        <time>2000-01-02T00:39:18.000Z</time>
      </trkpt>
      <trkpt lat="45.93087" lon="7.97469">
        <ele>1480.9</ele>
        <time>2000-01-02T00:39:28.000Z</time>
      </trkpt>
      <trkpt lat="45.93108" lon="7.97464">
        <ele>1481</ele>
        <time>2000-01-02T00:39:38.000Z</time>
      </trkpt>
      <trkpt lat="45.9312" lon="7.97465">
        <ele>1479.2</ele>
        <time>2000-01-02T00:39:48.000Z</time>
      </trkpt>
      <trkpt lat="45.93131" lon="7.97471">
        <ele>1481</ele>
        <time>2000-01-02T00:39:58.000Z</time>
      </trkpt>
      <trkpt lat="45.93139" lon="7.97479">
        <ele>1479.7</ele>
        <time>2000-01-02T00:40:08.000Z</time>
      </trkpt>
      <trkpt lat="45.93151" lon="7.97482">
        <ele>1481</ele>
        <time>2000-01-02T00:40:18.000Z</time>
      </trkpt>
      <trkpt lat="45.93179" lon="7.97485">
        <ele>1480</ele>
        <time>2000-01-02T00:40:28.000Z</time>
      </trkpt>
      <trkpt lat="45.93193" lon="7.97491">
        <ele>1479.5</ele>
        <time>2000-01-02T00:40:38.000Z</time>
      </trkpt>
      <trkpt lat="45.93221" lon="7.97492">
        <ele>1480</ele>
        <time>2000-01-02T00:40:48.000Z</time>
      </trkpt>
      <trkpt lat="45.93231" lon="7.9749">
        <ele>1476.6</ele>
        <time>2000-01-02T00:40:58.000Z</time>
      </trkpt>
      <trkpt lat="45.93241" lon="7.97484">
        <ele>1479</ele>
        <time>2000-01-02T00:41:08.000Z</time>
      </trkpt>
      <trkpt lat="45.9325" lon="7.97476">
        <ele>1473.7</ele>
        <time>2000-01-02T00:41:18.000Z</time>
      </trkpt>
      <trkpt lat="45.93263" lon="7.97475">
        <ele>1476</ele>
        <time>2000-01-02T00:41:28.000Z</time>
      </trkpt>
      <trkpt lat="45.93274" lon="7.9747">
        <ele>1469.4</ele>
        <time>2000-01-02T00:41:38.000Z</time>
      </trkpt>
      <trkpt lat="45.93284" lon="7.97469">
        <ele>1475</ele>
        <time>2000-01-02T00:41:48.000Z</time>
      </trkpt>
      <trkpt lat="45.93293" lon="7.97474">
        <ele>1468.6</ele>
        <time>2000-01-02T00:41:58.000Z</time>
      </trkpt>
      <trkpt lat="45.93302" lon="7.97491">
        <ele>1474</ele>
        <time>2000-01-02T00:42:08.000Z</time>
      </trkpt>
      <trkpt lat="45.93318" lon="7.97499">
        <ele>1470.4</ele>
        <time>2000-01-02T00:42:18.000Z</time>
      </trkpt>
      <trkpt lat="45.93342" lon="7.97489">
        <ele>1469</ele>
        <time>2000-01-02T00:42:28.000Z</time>
      </trkpt>
      <trkpt lat="45.93355" lon="7.97488">
        <ele>1466.7</ele>
        <time>2000-01-02T00:42:38.000Z</time>
      </trkpt>
      <trkpt lat="45.9338" lon="7.97473">
        <ele>1467</ele>
        <time>2000-01-02T00:42:48.000Z</time>
      </trkpt>
      <trkpt lat="45.93389" lon="7.97464">
        <ele>1461.8</ele>
        <time>2000-01-02T00:42:58.000Z</time>
      </trkpt>
      <trkpt lat="45.93396" lon="7.97452">
        <ele>1467</ele>
        <time>2000-01-02T00:43:08.000Z</time>
      </trkpt>
      <trkpt lat="45.93418" lon="7.97438">
        <ele>1467</ele>
        <time>2000-01-02T00:43:18.000Z</time>
      </trkpt>
      <trkpt lat="45.93433" lon="7.97439">
        <ele>1463.2</ele>
        <time>2000-01-02T00:43:28.000Z</time>
      </trkpt>
      <trkpt lat="45.93445" lon="7.9744">
        <ele>1466</ele>
        <time>2000-01-02T00:43:38.000Z</time>
      </trkpt>
      <trkpt lat="45.93472" lon="7.97434">
        <ele>1465</ele>
        <time>2000-01-02T00:43:48.000Z</time>
      </trkpt>
      <trkpt lat="45.93492" lon="7.97424">
        <ele>1465</ele>
        <time>2000-01-02T00:43:58.000Z</time>
      </trkpt>
      <trkpt lat="45.93504" lon="7.97427">
        <ele>1457.1</ele>
        <time>2000-01-02T00:44:08.000Z</time>
      </trkpt>
      <trkpt lat="45.93517" lon="7.97421">
        <ele>1465</ele>
        <time>2000-01-02T00:44:18.000Z</time>
      </trkpt>
      <trkpt lat="45.93533" lon="7.97428">
        <ele>1457.1</ele>
        <time>2000-01-02T00:44:28.000Z</time>
      </trkpt>
      <trkpt lat="45.93555" lon="7.97457">
        <ele>1461</ele>
        <time>2000-01-02T00:44:38.000Z</time>
      </trkpt>
      <trkpt lat="45.93573" lon="7.97456">
        <ele>1447.8</ele>
        <time>2000-01-02T00:44:48.000Z</time>
      </trkpt>
      <trkpt lat="45.93587" lon="7.97451">
        <ele>1461</ele>
        <time>2000-01-02T00:44:58.000Z</time>
      </trkpt>
      <trkpt lat="45.93601" lon="7.97457">
        <ele>1446.1</ele>
        <time>2000-01-02T00:45:08.000Z</time>
      </trkpt>
      <trkpt lat="45.93613" lon="7.97459">
        <ele>1460</ele>
        <time>2000-01-02T00:45:18.000Z</time>
      </trkpt>
      <trkpt lat="45.93626" lon="7.97458">
        <ele>1449.4</ele>
        <time>2000-01-02T00:45:28.000Z</time>
      </trkpt>
      <trkpt lat="45.93633" lon="7.97473">
        <ele>1455</ele>
        <time>2000-01-02T00:45:38.000Z</time>
      </trkpt>
      <trkpt lat="45.93649" lon="7.97491">
        <ele>1452</ele>
        <time>2000-01-02T00:45:48.000Z</time>
      </trkpt>
      <trkpt lat="45.9366" lon="7.97493">
        <ele>1444.2</ele>
        <time>2000-01-02T00:45:58.000Z</time>
      </trkpt>
      <trkpt lat="45.9367" lon="7.97508">
        <ele>1449</ele>
        <time>2000-01-02T00:46:08.000Z</time>
      </trkpt>
      <trkpt lat="45.93672" lon="7.97522">
        <ele>1439.4</ele>
        <time>2000-01-02T00:46:18.000Z</time>
      </trkpt>
      <trkpt lat="45.93682" lon="7.97522">
        <ele>1447</ele>
        <time>2000-01-02T00:46:28.000Z</time>
      </trkpt>
      <trkpt lat="45.93694" lon="7.97512">
        <ele>1437.9</ele>
        <time>2000-01-02T00:46:38.000Z</time>
      </trkpt>
      <trkpt lat="45.93702" lon="7.97521">
        <ele>1447</ele>
        <time>2000-01-02T00:46:48.000Z</time>
      </trkpt>
      <trkpt lat="45.93703" lon="7.97544">
        <ele>1435.5</ele>
        <time>2000-01-02T00:46:58.000Z</time>
      </trkpt>
      <trkpt lat="45.93707" lon="7.97564">
        <ele>1443</ele>
        <time>2000-01-02T00:47:08.000Z</time>
      </trkpt>
      <trkpt lat="45.93716" lon="7.97577">
        <ele>1432.2</ele>
        <time>2000-01-02T00:47:18.000Z</time>
      </trkpt>
      <trkpt lat="45.93717" lon="7.97592">
        <ele>1439</ele>
        <time>2000-01-02T00:47:28.000Z</time>
      </trkpt>
      <trkpt lat="45.93724" lon="7.97601">
        <ele>1427</ele>
        <time>2000-01-02T00:47:38.000Z</time>
      </trkpt>
      <trkpt lat="45.93737" lon="7.97612">
        <ele>1435</ele>
        <time>2000-01-02T00:47:48.000Z</time>
      </trkpt>
      <trkpt lat="45.93748" lon="7.97617">
        <ele>1424.5</ele>
        <time>2000-01-02T00:47:58.000Z</time>
      </trkpt>
      <trkpt lat="45.93765" lon="7.97629">
        <ele>1432</ele>
        <time>2000-01-02T00:48:08.000Z</time>
      </trkpt>
      <trkpt lat="45.93774" lon="7.97642">
        <ele>1418.2</ele>
        <time>2000-01-02T00:48:18.000Z</time>
      </trkpt>
      <trkpt lat="45.93784" lon="7.97645">
        <ele>1427</ele>
        <time>2000-01-02T00:48:28.000Z</time>
      </trkpt>
      <trkpt lat="45.93797" lon="7.97643">
        <ele>1414.2</ele>
        <time>2000-01-02T00:48:38.000Z</time>
      </trkpt>
      <trkpt lat="45.93816" lon="7.97648">
        <ele>1424</ele>
        <time>2000-01-02T00:48:48.000Z</time>
      </trkpt>
      <trkpt lat="45.93837" lon="7.97652">
        <ele>1420</ele>
        <time>2000-01-02T00:48:58.000Z</time>
      </trkpt>
      <trkpt lat="45.93862" lon="7.97666">
        <ele>1415</ele>
        <time>2000-01-02T00:49:08.000Z</time>
      </trkpt>
      <trkpt lat="45.93875" lon="7.97666">
        <ele>1395.2</ele>
        <time>2000-01-02T00:49:18.000Z</time>
      </trkpt>
      <trkpt lat="45.93888" lon="7.97666">
        <ele>1412</ele>
        <time>2000-01-02T00:49:28.000Z</time>
      </trkpt>
      <trkpt lat="45.93905" lon="7.97673">
        <ele>1388.9</ele>
        <time>2000-01-02T00:49:38.000Z</time>
      </trkpt>
      <trkpt lat="45.93915" lon="7.9769">
        <ele>1405</ele>
        <time>2000-01-02T00:49:48.000Z</time>
      </trkpt>
      <trkpt lat="45.93926" lon="7.97692">
        <ele>1383.8</ele>
        <time>2000-01-02T00:49:58.000Z</time>
      </trkpt>
      <trkpt lat="45.93942" lon="7.97696">
        <ele>1401</ele>
        <time>2000-01-02T00:50:08.000Z</time>
      </trkpt>
      <trkpt lat="45.9395" lon="7.97703">
        <ele>1382</ele>
        <time>2000-01-02T00:50:18.000Z</time>
      </trkpt>
      <trkpt lat="45.93956" lon="7.97718">
        <ele>1397</ele>
        <time>2000-01-02T00:50:28.000Z</time>
      </trkpt>
      <trkpt lat="45.93961" lon="7.9775">
        <ele>1392</ele>
        <time>2000-01-02T00:50:38.000Z</time>
      </trkpt>
      <trkpt lat="45.93975" lon="7.97756">
        <ele>1374.8</ele>
        <time>2000-01-02T00:50:48.000Z</time>
      </trkpt>
      <trkpt lat="45.93985" lon="7.97758">
        <ele>1389</ele>
        <time>2000-01-02T00:50:58.000Z</time>
      </trkpt>
      <trkpt lat="45.93999" lon="7.97763">
        <ele>1373.1</ele>
        <time>2000-01-02T00:51:08.000Z</time>
      </trkpt>
      <trkpt lat="45.94014" lon="7.97765">
        <ele>1385</ele>
        <time>2000-01-02T00:51:18.000Z</time>
      </trkpt>
      <trkpt lat="45.94038" lon="7.97772">
        <ele>1383</ele>
        <time>2000-01-02T00:51:28.000Z</time>
      </trkpt>
      <trkpt lat="45.94066" lon="7.97766">
        <ele>1381</ele>
        <time>2000-01-02T00:51:38.000Z</time>
      </trkpt>
      <trkpt lat="45.94084" lon="7.97765">
        <ele>1364.3</ele>
        <time>2000-01-02T00:51:48.000Z</time>
      </trkpt>
      <trkpt lat="45.94102" lon="7.97759">
        <ele>1381</ele>
        <time>2000-01-02T00:51:58.000Z</time>
      </trkpt>
      <trkpt lat="45.94119" lon="7.9775">
        <ele>1381</ele>
        <time>2000-01-02T00:52:08.000Z</time>
      </trkpt>
      <trkpt lat="45.94136" lon="7.97748">
        <ele>1363.2</ele>
        <time>2000-01-02T00:52:18.000Z</time>
      </trkpt>
      <trkpt lat="45.9415" lon="7.97751">
        <ele>1381</ele>
        <time>2000-01-02T00:52:28.000Z</time>
      </trkpt>
      <trkpt lat="45.94177" lon="7.97759">
        <ele>1381</ele>
        <time>2000-01-02T00:52:38.000Z</time>
      </trkpt>
      <trkpt lat="45.94195" lon="7.9776">
        <ele>1362.4</ele>
        <time>2000-01-02T00:52:48.000Z</time>
      </trkpt>
      <trkpt lat="45.94207" lon="7.97765">
        <ele>1380</ele>
        <time>2000-01-02T00:52:58.000Z</time>
      </trkpt>
      <trkpt lat="45.9422" lon="7.97781">
        <ele>1357.5</ele>
        <time>2000-01-02T00:53:08.000Z</time>
      </trkpt>
      <trkpt lat="45.94246" lon="7.97798">
        <ele>1378</ele>
        <time>2000-01-02T00:53:18.000Z</time>
      </trkpt>
      <trkpt lat="45.94253" lon="7.97808">
        <ele>1355.2</ele>
        <time>2000-01-02T00:53:28.000Z</time>
      </trkpt>
      <trkpt lat="45.94277" lon="7.97815">
        <ele>1375</ele>
        <time>2000-01-02T00:53:38.000Z</time>
      </trkpt>
      <trkpt lat="45.9431" lon="7.97821">
        <ele>1375</ele>
        <time>2000-01-02T00:53:48.000Z</time>
      </trkpt>
      <trkpt lat="45.94319" lon="7.97828">
        <ele>1353.8</ele>
        <time>2000-01-02T00:53:58.000Z</time>
      </trkpt>
      <trkpt lat="45.94354" lon="7.97836">
        <ele>1374</ele>
        <time>2000-01-02T00:54:08.000Z</time>
      </trkpt>
      <trkpt lat="45.94371" lon="7.97843">
        <ele>1354.4</ele>
        <time>2000-01-02T00:54:18.000Z</time>
      </trkpt>
      <trkpt lat="45.94385" lon="7.97856">
        <ele>1371</ele>
        <time>2000-01-02T00:54:28.000Z</time>
      </trkpt>
      <trkpt lat="45.9439" lon="7.97868">
        <ele>1350.8</ele>
        <time>2000-01-02T00:54:38.000Z</time>
      </trkpt>
      <trkpt lat="45.94398" lon="7.97878">
        <ele>1368</ele>
        <time>2000-01-02T00:54:48.000Z</time>
      </trkpt>
      <trkpt lat="45.94436" lon="7.97893">
        <ele>1368</ele>
        <time>2000-01-02T00:54:58.000Z</time>
      </trkpt>
      <trkpt lat="45.94453" lon="7.97907">
        <ele>1368</ele>
        <time>2000-01-02T00:55:08.000Z</time>
      </trkpt>
      <trkpt lat="45.94463" lon="7.9792">
        <ele>1351</ele>
        <time>2000-01-02T00:55:18.000Z</time>
      </trkpt>
      <trkpt lat="45.94485" lon="7.97937">
        <ele>1368</ele>
        <time>2000-01-02T00:55:28.000Z</time>
      </trkpt>
      <trkpt lat="45.94495" lon="7.97947">
        <ele>1349.5</ele>
        <time>2000-01-02T00:55:38.000Z</time>
      </trkpt>
      <trkpt lat="45.94504" lon="7.97952">
        <ele>1367</ele>
        <time>2000-01-02T00:55:48.000Z</time>
      </trkpt>
      <trkpt lat="45.9453" lon="7.97962">
        <ele>1366</ele>
        <time>2000-01-02T00:55:58.000Z</time>
      </trkpt>
      <trkpt lat="45.9454" lon="7.97974">
        <ele>1349.7</ele>
        <time>2000-01-02T00:56:08.000Z</time>
      </trkpt>
      <trkpt lat="45.94567" lon="7.97987">
        <ele>1363</ele>
        <time>2000-01-02T00:56:18.000Z</time>
      </trkpt>
      <trkpt lat="45.94597" lon="7.97999">
        <ele>1361</ele>
        <time>2000-01-02T00:56:28.000Z</time>
      </trkpt>
      <trkpt lat="45.94608" lon="7.9801">
        <ele>1344.7</ele>
        <time>2000-01-02T00:56:38.000Z</time>
      </trkpt>
      <trkpt lat="45.94612" lon="7.98022">
        <ele>1356</ele>
        <time>2000-01-02T00:56:48.000Z</time>
      </trkpt>
      <trkpt lat="45.94615" lon="7.98044">
        <ele>1341.4</ele>
        <time>2000-01-02T00:56:58.000Z</time>
      </trkpt>
      <trkpt lat="45.94628" lon="7.98053">
        <ele>1353</ele>
        <time>2000-01-02T00:57:08.000Z</time>
      </trkpt>
      <trkpt lat="45.94663" lon="7.98063">
        <ele>1350</ele>
        <time>2000-01-02T00:57:18.000Z</time>
      </trkpt>
      <trkpt lat="45.94682" lon="7.98069">
        <ele>1349</ele>
        <time>2000-01-02T00:57:28.000Z</time>
      </trkpt>
      <trkpt lat="45.94698" lon="7.98075">
        <ele>1338.4</ele>
        <time>2000-01-02T00:57:38.000Z</time>
      </trkpt>
      <trkpt lat="45.94712" lon="7.98089">
        <ele>1345</ele>
        <time>2000-01-02T00:57:48.000Z</time>
      </trkpt>
      <trkpt lat="45.94729" lon="7.98099">
        <ele>1344</ele>
        <time>2000-01-02T00:57:58.000Z</time>
      </trkpt>
      <trkpt lat="45.94748" lon="7.98107">
        <ele>1343</ele>
        <time>2000-01-02T00:58:08.000Z</time>
      </trkpt>
      <trkpt lat="45.94763" lon="7.98116">
        <ele>1336.9</ele>
        <time>2000-01-02T00:58:18.000Z</time>
      </trkpt>
      <trkpt lat="45.94771" lon="7.98122">
        <ele>1341</ele>
        <time>2000-01-02T00:58:28.000Z</time>
      </trkpt>
      <trkpt lat="45.94788" lon="7.98138">
        <ele>1341</ele>
        <time>2000-01-02T00:58:38.000Z</time>
      </trkpt>
      <trkpt lat="45.94804" lon="7.98146">
        <ele>1336</ele>
        <time>2000-01-02T00:58:48.000Z</time>
      </trkpt>
      <trkpt lat="45.94822" lon="7.98151">
        <ele>1341</ele>
        <time>2000-01-02T00:58:58.000Z</time>
      </trkpt>
      <trkpt lat="45.94842" lon="7.98158">
        <ele>1341</ele>
        <time>2000-01-02T00:59:08.000Z</time>
      </trkpt>
      <trkpt lat="45.94862" lon="7.98173">
        <ele>1340</ele>
        <time>2000-01-02T00:59:18.000Z</time>
      </trkpt>
      <trkpt lat="45.94872" lon="7.98174">
        <ele>1332.2</ele>
        <time>2000-01-02T00:59:28.000Z</time>
      </trkpt>
      <trkpt lat="45.9489" lon="7.98179">
        <ele>1340</ele>
        <time>2000-01-02T00:59:38.000Z</time>
      </trkpt>
      <trkpt lat="45.94932" lon="7.98185">
        <ele>1340</ele>
        <time>2000-01-02T00:59:48.000Z</time>
      </trkpt>
      <trkpt lat="45.94949" lon="7.98197">
        <ele>1339</ele>
        <time>2000-01-02T00:59:58.000Z</time>
      </trkpt>
      <trkpt lat="45.94971" lon="7.982">
        <ele>1338</ele>
        <time>2000-01-02T01:00:08.000Z</time>
      </trkpt>
      <trkpt lat="45.95005" lon="7.98208">
        <ele>1337</ele>
        <time>2000-01-02T01:00:18.000Z</time>
      </trkpt>
      <trkpt lat="45.95017" lon="7.98209">
        <ele>1327.6</ele>
        <time>2000-01-02T01:00:28.000Z</time>
      </trkpt>
      <trkpt lat="45.95035" lon="7.98209">
        <ele>1336</ele>
        <time>2000-01-02T01:00:38.000Z</time>
      </trkpt>
      <trkpt lat="45.95051" lon="7.98213">
        <ele>1326.8</ele>
        <time>2000-01-02T01:00:48.000Z</time>
      </trkpt>
      <trkpt lat="45.9508" lon="7.98228">
        <ele>1332</ele>
        <time>2000-01-02T01:00:58.000Z</time>
      </trkpt>
      <trkpt lat="45.95097" lon="7.98241">
        <ele>1329</ele>
        <time>2000-01-02T01:01:08.000Z</time>
      </trkpt>
      <trkpt lat="45.95111" lon="7.98249">
        <ele>1323.1</ele>
        <time>2000-01-02T01:01:18.000Z</time>
      </trkpt>
      <trkpt lat="45.95125" lon="7.98264">
        <ele>1328</ele>
        <time>2000-01-02T01:01:28.000Z</time>
      </trkpt>
      <trkpt lat="45.9514" lon="7.98276">
        <ele>1322.3</ele>
        <time>2000-01-02T01:01:38.000Z</time>
      </trkpt>
      <trkpt lat="45.95166" lon="7.98308">
        <ele>1325</ele>
        <time>2000-01-02T01:01:48.000Z</time>
      </trkpt>
      <trkpt lat="45.9518" lon="7.9833">
        <ele>1325</ele>
        <time>2000-01-02T01:01:58.000Z</time>
      </trkpt>
      <trkpt lat="45.95211" lon="7.98365">
        <ele>1325</ele>
        <time>2000-01-02T01:02:08.000Z</time>
      </trkpt>
      <trkpt lat="45.95228" lon="7.98416">
        <ele>1323</ele>
        <time>2000-01-02T01:02:18.000Z</time>
      </trkpt>
      <trkpt lat="45.95239" lon="7.98437">
        <ele>1320.1</ele>
        <time>2000-01-02T01:02:28.000Z</time>
      </trkpt>
      <trkpt lat="45.95255" lon="7.98448">
        <ele>1323</ele>
        <time>2000-01-02T01:02:38.000Z</time>
      </trkpt>
      <trkpt lat="45.95277" lon="7.98471">
        <ele>1323</ele>
        <time>2000-01-02T01:02:48.000Z</time>
      </trkpt>
      <trkpt lat="45.95314" lon="7.98495">
        <ele>1324</ele>
        <time>2000-01-02T01:02:58.000Z</time>
      </trkpt>
      <trkpt lat="45.95353" lon="7.98522">
        <ele>1329</ele>
        <time>2000-01-02T01:03:08.000Z</time>
      </trkpt>
      <trkpt lat="45.95372" lon="7.98528">
        <ele>1332</ele>
        <time>2000-01-02T01:03:18.000Z</time>
      </trkpt>
      <trkpt lat="45.95391" lon="7.98536">
        <ele>1336</ele>
        <time>2000-01-02T01:03:28.000Z</time>
      </trkpt>
      <trkpt lat="45.95408" lon="7.98545">
        <ele>1323.8</ele>
        <time>2000-01-02T01:03:38.000Z</time>
      </trkpt>
      <trkpt lat="45.95422" lon="7.98558">
        <ele>1335</ele>
        <time>2000-01-02T01:03:48.000Z</time>
      </trkpt>
      <trkpt lat="45.95432" lon="7.98581">
        <ele>1334</ele>
        <time>2000-01-02T01:03:58.000Z</time>
      </trkpt>
      <trkpt lat="45.95437" lon="7.98609">
        <ele>1331</ele>
        <time>2000-01-02T01:04:08.000Z</time>
      </trkpt>
      <trkpt lat="45.95437" lon="7.98638">
        <ele>1326</ele>
        <time>2000-01-02T01:04:18.000Z</time>
      </trkpt>
      <trkpt lat="45.95452" lon="7.98688">
        <ele>1322</ele>
        <time>2000-01-02T01:04:28.000Z</time>
      </trkpt>
      <trkpt lat="45.95459" lon="7.98697">
        <ele>1317.9</ele>
        <time>2000-01-02T01:04:38.000Z</time>
      </trkpt>
      <trkpt lat="45.95467" lon="7.98704">
        <ele>1319</ele>
        <time>2000-01-02T01:04:48.000Z</time>
      </trkpt>
      <trkpt lat="45.95485" lon="7.98711">
        <ele>1318</ele>
        <time>2000-01-02T01:04:58.000Z</time>
      </trkpt>
      <trkpt lat="45.95519" lon="7.9872">
        <ele>1316</ele>
        <time>2000-01-02T01:05:08.000Z</time>
      </trkpt>
      <trkpt lat="45.95531" lon="7.98729">
        <ele>1311.1</ele>
        <time>2000-01-02T01:05:18.000Z</time>
      </trkpt>
      <trkpt lat="45.95541" lon="7.9874">
        <ele>1314</ele>
        <time>2000-01-02T01:05:28.000Z</time>
      </trkpt>
      <trkpt lat="45.95558" lon="7.98763">
        <ele>1309</ele>
        <time>2000-01-02T01:05:38.000Z</time>
      </trkpt>
      <trkpt lat="45.95575" lon="7.98771">
        <ele>1309.2</ele>
        <time>2000-01-02T01:05:48.000Z</time>
      </trkpt>
      <trkpt lat="45.95592" lon="7.9876">
        <ele>1307</ele>
        <time>2000-01-02T01:05:58.000Z</time>
      </trkpt>
      <trkpt lat="45.95612" lon="7.98751">
        <ele>1307</ele>
        <time>2000-01-02T01:06:08.000Z</time>
      </trkpt>
      <trkpt lat="45.95623" lon="7.98752">
        <ele>1308.5</ele>
        <time>2000-01-02T01:06:18.000Z</time>
      </trkpt>
      <trkpt lat="45.95645" lon="7.98737">
        <ele>1310</ele>
        <time>2000-01-02T01:06:28.000Z</time>
      </trkpt>
      <trkpt lat="45.95655" lon="7.98732">
        <ele>1311.4</ele>
        <time>2000-01-02T01:06:38.000Z</time>
      </trkpt>
      <trkpt lat="45.95673" lon="7.98719">
        <ele>1307</ele>
        <time>2000-01-02T01:06:48.000Z</time>
      </trkpt>
      <trkpt lat="45.9569" lon="7.98711">
        <ele>1311.8</ele>
        <time>2000-01-02T01:06:58.000Z</time>
      </trkpt>
      <trkpt lat="45.95713" lon="7.98715">
        <ele>1305</ele>
        <time>2000-01-02T01:07:08.000Z</time>
      </trkpt>
      <trkpt lat="45.95731" lon="7.98702">
        <ele>1307</ele>
        <time>2000-01-02T01:07:18.000Z</time>
      </trkpt>
      <trkpt lat="45.9574" lon="7.98691">
        <ele>1299</ele>
        <time>2000-01-02T01:07:28.000Z</time>
      </trkpt>
      <trkpt lat="45.95752" lon="7.98668">
        <ele>1310</ele>
        <time>2000-01-02T01:07:38.000Z</time>
      </trkpt>
      <trkpt lat="45.95759" lon="7.98642">
        <ele>1316</ele>
        <time>2000-01-02T01:07:48.000Z</time>
      </trkpt>
      <trkpt lat="45.95762" lon="7.98623">
        <ele>1307.6</ele>
        <time>2000-01-02T01:07:58.000Z</time>
      </trkpt>
      <trkpt lat="45.95778" lon="7.98609">
        <ele>1311</ele>
        <time>2000-01-02T01:08:08.000Z</time>
      </trkpt>
      <trkpt lat="45.95806" lon="7.98612">
        <ele>1306</ele>
        <time>2000-01-02T01:08:18.000Z</time>
      </trkpt>
      <trkpt lat="45.95823" lon="7.98607">
        <ele>1299.9</ele>
        <time>2000-01-02T01:08:28.000Z</time>
      </trkpt>
      <trkpt lat="45.95836" lon="7.98598">
        <ele>1299</ele>
        <time>2000-01-02T01:08:38.000Z</time>
      </trkpt>
      <trkpt lat="45.95857" lon="7.98577">
        <ele>1295</ele>
        <time>2000-01-02T01:08:48.000Z</time>
      </trkpt>
      <trkpt lat="45.95888" lon="7.9855">
        <ele>1285</ele>
        <time>2000-01-02T01:08:58.000Z</time>
      </trkpt>
      <trkpt lat="45.95907" lon="7.98537">
        <ele>1280</ele>
        <time>2000-01-02T01:09:08.000Z</time>
      </trkpt>
      <trkpt lat="45.95924" lon="7.98527">
        <ele>1274</ele>
        <time>2000-01-02T01:09:18.000Z</time>
      </trkpt>
      <trkpt lat="45.95942" lon="7.98483">
        <ele>1268</ele>
        <time>2000-01-02T01:09:28.000Z</time>
      </trkpt>
      <trkpt lat="45.95949" lon="7.98469">
        <ele>1285.4</ele>
        <time>2000-01-02T01:09:38.000Z</time>
      </trkpt>
      <trkpt lat="45.95954" lon="7.98456">
        <ele>1266</ele>
        <time>2000-01-02T01:09:48.000Z</time>
      </trkpt>
      <trkpt lat="45.95955" lon="7.9844">
        <ele>1285.2</ele>
        <time>2000-01-02T01:09:58.000Z</time>
      </trkpt>
      <trkpt lat="45.95952" lon="7.98418">
        <ele>1266</ele>
        <time>2000-01-02T01:10:08.000Z</time>
      </trkpt>
      <trkpt lat="45.9595" lon="7.98393">
        <ele>1284.3</ele>
        <time>2000-01-02T01:10:18.000Z</time>
      </trkpt>
      <trkpt lat="45.95952" lon="7.98377">
        <ele>1266</ele>
        <time>2000-01-02T01:10:28.000Z</time>
      </trkpt>
      <trkpt lat="45.95961" lon="7.9837">
        <ele>1274.4</ele>
        <time>2000-01-02T01:10:38.000Z</time>
      </trkpt>
      <trkpt lat="45.95972" lon="7.98352">
        <ele>1255</ele>
        <time>2000-01-02T01:10:48.000Z</time>
      </trkpt>
      <trkpt lat="45.95984" lon="7.98322">
        <ele>1250</ele>
        <time>2000-01-02T01:10:58.000Z</time>
      </trkpt>
      <trkpt lat="45.95986" lon="7.98309">
        <ele>1260.9</ele>
        <time>2000-01-02T01:11:08.000Z</time>
      </trkpt>
      <trkpt lat="45.95994" lon="7.98287">
        <ele>1245</ele>
        <time>2000-01-02T01:11:18.000Z</time>
      </trkpt>
      <trkpt lat="45.96006" lon="7.98271">
        <ele>1248.8</ele>
        <time>2000-01-02T01:11:28.000Z</time>
      </trkpt>
      <trkpt lat="45.96004" lon="7.9824">
        <ele>1246</ele>
        <time>2000-01-02T01:11:38.000Z</time>
      </trkpt>
      <trkpt lat="45.95999" lon="7.98212">
        <ele>1244</ele>
        <time>2000-01-02T01:11:48.000Z</time>
      </trkpt>
      <trkpt lat="45.96002" lon="7.98193">
        <ele>1251.5</ele>
        <time>2000-01-02T01:11:58.000Z</time>
      </trkpt>
      <trkpt lat="45.96004" lon="7.98176">
        <ele>1243</ele>
        <time>2000-01-02T01:12:08.000Z</time>
      </trkpt>
      <trkpt lat="45.96013" lon="7.9815">
        <ele>1240</ele>
        <time>2000-01-02T01:12:18.000Z</time>
      </trkpt>
      <trkpt lat="45.9602" lon="7.98139">
        <ele>1241.8</ele>
        <time>2000-01-02T01:12:28.000Z</time>
      </trkpt>
      <trkpt lat="45.96032" lon="7.98129">
        <ele>1235</ele>
        <time>2000-01-02T01:12:38.000Z</time>
      </trkpt>
      <trkpt lat="45.96044" lon="7.98107">
        <ele>1235</ele>
        <time>2000-01-02T01:12:48.000Z</time>
      </trkpt>
      <trkpt lat="45.96044" lon="7.98082">
        <ele>1229.3</ele>
        <time>2000-01-02T01:12:58.000Z</time>
      </trkpt>
      <trkpt lat="45.96042" lon="7.9806">
        <ele>1235</ele>
        <time>2000-01-02T01:13:08.000Z</time>
      </trkpt>
      <trkpt lat="45.96055" lon="7.98028">
        <ele>1235</ele>
        <time>2000-01-02T01:13:18.000Z</time>
      </trkpt>
      <trkpt lat="45.96057" lon="7.98005">
        <ele>1228.4</ele>
        <time>2000-01-02T01:13:28.000Z</time>
      </trkpt>
      <trkpt lat="45.96062" lon="7.97987">
        <ele>1236</ele>
        <time>2000-01-02T01:13:38.000Z</time>
      </trkpt>
      <trkpt lat="45.96062" lon="7.97962">
        <ele>1235.3</ele>
        <time>2000-01-02T01:13:48.000Z</time>
      </trkpt>
      <trkpt lat="45.96061" lon="7.97947">
        <ele>1240</ele>
        <time>2000-01-02T01:13:58.000Z</time>
      </trkpt>
      <trkpt lat="45.9607" lon="7.97917">
        <ele>1244</ele>
        <time>2000-01-02T01:14:08.000Z</time>
      </trkpt>
      <trkpt lat="45.96079" lon="7.97894">
        <ele>1238.9</ele>
        <time>2000-01-02T01:14:18.000Z</time>
      </trkpt>
      <trkpt lat="45.96085" lon="7.97857">
        <ele>1250</ele>
        <time>2000-01-02T01:14:28.000Z</time>
      </trkpt>
      <trkpt lat="45.96094" lon="7.97839">
        <ele>1246</ele>
        <time>2000-01-02T01:14:38.000Z</time>
      </trkpt>
      <trkpt lat="45.96102" lon="7.97809">
        <ele>1255</ele>
        <time>2000-01-02T01:14:48.000Z</time>
      </trkpt>
      <trkpt lat="45.96139" lon="7.97788">
        <ele>1255</ele>
        <time>2000-01-02T01:14:58.000Z</time>
      </trkpt>
      <trkpt lat="45.96158" lon="7.9778">
        <ele>1255</ele>
        <time>2000-01-02T01:15:08.000Z</time>
      </trkpt>
      <trkpt lat="45.96189" lon="7.9776">
        <ele>1255</ele>
        <time>2000-01-02T01:15:18.000Z</time>
      </trkpt>
      <trkpt lat="45.96218" lon="7.97755">
        <ele>1253</ele>
        <time>2000-01-02T01:15:28.000Z</time>
      </trkpt>
      <trkpt lat="45.96231" lon="7.97754">
        <ele>1248.4</ele>
        <time>2000-01-02T01:15:38.000Z</time>
      </trkpt>
      <trkpt lat="45.96269" lon="7.97748">
        <ele>1252</ele>
        <time>2000-01-02T01:15:48.000Z</time>
      </trkpt>
      <trkpt lat="45.96278" lon="7.97748">
        <ele>1247.4</ele>
        <time>2000-01-02T01:15:58.000Z</time>
      </trkpt>
      <trkpt lat="45.96303" lon="7.97745">
        <ele>1250</ele>
        <time>2000-01-02T01:16:08.000Z</time>
      </trkpt>
      <trkpt lat="45.96321" lon="7.97736">
        <ele>1248</ele>
        <time>2000-01-02T01:16:18.000Z</time>
      </trkpt>
      <trkpt lat="45.96334" lon="7.97732">
        <ele>1247.3</ele>
        <time>2000-01-02T01:16:28.000Z</time>
      </trkpt>
      <trkpt lat="45.96351" lon="7.97721">
        <ele>1245</ele>
        <time>2000-01-02T01:16:38.000Z</time>
      </trkpt>
      <trkpt lat="45.96365" lon="7.97704">
        <ele>1246.4</ele>
        <time>2000-01-02T01:16:48.000Z</time>
      </trkpt>
      <trkpt lat="45.96378" lon="7.97683">
        <ele>1245</ele>
        <time>2000-01-02T01:16:58.000Z</time>
      </trkpt>
      <trkpt lat="45.96405" lon="7.97665">
        <ele>1245</ele>
        <time>2000-01-02T01:17:08.000Z</time>
      </trkpt>
      <trkpt lat="45.96397" lon="7.97619">
        <ele>1246</ele>
        <time>2000-01-02T01:17:18.000Z</time>
      </trkpt>
      <trkpt lat="45.96389" lon="7.97589">
        <ele>1250</ele>
        <time>2000-01-02T01:17:28.000Z</time>
      </trkpt>
      <trkpt lat="45.96388" lon="7.97573">
        <ele>1248.5</ele>
        <time>2000-01-02T01:17:38.000Z</time>
      </trkpt>
      <trkpt lat="45.96385" lon="7.97557">
        <ele>1250</ele>
        <time>2000-01-02T01:17:48.000Z</time>
      </trkpt>
      <trkpt lat="45.96381" lon="7.97541">
        <ele>1249.7</ele>
        <time>2000-01-02T01:17:58.000Z</time>
      </trkpt>
      <trkpt lat="45.96377" lon="7.97519">
        <ele>1253</ele>
        <time>2000-01-02T01:18:08.000Z</time>
      </trkpt>
      <trkpt lat="45.96362" lon="7.9748">
        <ele>1255</ele>
        <time>2000-01-02T01:18:18.000Z</time>
      </trkpt>
      <trkpt lat="45.96352" lon="7.97467">
        <ele>1255.6</ele>
        <time>2000-01-02T01:18:28.000Z</time>
      </trkpt>
      <trkpt lat="45.96343" lon="7.97447">
        <ele>1259</ele>
        <time>2000-01-02T01:18:38.000Z</time>
      </trkpt>
      <trkpt lat="45.96352" lon="7.9742">
        <ele>1259</ele>
        <time>2000-01-02T01:18:48.000Z</time>
      </trkpt>
      <trkpt lat="45.96357" lon="7.97402">
        <ele>1255.2</ele>
        <time>2000-01-02T01:18:58.000Z</time>
      </trkpt>
      <trkpt lat="45.96369" lon="7.97379">
        <ele>1259</ele>
        <time>2000-01-02T01:19:08.000Z</time>
      </trkpt>
      <trkpt lat="45.96371" lon="7.97356">
        <ele>1255.5</ele>
        <time>2000-01-02T01:19:18.000Z</time>
      </trkpt>
      <trkpt lat="45.96384" lon="7.97341">
        <ele>1259</ele>
        <time>2000-01-02T01:19:28.000Z</time>
      </trkpt>
      <trkpt lat="45.96395" lon="7.97315">
        <ele>1259</ele>
        <time>2000-01-02T01:19:38.000Z</time>
      </trkpt>
      <trkpt lat="45.96403" lon="7.97301">
        <ele>1257.1</ele>
        <time>2000-01-02T01:19:48.000Z</time>
      </trkpt>
      <trkpt lat="45.96413" lon="7.97277">
        <ele>1259</ele>
        <time>2000-01-02T01:19:58.000Z</time>
      </trkpt>
      <trkpt lat="45.96427" lon="7.97254">
        <ele>1259</ele>
        <time>2000-01-02T01:20:08.000Z</time>
      </trkpt>
      <trkpt lat="45.96427" lon="7.97239">
        <ele>1259.3</ele>
        <time>2000-01-02T01:20:18.000Z</time>
      </trkpt>
      <trkpt lat="45.9643" lon="7.97226">
        <ele>1262</ele>
        <time>2000-01-02T01:20:28.000Z</time>
      </trkpt>
      <trkpt lat="45.96437" lon="7.97209">
        <ele>1262.4</ele>
        <time>2000-01-02T01:20:38.000Z</time>
      </trkpt>
      <trkpt lat="45.96448" lon="7.97204">
        <ele>1263</ele>
        <time>2000-01-02T01:20:48.000Z</time>
      </trkpt>
      <trkpt lat="45.96461" lon="7.972">
        <ele>1260.2</ele>
        <time>2000-01-02T01:20:58.000Z</time>
      </trkpt>
      <trkpt lat="45.96469" lon="7.97183">
        <ele>1263</ele>
        <time>2000-01-02T01:21:08.000Z</time>
      </trkpt>
      <trkpt lat="45.96482" lon="7.97164">
        <ele>1265.1</ele>
        <time>2000-01-02T01:21:18.000Z</time>
      </trkpt>
      <trkpt lat="45.96496" lon="7.97149">
        <ele>1261</ele>
        <time>2000-01-02T01:21:28.000Z</time>
      </trkpt>
      <trkpt lat="45.96514" lon="7.97136">
        <ele>1262</ele>
        <time>2000-01-02T01:21:38.000Z</time>
      </trkpt>
      <trkpt lat="45.96525" lon="7.9712">
        <ele>1262.6</ele>
        <time>2000-01-02T01:21:48.000Z</time>
      </trkpt>
      <trkpt lat="45.96519" lon="7.97091">
        <ele>1263</ele>
        <time>2000-01-02T01:21:58.000Z</time>
      </trkpt>
      <trkpt lat="45.96529" lon="7.97039">
        <ele>1269</ele>
        <time>2000-01-02T01:22:08.000Z</time>
      </trkpt>
      <trkpt lat="45.96535" lon="7.97027">
        <ele>1272</ele>
        <time>2000-01-02T01:22:18.000Z</time>
      </trkpt>
      <trkpt lat="45.96549" lon="7.97006">
        <ele>1268</ele>
        <time>2000-01-02T01:22:28.000Z</time>
      </trkpt>
      <trkpt lat="45.96556" lon="7.9698">
        <ele>1268</ele>
        <time>2000-01-02T01:22:38.000Z</time>
      </trkpt>
      <trkpt lat="45.96567" lon="7.96954">
        <ele>1269</ele>
        <time>2000-01-02T01:22:48.000Z</time>
      </trkpt>
      <trkpt lat="45.96565" lon="7.96913">
        <ele>1271</ele>
        <time>2000-01-02T01:22:58.000Z</time>
      </trkpt>
      <trkpt lat="45.96571" lon="7.96899">
        <ele>1275.3</ele>
        <time>2000-01-02T01:23:08.000Z</time>
      </trkpt>
      <trkpt lat="45.9658" lon="7.96872">
        <ele>1273</ele>
        <time>2000-01-02T01:23:18.000Z</time>
      </trkpt>
      <trkpt lat="45.96586" lon="7.96855">
        <ele>1276.8</ele>
        <time>2000-01-02T01:23:28.000Z</time>
      </trkpt>
      <trkpt lat="45.96589" lon="7.96819">
        <ele>1276</ele>
        <time>2000-01-02T01:23:38.000Z</time>
      </trkpt>
      <trkpt lat="45.96581" lon="7.96794">
        <ele>1277</ele>
        <time>2000-01-02T01:23:48.000Z</time>
      </trkpt>
      <trkpt lat="45.96569" lon="7.96775">
        <ele>1284</ele>
        <time>2000-01-02T01:23:58.000Z</time>
      </trkpt>
      <trkpt lat="45.96559" lon="7.96762">
        <ele>1280</ele>
        <time>2000-01-02T01:24:08.000Z</time>
      </trkpt>
      <trkpt lat="45.96554" lon="7.96741">
        <ele>1286.4</ele>
        <time>2000-01-02T01:24:18.000Z</time>
      </trkpt>
      <trkpt lat="45.96551" lon="7.96726">
        <ele>1283</ele>
        <time>2000-01-02T01:24:28.000Z</time>
      </trkpt>
      <trkpt lat="45.96548" lon="7.96701">
        <ele>1292.6</ele>
        <time>2000-01-02T01:24:38.000Z</time>
      </trkpt>
      <trkpt lat="45.96558" lon="7.96657">
        <ele>1292</ele>
        <time>2000-01-02T01:24:48.000Z</time>
      </trkpt>
      <trkpt lat="45.96564" lon="7.96627">
        <ele>1302</ele>
        <time>2000-01-02T01:24:58.000Z</time>
      </trkpt>
      <trkpt lat="45.96561" lon="7.96612">
        <ele>1298.3</ele>
        <time>2000-01-02T01:25:08.000Z</time>
      </trkpt>
      <trkpt lat="45.96564" lon="7.96567">
        <ele>1319</ele>
        <time>2000-01-02T01:25:18.000Z</time>
      </trkpt>
      <trkpt lat="45.96567" lon="7.96553">
        <ele>1305.6</ele>
        <time>2000-01-02T01:25:28.000Z</time>
      </trkpt>
      <trkpt lat="45.96575" lon="7.96543">
        <ele>1319</ele>
        <time>2000-01-02T01:25:38.000Z</time>
      </trkpt>
      <trkpt lat="45.9658" lon="7.9653">
        <ele>1306.4</ele>
        <time>2000-01-02T01:25:48.000Z</time>
      </trkpt>
      <trkpt lat="45.96587" lon="7.96518">
        <ele>1325</ele>
        <time>2000-01-02T01:25:58.000Z</time>
      </trkpt>
      <trkpt lat="45.96599" lon="7.96494">
        <ele>1328</ele>
        <time>2000-01-02T01:26:08.000Z</time>
      </trkpt>
      <trkpt lat="45.96599" lon="7.9648">
        <ele>1311.3</ele>
        <time>2000-01-02T01:26:18.000Z</time>
      </trkpt>
      <trkpt lat="45.96602" lon="7.96466">
        <ele>1328</ele>
        <time>2000-01-02T01:26:28.000Z</time>
      </trkpt>
      <trkpt lat="45.96616" lon="7.96444">
        <ele>1326</ele>
        <time>2000-01-02T01:26:38.000Z</time>
      </trkpt>
      <trkpt lat="45.9662" lon="7.9643">
        <ele>1313.9</ele>
        <time>2000-01-02T01:26:48.000Z</time>
      </trkpt>
      <trkpt lat="45.96629" lon="7.96404">
        <ele>1326</ele>
        <time>2000-01-02T01:26:58.000Z</time>
      </trkpt>
      <trkpt lat="45.96637" lon="7.96394">
        <ele>1315</ele>
        <time>2000-01-02T01:27:08.000Z</time>
      </trkpt>
      <trkpt lat="45.96639" lon="7.9638">
        <ele>1325</ele>
        <time>2000-01-02T01:27:18.000Z</time>
      </trkpt>
      <trkpt lat="45.96646" lon="7.96368">
        <ele>1319.3</ele>
        <time>2000-01-02T01:27:28.000Z</time>
      </trkpt>
      <trkpt lat="45.96648" lon="7.96353">
        <ele>1330</ele>
        <time>2000-01-02T01:27:38.000Z</time>
      </trkpt>
      <trkpt lat="45.96651" lon="7.96339">
        <ele>1323.4</ele>
        <time>2000-01-02T01:27:48.000Z</time>
      </trkpt>
      <trkpt lat="45.96654" lon="7.96309">
        <ele>1335</ele>
        <time>2000-01-02T01:27:58.000Z</time>
      </trkpt>
      <trkpt lat="45.96659" lon="7.96296">
        <ele>1326.9</ele>
        <time>2000-01-02T01:28:08.000Z</time>
      </trkpt>
      <trkpt lat="45.96662" lon="7.96282">
        <ele>1338</ele>
        <time>2000-01-02T01:28:18.000Z</time>
      </trkpt>
      <trkpt lat="45.96667" lon="7.96268">
        <ele>1329.3</ele>
        <time>2000-01-02T01:28:28.000Z</time>
      </trkpt>
      <trkpt lat="45.96676" lon="7.96241">
        <ele>1340</ele>
        <time>2000-01-02T01:28:38.000Z</time>
      </trkpt>
      <trkpt lat="45.9668" lon="7.96227">
        <ele>1333.1</ele>
        <time>2000-01-02T01:28:48.000Z</time>
      </trkpt>
      <trkpt lat="45.96686" lon="7.96215">
        <ele>1340</ele>
        <time>2000-01-02T01:28:58.000Z</time>
      </trkpt>
      <trkpt lat="45.967" lon="7.96191">
        <ele>1344</ele>
        <time>2000-01-02T01:29:08.000Z</time>
      </trkpt>
      <trkpt lat="45.96704" lon="7.96178">
        <ele>1331.2</ele>
        <time>2000-01-02T01:29:18.000Z</time>
      </trkpt>
      <trkpt lat="45.96709" lon="7.96149">
        <ele>1343</ele>
        <time>2000-01-02T01:29:28.000Z</time>
      </trkpt>
      <trkpt lat="45.96714" lon="7.96137">
        <ele>1334.8</ele>
        <time>2000-01-02T01:29:38.000Z</time>
      </trkpt>
      <trkpt lat="45.96722" lon="7.96126">
        <ele>1342</ele>
        <time>2000-01-02T01:29:48.000Z</time>
      </trkpt>
      <trkpt lat="45.96731" lon="7.9612">
        <ele>1330.9</ele>
        <time>2000-01-02T01:29:58.000Z</time>
      </trkpt>
      <trkpt lat="45.96746" lon="7.961">
        <ele>1333</ele>
        <time>2000-01-02T01:30:08.000Z</time>
      </trkpt>
      <trkpt lat="45.96757" lon="7.96097">
        <ele>1329</ele>
        <time>2000-01-02T01:30:18.000Z</time>
      </trkpt>
      <trkpt lat="45.96767" lon="7.96096">
        <ele>1326</ele>
        <time>2000-01-02T01:30:28.000Z</time>
      </trkpt>
      <trkpt lat="45.96777" lon="7.96093">
        <ele>1326</ele>
        <time>2000-01-02T01:30:38.000Z</time>
      </trkpt>
      <trkpt lat="45.96787" lon="7.96089">
        <ele>1326</ele>
        <time>2000-01-02T01:30:48.000Z</time>
      </trkpt>
      <trkpt lat="45.96794" lon="7.9608">
        <ele>1326.7</ele>
        <time>2000-01-02T01:30:58.000Z</time>
      </trkpt>
      <trkpt lat="45.96808" lon="7.96055">
        <ele>1324</ele>
        <time>2000-01-02T01:31:08.000Z</time>
      </trkpt>
      <trkpt lat="45.96818" lon="7.9606">
        <ele>1326</ele>
        <time>2000-01-02T01:31:18.000Z</time>
      </trkpt>
      <trkpt lat="45.96828" lon="7.96067">
        <ele>1324</ele>
        <time>2000-01-02T01:31:28.000Z</time>
      </trkpt>
      <trkpt lat="45.96838" lon="7.96073">
        <ele>1325.3</ele>
        <time>2000-01-02T01:31:38.000Z</time>
      </trkpt>
      <trkpt lat="45.96847" lon="7.96079">
        <ele>1324</ele>
        <time>2000-01-02T01:31:48.000Z</time>
      </trkpt>
      <trkpt lat="45.96855" lon="7.9609">
        <ele>1329.9</ele>
        <time>2000-01-02T01:31:58.000Z</time>
      </trkpt>
      <trkpt lat="45.96864" lon="7.96099">
        <ele>1324</ele>
        <time>2000-01-02T01:32:08.000Z</time>
      </trkpt>
      <trkpt lat="45.96871" lon="7.96109">
        <ele>1331.4</ele>
        <time>2000-01-02T01:32:18.000Z</time>
      </trkpt>
      <trkpt lat="45.96865" lon="7.9612">
        <ele>1324</ele>
        <time>2000-01-02T01:32:28.000Z</time>
      </trkpt>
      <trkpt lat="45.96858" lon="7.96131">
        <ele>1330.3</ele>
        <time>2000-01-02T01:32:38.000Z</time>
      </trkpt>
      <trkpt lat="45.96851" lon="7.96142">
        <ele>1323</ele>
        <time>2000-01-02T01:32:48.000Z</time>
      </trkpt>
      <trkpt lat="45.96831" lon="7.96174">
        <ele>1323</ele>
        <time>2000-01-02T01:32:58.000Z</time>
      </trkpt>
      <trkpt lat="45.96821" lon="7.96194">
        <ele>1326.6</ele>
        <time>2000-01-02T01:33:08.000Z</time>
      </trkpt>
      <trkpt lat="45.96811" lon="7.96211">
        <ele>1321</ele>
        <time>2000-01-02T01:33:18.000Z</time>
      </trkpt>
      <trkpt lat="45.96807" lon="7.96223">
        <ele>1325.1</ele>
        <time>2000-01-02T01:33:28.000Z</time>
      </trkpt>
      <trkpt lat="45.96802" lon="7.96258">
        <ele>1321</ele>
        <time>2000-01-02T01:33:38.000Z</time>
      </trkpt>
      <trkpt lat="45.96808" lon="7.96283">
        <ele>1322.9</ele>
        <time>2000-01-02T01:33:48.000Z</time>
      </trkpt>
      <trkpt lat="45.96812" lon="7.96295">
        <ele>1321</ele>
        <time>2000-01-02T01:33:58.000Z</time>
      </trkpt>
      <trkpt lat="45.96825" lon="7.96318">
        <ele>1321</ele>
        <time>2000-01-02T01:34:08.000Z</time>
      </trkpt>
      <trkpt lat="45.96827" lon="7.96332">
        <ele>1322.6</ele>
        <time>2000-01-02T01:34:18.000Z</time>
      </trkpt>
      <trkpt lat="45.96828" lon="7.96347">
        <ele>1321</ele>
        <time>2000-01-02T01:34:28.000Z</time>
      </trkpt>
      <trkpt lat="45.96832" lon="7.96388">
        <ele>1321</ele>
        <time>2000-01-02T01:34:38.000Z</time>
      </trkpt>
      <trkpt lat="45.96832" lon="7.96415">
        <ele>1322</ele>
        <time>2000-01-02T01:34:48.000Z</time>
      </trkpt>
      <trkpt lat="45.96818" lon="7.96435">
        <ele>1320</ele>
        <time>2000-01-02T01:34:58.000Z</time>
      </trkpt>
      <trkpt lat="45.96797" lon="7.96464">
        <ele>1320</ele>
        <time>2000-01-02T01:35:08.000Z</time>
      </trkpt>
      <trkpt lat="45.96784" lon="7.96484">
        <ele>1320</ele>
        <time>2000-01-02T01:35:18.000Z</time>
      </trkpt>
      <trkpt lat="45.96773" lon="7.96508">
        <ele>1320</ele>
        <time>2000-01-02T01:35:28.000Z</time>
      </trkpt>
      <trkpt lat="45.96757" lon="7.96543">
        <ele>1317</ele>
        <time>2000-01-02T01:35:38.000Z</time>
      </trkpt>
      <trkpt lat="45.9675" lon="7.96553">
        <ele>1315.1</ele>
        <time>2000-01-02T01:35:48.000Z</time>
      </trkpt>
      <trkpt lat="45.96745" lon="7.96566">
        <ele>1316</ele>
        <time>2000-01-02T01:35:58.000Z</time>
      </trkpt>
      <trkpt lat="45.96741" lon="7.9658">
        <ele>1313.8</ele>
        <time>2000-01-02T01:36:08.000Z</time>
      </trkpt>
      <trkpt lat="45.96744" lon="7.96595">
        <ele>1311</ele>
        <time>2000-01-02T01:36:18.000Z</time>
      </trkpt>
      <trkpt lat="45.96745" lon="7.96619">
        <ele>1310.6</ele>
        <time>2000-01-02T01:36:28.000Z</time>
      </trkpt>
      <trkpt lat="45.9675" lon="7.96633">
        <ele>1309</ele>
        <time>2000-01-02T01:36:38.000Z</time>
      </trkpt>
      <trkpt lat="45.96758" lon="7.96641">
        <ele>1309.6</ele>
        <time>2000-01-02T01:36:48.000Z</time>
      </trkpt>
      <trkpt lat="45.96767" lon="7.96647">
        <ele>1309</ele>
        <time>2000-01-02T01:36:58.000Z</time>
      </trkpt>
      <trkpt lat="45.96782" lon="7.96659">
        <ele>1310.3</ele>
        <time>2000-01-02T01:37:08.000Z</time>
      </trkpt>
      <trkpt lat="45.9681" lon="7.96679">
        <ele>1309</ele>
        <time>2000-01-02T01:37:18.000Z</time>
      </trkpt>
      <trkpt lat="45.96818" lon="7.96687">
        <ele>1310.1</ele>
        <time>2000-01-02T01:37:28.000Z</time>
      </trkpt>
      <trkpt lat="45.96825" lon="7.96698">
        <ele>1309</ele>
        <time>2000-01-02T01:37:38.000Z</time>
      </trkpt>
      <trkpt lat="45.96832" lon="7.96709">
        <ele>1309.1</ele>
        <time>2000-01-02T01:37:48.000Z</time>
      </trkpt>
      <trkpt lat="45.96838" lon="7.96719">
        <ele>1309</ele>
        <time>2000-01-02T01:37:58.000Z</time>
      </trkpt>
      <trkpt lat="45.96843" lon="7.9673">
        <ele>1310</ele>
        <time>2000-01-02T01:38:08.000Z</time>
      </trkpt>
      <trkpt lat="45.96844" lon="7.96743">
        <ele>1310.2</ele>
        <time>2000-01-02T01:38:18.000Z</time>
      </trkpt>
      <trkpt lat="45.96842" lon="7.96759">
        <ele>1308</ele>
        <time>2000-01-02T01:38:28.000Z</time>
      </trkpt>
      <trkpt lat="45.96839" lon="7.96772">
        <ele>1310.1</ele>
        <time>2000-01-02T01:38:38.000Z</time>
      </trkpt>
      <trkpt lat="45.96851" lon="7.96757">
        <ele>1308</ele>
        <time>2000-01-02T01:38:48.000Z</time>
      </trkpt>
      <trkpt lat="45.96856" lon="7.96742">
        <ele>1311.4</ele>
        <time>2000-01-02T01:38:58.000Z</time>
      </trkpt>
      <trkpt lat="45.96856" lon="7.96725">
        <ele>1309</ele>
        <time>2000-01-02T01:39:08.000Z</time>
      </trkpt>
      <trkpt lat="45.96858" lon="7.96711">
        <ele>1310.9</ele>
        <time>2000-01-02T01:39:18.000Z</time>
      </trkpt>
      <trkpt lat="45.96863" lon="7.96699">
        <ele>1312</ele>
        <time>2000-01-02T01:39:28.000Z</time>
      </trkpt>
      <trkpt lat="45.9687" lon="7.96686">
        <ele>1311.2</ele>
        <time>2000-01-02T01:39:38.000Z</time>
      </trkpt>
      <trkpt lat="45.9688" lon="7.96669">
        <ele>1312</ele>
        <time>2000-01-02T01:39:48.000Z</time>
      </trkpt>
      <trkpt lat="45.96885" lon="7.96655">
        <ele>1312.2</ele>
        <time>2000-01-02T01:39:58.000Z</time>
      </trkpt>
      <trkpt lat="45.969" lon="7.9663">
        <ele>1312</ele>
        <time>2000-01-02T01:40:08.000Z</time>
      </trkpt>
      <trkpt lat="45.96918" lon="7.96604">
        <ele>1312</ele>
        <time>2000-01-02T01:40:18.000Z</time>
      </trkpt>
      <trkpt lat="45.96946" lon="7.9656">
        <ele>1315</ele>
        <time>2000-01-02T01:40:28.000Z</time>
      </trkpt>
      <trkpt lat="45.96957" lon="7.96545">
        <ele>1319.8</ele>
        <time>2000-01-02T01:40:38.000Z</time>
      </trkpt>
      <trkpt lat="45.96973" lon="7.96532">
        <ele>1317</ele>
        <time>2000-01-02T01:40:48.000Z</time>
      </trkpt>
      <trkpt lat="45.97002" lon="7.96514">
        <ele>1319</ele>
        <time>2000-01-02T01:40:58.000Z</time>
      </trkpt>
      <trkpt lat="45.97017" lon="7.96501">
        <ele>1323.9</ele>
        <time>2000-01-02T01:41:08.000Z</time>
      </trkpt>
      <trkpt lat="45.97035" lon="7.96491">
        <ele>1321</ele>
        <time>2000-01-02T01:41:18.000Z</time>
      </trkpt>
      <trkpt lat="45.97051" lon="7.9648">
        <ele>1326.2</ele>
        <time>2000-01-02T01:41:28.000Z</time>
      </trkpt>
      <trkpt lat="45.97062" lon="7.96469">
        <ele>1323</ele>
        <time>2000-01-02T01:41:38.000Z</time>
      </trkpt>
      <trkpt lat="45.97077" lon="7.96439">
        <ele>1324</ele>
        <time>2000-01-02T01:41:48.000Z</time>
      </trkpt>
      <trkpt lat="45.97082" lon="7.96427">
        <ele>1329.9</ele>
        <time>2000-01-02T01:41:58.000Z</time>
      </trkpt>
      <trkpt lat="45.97079" lon="7.96413">
        <ele>1325</ele>
        <time>2000-01-02T01:42:08.000Z</time>
      </trkpt>
      <trkpt lat="45.97079" lon="7.96375">
        <ele>1326</ele>
        <time>2000-01-02T01:42:18.000Z</time>
      </trkpt>
      <trkpt lat="45.97086" lon="7.96335">
        <ele>1328</ele>
        <time>2000-01-02T01:42:28.000Z</time>
      </trkpt>
      <trkpt lat="45.97088" lon="7.96307">
        <ele>1330</ele>
        <time>2000-01-02T01:42:38.000Z</time>
      </trkpt>
      <trkpt lat="45.97089" lon="7.96287">
        <ele>1337.7</ele>
        <time>2000-01-02T01:42:48.000Z</time>
      </trkpt>
      <trkpt lat="45.97093" lon="7.96253">
        <ele>1334</ele>
        <time>2000-01-02T01:42:58.000Z</time>
      </trkpt>
      <trkpt lat="45.97105" lon="7.96223">
        <ele>1337</ele>
        <time>2000-01-02T01:43:08.000Z</time>
      </trkpt>
      <trkpt lat="45.97127" lon="7.96185">
        <ele>1342</ele>
        <time>2000-01-02T01:43:18.000Z</time>
      </trkpt>
      <trkpt lat="45.97139" lon="7.9617">
        <ele>1348</ele>
        <time>2000-01-02T01:43:28.000Z</time>
      </trkpt>
      <trkpt lat="45.97148" lon="7.96154">
        <ele>1345</ele>
        <time>2000-01-02T01:43:38.000Z</time>
      </trkpt>
      <trkpt lat="45.97155" lon="7.96143">
        <ele>1351.8</ele>
        <time>2000-01-02T01:43:48.000Z</time>
      </trkpt>
      <trkpt lat="45.97165" lon="7.96126">
        <ele>1349</ele>
        <time>2000-01-02T01:43:58.000Z</time>
      </trkpt>
      <trkpt lat="45.97169" lon="7.96112">
        <ele>1354.4</ele>
        <time>2000-01-02T01:44:08.000Z</time>
      </trkpt>
      <trkpt lat="45.97179" lon="7.96092">
        <ele>1352</ele>
        <time>2000-01-02T01:44:18.000Z</time>
      </trkpt>
      <trkpt lat="45.97191" lon="7.96082">
        <ele>1359.2</ele>
        <time>2000-01-02T01:44:28.000Z</time>
      </trkpt>
      <trkpt lat="45.97204" lon="7.96088">
        <ele>1356</ele>
        <time>2000-01-02T01:44:38.000Z</time>
      </trkpt>
      <trkpt lat="45.97221" lon="7.96088">
        <ele>1364.3</ele>
        <time>2000-01-02T01:44:48.000Z</time>
      </trkpt>
      <trkpt lat="45.97235" lon="7.96092">
        <ele>1360</ele>
        <time>2000-01-02T01:44:58.000Z</time>
      </trkpt>
      <trkpt lat="45.97248" lon="7.96087">
        <ele>1369.2</ele>
        <time>2000-01-02T01:45:08.000Z</time>
      </trkpt>
      <trkpt lat="45.97275" lon="7.96092">
        <ele>1368</ele>
        <time>2000-01-02T01:45:18.000Z</time>
      </trkpt>
      <trkpt lat="45.97289" lon="7.96102">
        <ele>1380.8</ele>
        <time>2000-01-02T01:45:28.000Z</time>
      </trkpt>
      <trkpt lat="45.97301" lon="7.96109">
        <ele>1379</ele>
        <time>2000-01-02T01:45:38.000Z</time>
      </trkpt>
      <trkpt lat="45.97296" lon="7.96121">
        <ele>1386.5</ele>
        <time>2000-01-02T01:45:48.000Z</time>
      </trkpt>
      <trkpt lat="45.97295" lon="7.96173">
        <ele>1394</ele>
        <time>2000-01-02T01:45:58.000Z</time>
      </trkpt>
      <trkpt lat="45.97297" lon="7.96189">
        <ele>1396</ele>
        <time>2000-01-02T01:46:08.000Z</time>
      </trkpt>
      <trkpt lat="45.97308" lon="7.96187">
        <ele>1396</ele>
        <time>2000-01-02T01:46:18.000Z</time>
      </trkpt>
      <trkpt lat="45.97315" lon="7.96166">
        <ele>1403.4</ele>
        <time>2000-01-02T01:46:28.000Z</time>
      </trkpt>
      <trkpt lat="45.97323" lon="7.96147">
        <ele>1399</ele>
        <time>2000-01-02T01:46:38.000Z</time>
      </trkpt>
      <trkpt lat="45.97333" lon="7.96133">
        <ele>1406.5</ele>
        <time>2000-01-02T01:46:48.000Z</time>
      </trkpt>
      <trkpt lat="45.97343" lon="7.96164">
        <ele>1414</ele>
        <time>2000-01-02T01:46:58.000Z</time>
      </trkpt>
      <trkpt lat="45.97343" lon="7.96183">
        <ele>1423.6</ele>
        <time>2000-01-02T01:47:08.000Z</time>
      </trkpt>
      <trkpt lat="45.97342" lon="7.96198">
        <ele>1420</ele>
        <time>2000-01-02T01:47:18.000Z</time>
      </trkpt>
      <trkpt lat="45.97348" lon="7.96222">
        <ele>1433.1</ele>
        <time>2000-01-02T01:47:28.000Z</time>
      </trkpt>
      <trkpt lat="45.97351" lon="7.96238">
        <ele>1441</ele>
        <time>2000-01-02T01:47:38.000Z</time>
      </trkpt>
      <trkpt lat="45.97356" lon="7.96254">
        <ele>1451.5</ele>
        <time>2000-01-02T01:47:48.000Z</time>
      </trkpt>
      <trkpt lat="45.97359" lon="7.96271">
        <ele>1447</ele>
        <time>2000-01-02T01:47:58.000Z</time>
      </trkpt>
      <trkpt lat="45.97357" lon="7.96288">
        <ele>1471.9</ele>
        <time>2000-01-02T01:48:08.000Z</time>
      </trkpt>
      <trkpt lat="45.97348" lon="7.963">
        <ele>1454</ele>
        <time>2000-01-02T01:48:18.000Z</time>
      </trkpt>
      <trkpt lat="45.9734" lon="7.96316">
        <ele>1455.9</ele>
        <time>2000-01-02T01:48:28.000Z</time>
      </trkpt>
      <trkpt lat="45.97335" lon="7.96331">
        <ele>1453</ele>
        <time>2000-01-02T01:48:38.000Z</time>
      </trkpt>
      <trkpt lat="45.97333" lon="7.96346">
        <ele>1456.3</ele>
        <time>2000-01-02T01:48:48.000Z</time>
      </trkpt>
      <trkpt lat="45.97329" lon="7.96359">
        <ele>1453</ele>
        <time>2000-01-02T01:48:58.000Z</time>
      </trkpt>
      <trkpt lat="45.97322" lon="7.96374">
        <ele>1460.3</ele>
        <time>2000-01-02T01:49:08.000Z</time>
      </trkpt>
      <trkpt lat="45.97319" lon="7.96389">
        <ele>1454</ele>
        <time>2000-01-02T01:49:18.000Z</time>
      </trkpt>
      <trkpt lat="45.97319" lon="7.96407">
        <ele>1474.8</ele>
        <time>2000-01-02T01:49:28.000Z</time>
      </trkpt>
      <trkpt lat="45.97314" lon="7.96419">
        <ele>1466</ele>
        <time>2000-01-02T01:49:38.000Z</time>
      </trkpt>
      <trkpt lat="45.97311" lon="7.96433">
        <ele>1475.6</ele>
        <time>2000-01-02T01:49:48.000Z</time>
      </trkpt>
      <trkpt lat="45.97326" lon="7.96462">
        <ele>1487</ele>
        <time>2000-01-02T01:49:58.000Z</time>
      </trkpt>
      <trkpt lat="45.97337" lon="7.96474">
        <ele>1492.8</ele>
        <time>2000-01-02T01:50:08.000Z</time>
      </trkpt>
      <trkpt lat="45.97345" lon="7.96485">
        <ele>1493</ele>
        <time>2000-01-02T01:50:18.000Z</time>
      </trkpt>
      <trkpt lat="45.97343" lon="7.9647">
        <ele>1497.2</ele>
        <time>2000-01-02T01:50:28.000Z</time>
      </trkpt>
      <trkpt lat="45.97346" lon="7.96454">
        <ele>1500</ele>
        <time>2000-01-02T01:50:38.000Z</time>
      </trkpt>
      <trkpt lat="45.97356" lon="7.9646">
        <ele>1506</ele>
        <time>2000-01-02T01:50:48.000Z</time>
      </trkpt>
      <trkpt lat="45.97365" lon="7.9647">
        <ele>1515</ele>
        <time>2000-01-02T01:50:58.000Z</time>
      </trkpt>
      <trkpt lat="45.97371" lon="7.96481">
        <ele>1519</ele>
        <time>2000-01-02T01:51:08.000Z</time>
      </trkpt>
      <trkpt lat="45.97389" lon="7.96464">
        <ele>1542</ele>
        <time>2000-01-02T01:51:18.000Z</time>
      </trkpt>
      <trkpt lat="45.97398" lon="7.96479">
        <ele>1551.5</ele>
        <time>2000-01-02T01:51:28.000Z</time>
      </trkpt>
      <trkpt lat="45.97407" lon="7.96495">
        <ele>1563</ele>
        <time>2000-01-02T01:51:38.000Z</time>
      </trkpt>
      <trkpt lat="45.97418" lon="7.965">
        <ele>1586</ele>
        <time>2000-01-02T01:51:48.000Z</time>
      </trkpt>
      <trkpt lat="45.97424" lon="7.96511">
        <ele>1570</ele>
        <time>2000-01-02T01:51:58.000Z</time>
      </trkpt>
      <trkpt lat="45.97423" lon="7.96544">
        <ele>1567</ele>
        <time>2000-01-02T01:52:08.000Z</time>
      </trkpt>
      <trkpt lat="45.97414" lon="7.9654">
        <ele>1563</ele>
        <time>2000-01-02T01:52:18.000Z</time>
      </trkpt>
      <trkpt lat="45.97416" lon="7.96557">
        <ele>1580</ele>
        <time>2000-01-02T01:52:28.000Z</time>
      </trkpt>
      <trkpt lat="45.97426" lon="7.96551">
        <ele>1582.1</ele>
        <time>2000-01-02T01:52:38.000Z</time>
      </trkpt>
      <trkpt lat="45.97435" lon="7.96569">
        <ele>1593</ele>
        <time>2000-01-02T01:52:48.000Z</time>
      </trkpt>
      <trkpt lat="45.97443" lon="7.96588">
        <ele>1601.3</ele>
        <time>2000-01-02T01:52:58.000Z</time>
      </trkpt>
      <trkpt lat="45.97452" lon="7.96604">
        <ele>1608</ele>
        <time>2000-01-02T01:53:08.000Z</time>
      </trkpt>
      <trkpt lat="45.97454" lon="7.96618">
        <ele>1613.1</ele>
        <time>2000-01-02T01:53:18.000Z</time>
      </trkpt>
      <trkpt lat="45.97455" lon="7.96633">
        <ele>1610</ele>
        <time>2000-01-02T01:53:28.000Z</time>
      </trkpt>
      <trkpt lat="45.97451" lon="7.96647">
        <ele>1610.8</ele>
        <time>2000-01-02T01:53:38.000Z</time>
      </trkpt>
      <trkpt lat="45.97452" lon="7.96661">
        <ele>1599</ele>
        <time>2000-01-02T01:53:48.000Z</time>
      </trkpt>
      <trkpt lat="45.97454" lon="7.96639">
        <ele>1616</ele>
        <time>2000-01-02T01:53:58.000Z</time>
      </trkpt>
      <trkpt lat="45.97447" lon="7.96605">
        <ele>1602</ele>
        <time>2000-01-02T01:54:08.000Z</time>
      </trkpt>
      <trkpt lat="45.97443" lon="7.9659">
        <ele>1600.9</ele>
        <time>2000-01-02T01:54:18.000Z</time>
      </trkpt>
      <trkpt lat="45.97446" lon="7.96561">
        <ele>1602</ele>
        <time>2000-01-02T01:54:28.000Z</time>
      </trkpt>
      <trkpt lat="45.97439" lon="7.96539">
        <ele>1603.2</ele>
        <time>2000-01-02T01:54:38.000Z</time>
      </trkpt>
      <trkpt lat="45.97444" lon="7.96515">
        <ele>1603</ele>
        <time>2000-01-02T01:54:48.000Z</time>
      </trkpt>
      <trkpt lat="45.97454" lon="7.96506">
        <ele>1609.3</ele>
        <time>2000-01-02T01:54:58.000Z</time>
      </trkpt>
      <trkpt lat="45.97466" lon="7.9651">
        <ele>1610</ele>
        <time>2000-01-02T01:55:08.000Z</time>
      </trkpt>
      <trkpt lat="45.97471" lon="7.96522">
        <ele>1618.2</ele>
        <time>2000-01-02T01:55:18.000Z</time>
      </trkpt>
      <trkpt lat="45.9748" lon="7.96535">
        <ele>1624</ele>
        <time>2000-01-02T01:55:28.000Z</time>
      </trkpt>
      <trkpt lat="45.97487" lon="7.96547">
        <ele>1628.8</ele>
        <time>2000-01-02T01:55:38.000Z</time>
      </trkpt>
      <trkpt lat="45.97501" lon="7.96552">
        <ele>1634</ele>
        <time>2000-01-02T01:55:48.000Z</time>
      </trkpt>
      <trkpt lat="45.97513" lon="7.96545">
        <ele>1637.3</ele>
        <time>2000-01-02T01:55:58.000Z</time>
      </trkpt>
      <trkpt lat="45.97523" lon="7.96546">
        <ele>1649</ele>
        <time>2000-01-02T01:56:08.000Z</time>
      </trkpt>
      <trkpt lat="45.97543" lon="7.96537">
        <ele>1651</ele>
        <time>2000-01-02T01:56:18.000Z</time>
      </trkpt>
      <trkpt lat="45.97553" lon="7.9654">
        <ele>1646.2</ele>
        <time>2000-01-02T01:56:28.000Z</time>
      </trkpt>
      <trkpt lat="45.97568" lon="7.96549">
        <ele>1657</ele>
        <time>2000-01-02T01:56:38.000Z</time>
      </trkpt>
      <trkpt lat="45.97575" lon="7.96536">
        <ele>1652.1</ele>
        <time>2000-01-02T01:56:48.000Z</time>
      </trkpt>
      <trkpt lat="45.97581" lon="7.96526">
        <ele>1661</ele>
        <time>2000-01-02T01:56:58.000Z</time>
      </trkpt>
      <trkpt lat="45.97594" lon="7.96538">
        <ele>1659.4</ele>
        <time>2000-01-02T01:57:08.000Z</time>
      </trkpt>
      <trkpt lat="45.97605" lon="7.96541">
        <ele>1667</ele>
        <time>2000-01-02T01:57:18.000Z</time>
      </trkpt>
      <trkpt lat="45.97612" lon="7.96532">
        <ele>1666</ele>
        <time>2000-01-02T01:57:28.000Z</time>
      </trkpt>
      <trkpt lat="45.97625" lon="7.96537">
        <ele>1669</ele>
        <time>2000-01-02T01:57:38.000Z</time>
      </trkpt>
      <trkpt lat="45.97628" lon="7.96554">
        <ele>1676.2</ele>
        <time>2000-01-02T01:57:48.000Z</time>
      </trkpt>
      <trkpt lat="45.97629" lon="7.96569">
        <ele>1676</ele>
        <time>2000-01-02T01:57:58.000Z</time>
      </trkpt>
      <trkpt lat="45.97639" lon="7.96565">
        <ele>1682.7</ele>
        <time>2000-01-02T01:58:08.000Z</time>
      </trkpt>
      <trkpt lat="45.97653" lon="7.96569">
        <ele>1688</ele>
        <time>2000-01-02T01:58:18.000Z</time>
      </trkpt>
      <trkpt lat="45.97666" lon="7.96575">
        <ele>1689.7</ele>
        <time>2000-01-02T01:58:28.000Z</time>
      </trkpt>
      <trkpt lat="45.97684" lon="7.96604">
        <ele>1691</ele>
        <time>2000-01-02T01:58:38.000Z</time>
      </trkpt>
      <trkpt lat="45.97689" lon="7.96617">
        <ele>1697.1</ele>
        <time>2000-01-02T01:58:48.000Z</time>
      </trkpt>
      <trkpt lat="45.97698" lon="7.96628">
        <ele>1694</ele>
        <time>2000-01-02T01:58:58.000Z</time>
      </trkpt>
      <trkpt lat="45.97707" lon="7.96635">
        <ele>1699.2</ele>
        <time>2000-01-02T01:59:08.000Z</time>
      </trkpt>
      <trkpt lat="45.97711" lon="7.96657">
        <ele>1699</ele>
        <time>2000-01-02T01:59:18.000Z</time>
      </trkpt>
      <trkpt lat="45.97703" lon="7.96666">
        <ele>1701.9</ele>
        <time>2000-01-02T01:59:28.000Z</time>
      </trkpt>
      <trkpt lat="45.97697" lon="7.96677">
        <ele>1699</ele>
        <time>2000-01-02T01:59:38.000Z</time>
      </trkpt>
      <trkpt lat="45.97692" lon="7.96694">
        <ele>1702.8</ele>
        <time>2000-01-02T01:59:48.000Z</time>
      </trkpt>
      <trkpt lat="45.97679" lon="7.96701">
        <ele>1699</ele>
        <time>2000-01-02T01:59:58.000Z</time>
      </trkpt>
      <trkpt lat="45.97669" lon="7.96708">
        <ele>1702.2</ele>
        <time>2000-01-02T02:00:08.000Z</time>
      </trkpt>
      <trkpt lat="45.97662" lon="7.96717">
        <ele>1699</ele>
        <time>2000-01-02T02:00:18.000Z</time>
      </trkpt>
      <trkpt lat="45.97656" lon="7.96732">
        <ele>1703</ele>
        <time>2000-01-02T02:00:28.000Z</time>
      </trkpt>
      <trkpt lat="45.97643" lon="7.96739">
        <ele>1699</ele>
        <time>2000-01-02T02:00:38.000Z</time>
      </trkpt>
      <trkpt lat="45.97634" lon="7.9675">
        <ele>1702.3</ele>
        <time>2000-01-02T02:00:48.000Z</time>
      </trkpt>
      <trkpt lat="45.97624" lon="7.96749">
        <ele>1700</ele>
        <time>2000-01-02T02:00:58.000Z</time>
      </trkpt>
      <trkpt lat="45.97611" lon="7.96757">
        <ele>1700.5</ele>
        <time>2000-01-02T02:01:08.000Z</time>
      </trkpt>
      <trkpt lat="45.97598" lon="7.96776">
        <ele>1700</ele>
        <time>2000-01-02T02:01:18.000Z</time>
      </trkpt>
      <trkpt lat="45.97589" lon="7.96793">
        <ele>1707.2</ele>
        <time>2000-01-02T02:01:28.000Z</time>
      </trkpt>
      <trkpt lat="45.9758" lon="7.96788">
        <ele>1701</ele>
        <time>2000-01-02T02:01:38.000Z</time>
      </trkpt>
      <trkpt lat="45.97577" lon="7.96803">
        <ele>1709.3</ele>
        <time>2000-01-02T02:01:48.000Z</time>
      </trkpt>
      <trkpt lat="45.9757" lon="7.96813">
        <ele>1707</ele>
        <time>2000-01-02T02:01:58.000Z</time>
      </trkpt>
      <trkpt lat="45.97566" lon="7.9683">
        <ele>1714.6</ele>
        <time>2000-01-02T02:02:08.000Z</time>
      </trkpt>
      <trkpt lat="45.97586" lon="7.96851">
        <ele>1715</ele>
        <time>2000-01-02T02:02:18.000Z</time>
      </trkpt>
      <trkpt lat="45.97601" lon="7.96849">
        <ele>1722.7</ele>
        <time>2000-01-02T02:02:28.000Z</time>
      </trkpt>
      <trkpt lat="45.9764" lon="7.96859">
        <ele>1723</ele>
        <time>2000-01-02T02:02:38.000Z</time>
      </trkpt>
      <trkpt lat="45.97662" lon="7.96872">
        <ele>1732</ele>
        <time>2000-01-02T02:02:48.000Z</time>
      </trkpt>
      <trkpt lat="45.97681" lon="7.96883">
        <ele>1737</ele>
        <time>2000-01-02T02:02:58.000Z</time>
      </trkpt>
      <trkpt lat="45.97693" lon="7.96897">
        <ele>1745.6</ele>
        <time>2000-01-02T02:03:08.000Z</time>
      </trkpt>
      <trkpt lat="45.977" lon="7.96908">
        <ele>1741</ele>
        <time>2000-01-02T02:03:18.000Z</time>
      </trkpt>
      <trkpt lat="45.97707" lon="7.96919">
        <ele>1751</ele>
        <time>2000-01-02T02:03:28.000Z</time>
      </trkpt>
      <trkpt lat="45.97714" lon="7.96933">
        <ele>1749</ele>
        <time>2000-01-02T02:03:38.000Z</time>
      </trkpt>
      <trkpt lat="45.97724" lon="7.96932">
        <ele>1756.6</ele>
        <time>2000-01-02T02:03:48.000Z</time>
      </trkpt>
      <trkpt lat="45.97735" lon="7.96921">
        <ele>1751</ele>
        <time>2000-01-02T02:03:58.000Z</time>
      </trkpt>
      <trkpt lat="45.97747" lon="7.96913">
        <ele>1758.6</ele>
        <time>2000-01-02T02:04:08.000Z</time>
      </trkpt>
      <trkpt lat="45.97759" lon="7.96922">
        <ele>1757</ele>
        <time>2000-01-02T02:04:18.000Z</time>
      </trkpt>
      <trkpt lat="45.97767" lon="7.96934">
        <ele>1769.6</ele>
        <time>2000-01-02T02:04:28.000Z</time>
      </trkpt>
      <trkpt lat="45.97776" lon="7.96932">
        <ele>1766</ele>
        <time>2000-01-02T02:04:38.000Z</time>
      </trkpt>
      <trkpt lat="45.97786" lon="7.96928">
        <ele>1775.6</ele>
        <time>2000-01-02T02:04:48.000Z</time>
      </trkpt>
      <trkpt lat="45.97796" lon="7.96916">
        <ele>1770</ele>
        <time>2000-01-02T02:04:58.000Z</time>
      </trkpt>
      <trkpt lat="45.97806" lon="7.96914">
        <ele>1778.4</ele>
        <time>2000-01-02T02:05:08.000Z</time>
      </trkpt>
      <trkpt lat="45.97815" lon="7.96918">
        <ele>1774</ele>
        <time>2000-01-02T02:05:18.000Z</time>
      </trkpt>
      <trkpt lat="45.97824" lon="7.96927">
        <ele>1786</ele>
        <time>2000-01-02T02:05:28.000Z</time>
      </trkpt>
      <trkpt lat="45.97829" lon="7.96939">
        <ele>1782</ele>
        <time>2000-01-02T02:05:38.000Z</time>
      </trkpt>
      <trkpt lat="45.97831" lon="7.96959">
        <ele>1795.7</ele>
        <time>2000-01-02T02:05:48.000Z</time>
      </trkpt>
      <trkpt lat="45.9783" lon="7.96976">
        <ele>1793</ele>
        <time>2000-01-02T02:05:58.000Z</time>
      </trkpt>
      <trkpt lat="45.9782" lon="7.96984">
        <ele>1799.7</ele>
        <time>2000-01-02T02:06:08.000Z</time>
      </trkpt>
      <trkpt lat="45.97817" lon="7.96998">
        <ele>1795</ele>
        <time>2000-01-02T02:06:18.000Z</time>
      </trkpt>
      <trkpt lat="45.97822" lon="7.97011">
        <ele>1806.8</ele>
        <time>2000-01-02T02:06:28.000Z</time>
      </trkpt>
      <trkpt lat="45.97821" lon="7.97028">
        <ele>1806</ele>
        <time>2000-01-02T02:06:38.000Z</time>
      </trkpt>
      <trkpt lat="45.97819" lon="7.9704">
        <ele>1813.1</ele>
        <time>2000-01-02T02:06:48.000Z</time>
      </trkpt>
      <trkpt lat="45.97819" lon="7.97054">
        <ele>1816.8</ele>
        <time>2000-01-02T02:06:58.000Z</time>
      </trkpt>
      <trkpt lat="45.97825" lon="7.97067">
        <ele>1814</ele>
        <time>2000-01-02T02:07:08.000Z</time>
      </trkpt>
      <trkpt lat="45.9782" lon="7.97081">
        <ele>1822.3</ele>
        <time>2000-01-02T02:07:18.000Z</time>
      </trkpt>
      <trkpt lat="45.97822" lon="7.97099">
        <ele>1819</ele>
        <time>2000-01-02T02:07:28.000Z</time>
      </trkpt>
      <trkpt lat="45.97811" lon="7.97108">
        <ele>1826.3</ele>
        <time>2000-01-02T02:07:38.000Z</time>
      </trkpt>
      <trkpt lat="45.97801" lon="7.97105">
        <ele>1819</ele>
        <time>2000-01-02T02:07:48.000Z</time>
      </trkpt>
      <trkpt lat="45.97788" lon="7.97109">
        <ele>1826.4</ele>
        <time>2000-01-02T02:07:58.000Z</time>
      </trkpt>
      <trkpt lat="45.97783" lon="7.97128">
        <ele>1824</ele>
        <time>2000-01-02T02:08:08.000Z</time>
      </trkpt>
      <trkpt lat="45.97781" lon="7.9715">
        <ele>1836.4</ele>
        <time>2000-01-02T02:08:18.000Z</time>
      </trkpt>
      <trkpt lat="45.97784" lon="7.97166">
        <ele>1834</ele>
        <time>2000-01-02T02:08:28.000Z</time>
      </trkpt>
      <trkpt lat="45.97785" lon="7.972">
        <ele>1843</ele>
        <time>2000-01-02T02:08:38.000Z</time>
      </trkpt>
      <trkpt lat="45.97781" lon="7.97217">
        <ele>1851.5</ele>
        <time>2000-01-02T02:08:48.000Z</time>
      </trkpt>
      <trkpt lat="45.97782" lon="7.97235">
        <ele>1849</ele>
        <time>2000-01-02T02:08:58.000Z</time>
      </trkpt>
      <trkpt lat="45.97781" lon="7.97253">
        <ele>1859.2</ele>
        <time>2000-01-02T02:09:08.000Z</time>
      </trkpt>
      <trkpt lat="45.97775" lon="7.97271">
        <ele>1855</ele>
        <time>2000-01-02T02:09:18.000Z</time>
      </trkpt>
      <trkpt lat="45.97764" lon="7.97284">
        <ele>1861</ele>
        <time>2000-01-02T02:09:28.000Z</time>
      </trkpt>
      <trkpt lat="45.97753" lon="7.973">
        <ele>1858</ele>
        <time>2000-01-02T02:09:38.000Z</time>
      </trkpt>
      <trkpt lat="45.97745" lon="7.97317">
        <ele>1864.9</ele>
        <time>2000-01-02T02:09:48.000Z</time>
      </trkpt>
      <trkpt lat="45.97742" lon="7.97333">
        <ele>1864</ele>
        <time>2000-01-02T02:09:58.000Z</time>
      </trkpt>
      <trkpt lat="45.97746" lon="7.97352">
        <ele>1870.4</ele>
        <time>2000-01-02T02:10:08.000Z</time>
      </trkpt>
      <trkpt lat="45.97754" lon="7.97363">
        <ele>1872</ele>
        <time>2000-01-02T02:10:18.000Z</time>
      </trkpt>
      <trkpt lat="45.97763" lon="7.97372">
        <ele>1876.7</ele>
        <time>2000-01-02T02:10:28.000Z</time>
      </trkpt>
      <trkpt lat="45.97771" lon="7.9738">
        <ele>1877</ele>
        <time>2000-01-02T02:10:38.000Z</time>
      </trkpt>
      <trkpt lat="45.97782" lon="7.97391">
        <ele>1883.5</ele>
        <time>2000-01-02T02:10:48.000Z</time>
      </trkpt>
      <trkpt lat="45.97787" lon="7.97409">
        <ele>1884</ele>
        <time>2000-01-02T02:10:58.000Z</time>
      </trkpt>
      <trkpt lat="45.978" lon="7.97411">
        <ele>1891.6</ele>
        <time>2000-01-02T02:11:08.000Z</time>
      </trkpt>
      <trkpt lat="45.97808" lon="7.97422">
        <ele>1889</ele>
        <time>2000-01-02T02:11:18.000Z</time>
      </trkpt>
      <trkpt lat="45.97819" lon="7.97433">
        <ele>1900.9</ele>
        <time>2000-01-02T02:11:28.000Z</time>
      </trkpt>
      <trkpt lat="45.97824" lon="7.97451">
        <ele>1901</ele>
        <time>2000-01-02T02:11:38.000Z</time>
      </trkpt>
      <trkpt lat="45.97834" lon="7.97501">
        <ele>1910</ele>
        <time>2000-01-02T02:11:48.000Z</time>
      </trkpt>
      <trkpt lat="45.97844" lon="7.9751">
        <ele>1919.7</ele>
        <time>2000-01-02T02:11:58.000Z</time>
      </trkpt>
      <trkpt lat="45.97855" lon="7.9752">
        <ele>1919</ele>
        <time>2000-01-02T02:12:08.000Z</time>
      </trkpt>
      <trkpt lat="45.97873" lon="7.97544">
        <ele>1928</ele>
        <time>2000-01-02T02:12:18.000Z</time>
      </trkpt>
      <trkpt lat="45.97884" lon="7.97551">
        <ele>1938.2</ele>
        <time>2000-01-02T02:12:28.000Z</time>
      </trkpt>
      <trkpt lat="45.97894" lon="7.97564">
        <ele>1941</ele>
        <time>2000-01-02T02:12:38.000Z</time>
      </trkpt>
      <trkpt lat="45.97898" lon="7.97546">
        <ele>1947.7</ele>
        <time>2000-01-02T02:12:48.000Z</time>
      </trkpt>
      <trkpt lat="45.97906" lon="7.9753">
        <ele>1947</ele>
        <time>2000-01-02T02:12:58.000Z</time>
      </trkpt>
      <trkpt lat="45.97906" lon="7.97513">
        <ele>1953.2</ele>
        <time>2000-01-02T02:13:08.000Z</time>
      </trkpt>
      <trkpt lat="45.97908" lon="7.97499">
        <ele>1947</ele>
        <time>2000-01-02T02:13:18.000Z</time>
      </trkpt>
      <trkpt lat="45.97919" lon="7.97492">
        <ele>1961.3</ele>
        <time>2000-01-02T02:13:28.000Z</time>
      </trkpt>
      <trkpt lat="45.97936" lon="7.97472">
        <ele>1965</ele>
        <time>2000-01-02T02:13:38.000Z</time>
      </trkpt>
      <trkpt lat="45.97952" lon="7.97447">
        <ele>1969</ele>
        <time>2000-01-02T02:13:48.000Z</time>
      </trkpt>
      <trkpt lat="45.97963" lon="7.9744">
        <ele>1977.6</ele>
        <time>2000-01-02T02:13:58.000Z</time>
      </trkpt>
      <trkpt lat="45.97975" lon="7.97438">
        <ele>1976</ele>
        <time>2000-01-02T02:14:08.000Z</time>
      </trkpt>
      <trkpt lat="45.97984" lon="7.97446">
        <ele>1988.9</ele>
        <time>2000-01-02T02:14:18.000Z</time>
      </trkpt>
      <trkpt lat="45.97989" lon="7.97464">
        <ele>1986</ele>
        <time>2000-01-02T02:14:28.000Z</time>
      </trkpt>
      <trkpt lat="45.97988" lon="7.97481">
        <ele>1995.7</ele>
        <time>2000-01-02T02:14:38.000Z</time>
      </trkpt>
      <trkpt lat="45.97999" lon="7.9749">
        <ele>1995</ele>
        <time>2000-01-02T02:14:48.000Z</time>
      </trkpt>
      <trkpt lat="45.98009" lon="7.97501">
        <ele>2008</ele>
        <time>2000-01-02T02:14:58.000Z</time>
      </trkpt>
      <trkpt lat="45.98018" lon="7.97495">
        <ele>2004</ele>
        <time>2000-01-02T02:15:08.000Z</time>
      </trkpt>
      <trkpt lat="45.98022" lon="7.9748">
        <ele>2012</ele>
        <time>2000-01-02T02:15:18.000Z</time>
      </trkpt>
      <trkpt lat="45.98029" lon="7.97464">
        <ele>2006</ele>
        <time>2000-01-02T02:15:28.000Z</time>
      </trkpt>
      <trkpt lat="45.98035" lon="7.97452">
        <ele>2013.7</ele>
        <time>2000-01-02T02:15:38.000Z</time>
      </trkpt>
      <trkpt lat="45.98041" lon="7.97429">
        <ele>2012</ele>
        <time>2000-01-02T02:15:48.000Z</time>
      </trkpt>
      <trkpt lat="45.98052" lon="7.97414">
        <ele>2020.5</ele>
        <time>2000-01-02T02:15:58.000Z</time>
      </trkpt>
      <trkpt lat="45.98059" lon="7.97401">
        <ele>2014</ele>
        <time>2000-01-02T02:16:08.000Z</time>
      </trkpt>
      <trkpt lat="45.98069" lon="7.97403">
        <ele>2026.6</ele>
        <time>2000-01-02T02:16:18.000Z</time>
      </trkpt>
      <trkpt lat="45.98087" lon="7.97394">
        <ele>2027</ele>
        <time>2000-01-02T02:16:28.000Z</time>
      </trkpt>
      <trkpt lat="45.9811" lon="7.97356">
        <ele>2035</ele>
        <time>2000-01-02T02:16:38.000Z</time>
      </trkpt>
      <trkpt lat="45.98125" lon="7.97333">
        <ele>2044</ele>
        <time>2000-01-02T02:16:48.000Z</time>
      </trkpt>
      <trkpt lat="45.98127" lon="7.9732">
        <ele>2049.8</ele>
        <time>2000-01-02T02:16:58.000Z</time>
      </trkpt>
      <trkpt lat="45.98132" lon="7.97305">
        <ele>2048</ele>
        <time>2000-01-02T02:17:08.000Z</time>
      </trkpt>
      <trkpt lat="45.98139" lon="7.97291">
        <ele>2055.1</ele>
        <time>2000-01-02T02:17:18.000Z</time>
      </trkpt>
      <trkpt lat="45.98143" lon="7.97279">
        <ele>2054</ele>
        <time>2000-01-02T02:17:28.000Z</time>
      </trkpt>
      <trkpt lat="45.98145" lon="7.97247">
        <ele>2056</ele>
        <time>2000-01-02T02:17:38.000Z</time>
      </trkpt>
      <trkpt lat="45.98149" lon="7.97232">
        <ele>2062.9</ele>
        <time>2000-01-02T02:17:48.000Z</time>
      </trkpt>
      <trkpt lat="45.98153" lon="7.97213">
        <ele>2061</ele>
        <time>2000-01-02T02:17:58.000Z</time>
      </trkpt>
      <trkpt lat="45.98163" lon="7.97196">
        <ele>2068.9</ele>
        <time>2000-01-02T02:18:08.000Z</time>
      </trkpt>
      <trkpt lat="45.98182" lon="7.97163">
        <ele>2072</ele>
        <time>2000-01-02T02:18:18.000Z</time>
      </trkpt>
      <trkpt lat="45.98193" lon="7.97138">
        <ele>2077</ele>
        <time>2000-01-02T02:18:28.000Z</time>
      </trkpt>
      <trkpt lat="45.98199" lon="7.97125">
        <ele>2083.8</ele>
        <time>2000-01-02T02:18:38.000Z</time>
      </trkpt>
      <trkpt lat="45.98208" lon="7.97117">
        <ele>2078</ele>
        <time>2000-01-02T02:18:48.000Z</time>
      </trkpt>
      <trkpt lat="45.9822" lon="7.97109">
        <ele>2090.5</ele>
        <time>2000-01-02T02:18:58.000Z</time>
      </trkpt>
      <trkpt lat="45.98224" lon="7.97125">
        <ele>2089</ele>
        <time>2000-01-02T02:19:08.000Z</time>
      </trkpt>
      <trkpt lat="45.98221" lon="7.97141">
        <ele>2098.3</ele>
        <time>2000-01-02T02:19:18.000Z</time>
      </trkpt>
      <trkpt lat="45.98224" lon="7.97157">
        <ele>2095</ele>
        <time>2000-01-02T02:19:28.000Z</time>
      </trkpt>
      <trkpt lat="45.98236" lon="7.97152">
        <ele>2105.9</ele>
        <time>2000-01-02T02:19:38.000Z</time>
      </trkpt>
      <trkpt lat="45.98246" lon="7.97156">
        <ele>2105</ele>
        <time>2000-01-02T02:19:48.000Z</time>
      </trkpt>
      <trkpt lat="45.98266" lon="7.97156">
        <ele>2115</ele>
        <time>2000-01-02T02:19:58.000Z</time>
      </trkpt>
      <trkpt lat="45.98274" lon="7.97145">
        <ele>2123.8</ele>
        <time>2000-01-02T02:20:08.000Z</time>
      </trkpt>
      <trkpt lat="45.98285" lon="7.97144">
        <ele>2121</ele>
        <time>2000-01-02T02:20:18.000Z</time>
      </trkpt>
      <trkpt lat="45.98294" lon="7.97156">
        <ele>2130.3</ele>
        <time>2000-01-02T02:20:28.000Z</time>
      </trkpt>
      <trkpt lat="45.98305" lon="7.97159">
        <ele>2129</ele>
        <time>2000-01-02T02:20:38.000Z</time>
      </trkpt>
      <trkpt lat="45.98318" lon="7.97157">
        <ele>2138</ele>
        <time>2000-01-02T02:20:48.000Z</time>
      </trkpt>
      <trkpt lat="45.98329" lon="7.9715">
        <ele>2133</ele>
        <time>2000-01-02T02:20:58.000Z</time>
      </trkpt>
      <trkpt lat="45.9834" lon="7.97153">
        <ele>2144</ele>
        <time>2000-01-02T02:21:08.000Z</time>
      </trkpt>
      <trkpt lat="45.98359" lon="7.9715">
        <ele>2142</ele>
        <time>2000-01-02T02:21:18.000Z</time>
      </trkpt>
      <trkpt lat="45.98369" lon="7.97151">
        <ele>2154.3</ele>
        <time>2000-01-02T02:21:28.000Z</time>
      </trkpt>
      <trkpt lat="45.9838" lon="7.97145">
        <ele>2156</ele>
        <time>2000-01-02T02:21:38.000Z</time>
      </trkpt>
      <trkpt lat="45.9839" lon="7.97143">
        <ele>2164.5</ele>
        <time>2000-01-02T02:21:48.000Z</time>
      </trkpt>
      <trkpt lat="45.984" lon="7.97155">
        <ele>2163</ele>
        <time>2000-01-02T02:21:58.000Z</time>
      </trkpt>
      <trkpt lat="45.984" lon="7.97172">
        <ele>2176.4</ele>
        <time>2000-01-02T02:22:08.000Z</time>
      </trkpt>
      <trkpt lat="45.98397" lon="7.97192">
        <ele>2172</ele>
        <time>2000-01-02T02:22:18.000Z</time>
      </trkpt>
      <trkpt lat="45.98409" lon="7.97198">
        <ele>2186.9</ele>
        <time>2000-01-02T02:22:28.000Z</time>
      </trkpt>
      <trkpt lat="45.98417" lon="7.97189">
        <ele>2181</ele>
        <time>2000-01-02T02:22:38.000Z</time>
      </trkpt>
      <trkpt lat="45.98438" lon="7.97189">
        <ele>2190</ele>
        <time>2000-01-02T02:22:48.000Z</time>
      </trkpt>
      <trkpt lat="45.98448" lon="7.97178">
        <ele>2199.2</ele>
        <time>2000-01-02T02:22:58.000Z</time>
      </trkpt>
      <trkpt lat="45.98455" lon="7.97167">
        <ele>2196</ele>
        <time>2000-01-02T02:23:08.000Z</time>
      </trkpt>
      <trkpt lat="45.98467" lon="7.97157">
        <ele>2204.9</ele>
        <time>2000-01-02T02:23:18.000Z</time>
      </trkpt>
      <trkpt lat="45.98473" lon="7.97143">
        <ele>2201</ele>
        <time>2000-01-02T02:23:28.000Z</time>
      </trkpt>
      <trkpt lat="45.98492" lon="7.97129">
        <ele>2206</ele>
        <time>2000-01-02T02:23:38.000Z</time>
      </trkpt>
      <trkpt lat="45.98498" lon="7.97118">
        <ele>2211.8</ele>
        <time>2000-01-02T02:23:48.000Z</time>
      </trkpt>
      <trkpt lat="45.98512" lon="7.97108">
        <ele>2210</ele>
        <time>2000-01-02T02:23:58.000Z</time>
      </trkpt>
      <trkpt lat="45.98521" lon="7.97114">
        <ele>2217.6</ele>
        <time>2000-01-02T02:24:08.000Z</time>
      </trkpt>
      <trkpt lat="45.9853" lon="7.97112">
        <ele>2214</ele>
        <time>2000-01-02T02:24:18.000Z</time>
      </trkpt>
      <trkpt lat="45.98549" lon="7.97105">
        <ele>2216</ele>
        <time>2000-01-02T02:24:28.000Z</time>
      </trkpt>
      <trkpt lat="45.98561" lon="7.97105">
        <ele>2224.2</ele>
        <time>2000-01-02T02:24:38.000Z</time>
      </trkpt>
      <trkpt lat="45.98575" lon="7.97106">
        <ele>2222</ele>
        <time>2000-01-02T02:24:48.000Z</time>
      </trkpt>
      <trkpt lat="45.98592" lon="7.97103">
        <ele>2229.4</ele>
        <time>2000-01-02T02:24:58.000Z</time>
      </trkpt>
      <trkpt lat="45.98599" lon="7.97096">
        <ele>2224</ele>
        <time>2000-01-02T02:25:08.000Z</time>
      </trkpt>
      <trkpt lat="45.98613" lon="7.97091">
        <ele>2233.7</ele>
        <time>2000-01-02T02:25:18.000Z</time>
      </trkpt>
      <trkpt lat="45.98631" lon="7.97084">
        <ele>2234</ele>
        <time>2000-01-02T02:25:28.000Z</time>
      </trkpt>
      <trkpt lat="45.98642" lon="7.97079">
        <ele>2240.8</ele>
        <time>2000-01-02T02:25:38.000Z</time>
      </trkpt>
      <trkpt lat="45.98651" lon="7.97076">
        <ele>2242</ele>
        <time>2000-01-02T02:25:48.000Z</time>
      </trkpt>
      <trkpt lat="45.9866" lon="7.9707">
        <ele>2248.6</ele>
        <time>2000-01-02T02:25:58.000Z</time>
      </trkpt>
      <trkpt lat="45.98677" lon="7.97046">
        <ele>2254</ele>
        <time>2000-01-02T02:26:08.000Z</time>
      </trkpt>
      <trkpt lat="45.98682" lon="7.97026">
        <ele>2261.6</ele>
        <time>2000-01-02T02:26:18.000Z</time>
      </trkpt>
      <trkpt lat="45.98687" lon="7.97015">
        <ele>2257</ele>
        <time>2000-01-02T02:26:28.000Z</time>
      </trkpt>
      <trkpt lat="45.98696" lon="7.97004">
        <ele>2267.5</ele>
        <time>2000-01-02T02:26:38.000Z</time>
      </trkpt>
      <trkpt lat="45.98708" lon="7.97001">
        <ele>2267</ele>
        <time>2000-01-02T02:26:48.000Z</time>
      </trkpt>
      <trkpt lat="45.98716" lon="7.97009">
        <ele>2281.5</ele>
        <time>2000-01-02T02:26:58.000Z</time>
      </trkpt>
      <trkpt lat="45.98725" lon="7.97036">
        <ele>2285</ele>
        <time>2000-01-02T02:27:08.000Z</time>
      </trkpt>
      <trkpt lat="45.98733" lon="7.97029">
        <ele>2293.8</ele>
        <time>2000-01-02T02:27:18.000Z</time>
      </trkpt>
      <trkpt lat="45.98742" lon="7.97015">
        <ele>2297</ele>
        <time>2000-01-02T02:27:28.000Z</time>
      </trkpt>
      <trkpt lat="45.9875" lon="7.97004">
        <ele>2303.1</ele>
        <time>2000-01-02T02:27:38.000Z</time>
      </trkpt>
      <trkpt lat="45.98758" lon="7.96985">
        <ele>2300</ele>
        <time>2000-01-02T02:27:48.000Z</time>
      </trkpt>
      <trkpt lat="45.98767" lon="7.96976">
        <ele>2310.5</ele>
        <time>2000-01-02T02:27:58.000Z</time>
      </trkpt>
      <trkpt lat="45.98778" lon="7.96964">
        <ele>2310</ele>
        <time>2000-01-02T02:28:08.000Z</time>
      </trkpt>
      <trkpt lat="45.98787" lon="7.96956">
        <ele>2316.7</ele>
        <time>2000-01-02T02:28:18.000Z</time>
      </trkpt>
      <trkpt lat="45.98796" lon="7.96951">
        <ele>2317</ele>
        <time>2000-01-02T02:28:28.000Z</time>
      </trkpt>
      <trkpt lat="45.98807" lon="7.96947">
        <ele>2323.1</ele>
        <time>2000-01-02T02:28:38.000Z</time>
      </trkpt>
      <trkpt lat="45.98827" lon="7.96916">
        <ele>2325</ele>
        <time>2000-01-02T02:28:48.000Z</time>
      </trkpt>
      <trkpt lat="45.98835" lon="7.9691">
        <ele>2332.1</ele>
        <time>2000-01-02T02:28:58.000Z</time>
      </trkpt>
      <trkpt lat="45.98845" lon="7.96899">
        <ele>2332</ele>
        <time>2000-01-02T02:29:08.000Z</time>
      </trkpt>
      <trkpt lat="45.98855" lon="7.96886">
        <ele>2339.3</ele>
        <time>2000-01-02T02:29:18.000Z</time>
      </trkpt>
      <trkpt lat="45.98866" lon="7.96886">
        <ele>2339</ele>
        <time>2000-01-02T02:29:28.000Z</time>
      </trkpt>
      <trkpt lat="45.98877" lon="7.96892">
        <ele>2347.2</ele>
        <time>2000-01-02T02:29:38.000Z</time>
      </trkpt>
      <trkpt lat="45.98887" lon="7.96901">
        <ele>2347</ele>
        <time>2000-01-02T02:29:48.000Z</time>
      </trkpt>
      <trkpt lat="45.98901" lon="7.96905">
        <ele>2356.1</ele>
        <time>2000-01-02T02:29:58.000Z</time>
      </trkpt>
      <trkpt lat="45.98914" lon="7.96906">
        <ele>2357</ele>
        <time>2000-01-02T02:30:08.000Z</time>
      </trkpt>
      <trkpt lat="45.98924" lon="7.96914">
        <ele>2363.5</ele>
        <time>2000-01-02T02:30:18.000Z</time>
      </trkpt>
      <trkpt lat="45.98939" lon="7.96929">
        <ele>2363</ele>
        <time>2000-01-02T02:30:28.000Z</time>
      </trkpt>
      <trkpt lat="45.98963" lon="7.96946">
        <ele>2373</ele>
        <time>2000-01-02T02:30:38.000Z</time>
      </trkpt>
      <trkpt lat="45.98978" lon="7.96945">
        <ele>2379.6</ele>
        <time>2000-01-02T02:30:48.000Z</time>
      </trkpt>
      <trkpt lat="45.9899" lon="7.9695">
        <ele>2381</ele>
        <time>2000-01-02T02:30:58.000Z</time>
      </trkpt>
      <trkpt lat="45.99001" lon="7.96956">
        <ele>2388.2</ele>
        <time>2000-01-02T02:31:08.000Z</time>
      </trkpt>
      <trkpt lat="45.99005" lon="7.96969">
        <ele>2387</ele>
        <time>2000-01-02T02:31:18.000Z</time>
      </trkpt>
      <trkpt lat="45.99003" lon="7.96986">
        <ele>2397.3</ele>
        <time>2000-01-02T02:31:28.000Z</time>
      </trkpt>
      <trkpt lat="45.98999" lon="7.97004">
        <ele>2395</ele>
        <time>2000-01-02T02:31:38.000Z</time>
      </trkpt>
      <trkpt lat="45.99003" lon="7.97016">
        <ele>2407</ele>
        <time>2000-01-02T02:31:48.000Z</time>
      </trkpt>
      <trkpt lat="45.99007" lon="7.97028">
        <ele>2412.1</ele>
        <time>2000-01-02T02:31:58.000Z</time>
      </trkpt>
      <trkpt lat="45.99007" lon="7.97042">
        <ele>2412</ele>
        <time>2000-01-02T02:32:08.000Z</time>
      </trkpt>
      <trkpt lat="45.99002" lon="7.97061">
        <ele>2422.5</ele>
        <time>2000-01-02T02:32:18.000Z</time>
      </trkpt>
      <trkpt lat="45.99011" lon="7.9707">
        <ele>2425</ele>
        <time>2000-01-02T02:32:28.000Z</time>
      </trkpt>
      <trkpt lat="45.99022" lon="7.97075">
        <ele>2432.8</ele>
        <time>2000-01-02T02:32:38.000Z</time>
      </trkpt>
      <trkpt lat="45.99023" lon="7.9709">
        <ele>2435</ele>
        <time>2000-01-02T02:32:48.000Z</time>
      </trkpt>
      <trkpt lat="45.99032" lon="7.97098">
        <ele>2442.3</ele>
        <time>2000-01-02T02:32:58.000Z</time>
      </trkpt>
      <trkpt lat="45.99042" lon="7.97105">
        <ele>2442</ele>
        <time>2000-01-02T02:33:08.000Z</time>
      </trkpt>
      <trkpt lat="45.9905" lon="7.97119">
        <ele>2452.5</ele>
        <time>2000-01-02T02:33:18.000Z</time>
      </trkpt>
      <trkpt lat="45.99053" lon="7.97138">
        <ele>2452</ele>
        <time>2000-01-02T02:33:28.000Z</time>
      </trkpt>
      <trkpt lat="45.99059" lon="7.97151">
        <ele>2460.6</ele>
        <time>2000-01-02T02:33:38.000Z</time>
      </trkpt>
      <trkpt lat="45.9907" lon="7.97173">
        <ele>2462</ele>
        <time>2000-01-02T02:33:48.000Z</time>
      </trkpt>
      <trkpt lat="45.99074" lon="7.97193">
        <ele>2466.8</ele>
        <time>2000-01-02T02:33:58.000Z</time>
      </trkpt>
      <trkpt lat="45.99075" lon="7.97209">
        <ele>2465</ele>
        <time>2000-01-02T02:34:08.000Z</time>
      </trkpt>
      <trkpt lat="45.99081" lon="7.97226">
        <ele>2470.6</ele>
        <time>2000-01-02T02:34:18.000Z</time>
      </trkpt>
      <trkpt lat="45.99094" lon="7.97233">
        <ele>2470</ele>
        <time>2000-01-02T02:34:28.000Z</time>
      </trkpt>
      <trkpt lat="45.99104" lon="7.97245">
        <ele>2478.6</ele>
        <time>2000-01-02T02:34:38.000Z</time>
      </trkpt>
      <trkpt lat="45.99117" lon="7.97269">
        <ele>2482</ele>
        <time>2000-01-02T02:34:48.000Z</time>
      </trkpt>
      <trkpt lat="45.99127" lon="7.97298">
        <ele>2490</ele>
        <time>2000-01-02T02:34:58.000Z</time>
      </trkpt>
      <trkpt lat="45.99136" lon="7.9731">
        <ele>2501.1</ele>
        <time>2000-01-02T02:35:08.000Z</time>
      </trkpt>
      <trkpt lat="45.9915" lon="7.97337">
        <ele>2504</ele>
        <time>2000-01-02T02:35:18.000Z</time>
      </trkpt>
      <trkpt lat="45.99169" lon="7.97358">
        <ele>2515</ele>
        <time>2000-01-02T02:35:28.000Z</time>
      </trkpt>
      <trkpt lat="45.9919" lon="7.97381">
        <ele>2531</ele>
        <time>2000-01-02T02:35:38.000Z</time>
      </trkpt>
      <trkpt lat="45.992" lon="7.97391">
        <ele>2538.7</ele>
        <time>2000-01-02T02:35:48.000Z</time>
      </trkpt>
      <trkpt lat="45.99228" lon="7.97434">
        <ele>2544</ele>
        <time>2000-01-02T02:35:58.000Z</time>
      </trkpt>
      <trkpt lat="45.99239" lon="7.97439">
        <ele>2555</ele>
        <time>2000-01-02T02:36:08.000Z</time>
      </trkpt>
      <trkpt lat="45.99248" lon="7.97451">
        <ele>2554</ele>
        <time>2000-01-02T02:36:18.000Z</time>
      </trkpt>
      <trkpt lat="45.99257" lon="7.97461">
        <ele>2563.7</ele>
        <time>2000-01-02T02:36:28.000Z</time>
      </trkpt>
      <trkpt lat="45.99267" lon="7.97472">
        <ele>2562</ele>
        <time>2000-01-02T02:36:38.000Z</time>
      </trkpt>
      <trkpt lat="45.99273" lon="7.9749">
        <ele>2572.2</ele>
        <time>2000-01-02T02:36:48.000Z</time>
      </trkpt>
      <trkpt lat="45.99282" lon="7.975">
        <ele>2571</ele>
        <time>2000-01-02T02:36:58.000Z</time>
      </trkpt>
      <trkpt lat="45.99282" lon="7.97515">
        <ele>2578</ele>
        <time>2000-01-02T02:37:08.000Z</time>
      </trkpt>
      <trkpt lat="45.99291" lon="7.97517">
        <ele>2577</ele>
        <time>2000-01-02T02:37:18.000Z</time>
      </trkpt>
      <trkpt lat="45.99311" lon="7.97491">
        <ele>2582</ele>
        <time>2000-01-02T02:37:28.000Z</time>
      </trkpt>
      <trkpt lat="45.99318" lon="7.97505">
        <ele>2590.1</ele>
        <time>2000-01-02T02:37:38.000Z</time>
      </trkpt>
      <trkpt lat="45.99329" lon="7.97515">
        <ele>2589</ele>
        <time>2000-01-02T02:37:48.000Z</time>
      </trkpt>
      <trkpt lat="45.99345" lon="7.97509">
        <ele>2601.6</ele>
        <time>2000-01-02T02:37:58.000Z</time>
      </trkpt>
      <trkpt lat="45.99358" lon="7.97503">
        <ele>2600</ele>
        <time>2000-01-02T02:38:08.000Z</time>
      </trkpt>
      <trkpt lat="45.99379" lon="7.97478">
        <ele>2603</ele>
        <time>2000-01-02T02:38:18.000Z</time>
      </trkpt>
      <trkpt lat="45.99388" lon="7.97481">
        <ele>2613.6</ele>
        <time>2000-01-02T02:38:28.000Z</time>
      </trkpt>
      <trkpt lat="45.99389" lon="7.97498">
        <ele>2610</ele>
        <time>2000-01-02T02:38:38.000Z</time>
      </trkpt>
      <trkpt lat="45.99388" lon="7.9752">
        <ele>2620.5</ele>
        <time>2000-01-02T02:38:48.000Z</time>
      </trkpt>
      <trkpt lat="45.99383" lon="7.97537">
        <ele>2616</ele>
        <time>2000-01-02T02:38:58.000Z</time>
      </trkpt>
      <trkpt lat="45.99385" lon="7.97554">
        <ele>2623.3</ele>
        <time>2000-01-02T02:39:08.000Z</time>
      </trkpt>
      <trkpt lat="45.99394" lon="7.97561">
        <ele>2623</ele>
        <time>2000-01-02T02:39:18.000Z</time>
      </trkpt>
      <trkpt lat="45.99405" lon="7.97558">
        <ele>2631</ele>
        <time>2000-01-02T02:39:28.000Z</time>
      </trkpt>
      <trkpt lat="45.99416" lon="7.97571">
        <ele>2632</ele>
        <time>2000-01-02T02:39:38.000Z</time>
      </trkpt>
      <trkpt lat="45.9942" lon="7.97585">
        <ele>2640</ele>
        <time>2000-01-02T02:39:48.000Z</time>
      </trkpt>
      <trkpt lat="45.99427" lon="7.97595">
        <ele>2637</ele>
        <time>2000-01-02T02:39:58.000Z</time>
      </trkpt>
      <trkpt lat="45.99444" lon="7.97618">
        <ele>2645</ele>
        <time>2000-01-02T02:40:08.000Z</time>
      </trkpt>
      <trkpt lat="45.9945" lon="7.97636">
        <ele>2653.2</ele>
        <time>2000-01-02T02:40:18.000Z</time>
      </trkpt>
      <trkpt lat="45.99454" lon="7.9765">
        <ele>2654</ele>
        <time>2000-01-02T02:40:28.000Z</time>
      </trkpt>
      <trkpt lat="45.99465" lon="7.97659">
        <ele>2661.7</ele>
        <time>2000-01-02T02:40:38.000Z</time>
      </trkpt>
      <trkpt lat="45.99469" lon="7.97673">
        <ele>2660</ele>
        <time>2000-01-02T02:40:48.000Z</time>
      </trkpt>
      <trkpt lat="45.9948" lon="7.97677">
        <ele>2670</ele>
        <time>2000-01-02T02:40:58.000Z</time>
      </trkpt>
      <trkpt lat="45.99488" lon="7.97687">
        <ele>2667</ele>
        <time>2000-01-02T02:41:08.000Z</time>
      </trkpt>
      <trkpt lat="45.99488" lon="7.97705">
        <ele>2678.4</ele>
        <time>2000-01-02T02:41:18.000Z</time>
      </trkpt>
      <trkpt lat="45.99494" lon="7.9772">
        <ele>2677</ele>
        <time>2000-01-02T02:41:28.000Z</time>
      </trkpt>
      <trkpt lat="45.99498" lon="7.97734">
        <ele>2687.9</ele>
        <time>2000-01-02T02:41:38.000Z</time>
      </trkpt>
      <trkpt lat="45.99507" lon="7.97733">
        <ele>2686</ele>
        <time>2000-01-02T02:41:48.000Z</time>
      </trkpt>
      <trkpt lat="45.99517" lon="7.97743">
        <ele>2697.2</ele>
        <time>2000-01-02T02:41:58.000Z</time>
      </trkpt>
      <trkpt lat="45.99524" lon="7.97756">
        <ele>2699</ele>
        <time>2000-01-02T02:42:08.000Z</time>
      </trkpt>
      <trkpt lat="45.99528" lon="7.97769">
        <ele>2709.2</ele>
        <time>2000-01-02T02:42:18.000Z</time>
      </trkpt>
      <trkpt lat="45.99537" lon="7.97777">
        <ele>2708</ele>
        <time>2000-01-02T02:42:28.000Z</time>
      </trkpt>
      <trkpt lat="45.99527" lon="7.97798">
        <ele>2718.9</ele>
        <time>2000-01-02T02:42:38.000Z</time>
      </trkpt>
      <trkpt lat="45.99524" lon="7.97814">
        <ele>2719</ele>
        <time>2000-01-02T02:42:48.000Z</time>
      </trkpt>
      <trkpt lat="45.99532" lon="7.97819">
        <ele>2727</ele>
        <time>2000-01-02T02:42:58.000Z</time>
      </trkpt>
      <trkpt lat="45.99542" lon="7.97844">
        <ele>2734</ele>
        <time>2000-01-02T02:43:08.000Z</time>
      </trkpt>
      <trkpt lat="45.99547" lon="7.97855">
        <ele>2744.8</ele>
        <time>2000-01-02T02:43:18.000Z</time>
      </trkpt>
      <trkpt lat="45.9955" lon="7.97871">
        <ele>2747</ele>
        <time>2000-01-02T02:43:28.000Z</time>
      </trkpt>
      <trkpt lat="45.99556" lon="7.97885">
        <ele>2755.4</ele>
        <time>2000-01-02T02:43:38.000Z</time>
      </trkpt>
      <trkpt lat="45.99563" lon="7.97899">
        <ele>2756</ele>
        <time>2000-01-02T02:43:48.000Z</time>
      </trkpt>
      <trkpt lat="45.99574" lon="7.97913">
        <ele>2766.1</ele>
        <time>2000-01-02T02:43:58.000Z</time>
      </trkpt>
      <trkpt lat="45.99583" lon="7.97925">
        <ele>2766</ele>
        <time>2000-01-02T02:44:08.000Z</time>
      </trkpt>
      <trkpt lat="45.99606" lon="7.97932">
        <ele>2770</ele>
        <time>2000-01-02T02:44:18.000Z</time>
      </trkpt>
      <trkpt lat="45.99616" lon="7.9793">
        <ele>2775.1</ele>
        <time>2000-01-02T02:44:28.000Z</time>
      </trkpt>
      <trkpt lat="45.99623" lon="7.97943">
        <ele>2777</ele>
        <time>2000-01-02T02:44:38.000Z</time>
      </trkpt>
      <trkpt lat="45.99632" lon="7.97948">
        <ele>2782.6</ele>
        <time>2000-01-02T02:44:48.000Z</time>
      </trkpt>
      <trkpt lat="45.99643" lon="7.97942">
        <ele>2781</ele>
        <time>2000-01-02T02:44:58.000Z</time>
      </trkpt>
      <trkpt lat="45.99654" lon="7.97927">
        <ele>2784.6</ele>
        <time>2000-01-02T02:45:08.000Z</time>
      </trkpt>
      <trkpt lat="45.99663" lon="7.97926">
        <ele>2784</ele>
        <time>2000-01-02T02:45:18.000Z</time>
      </trkpt>
      <trkpt lat="45.99673" lon="7.97931">
        <ele>2789.4</ele>
        <time>2000-01-02T02:45:28.000Z</time>
      </trkpt>
      <trkpt lat="45.99673" lon="7.97916">
        <ele>2787</ele>
        <time>2000-01-02T02:45:38.000Z</time>
      </trkpt>
      <trkpt lat="45.99669" lon="7.97898">
        <ele>2789.9</ele>
        <time>2000-01-02T02:45:48.000Z</time>
      </trkpt>
      <trkpt lat="45.99663" lon="7.97888">
        <ele>2787</ele>
        <time>2000-01-02T02:45:58.000Z</time>
      </trkpt>
      <trkpt lat="45.99671" lon="7.97878">
        <ele>2793.4</ele>
        <time>2000-01-02T02:46:08.000Z</time>
      </trkpt>
      <trkpt lat="45.99668" lon="7.97858">
        <ele>2792</ele>
        <time>2000-01-02T02:46:18.000Z</time>
      </trkpt>
      <trkpt lat="45.99662" lon="7.97847">
        <ele>2796.5</ele>
        <time>2000-01-02T02:46:28.000Z</time>
      </trkpt>
      <trkpt lat="45.99673" lon="7.9785">
        <ele>2799</ele>
        <time>2000-01-02T02:46:38.000Z</time>
      </trkpt>
      <trkpt lat="45.99676" lon="7.97836">
        <ele>2806</ele>
        <time>2000-01-02T02:46:48.000Z</time>
      </trkpt>
      <trkpt lat="45.99688" lon="7.97802">
        <ele>2806</ele>
        <time>2000-01-02T02:46:58.000Z</time>
      </trkpt>
      <trkpt lat="45.99692" lon="7.97788">
        <ele>2811.7</ele>
        <time>2000-01-02T02:47:08.000Z</time>
      </trkpt>
      <trkpt lat="45.99702" lon="7.97777">
        <ele>2810</ele>
        <time>2000-01-02T02:47:18.000Z</time>
      </trkpt>
      <trkpt lat="45.99719" lon="7.97784">
        <ele>2818.4</ele>
        <time>2000-01-02T02:47:28.000Z</time>
      </trkpt>
      <trkpt lat="45.99726" lon="7.97794">
        <ele>2815</ele>
        <time>2000-01-02T02:47:38.000Z</time>
      </trkpt>
      <trkpt lat="45.99749" lon="7.97831">
        <ele>2818</ele>
        <time>2000-01-02T02:47:48.000Z</time>
      </trkpt>
      <trkpt lat="45.99754" lon="7.97848">
        <ele>2821.1</ele>
        <time>2000-01-02T02:47:58.000Z</time>
      </trkpt>
      <trkpt lat="45.99764" lon="7.97854">
        <ele>2825</ele>
        <time>2000-01-02T02:48:08.000Z</time>
      </trkpt>
      <trkpt lat="45.99774" lon="7.97856">
        <ele>2822.8</ele>
        <time>2000-01-02T02:48:18.000Z</time>
      </trkpt>
      <trkpt lat="45.99784" lon="7.97859">
        <ele>2827</ele>
        <time>2000-01-02T02:48:28.000Z</time>
      </trkpt>
      <trkpt lat="45.99783" lon="7.97876">
        <ele>2827.5</ele>
        <time>2000-01-02T02:48:38.000Z</time>
      </trkpt>
      <trkpt lat="45.99779" lon="7.97892">
        <ele>2829</ele>
        <time>2000-01-02T02:48:48.000Z</time>
      </trkpt>
      <trkpt lat="45.99785" lon="7.97905">
        <ele>2831.2</ele>
        <time>2000-01-02T02:48:58.000Z</time>
      </trkpt>
      <trkpt lat="45.99803" lon="7.97923">
        <ele>2835</ele>
        <time>2000-01-02T02:49:08.000Z</time>
      </trkpt>
      <trkpt lat="45.99815" lon="7.97937">
        <ele>2845.3</ele>
        <time>2000-01-02T02:49:18.000Z</time>
      </trkpt>
      <trkpt lat="45.99819" lon="7.97952">
        <ele>2846</ele>
        <time>2000-01-02T02:49:28.000Z</time>
      </trkpt>
      <trkpt lat="45.99829" lon="7.97962">
        <ele>2856.7</ele>
        <time>2000-01-02T02:49:38.000Z</time>
      </trkpt>
      <trkpt lat="45.99835" lon="7.97977">
        <ele>2856</ele>
        <time>2000-01-02T02:49:48.000Z</time>
      </trkpt>
      <trkpt lat="45.99843" lon="7.97992">
        <ele>2863.5</ele>
        <time>2000-01-02T02:49:58.000Z</time>
      </trkpt>
      <trkpt lat="45.99844" lon="7.98005">
        <ele>2858</ele>
        <time>2000-01-02T02:50:08.000Z</time>
      </trkpt>
      <trkpt lat="45.99847" lon="7.98021">
        <ele>2865.3</ele>
        <time>2000-01-02T02:50:18.000Z</time>
      </trkpt>
      <trkpt lat="45.99838" lon="7.98015">
        <ele>2858</ele>
        <time>2000-01-02T02:50:28.000Z</time>
      </trkpt>
      <trkpt lat="45.99829" lon="7.98016">
        <ele>2864.4</ele>
        <time>2000-01-02T02:50:38.000Z</time>
      </trkpt>
      <trkpt lat="45.99825" lon="7.98029">
        <ele>2858</ele>
        <time>2000-01-02T02:50:48.000Z</time>
      </trkpt>
      <trkpt lat="45.99822" lon="7.98044">
        <ele>2862.7</ele>
        <time>2000-01-02T02:50:58.000Z</time>
      </trkpt>
      <trkpt lat="45.99823" lon="7.98061">
        <ele>2858</ele>
        <time>2000-01-02T02:51:08.000Z</time>
      </trkpt>
      <trkpt lat="45.99832" lon="7.98071">
        <ele>2859.3</ele>
        <time>2000-01-02T02:51:18.000Z</time>
      </trkpt>
      <trkpt lat="45.99841" lon="7.98079">
        <ele>2855</ele>
        <time>2000-01-02T02:51:28.000Z</time>
      </trkpt>
      <trkpt lat="45.99843" lon="7.98094">
        <ele>2851.6</ele>
        <time>2000-01-02T02:51:38.000Z</time>
      </trkpt>
      <trkpt lat="45.99846" lon="7.9811">
        <ele>2851</ele>
        <time>2000-01-02T02:51:48.000Z</time>
      </trkpt>
      <trkpt lat="45.99857" lon="7.98113">
        <ele>2844.4</ele>
        <time>2000-01-02T02:51:58.000Z</time>
      </trkpt>
      <trkpt lat="45.99866" lon="7.9811">
        <ele>2841</ele>
        <time>2000-01-02T02:52:08.000Z</time>
      </trkpt>
      <trkpt lat="45.99879" lon="7.98085">
        <ele>2839</ele>
        <time>2000-01-02T02:52:18.000Z</time>
      </trkpt>
      <trkpt lat="45.99888" lon="7.98084">
        <ele>2829.5</ele>
        <time>2000-01-02T02:52:28.000Z</time>
      </trkpt>
      <trkpt lat="45.99898" lon="7.98071">
        <ele>2830</ele>
        <time>2000-01-02T02:52:38.000Z</time>
      </trkpt>
      <trkpt lat="45.99909" lon="7.98072">
        <ele>2819.7</ele>
        <time>2000-01-02T02:52:48.000Z</time>
      </trkpt>
      <trkpt lat="45.99916" lon="7.98064">
        <ele>2821</ele>
        <time>2000-01-02T02:52:58.000Z</time>
      </trkpt>
      <trkpt lat="45.99926" lon="7.9806">
        <ele>2814.8</ele>
        <time>2000-01-02T02:53:08.000Z</time>
      </trkpt>
      <trkpt lat="45.99939" lon="7.98059">
        <ele>2814</ele>
        <time>2000-01-02T02:53:18.000Z</time>
      </trkpt>
      <trkpt lat="45.9995" lon="7.98054">
        <ele>2809.9</ele>
        <time>2000-01-02T02:53:28.000Z</time>
      </trkpt>
      <trkpt lat="45.99962" lon="7.98051">
        <ele>2808</ele>
        <time>2000-01-02T02:53:38.000Z</time>
      </trkpt>
      <trkpt lat="45.99988" lon="7.98059">
        <ele>2806</ele>
        <time>2000-01-02T02:53:48.000Z</time>
      </trkpt>
      <trkpt lat="45.99998" lon="7.98066">
        <ele>2802</ele>
        <time>2000-01-02T02:53:58.000Z</time>
      </trkpt>
      <trkpt lat="46.00007" lon="7.98074">
        <ele>2799</ele>
        <time>2000-01-02T02:54:08.000Z</time>
      </trkpt>
      <trkpt lat="46.00018" lon="7.98071">
        <ele>2795.6</ele>
        <time>2000-01-02T02:54:18.000Z</time>
      </trkpt>
      <trkpt lat="46.00031" lon="7.98074">
        <ele>2789</ele>
        <time>2000-01-02T02:54:28.000Z</time>
      </trkpt>
      <trkpt lat="46.0004" lon="7.98065">
        <ele>2787.1</ele>
        <time>2000-01-02T02:54:38.000Z</time>
      </trkpt>
      <trkpt lat="46.00046" lon="7.98052">
        <ele>2786</ele>
        <time>2000-01-02T02:54:48.000Z</time>
      </trkpt>
      <trkpt lat="46.00047" lon="7.98035">
        <ele>2784.2</ele>
        <time>2000-01-02T02:54:58.000Z</time>
      </trkpt>
      <trkpt lat="46.00049" lon="7.98021">
        <ele>2786</ele>
        <time>2000-01-02T02:55:08.000Z</time>
      </trkpt>
      <trkpt lat="46.00051" lon="7.98006">
        <ele>2782.2</ele>
        <time>2000-01-02T02:55:18.000Z</time>
      </trkpt>
      <trkpt lat="46.00067" lon="7.97985">
        <ele>2777</ele>
        <time>2000-01-02T02:55:28.000Z</time>
      </trkpt>
      <trkpt lat="46.00087" lon="7.97956">
        <ele>2768</ele>
        <time>2000-01-02T02:55:38.000Z</time>
      </trkpt>
      <trkpt lat="46.00095" lon="7.97945">
        <ele>2762.6</ele>
        <time>2000-01-02T02:55:48.000Z</time>
      </trkpt>
      <trkpt lat="46.00103" lon="7.97933">
        <ele>2759</ele>
        <time>2000-01-02T02:55:58.000Z</time>
      </trkpt>
      <trkpt lat="46.00117" lon="7.97927">
        <ele>2751.2</ele>
        <time>2000-01-02T02:56:08.000Z</time>
      </trkpt>
      <trkpt lat="46.00121" lon="7.97939">
        <ele>2749</ele>
        <time>2000-01-02T02:56:18.000Z</time>
      </trkpt>
      <trkpt lat="46.00126" lon="7.97927">
        <ele>2746.3</ele>
        <time>2000-01-02T02:56:28.000Z</time>
      </trkpt>
      <trkpt lat="46.0013" lon="7.97916">
        <ele>2744.4</ele>
        <time>2000-01-02T02:56:38.000Z</time>
      </trkpt>
      <trkpt lat="46.00147" lon="7.97897">
        <ele>2736</ele>
        <time>2000-01-02T02:56:48.000Z</time>
      </trkpt>
      <trkpt lat="46.00158" lon="7.97896">
        <ele>2728.2</ele>
        <time>2000-01-02T02:56:58.000Z</time>
      </trkpt>
      <trkpt lat="46.00153" lon="7.97907">
        <ele>2732</ele>
        <time>2000-01-02T02:57:08.000Z</time>
      </trkpt>
      <trkpt lat="46.00167" lon="7.97904">
        <ele>2722.6</ele>
        <time>2000-01-02T02:57:18.000Z</time>
      </trkpt>
      <trkpt lat="46.00171" lon="7.97893">
        <ele>2720</ele>
        <time>2000-01-02T02:57:28.000Z</time>
      </trkpt>
      <trkpt lat="46.00185" lon="7.97866">
        <ele>2713</ele>
        <time>2000-01-02T02:57:38.000Z</time>
      </trkpt>
      <trkpt lat="46.0019" lon="7.97837">
        <ele>2705</ele>
        <time>2000-01-02T02:57:48.000Z</time>
      </trkpt>
      <trkpt lat="46.002" lon="7.97834">
        <ele>2698.2</ele>
        <time>2000-01-02T02:57:58.000Z</time>
      </trkpt>
      <trkpt lat="46.00206" lon="7.97824">
        <ele>2699</ele>
        <time>2000-01-02T02:58:08.000Z</time>
      </trkpt>
      <trkpt lat="46.00208" lon="7.97808">
        <ele>2694.9</ele>
        <time>2000-01-02T02:58:18.000Z</time>
      </trkpt>
      <trkpt lat="46.00212" lon="7.97789">
        <ele>2693</ele>
        <time>2000-01-02T02:58:28.000Z</time>
      </trkpt>
      <trkpt lat="46.00217" lon="7.97776">
        <ele>2691.9</ele>
        <time>2000-01-02T02:58:38.000Z</time>
      </trkpt>
      <trkpt lat="46.00225" lon="7.97762">
        <ele>2689</ele>
        <time>2000-01-02T02:58:48.000Z</time>
      </trkpt>
      <trkpt lat="46.00235" lon="7.97751">
        <ele>2682.5</ele>
        <time>2000-01-02T02:58:58.000Z</time>
      </trkpt>
      <trkpt lat="46.00244" lon="7.9774">
        <ele>2687</ele>
        <time>2000-01-02T02:59:08.000Z</time>
      </trkpt>
      <trkpt lat="46.00247" lon="7.97721">
        <ele>2681.7</ele>
        <time>2000-01-02T02:59:18.000Z</time>
      </trkpt>
      <trkpt lat="46.00259" lon="7.97706">
        <ele>2686</ele>
        <time>2000-01-02T02:59:28.000Z</time>
      </trkpt>
      <trkpt lat="46.00274" lon="7.97683">
        <ele>2687</ele>
        <time>2000-01-02T02:59:38.000Z</time>
      </trkpt>
      <trkpt lat="46.0028" lon="7.97671">
        <ele>2669.5</ele>
        <time>2000-01-02T02:59:48.000Z</time>
      </trkpt>
      <trkpt lat="46.0029" lon="7.97674">
        <ele>2689</ele>
        <time>2000-01-02T02:59:58.000Z</time>
      </trkpt>
      <trkpt lat="46.00304" lon="7.97663">
        <ele>2654.3</ele>
        <time>2000-01-02T03:00:08.000Z</time>
      </trkpt>
      <trkpt lat="46.00309" lon="7.97648">
        <ele>2690</ele>
        <time>2000-01-02T03:00:18.000Z</time>
      </trkpt>
      <trkpt lat="46.00317" lon="7.9764">
        <ele>2647.3</ele>
        <time>2000-01-02T03:00:28.000Z</time>
      </trkpt>
      <trkpt lat="46.00326" lon="7.97629">
        <ele>2679</ele>
        <time>2000-01-02T03:00:38.000Z</time>
      </trkpt>
      <trkpt lat="46.00336" lon="7.97617">
        <ele>2637</ele>
        <time>2000-01-02T03:00:48.000Z</time>
      </trkpt>
      <trkpt lat="46.00352" lon="7.97594">
        <ele>2668</ele>
        <time>2000-01-02T03:00:58.000Z</time>
      </trkpt>
      <trkpt lat="46.00356" lon="7.9758">
        <ele>2629.6</ele>
        <time>2000-01-02T03:01:08.000Z</time>
      </trkpt>
      <trkpt lat="46.00369" lon="7.97584">
        <ele>2646</ele>
        <time>2000-01-02T03:01:18.000Z</time>
      </trkpt>
      <trkpt lat="46.00376" lon="7.97572">
        <ele>2617</ele>
        <time>2000-01-02T03:01:28.000Z</time>
      </trkpt>
      <trkpt lat="46.00383" lon="7.97561">
        <ele>2632</ele>
        <time>2000-01-02T03:01:38.000Z</time>
      </trkpt>
      <trkpt lat="46.00388" lon="7.97547">
        <ele>2612.6</ele>
        <time>2000-01-02T03:01:48.000Z</time>
      </trkpt>
      <trkpt lat="46.00393" lon="7.97531">
        <ele>2618</ele>
        <time>2000-01-02T03:01:58.000Z</time>
      </trkpt>
      <trkpt lat="46.00404" lon="7.97535">
        <ele>2599.7</ele>
        <time>2000-01-02T03:02:08.000Z</time>
      </trkpt>
      <trkpt lat="46.00411" lon="7.97517">
        <ele>2602</ele>
        <time>2000-01-02T03:02:18.000Z</time>
      </trkpt>
      <trkpt lat="46.00418" lon="7.97505">
        <ele>2598.2</ele>
        <time>2000-01-02T03:02:28.000Z</time>
      </trkpt>
      <trkpt lat="46.00424" lon="7.97492">
        <ele>2597</ele>
        <time>2000-01-02T03:02:38.000Z</time>
      </trkpt>
      <trkpt lat="46.00434" lon="7.97479">
        <ele>2593.6</ele>
        <time>2000-01-02T03:02:48.000Z</time>
      </trkpt>
      <trkpt lat="46.00444" lon="7.97478">
        <ele>2587</ele>
        <time>2000-01-02T03:02:58.000Z</time>
      </trkpt>
      <trkpt lat="46.00451" lon="7.97469">
        <ele>2581.7</ele>
        <time>2000-01-02T03:03:08.000Z</time>
      </trkpt>
      <trkpt lat="46.00455" lon="7.97451">
        <ele>2585</ele>
        <time>2000-01-02T03:03:18.000Z</time>
      </trkpt>
      <trkpt lat="46.00467" lon="7.97443">
        <ele>2575.2</ele>
        <time>2000-01-02T03:03:28.000Z</time>
      </trkpt>
      <trkpt lat="46.00477" lon="7.97444">
        <ele>2568</ele>
        <time>2000-01-02T03:03:38.000Z</time>
      </trkpt>
      <trkpt lat="46.00483" lon="7.97433">
        <ele>2563.5</ele>
        <time>2000-01-02T03:03:48.000Z</time>
      </trkpt>
      <trkpt lat="46.00491" lon="7.97423">
        <ele>2561</ele>
        <time>2000-01-02T03:03:58.000Z</time>
      </trkpt>
      <trkpt lat="46.00496" lon="7.97411">
        <ele>2561.7</ele>
        <time>2000-01-02T03:04:08.000Z</time>
      </trkpt>
      <trkpt lat="46.00503" lon="7.9742">
        <ele>2552.7</ele>
        <time>2000-01-02T03:04:18.000Z</time>
      </trkpt>
      <trkpt lat="46.00516" lon="7.97423">
        <ele>2552</ele>
        <time>2000-01-02T03:04:28.000Z</time>
      </trkpt>
      <trkpt lat="46.00526" lon="7.9742">
        <ele>2546.1</ele>
        <time>2000-01-02T03:04:38.000Z</time>
      </trkpt>
      <trkpt lat="46.0054" lon="7.97413">
        <ele>2546</ele>
        <time>2000-01-02T03:04:48.000Z</time>
      </trkpt>
      <trkpt lat="46.00548" lon="7.97402">
        <ele>2540.7</ele>
        <time>2000-01-02T03:04:58.000Z</time>
      </trkpt>
      <trkpt lat="46.00557" lon="7.97388">
        <ele>2542</ele>
        <time>2000-01-02T03:05:08.000Z</time>
      </trkpt>
      <trkpt lat="46.00568" lon="7.97377">
        <ele>2535.2</ele>
        <time>2000-01-02T03:05:18.000Z</time>
      </trkpt>
      <trkpt lat="46.00585" lon="7.97373">
        <ele>2529</ele>
        <time>2000-01-02T03:05:28.000Z</time>
      </trkpt>
      <trkpt lat="46.00595" lon="7.97366">
        <ele>2524.1</ele>
        <time>2000-01-02T03:05:38.000Z</time>
      </trkpt>
      <trkpt lat="46.00608" lon="7.97354">
        <ele>2525</ele>
        <time>2000-01-02T03:05:48.000Z</time>
      </trkpt>
      <trkpt lat="46.00619" lon="7.9735">
        <ele>2518.4</ele>
        <time>2000-01-02T03:05:58.000Z</time>
      </trkpt>
      <trkpt lat="46.00661" lon="7.97322">
        <ele>2508</ele>
        <time>2000-01-02T03:06:08.000Z</time>
      </trkpt>
      <trkpt lat="46.00673" lon="7.97316">
        <ele>2506.5</ele>
        <time>2000-01-02T03:06:18.000Z</time>
      </trkpt>
      <trkpt lat="46.00678" lon="7.97329">
        <ele>2505</ele>
        <time>2000-01-02T03:06:28.000Z</time>
      </trkpt>
      <trkpt lat="46.00687" lon="7.97341">
        <ele>2499.8</ele>
        <time>2000-01-02T03:06:38.000Z</time>
      </trkpt>
      <trkpt lat="46.00702" lon="7.9735">
        <ele>2495</ele>
        <time>2000-01-02T03:06:48.000Z</time>
      </trkpt>
      <trkpt lat="46.00709" lon="7.97359">
        <ele>2494.5</ele>
        <time>2000-01-02T03:06:58.000Z</time>
      </trkpt>
      <trkpt lat="46.00747" lon="7.97372">
        <ele>2489</ele>
        <time>2000-01-02T03:07:08.000Z</time>
      </trkpt>
      <trkpt lat="46.00766" lon="7.97383">
        <ele>2487</ele>
        <time>2000-01-02T03:07:18.000Z</time>
      </trkpt>
      <trkpt lat="46.0078" lon="7.97394">
        <ele>2485.2</ele>
        <time>2000-01-02T03:07:28.000Z</time>
      </trkpt>
      <trkpt lat="46.00793" lon="7.97392">
        <ele>2483</ele>
        <time>2000-01-02T03:07:38.000Z</time>
      </trkpt>
      <trkpt lat="46.00809" lon="7.97364">
        <ele>2483</ele>
        <time>2000-01-02T03:07:48.000Z</time>
      </trkpt>
      <trkpt lat="46.00824" lon="7.97353">
        <ele>2480.4</ele>
        <time>2000-01-02T03:07:58.000Z</time>
      </trkpt>
      <trkpt lat="46.0084" lon="7.97353">
        <ele>2478</ele>
        <time>2000-01-02T03:08:08.000Z</time>
      </trkpt>
      <trkpt lat="46.00852" lon="7.97349">
        <ele>2472.7</ele>
        <time>2000-01-02T03:08:18.000Z</time>
      </trkpt>
      <trkpt lat="46.00858" lon="7.97331">
        <ele>2473</ele>
        <time>2000-01-02T03:08:28.000Z</time>
      </trkpt>
      <trkpt lat="46.00867" lon="7.973">
        <ele>2468</ele>
        <time>2000-01-02T03:08:38.000Z</time>
      </trkpt>
      <trkpt lat="46.00868" lon="7.97272">
        <ele>2468</ele>
        <time>2000-01-02T03:08:48.000Z</time>
      </trkpt>
      <trkpt lat="46.00877" lon="7.97255">
        <ele>2463.6</ele>
        <time>2000-01-02T03:08:58.000Z</time>
      </trkpt>
      <trkpt lat="46.00891" lon="7.97238">
        <ele>2459</ele>
        <time>2000-01-02T03:09:08.000Z</time>
      </trkpt>
      <trkpt lat="46.00899" lon="7.97223">
        <ele>2456.3</ele>
        <time>2000-01-02T03:09:18.000Z</time>
      </trkpt>
      <trkpt lat="46.00905" lon="7.97204">
        <ele>2455</ele>
        <time>2000-01-02T03:09:28.000Z</time>
      </trkpt>
      <trkpt lat="46.00913" lon="7.97185">
        <ele>2451.4</ele>
        <time>2000-01-02T03:09:38.000Z</time>
      </trkpt>
      <trkpt lat="46.00923" lon="7.97144">
        <ele>2449</ele>
        <time>2000-01-02T03:09:48.000Z</time>
      </trkpt>
      <trkpt lat="46.00937" lon="7.97123">
        <ele>2445</ele>
        <time>2000-01-02T03:09:58.000Z</time>
      </trkpt>
      <trkpt lat="46.00941" lon="7.9711">
        <ele>2440.7</ele>
        <time>2000-01-02T03:10:08.000Z</time>
      </trkpt>
      <trkpt lat="46.00951" lon="7.97093">
        <ele>2439</ele>
        <time>2000-01-02T03:10:18.000Z</time>
      </trkpt>
      <trkpt lat="46.00967" lon="7.97077">
        <ele>2436</ele>
        <time>2000-01-02T03:10:28.000Z</time>
      </trkpt>
      <trkpt lat="46.00979" lon="7.97061">
        <ele>2428.6</ele>
        <time>2000-01-02T03:10:38.000Z</time>
      </trkpt>
      <trkpt lat="46.00986" lon="7.9705">
        <ele>2428</ele>
        <time>2000-01-02T03:10:48.000Z</time>
      </trkpt>
      <trkpt lat="46.00985" lon="7.97072">
        <ele>2425.4</ele>
        <time>2000-01-02T03:10:58.000Z</time>
      </trkpt>
      <trkpt lat="46.00991" lon="7.97089">
        <ele>2422</ele>
        <time>2000-01-02T03:11:08.000Z</time>
      </trkpt>
      <trkpt lat="46.01" lon="7.97079">
        <ele>2418.2</ele>
        <time>2000-01-02T03:11:18.000Z</time>
      </trkpt>
      <trkpt lat="46.01003" lon="7.97065">
        <ele>2419</ele>
        <time>2000-01-02T03:11:28.000Z</time>
      </trkpt>
      <trkpt lat="46.01015" lon="7.97036">
        <ele>2417</ele>
        <time>2000-01-02T03:11:38.000Z</time>
      </trkpt>
      <trkpt lat="46.01026" lon="7.97025">
        <ele>2406.1</ele>
        <time>2000-01-02T03:11:48.000Z</time>
      </trkpt>
      <trkpt lat="46.01023" lon="7.97002">
        <ele>2408</ele>
        <time>2000-01-02T03:11:58.000Z</time>
      </trkpt>
      <trkpt lat="46.01025" lon="7.96982">
        <ele>2401.7</ele>
        <time>2000-01-02T03:12:08.000Z</time>
      </trkpt>
      <trkpt lat="46.01025" lon="7.96964">
        <ele>2401</ele>
        <time>2000-01-02T03:12:18.000Z</time>
      </trkpt>
      <trkpt lat="46.01025" lon="7.96949">
        <ele>2396.8</ele>
        <time>2000-01-02T03:12:28.000Z</time>
      </trkpt>
      <trkpt lat="46.01024" lon="7.96926">
        <ele>2395</ele>
        <time>2000-01-02T03:12:38.000Z</time>
      </trkpt>
      <trkpt lat="46.01025" lon="7.96907">
        <ele>2391.9</ele>
        <time>2000-01-02T03:12:48.000Z</time>
      </trkpt>
      <trkpt lat="46.01033" lon="7.96887">
        <ele>2386</ele>
        <time>2000-01-02T03:12:58.000Z</time>
      </trkpt>
      <trkpt lat="46.01016" lon="7.96856">
        <ele>2386</ele>
        <time>2000-01-02T03:13:08.000Z</time>
      </trkpt>
      <trkpt lat="46.01002" lon="7.9682">
        <ele>2384</ele>
        <time>2000-01-02T03:13:18.000Z</time>
      </trkpt>
      <trkpt lat="46.0101" lon="7.96792">
        <ele>2380</ele>
        <time>2000-01-02T03:13:28.000Z</time>
      </trkpt>
      <trkpt lat="46.01019" lon="7.96779">
        <ele>2380.1</ele>
        <time>2000-01-02T03:13:38.000Z</time>
      </trkpt>
      <trkpt lat="46.01024" lon="7.96762">
        <ele>2378</ele>
        <time>2000-01-02T03:13:48.000Z</time>
      </trkpt>
      <trkpt lat="46.01035" lon="7.96742">
        <ele>2374.7</ele>
        <time>2000-01-02T03:13:58.000Z</time>
      </trkpt>
      <trkpt lat="46.01037" lon="7.96724">
        <ele>2372</ele>
        <time>2000-01-02T03:14:08.000Z</time>
      </trkpt>
      <trkpt lat="46.01048" lon="7.96722">
        <ele>2369.2</ele>
        <time>2000-01-02T03:14:18.000Z</time>
      </trkpt>
      <trkpt lat="46.01057" lon="7.96732">
        <ele>2368</ele>
        <time>2000-01-02T03:14:28.000Z</time>
      </trkpt>
      <trkpt lat="46.01066" lon="7.96718">
        <ele>2364.1</ele>
        <time>2000-01-02T03:14:38.000Z</time>
      </trkpt>
      <trkpt lat="46.01079" lon="7.96727">
        <ele>2361</ele>
        <time>2000-01-02T03:14:48.000Z</time>
      </trkpt>
      <trkpt lat="46.01089" lon="7.96735">
        <ele>2357.5</ele>
        <time>2000-01-02T03:14:58.000Z</time>
      </trkpt>
      <trkpt lat="46.0109" lon="7.96749">
        <ele>2355</ele>
        <time>2000-01-02T03:15:08.000Z</time>
      </trkpt>
      <trkpt lat="46.01103" lon="7.96783">
        <ele>2351</ele>
        <time>2000-01-02T03:15:18.000Z</time>
      </trkpt>
      <trkpt lat="46.01112" lon="7.96798">
        <ele>2348.5</ele>
        <time>2000-01-02T03:15:28.000Z</time>
      </trkpt>
      <trkpt lat="46.01117" lon="7.96816">
        <ele>2349</ele>
        <time>2000-01-02T03:15:38.000Z</time>
      </trkpt>
      <trkpt lat="46.0113" lon="7.96817">
        <ele>2344.2</ele>
        <time>2000-01-02T03:15:48.000Z</time>
      </trkpt>
      <trkpt lat="46.0115" lon="7.96797">
        <ele>2338</ele>
        <time>2000-01-02T03:15:58.000Z</time>
      </trkpt>
      <trkpt lat="46.01154" lon="7.96779">
        <ele>2334.6</ele>
        <time>2000-01-02T03:16:08.000Z</time>
      </trkpt>
      <trkpt lat="46.01155" lon="7.96755">
        <ele>2333</ele>
        <time>2000-01-02T03:16:18.000Z</time>
      </trkpt>
      <trkpt lat="46.01167" lon="7.9675">
        <ele>2329.9</ele>
        <time>2000-01-02T03:16:28.000Z</time>
      </trkpt>
      <trkpt lat="46.01177" lon="7.96754">
        <ele>2327</ele>
        <time>2000-01-02T03:16:38.000Z</time>
      </trkpt>
      <trkpt lat="46.01173" lon="7.96779">
        <ele>2329.1</ele>
        <time>2000-01-02T03:16:48.000Z</time>
      </trkpt>
      <trkpt lat="46.01174" lon="7.96799">
        <ele>2327</ele>
        <time>2000-01-02T03:16:58.000Z</time>
      </trkpt>
      <trkpt lat="46.01185" lon="7.96809">
        <ele>2328.7</ele>
        <time>2000-01-02T03:17:08.000Z</time>
      </trkpt>
      <trkpt lat="46.01193" lon="7.96798">
        <ele>2325</ele>
        <time>2000-01-02T03:17:18.000Z</time>
      </trkpt>
      <trkpt lat="46.01204" lon="7.96786">
        <ele>2325.6</ele>
        <time>2000-01-02T03:17:28.000Z</time>
      </trkpt>
      <trkpt lat="46.0121" lon="7.96772">
        <ele>2323</ele>
        <time>2000-01-02T03:17:38.000Z</time>
      </trkpt>
      <trkpt lat="46.01215" lon="7.96759">
        <ele>2321.8</ele>
        <time>2000-01-02T03:17:48.000Z</time>
      </trkpt>
      <trkpt lat="46.01224" lon="7.96736">
        <ele>2317</ele>
        <time>2000-01-02T03:17:58.000Z</time>
      </trkpt>
      <trkpt lat="46.01239" lon="7.9673">
        <ele>2317.6</ele>
        <time>2000-01-02T03:18:08.000Z</time>
      </trkpt>
      <trkpt lat="46.01263" lon="7.96726">
        <ele>2313</ele>
        <time>2000-01-02T03:18:18.000Z</time>
      </trkpt>
      <trkpt lat="46.01287" lon="7.96713">
        <ele>2311</ele>
        <time>2000-01-02T03:18:28.000Z</time>
      </trkpt>
      <trkpt lat="46.01299" lon="7.96714">
        <ele>2312.1</ele>
        <time>2000-01-02T03:18:38.000Z</time>
      </trkpt>
      <trkpt lat="46.01321" lon="7.96702">
        <ele>2308</ele>
        <time>2000-01-02T03:18:48.000Z</time>
      </trkpt>
      <trkpt lat="46.01331" lon="7.96696">
        <ele>2307.5</ele>
        <time>2000-01-02T03:18:58.000Z</time>
      </trkpt>
      <trkpt lat="46.01351" lon="7.96674">
        <ele>2303</ele>
        <time>2000-01-02T03:19:08.000Z</time>
      </trkpt>
      <trkpt lat="46.01367" lon="7.96675">
        <ele>2306.1</ele>
        <time>2000-01-02T03:19:18.000Z</time>
      </trkpt>
      <trkpt lat="46.01376" lon="7.96669">
        <ele>2302</ele>
        <time>2000-01-02T03:19:28.000Z</time>
      </trkpt>
      <trkpt lat="46.01392" lon="7.96656">
        <ele>2304.9</ele>
        <time>2000-01-02T03:19:38.000Z</time>
      </trkpt>
      <trkpt lat="46.01414" lon="7.96634">
        <ele>2301</ele>
        <time>2000-01-02T03:19:48.000Z</time>
      </trkpt>
      <trkpt lat="46.01437" lon="7.96621">
        <ele>2300</ele>
        <time>2000-01-02T03:19:58.000Z</time>
      </trkpt>
      <trkpt lat="46.01449" lon="7.96611">
        <ele>2301.2</ele>
        <time>2000-01-02T03:20:08.000Z</time>
      </trkpt>
      <trkpt lat="46.01466" lon="7.96607">
        <ele>2298</ele>
        <time>2000-01-02T03:20:18.000Z</time>
      </trkpt>
      <trkpt lat="46.01486" lon="7.96596">
        <ele>2297</ele>
        <time>2000-01-02T03:20:28.000Z</time>
      </trkpt>
      <trkpt lat="46.015" lon="7.96598">
        <ele>2298.6</ele>
        <time>2000-01-02T03:20:38.000Z</time>
      </trkpt>
      <trkpt lat="46.01509" lon="7.96597">
        <ele>2296</ele>
        <time>2000-01-02T03:20:48.000Z</time>
      </trkpt>
      <trkpt lat="46.01518" lon="7.96595">
        <ele>2296.5</ele>
        <time>2000-01-02T03:20:58.000Z</time>
      </trkpt>
      <trkpt lat="46.01524" lon="7.96605">
        <ele>2296</ele>
        <time>2000-01-02T03:21:08.000Z</time>
      </trkpt>
      <trkpt lat="46.01535" lon="7.96612">
        <ele>2295.1</ele>
        <time>2000-01-02T03:21:18.000Z</time>
      </trkpt>
      <trkpt lat="46.01564" lon="7.96611">
        <ele>2293</ele>
        <time>2000-01-02T03:21:28.000Z</time>
      </trkpt>
      <trkpt lat="46.01581" lon="7.96609">
        <ele>2295.2</ele>
        <time>2000-01-02T03:21:38.000Z</time>
      </trkpt>
      <trkpt lat="46.016" lon="7.96607">
        <ele>2290</ele>
        <time>2000-01-02T03:21:48.000Z</time>
      </trkpt>
      <trkpt lat="46.01612" lon="7.96608">
        <ele>2291.6</ele>
        <time>2000-01-02T03:21:58.000Z</time>
      </trkpt>
      <trkpt lat="46.0162" lon="7.96616">
        <ele>2290</ele>
        <time>2000-01-02T03:22:08.000Z</time>
      </trkpt>
      <trkpt lat="46.01632" lon="7.96616">
        <ele>2292</ele>
        <time>2000-01-02T03:22:18.000Z</time>
      </trkpt>
      <trkpt lat="46.01642" lon="7.96608">
        <ele>2285</ele>
        <time>2000-01-02T03:22:28.000Z</time>
      </trkpt>
      <trkpt lat="46.01661" lon="7.96604">
        <ele>2284</ele>
        <time>2000-01-02T03:22:38.000Z</time>
      </trkpt>
      <trkpt lat="46.0167" lon="7.96596">
        <ele>2284.4</ele>
        <time>2000-01-02T03:22:48.000Z</time>
      </trkpt>
      <trkpt lat="46.01679" lon="7.96591">
        <ele>2281</ele>
        <time>2000-01-02T03:22:58.000Z</time>
      </trkpt>
      <trkpt lat="46.0171" lon="7.96585">
        <ele>2275</ele>
        <time>2000-01-02T03:23:08.000Z</time>
      </trkpt>
      <trkpt lat="46.01723" lon="7.96584">
        <ele>2275.1</ele>
        <time>2000-01-02T03:23:18.000Z</time>
      </trkpt>
      <trkpt lat="46.01734" lon="7.96583">
        <ele>2273</ele>
        <time>2000-01-02T03:23:28.000Z</time>
      </trkpt>
      <trkpt lat="46.0175" lon="7.96578">
        <ele>2271.6</ele>
        <time>2000-01-02T03:23:38.000Z</time>
      </trkpt>
      <trkpt lat="46.01767" lon="7.96587">
        <ele>2269</ele>
        <time>2000-01-02T03:23:48.000Z</time>
      </trkpt>
      <trkpt lat="46.01782" lon="7.96574">
        <ele>2268.4</ele>
        <time>2000-01-02T03:23:58.000Z</time>
      </trkpt>
      <trkpt lat="46.01794" lon="7.9656">
        <ele>2264</ele>
        <time>2000-01-02T03:24:08.000Z</time>
      </trkpt>
      <trkpt lat="46.01805" lon="7.9655">
        <ele>2262.9</ele>
        <time>2000-01-02T03:24:18.000Z</time>
      </trkpt>
      <trkpt lat="46.01818" lon="7.96554">
        <ele>2260</ele>
        <time>2000-01-02T03:24:28.000Z</time>
      </trkpt>
      <trkpt lat="46.01829" lon="7.96553">
        <ele>2257.7</ele>
        <time>2000-01-02T03:24:38.000Z</time>
      </trkpt>
      <trkpt lat="46.0184" lon="7.96548">
        <ele>2254</ele>
        <time>2000-01-02T03:24:48.000Z</time>
      </trkpt>
      <trkpt lat="46.01861" lon="7.96559">
        <ele>2252</ele>
        <time>2000-01-02T03:24:58.000Z</time>
      </trkpt>
      <trkpt lat="46.01871" lon="7.96561">
        <ele>2251.5</ele>
        <time>2000-01-02T03:25:08.000Z</time>
      </trkpt>
      <trkpt lat="46.01882" lon="7.96556">
        <ele>2248</ele>
        <time>2000-01-02T03:25:18.000Z</time>
      </trkpt>
      <trkpt lat="46.01892" lon="7.9656">
        <ele>2246.2</ele>
        <time>2000-01-02T03:25:28.000Z</time>
      </trkpt>
      <trkpt lat="46.01901" lon="7.96545">
        <ele>2241</ele>
        <time>2000-01-02T03:25:38.000Z</time>
      </trkpt>
      <trkpt lat="46.01914" lon="7.96548">
        <ele>2240.9</ele>
        <time>2000-01-02T03:25:48.000Z</time>
      </trkpt>
      <trkpt lat="46.01911" lon="7.96534">
        <ele>2239</ele>
        <time>2000-01-02T03:25:58.000Z</time>
      </trkpt>
      <trkpt lat="46.01906" lon="7.96521">
        <ele>2239.4</ele>
        <time>2000-01-02T03:26:08.000Z</time>
      </trkpt>
      <trkpt lat="46.01912" lon="7.96503">
        <ele>2235</ele>
        <time>2000-01-02T03:26:18.000Z</time>
      </trkpt>
      <trkpt lat="46.01923" lon="7.965">
        <ele>2234.8</ele>
        <time>2000-01-02T03:26:28.000Z</time>
      </trkpt>
      <trkpt lat="46.01939" lon="7.96498">
        <ele>2231</ele>
        <time>2000-01-02T03:26:38.000Z</time>
      </trkpt>
      <trkpt lat="46.01937" lon="7.96485">
        <ele>2231.7</ele>
        <time>2000-01-02T03:26:48.000Z</time>
      </trkpt>
      <trkpt lat="46.01931" lon="7.96466">
        <ele>2228</ele>
        <time>2000-01-02T03:26:58.000Z</time>
      </trkpt>
      <trkpt lat="46.01946" lon="7.96449">
        <ele>2224</ele>
        <time>2000-01-02T03:27:08.000Z</time>
      </trkpt>
      <trkpt lat="46.01962" lon="7.96449">
        <ele>2223.8</ele>
        <time>2000-01-02T03:27:18.000Z</time>
      </trkpt>
      <trkpt lat="46.01974" lon="7.96457">
        <ele>2223</ele>
        <time>2000-01-02T03:27:28.000Z</time>
      </trkpt>
      <trkpt lat="46.01985" lon="7.96468">
        <ele>2222.4</ele>
        <time>2000-01-02T03:27:38.000Z</time>
      </trkpt>
      <trkpt lat="46.01982" lon="7.9649">
        <ele>2223</ele>
        <time>2000-01-02T03:27:48.000Z</time>
      </trkpt>
      <trkpt lat="46.01986" lon="7.96512">
        <ele>2223.9</ele>
        <time>2000-01-02T03:27:58.000Z</time>
      </trkpt>
      <trkpt lat="46.01991" lon="7.96527">
        <ele>2224</ele>
        <time>2000-01-02T03:28:08.000Z</time>
      </trkpt>
      <trkpt lat="46.02" lon="7.9654">
        <ele>2224.8</ele>
        <time>2000-01-02T03:28:18.000Z</time>
      </trkpt>
      <trkpt lat="46.02016" lon="7.96554">
        <ele>2224</ele>
        <time>2000-01-02T03:28:28.000Z</time>
      </trkpt>
      <trkpt lat="46.02033" lon="7.96566">
        <ele>2224</ele>
        <time>2000-01-02T03:28:38.000Z</time>
      </trkpt>
      <trkpt lat="46.02049" lon="7.9658">
        <ele>2224</ele>
        <time>2000-01-02T03:28:48.000Z</time>
      </trkpt>
      <trkpt lat="46.02065" lon="7.96595">
        <ele>2223</ele>
        <time>2000-01-02T03:28:58.000Z</time>
      </trkpt>
      <trkpt lat="46.02078" lon="7.96613">
        <ele>2224.9</ele>
        <time>2000-01-02T03:29:08.000Z</time>
      </trkpt>
      <trkpt lat="46.0212" lon="7.96649">
        <ele>2220</ele>
        <time>2000-01-02T03:29:18.000Z</time>
      </trkpt>
      <trkpt lat="46.02132" lon="7.96659">
        <ele>2225</ele>
        <time>2000-01-02T03:29:28.000Z</time>
      </trkpt>
      <trkpt lat="46.02146" lon="7.96669">
        <ele>2219</ele>
        <time>2000-01-02T03:29:38.000Z</time>
      </trkpt>
      <trkpt lat="46.02164" lon="7.96678">
        <ele>2225</ele>
        <time>2000-01-02T03:29:48.000Z</time>
      </trkpt>
      <trkpt lat="46.02176" lon="7.96681">
        <ele>2219</ele>
        <time>2000-01-02T03:29:58.000Z</time>
      </trkpt>
      <trkpt lat="46.02193" lon="7.96683">
        <ele>2223.6</ele>
        <time>2000-01-02T03:30:08.000Z</time>
      </trkpt>
      <trkpt lat="46.02213" lon="7.96682">
        <ele>2219</ele>
        <time>2000-01-02T03:30:18.000Z</time>
      </trkpt>
      <trkpt lat="46.02249" lon="7.96675">
        <ele>2220</ele>
        <time>2000-01-02T03:30:28.000Z</time>
      </trkpt>
      <trkpt lat="46.02263" lon="7.96681">
        <ele>2222.8</ele>
        <time>2000-01-02T03:30:38.000Z</time>
      </trkpt>
      <trkpt lat="46.02281" lon="7.96692">
        <ele>2220</ele>
        <time>2000-01-02T03:30:48.000Z</time>
      </trkpt>
      <trkpt lat="46.02306" lon="7.96699">
        <ele>2221</ele>
        <time>2000-01-02T03:30:58.000Z</time>
      </trkpt>
      <trkpt lat="46.02337" lon="7.967">
        <ele>2221</ele>
        <time>2000-01-02T03:31:08.000Z</time>
      </trkpt>
      <trkpt lat="46.02357" lon="7.96696">
        <ele>2219</ele>
        <time>2000-01-02T03:31:18.000Z</time>
      </trkpt>
      <trkpt lat="46.02375" lon="7.96695">
        <ele>2223.2</ele>
        <time>2000-01-02T03:31:28.000Z</time>
      </trkpt>
      <trkpt lat="46.02393" lon="7.96704">
        <ele>2218</ele>
        <time>2000-01-02T03:31:38.000Z</time>
      </trkpt>
      <trkpt lat="46.02413" lon="7.96712">
        <ele>2218</ele>
        <time>2000-01-02T03:31:48.000Z</time>
      </trkpt>
      <trkpt lat="46.0243" lon="7.96721">
        <ele>2225.6</ele>
        <time>2000-01-02T03:31:58.000Z</time>
      </trkpt>
      <trkpt lat="46.0244" lon="7.9673">
        <ele>2218</ele>
        <time>2000-01-02T03:32:08.000Z</time>
      </trkpt>
      <trkpt lat="46.02458" lon="7.96738">
        <ele>2219</ele>
        <time>2000-01-02T03:32:18.000Z</time>
      </trkpt>
      <trkpt lat="46.02478" lon="7.96743">
        <ele>2219</ele>
        <time>2000-01-02T03:32:28.000Z</time>
      </trkpt>
      <trkpt lat="46.02497" lon="7.96739">
        <ele>2219</ele>
        <time>2000-01-02T03:32:38.000Z</time>
      </trkpt>
      <trkpt lat="46.02516" lon="7.96746">
        <ele>2220</ele>
        <time>2000-01-02T03:32:48.000Z</time>
      </trkpt>
      <trkpt lat="46.02535" lon="7.96744">
        <ele>2222</ele>
        <time>2000-01-02T03:32:58.000Z</time>
      </trkpt>
      <trkpt lat="46.02548" lon="7.96738">
        <ele>2226.4</ele>
        <time>2000-01-02T03:33:08.000Z</time>
      </trkpt>
      <trkpt lat="46.02566" lon="7.96724">
        <ele>2222</ele>
        <time>2000-01-02T03:33:18.000Z</time>
      </trkpt>
      <trkpt lat="46.02583" lon="7.96718">
        <ele>2226.4</ele>
        <time>2000-01-02T03:33:28.000Z</time>
      </trkpt>
      <trkpt lat="46.02653" lon="7.96725">
        <ele>2223</ele>
        <time>2000-01-02T03:33:38.000Z</time>
      </trkpt>
      <trkpt lat="46.02664" lon="7.96729">
        <ele>2229.5</ele>
        <time>2000-01-02T03:33:48.000Z</time>
      </trkpt>
      <trkpt lat="46.02684" lon="7.96733">
        <ele>2223</ele>
        <time>2000-01-02T03:33:58.000Z</time>
      </trkpt>
      <trkpt lat="46.02703" lon="7.9673">
        <ele>2223</ele>
        <time>2000-01-02T03:34:08.000Z</time>
      </trkpt>
      <trkpt lat="46.0272" lon="7.9672">
        <ele>2227.6</ele>
        <time>2000-01-02T03:34:18.000Z</time>
      </trkpt>
      <trkpt lat="46.02737" lon="7.96712">
        <ele>2223</ele>
        <time>2000-01-02T03:34:28.000Z</time>
      </trkpt>
      <trkpt lat="46.02759" lon="7.96696">
        <ele>2223</ele>
        <time>2000-01-02T03:34:38.000Z</time>
      </trkpt>
      <trkpt lat="46.02769" lon="7.96692">
        <ele>2224.2</ele>
        <time>2000-01-02T03:34:48.000Z</time>
      </trkpt>
      <trkpt lat="46.02811" lon="7.96683">
        <ele>2223</ele>
        <time>2000-01-02T03:34:58.000Z</time>
      </trkpt>
      <trkpt lat="46.02827" lon="7.96678">
        <ele>2227.2</ele>
        <time>2000-01-02T03:35:08.000Z</time>
      </trkpt>
      <trkpt lat="46.02838" lon="7.96677">
        <ele>2223</ele>
        <time>2000-01-02T03:35:18.000Z</time>
      </trkpt>
      <trkpt lat="46.02856" lon="7.9668">
        <ele>2229.2</ele>
        <time>2000-01-02T03:35:28.000Z</time>
      </trkpt>
      <trkpt lat="46.0287" lon="7.96675">
        <ele>2223</ele>
        <time>2000-01-02T03:35:38.000Z</time>
      </trkpt>
      <trkpt lat="46.0288" lon="7.96666">
        <ele>2230.2</ele>
        <time>2000-01-02T03:35:48.000Z</time>
      </trkpt>
      <trkpt lat="46.02895" lon="7.9665">
        <ele>2223</ele>
        <time>2000-01-02T03:35:58.000Z</time>
      </trkpt>
      <trkpt lat="46.02908" lon="7.96644">
        <ele>2229.4</ele>
        <time>2000-01-02T03:36:08.000Z</time>
      </trkpt>
      <trkpt lat="46.02924" lon="7.96633">
        <ele>2224</ele>
        <time>2000-01-02T03:36:18.000Z</time>
      </trkpt>
      <trkpt lat="46.02949" lon="7.96624">
        <ele>2223</ele>
        <time>2000-01-02T03:36:28.000Z</time>
      </trkpt>
      <trkpt lat="46.02978" lon="7.96613">
        <ele>2223</ele>
        <time>2000-01-02T03:36:38.000Z</time>
      </trkpt>
      <trkpt lat="46.02989" lon="7.96619">
        <ele>2232.2</ele>
        <time>2000-01-02T03:36:48.000Z</time>
      </trkpt>
      <trkpt lat="46.03002" lon="7.9662">
        <ele>2230</ele>
        <time>2000-01-02T03:36:58.000Z</time>
      </trkpt>
      <trkpt lat="46.03022" lon="7.9661">
        <ele>2229</ele>
        <time>2000-01-02T03:37:08.000Z</time>
      </trkpt>
      <trkpt lat="46.0304" lon="7.96599">
        <ele>2229</ele>
        <time>2000-01-02T03:37:18.000Z</time>
      </trkpt>
      <trkpt lat="46.03052" lon="7.96595">
        <ele>2234</ele>
        <time>2000-01-02T03:37:28.000Z</time>
      </trkpt>
      <trkpt lat="46.031" lon="7.96576">
        <ele>2227</ele>
        <time>2000-01-02T03:37:38.000Z</time>
      </trkpt>
      <trkpt lat="46.03113" lon="7.96569">
        <ele>2234.8</ele>
        <time>2000-01-02T03:37:48.000Z</time>
      </trkpt>
      <trkpt lat="46.03156" lon="7.9655">
        <ele>2228</ele>
        <time>2000-01-02T03:37:58.000Z</time>
      </trkpt>
      <trkpt lat="46.03182" lon="7.96545">
        <ele>2230</ele>
        <time>2000-01-02T03:38:08.000Z</time>
      </trkpt>
      <trkpt lat="46.03196" lon="7.96546">
        <ele>2237.2</ele>
        <time>2000-01-02T03:38:18.000Z</time>
      </trkpt>
      <trkpt lat="46.03213" lon="7.96535">
        <ele>2232</ele>
        <time>2000-01-02T03:38:28.000Z</time>
      </trkpt>
      <trkpt lat="46.03223" lon="7.96531">
        <ele>2235.8</ele>
        <time>2000-01-02T03:38:38.000Z</time>
      </trkpt>
      <trkpt lat="46.03243" lon="7.96529">
        <ele>2232</ele>
        <time>2000-01-02T03:38:48.000Z</time>
      </trkpt>
      <trkpt lat="46.0326" lon="7.96525">
        <ele>2239.7</ele>
        <time>2000-01-02T03:38:58.000Z</time>
      </trkpt>
      <trkpt lat="46.03296" lon="7.9652">
        <ele>2233</ele>
        <time>2000-01-02T03:39:08.000Z</time>
      </trkpt>
      <trkpt lat="46.03312" lon="7.96516">
        <ele>2242.1</ele>
        <time>2000-01-02T03:39:18.000Z</time>
      </trkpt>
      <trkpt lat="46.03331" lon="7.9651">
        <ele>2234</ele>
        <time>2000-01-02T03:39:28.000Z</time>
      </trkpt>
      <trkpt lat="46.03351" lon="7.96507">
        <ele>2234</ele>
        <time>2000-01-02T03:39:38.000Z</time>
      </trkpt>
      <trkpt lat="46.0337" lon="7.965">
        <ele>2233</ele>
        <time>2000-01-02T03:39:48.000Z</time>
      </trkpt>
      <trkpt lat="46.03397" lon="7.96493">
        <ele>2233</ele>
        <time>2000-01-02T03:39:58.000Z</time>
      </trkpt>
      <trkpt lat="46.03416" lon="7.9649">
        <ele>2234</ele>
        <time>2000-01-02T03:40:08.000Z</time>
      </trkpt>
      <trkpt lat="46.03437" lon="7.96492">
        <ele>2234</ele>
        <time>2000-01-02T03:40:18.000Z</time>
      </trkpt>
      <trkpt lat="46.03465" lon="7.96492">
        <ele>2233</ele>
        <time>2000-01-02T03:40:28.000Z</time>
      </trkpt>
      <trkpt lat="46.03486" lon="7.96495">
        <ele>2232</ele>
        <time>2000-01-02T03:40:38.000Z</time>
      </trkpt>
      <trkpt lat="46.03504" lon="7.96491">
        <ele>2236.1</ele>
        <time>2000-01-02T03:40:48.000Z</time>
      </trkpt>
      <trkpt lat="46.03513" lon="7.96489">
        <ele>2227</ele>
        <time>2000-01-02T03:40:58.000Z</time>
      </trkpt>
      <trkpt lat="46.03533" lon="7.96485">
        <ele>2227</ele>
        <time>2000-01-02T03:41:08.000Z</time>
      </trkpt>
      <trkpt lat="46.03557" lon="7.96481">
        <ele>2226</ele>
        <time>2000-01-02T03:41:18.000Z</time>
      </trkpt>
      <trkpt lat="46.03581" lon="7.96483">
        <ele>2223</ele>
        <time>2000-01-02T03:41:28.000Z</time>
      </trkpt>
      <trkpt lat="46.03605" lon="7.96486">
        <ele>2223</ele>
        <time>2000-01-02T03:41:38.000Z</time>
      </trkpt>
      <trkpt lat="46.03624" lon="7.96493">
        <ele>2224</ele>
        <time>2000-01-02T03:41:48.000Z</time>
      </trkpt>
      <trkpt lat="46.03642" lon="7.96499">
        <ele>2230.1</ele>
        <time>2000-01-02T03:41:58.000Z</time>
      </trkpt>
      <trkpt lat="46.03657" lon="7.96509">
        <ele>2225</ele>
        <time>2000-01-02T03:42:08.000Z</time>
      </trkpt>
      <trkpt lat="46.03667" lon="7.96512">
        <ele>2231.8</ele>
        <time>2000-01-02T03:42:18.000Z</time>
      </trkpt>
      <trkpt lat="46.03702" lon="7.96508">
        <ele>2227</ele>
        <time>2000-01-02T03:42:28.000Z</time>
      </trkpt>
      <trkpt lat="46.03712" lon="7.96504">
        <ele>2230.9</ele>
        <time>2000-01-02T03:42:38.000Z</time>
      </trkpt>
      <trkpt lat="46.03725" lon="7.96505">
        <ele>2228</ele>
        <time>2000-01-02T03:42:48.000Z</time>
      </trkpt>
      <trkpt lat="46.03746" lon="7.96504">
        <ele>2228</ele>
        <time>2000-01-02T03:42:58.000Z</time>
      </trkpt>
      <trkpt lat="46.03767" lon="7.96501">
        <ele>2225</ele>
        <time>2000-01-02T03:43:08.000Z</time>
      </trkpt>
      <trkpt lat="46.0379" lon="7.96488">
        <ele>2223</ele>
        <time>2000-01-02T03:43:18.000Z</time>
      </trkpt>
      <trkpt lat="46.03802" lon="7.96485">
        <ele>2226</ele>
        <time>2000-01-02T03:43:28.000Z</time>
      </trkpt>
      <trkpt lat="46.03816" lon="7.96485">
        <ele>2223</ele>
        <time>2000-01-02T03:43:38.000Z</time>
      </trkpt>
      <trkpt lat="46.0383" lon="7.96482">
        <ele>2225.1</ele>
        <time>2000-01-02T03:43:48.000Z</time>
      </trkpt>
      <trkpt lat="46.03849" lon="7.9648">
        <ele>2221</ele>
        <time>2000-01-02T03:43:58.000Z</time>
      </trkpt>
      <trkpt lat="46.03874" lon="7.96504">
        <ele>2221</ele>
        <time>2000-01-02T03:44:08.000Z</time>
      </trkpt>
      <trkpt lat="46.03882" lon="7.96509">
        <ele>2222.7</ele>
        <time>2000-01-02T03:44:18.000Z</time>
      </trkpt>
      <trkpt lat="46.0389" lon="7.96525">
        <ele>2219</ele>
        <time>2000-01-02T03:44:28.000Z</time>
      </trkpt>
      <trkpt lat="46.03903" lon="7.96525">
        <ele>2230.1</ele>
        <time>2000-01-02T03:44:38.000Z</time>
      </trkpt>
      <trkpt lat="46.0392" lon="7.96512">
        <ele>2217</ele>
        <time>2000-01-02T03:44:48.000Z</time>
      </trkpt>
      <trkpt lat="46.0394" lon="7.96506">
        <ele>2215</ele>
        <time>2000-01-02T03:44:58.000Z</time>
      </trkpt>
      <trkpt lat="46.0396" lon="7.96498">
        <ele>2214</ele>
        <time>2000-01-02T03:45:08.000Z</time>
      </trkpt>
      <trkpt lat="46.03977" lon="7.96495">
        <ele>2218</ele>
        <time>2000-01-02T03:45:18.000Z</time>
      </trkpt>
      <trkpt lat="46.03992" lon="7.96491">
        <ele>2213</ele>
        <time>2000-01-02T03:45:28.000Z</time>
      </trkpt>
      <trkpt lat="46.04004" lon="7.9649">
        <ele>2214.7</ele>
        <time>2000-01-02T03:45:38.000Z</time>
      </trkpt>
      <trkpt lat="46.04046" lon="7.96466">
        <ele>2208</ele>
        <time>2000-01-02T03:45:48.000Z</time>
      </trkpt>
      <trkpt lat="46.0407" lon="7.96464">
        <ele>2204</ele>
        <time>2000-01-02T03:45:58.000Z</time>
      </trkpt>
      <trkpt lat="46.04085" lon="7.96459">
        <ele>2205.4</ele>
        <time>2000-01-02T03:46:08.000Z</time>
      </trkpt>
      <trkpt lat="46.04114" lon="7.96445">
        <ele>2197</ele>
        <time>2000-01-02T03:46:18.000Z</time>
      </trkpt>
      <trkpt lat="46.04134" lon="7.96442">
        <ele>2197</ele>
        <time>2000-01-02T03:46:28.000Z</time>
      </trkpt>
      <trkpt lat="46.04174" lon="7.96447">
        <ele>2199</ele>
        <time>2000-01-02T03:46:38.000Z</time>
      </trkpt>
      <trkpt lat="46.04184" lon="7.96454">
        <ele>2201.1</ele>
        <time>2000-01-02T03:46:48.000Z</time>
      </trkpt>
      <trkpt lat="46.04199" lon="7.96463">
        <ele>2201</ele>
        <time>2000-01-02T03:46:58.000Z</time>
      </trkpt>
      <trkpt lat="46.04218" lon="7.96472">
        <ele>2202</ele>
        <time>2000-01-02T03:47:08.000Z</time>
      </trkpt>
      <trkpt lat="46.04238" lon="7.96472">
        <ele>2200</ele>
        <time>2000-01-02T03:47:18.000Z</time>
      </trkpt>
      <trkpt lat="46.04249" lon="7.96469">
        <ele>2207.3</ele>
        <time>2000-01-02T03:47:28.000Z</time>
      </trkpt>
      <trkpt lat="46.04258" lon="7.96469">
        <ele>2200</ele>
        <time>2000-01-02T03:47:38.000Z</time>
      </trkpt>
      <trkpt lat="46.04274" lon="7.96459">
        <ele>2204.9</ele>
        <time>2000-01-02T03:47:48.000Z</time>
      </trkpt>
      <trkpt lat="46.04292" lon="7.96451">
        <ele>2200</ele>
        <time>2000-01-02T03:47:58.000Z</time>
      </trkpt>
      <trkpt lat="46.04311" lon="7.96454">
        <ele>2200</ele>
        <time>2000-01-02T03:48:08.000Z</time>
      </trkpt>
      <trkpt lat="46.04347" lon="7.96466">
        <ele>2200</ele>
        <time>2000-01-02T03:48:18.000Z</time>
      </trkpt>
      <trkpt lat="46.0436" lon="7.96468">
        <ele>2204.4</ele>
        <time>2000-01-02T03:48:28.000Z</time>
      </trkpt>
      <trkpt lat="46.04393" lon="7.96482">
        <ele>2201</ele>
        <time>2000-01-02T03:48:38.000Z</time>
      </trkpt>
      <trkpt lat="46.04413" lon="7.96487">
        <ele>2201</ele>
        <time>2000-01-02T03:48:48.000Z</time>
      </trkpt>
      <trkpt lat="46.04433" lon="7.9649">
        <ele>2201</ele>
        <time>2000-01-02T03:48:58.000Z</time>
      </trkpt>
      <trkpt lat="46.04454" lon="7.9649">
        <ele>2201</ele>
        <time>2000-01-02T03:49:08.000Z</time>
      </trkpt>
      <trkpt lat="46.04474" lon="7.96489">
        <ele>2201</ele>
        <time>2000-01-02T03:49:18.000Z</time>
      </trkpt>
      <trkpt lat="46.04494" lon="7.96484">
        <ele>2203</ele>
        <time>2000-01-02T03:49:28.000Z</time>
      </trkpt>
      <trkpt lat="46.04504" lon="7.9648">
        <ele>2206.9</ele>
        <time>2000-01-02T03:49:38.000Z</time>
      </trkpt>
      <trkpt lat="46.04523" lon="7.96477">
        <ele>2202</ele>
        <time>2000-01-02T03:49:48.000Z</time>
      </trkpt>
      <trkpt lat="46.04533" lon="7.96465">
        <ele>2209.4</ele>
        <time>2000-01-02T03:49:58.000Z</time>
      </trkpt>
      <trkpt lat="46.04547" lon="7.96459">
        <ele>2202</ele>
        <time>2000-01-02T03:50:08.000Z</time>
      </trkpt>
      <trkpt lat="46.04557" lon="7.96457">
        <ele>2211.3</ele>
        <time>2000-01-02T03:50:18.000Z</time>
      </trkpt>
      <trkpt lat="46.04577" lon="7.9646">
        <ele>2204</ele>
        <time>2000-01-02T03:50:28.000Z</time>
      </trkpt>
      <trkpt lat="46.04595" lon="7.9648">
        <ele>2205</ele>
        <time>2000-01-02T03:50:38.000Z</time>
      </trkpt>
      <trkpt lat="46.04609" lon="7.9649">
        <ele>2213.2</ele>
        <time>2000-01-02T03:50:48.000Z</time>
      </trkpt>
      <trkpt lat="46.04621" lon="7.96478">
        <ele>2204</ele>
        <time>2000-01-02T03:50:58.000Z</time>
      </trkpt>
      <trkpt lat="46.0463" lon="7.96471">
        <ele>2210.9</ele>
        <time>2000-01-02T03:51:08.000Z</time>
      </trkpt>
      <trkpt lat="46.04655" lon="7.96468">
        <ele>2204</ele>
        <time>2000-01-02T03:51:18.000Z</time>
      </trkpt>
      <trkpt lat="46.04691" lon="7.96481">
        <ele>2206</ele>
        <time>2000-01-02T03:51:28.000Z</time>
      </trkpt>
      <trkpt lat="46.04703" lon="7.96478">
        <ele>2219.9</ele>
        <time>2000-01-02T03:51:38.000Z</time>
      </trkpt>
      <trkpt lat="46.04712" lon="7.96469">
        <ele>2204</ele>
        <time>2000-01-02T03:51:48.000Z</time>
      </trkpt>
      <trkpt lat="46.04718" lon="7.96457">
        <ele>2209.3</ele>
        <time>2000-01-02T03:51:58.000Z</time>
      </trkpt>
      <trkpt lat="46.0473" lon="7.9646">
        <ele>2205</ele>
        <time>2000-01-02T03:52:08.000Z</time>
      </trkpt>
      <trkpt lat="46.04751" lon="7.96477">
        <ele>2204</ele>
        <time>2000-01-02T03:52:18.000Z</time>
      </trkpt>
      <trkpt lat="46.04777" lon="7.96467">
        <ele>2204</ele>
        <time>2000-01-02T03:52:28.000Z</time>
      </trkpt>
      <trkpt lat="46.04796" lon="7.96459">
        <ele>2203</ele>
        <time>2000-01-02T03:52:38.000Z</time>
      </trkpt>
      <trkpt lat="46.04818" lon="7.96448">
        <ele>2203</ele>
        <time>2000-01-02T03:52:48.000Z</time>
      </trkpt>
      <trkpt lat="46.04838" lon="7.96444">
        <ele>2203</ele>
        <time>2000-01-02T03:52:58.000Z</time>
      </trkpt>
      <trkpt lat="46.04879" lon="7.96434">
        <ele>2201</ele>
        <time>2000-01-02T03:53:08.000Z</time>
      </trkpt>
      <trkpt lat="46.04917" lon="7.96425">
        <ele>2203</ele>
        <time>2000-01-02T03:53:18.000Z</time>
      </trkpt>
      <trkpt lat="46.04944" lon="7.9643">
        <ele>2202</ele>
        <time>2000-01-02T03:53:28.000Z</time>
      </trkpt>
      <trkpt lat="46.04961" lon="7.96426">
        <ele>2212.1</ele>
        <time>2000-01-02T03:53:38.000Z</time>
      </trkpt>
      <trkpt lat="46.04979" lon="7.96413">
        <ele>2204</ele>
        <time>2000-01-02T03:53:48.000Z</time>
      </trkpt>
      <trkpt lat="46.04997" lon="7.96401">
        <ele>2206</ele>
        <time>2000-01-02T03:53:58.000Z</time>
      </trkpt>
      <trkpt lat="46.05017" lon="7.96394">
        <ele>2206</ele>
        <time>2000-01-02T03:54:08.000Z</time>
      </trkpt>
      <trkpt lat="46.05035" lon="7.96386">
        <ele>2204</ele>
        <time>2000-01-02T03:54:18.000Z</time>
      </trkpt>
      <trkpt lat="46.05054" lon="7.96388">
        <ele>2202.6</ele>
        <time>2000-01-02T03:54:28.000Z</time>
      </trkpt>
      <trkpt lat="46.05066" lon="7.96385">
        <ele>2203</ele>
        <time>2000-01-02T03:54:38.000Z</time>
      </trkpt>
      <trkpt lat="46.05075" lon="7.96377">
        <ele>2203</ele>
        <time>2000-01-02T03:54:48.000Z</time>
      </trkpt>
      <trkpt lat="46.05087" lon="7.96372">
        <ele>2197</ele>
        <time>2000-01-02T03:54:58.000Z</time>
      </trkpt>
      <trkpt lat="46.05101" lon="7.96364">
        <ele>2196.5</ele>
        <time>2000-01-02T03:55:08.000Z</time>
      </trkpt>
      <trkpt lat="46.05114" lon="7.96359">
        <ele>2192</ele>
        <time>2000-01-02T03:55:18.000Z</time>
      </trkpt>
      <trkpt lat="46.05123" lon="7.96359">
        <ele>2191.4</ele>
        <time>2000-01-02T03:55:28.000Z</time>
      </trkpt>
      <trkpt lat="46.05135" lon="7.96364">
        <ele>2188</ele>
        <time>2000-01-02T03:55:38.000Z</time>
      </trkpt>
      <trkpt lat="46.05152" lon="7.96379">
        <ele>2187</ele>
        <time>2000-01-02T03:55:48.000Z</time>
      </trkpt>
      <trkpt lat="46.05161" lon="7.96376">
        <ele>2192.6</ele>
        <time>2000-01-02T03:55:58.000Z</time>
      </trkpt>
      <trkpt lat="46.05172" lon="7.96377">
        <ele>2187</ele>
        <time>2000-01-02T03:56:08.000Z</time>
      </trkpt>
      <trkpt lat="46.05184" lon="7.96386">
        <ele>2190.4</ele>
        <time>2000-01-02T03:56:18.000Z</time>
      </trkpt>
      <trkpt lat="46.05203" lon="7.96393">
        <ele>2184</ele>
        <time>2000-01-02T03:56:28.000Z</time>
      </trkpt>
      <trkpt lat="46.05214" lon="7.96395">
        <ele>2191.8</ele>
        <time>2000-01-02T03:56:38.000Z</time>
      </trkpt>
      <trkpt lat="46.05237" lon="7.96373">
        <ele>2182</ele>
        <time>2000-01-02T03:56:48.000Z</time>
      </trkpt>
      <trkpt lat="46.05263" lon="7.96357">
        <ele>2179</ele>
        <time>2000-01-02T03:56:58.000Z</time>
      </trkpt>
      <trkpt lat="46.05274" lon="7.96348">
        <ele>2184.2</ele>
        <time>2000-01-02T03:57:08.000Z</time>
      </trkpt>
      <trkpt lat="46.05287" lon="7.9634">
        <ele>2177</ele>
        <time>2000-01-02T03:57:18.000Z</time>
      </trkpt>
      <trkpt lat="46.05312" lon="7.96341">
        <ele>2173</ele>
        <time>2000-01-02T03:57:28.000Z</time>
      </trkpt>
      <trkpt lat="46.05346" lon="7.96352">
        <ele>2173</ele>
        <time>2000-01-02T03:57:38.000Z</time>
      </trkpt>
      <trkpt lat="46.05369" lon="7.96345">
        <ele>2172</ele>
        <time>2000-01-02T03:57:48.000Z</time>
      </trkpt>
      <trkpt lat="46.05379" lon="7.96348">
        <ele>2172.8</ele>
        <time>2000-01-02T03:57:58.000Z</time>
      </trkpt>
      <trkpt lat="46.05391" lon="7.96358">
        <ele>2171</ele>
        <time>2000-01-02T03:58:08.000Z</time>
      </trkpt>
      <trkpt lat="46.05409" lon="7.96356">
        <ele>2173.3</ele>
        <time>2000-01-02T03:58:18.000Z</time>
      </trkpt>
      <trkpt lat="46.05421" lon="7.96348">
        <ele>2161</ele>
        <time>2000-01-02T03:58:28.000Z</time>
      </trkpt>
      <trkpt lat="46.05422" lon="7.96333">
        <ele>2156.2</ele>
        <time>2000-01-02T03:58:38.000Z</time>
      </trkpt>
      <trkpt lat="46.05437" lon="7.96331">
        <ele>2155</ele>
        <time>2000-01-02T03:58:48.000Z</time>
      </trkpt>
      <trkpt lat="46.05427" lon="7.96321">
        <ele>2148.4</ele>
        <time>2000-01-02T03:58:58.000Z</time>
      </trkpt>
      <trkpt lat="46.05447" lon="7.96316">
        <ele>2138</ele>
        <time>2000-01-02T03:59:08.000Z</time>
      </trkpt>
      <trkpt lat="46.05438" lon="7.96305">
        <ele>2136.3</ele>
        <time>2000-01-02T03:59:18.000Z</time>
      </trkpt>
      <trkpt lat="46.05451" lon="7.96292">
        <ele>2125</ele>
        <time>2000-01-02T03:59:28.000Z</time>
      </trkpt>
      <trkpt lat="46.0546" lon="7.96287">
        <ele>2125</ele>
        <time>2000-01-02T03:59:38.000Z</time>
      </trkpt>
      <trkpt lat="46.05447" lon="7.96276">
        <ele>2112</ele>
        <time>2000-01-02T03:59:48.000Z</time>
      </trkpt>
      <trkpt lat="46.05464" lon="7.96265">
        <ele>2111.6</ele>
        <time>2000-01-02T03:59:58.000Z</time>
      </trkpt>
      <trkpt lat="46.05476" lon="7.96255">
        <ele>2103</ele>
        <time>2000-01-02T04:00:08.000Z</time>
      </trkpt>
      <trkpt lat="46.05486" lon="7.96254">
        <ele>2109.3</ele>
        <time>2000-01-02T04:00:18.000Z</time>
      </trkpt>
      <trkpt lat="46.05499" lon="7.96248">
        <ele>2099</ele>
        <time>2000-01-02T04:00:28.000Z</time>
      </trkpt>
      <trkpt lat="46.05515" lon="7.96236">
        <ele>2102</ele>
        <time>2000-01-02T04:00:38.000Z</time>
      </trkpt>
      <trkpt lat="46.05528" lon="7.96232">
        <ele>2096</ele>
        <time>2000-01-02T04:00:48.000Z</time>
      </trkpt>
      <trkpt lat="46.05538" lon="7.96232">
        <ele>2101.2</ele>
        <time>2000-01-02T04:00:58.000Z</time>
      </trkpt>
      <trkpt lat="46.05525" lon="7.96228">
        <ele>2089</ele>
        <time>2000-01-02T04:01:08.000Z</time>
      </trkpt>
      <trkpt lat="46.0553" lon="7.96217">
        <ele>2091</ele>
        <time>2000-01-02T04:01:18.000Z</time>
      </trkpt>
      <trkpt lat="46.05541" lon="7.9621">
        <ele>2080</ele>
        <time>2000-01-02T04:01:28.000Z</time>
      </trkpt>
      <trkpt lat="46.05556" lon="7.96206">
        <ele>2086.7</ele>
        <time>2000-01-02T04:01:38.000Z</time>
      </trkpt>
      <trkpt lat="46.05567" lon="7.96194">
        <ele>2077</ele>
        <time>2000-01-02T04:01:48.000Z</time>
      </trkpt>
      <trkpt lat="46.05581" lon="7.96185">
        <ele>2080.5</ele>
        <time>2000-01-02T04:01:58.000Z</time>
      </trkpt>
      <trkpt lat="46.0559" lon="7.96181">
        <ele>2076</ele>
        <time>2000-01-02T04:02:08.000Z</time>
      </trkpt>
      <trkpt lat="46.05605" lon="7.96179">
        <ele>2076.6</ele>
        <time>2000-01-02T04:02:18.000Z</time>
      </trkpt>
      <trkpt lat="46.05614" lon="7.96181">
        <ele>2075</ele>
        <time>2000-01-02T04:02:28.000Z</time>
      </trkpt>
      <trkpt lat="46.05627" lon="7.96176">
        <ele>2074.7</ele>
        <time>2000-01-02T04:02:38.000Z</time>
      </trkpt>
      <trkpt lat="46.05639" lon="7.96174">
        <ele>2069</ele>
        <time>2000-01-02T04:02:48.000Z</time>
      </trkpt>
      <trkpt lat="46.0563" lon="7.96166">
        <ele>2070.1</ele>
        <time>2000-01-02T04:02:58.000Z</time>
      </trkpt>
      <trkpt lat="46.05614" lon="7.9616">
        <ele>2063</ele>
        <time>2000-01-02T04:03:08.000Z</time>
      </trkpt>
      <trkpt lat="46.05618" lon="7.96146">
        <ele>2064.1</ele>
        <time>2000-01-02T04:03:18.000Z</time>
      </trkpt>
      <trkpt lat="46.05629" lon="7.96134">
        <ele>2056</ele>
        <time>2000-01-02T04:03:28.000Z</time>
      </trkpt>
      <trkpt lat="46.05633" lon="7.96119">
        <ele>2053.9</ele>
        <time>2000-01-02T04:03:38.000Z</time>
      </trkpt>
      <trkpt lat="46.05624" lon="7.96113">
        <ele>2050</ele>
        <time>2000-01-02T04:03:48.000Z</time>
      </trkpt>
      <trkpt lat="46.05613" lon="7.96108">
        <ele>2050.3</ele>
        <time>2000-01-02T04:03:58.000Z</time>
      </trkpt>
      <trkpt lat="46.05606" lon="7.96094">
        <ele>2044</ele>
        <time>2000-01-02T04:04:08.000Z</time>
      </trkpt>
      <trkpt lat="46.05597" lon="7.96082">
        <ele>2043.2</ele>
        <time>2000-01-02T04:04:18.000Z</time>
      </trkpt>
      <trkpt lat="46.05584" lon="7.96074">
        <ele>2039</ele>
        <time>2000-01-02T04:04:28.000Z</time>
      </trkpt>
      <trkpt lat="46.05599" lon="7.9606">
        <ele>2039.3</ele>
        <time>2000-01-02T04:04:38.000Z</time>
      </trkpt>
      <trkpt lat="46.05607" lon="7.96054">
        <ele>2035</ele>
        <time>2000-01-02T04:04:48.000Z</time>
      </trkpt>
      <trkpt lat="46.05636" lon="7.96043">
        <ele>2033</ele>
        <time>2000-01-02T04:04:58.000Z</time>
      </trkpt>
      <trkpt lat="46.05665" lon="7.96037">
        <ele>2029</ele>
        <time>2000-01-02T04:05:08.000Z</time>
      </trkpt>
      <trkpt lat="46.05689" lon="7.96026">
        <ele>2025</ele>
        <time>2000-01-02T04:05:18.000Z</time>
      </trkpt>
      <trkpt lat="46.05716" lon="7.96013">
        <ele>2022</ele>
        <time>2000-01-02T04:05:28.000Z</time>
      </trkpt>
      <trkpt lat="46.05731" lon="7.96009">
        <ele>2021.9</ele>
        <time>2000-01-02T04:05:38.000Z</time>
      </trkpt>
      <trkpt lat="46.0574" lon="7.96012">
        <ele>2018</ele>
        <time>2000-01-02T04:05:48.000Z</time>
      </trkpt>
      <trkpt lat="46.0575" lon="7.96024">
        <ele>2019</ele>
        <time>2000-01-02T04:05:58.000Z</time>
      </trkpt>
      <trkpt lat="46.05755" lon="7.96036">
        <ele>2017</ele>
        <time>2000-01-02T04:06:08.000Z</time>
      </trkpt>
      <trkpt lat="46.05761" lon="7.96049">
        <ele>2015.8</ele>
        <time>2000-01-02T04:06:18.000Z</time>
      </trkpt>
      <trkpt lat="46.05782" lon="7.96067">
        <ele>2015</ele>
        <time>2000-01-02T04:06:28.000Z</time>
      </trkpt>
      <trkpt lat="46.05797" lon="7.96076">
        <ele>2009.5</ele>
        <time>2000-01-02T04:06:38.000Z</time>
      </trkpt>
      <trkpt lat="46.0581" lon="7.96094">
        <ele>2013</ele>
        <time>2000-01-02T04:06:48.000Z</time>
      </trkpt>
      <trkpt lat="46.05825" lon="7.96109">
        <ele>2008.1</ele>
        <time>2000-01-02T04:06:58.000Z</time>
      </trkpt>
      <trkpt lat="46.05835" lon="7.96113">
        <ele>2008</ele>
        <time>2000-01-02T04:07:08.000Z</time>
      </trkpt>
      <trkpt lat="46.0585" lon="7.96115">
        <ele>2006.1</ele>
        <time>2000-01-02T04:07:18.000Z</time>
      </trkpt>
      <trkpt lat="46.05866" lon="7.96116">
        <ele>2002</ele>
        <time>2000-01-02T04:07:28.000Z</time>
      </trkpt>
      <trkpt lat="46.05891" lon="7.9612">
        <ele>1996</ele>
        <time>2000-01-02T04:07:38.000Z</time>
      </trkpt>
      <trkpt lat="46.05908" lon="7.9612">
        <ele>1997.8</ele>
        <time>2000-01-02T04:07:48.000Z</time>
      </trkpt>
      <trkpt lat="46.05919" lon="7.96123">
        <ele>1996</ele>
        <time>2000-01-02T04:07:58.000Z</time>
      </trkpt>
      <trkpt lat="46.0593" lon="7.96123">
        <ele>1995.1</ele>
        <time>2000-01-02T04:08:08.000Z</time>
      </trkpt>
      <trkpt lat="46.05944" lon="7.96123">
        <ele>1991</ele>
        <time>2000-01-02T04:08:18.000Z</time>
      </trkpt>
      <trkpt lat="46.05956" lon="7.96128">
        <ele>1991.6</ele>
        <time>2000-01-02T04:08:28.000Z</time>
      </trkpt>
      <trkpt lat="46.05969" lon="7.96135">
        <ele>1989</ele>
        <time>2000-01-02T04:08:38.000Z</time>
      </trkpt>
      <trkpt lat="46.05979" lon="7.96133">
        <ele>1988.2</ele>
        <time>2000-01-02T04:08:48.000Z</time>
      </trkpt>
      <trkpt lat="46.0599" lon="7.9613">
        <ele>1984</ele>
        <time>2000-01-02T04:08:58.000Z</time>
      </trkpt>
      <trkpt lat="46.06005" lon="7.96132">
        <ele>1985.7</ele>
        <time>2000-01-02T04:09:08.000Z</time>
      </trkpt>
      <trkpt lat="46.06016" lon="7.96136">
        <ele>1982</ele>
        <time>2000-01-02T04:09:18.000Z</time>
      </trkpt>
      <trkpt lat="46.06028" lon="7.96137">
        <ele>1983</ele>
        <time>2000-01-02T04:09:28.000Z</time>
      </trkpt>
      <trkpt lat="46.06042" lon="7.96136">
        <ele>1979</ele>
        <time>2000-01-02T04:09:38.000Z</time>
      </trkpt>
      <trkpt lat="46.06064" lon="7.96126">
        <ele>1974</ele>
        <time>2000-01-02T04:09:48.000Z</time>
      </trkpt>
      <trkpt lat="46.06073" lon="7.96125">
        <ele>1976.1</ele>
        <time>2000-01-02T04:09:58.000Z</time>
      </trkpt>
      <trkpt lat="46.06084" lon="7.96126">
        <ele>1973</ele>
        <time>2000-01-02T04:10:08.000Z</time>
      </trkpt>
      <trkpt lat="46.06093" lon="7.96129">
        <ele>1975.9</ele>
        <time>2000-01-02T04:10:18.000Z</time>
      </trkpt>
      <trkpt lat="46.06105" lon="7.96127">
        <ele>1970</ele>
        <time>2000-01-02T04:10:28.000Z</time>
      </trkpt>
      <trkpt lat="46.06123" lon="7.96126">
        <ele>1969.8</ele>
        <time>2000-01-02T04:10:38.000Z</time>
      </trkpt>
      <trkpt lat="46.06135" lon="7.96127">
        <ele>1966</ele>
        <time>2000-01-02T04:10:48.000Z</time>
      </trkpt>
      <trkpt lat="46.06154" lon="7.96123">
        <ele>1964</ele>
        <time>2000-01-02T04:10:58.000Z</time>
      </trkpt>
      <trkpt lat="46.06172" lon="7.96123">
        <ele>1964.9</ele>
        <time>2000-01-02T04:11:08.000Z</time>
      </trkpt>
      <trkpt lat="46.06184" lon="7.96137">
        <ele>1964</ele>
        <time>2000-01-02T04:11:18.000Z</time>
      </trkpt>
      <trkpt lat="46.06202" lon="7.96147">
        <ele>1963</ele>
        <time>2000-01-02T04:11:28.000Z</time>
      </trkpt>
      <trkpt lat="46.0622" lon="7.96152">
        <ele>1960</ele>
        <time>2000-01-02T04:11:38.000Z</time>
      </trkpt>
      <trkpt lat="46.06231" lon="7.96162">
        <ele>1961</ele>
        <time>2000-01-02T04:11:48.000Z</time>
      </trkpt>
      <trkpt lat="46.0624" lon="7.96173">
        <ele>1957.5</ele>
        <time>2000-01-02T04:11:58.000Z</time>
      </trkpt>
      <trkpt lat="46.06249" lon="7.96186">
        <ele>1960</ele>
        <time>2000-01-02T04:12:08.000Z</time>
      </trkpt>
      <trkpt lat="46.0626" lon="7.96195">
        <ele>1959.1</ele>
        <time>2000-01-02T04:12:18.000Z</time>
      </trkpt>
      <trkpt lat="46.06273" lon="7.96193">
        <ele>1954</ele>
        <time>2000-01-02T04:12:28.000Z</time>
      </trkpt>
      <trkpt lat="46.06286" lon="7.96186">
        <ele>1949.4</ele>
        <time>2000-01-02T04:12:38.000Z</time>
      </trkpt>
      <trkpt lat="46.063" lon="7.96185">
        <ele>1946</ele>
        <time>2000-01-02T04:12:48.000Z</time>
      </trkpt>
      <trkpt lat="46.06319" lon="7.96173">
        <ele>1945</ele>
        <time>2000-01-02T04:12:58.000Z</time>
      </trkpt>
      <trkpt lat="46.06333" lon="7.96172">
        <ele>1947.7</ele>
        <time>2000-01-02T04:13:08.000Z</time>
      </trkpt>
      <trkpt lat="46.06341" lon="7.96166">
        <ele>1944</ele>
        <time>2000-01-02T04:13:18.000Z</time>
      </trkpt>
      <trkpt lat="46.06356" lon="7.96156">
        <ele>1947.9</ele>
        <time>2000-01-02T04:13:28.000Z</time>
      </trkpt>
      <trkpt lat="46.06366" lon="7.96141">
        <ele>1944</ele>
        <time>2000-01-02T04:13:38.000Z</time>
      </trkpt>
      <trkpt lat="46.06375" lon="7.96134">
        <ele>1945.2</ele>
        <time>2000-01-02T04:13:48.000Z</time>
      </trkpt>
      <trkpt lat="46.06401" lon="7.96131">
        <ele>1944</ele>
        <time>2000-01-02T04:13:58.000Z</time>
      </trkpt>
      <trkpt lat="46.0642" lon="7.96129">
        <ele>1941</ele>
        <time>2000-01-02T04:14:08.000Z</time>
      </trkpt>
      <trkpt lat="46.06445" lon="7.96117">
        <ele>1939</ele>
        <time>2000-01-02T04:14:18.000Z</time>
      </trkpt>
      <trkpt lat="46.06458" lon="7.96109">
        <ele>1940.9</ele>
        <time>2000-01-02T04:14:28.000Z</time>
      </trkpt>
      <trkpt lat="46.06491" lon="7.9609">
        <ele>1935</ele>
        <time>2000-01-02T04:14:38.000Z</time>
      </trkpt>
      <trkpt lat="46.06501" lon="7.96087">
        <ele>1935.2</ele>
        <time>2000-01-02T04:14:48.000Z</time>
      </trkpt>
      <trkpt lat="46.06504" lon="7.96063">
        <ele>1931</ele>
        <time>2000-01-02T04:14:58.000Z</time>
      </trkpt>
      <trkpt lat="46.06532" lon="7.96057">
        <ele>1927</ele>
        <time>2000-01-02T04:15:08.000Z</time>
      </trkpt>
      <trkpt lat="46.06544" lon="7.9605">
        <ele>1926.3</ele>
        <time>2000-01-02T04:15:18.000Z</time>
      </trkpt>
      <trkpt lat="46.06559" lon="7.96044">
        <ele>1925</ele>
        <time>2000-01-02T04:15:28.000Z</time>
      </trkpt>
      <trkpt lat="46.06575" lon="7.96041">
        <ele>1922.4</ele>
        <time>2000-01-02T04:15:38.000Z</time>
      </trkpt>
      <trkpt lat="46.0659" lon="7.96041">
        <ele>1924</ele>
        <time>2000-01-02T04:15:48.000Z</time>
      </trkpt>
      <trkpt lat="46.06603" lon="7.96047">
        <ele>1920.2</ele>
        <time>2000-01-02T04:15:58.000Z</time>
      </trkpt>
      <trkpt lat="46.06626" lon="7.96034">
        <ele>1923</ele>
        <time>2000-01-02T04:16:08.000Z</time>
      </trkpt>
      <trkpt lat="46.0665" lon="7.96029">
        <ele>1921</ele>
        <time>2000-01-02T04:16:18.000Z</time>
      </trkpt>
      <trkpt lat="46.06666" lon="7.96033">
        <ele>1907.6</ele>
        <time>2000-01-02T04:16:28.000Z</time>
      </trkpt>
      <trkpt lat="46.06675" lon="7.96029">
        <ele>1919</ele>
        <time>2000-01-02T04:16:38.000Z</time>
      </trkpt>
      <trkpt lat="46.06686" lon="7.96026">
        <ele>1904.9</ele>
        <time>2000-01-02T04:16:48.000Z</time>
      </trkpt>
      <trkpt lat="46.06695" lon="7.96019">
        <ele>1914</ele>
        <time>2000-01-02T04:16:58.000Z</time>
      </trkpt>
      <trkpt lat="46.06703" lon="7.95988">
        <ele>1905</ele>
        <time>2000-01-02T04:17:08.000Z</time>
      </trkpt>
      <trkpt lat="46.06714" lon="7.95975">
        <ele>1889.1</ele>
        <time>2000-01-02T04:17:18.000Z</time>
      </trkpt>
      <trkpt lat="46.06723" lon="7.95971">
        <ele>1902</ele>
        <time>2000-01-02T04:17:28.000Z</time>
      </trkpt>
      <trkpt lat="46.06734" lon="7.95959">
        <ele>1884.6</ele>
        <time>2000-01-02T04:17:38.000Z</time>
      </trkpt>
      <trkpt lat="46.06747" lon="7.95948">
        <ele>1884</ele>
        <time>2000-01-02T04:17:48.000Z</time>
      </trkpt>
      <trkpt lat="46.06756" lon="7.95936">
        <ele>1876.7</ele>
        <time>2000-01-02T04:17:58.000Z</time>
      </trkpt>
      <trkpt lat="46.06762" lon="7.95921">
        <ele>1876</ele>
        <time>2000-01-02T04:18:08.000Z</time>
      </trkpt>
      <trkpt lat="46.06772" lon="7.95907">
        <ele>1865.1</ele>
        <time>2000-01-02T04:18:18.000Z</time>
      </trkpt>
      <trkpt lat="46.0678" lon="7.95896">
        <ele>1869</ele>
        <time>2000-01-02T04:18:28.000Z</time>
      </trkpt>
      <trkpt lat="46.06792" lon="7.95892">
        <ele>1858.1</ele>
        <time>2000-01-02T04:18:38.000Z</time>
      </trkpt>
      <trkpt lat="46.06802" lon="7.95897">
        <ele>1867</ele>
        <time>2000-01-02T04:18:48.000Z</time>
      </trkpt>
      <trkpt lat="46.06822" lon="7.95891">
        <ele>1866</ele>
        <time>2000-01-02T04:18:58.000Z</time>
      </trkpt>
      <trkpt lat="46.06836" lon="7.95882">
        <ele>1858.8</ele>
        <time>2000-01-02T04:19:08.000Z</time>
      </trkpt>
      <trkpt lat="46.06845" lon="7.95888">
        <ele>1866</ele>
        <time>2000-01-02T04:19:18.000Z</time>
      </trkpt>
      <trkpt lat="46.06864" lon="7.95889">
        <ele>1868</ele>
        <time>2000-01-02T04:19:28.000Z</time>
      </trkpt>
      <trkpt lat="46.06882" lon="7.95914">
        <ele>1865</ele>
        <time>2000-01-02T04:19:38.000Z</time>
      </trkpt>
      <trkpt lat="46.06891" lon="7.95921">
        <ele>1864.3</ele>
        <time>2000-01-02T04:19:48.000Z</time>
      </trkpt>
      <trkpt lat="46.06904" lon="7.95903">
        <ele>1864</ele>
        <time>2000-01-02T04:19:58.000Z</time>
      </trkpt>
      <trkpt lat="46.06918" lon="7.95908">
        <ele>1859.6</ele>
        <time>2000-01-02T04:20:08.000Z</time>
      </trkpt>
      <trkpt lat="46.06928" lon="7.95916">
        <ele>1864</ele>
        <time>2000-01-02T04:20:18.000Z</time>
      </trkpt>
      <trkpt lat="46.06947" lon="7.95921">
        <ele>1858.8</ele>
        <time>2000-01-02T04:20:28.000Z</time>
      </trkpt>
      <trkpt lat="46.06958" lon="7.9592">
        <ele>1861</ele>
        <time>2000-01-02T04:20:38.000Z</time>
      </trkpt>
      <trkpt lat="46.06969" lon="7.95914">
        <ele>1857.7</ele>
        <time>2000-01-02T04:20:48.000Z</time>
      </trkpt>
      <trkpt lat="46.06978" lon="7.95906">
        <ele>1858</ele>
        <time>2000-01-02T04:20:58.000Z</time>
      </trkpt>
      <trkpt lat="46.06988" lon="7.95903">
        <ele>1852.7</ele>
        <time>2000-01-02T04:21:08.000Z</time>
      </trkpt>
      <trkpt lat="46.06999" lon="7.95906">
        <ele>1856</ele>
        <time>2000-01-02T04:21:18.000Z</time>
      </trkpt>
      <trkpt lat="46.07008" lon="7.95909">
        <ele>1852.9</ele>
        <time>2000-01-02T04:21:28.000Z</time>
      </trkpt>
      <trkpt lat="46.07016" lon="7.95898">
        <ele>1850</ele>
        <time>2000-01-02T04:21:38.000Z</time>
      </trkpt>
      <trkpt lat="46.07023" lon="7.95881">
        <ele>1841.3</ele>
        <time>2000-01-02T04:21:48.000Z</time>
      </trkpt>
      <trkpt lat="46.07034" lon="7.95852">
        <ele>1842</ele>
        <time>2000-01-02T04:21:58.000Z</time>
      </trkpt>
      <trkpt lat="46.0704" lon="7.95837">
        <ele>1834.4</ele>
        <time>2000-01-02T04:22:08.000Z</time>
      </trkpt>
      <trkpt lat="46.07049" lon="7.95818">
        <ele>1839</ele>
        <time>2000-01-02T04:22:18.000Z</time>
      </trkpt>
      <trkpt lat="46.07064" lon="7.95807">
        <ele>1829.7</ele>
        <time>2000-01-02T04:22:28.000Z</time>
      </trkpt>
      <trkpt lat="46.07076" lon="7.95812">
        <ele>1836</ele>
        <time>2000-01-02T04:22:38.000Z</time>
      </trkpt>
      <trkpt lat="46.07088" lon="7.95813">
        <ele>1831.9</ele>
        <time>2000-01-02T04:22:48.000Z</time>
      </trkpt>
      <trkpt lat="46.07101" lon="7.9581">
        <ele>1830</ele>
        <time>2000-01-02T04:22:58.000Z</time>
      </trkpt>
      <trkpt lat="46.07113" lon="7.95805">
        <ele>1829.1</ele>
        <time>2000-01-02T04:23:08.000Z</time>
      </trkpt>
      <trkpt lat="46.07126" lon="7.95794">
        <ele>1828</ele>
        <time>2000-01-02T04:23:18.000Z</time>
      </trkpt>
      <trkpt lat="46.0714" lon="7.95789">
        <ele>1827.1</ele>
        <time>2000-01-02T04:23:28.000Z</time>
      </trkpt>
      <trkpt lat="46.07157" lon="7.95772">
        <ele>1823</ele>
        <time>2000-01-02T04:23:38.000Z</time>
      </trkpt>
      <trkpt lat="46.07168" lon="7.95772">
        <ele>1825.9</ele>
        <time>2000-01-02T04:23:48.000Z</time>
      </trkpt>
      <trkpt lat="46.07181" lon="7.95768">
        <ele>1823</ele>
        <time>2000-01-02T04:23:58.000Z</time>
      </trkpt>
      <trkpt lat="46.07203" lon="7.95763">
        <ele>1828</ele>
        <time>2000-01-02T04:24:08.000Z</time>
      </trkpt>
      <trkpt lat="46.07216" lon="7.95757">
        <ele>1829.6</ele>
        <time>2000-01-02T04:24:18.000Z</time>
      </trkpt>
      <trkpt lat="46.07227" lon="7.95756">
        <ele>1828</ele>
        <time>2000-01-02T04:24:28.000Z</time>
      </trkpt>
      <trkpt lat="46.07239" lon="7.95745">
        <ele>1829.7</ele>
        <time>2000-01-02T04:24:38.000Z</time>
      </trkpt>
      <trkpt lat="46.07254" lon="7.95735">
        <ele>1823</ele>
        <time>2000-01-02T04:24:48.000Z</time>
      </trkpt>
      <trkpt lat="46.07267" lon="7.95731">
        <ele>1826.2</ele>
        <time>2000-01-02T04:24:58.000Z</time>
      </trkpt>
      <trkpt lat="46.07285" lon="7.95721">
        <ele>1821</ele>
        <time>2000-01-02T04:25:08.000Z</time>
      </trkpt>
      <trkpt lat="46.07298" lon="7.95718">
        <ele>1822</ele>
        <time>2000-01-02T04:25:18.000Z</time>
      </trkpt>
      <trkpt lat="46.07312" lon="7.95716">
        <ele>1820</ele>
        <time>2000-01-02T04:25:28.000Z</time>
      </trkpt>
      <trkpt lat="46.07324" lon="7.95718">
        <ele>1821.2</ele>
        <time>2000-01-02T04:25:38.000Z</time>
      </trkpt>
      <trkpt lat="46.07357" lon="7.95725">
        <ele>1819</ele>
        <time>2000-01-02T04:25:48.000Z</time>
      </trkpt>
      <trkpt lat="46.07365" lon="7.9572">
        <ele>1819</ele>
        <time>2000-01-02T04:25:58.000Z</time>
      </trkpt>
      <trkpt lat="46.07376" lon="7.95725">
        <ele>1817</ele>
        <time>2000-01-02T04:26:08.000Z</time>
      </trkpt>
      <trkpt lat="46.07387" lon="7.95723">
        <ele>1815.5</ele>
        <time>2000-01-02T04:26:18.000Z</time>
      </trkpt>
      <trkpt lat="46.07395" lon="7.95714">
        <ele>1811</ele>
        <time>2000-01-02T04:26:28.000Z</time>
      </trkpt>
      <trkpt lat="46.07407" lon="7.95704">
        <ele>1803</ele>
        <time>2000-01-02T04:26:38.000Z</time>
      </trkpt>
      <trkpt lat="46.07419" lon="7.95709">
        <ele>1803</ele>
        <time>2000-01-02T04:26:48.000Z</time>
      </trkpt>
      <trkpt lat="46.0743" lon="7.95704">
        <ele>1799.7</ele>
        <time>2000-01-02T04:26:58.000Z</time>
      </trkpt>
      <trkpt lat="46.07443" lon="7.95705">
        <ele>1802</ele>
        <time>2000-01-02T04:27:08.000Z</time>
      </trkpt>
      <trkpt lat="46.07458" lon="7.95718">
        <ele>1801.2</ele>
        <time>2000-01-02T04:27:18.000Z</time>
      </trkpt>
      <trkpt lat="46.07469" lon="7.95724">
        <ele>1802</ele>
        <time>2000-01-02T04:27:28.000Z</time>
      </trkpt>
      <trkpt lat="46.07484" lon="7.95725">
        <ele>1800.5</ele>
        <time>2000-01-02T04:27:38.000Z</time>
      </trkpt>
      <trkpt lat="46.07493" lon="7.95728">
        <ele>1800</ele>
        <time>2000-01-02T04:27:48.000Z</time>
      </trkpt>
      <trkpt lat="46.07514" lon="7.95739">
        <ele>1800</ele>
        <time>2000-01-02T04:27:58.000Z</time>
      </trkpt>
      <trkpt lat="46.07525" lon="7.95742">
        <ele>1801.5</ele>
        <time>2000-01-02T04:28:08.000Z</time>
      </trkpt>
      <trkpt lat="46.07535" lon="7.95747">
        <ele>1801</ele>
        <time>2000-01-02T04:28:18.000Z</time>
      </trkpt>
      <trkpt lat="46.0755" lon="7.95752">
        <ele>1800.6</ele>
        <time>2000-01-02T04:28:28.000Z</time>
      </trkpt>
      <trkpt lat="46.07564" lon="7.95752">
        <ele>1795</ele>
        <time>2000-01-02T04:28:38.000Z</time>
      </trkpt>
      <trkpt lat="46.07581" lon="7.95755">
        <ele>1799.8</ele>
        <time>2000-01-02T04:28:48.000Z</time>
      </trkpt>
      <trkpt lat="46.07616" lon="7.95757">
        <ele>1790</ele>
        <time>2000-01-02T04:28:58.000Z</time>
      </trkpt>
      <trkpt lat="46.07628" lon="7.95759">
        <ele>1791.5</ele>
        <time>2000-01-02T04:29:08.000Z</time>
      </trkpt>
      <trkpt lat="46.07652" lon="7.95759">
        <ele>1786</ele>
        <time>2000-01-02T04:29:18.000Z</time>
      </trkpt>
      <trkpt lat="46.0768" lon="7.95745">
        <ele>1781</ele>
        <time>2000-01-02T04:29:28.000Z</time>
      </trkpt>
      <trkpt lat="46.07694" lon="7.95736">
        <ele>1778</ele>
        <time>2000-01-02T04:29:38.000Z</time>
      </trkpt>
      <trkpt lat="46.07714" lon="7.95743">
        <ele>1779</ele>
        <time>2000-01-02T04:29:48.000Z</time>
      </trkpt>
      <trkpt lat="46.07724" lon="7.9575">
        <ele>1780.7</ele>
        <time>2000-01-02T04:29:58.000Z</time>
      </trkpt>
      <trkpt lat="46.07733" lon="7.95743">
        <ele>1777</ele>
        <time>2000-01-02T04:30:08.000Z</time>
      </trkpt>
      <trkpt lat="46.07737" lon="7.95729">
        <ele>1770.4</ele>
        <time>2000-01-02T04:30:18.000Z</time>
      </trkpt>
      <trkpt lat="46.0775" lon="7.95731">
        <ele>1772</ele>
        <time>2000-01-02T04:30:28.000Z</time>
      </trkpt>
      <trkpt lat="46.07763" lon="7.95725">
        <ele>1764.6</ele>
        <time>2000-01-02T04:30:38.000Z</time>
      </trkpt>
      <trkpt lat="46.07774" lon="7.95728">
        <ele>1764</ele>
        <time>2000-01-02T04:30:48.000Z</time>
      </trkpt>
      <trkpt lat="46.07795" lon="7.95728">
        <ele>1762</ele>
        <time>2000-01-02T04:30:58.000Z</time>
      </trkpt>
      <trkpt lat="46.0781" lon="7.95729">
        <ele>1759.9</ele>
        <time>2000-01-02T04:31:08.000Z</time>
      </trkpt>
      <trkpt lat="46.07834" lon="7.95718">
        <ele>1758</ele>
        <time>2000-01-02T04:31:18.000Z</time>
      </trkpt>
      <trkpt lat="46.07845" lon="7.95723">
        <ele>1757</ele>
        <time>2000-01-02T04:31:28.000Z</time>
      </trkpt>
      <trkpt lat="46.07874" lon="7.95744">
        <ele>1755</ele>
        <time>2000-01-02T04:31:38.000Z</time>
      </trkpt>
      <trkpt lat="46.07885" lon="7.95751">
        <ele>1754.2</ele>
        <time>2000-01-02T04:31:48.000Z</time>
      </trkpt>
      <trkpt lat="46.07916" lon="7.95775">
        <ele>1751</ele>
        <time>2000-01-02T04:31:58.000Z</time>
      </trkpt>
      <trkpt lat="46.07935" lon="7.95786">
        <ele>1750</ele>
        <time>2000-01-02T04:32:08.000Z</time>
      </trkpt>
      <trkpt lat="46.07958" lon="7.95792">
        <ele>1750</ele>
        <time>2000-01-02T04:32:18.000Z</time>
      </trkpt>
      <trkpt lat="46.07997" lon="7.95795">
        <ele>1749</ele>
        <time>2000-01-02T04:32:28.000Z</time>
      </trkpt>
      <trkpt lat="46.08027" lon="7.958">
        <ele>1748</ele>
        <time>2000-01-02T04:32:38.000Z</time>
      </trkpt>
      <trkpt lat="46.08041" lon="7.95806">
        <ele>1746.7</ele>
        <time>2000-01-02T04:32:48.000Z</time>
      </trkpt>
      <trkpt lat="46.08073" lon="7.95833">
        <ele>1745</ele>
        <time>2000-01-02T04:32:58.000Z</time>
      </trkpt>
      <trkpt lat="46.08095" lon="7.95849">
        <ele>1744</ele>
        <time>2000-01-02T04:33:08.000Z</time>
      </trkpt>
      <trkpt lat="46.08119" lon="7.95865">
        <ele>1743</ele>
        <time>2000-01-02T04:33:18.000Z</time>
      </trkpt>
      <trkpt lat="46.0814" lon="7.95881">
        <ele>1742</ele>
        <time>2000-01-02T04:33:28.000Z</time>
      </trkpt>
      <trkpt lat="46.08158" lon="7.95889">
        <ele>1737.9</ele>
        <time>2000-01-02T04:33:38.000Z</time>
      </trkpt>
      <trkpt lat="46.08175" lon="7.95905">
        <ele>1737</ele>
        <time>2000-01-02T04:33:48.000Z</time>
      </trkpt>
      <trkpt lat="46.08198" lon="7.9593">
        <ele>1737</ele>
        <time>2000-01-02T04:33:58.000Z</time>
      </trkpt>
      <trkpt lat="46.08215" lon="7.9594">
        <ele>1735.6</ele>
        <time>2000-01-02T04:34:08.000Z</time>
      </trkpt>
      <trkpt lat="46.08225" lon="7.9594">
        <ele>1734</ele>
        <time>2000-01-02T04:34:18.000Z</time>
      </trkpt>
      <trkpt lat="46.08235" lon="7.95938">
        <ele>1733.4</ele>
        <time>2000-01-02T04:34:28.000Z</time>
      </trkpt>
      <trkpt lat="46.08265" lon="7.95897">
        <ele>1731</ele>
        <time>2000-01-02T04:34:38.000Z</time>
      </trkpt>
      <trkpt lat="46.08279" lon="7.95878">
        <ele>1731</ele>
        <time>2000-01-02T04:34:48.000Z</time>
      </trkpt>
      <trkpt lat="46.08287" lon="7.9587">
        <ele>1729.3</ele>
        <time>2000-01-02T04:34:58.000Z</time>
      </trkpt>
      <trkpt lat="46.08297" lon="7.95862">
        <ele>1731</ele>
        <time>2000-01-02T04:35:08.000Z</time>
      </trkpt>
      <trkpt lat="46.08312" lon="7.95851">
        <ele>1730</ele>
        <time>2000-01-02T04:35:18.000Z</time>
      </trkpt>
      <trkpt lat="46.08333" lon="7.95846">
        <ele>1729</ele>
        <time>2000-01-02T04:35:28.000Z</time>
      </trkpt>
      <trkpt lat="46.08352" lon="7.95849">
        <ele>1725</ele>
        <time>2000-01-02T04:35:38.000Z</time>
      </trkpt>
      <trkpt lat="46.08371" lon="7.95853">
        <ele>1724.6</ele>
        <time>2000-01-02T04:35:48.000Z</time>
      </trkpt>
      <trkpt lat="46.08384" lon="7.95859">
        <ele>1723</ele>
        <time>2000-01-02T04:35:58.000Z</time>
      </trkpt>
      <trkpt lat="46.08409" lon="7.95867">
        <ele>1723</ele>
        <time>2000-01-02T04:36:08.000Z</time>
      </trkpt>
      <trkpt lat="46.08438" lon="7.95873">
        <ele>1721</ele>
        <time>2000-01-02T04:36:18.000Z</time>
      </trkpt>
      <trkpt lat="46.0845" lon="7.9588">
        <ele>1720.3</ele>
        <time>2000-01-02T04:36:28.000Z</time>
      </trkpt>
      <trkpt lat="46.08467" lon="7.95889">
        <ele>1719</ele>
        <time>2000-01-02T04:36:38.000Z</time>
      </trkpt>
      <trkpt lat="46.08497" lon="7.95874">
        <ele>1717</ele>
        <time>2000-01-02T04:36:48.000Z</time>
      </trkpt>
      <trkpt lat="46.08505" lon="7.95867">
        <ele>1716.5</ele>
        <time>2000-01-02T04:36:58.000Z</time>
      </trkpt>
      <trkpt lat="46.08513" lon="7.95859">
        <ele>1716</ele>
        <time>2000-01-02T04:37:08.000Z</time>
      </trkpt>
      <trkpt lat="46.08526" lon="7.95852">
        <ele>1716.1</ele>
        <time>2000-01-02T04:37:18.000Z</time>
      </trkpt>
      <trkpt lat="46.08541" lon="7.95838">
        <ele>1715</ele>
        <time>2000-01-02T04:37:28.000Z</time>
      </trkpt>
      <trkpt lat="46.08573" lon="7.95798">
        <ele>1714</ele>
        <time>2000-01-02T04:37:38.000Z</time>
      </trkpt>
      <trkpt lat="46.08589" lon="7.9578">
        <ele>1714</ele>
        <time>2000-01-02T04:37:48.000Z</time>
      </trkpt>
      <trkpt lat="46.08617" lon="7.95739">
        <ele>1713</ele>
        <time>2000-01-02T04:37:58.000Z</time>
      </trkpt>
      <trkpt lat="46.08633" lon="7.95719">
        <ele>1713</ele>
        <time>2000-01-02T04:38:08.000Z</time>
      </trkpt>
      <trkpt lat="46.08654" lon="7.95705">
        <ele>1713</ele>
        <time>2000-01-02T04:38:18.000Z</time>
      </trkpt>
      <trkpt lat="46.0868" lon="7.95693">
        <ele>1711</ele>
        <time>2000-01-02T04:38:28.000Z</time>
      </trkpt>
      <trkpt lat="46.08701" lon="7.95681">
        <ele>1711</ele>
        <time>2000-01-02T04:38:38.000Z</time>
      </trkpt>
      <trkpt lat="46.08719" lon="7.95658">
        <ele>1711</ele>
        <time>2000-01-02T04:38:48.000Z</time>
      </trkpt>
      <trkpt lat="46.08736" lon="7.9564">
        <ele>1710</ele>
        <time>2000-01-02T04:38:58.000Z</time>
      </trkpt>
      <trkpt lat="46.08755" lon="7.95629">
        <ele>1710</ele>
        <time>2000-01-02T04:39:08.000Z</time>
      </trkpt>
      <trkpt lat="46.08766" lon="7.95621">
        <ele>1702.6</ele>
        <time>2000-01-02T04:39:18.000Z</time>
      </trkpt>
      <trkpt lat="46.08799" lon="7.95609">
        <ele>1706</ele>
        <time>2000-01-02T04:39:28.000Z</time>
      </trkpt>
      <trkpt lat="46.0881" lon="7.95604">
        <ele>1701.8</ele>
        <time>2000-01-02T04:39:38.000Z</time>
      </trkpt>
      <trkpt lat="46.08836" lon="7.95599">
        <ele>1704</ele>
        <time>2000-01-02T04:39:48.000Z</time>
      </trkpt>
      <trkpt lat="46.08847" lon="7.95601">
        <ele>1698.7</ele>
        <time>2000-01-02T04:39:58.000Z</time>
      </trkpt>
      <trkpt lat="46.08858" lon="7.95606">
        <ele>1699</ele>
        <time>2000-01-02T04:40:08.000Z</time>
      </trkpt>
      <trkpt lat="46.08871" lon="7.95604">
        <ele>1695.4</ele>
        <time>2000-01-02T04:40:18.000Z</time>
      </trkpt>
      <trkpt lat="46.08895" lon="7.95606">
        <ele>1698</ele>
        <time>2000-01-02T04:40:28.000Z</time>
      </trkpt>
      <trkpt lat="46.08905" lon="7.95608">
        <ele>1693</ele>
        <time>2000-01-02T04:40:38.000Z</time>
      </trkpt>
      <trkpt lat="46.08919" lon="7.9561">
        <ele>1697</ele>
        <time>2000-01-02T04:40:48.000Z</time>
      </trkpt>
      <trkpt lat="46.08939" lon="7.95612">
        <ele>1696</ele>
        <time>2000-01-02T04:40:58.000Z</time>
      </trkpt>
      <trkpt lat="46.08958" lon="7.95614">
        <ele>1695</ele>
        <time>2000-01-02T04:41:08.000Z</time>
      </trkpt>
      <trkpt lat="46.08972" lon="7.95616">
        <ele>1691.5</ele>
        <time>2000-01-02T04:41:18.000Z</time>
      </trkpt>
      <trkpt lat="46.08989" lon="7.9562">
        <ele>1694</ele>
        <time>2000-01-02T04:41:28.000Z</time>
      </trkpt>
      <trkpt lat="46.09007" lon="7.95622">
        <ele>1689.3</ele>
        <time>2000-01-02T04:41:38.000Z</time>
      </trkpt>
      <trkpt lat="46.09039" lon="7.95625">
        <ele>1692</ele>
        <time>2000-01-02T04:41:48.000Z</time>
      </trkpt>
      <trkpt lat="46.09066" lon="7.9563">
        <ele>1690</ele>
        <time>2000-01-02T04:41:58.000Z</time>
      </trkpt>
      <trkpt lat="46.09091" lon="7.95637">
        <ele>1690</ele>
        <time>2000-01-02T04:42:08.000Z</time>
      </trkpt>
      <trkpt lat="46.09118" lon="7.95636">
        <ele>1691</ele>
        <time>2000-01-02T04:42:18.000Z</time>
      </trkpt>
      <trkpt lat="46.09156" lon="7.95634">
        <ele>1690</ele>
        <time>2000-01-02T04:42:28.000Z</time>
      </trkpt>
      <trkpt lat="46.09176" lon="7.95637">
        <ele>1690</ele>
        <time>2000-01-02T04:42:38.000Z</time>
      </trkpt>
      <trkpt lat="46.09186" lon="7.95637">
        <ele>1681.9</ele>
        <time>2000-01-02T04:42:48.000Z</time>
      </trkpt>
      <trkpt lat="46.09197" lon="7.95635">
        <ele>1689</ele>
        <time>2000-01-02T04:42:58.000Z</time>
      </trkpt>
      <trkpt lat="46.09239" lon="7.95636">
        <ele>1689</ele>
        <time>2000-01-02T04:43:08.000Z</time>
      </trkpt>
      <trkpt lat="46.09264" lon="7.95635">
        <ele>1687</ele>
        <time>2000-01-02T04:43:18.000Z</time>
      </trkpt>
      <trkpt lat="46.09292" lon="7.95634">
        <ele>1685</ele>
        <time>2000-01-02T04:43:28.000Z</time>
      </trkpt>
      <trkpt lat="46.09302" lon="7.95631">
        <ele>1680.4</ele>
        <time>2000-01-02T04:43:38.000Z</time>
      </trkpt>
      <trkpt lat="46.09323" lon="7.95632">
        <ele>1683</ele>
        <time>2000-01-02T04:43:48.000Z</time>
      </trkpt>
      <trkpt lat="46.09333" lon="7.9563">
        <ele>1678.6</ele>
        <time>2000-01-02T04:43:58.000Z</time>
      </trkpt>
      <trkpt lat="46.09367" lon="7.95622">
        <ele>1681</ele>
        <time>2000-01-02T04:44:08.000Z</time>
      </trkpt>
      <trkpt lat="46.09382" lon="7.9562">
        <ele>1675.3</ele>
        <time>2000-01-02T04:44:18.000Z</time>
      </trkpt>
      <trkpt lat="46.09401" lon="7.95612">
        <ele>1676</ele>
        <time>2000-01-02T04:44:28.000Z</time>
      </trkpt>
      <trkpt lat="46.09413" lon="7.95608">
        <ele>1673.4</ele>
        <time>2000-01-02T04:44:38.000Z</time>
      </trkpt>
      <trkpt lat="46.09438" lon="7.95601">
        <ele>1676</ele>
        <time>2000-01-02T04:44:48.000Z</time>
      </trkpt>
      <trkpt lat="46.09473" lon="7.95574">
        <ele>1676</ele>
        <time>2000-01-02T04:44:58.000Z</time>
      </trkpt>
      <trkpt lat="46.09491" lon="7.95564">
        <ele>1676</ele>
        <time>2000-01-02T04:45:08.000Z</time>
      </trkpt>
      <trkpt lat="46.09509" lon="7.95547">
        <ele>1679</ele>
        <time>2000-01-02T04:45:18.000Z</time>
      </trkpt>
      <trkpt lat="46.09525" lon="7.95532">
        <ele>1678</ele>
        <time>2000-01-02T04:45:28.000Z</time>
      </trkpt>
      <trkpt lat="46.09535" lon="7.95528">
        <ele>1674.6</ele>
        <time>2000-01-02T04:45:38.000Z</time>
      </trkpt>
      <trkpt lat="46.0956" lon="7.9551">
        <ele>1678</ele>
        <time>2000-01-02T04:45:48.000Z</time>
      </trkpt>
      <trkpt lat="46.09585" lon="7.95504">
        <ele>1679</ele>
        <time>2000-01-02T04:45:58.000Z</time>
      </trkpt>
      <trkpt lat="46.09613" lon="7.95498">
        <ele>1680</ele>
        <time>2000-01-02T04:46:08.000Z</time>
      </trkpt>
      <trkpt lat="46.09626" lon="7.95497">
        <ele>1676</ele>
        <time>2000-01-02T04:46:18.000Z</time>
      </trkpt>
      <trkpt lat="46.09638" lon="7.9549">
        <ele>1681</ele>
        <time>2000-01-02T04:46:28.000Z</time>
      </trkpt>
      <trkpt lat="46.09653" lon="7.9547">
        <ele>1681</ele>
        <time>2000-01-02T04:46:38.000Z</time>
      </trkpt>
      <trkpt lat="46.09664" lon="7.95448">
        <ele>1685</ele>
        <time>2000-01-02T04:46:48.000Z</time>
      </trkpt>
      <trkpt lat="46.09675" lon="7.95423">
        <ele>1687</ele>
        <time>2000-01-02T04:46:58.000Z</time>
      </trkpt>
      <trkpt lat="46.09681" lon="7.95407">
        <ele>1683.3</ele>
        <time>2000-01-02T04:47:08.000Z</time>
      </trkpt>
      <trkpt lat="46.09688" lon="7.95395">
        <ele>1692</ele>
        <time>2000-01-02T04:47:18.000Z</time>
      </trkpt>
      <trkpt lat="46.09697" lon="7.95374">
        <ele>1683.3</ele>
        <time>2000-01-02T04:47:28.000Z</time>
      </trkpt>
      <trkpt lat="46.09705" lon="7.95363">
        <ele>1693</ele>
        <time>2000-01-02T04:47:38.000Z</time>
      </trkpt>
      <trkpt lat="46.09715" lon="7.95353">
        <ele>1682.2</ele>
        <time>2000-01-02T04:47:48.000Z</time>
      </trkpt>
      <trkpt lat="46.09741" lon="7.95311">
        <ele>1693</ele>
        <time>2000-01-02T04:47:58.000Z</time>
      </trkpt>
      <trkpt lat="46.09758" lon="7.95292">
        <ele>1697</ele>
        <time>2000-01-02T04:48:08.000Z</time>
      </trkpt>
      <trkpt lat="46.09768" lon="7.9527">
        <ele>1706</ele>
        <time>2000-01-02T04:48:18.000Z</time>
      </trkpt>
      <trkpt lat="46.098" lon="7.95248">
        <ele>1710</ele>
        <time>2000-01-02T04:48:28.000Z</time>
      </trkpt>
      <trkpt lat="46.09815" lon="7.95235">
        <ele>1690.7</ele>
        <time>2000-01-02T04:48:38.000Z</time>
      </trkpt>
      <trkpt lat="46.09831" lon="7.95219">
        <ele>1711</ele>
        <time>2000-01-02T04:48:48.000Z</time>
      </trkpt>
      <trkpt lat="46.09847" lon="7.95199">
        <ele>1706</ele>
        <time>2000-01-02T04:48:58.000Z</time>
      </trkpt>
      <trkpt lat="46.09863" lon="7.95173">
        <ele>1702</ele>
        <time>2000-01-02T04:49:08.000Z</time>
      </trkpt>
      <trkpt lat="46.09884" lon="7.95158">
        <ele>1703</ele>
        <time>2000-01-02T04:49:18.000Z</time>
      </trkpt>
      <trkpt lat="46.09895" lon="7.9514">
        <ele>1692</ele>
        <time>2000-01-02T04:49:28.000Z</time>
      </trkpt>
      <trkpt lat="46.09902" lon="7.95127">
        <ele>1705</ele>
        <time>2000-01-02T04:49:38.000Z</time>
      </trkpt>
      <trkpt lat="46.09917" lon="7.95101">
        <ele>1711</ele>
        <time>2000-01-02T04:49:48.000Z</time>
      </trkpt>
      <trkpt lat="46.09928" lon="7.95088">
        <ele>1696.1</ele>
        <time>2000-01-02T04:49:58.000Z</time>
      </trkpt>
      <trkpt lat="46.09943" lon="7.95069">
        <ele>1714</ele>
        <time>2000-01-02T04:50:08.000Z</time>
      </trkpt>
      <trkpt lat="46.09955" lon="7.95055">
        <ele>1697.2</ele>
        <time>2000-01-02T04:50:18.000Z</time>
      </trkpt>
      <trkpt lat="46.09965" lon="7.95039">
        <ele>1713</ele>
        <time>2000-01-02T04:50:28.000Z</time>
      </trkpt>
      <trkpt lat="46.09981" lon="7.95021">
        <ele>1713</ele>
        <time>2000-01-02T04:50:38.000Z</time>
      </trkpt>
      <trkpt lat="46.09995" lon="7.95001">
        <ele>1714</ele>
        <time>2000-01-02T04:50:48.000Z</time>
      </trkpt>
      <trkpt lat="46.10002" lon="7.94982">
        <ele>1702.7</ele>
        <time>2000-01-02T04:50:58.000Z</time>
      </trkpt>
      <trkpt lat="46.1001" lon="7.94967">
        <ele>1716</ele>
        <time>2000-01-02T04:51:08.000Z</time>
      </trkpt>
      <trkpt lat="46.10017" lon="7.94957">
        <ele>1702.7</ele>
        <time>2000-01-02T04:51:18.000Z</time>
      </trkpt>
      <trkpt lat="46.10026" lon="7.94941">
        <ele>1715</ele>
        <time>2000-01-02T04:51:28.000Z</time>
      </trkpt>
      <trkpt lat="46.1005" lon="7.94911">
        <ele>1717</ele>
        <time>2000-01-02T04:51:38.000Z</time>
      </trkpt>
      <trkpt lat="46.10054" lon="7.94886">
        <ele>1702.7</ele>
        <time>2000-01-02T04:51:48.000Z</time>
      </trkpt>
      <trkpt lat="46.10062" lon="7.9487">
        <ele>1720</ele>
        <time>2000-01-02T04:51:58.000Z</time>
      </trkpt>
      <trkpt lat="46.10065" lon="7.94857">
        <ele>1704.8</ele>
        <time>2000-01-02T04:52:08.000Z</time>
      </trkpt>
      <trkpt lat="46.10086" lon="7.94827">
        <ele>1722</ele>
        <time>2000-01-02T04:52:18.000Z</time>
      </trkpt>
      <trkpt lat="46.10088" lon="7.948">
        <ele>1731</ele>
        <time>2000-01-02T04:52:28.000Z</time>
      </trkpt>
      <trkpt lat="46.1009" lon="7.94781">
        <ele>1709.8</ele>
        <time>2000-01-02T04:52:38.000Z</time>
      </trkpt>
      <trkpt lat="46.10099" lon="7.94769">
        <ele>1730</ele>
        <time>2000-01-02T04:52:48.000Z</time>
      </trkpt>
      <trkpt lat="46.10108" lon="7.94758">
        <ele>1711</ele>
        <time>2000-01-02T04:52:58.000Z</time>
      </trkpt>
      <trkpt lat="46.10117" lon="7.94746">
        <ele>1729</ele>
        <time>2000-01-02T04:53:08.000Z</time>
      </trkpt>
      <trkpt lat="46.10131" lon="7.94723">
        <ele>1727</ele>
        <time>2000-01-02T04:53:18.000Z</time>
      </trkpt>
      <trkpt lat="46.10136" lon="7.94711">
        <ele>1710.4</ele>
        <time>2000-01-02T04:53:28.000Z</time>
      </trkpt>
      <trkpt lat="46.10143" lon="7.94702">
        <ele>1734</ele>
        <time>2000-01-02T04:53:38.000Z</time>
      </trkpt>
      <trkpt lat="46.10148" lon="7.94687">
        <ele>1713.4</ele>
        <time>2000-01-02T04:53:48.000Z</time>
      </trkpt>
      <trkpt lat="46.10158" lon="7.94668">
        <ele>1741</ele>
        <time>2000-01-02T04:53:58.000Z</time>
      </trkpt>
      <trkpt lat="46.10164" lon="7.94653">
        <ele>1718.3</ele>
        <time>2000-01-02T04:54:08.000Z</time>
      </trkpt>
      <trkpt lat="46.10179" lon="7.94633">
        <ele>1741</ele>
        <time>2000-01-02T04:54:18.000Z</time>
      </trkpt>
      <trkpt lat="46.10202" lon="7.94593">
        <ele>1742</ele>
        <time>2000-01-02T04:54:28.000Z</time>
      </trkpt>
      <trkpt lat="46.10211" lon="7.94582">
        <ele>1721.1</ele>
        <time>2000-01-02T04:54:38.000Z</time>
      </trkpt>
      <trkpt lat="46.10219" lon="7.94565">
        <ele>1744</ele>
        <time>2000-01-02T04:54:48.000Z</time>
      </trkpt>
      <trkpt lat="46.10224" lon="7.94547">
        <ele>1720.8</ele>
        <time>2000-01-02T04:54:58.000Z</time>
      </trkpt>
      <trkpt lat="46.10233" lon="7.94528">
        <ele>1745</ele>
        <time>2000-01-02T04:55:08.000Z</time>
      </trkpt>
      <trkpt lat="46.10242" lon="7.94523">
        <ele>1721</ele>
        <time>2000-01-02T04:55:18.000Z</time>
      </trkpt>
      <trkpt lat="46.10247" lon="7.94497">
        <ele>1746</ele>
        <time>2000-01-02T04:55:28.000Z</time>
      </trkpt>
      <trkpt lat="46.10257" lon="7.94479">
        <ele>1723.8</ele>
        <time>2000-01-02T04:55:38.000Z</time>
      </trkpt>
      <trkpt lat="46.10263" lon="7.94463">
        <ele>1745</ele>
        <time>2000-01-02T04:55:48.000Z</time>
      </trkpt>
      <trkpt lat="46.10272" lon="7.9445">
        <ele>1729.2</ele>
        <time>2000-01-02T04:55:58.000Z</time>
      </trkpt>
      <trkpt lat="46.10292" lon="7.94428">
        <ele>1745</ele>
        <time>2000-01-02T04:56:08.000Z</time>
      </trkpt>
      <trkpt lat="46.10302" lon="7.94423">
        <ele>1728.7</ele>
        <time>2000-01-02T04:56:18.000Z</time>
      </trkpt>
      <trkpt lat="46.10311" lon="7.94412">
        <ele>1751</ele>
        <time>2000-01-02T04:56:28.000Z</time>
      </trkpt>
      <trkpt lat="46.10322" lon="7.94395">
        <ele>1731.6</ele>
        <time>2000-01-02T04:56:38.000Z</time>
      </trkpt>
      <trkpt lat="46.10329" lon="7.94381">
        <ele>1757</ele>
        <time>2000-01-02T04:56:48.000Z</time>
      </trkpt>
      <trkpt lat="46.10337" lon="7.94362">
        <ele>1737.9</ele>
        <time>2000-01-02T04:56:58.000Z</time>
      </trkpt>
      <trkpt lat="46.10357" lon="7.94337">
        <ele>1763</ele>
        <time>2000-01-02T04:57:08.000Z</time>
      </trkpt>
      <trkpt lat="46.10365" lon="7.94322">
        <ele>1739.7</ele>
        <time>2000-01-02T04:57:18.000Z</time>
      </trkpt>
      <trkpt lat="46.10377" lon="7.94313">
        <ele>1763</ele>
        <time>2000-01-02T04:57:28.000Z</time>
      </trkpt>
      <trkpt lat="46.10387" lon="7.94298">
        <ele>1741.4</ele>
        <time>2000-01-02T04:57:38.000Z</time>
      </trkpt>
      <trkpt lat="46.10396" lon="7.94292">
        <ele>1766</ele>
        <time>2000-01-02T04:57:48.000Z</time>
      </trkpt>
      <trkpt lat="46.10405" lon="7.94276">
        <ele>1743.4</ele>
        <time>2000-01-02T04:57:58.000Z</time>
      </trkpt>
      <trkpt lat="46.10419" lon="7.94259">
        <ele>1769</ele>
        <time>2000-01-02T04:58:08.000Z</time>
      </trkpt>
      <trkpt lat="46.10437" lon="7.94234">
        <ele>1769</ele>
        <time>2000-01-02T04:58:18.000Z</time>
      </trkpt>
      <trkpt lat="46.10447" lon="7.94227">
        <ele>1748.4</ele>
        <time>2000-01-02T04:58:28.000Z</time>
      </trkpt>
      <trkpt lat="46.10471" lon="7.94202">
        <ele>1769</ele>
        <time>2000-01-02T04:58:38.000Z</time>
      </trkpt>
      <trkpt lat="46.10476" lon="7.94192">
        <ele>1751</ele>
        <time>2000-01-02T04:58:48.000Z</time>
      </trkpt>
      <trkpt lat="46.10492" lon="7.94175">
        <ele>1769</ele>
        <time>2000-01-02T04:58:58.000Z</time>
      </trkpt>
      <trkpt lat="46.10503" lon="7.94156">
        <ele>1755.4</ele>
        <time>2000-01-02T04:59:08.000Z</time>
      </trkpt>
      <trkpt lat="46.10507" lon="7.94143">
        <ele>1773</ele>
        <time>2000-01-02T04:59:18.000Z</time>
      </trkpt>
      <trkpt lat="46.10515" lon="7.94126">
        <ele>1758.2</ele>
        <time>2000-01-02T04:59:28.000Z</time>
      </trkpt>
      <trkpt lat="46.10537" lon="7.94088">
        <ele>1786</ele>
        <time>2000-01-02T04:59:38.000Z</time>
      </trkpt>
      <trkpt lat="46.10551" lon="7.94075">
        <ele>1763.7</ele>
        <time>2000-01-02T04:59:48.000Z</time>
      </trkpt>
      <trkpt lat="46.10563" lon="7.94068">
        <ele>1786</ele>
        <time>2000-01-02T04:59:58.000Z</time>
      </trkpt>
      <trkpt lat="46.10573" lon="7.94056">
        <ele>1765.8</ele>
        <time>2000-01-02T05:00:08.000Z</time>
      </trkpt>
      <trkpt lat="46.10591" lon="7.94055">
        <ele>1782</ele>
        <time>2000-01-02T05:00:18.000Z</time>
      </trkpt>
      <trkpt lat="46.10603" lon="7.94059">
        <ele>1764.9</ele>
        <time>2000-01-02T05:00:28.000Z</time>
      </trkpt>
      <trkpt lat="46.10622" lon="7.94059">
        <ele>1783</ele>
        <time>2000-01-02T05:00:38.000Z</time>
      </trkpt>
      <trkpt lat="46.10633" lon="7.9405">
        <ele>1762.9</ele>
        <time>2000-01-02T05:00:48.000Z</time>
      </trkpt>
      <trkpt lat="46.10635" lon="7.94037">
        <ele>1784</ele>
        <time>2000-01-02T05:00:58.000Z</time>
      </trkpt>
      <trkpt lat="46.10644" lon="7.94023">
        <ele>1767.9</ele>
        <time>2000-01-02T05:01:08.000Z</time>
      </trkpt>
      <trkpt lat="46.10649" lon="7.94006">
        <ele>1790</ele>
        <time>2000-01-02T05:01:18.000Z</time>
      </trkpt>
      <trkpt lat="46.1065" lon="7.93984">
        <ele>1773.3</ele>
        <time>2000-01-02T05:01:28.000Z</time>
      </trkpt>
      <trkpt lat="46.10656" lon="7.93965">
        <ele>1791</ele>
        <time>2000-01-02T05:01:38.000Z</time>
      </trkpt>
      <trkpt lat="46.10668" lon="7.9394">
        <ele>1792</ele>
        <time>2000-01-02T05:01:48.000Z</time>
      </trkpt>
      <trkpt lat="46.10671" lon="7.93919">
        <ele>1773.9</ele>
        <time>2000-01-02T05:01:58.000Z</time>
      </trkpt>
      <trkpt lat="46.10679" lon="7.93903">
        <ele>1799</ele>
        <time>2000-01-02T05:02:08.000Z</time>
      </trkpt>
      <trkpt lat="46.10682" lon="7.93888">
        <ele>1776.9</ele>
        <time>2000-01-02T05:02:18.000Z</time>
      </trkpt>
      <trkpt lat="46.10688" lon="7.93869">
        <ele>1798</ele>
        <time>2000-01-02T05:02:28.000Z</time>
      </trkpt>
      <trkpt lat="46.10691" lon="7.93853">
        <ele>1779</ele>
        <time>2000-01-02T05:02:38.000Z</time>
      </trkpt>
      <trkpt lat="46.10706" lon="7.93838">
        <ele>1797</ele>
        <time>2000-01-02T05:02:48.000Z</time>
      </trkpt>
      <trkpt lat="46.10714" lon="7.93806">
        <ele>1797</ele>
        <time>2000-01-02T05:02:58.000Z</time>
      </trkpt>
      <trkpt lat="46.10716" lon="7.93781">
        <ele>1782.5</ele>
        <time>2000-01-02T05:03:08.000Z</time>
      </trkpt>
      <trkpt lat="46.10714" lon="7.93764">
        <ele>1798</ele>
        <time>2000-01-02T05:03:18.000Z</time>
      </trkpt>
      <trkpt lat="46.10719" lon="7.93743">
        <ele>1782.5</ele>
        <time>2000-01-02T05:03:28.000Z</time>
      </trkpt>
      <trkpt lat="46.10727" lon="7.9373">
        <ele>1796</ele>
        <time>2000-01-02T05:03:38.000Z</time>
      </trkpt>
      <trkpt lat="46.10731" lon="7.93712">
        <ele>1781.5</ele>
        <time>2000-01-02T05:03:48.000Z</time>
      </trkpt>
      <trkpt lat="46.10741" lon="7.937">
        <ele>1801</ele>
        <time>2000-01-02T05:03:58.000Z</time>
      </trkpt>
      <trkpt lat="46.10735" lon="7.93674">
        <ele>1807</ele>
        <time>2000-01-02T05:04:08.000Z</time>
      </trkpt>
      <trkpt lat="46.10732" lon="7.93653">
        <ele>1789.5</ele>
        <time>2000-01-02T05:04:18.000Z</time>
      </trkpt>
      <trkpt lat="46.10736" lon="7.9363">
        <ele>1807</ele>
        <time>2000-01-02T05:04:28.000Z</time>
      </trkpt>
      <trkpt lat="46.10742" lon="7.93607">
        <ele>1787.3</ele>
        <time>2000-01-02T05:04:38.000Z</time>
      </trkpt>
      <trkpt lat="46.10742" lon="7.93576">
        <ele>1806</ele>
        <time>2000-01-02T05:04:48.000Z</time>
      </trkpt>
      <trkpt lat="46.1074" lon="7.93561">
        <ele>1789.1</ele>
        <time>2000-01-02T05:04:58.000Z</time>
      </trkpt>
      <trkpt lat="46.1074" lon="7.93521">
        <ele>1806</ele>
        <time>2000-01-02T05:05:08.000Z</time>
      </trkpt>
      <trkpt lat="46.10739" lon="7.93506">
        <ele>1791.2</ele>
        <time>2000-01-02T05:05:18.000Z</time>
      </trkpt>
      <trkpt lat="46.10735" lon="7.93488">
        <ele>1809</ele>
        <time>2000-01-02T05:05:28.000Z</time>
      </trkpt>
      <trkpt lat="46.10729" lon="7.93471">
        <ele>1795.9</ele>
        <time>2000-01-02T05:05:38.000Z</time>
      </trkpt>
      <trkpt lat="46.10722" lon="7.93445">
        <ele>1806</ele>
        <time>2000-01-02T05:05:48.000Z</time>
      </trkpt>
      <trkpt lat="46.10721" lon="7.93425">
        <ele>1793.7</ele>
        <time>2000-01-02T05:05:58.000Z</time>
      </trkpt>
      <trkpt lat="46.10726" lon="7.93385">
        <ele>1803</ele>
        <time>2000-01-02T05:06:08.000Z</time>
      </trkpt>
      <trkpt lat="46.10731" lon="7.93366">
        <ele>1792.7</ele>
        <time>2000-01-02T05:06:18.000Z</time>
      </trkpt>
      <trkpt lat="46.10736" lon="7.9334">
        <ele>1796</ele>
        <time>2000-01-02T05:06:28.000Z</time>
      </trkpt>
      <trkpt lat="46.10737" lon="7.93322">
        <ele>1795.2</ele>
        <time>2000-01-02T05:06:38.000Z</time>
      </trkpt>
      <trkpt lat="46.10738" lon="7.93301">
        <ele>1796</ele>
        <time>2000-01-02T05:06:48.000Z</time>
      </trkpt>
      <trkpt lat="46.10737" lon="7.93287">
        <ele>1796.9</ele>
        <time>2000-01-02T05:06:58.000Z</time>
      </trkpt>
      <trkpt lat="46.10739" lon="7.93271">
        <ele>1796</ele>
        <time>2000-01-02T05:07:08.000Z</time>
      </trkpt>
      <trkpt lat="46.1074" lon="7.93249">
        <ele>1798.2</ele>
        <time>2000-01-02T05:07:18.000Z</time>
      </trkpt>
      <trkpt lat="46.10741" lon="7.93206">
        <ele>1798</ele>
        <time>2000-01-02T05:07:28.000Z</time>
      </trkpt>
      <trkpt lat="46.10747" lon="7.93181">
        <ele>1797.2</ele>
        <time>2000-01-02T05:07:38.000Z</time>
      </trkpt>
      <trkpt lat="46.1075" lon="7.93164">
        <ele>1799</ele>
        <time>2000-01-02T05:07:48.000Z</time>
      </trkpt>
      <trkpt lat="46.10735" lon="7.93133">
        <ele>1801</ele>
        <time>2000-01-02T05:07:58.000Z</time>
      </trkpt>
      <trkpt lat="46.10725" lon="7.93114">
        <ele>1800.2</ele>
        <time>2000-01-02T05:08:08.000Z</time>
      </trkpt>
      <trkpt lat="46.10714" lon="7.93101">
        <ele>1806</ele>
        <time>2000-01-02T05:08:18.000Z</time>
      </trkpt>
      <trkpt lat="46.10704" lon="7.93083">
        <ele>1799.5</ele>
        <time>2000-01-02T05:08:28.000Z</time>
      </trkpt>
      <trkpt lat="46.1069" lon="7.93049">
        <ele>1807</ele>
        <time>2000-01-02T05:08:38.000Z</time>
      </trkpt>
      <trkpt lat="46.10672" lon="7.93024">
        <ele>1810</ele>
        <time>2000-01-02T05:08:48.000Z</time>
      </trkpt>
      <trkpt lat="46.10665" lon="7.93014">
        <ele>1794.1</ele>
        <time>2000-01-02T05:08:58.000Z</time>
      </trkpt>
      <trkpt lat="46.10656" lon="7.92997">
        <ele>1807</ele>
        <time>2000-01-02T05:09:08.000Z</time>
      </trkpt>
      <trkpt lat="46.10654" lon="7.92968">
        <ele>1804</ele>
        <time>2000-01-02T05:09:18.000Z</time>
      </trkpt>
      <trkpt lat="46.10658" lon="7.92952">
        <ele>1790</ele>
        <time>2000-01-02T05:09:28.000Z</time>
      </trkpt>
      <trkpt lat="46.10659" lon="7.92931">
        <ele>1800</ele>
        <time>2000-01-02T05:09:38.000Z</time>
      </trkpt>
      <trkpt lat="46.10654" lon="7.92912">
        <ele>1788.4</ele>
        <time>2000-01-02T05:09:48.000Z</time>
      </trkpt>
      <trkpt lat="46.10646" lon="7.92888">
        <ele>1795</ele>
        <time>2000-01-02T05:09:58.000Z</time>
      </trkpt>
      <trkpt lat="46.10638" lon="7.92865">
        <ele>1786</ele>
        <time>2000-01-02T05:10:08.000Z</time>
      </trkpt>
      <trkpt lat="46.10631" lon="7.92853">
        <ele>1789</ele>
        <time>2000-01-02T05:10:18.000Z</time>
      </trkpt>
      <trkpt lat="46.10638" lon="7.92836">
        <ele>1781.4</ele>
        <time>2000-01-02T05:10:28.000Z</time>
      </trkpt>
      <trkpt lat="46.10653" lon="7.92842">
        <ele>1785</ele>
        <time>2000-01-02T05:10:38.000Z</time>
      </trkpt>
      <trkpt lat="46.10651" lon="7.92826">
        <ele>1776.1</ele>
        <time>2000-01-02T05:10:48.000Z</time>
      </trkpt>
      <trkpt lat="46.10657" lon="7.92814">
        <ele>1779</ele>
        <time>2000-01-02T05:10:58.000Z</time>
      </trkpt>
      <trkpt lat="46.10669" lon="7.92799">
        <ele>1764.9</ele>
        <time>2000-01-02T05:11:08.000Z</time>
      </trkpt>
      <trkpt lat="46.10681" lon="7.92778">
        <ele>1778</ele>
        <time>2000-01-02T05:11:18.000Z</time>
      </trkpt>
      <trkpt lat="46.10694" lon="7.92759">
        <ele>1772.9</ele>
        <time>2000-01-02T05:11:28.000Z</time>
      </trkpt>
      <trkpt lat="46.10705" lon="7.92735">
        <ele>1777</ele>
        <time>2000-01-02T05:11:38.000Z</time>
      </trkpt>
      <trkpt lat="46.10717" lon="7.92713">
        <ele>1777</ele>
        <time>2000-01-02T05:11:48.000Z</time>
      </trkpt>
      <trkpt lat="46.10727" lon="7.92703">
        <ele>1775.3</ele>
        <time>2000-01-02T05:11:58.000Z</time>
      </trkpt>
      <trkpt lat="46.10737" lon="7.92677">
        <ele>1780</ele>
        <time>2000-01-02T05:12:08.000Z</time>
      </trkpt>
      <trkpt lat="46.10742" lon="7.92656">
        <ele>1778.6</ele>
        <time>2000-01-02T05:12:18.000Z</time>
      </trkpt>
      <trkpt lat="46.10751" lon="7.92644">
        <ele>1785</ele>
        <time>2000-01-02T05:12:28.000Z</time>
      </trkpt>
      <trkpt lat="46.1077" lon="7.92625">
        <ele>1789</ele>
        <time>2000-01-02T05:12:38.000Z</time>
      </trkpt>
      <trkpt lat="46.10766" lon="7.92607">
        <ele>1782.8</ele>
        <time>2000-01-02T05:12:48.000Z</time>
      </trkpt>
      <trkpt lat="46.10756" lon="7.92592">
        <ele>1789</ele>
        <time>2000-01-02T05:12:58.000Z</time>
      </trkpt>
      <trkpt lat="46.10747" lon="7.92581">
        <ele>1784</ele>
        <time>2000-01-02T05:13:08.000Z</time>
      </trkpt>
      <trkpt lat="46.10739" lon="7.92566">
        <ele>1789</ele>
        <time>2000-01-02T05:13:18.000Z</time>
      </trkpt>
      <trkpt lat="46.10739" lon="7.92544">
        <ele>1786.8</ele>
        <time>2000-01-02T05:13:28.000Z</time>
      </trkpt>
      <trkpt lat="46.10735" lon="7.92526">
        <ele>1790</ele>
        <time>2000-01-02T05:13:38.000Z</time>
      </trkpt>
      <trkpt lat="46.10734" lon="7.92513">
        <ele>1789.1</ele>
        <time>2000-01-02T05:13:48.000Z</time>
      </trkpt>
      <trkpt lat="46.10744" lon="7.92532">
        <ele>1792</ele>
        <time>2000-01-02T05:13:58.000Z</time>
      </trkpt>
      <trkpt lat="46.10765" lon="7.92535">
        <ele>1792</ele>
        <time>2000-01-02T05:14:08.000Z</time>
      </trkpt>
      <trkpt lat="46.10777" lon="7.92538">
        <ele>1787.3</ele>
        <time>2000-01-02T05:14:18.000Z</time>
      </trkpt>
      <trkpt lat="46.10799" lon="7.9255">
        <ele>1792</ele>
        <time>2000-01-02T05:14:28.000Z</time>
      </trkpt>
      <trkpt lat="46.1081" lon="7.92566">
        <ele>1788.8</ele>
        <time>2000-01-02T05:14:38.000Z</time>
      </trkpt>
      <trkpt lat="46.10819" lon="7.92585">
        <ele>1792</ele>
        <time>2000-01-02T05:14:48.000Z</time>
      </trkpt>
      <trkpt lat="46.10829" lon="7.9261">
        <ele>1792</ele>
        <time>2000-01-02T05:14:58.000Z</time>
      </trkpt>
      <trkpt lat="46.10844" lon="7.9264">
        <ele>1794</ele>
        <time>2000-01-02T05:15:08.000Z</time>
      </trkpt>
      <trkpt lat="46.10855" lon="7.9266">
        <ele>1791.3</ele>
        <time>2000-01-02T05:15:18.000Z</time>
      </trkpt>
      <trkpt lat="46.10877" lon="7.92692">
        <ele>1795</ele>
        <time>2000-01-02T05:15:28.000Z</time>
      </trkpt>
      <trkpt lat="46.10891" lon="7.92729">
        <ele>1801</ele>
        <time>2000-01-02T05:15:38.000Z</time>
      </trkpt>
      <trkpt lat="46.10892" lon="7.92745">
        <ele>1798.5</ele>
        <time>2000-01-02T05:15:48.000Z</time>
      </trkpt>
      <trkpt lat="46.10905" lon="7.92764">
        <ele>1801</ele>
        <time>2000-01-02T05:15:58.000Z</time>
      </trkpt>
      <trkpt lat="46.1092" lon="7.92791">
        <ele>1802</ele>
        <time>2000-01-02T05:16:08.000Z</time>
      </trkpt>
      <trkpt lat="46.10951" lon="7.92822">
        <ele>1802</ele>
        <time>2000-01-02T05:16:18.000Z</time>
      </trkpt>
      <trkpt lat="46.10985" lon="7.92844">
        <ele>1803</ele>
        <time>2000-01-02T05:16:28.000Z</time>
      </trkpt>
      <trkpt lat="46.11004" lon="7.92847">
        <ele>1804</ele>
        <time>2000-01-02T05:16:38.000Z</time>
      </trkpt>
      <trkpt lat="46.11024" lon="7.92848">
        <ele>1804</ele>
        <time>2000-01-02T05:16:48.000Z</time>
      </trkpt>
      <trkpt lat="46.11033" lon="7.9285">
        <ele>1802.3</ele>
        <time>2000-01-02T05:16:58.000Z</time>
      </trkpt>
      <trkpt lat="46.11046" lon="7.92853">
        <ele>1805</ele>
        <time>2000-01-02T05:17:08.000Z</time>
      </trkpt>
      <trkpt lat="46.11058" lon="7.92851">
        <ele>1803.5</ele>
        <time>2000-01-02T05:17:18.000Z</time>
      </trkpt>
      <trkpt lat="46.11072" lon="7.92859">
        <ele>1806</ele>
        <time>2000-01-02T05:17:28.000Z</time>
      </trkpt>
      <trkpt lat="46.11079" lon="7.92877">
        <ele>1803.8</ele>
        <time>2000-01-02T05:17:38.000Z</time>
      </trkpt>
      <trkpt lat="46.11081" lon="7.92893">
        <ele>1807</ele>
        <time>2000-01-02T05:17:48.000Z</time>
      </trkpt>
      <trkpt lat="46.11091" lon="7.92923">
        <ele>1809</ele>
        <time>2000-01-02T05:17:58.000Z</time>
      </trkpt>
      <trkpt lat="46.11101" lon="7.92939">
        <ele>1806.3</ele>
        <time>2000-01-02T05:18:08.000Z</time>
      </trkpt>
      <trkpt lat="46.11107" lon="7.92952">
        <ele>1809</ele>
        <time>2000-01-02T05:18:18.000Z</time>
      </trkpt>
      <trkpt lat="46.11122" lon="7.92972">
        <ele>1813</ele>
        <time>2000-01-02T05:18:28.000Z</time>
      </trkpt>
      <trkpt lat="46.11134" lon="7.92983">
        <ele>1810.5</ele>
        <time>2000-01-02T05:18:38.000Z</time>
      </trkpt>
      <trkpt lat="46.11158" lon="7.93005">
        <ele>1815</ele>
        <time>2000-01-02T05:18:48.000Z</time>
      </trkpt>
      <trkpt lat="46.11167" lon="7.93011">
        <ele>1811.8</ele>
        <time>2000-01-02T05:18:58.000Z</time>
      </trkpt>
      <trkpt lat="46.11177" lon="7.9302">
        <ele>1818</ele>
        <time>2000-01-02T05:19:08.000Z</time>
      </trkpt>
      <trkpt lat="46.11196" lon="7.93037">
        <ele>1818</ele>
        <time>2000-01-02T05:19:18.000Z</time>
      </trkpt>
      <trkpt lat="46.11212" lon="7.93053">
        <ele>1816</ele>
        <time>2000-01-02T05:19:28.000Z</time>
      </trkpt>
      <trkpt lat="46.11228" lon="7.93066">
        <ele>1811.5</ele>
        <time>2000-01-02T05:19:38.000Z</time>
      </trkpt>
      <trkpt lat="46.11244" lon="7.93082">
        <ele>1815</ele>
        <time>2000-01-02T05:19:48.000Z</time>
      </trkpt>
      <trkpt lat="46.1126" lon="7.93095">
        <ele>1811.3</ele>
        <time>2000-01-02T05:19:58.000Z</time>
      </trkpt>
      <trkpt lat="46.11272" lon="7.93106">
        <ele>1816</ele>
        <time>2000-01-02T05:20:08.000Z</time>
      </trkpt>
      <trkpt lat="46.11286" lon="7.93121">
        <ele>1811</ele>
        <time>2000-01-02T05:20:18.000Z</time>
      </trkpt>
      <trkpt lat="46.11304" lon="7.93129">
        <ele>1815</ele>
        <time>2000-01-02T05:20:28.000Z</time>
      </trkpt>
      <trkpt lat="46.11323" lon="7.93139">
        <ele>1815</ele>
        <time>2000-01-02T05:20:38.000Z</time>
      </trkpt>
      <trkpt lat="46.11356" lon="7.93151">
        <ele>1815</ele>
        <time>2000-01-02T05:20:48.000Z</time>
      </trkpt>
      <trkpt lat="46.11375" lon="7.93161">
        <ele>1816</ele>
        <time>2000-01-02T05:20:58.000Z</time>
      </trkpt>
      <trkpt lat="46.11393" lon="7.93173">
        <ele>1817</ele>
        <time>2000-01-02T05:21:08.000Z</time>
      </trkpt>
      <trkpt lat="46.11403" lon="7.93178">
        <ele>1815.5</ele>
        <time>2000-01-02T05:21:18.000Z</time>
      </trkpt>
      <trkpt lat="46.11414" lon="7.93185">
        <ele>1818</ele>
        <time>2000-01-02T05:21:28.000Z</time>
      </trkpt>
      <trkpt lat="46.1143" lon="7.93188">
        <ele>1818.1</ele>
        <time>2000-01-02T05:21:38.000Z</time>
      </trkpt>
      <trkpt lat="46.11444" lon="7.93192">
        <ele>1820</ele>
        <time>2000-01-02T05:21:48.000Z</time>
      </trkpt>
      <trkpt lat="46.11462" lon="7.93196">
        <ele>1820.7</ele>
        <time>2000-01-02T05:21:58.000Z</time>
      </trkpt>
      <trkpt lat="46.11474" lon="7.93203">
        <ele>1821</ele>
        <time>2000-01-02T05:22:08.000Z</time>
      </trkpt>
      <trkpt lat="46.11498" lon="7.93221">
        <ele>1820</ele>
        <time>2000-01-02T05:22:18.000Z</time>
      </trkpt>
      <trkpt lat="46.11524" lon="7.93243">
        <ele>1820</ele>
        <time>2000-01-02T05:22:28.000Z</time>
      </trkpt>
      <trkpt lat="46.11553" lon="7.93247">
        <ele>1820</ele>
        <time>2000-01-02T05:22:38.000Z</time>
      </trkpt>
      <trkpt lat="46.11573" lon="7.93244">
        <ele>1820</ele>
        <time>2000-01-02T05:22:48.000Z</time>
      </trkpt>
      <trkpt lat="46.11611" lon="7.93241">
        <ele>1820</ele>
        <time>2000-01-02T05:22:58.000Z</time>
      </trkpt>
      <trkpt lat="46.11631" lon="7.93233">
        <ele>1820</ele>
        <time>2000-01-02T05:23:08.000Z</time>
      </trkpt>
      <trkpt lat="46.11641" lon="7.93218">
        <ele>1818.5</ele>
        <time>2000-01-02T05:23:18.000Z</time>
      </trkpt>
      <trkpt lat="46.11658" lon="7.93211">
        <ele>1822</ele>
        <time>2000-01-02T05:23:28.000Z</time>
      </trkpt>
      <trkpt lat="46.1167" lon="7.93203">
        <ele>1820.1</ele>
        <time>2000-01-02T05:23:38.000Z</time>
      </trkpt>
      <trkpt lat="46.11682" lon="7.93185">
        <ele>1825</ele>
        <time>2000-01-02T05:23:48.000Z</time>
      </trkpt>
      <trkpt lat="46.11693" lon="7.93173">
        <ele>1823.8</ele>
        <time>2000-01-02T05:23:58.000Z</time>
      </trkpt>
      <trkpt lat="46.1171" lon="7.9316">
        <ele>1836</ele>
        <time>2000-01-02T05:24:08.000Z</time>
      </trkpt>
      <trkpt lat="46.11712" lon="7.93141">
        <ele>1826.9</ele>
        <time>2000-01-02T05:24:18.000Z</time>
      </trkpt>
      <trkpt lat="46.1171" lon="7.93126">
        <ele>1839</ele>
        <time>2000-01-02T05:24:28.000Z</time>
      </trkpt>
      <trkpt lat="46.11706" lon="7.9311">
        <ele>1828.9</ele>
        <time>2000-01-02T05:24:38.000Z</time>
      </trkpt>
      <trkpt lat="46.117" lon="7.93095">
        <ele>1843</ele>
        <time>2000-01-02T05:24:48.000Z</time>
      </trkpt>
      <trkpt lat="46.11692" lon="7.93083">
        <ele>1831.4</ele>
        <time>2000-01-02T05:24:58.000Z</time>
      </trkpt>
      <trkpt lat="46.11684" lon="7.93062">
        <ele>1844</ele>
        <time>2000-01-02T05:25:08.000Z</time>
      </trkpt>
      <trkpt lat="46.11684" lon="7.93043">
        <ele>1832.9</ele>
        <time>2000-01-02T05:25:18.000Z</time>
      </trkpt>
      <trkpt lat="46.11696" lon="7.93016">
        <ele>1844</ele>
        <time>2000-01-02T05:25:28.000Z</time>
      </trkpt>
      <trkpt lat="46.11708" lon="7.92992">
        <ele>1844</ele>
        <time>2000-01-02T05:25:38.000Z</time>
      </trkpt>
      <trkpt lat="46.11722" lon="7.92985">
        <ele>1840.4</ele>
        <time>2000-01-02T05:25:48.000Z</time>
      </trkpt>
      <trkpt lat="46.11736" lon="7.92982">
        <ele>1845</ele>
        <time>2000-01-02T05:25:58.000Z</time>
      </trkpt>
      <trkpt lat="46.11752" lon="7.92981">
        <ele>1843.5</ele>
        <time>2000-01-02T05:26:08.000Z</time>
      </trkpt>
      <trkpt lat="46.11771" lon="7.92984">
        <ele>1847</ele>
        <time>2000-01-02T05:26:18.000Z</time>
      </trkpt>
      <trkpt lat="46.11801" lon="7.92975">
        <ele>1850</ele>
        <time>2000-01-02T05:26:28.000Z</time>
      </trkpt>
      <trkpt lat="46.11816" lon="7.92973">
        <ele>1845.9</ele>
        <time>2000-01-02T05:26:38.000Z</time>
      </trkpt>
      <trkpt lat="46.11831" lon="7.92967">
        <ele>1852</ele>
        <time>2000-01-02T05:26:48.000Z</time>
      </trkpt>
      <trkpt lat="46.11845" lon="7.9296">
        <ele>1849</ele>
        <time>2000-01-02T05:26:58.000Z</time>
      </trkpt>
      <trkpt lat="46.11867" lon="7.9295">
        <ele>1857</ele>
        <time>2000-01-02T05:27:08.000Z</time>
      </trkpt>
      <trkpt lat="46.11877" lon="7.92947">
        <ele>1852</ele>
        <time>2000-01-02T05:27:18.000Z</time>
      </trkpt>
      <trkpt lat="46.1189" lon="7.92942">
        <ele>1859</ele>
        <time>2000-01-02T05:27:28.000Z</time>
      </trkpt>
      <trkpt lat="46.11906" lon="7.92936">
        <ele>1854.3</ele>
        <time>2000-01-02T05:27:38.000Z</time>
      </trkpt>
      <trkpt lat="46.11939" lon="7.92918">
        <ele>1862</ele>
        <time>2000-01-02T05:27:48.000Z</time>
      </trkpt>
      <trkpt lat="46.11953" lon="7.92918">
        <ele>1857.4</ele>
        <time>2000-01-02T05:27:58.000Z</time>
      </trkpt>
      <trkpt lat="46.11986" lon="7.92908">
        <ele>1865</ele>
        <time>2000-01-02T05:28:08.000Z</time>
      </trkpt>
      <trkpt lat="46.12005" lon="7.9289">
        <ele>1866</ele>
        <time>2000-01-02T05:28:18.000Z</time>
      </trkpt>
      <trkpt lat="46.12018" lon="7.92881">
        <ele>1865.6</ele>
        <time>2000-01-02T05:28:28.000Z</time>
      </trkpt>
      <trkpt lat="46.12044" lon="7.92869">
        <ele>1869</ele>
        <time>2000-01-02T05:28:38.000Z</time>
      </trkpt>
      <trkpt lat="46.12057" lon="7.92868">
        <ele>1866.7</ele>
        <time>2000-01-02T05:28:48.000Z</time>
      </trkpt>
      <trkpt lat="46.12088" lon="7.92863">
        <ele>1872</ele>
        <time>2000-01-02T05:28:58.000Z</time>
      </trkpt>
      <trkpt lat="46.12098" lon="7.9286">
        <ele>1868</ele>
        <time>2000-01-02T05:29:08.000Z</time>
      </trkpt>
      <trkpt lat="46.12119" lon="7.92853">
        <ele>1875</ele>
        <time>2000-01-02T05:29:18.000Z</time>
      </trkpt>
      <trkpt lat="46.12129" lon="7.92848">
        <ele>1871.1</ele>
        <time>2000-01-02T05:29:28.000Z</time>
      </trkpt>
      <trkpt lat="46.12148" lon="7.92844">
        <ele>1879</ele>
        <time>2000-01-02T05:29:38.000Z</time>
      </trkpt>
      <trkpt lat="46.12165" lon="7.92838">
        <ele>1871.7</ele>
        <time>2000-01-02T05:29:48.000Z</time>
      </trkpt>
      <trkpt lat="46.12183" lon="7.92835">
        <ele>1882</ele>
        <time>2000-01-02T05:29:58.000Z</time>
      </trkpt>
      <trkpt lat="46.12195" lon="7.92832">
        <ele>1874.4</ele>
        <time>2000-01-02T05:30:08.000Z</time>
      </trkpt>
      <trkpt lat="46.12223" lon="7.92806">
        <ele>1883</ele>
        <time>2000-01-02T05:30:18.000Z</time>
      </trkpt>
      <trkpt lat="46.12242" lon="7.92793">
        <ele>1882</ele>
        <time>2000-01-02T05:30:28.000Z</time>
      </trkpt>
      <trkpt lat="46.12258" lon="7.92783">
        <ele>1880.1</ele>
        <time>2000-01-02T05:30:38.000Z</time>
      </trkpt>
      <trkpt lat="46.12271" lon="7.92776">
        <ele>1882</ele>
        <time>2000-01-02T05:30:48.000Z</time>
      </trkpt>
      <trkpt lat="46.12279" lon="7.92767">
        <ele>1880</ele>
        <time>2000-01-02T05:30:58.000Z</time>
      </trkpt>
      <trkpt lat="46.12291" lon="7.92747">
        <ele>1884</ele>
        <time>2000-01-02T05:31:08.000Z</time>
      </trkpt>
      <trkpt lat="46.12304" lon="7.92731">
        <ele>1883.8</ele>
        <time>2000-01-02T05:31:18.000Z</time>
      </trkpt>
      <trkpt lat="46.12314" lon="7.92724">
        <ele>1886</ele>
        <time>2000-01-02T05:31:28.000Z</time>
      </trkpt>
      <trkpt lat="46.12325" lon="7.92718">
        <ele>1885.7</ele>
        <time>2000-01-02T05:31:38.000Z</time>
      </trkpt>
      <trkpt lat="46.12343" lon="7.92717">
        <ele>1888</ele>
        <time>2000-01-02T05:31:48.000Z</time>
      </trkpt>
      <trkpt lat="46.12353" lon="7.92714">
        <ele>1886.7</ele>
        <time>2000-01-02T05:31:58.000Z</time>
      </trkpt>
      <trkpt lat="46.12361" lon="7.92708">
        <ele>1891</ele>
        <time>2000-01-02T05:32:08.000Z</time>
      </trkpt>
      <trkpt lat="46.12352" lon="7.92693">
        <ele>1889.4</ele>
        <time>2000-01-02T05:32:18.000Z</time>
      </trkpt>
      <trkpt lat="46.12311" lon="7.92694">
        <ele>1897</ele>
        <time>2000-01-02T05:32:28.000Z</time>
      </trkpt>
      <trkpt lat="46.12298" lon="7.92699">
        <ele>1890.2</ele>
        <time>2000-01-02T05:32:38.000Z</time>
      </trkpt>
      <trkpt lat="46.12302" lon="7.9268">
        <ele>1911</ele>
        <time>2000-01-02T05:32:48.000Z</time>
      </trkpt>
      <trkpt lat="46.12304" lon="7.92662">
        <ele>1902.2</ele>
        <time>2000-01-02T05:32:58.000Z</time>
      </trkpt>
      <trkpt lat="46.12312" lon="7.92653">
        <ele>1923</ele>
        <time>2000-01-02T05:33:08.000Z</time>
      </trkpt>
      <trkpt lat="46.1233" lon="7.92637">
        <ele>1932</ele>
        <time>2000-01-02T05:33:18.000Z</time>
      </trkpt>
      <trkpt lat="46.1234" lon="7.92628">
        <ele>1911.8</ele>
        <time>2000-01-02T05:33:28.000Z</time>
      </trkpt>
      <trkpt lat="46.12345" lon="7.92617">
        <ele>1938</ele>
        <time>2000-01-02T05:33:38.000Z</time>
      </trkpt>
      <trkpt lat="46.12353" lon="7.92604">
        <ele>1919.2</ele>
        <time>2000-01-02T05:33:48.000Z</time>
      </trkpt>
      <trkpt lat="46.12362" lon="7.92595">
        <ele>1938</ele>
        <time>2000-01-02T05:33:58.000Z</time>
      </trkpt>
      <trkpt lat="46.12373" lon="7.92589">
        <ele>1922.1</ele>
        <time>2000-01-02T05:34:08.000Z</time>
      </trkpt>
      <trkpt lat="46.12389" lon="7.9258">
        <ele>1934</ele>
        <time>2000-01-02T05:34:18.000Z</time>
      </trkpt>
      <trkpt lat="46.12395" lon="7.92592">
        <ele>1921.4</ele>
        <time>2000-01-02T05:34:28.000Z</time>
      </trkpt>
      <trkpt lat="46.12405" lon="7.92597">
        <ele>1930</ele>
        <time>2000-01-02T05:34:38.000Z</time>
      </trkpt>
      <trkpt lat="46.12415" lon="7.92601">
        <ele>1922.3</ele>
        <time>2000-01-02T05:34:48.000Z</time>
      </trkpt>
      <trkpt lat="46.12432" lon="7.92603">
        <ele>1931</ele>
        <time>2000-01-02T05:34:58.000Z</time>
      </trkpt>
      <trkpt lat="46.12444" lon="7.92608">
        <ele>1926.9</ele>
        <time>2000-01-02T05:35:08.000Z</time>
      </trkpt>
      <trkpt lat="46.12431" lon="7.92593">
        <ele>1933</ele>
        <time>2000-01-02T05:35:18.000Z</time>
      </trkpt>
      <trkpt lat="46.12422" lon="7.92577">
        <ele>1932.3</ele>
        <time>2000-01-02T05:35:28.000Z</time>
      </trkpt>
      <trkpt lat="46.12429" lon="7.92567">
        <ele>1944</ele>
        <time>2000-01-02T05:35:38.000Z</time>
      </trkpt>
      <trkpt lat="46.12426" lon="7.92555">
        <ele>1940.2</ele>
        <time>2000-01-02T05:35:48.000Z</time>
      </trkpt>
      <trkpt lat="46.12423" lon="7.92537">
        <ele>1955</ele>
        <time>2000-01-02T05:35:58.000Z</time>
      </trkpt>
      <trkpt lat="46.12434" lon="7.92528">
        <ele>1949.6</ele>
        <time>2000-01-02T05:36:08.000Z</time>
      </trkpt>
      <trkpt lat="46.12441" lon="7.92516">
        <ele>1964</ele>
        <time>2000-01-02T05:36:18.000Z</time>
      </trkpt>
      <trkpt lat="46.12453" lon="7.92503">
        <ele>1960.1</ele>
        <time>2000-01-02T05:36:28.000Z</time>
      </trkpt>
      <trkpt lat="46.12463" lon="7.92502">
        <ele>1975</ele>
        <time>2000-01-02T05:36:38.000Z</time>
      </trkpt>
      <trkpt lat="46.12475" lon="7.92505">
        <ele>1963.9</ele>
        <time>2000-01-02T05:36:48.000Z</time>
      </trkpt>
      <trkpt lat="46.12484" lon="7.925">
        <ele>1976</ele>
        <time>2000-01-02T05:36:58.000Z</time>
      </trkpt>
      <trkpt lat="46.12493" lon="7.92496">
        <ele>1967.1</ele>
        <time>2000-01-02T05:37:08.000Z</time>
      </trkpt>
      <trkpt lat="46.12504" lon="7.92482">
        <ele>1981</ele>
        <time>2000-01-02T05:37:18.000Z</time>
      </trkpt>
      <trkpt lat="46.12509" lon="7.9247">
        <ele>1973.8</ele>
        <time>2000-01-02T05:37:28.000Z</time>
      </trkpt>
      <trkpt lat="46.12519" lon="7.92466">
        <ele>1988</ele>
        <time>2000-01-02T05:37:38.000Z</time>
      </trkpt>
      <trkpt lat="46.12529" lon="7.92457">
        <ele>1977.9</ele>
        <time>2000-01-02T05:37:48.000Z</time>
      </trkpt>
      <trkpt lat="46.12538" lon="7.92446">
        <ele>1995</ele>
        <time>2000-01-02T05:37:58.000Z</time>
      </trkpt>
      <trkpt lat="46.12548" lon="7.92444">
        <ele>1983.7</ele>
        <time>2000-01-02T05:38:08.000Z</time>
      </trkpt>
      <trkpt lat="46.12556" lon="7.92436">
        <ele>1999</ele>
        <time>2000-01-02T05:38:18.000Z</time>
      </trkpt>
      <trkpt lat="46.12567" lon="7.92434">
        <ele>1991.4</ele>
        <time>2000-01-02T05:38:28.000Z</time>
      </trkpt>
      <trkpt lat="46.1257" lon="7.92421">
        <ele>2005</ele>
        <time>2000-01-02T05:38:38.000Z</time>
      </trkpt>
      <trkpt lat="46.12579" lon="7.92416">
        <ele>2001.7</ele>
        <time>2000-01-02T05:38:48.000Z</time>
      </trkpt>
      <trkpt lat="46.12587" lon="7.92407">
        <ele>2011</ele>
        <time>2000-01-02T05:38:58.000Z</time>
      </trkpt>
      <trkpt lat="46.12587" lon="7.92389">
        <ele>2007.4</ele>
        <time>2000-01-02T05:39:08.000Z</time>
      </trkpt>
      <trkpt lat="46.12593" lon="7.92371">
        <ele>2017</ele>
        <time>2000-01-02T05:39:18.000Z</time>
      </trkpt>
      <trkpt lat="46.12602" lon="7.92355">
        <ele>2008.4</ele>
        <time>2000-01-02T05:39:28.000Z</time>
      </trkpt>
      <trkpt lat="46.12605" lon="7.92338">
        <ele>2017</ele>
        <time>2000-01-02T05:39:38.000Z</time>
      </trkpt>
      <trkpt lat="46.12619" lon="7.92309">
        <ele>2019</ele>
        <time>2000-01-02T05:39:48.000Z</time>
      </trkpt>
      <trkpt lat="46.12634" lon="7.92279">
        <ele>2021</ele>
        <time>2000-01-02T05:39:58.000Z</time>
      </trkpt>
      <trkpt lat="46.12639" lon="7.92265">
        <ele>2017.8</ele>
        <time>2000-01-02T05:40:08.000Z</time>
      </trkpt>
      <trkpt lat="46.12649" lon="7.92252">
        <ele>2025</ele>
        <time>2000-01-02T05:40:18.000Z</time>
      </trkpt>
      <trkpt lat="46.12658" lon="7.92245">
        <ele>2024.4</ele>
        <time>2000-01-02T05:40:28.000Z</time>
      </trkpt>
      <trkpt lat="46.12669" lon="7.92234">
        <ele>2030</ele>
        <time>2000-01-02T05:40:38.000Z</time>
      </trkpt>
      <trkpt lat="46.1268" lon="7.92223">
        <ele>2026</ele>
        <time>2000-01-02T05:40:48.000Z</time>
      </trkpt>
      <trkpt lat="46.1269" lon="7.92217">
        <ele>2033</ele>
        <time>2000-01-02T05:40:58.000Z</time>
      </trkpt>
      <trkpt lat="46.12696" lon="7.92205">
        <ele>2026.4</ele>
        <time>2000-01-02T05:41:08.000Z</time>
      </trkpt>
      <trkpt lat="46.12701" lon="7.92192">
        <ele>2037</ele>
        <time>2000-01-02T05:41:18.000Z</time>
      </trkpt>
      <trkpt lat="46.12712" lon="7.9217">
        <ele>2032.9</ele>
        <time>2000-01-02T05:41:28.000Z</time>
      </trkpt>
      <trkpt lat="46.1272" lon="7.9216">
        <ele>2041</ele>
        <time>2000-01-02T05:41:38.000Z</time>
      </trkpt>
      <trkpt lat="46.1273" lon="7.92149">
        <ele>2035.4</ele>
        <time>2000-01-02T05:41:48.000Z</time>
      </trkpt>
      <trkpt lat="46.12738" lon="7.92139">
        <ele>2041</ele>
        <time>2000-01-02T05:41:58.000Z</time>
      </trkpt>
      <trkpt lat="46.12752" lon="7.92122">
        <ele>2034.5</ele>
        <time>2000-01-02T05:42:08.000Z</time>
      </trkpt>
      <trkpt lat="46.12757" lon="7.92105">
        <ele>2041</ele>
        <time>2000-01-02T05:42:18.000Z</time>
      </trkpt>
      <trkpt lat="46.12764" lon="7.92086">
        <ele>2030.9</ele>
        <time>2000-01-02T05:42:28.000Z</time>
      </trkpt>
      <trkpt lat="46.12764" lon="7.92067">
        <ele>2040</ele>
        <time>2000-01-02T05:42:38.000Z</time>
      </trkpt>
      <trkpt lat="46.12775" lon="7.92049">
        <ele>2034.3</ele>
        <time>2000-01-02T05:42:48.000Z</time>
      </trkpt>
      <trkpt lat="46.12783" lon="7.92035">
        <ele>2040</ele>
        <time>2000-01-02T05:42:58.000Z</time>
      </trkpt>
      <trkpt lat="46.12804" lon="7.92008">
        <ele>2040</ele>
        <time>2000-01-02T05:43:08.000Z</time>
      </trkpt>
      <trkpt lat="46.12813" lon="7.92004">
        <ele>2038.8</ele>
        <time>2000-01-02T05:43:18.000Z</time>
      </trkpt>
      <trkpt lat="46.12829" lon="7.91989">
        <ele>2045</ele>
        <time>2000-01-02T05:43:28.000Z</time>
      </trkpt>
      <trkpt lat="46.1284" lon="7.91986">
        <ele>2040.2</ele>
        <time>2000-01-02T05:43:38.000Z</time>
      </trkpt>
      <trkpt lat="46.12853" lon="7.91974">
        <ele>2054</ele>
        <time>2000-01-02T05:43:48.000Z</time>
      </trkpt>
      <trkpt lat="46.12864" lon="7.91957">
        <ele>2042.5</ele>
        <time>2000-01-02T05:43:58.000Z</time>
      </trkpt>
      <trkpt lat="46.12888" lon="7.91944">
        <ele>2054</ele>
        <time>2000-01-02T05:44:08.000Z</time>
      </trkpt>
      <trkpt lat="46.12905" lon="7.91945">
        <ele>2045.9</ele>
        <time>2000-01-02T05:44:18.000Z</time>
      </trkpt>
      <trkpt lat="46.12944" lon="7.91956">
        <ele>2053</ele>
        <time>2000-01-02T05:44:28.000Z</time>
      </trkpt>
      <trkpt lat="46.12951" lon="7.91966">
        <ele>2046.5</ele>
        <time>2000-01-02T05:44:38.000Z</time>
      </trkpt>
      <trkpt lat="46.12966" lon="7.91973">
        <ele>2054</ele>
        <time>2000-01-02T05:44:48.000Z</time>
      </trkpt>
      <trkpt lat="46.12983" lon="7.91975">
        <ele>2049.1</ele>
        <time>2000-01-02T05:44:58.000Z</time>
      </trkpt>
      <trkpt lat="46.12996" lon="7.91981">
        <ele>2055</ele>
        <time>2000-01-02T05:45:08.000Z</time>
      </trkpt>
      <trkpt lat="46.13018" lon="7.91987">
        <ele>2060</ele>
        <time>2000-01-02T05:45:18.000Z</time>
      </trkpt>
      <trkpt lat="46.13032" lon="7.91978">
        <ele>2060.1</ele>
        <time>2000-01-02T05:45:28.000Z</time>
      </trkpt>
      <trkpt lat="46.13044" lon="7.91975">
        <ele>2075</ele>
        <time>2000-01-02T05:45:38.000Z</time>
      </trkpt>
      <trkpt lat="46.13055" lon="7.91982">
        <ele>2064.6</ele>
        <time>2000-01-02T05:45:48.000Z</time>
      </trkpt>
      <trkpt lat="46.1307" lon="7.91987">
        <ele>2077</ele>
        <time>2000-01-02T05:45:58.000Z</time>
      </trkpt>
      <trkpt lat="46.13099" lon="7.91984">
        <ele>2081</ele>
        <time>2000-01-02T05:46:08.000Z</time>
      </trkpt>
      <trkpt lat="46.1311" lon="7.91982">
        <ele>2073.1</ele>
        <time>2000-01-02T05:46:18.000Z</time>
      </trkpt>
      <trkpt lat="46.13121" lon="7.91977">
        <ele>2082</ele>
        <time>2000-01-02T05:46:28.000Z</time>
      </trkpt>
      <trkpt lat="46.13133" lon="7.9197">
        <ele>2076.2</ele>
        <time>2000-01-02T05:46:38.000Z</time>
      </trkpt>
      <trkpt lat="46.13147" lon="7.91968">
        <ele>2084</ele>
        <time>2000-01-02T05:46:48.000Z</time>
      </trkpt>
      <trkpt lat="46.13158" lon="7.91964">
        <ele>2075.4</ele>
        <time>2000-01-02T05:46:58.000Z</time>
      </trkpt>
      <trkpt lat="46.13176" lon="7.91956">
        <ele>2088</ele>
        <time>2000-01-02T05:47:08.000Z</time>
      </trkpt>
      <trkpt lat="46.13184" lon="7.91947">
        <ele>2076.1</ele>
        <time>2000-01-02T05:47:18.000Z</time>
      </trkpt>
      <trkpt lat="46.13193" lon="7.91935">
        <ele>2089</ele>
        <time>2000-01-02T05:47:28.000Z</time>
      </trkpt>
      <trkpt lat="46.13201" lon="7.91919">
        <ele>2080.2</ele>
        <time>2000-01-02T05:47:38.000Z</time>
      </trkpt>
      <trkpt lat="46.13225" lon="7.91909">
        <ele>2091</ele>
        <time>2000-01-02T05:47:48.000Z</time>
      </trkpt>
      <trkpt lat="46.13234" lon="7.91902">
        <ele>2080.5</ele>
        <time>2000-01-02T05:47:58.000Z</time>
      </trkpt>
      <trkpt lat="46.13243" lon="7.91901">
        <ele>2094</ele>
        <time>2000-01-02T05:48:08.000Z</time>
      </trkpt>
      <trkpt lat="46.1326" lon="7.9189">
        <ele>2080.4</ele>
        <time>2000-01-02T05:48:18.000Z</time>
      </trkpt>
      <trkpt lat="46.13266" lon="7.91876">
        <ele>2093</ele>
        <time>2000-01-02T05:48:28.000Z</time>
      </trkpt>
      <trkpt lat="46.13282" lon="7.91873">
        <ele>2081.4</ele>
        <time>2000-01-02T05:48:38.000Z</time>
      </trkpt>
      <trkpt lat="46.13299" lon="7.91871">
        <ele>2092</ele>
        <time>2000-01-02T05:48:48.000Z</time>
      </trkpt>
      <trkpt lat="46.13319" lon="7.91861">
        <ele>2089</ele>
        <time>2000-01-02T05:48:58.000Z</time>
      </trkpt>
      <trkpt lat="46.13337" lon="7.91849">
        <ele>2089</ele>
        <time>2000-01-02T05:49:08.000Z</time>
      </trkpt>
      <trkpt lat="46.13351" lon="7.91842">
        <ele>2072.9</ele>
        <time>2000-01-02T05:49:18.000Z</time>
      </trkpt>
      <trkpt lat="46.13369" lon="7.91815">
        <ele>2093</ele>
        <time>2000-01-02T05:49:28.000Z</time>
      </trkpt>
      <trkpt lat="46.13376" lon="7.91801">
        <ele>2078.4</ele>
        <time>2000-01-02T05:49:38.000Z</time>
      </trkpt>
      <trkpt lat="46.13374" lon="7.91788">
        <ele>2097</ele>
        <time>2000-01-02T05:49:48.000Z</time>
      </trkpt>
      <trkpt lat="46.13383" lon="7.91782">
        <ele>2081.5</ele>
        <time>2000-01-02T05:49:58.000Z</time>
      </trkpt>
      <trkpt lat="46.13383" lon="7.91766">
        <ele>2100</ele>
        <time>2000-01-02T05:50:08.000Z</time>
      </trkpt>
      <trkpt lat="46.13379" lon="7.91747">
        <ele>2092.1</ele>
        <time>2000-01-02T05:50:18.000Z</time>
      </trkpt>
      <trkpt lat="46.13387" lon="7.91737">
        <ele>2110</ele>
        <time>2000-01-02T05:50:28.000Z</time>
      </trkpt>
      <trkpt lat="46.13385" lon="7.9172">
        <ele>2098.2</ele>
        <time>2000-01-02T05:50:38.000Z</time>
      </trkpt>
      <trkpt lat="46.1339" lon="7.917">
        <ele>2117</ele>
        <time>2000-01-02T05:50:48.000Z</time>
      </trkpt>
      <trkpt lat="46.13403" lon="7.91687">
        <ele>2104</ele>
        <time>2000-01-02T05:50:58.000Z</time>
      </trkpt>
      <trkpt lat="46.1342" lon="7.91668">
        <ele>2117</ele>
        <time>2000-01-02T05:51:08.000Z</time>
      </trkpt>
      <trkpt lat="46.13424" lon="7.91652">
        <ele>2108.5</ele>
        <time>2000-01-02T05:51:18.000Z</time>
      </trkpt>
      <trkpt lat="46.13435" lon="7.9164">
        <ele>2117</ele>
        <time>2000-01-02T05:51:28.000Z</time>
      </trkpt>
      <trkpt lat="46.13446" lon="7.91631">
        <ele>2105.2</ele>
        <time>2000-01-02T05:51:38.000Z</time>
      </trkpt>
      <trkpt lat="46.13456" lon="7.9162">
        <ele>2118</ele>
        <time>2000-01-02T05:51:48.000Z</time>
      </trkpt>
      <trkpt lat="46.13466" lon="7.91607">
        <ele>2101.5</ele>
        <time>2000-01-02T05:51:58.000Z</time>
      </trkpt>
      <trkpt lat="46.13466" lon="7.9159">
        <ele>2118</ele>
        <time>2000-01-02T05:52:08.000Z</time>
      </trkpt>
      <trkpt lat="46.1347" lon="7.91574">
        <ele>2109.8</ele>
        <time>2000-01-02T05:52:18.000Z</time>
      </trkpt>
      <trkpt lat="46.13487" lon="7.91556">
        <ele>2119</ele>
        <time>2000-01-02T05:52:28.000Z</time>
      </trkpt>
      <trkpt lat="46.13495" lon="7.91545">
        <ele>2114.6</ele>
        <time>2000-01-02T05:52:38.000Z</time>
      </trkpt>
      <trkpt lat="46.13509" lon="7.91534">
        <ele>2118</ele>
        <time>2000-01-02T05:52:48.000Z</time>
      </trkpt>
      <trkpt lat="46.13521" lon="7.91542">
        <ele>2110.8</ele>
        <time>2000-01-02T05:52:58.000Z</time>
      </trkpt>
      <trkpt lat="46.13543" lon="7.91543">
        <ele>2118</ele>
        <time>2000-01-02T05:53:08.000Z</time>
      </trkpt>
      <trkpt lat="46.13559" lon="7.91532">
        <ele>2100.7</ele>
        <time>2000-01-02T05:53:18.000Z</time>
      </trkpt>
      <trkpt lat="46.13565" lon="7.91521">
        <ele>2119</ele>
        <time>2000-01-02T05:53:28.000Z</time>
      </trkpt>
      <trkpt lat="46.13564" lon="7.91502">
        <ele>2105.1</ele>
        <time>2000-01-02T05:53:38.000Z</time>
      </trkpt>
      <trkpt lat="46.13567" lon="7.91487">
        <ele>2123</ele>
        <time>2000-01-02T05:53:48.000Z</time>
      </trkpt>
      <trkpt lat="46.13566" lon="7.91467">
        <ele>2110.8</ele>
        <time>2000-01-02T05:53:58.000Z</time>
      </trkpt>
      <trkpt lat="46.13565" lon="7.91452">
        <ele>2125</ele>
        <time>2000-01-02T05:54:08.000Z</time>
      </trkpt>
      <trkpt lat="46.1357" lon="7.91435">
        <ele>2114.3</ele>
        <time>2000-01-02T05:54:18.000Z</time>
      </trkpt>
      <trkpt lat="46.13572" lon="7.91418">
        <ele>2128</ele>
        <time>2000-01-02T05:54:28.000Z</time>
      </trkpt>
      <trkpt lat="46.13572" lon="7.91388">
        <ele>2135</ele>
        <time>2000-01-02T05:54:38.000Z</time>
      </trkpt>
      <trkpt lat="46.1358" lon="7.91375">
        <ele>2122.5</ele>
        <time>2000-01-02T05:54:48.000Z</time>
      </trkpt>
      <trkpt lat="46.13588" lon="7.91365">
        <ele>2135</ele>
        <time>2000-01-02T05:54:58.000Z</time>
      </trkpt>
      <trkpt lat="46.13599" lon="7.91365">
        <ele>2115.7</ele>
        <time>2000-01-02T05:55:08.000Z</time>
      </trkpt>
      <trkpt lat="46.13617" lon="7.91321">
        <ele>2135</ele>
        <time>2000-01-02T05:55:18.000Z</time>
      </trkpt>
      <trkpt lat="46.1362" lon="7.91303">
        <ele>2129.4</ele>
        <time>2000-01-02T05:55:28.000Z</time>
      </trkpt>
      <trkpt lat="46.13624" lon="7.9129">
        <ele>2136</ele>
        <time>2000-01-02T05:55:38.000Z</time>
      </trkpt>
      <trkpt lat="46.13635" lon="7.91278">
        <ele>2135.9</ele>
        <time>2000-01-02T05:55:48.000Z</time>
      </trkpt>
      <trkpt lat="46.13646" lon="7.91268">
        <ele>2141</ele>
        <time>2000-01-02T05:55:58.000Z</time>
      </trkpt>
      <trkpt lat="46.13655" lon="7.91256">
        <ele>2134.3</ele>
        <time>2000-01-02T05:56:08.000Z</time>
      </trkpt>
      <trkpt lat="46.13666" lon="7.91243">
        <ele>2143</ele>
        <time>2000-01-02T05:56:18.000Z</time>
      </trkpt>
      <trkpt lat="46.13675" lon="7.91229">
        <ele>2137.2</ele>
        <time>2000-01-02T05:56:28.000Z</time>
      </trkpt>
      <trkpt lat="46.13687" lon="7.9121">
        <ele>2143</ele>
        <time>2000-01-02T05:56:38.000Z</time>
      </trkpt>
      <trkpt lat="46.13702" lon="7.91199">
        <ele>2137.7</ele>
        <time>2000-01-02T05:56:48.000Z</time>
      </trkpt>
      <trkpt lat="46.13713" lon="7.9119">
        <ele>2143</ele>
        <time>2000-01-02T05:56:58.000Z</time>
      </trkpt>
      <trkpt lat="46.13713" lon="7.91174">
        <ele>2147</ele>
        <time>2000-01-02T05:57:08.000Z</time>
      </trkpt>
      <trkpt lat="46.1372" lon="7.91164">
        <ele>2153</ele>
        <time>2000-01-02T05:57:18.000Z</time>
      </trkpt>
      <trkpt lat="46.13725" lon="7.91151">
        <ele>2154.9</ele>
        <time>2000-01-02T05:57:28.000Z</time>
      </trkpt>
      <trkpt lat="46.13735" lon="7.91141">
        <ele>2162</ele>
        <time>2000-01-02T05:57:38.000Z</time>
      </trkpt>
      <trkpt lat="46.13741" lon="7.91129">
        <ele>2163.9</ele>
        <time>2000-01-02T05:57:48.000Z</time>
      </trkpt>
      <trkpt lat="46.13751" lon="7.91117">
        <ele>2167</ele>
        <time>2000-01-02T05:57:58.000Z</time>
      </trkpt>
      <trkpt lat="46.13762" lon="7.91108">
        <ele>2169.6</ele>
        <time>2000-01-02T05:58:08.000Z</time>
      </trkpt>
      <trkpt lat="46.13778" lon="7.91107">
        <ele>2166</ele>
        <time>2000-01-02T05:58:18.000Z</time>
      </trkpt>
      <trkpt lat="46.13797" lon="7.91098">
        <ele>2167</ele>
        <time>2000-01-02T05:58:28.000Z</time>
      </trkpt>
      <trkpt lat="46.13802" lon="7.91086">
        <ele>2158.7</ele>
        <time>2000-01-02T05:58:38.000Z</time>
      </trkpt>
      <trkpt lat="46.13807" lon="7.91068">
        <ele>2169</ele>
        <time>2000-01-02T05:58:48.000Z</time>
      </trkpt>
      <trkpt lat="46.13816" lon="7.91057">
        <ele>2162.2</ele>
        <time>2000-01-02T05:58:58.000Z</time>
      </trkpt>
      <trkpt lat="46.13824" lon="7.91045">
        <ele>2171</ele>
        <time>2000-01-02T05:59:08.000Z</time>
      </trkpt>
      <trkpt lat="46.13839" lon="7.91041">
        <ele>2169.9</ele>
        <time>2000-01-02T05:59:18.000Z</time>
      </trkpt>
      <trkpt lat="46.13849" lon="7.91034">
        <ele>2180</ele>
        <time>2000-01-02T05:59:28.000Z</time>
      </trkpt>
      <trkpt lat="46.13871" lon="7.91037">
        <ele>2178</ele>
        <time>2000-01-02T05:59:38.000Z</time>
      </trkpt>
      <trkpt lat="46.13874" lon="7.91056">
        <ele>2181</ele>
        <time>2000-01-02T05:59:48.000Z</time>
      </trkpt>
      <trkpt lat="46.13882" lon="7.91077">
        <ele>2177</ele>
        <time>2000-01-02T05:59:58.000Z</time>
      </trkpt>
      <trkpt lat="46.13891" lon="7.91078">
        <ele>2180</ele>
        <time>2000-01-02T06:00:08.000Z</time>
      </trkpt>
      <trkpt lat="46.13893" lon="7.91096">
        <ele>2176</ele>
        <time>2000-01-02T06:00:18.000Z</time>
      </trkpt>
      <trkpt lat="46.13907" lon="7.91101">
        <ele>2175.1</ele>
        <time>2000-01-02T06:00:28.000Z</time>
      </trkpt>
      <trkpt lat="46.13926" lon="7.91112">
        <ele>2176</ele>
        <time>2000-01-02T06:00:38.000Z</time>
      </trkpt>
      <trkpt lat="46.13935" lon="7.91104">
        <ele>2181.2</ele>
        <time>2000-01-02T06:00:48.000Z</time>
      </trkpt>
      <trkpt lat="46.13944" lon="7.91099">
        <ele>2188</ele>
        <time>2000-01-02T06:00:58.000Z</time>
      </trkpt>
      <trkpt lat="46.13971" lon="7.91098">
        <ele>2190</ele>
        <time>2000-01-02T06:01:08.000Z</time>
      </trkpt>
      <trkpt lat="46.13981" lon="7.91099">
        <ele>2191.7</ele>
        <time>2000-01-02T06:01:18.000Z</time>
      </trkpt>
      <trkpt lat="46.14006" lon="7.91101">
        <ele>2193</ele>
        <time>2000-01-02T06:01:28.000Z</time>
      </trkpt>
      <trkpt lat="46.14032" lon="7.91096">
        <ele>2197</ele>
        <time>2000-01-02T06:01:38.000Z</time>
      </trkpt>
      <trkpt lat="46.14053" lon="7.91093">
        <ele>2196</ele>
        <time>2000-01-02T06:01:48.000Z</time>
      </trkpt>
      <trkpt lat="46.14065" lon="7.91104">
        <ele>2194.2</ele>
        <time>2000-01-02T06:01:58.000Z</time>
      </trkpt>
      <trkpt lat="46.14076" lon="7.911">
        <ele>2196</ele>
        <time>2000-01-02T06:02:08.000Z</time>
      </trkpt>
      <trkpt lat="46.14083" lon="7.91089">
        <ele>2192.5</ele>
        <time>2000-01-02T06:02:18.000Z</time>
      </trkpt>
      <trkpt lat="46.14087" lon="7.91069">
        <ele>2198</ele>
        <time>2000-01-02T06:02:28.000Z</time>
      </trkpt>
      <trkpt lat="46.14097" lon="7.91078">
        <ele>2203.4</ele>
        <time>2000-01-02T06:02:38.000Z</time>
      </trkpt>
      <trkpt lat="46.14106" lon="7.91092">
        <ele>2196</ele>
        <time>2000-01-02T06:02:48.000Z</time>
      </trkpt>
      <trkpt lat="46.14114" lon="7.91106">
        <ele>2199.9</ele>
        <time>2000-01-02T06:02:58.000Z</time>
      </trkpt>
      <trkpt lat="46.14122" lon="7.91127">
        <ele>2195</ele>
        <time>2000-01-02T06:03:08.000Z</time>
      </trkpt>
      <trkpt lat="46.14139" lon="7.91123">
        <ele>2190.8</ele>
        <time>2000-01-02T06:03:18.000Z</time>
      </trkpt>
      <trkpt lat="46.14152" lon="7.91115">
        <ele>2195</ele>
        <time>2000-01-02T06:03:28.000Z</time>
      </trkpt>
      <trkpt lat="46.14165" lon="7.91114">
        <ele>2190.1</ele>
        <time>2000-01-02T06:03:38.000Z</time>
      </trkpt>
      <trkpt lat="46.14178" lon="7.91119">
        <ele>2192</ele>
        <time>2000-01-02T06:03:48.000Z</time>
      </trkpt>
      <trkpt lat="46.14195" lon="7.91118">
        <ele>2186.2</ele>
        <time>2000-01-02T06:03:58.000Z</time>
      </trkpt>
      <trkpt lat="46.14205" lon="7.91121">
        <ele>2185</ele>
        <time>2000-01-02T06:04:08.000Z</time>
      </trkpt>
      <trkpt lat="46.14219" lon="7.91123">
        <ele>2183</ele>
        <time>2000-01-02T06:04:18.000Z</time>
      </trkpt>
      <trkpt lat="46.14238" lon="7.91123">
        <ele>2185</ele>
        <time>2000-01-02T06:04:28.000Z</time>
      </trkpt>
      <trkpt lat="46.14247" lon="7.91129">
        <ele>2180.8</ele>
        <time>2000-01-02T06:04:38.000Z</time>
      </trkpt>
      <trkpt lat="46.14257" lon="7.91138">
        <ele>2182</ele>
        <time>2000-01-02T06:04:48.000Z</time>
      </trkpt>
      <trkpt lat="46.14268" lon="7.91155">
        <ele>2177.9</ele>
        <time>2000-01-02T06:04:58.000Z</time>
      </trkpt>
      <trkpt lat="46.14274" lon="7.91171">
        <ele>2178</ele>
        <time>2000-01-02T06:05:08.000Z</time>
      </trkpt>
      <trkpt lat="46.14282" lon="7.91178">
        <ele>2174.9</ele>
        <time>2000-01-02T06:05:18.000Z</time>
      </trkpt>
      <trkpt lat="46.14306" lon="7.91195">
        <ele>2177</ele>
        <time>2000-01-02T06:05:28.000Z</time>
      </trkpt>
      <trkpt lat="46.14322" lon="7.91202">
        <ele>2173.5</ele>
        <time>2000-01-02T06:05:38.000Z</time>
      </trkpt>
      <trkpt lat="46.14344" lon="7.91201">
        <ele>2177</ele>
        <time>2000-01-02T06:05:48.000Z</time>
      </trkpt>
      <trkpt lat="46.14354" lon="7.91199">
        <ele>2176.4</ele>
        <time>2000-01-02T06:05:58.000Z</time>
      </trkpt>
      <trkpt lat="46.14375" lon="7.91187">
        <ele>2179</ele>
        <time>2000-01-02T06:06:08.000Z</time>
      </trkpt>
      <trkpt lat="46.14394" lon="7.91185">
        <ele>2181</ele>
        <time>2000-01-02T06:06:18.000Z</time>
      </trkpt>
      <trkpt lat="46.14421" lon="7.91187">
        <ele>2182</ele>
        <time>2000-01-02T06:06:28.000Z</time>
      </trkpt>
      <trkpt lat="46.14459" lon="7.91189">
        <ele>2182</ele>
        <time>2000-01-02T06:06:38.000Z</time>
      </trkpt>
      <trkpt lat="46.14477" lon="7.91185">
        <ele>2182</ele>
        <time>2000-01-02T06:06:48.000Z</time>
      </trkpt>
      <trkpt lat="46.14492" lon="7.91185">
        <ele>2182.6</ele>
        <time>2000-01-02T06:06:58.000Z</time>
      </trkpt>
      <trkpt lat="46.14499" lon="7.91201">
        <ele>2179</ele>
        <time>2000-01-02T06:07:08.000Z</time>
      </trkpt>
      <trkpt lat="46.14516" lon="7.91214">
        <ele>2180</ele>
        <time>2000-01-02T06:07:18.000Z</time>
      </trkpt>
      <trkpt lat="46.14528" lon="7.9123">
        <ele>2176.3</ele>
        <time>2000-01-02T06:07:28.000Z</time>
      </trkpt>
      <trkpt lat="46.14553" lon="7.91253">
        <ele>2179</ele>
        <time>2000-01-02T06:07:38.000Z</time>
      </trkpt>
      <trkpt lat="46.14562" lon="7.91274">
        <ele>2175.9</ele>
        <time>2000-01-02T06:07:48.000Z</time>
      </trkpt>
      <trkpt lat="46.14573" lon="7.91282">
        <ele>2179</ele>
        <time>2000-01-02T06:07:58.000Z</time>
      </trkpt>
      <trkpt lat="46.14583" lon="7.91293">
        <ele>2177.9</ele>
        <time>2000-01-02T06:08:08.000Z</time>
      </trkpt>
      <trkpt lat="46.14597" lon="7.91304">
        <ele>2181</ele>
        <time>2000-01-02T06:08:18.000Z</time>
      </trkpt>
      <trkpt lat="46.14602" lon="7.91318">
        <ele>2179.7</ele>
        <time>2000-01-02T06:08:28.000Z</time>
      </trkpt>
      <trkpt lat="46.14615" lon="7.91328">
        <ele>2186</ele>
        <time>2000-01-02T06:08:38.000Z</time>
      </trkpt>
      <trkpt lat="46.14624" lon="7.91335">
        <ele>2185.5</ele>
        <time>2000-01-02T06:08:48.000Z</time>
      </trkpt>
      <trkpt lat="46.14635" lon="7.9134">
        <ele>2190</ele>
        <time>2000-01-02T06:08:58.000Z</time>
      </trkpt>
      <trkpt lat="46.14645" lon="7.91349">
        <ele>2192.7</ele>
        <time>2000-01-02T06:09:08.000Z</time>
      </trkpt>
      <trkpt lat="46.14652" lon="7.91366">
        <ele>2194</ele>
        <time>2000-01-02T06:09:18.000Z</time>
      </trkpt>
      <trkpt lat="46.14665" lon="7.91369">
        <ele>2196</ele>
        <time>2000-01-02T06:09:28.000Z</time>
      </trkpt>
      <trkpt lat="46.1468" lon="7.91375">
        <ele>2199</ele>
        <time>2000-01-02T06:09:38.000Z</time>
      </trkpt>
      <trkpt lat="46.14691" lon="7.91377">
        <ele>2201.1</ele>
        <time>2000-01-02T06:09:48.000Z</time>
      </trkpt>
      <trkpt lat="46.14712" lon="7.91387">
        <ele>2204</ele>
        <time>2000-01-02T06:09:58.000Z</time>
      </trkpt>
      <trkpt lat="46.14721" lon="7.91393">
        <ele>2201.2</ele>
        <time>2000-01-02T06:10:08.000Z</time>
      </trkpt>
      <trkpt lat="46.14733" lon="7.91396">
        <ele>2205</ele>
        <time>2000-01-02T06:10:18.000Z</time>
      </trkpt>
      <trkpt lat="46.14745" lon="7.91391">
        <ele>2204.5</ele>
        <time>2000-01-02T06:10:28.000Z</time>
      </trkpt>
      <trkpt lat="46.14767" lon="7.91389">
        <ele>2214</ele>
        <time>2000-01-02T06:10:38.000Z</time>
      </trkpt>
      <trkpt lat="46.14782" lon="7.91389">
        <ele>2209</ele>
        <time>2000-01-02T06:10:48.000Z</time>
      </trkpt>
      <trkpt lat="46.14792" lon="7.91388">
        <ele>2219</ele>
        <time>2000-01-02T06:10:58.000Z</time>
      </trkpt>
      <trkpt lat="46.14804" lon="7.91385">
        <ele>2216.2</ele>
        <time>2000-01-02T06:11:08.000Z</time>
      </trkpt>
      <trkpt lat="46.1483" lon="7.91383">
        <ele>2227</ele>
        <time>2000-01-02T06:11:18.000Z</time>
      </trkpt>
      <trkpt lat="46.14846" lon="7.91385">
        <ele>2228.5</ele>
        <time>2000-01-02T06:11:28.000Z</time>
      </trkpt>
      <trkpt lat="46.14856" lon="7.91389">
        <ele>2228</ele>
        <time>2000-01-02T06:11:38.000Z</time>
      </trkpt>
      <trkpt lat="46.1487" lon="7.91392">
        <ele>2231.8</ele>
        <time>2000-01-02T06:11:48.000Z</time>
      </trkpt>
      <trkpt lat="46.14879" lon="7.91401">
        <ele>2230</ele>
        <time>2000-01-02T06:11:58.000Z</time>
      </trkpt>
      <trkpt lat="46.14892" lon="7.91405">
        <ele>2231</ele>
        <time>2000-01-02T06:12:08.000Z</time>
      </trkpt>
      <trkpt lat="46.14904" lon="7.91403">
        <ele>2237</ele>
        <time>2000-01-02T06:12:18.000Z</time>
      </trkpt>
      <trkpt lat="46.14915" lon="7.91402">
        <ele>2234.6</ele>
        <time>2000-01-02T06:12:28.000Z</time>
      </trkpt>
      <trkpt lat="46.14938" lon="7.91405">
        <ele>2237</ele>
        <time>2000-01-02T06:12:38.000Z</time>
      </trkpt>
      <trkpt lat="46.14957" lon="7.91411">
        <ele>2238</ele>
        <time>2000-01-02T06:12:48.000Z</time>
      </trkpt>
      <trkpt lat="46.14968" lon="7.91416">
        <ele>2237.2</ele>
        <time>2000-01-02T06:12:58.000Z</time>
      </trkpt>
      <trkpt lat="46.14982" lon="7.91414">
        <ele>2244</ele>
        <time>2000-01-02T06:13:08.000Z</time>
      </trkpt>
      <trkpt lat="46.14992" lon="7.91419">
        <ele>2242</ele>
        <time>2000-01-02T06:13:18.000Z</time>
      </trkpt>
      <trkpt lat="46.15008" lon="7.91424">
        <ele>2244</ele>
        <time>2000-01-02T06:13:28.000Z</time>
      </trkpt>
      <trkpt lat="46.15033" lon="7.91452">
        <ele>2247</ele>
        <time>2000-01-02T06:13:38.000Z</time>
      </trkpt>
      <trkpt lat="46.15053" lon="7.91447">
        <ele>2250</ele>
        <time>2000-01-02T06:13:48.000Z</time>
      </trkpt>
      <trkpt lat="46.15075" lon="7.91449">
        <ele>2252</ele>
        <time>2000-01-02T06:13:58.000Z</time>
      </trkpt>
      <trkpt lat="46.15088" lon="7.91435">
        <ele>2251.5</ele>
        <time>2000-01-02T06:14:08.000Z</time>
      </trkpt>
      <trkpt lat="46.15104" lon="7.91427">
        <ele>2260</ele>
        <time>2000-01-02T06:14:18.000Z</time>
      </trkpt>
      <trkpt lat="46.15114" lon="7.91417">
        <ele>2254.9</ele>
        <time>2000-01-02T06:14:28.000Z</time>
      </trkpt>
      <trkpt lat="46.15131" lon="7.91399">
        <ele>2269</ele>
        <time>2000-01-02T06:14:38.000Z</time>
      </trkpt>
      <trkpt lat="46.15147" lon="7.91387">
        <ele>2264.7</ele>
        <time>2000-01-02T06:14:48.000Z</time>
      </trkpt>
      <trkpt lat="46.15167" lon="7.91365">
        <ele>2274</ele>
        <time>2000-01-02T06:14:58.000Z</time>
      </trkpt>
      <trkpt lat="46.15176" lon="7.91357">
        <ele>2272.5</ele>
        <time>2000-01-02T06:15:08.000Z</time>
      </trkpt>
      <trkpt lat="46.15192" lon="7.91353">
        <ele>2275</ele>
        <time>2000-01-02T06:15:18.000Z</time>
      </trkpt>
      <trkpt lat="46.15203" lon="7.91348">
        <ele>2270.6</ele>
        <time>2000-01-02T06:15:28.000Z</time>
      </trkpt>
      <trkpt lat="46.15218" lon="7.91337">
        <ele>2274</ele>
        <time>2000-01-02T06:15:38.000Z</time>
      </trkpt>
      <trkpt lat="46.15232" lon="7.9133">
        <ele>2269.6</ele>
        <time>2000-01-02T06:15:48.000Z</time>
      </trkpt>
      <trkpt lat="46.15258" lon="7.91319">
        <ele>2274</ele>
        <time>2000-01-02T06:15:58.000Z</time>
      </trkpt>
      <trkpt lat="46.15271" lon="7.91306">
        <ele>2267.5</ele>
        <time>2000-01-02T06:16:08.000Z</time>
      </trkpt>
      <trkpt lat="46.15287" lon="7.91301">
        <ele>2267</ele>
        <time>2000-01-02T06:16:18.000Z</time>
      </trkpt>
      <trkpt lat="46.15299" lon="7.91297">
        <ele>2262.2</ele>
        <time>2000-01-02T06:16:28.000Z</time>
      </trkpt>
      <trkpt lat="46.15308" lon="7.91293">
        <ele>2266</ele>
        <time>2000-01-02T06:16:38.000Z</time>
      </trkpt>
      <trkpt lat="46.1532" lon="7.91283">
        <ele>2257.9</ele>
        <time>2000-01-02T06:16:48.000Z</time>
      </trkpt>
      <trkpt lat="46.15329" lon="7.91273">
        <ele>2266</ele>
        <time>2000-01-02T06:16:58.000Z</time>
      </trkpt>
      <trkpt lat="46.15334" lon="7.91258">
        <ele>2257.3</ele>
        <time>2000-01-02T06:17:08.000Z</time>
      </trkpt>
      <trkpt lat="46.15338" lon="7.91244">
        <ele>2272</ele>
        <time>2000-01-02T06:17:18.000Z</time>
      </trkpt>
      <trkpt lat="46.15349" lon="7.91228">
        <ele>2242.4</ele>
        <time>2000-01-02T06:17:28.000Z</time>
      </trkpt>
      <trkpt lat="46.15356" lon="7.91211">
        <ele>2274</ele>
        <time>2000-01-02T06:17:38.000Z</time>
      </trkpt>
      <trkpt lat="46.1536" lon="7.91193">
        <ele>2255.6</ele>
        <time>2000-01-02T06:17:48.000Z</time>
      </trkpt>
      <trkpt lat="46.15365" lon="7.91182">
        <ele>2272</ele>
        <time>2000-01-02T06:17:58.000Z</time>
      </trkpt>
      <trkpt lat="46.15374" lon="7.9117">
        <ele>2260.4</ele>
        <time>2000-01-02T06:18:08.000Z</time>
      </trkpt>
      <trkpt lat="46.15383" lon="7.91161">
        <ele>2272</ele>
        <time>2000-01-02T06:18:18.000Z</time>
      </trkpt>
      <trkpt lat="46.15385" lon="7.91146">
        <ele>2269.6</ele>
        <time>2000-01-02T06:18:28.000Z</time>
      </trkpt>
      <trkpt lat="46.15392" lon="7.91134">
        <ele>2273</ele>
        <time>2000-01-02T06:18:38.000Z</time>
      </trkpt>
      <trkpt lat="46.15394" lon="7.91119">
        <ele>2275.3</ele>
        <time>2000-01-02T06:18:48.000Z</time>
      </trkpt>
      <trkpt lat="46.15399" lon="7.91106">
        <ele>2292</ele>
        <time>2000-01-02T06:18:58.000Z</time>
      </trkpt>
      <trkpt lat="46.15402" lon="7.91093">
        <ele>2281.7</ele>
        <time>2000-01-02T06:19:08.000Z</time>
      </trkpt>
      <trkpt lat="46.1541" lon="7.91073">
        <ele>2295</ele>
        <time>2000-01-02T06:19:18.000Z</time>
      </trkpt>
      <trkpt lat="46.15411" lon="7.91059">
        <ele>2292.6</ele>
        <time>2000-01-02T06:19:28.000Z</time>
      </trkpt>
      <trkpt lat="46.15414" lon="7.91043">
        <ele>2296</ele>
        <time>2000-01-02T06:19:38.000Z</time>
      </trkpt>
      <trkpt lat="46.15399" lon="7.91007">
        <ele>2303</ele>
        <time>2000-01-02T06:19:48.000Z</time>
      </trkpt>
      <trkpt lat="46.15397" lon="7.90993">
        <ele>2305</ele>
        <time>2000-01-02T06:19:58.000Z</time>
      </trkpt>
      <trkpt lat="46.15406" lon="7.90983">
        <ele>2306</ele>
        <time>2000-01-02T06:20:08.000Z</time>
      </trkpt>
      <trkpt lat="46.15418" lon="7.90952">
        <ele>2302</ele>
        <time>2000-01-02T06:20:18.000Z</time>
      </trkpt>
      <trkpt lat="46.15432" lon="7.90917">
        <ele>2304</ele>
        <time>2000-01-02T06:20:28.000Z</time>
      </trkpt>
      <trkpt lat="46.15433" lon="7.90899">
        <ele>2304.3</ele>
        <time>2000-01-02T06:20:38.000Z</time>
      </trkpt>
      <trkpt lat="46.15436" lon="7.90887">
        <ele>2307</ele>
        <time>2000-01-02T06:20:48.000Z</time>
      </trkpt>
      <trkpt lat="46.15444" lon="7.9087">
        <ele>2305.2</ele>
        <time>2000-01-02T06:20:58.000Z</time>
      </trkpt>
      <trkpt lat="46.15461" lon="7.90832">
        <ele>2307</ele>
        <time>2000-01-02T06:21:08.000Z</time>
      </trkpt>
      <trkpt lat="46.15475" lon="7.90817">
        <ele>2307.2</ele>
        <time>2000-01-02T06:21:18.000Z</time>
      </trkpt>
      <trkpt lat="46.15481" lon="7.90802">
        <ele>2308</ele>
        <time>2000-01-02T06:21:28.000Z</time>
      </trkpt>
      <trkpt lat="46.15497" lon="7.90796">
        <ele>2305.8</ele>
        <time>2000-01-02T06:21:38.000Z</time>
      </trkpt>
      <trkpt lat="46.15504" lon="7.90784">
        <ele>2307</ele>
        <time>2000-01-02T06:21:48.000Z</time>
      </trkpt>
      <trkpt lat="46.1551" lon="7.90772">
        <ele>2311</ele>
        <time>2000-01-02T06:21:58.000Z</time>
      </trkpt>
      <trkpt lat="46.15527" lon="7.90771">
        <ele>2310</ele>
        <time>2000-01-02T06:22:08.000Z</time>
      </trkpt>
      <trkpt lat="46.15531" lon="7.90754">
        <ele>2311.6</ele>
        <time>2000-01-02T06:22:18.000Z</time>
      </trkpt>
      <trkpt lat="46.15541" lon="7.90746">
        <ele>2314</ele>
        <time>2000-01-02T06:22:28.000Z</time>
      </trkpt>
      <trkpt lat="46.15547" lon="7.90721">
        <ele>2314</ele>
        <time>2000-01-02T06:22:38.000Z</time>
      </trkpt>
      <trkpt lat="46.15554" lon="7.90711">
        <ele>2313.5</ele>
        <time>2000-01-02T06:22:48.000Z</time>
      </trkpt>
      <trkpt lat="46.15561" lon="7.90692">
        <ele>2315</ele>
        <time>2000-01-02T06:22:58.000Z</time>
      </trkpt>
      <trkpt lat="46.15557" lon="7.90677">
        <ele>2328.5</ele>
        <time>2000-01-02T06:23:08.000Z</time>
      </trkpt>
      <trkpt lat="46.15568" lon="7.90662">
        <ele>2328</ele>
        <time>2000-01-02T06:23:18.000Z</time>
      </trkpt>
      <trkpt lat="46.15574" lon="7.90651">
        <ele>2317</ele>
        <time>2000-01-02T06:23:28.000Z</time>
      </trkpt>
      <trkpt lat="46.15579" lon="7.90638">
        <ele>2341</ele>
        <time>2000-01-02T06:23:38.000Z</time>
      </trkpt>
      <trkpt lat="46.15594" lon="7.90619">
        <ele>2340</ele>
        <time>2000-01-02T06:23:48.000Z</time>
      </trkpt>
      <trkpt lat="46.15601" lon="7.90607">
        <ele>2323.1</ele>
        <time>2000-01-02T06:23:58.000Z</time>
      </trkpt>
      <trkpt lat="46.15612" lon="7.90586">
        <ele>2340</ele>
        <time>2000-01-02T06:24:08.000Z</time>
      </trkpt>
      <trkpt lat="46.15626" lon="7.9057">
        <ele>2323.4</ele>
        <time>2000-01-02T06:24:18.000Z</time>
      </trkpt>
      <trkpt lat="46.15639" lon="7.90555">
        <ele>2340</ele>
        <time>2000-01-02T06:24:28.000Z</time>
      </trkpt>
      <trkpt lat="46.15655" lon="7.90533">
        <ele>2337</ele>
        <time>2000-01-02T06:24:38.000Z</time>
      </trkpt>
      <trkpt lat="46.1566" lon="7.90519">
        <ele>2330.6</ele>
        <time>2000-01-02T06:24:48.000Z</time>
      </trkpt>
      <trkpt lat="46.15673" lon="7.90519">
        <ele>2334</ele>
        <time>2000-01-02T06:24:58.000Z</time>
      </trkpt>
      <trkpt lat="46.15684" lon="7.90523">
        <ele>2325.3</ele>
        <time>2000-01-02T06:25:08.000Z</time>
      </trkpt>
      <trkpt lat="46.15697" lon="7.90527">
        <ele>2326</ele>
        <time>2000-01-02T06:25:18.000Z</time>
      </trkpt>
      <trkpt lat="46.15708" lon="7.90534">
        <ele>2319.8</ele>
        <time>2000-01-02T06:25:28.000Z</time>
      </trkpt>
      <trkpt lat="46.15717" lon="7.9054">
        <ele>2323</ele>
        <time>2000-01-02T06:25:38.000Z</time>
      </trkpt>
      <trkpt lat="46.15728" lon="7.90537">
        <ele>2316.7</ele>
        <time>2000-01-02T06:25:48.000Z</time>
      </trkpt>
      <trkpt lat="46.15742" lon="7.90536">
        <ele>2320</ele>
        <time>2000-01-02T06:25:58.000Z</time>
      </trkpt>
      <trkpt lat="46.15752" lon="7.90541">
        <ele>2311.9</ele>
        <time>2000-01-02T06:26:08.000Z</time>
      </trkpt>
      <trkpt lat="46.15779" lon="7.90536">
        <ele>2313</ele>
        <time>2000-01-02T06:26:18.000Z</time>
      </trkpt>
      <trkpt lat="46.15794" lon="7.90535">
        <ele>2305</ele>
        <time>2000-01-02T06:26:28.000Z</time>
      </trkpt>
      <trkpt lat="46.15803" lon="7.90531">
        <ele>2306</ele>
        <time>2000-01-02T06:26:38.000Z</time>
      </trkpt>
      <trkpt lat="46.15822" lon="7.90532">
        <ele>2301</ele>
        <time>2000-01-02T06:26:48.000Z</time>
      </trkpt>
      <trkpt lat="46.15838" lon="7.90532">
        <ele>2298.4</ele>
        <time>2000-01-02T06:26:58.000Z</time>
      </trkpt>
      <trkpt lat="46.15851" lon="7.90536">
        <ele>2299</ele>
        <time>2000-01-02T06:27:08.000Z</time>
      </trkpt>
      <trkpt lat="46.15871" lon="7.90537">
        <ele>2297</ele>
        <time>2000-01-02T06:27:18.000Z</time>
      </trkpt>
      <trkpt lat="46.1588" lon="7.90539">
        <ele>2289.7</ele>
        <time>2000-01-02T06:27:28.000Z</time>
      </trkpt>
      <trkpt lat="46.15896" lon="7.9054">
        <ele>2293</ele>
        <time>2000-01-02T06:27:38.000Z</time>
      </trkpt>
      <trkpt lat="46.15907" lon="7.90537">
        <ele>2283.5</ele>
        <time>2000-01-02T06:27:48.000Z</time>
      </trkpt>
      <trkpt lat="46.15927" lon="7.90534">
        <ele>2283</ele>
        <time>2000-01-02T06:27:58.000Z</time>
      </trkpt>
      <trkpt lat="46.15939" lon="7.90529">
        <ele>2277.9</ele>
        <time>2000-01-02T06:28:08.000Z</time>
      </trkpt>
      <trkpt lat="46.1595" lon="7.90528">
        <ele>2281</ele>
        <time>2000-01-02T06:28:18.000Z</time>
      </trkpt>
      <trkpt lat="46.15964" lon="7.90535">
        <ele>2270.8</ele>
        <time>2000-01-02T06:28:28.000Z</time>
      </trkpt>
      <trkpt lat="46.15973" lon="7.90538">
        <ele>2276</ele>
        <time>2000-01-02T06:28:38.000Z</time>
      </trkpt>
      <trkpt lat="46.15993" lon="7.90552">
        <ele>2265</ele>
        <time>2000-01-02T06:28:48.000Z</time>
      </trkpt>
      <trkpt lat="46.16003" lon="7.90563">
        <ele>2256.1</ele>
        <time>2000-01-02T06:28:58.000Z</time>
      </trkpt>
      <trkpt lat="46.16015" lon="7.90577">
        <ele>2256</ele>
        <time>2000-01-02T06:29:08.000Z</time>
      </trkpt>
      <trkpt lat="46.16036" lon="7.90587">
        <ele>2255</ele>
        <time>2000-01-02T06:29:18.000Z</time>
      </trkpt>
      <trkpt lat="46.16047" lon="7.90585">
        <ele>2250.8</ele>
        <time>2000-01-02T06:29:28.000Z</time>
      </trkpt>
      <trkpt lat="46.16057" lon="7.90584">
        <ele>2255</ele>
        <time>2000-01-02T06:29:38.000Z</time>
      </trkpt>
      <trkpt lat="46.16086" lon="7.90591">
        <ele>2255</ele>
        <time>2000-01-02T06:29:48.000Z</time>
      </trkpt>
      <trkpt lat="46.16092" lon="7.90604">
        <ele>2251.3</ele>
        <time>2000-01-02T06:29:58.000Z</time>
      </trkpt>
      <trkpt lat="46.16102" lon="7.90608">
        <ele>2255</ele>
        <time>2000-01-02T06:30:08.000Z</time>
      </trkpt>
      <trkpt lat="46.16107" lon="7.9062">
        <ele>2250.5</ele>
        <time>2000-01-02T06:30:18.000Z</time>
      </trkpt>
      <trkpt lat="46.16114" lon="7.90629">
        <ele>2255</ele>
        <time>2000-01-02T06:30:28.000Z</time>
      </trkpt>
      <trkpt lat="46.16124" lon="7.90633">
        <ele>2251.3</ele>
        <time>2000-01-02T06:30:38.000Z</time>
      </trkpt>
      <trkpt lat="46.16146" lon="7.90638">
        <ele>2260</ele>
        <time>2000-01-02T06:30:48.000Z</time>
      </trkpt>
      <trkpt lat="46.16155" lon="7.90629">
        <ele>2251.3</ele>
        <time>2000-01-02T06:30:58.000Z</time>
      </trkpt>
      <trkpt lat="46.16159" lon="7.90611">
        <ele>2261</ele>
        <time>2000-01-02T06:31:08.000Z</time>
      </trkpt>
      <trkpt lat="46.16166" lon="7.90596">
        <ele>2256.2</ele>
        <time>2000-01-02T06:31:18.000Z</time>
      </trkpt>
      <trkpt lat="46.16172" lon="7.90584">
        <ele>2261</ele>
        <time>2000-01-02T06:31:28.000Z</time>
      </trkpt>
      <trkpt lat="46.1618" lon="7.90575">
        <ele>2255.8</ele>
        <time>2000-01-02T06:31:38.000Z</time>
      </trkpt>
      <trkpt lat="46.16188" lon="7.90569">
        <ele>2255</ele>
        <time>2000-01-02T06:31:48.000Z</time>
      </trkpt>
      <trkpt lat="46.16198" lon="7.90565">
        <ele>2251.1</ele>
        <time>2000-01-02T06:31:58.000Z</time>
      </trkpt>
      <trkpt lat="46.16213" lon="7.90563">
        <ele>2250</ele>
        <time>2000-01-02T06:32:08.000Z</time>
      </trkpt>
      <trkpt lat="46.16223" lon="7.90548">
        <ele>2248.1</ele>
        <time>2000-01-02T06:32:18.000Z</time>
      </trkpt>
      <trkpt lat="46.16232" lon="7.90542">
        <ele>2250</ele>
        <time>2000-01-02T06:32:28.000Z</time>
      </trkpt>
      <trkpt lat="46.16248" lon="7.90533">
        <ele>2241.6</ele>
        <time>2000-01-02T06:32:38.000Z</time>
      </trkpt>
      <trkpt lat="46.16255" lon="7.90519">
        <ele>2247</ele>
        <time>2000-01-02T06:32:48.000Z</time>
      </trkpt>
      <trkpt lat="46.16268" lon="7.90511">
        <ele>2239.7</ele>
        <time>2000-01-02T06:32:58.000Z</time>
      </trkpt>
      <trkpt lat="46.16277" lon="7.90504">
        <ele>2245</ele>
        <time>2000-01-02T06:33:08.000Z</time>
      </trkpt>
      <trkpt lat="46.16286" lon="7.90501">
        <ele>2234.2</ele>
        <time>2000-01-02T06:33:18.000Z</time>
      </trkpt>
      <trkpt lat="46.16294" lon="7.90491">
        <ele>2237</ele>
        <time>2000-01-02T06:33:28.000Z</time>
      </trkpt>
      <trkpt lat="46.16309" lon="7.90486">
        <ele>2228.2</ele>
        <time>2000-01-02T06:33:38.000Z</time>
      </trkpt>
      <trkpt lat="46.16318" lon="7.90481">
        <ele>2232</ele>
        <time>2000-01-02T06:33:48.000Z</time>
      </trkpt>
      <trkpt lat="46.16333" lon="7.90469">
        <ele>2224.9</ele>
        <time>2000-01-02T06:33:58.000Z</time>
      </trkpt>
      <trkpt lat="46.16355" lon="7.90441">
        <ele>2224</ele>
        <time>2000-01-02T06:34:08.000Z</time>
      </trkpt>
      <trkpt lat="46.16367" lon="7.90437">
        <ele>2214.9</ele>
        <time>2000-01-02T06:34:18.000Z</time>
      </trkpt>
      <trkpt lat="46.16374" lon="7.90425">
        <ele>2219</ele>
        <time>2000-01-02T06:34:28.000Z</time>
      </trkpt>
      <trkpt lat="46.16387" lon="7.90418">
        <ele>2208.6</ele>
        <time>2000-01-02T06:34:38.000Z</time>
      </trkpt>
      <trkpt lat="46.16396" lon="7.90408">
        <ele>2215</ele>
        <time>2000-01-02T06:34:48.000Z</time>
      </trkpt>
      <trkpt lat="46.16405" lon="7.90404">
        <ele>2206.6</ele>
        <time>2000-01-02T06:34:58.000Z</time>
      </trkpt>
      <trkpt lat="46.16414" lon="7.90402">
        <ele>2206</ele>
        <time>2000-01-02T06:35:08.000Z</time>
      </trkpt>
      <trkpt lat="46.16451" lon="7.90384">
        <ele>2197</ele>
        <time>2000-01-02T06:35:18.000Z</time>
      </trkpt>
      <trkpt lat="46.16471" lon="7.90373">
        <ele>2192</ele>
        <time>2000-01-02T06:35:28.000Z</time>
      </trkpt>
      <trkpt lat="46.16481" lon="7.90366">
        <ele>2187.9</ele>
        <time>2000-01-02T06:35:38.000Z</time>
      </trkpt>
      <trkpt lat="46.16493" lon="7.90363">
        <ele>2187</ele>
        <time>2000-01-02T06:35:48.000Z</time>
      </trkpt>
      <trkpt lat="46.16504" lon="7.90359">
        <ele>2178.7</ele>
        <time>2000-01-02T06:35:58.000Z</time>
      </trkpt>
      <trkpt lat="46.16514" lon="7.90353">
        <ele>2180</ele>
        <time>2000-01-02T06:36:08.000Z</time>
      </trkpt>
      <trkpt lat="46.1653" lon="7.90335">
        <ele>2176</ele>
        <time>2000-01-02T06:36:18.000Z</time>
      </trkpt>
      <trkpt lat="46.16546" lon="7.90324">
        <ele>2164.8</ele>
        <time>2000-01-02T06:36:28.000Z</time>
      </trkpt>
      <trkpt lat="46.16557" lon="7.90326">
        <ele>2168</ele>
        <time>2000-01-02T06:36:38.000Z</time>
      </trkpt>
      <trkpt lat="46.16582" lon="7.90314">
        <ele>2162</ele>
        <time>2000-01-02T06:36:48.000Z</time>
      </trkpt>
      <trkpt lat="46.16593" lon="7.90315">
        <ele>2146.2</ele>
        <time>2000-01-02T06:36:58.000Z</time>
      </trkpt>
      <trkpt lat="46.16606" lon="7.90318">
        <ele>2154</ele>
        <time>2000-01-02T06:37:08.000Z</time>
      </trkpt>
      <trkpt lat="46.16616" lon="7.90314">
        <ele>2135</ele>
        <time>2000-01-02T06:37:18.000Z</time>
      </trkpt>
      <trkpt lat="46.16629" lon="7.90306">
        <ele>2154</ele>
        <time>2000-01-02T06:37:28.000Z</time>
      </trkpt>
      <trkpt lat="46.16648" lon="7.90276">
        <ele>2148</ele>
        <time>2000-01-02T06:37:38.000Z</time>
      </trkpt>
      <trkpt lat="46.1666" lon="7.90269">
        <ele>2138.4</ele>
        <time>2000-01-02T06:37:48.000Z</time>
      </trkpt>
      <trkpt lat="46.16669" lon="7.90274">
        <ele>2142</ele>
        <time>2000-01-02T06:37:58.000Z</time>
      </trkpt>
      <trkpt lat="46.16679" lon="7.90278">
        <ele>2136.9</ele>
        <time>2000-01-02T06:38:08.000Z</time>
      </trkpt>
      <trkpt lat="46.16688" lon="7.90289">
        <ele>2138</ele>
        <time>2000-01-02T06:38:18.000Z</time>
      </trkpt>
      <trkpt lat="46.16695" lon="7.90303">
        <ele>2137.3</ele>
        <time>2000-01-02T06:38:28.000Z</time>
      </trkpt>
      <trkpt lat="46.167" lon="7.90319">
        <ele>2136</ele>
        <time>2000-01-02T06:38:38.000Z</time>
      </trkpt>
      <trkpt lat="46.16707" lon="7.9033">
        <ele>2133.2</ele>
        <time>2000-01-02T06:38:48.000Z</time>
      </trkpt>
      <trkpt lat="46.16716" lon="7.90342">
        <ele>2138</ele>
        <time>2000-01-02T06:38:58.000Z</time>
      </trkpt>
      <trkpt lat="46.1673" lon="7.90347">
        <ele>2131</ele>
        <time>2000-01-02T06:39:08.000Z</time>
      </trkpt>
      <trkpt lat="46.16748" lon="7.9034">
        <ele>2141</ele>
        <time>2000-01-02T06:39:18.000Z</time>
      </trkpt>
      <trkpt lat="46.16763" lon="7.90326">
        <ele>2131.7</ele>
        <time>2000-01-02T06:39:28.000Z</time>
      </trkpt>
      <trkpt lat="46.16777" lon="7.90316">
        <ele>2148</ele>
        <time>2000-01-02T06:39:38.000Z</time>
      </trkpt>
      <trkpt lat="46.16785" lon="7.90306">
        <ele>2132</ele>
        <time>2000-01-02T06:39:48.000Z</time>
      </trkpt>
      <trkpt lat="46.16797" lon="7.90296">
        <ele>2150</ele>
        <time>2000-01-02T06:39:58.000Z</time>
      </trkpt>
      <trkpt lat="46.16803" lon="7.90285">
        <ele>2134.6</ele>
        <time>2000-01-02T06:40:08.000Z</time>
      </trkpt>
      <trkpt lat="46.16811" lon="7.90278">
        <ele>2150</ele>
        <time>2000-01-02T06:40:18.000Z</time>
      </trkpt>
      <trkpt lat="46.1683" lon="7.90246">
        <ele>2150</ele>
        <time>2000-01-02T06:40:28.000Z</time>
      </trkpt>
      <trkpt lat="46.16837" lon="7.90227">
        <ele>2135.2</ele>
        <time>2000-01-02T06:40:38.000Z</time>
      </trkpt>
      <trkpt lat="46.1686" lon="7.90202">
        <ele>2151</ele>
        <time>2000-01-02T06:40:48.000Z</time>
      </trkpt>
      <trkpt lat="46.16869" lon="7.90194">
        <ele>2125</ele>
        <time>2000-01-02T06:40:58.000Z</time>
      </trkpt>
      <trkpt lat="46.16877" lon="7.90176">
        <ele>2146</ele>
        <time>2000-01-02T06:41:08.000Z</time>
      </trkpt>
      <trkpt lat="46.16885" lon="7.90162">
        <ele>2144</ele>
        <time>2000-01-02T06:41:18.000Z</time>
      </trkpt>
      <trkpt lat="46.16921" lon="7.90136">
        <ele>2156</ele>
        <time>2000-01-02T06:41:28.000Z</time>
      </trkpt>
      <trkpt lat="46.16929" lon="7.90122">
        <ele>2135.8</ele>
        <time>2000-01-02T06:41:38.000Z</time>
      </trkpt>
      <trkpt lat="46.16934" lon="7.90108">
        <ele>2167</ele>
        <time>2000-01-02T06:41:48.000Z</time>
      </trkpt>
      <trkpt lat="46.16941" lon="7.90089">
        <ele>2154.5</ele>
        <time>2000-01-02T06:41:58.000Z</time>
      </trkpt>
      <trkpt lat="46.16954" lon="7.90069">
        <ele>2178</ele>
        <time>2000-01-02T06:42:08.000Z</time>
      </trkpt>
      <trkpt lat="46.16952" lon="7.90049">
        <ele>2166.3</ele>
        <time>2000-01-02T06:42:18.000Z</time>
      </trkpt>
      <trkpt lat="46.16954" lon="7.90034">
        <ele>2183</ele>
        <time>2000-01-02T06:42:28.000Z</time>
      </trkpt>
      <trkpt lat="46.16966" lon="7.90013">
        <ele>2180</ele>
        <time>2000-01-02T06:42:38.000Z</time>
      </trkpt>
      <trkpt lat="46.16977" lon="7.89983">
        <ele>2177</ele>
        <time>2000-01-02T06:42:48.000Z</time>
      </trkpt>
      <trkpt lat="46.16985" lon="7.89972">
        <ele>2134.2</ele>
        <time>2000-01-02T06:42:58.000Z</time>
      </trkpt>
      <trkpt lat="46.16983" lon="7.89954">
        <ele>2163</ele>
        <time>2000-01-02T06:43:08.000Z</time>
      </trkpt>
      <trkpt lat="46.16996" lon="7.89936">
        <ele>2121.1</ele>
        <time>2000-01-02T06:43:18.000Z</time>
      </trkpt>
      <trkpt lat="46.16994" lon="7.8991">
        <ele>2161</ele>
        <time>2000-01-02T06:43:28.000Z</time>
      </trkpt>
      <trkpt lat="46.16999" lon="7.89896">
        <ele>2121.7</ele>
        <time>2000-01-02T06:43:38.000Z</time>
      </trkpt>
      <trkpt lat="46.17" lon="7.89881">
        <ele>2160</ele>
        <time>2000-01-02T06:43:48.000Z</time>
      </trkpt>
      <trkpt lat="46.16998" lon="7.89865">
        <ele>2135.8</ele>
        <time>2000-01-02T06:43:58.000Z</time>
      </trkpt>
      <trkpt lat="46.17003" lon="7.89853">
        <ele>2156</ele>
        <time>2000-01-02T06:44:08.000Z</time>
      </trkpt>
      <trkpt lat="46.17002" lon="7.89814">
        <ele>2153</ele>
        <time>2000-01-02T06:44:18.000Z</time>
      </trkpt>
      <trkpt lat="46.1701" lon="7.89797">
        <ele>2133.1</ele>
        <time>2000-01-02T06:44:28.000Z</time>
      </trkpt>
      <trkpt lat="46.1702" lon="7.89781">
        <ele>2131</ele>
        <time>2000-01-02T06:44:38.000Z</time>
      </trkpt>
      <trkpt lat="46.17031" lon="7.89762">
        <ele>2107.9</ele>
        <time>2000-01-02T06:44:48.000Z</time>
      </trkpt>
      <trkpt lat="46.17031" lon="7.89743">
        <ele>2129</ele>
        <time>2000-01-02T06:44:58.000Z</time>
      </trkpt>
      <trkpt lat="46.1702" lon="7.89712">
        <ele>2128</ele>
        <time>2000-01-02T06:45:08.000Z</time>
      </trkpt>
      <trkpt lat="46.17019" lon="7.89693">
        <ele>2114.7</ele>
        <time>2000-01-02T06:45:18.000Z</time>
      </trkpt>
      <trkpt lat="46.17012" lon="7.89676">
        <ele>2127</ele>
        <time>2000-01-02T06:45:28.000Z</time>
      </trkpt>
      <trkpt lat="46.17009" lon="7.89662">
        <ele>2117.6</ele>
        <time>2000-01-02T06:45:38.000Z</time>
      </trkpt>
      <trkpt lat="46.17004" lon="7.89635">
        <ele>2127</ele>
        <time>2000-01-02T06:45:48.000Z</time>
      </trkpt>
      <trkpt lat="46.17003" lon="7.89621">
        <ele>2111.9</ele>
        <time>2000-01-02T06:45:58.000Z</time>
      </trkpt>
      <trkpt lat="46.17" lon="7.89598">
        <ele>2127</ele>
        <time>2000-01-02T06:46:08.000Z</time>
      </trkpt>
      <trkpt lat="46.16994" lon="7.89579">
        <ele>2112.3</ele>
        <time>2000-01-02T06:46:18.000Z</time>
      </trkpt>
      <trkpt lat="46.16986" lon="7.89563">
        <ele>2126</ele>
        <time>2000-01-02T06:46:28.000Z</time>
      </trkpt>
      <trkpt lat="46.16984" lon="7.89545">
        <ele>2114</ele>
        <time>2000-01-02T06:46:38.000Z</time>
      </trkpt>
      <trkpt lat="46.1698" lon="7.89525">
        <ele>2126</ele>
        <time>2000-01-02T06:46:48.000Z</time>
      </trkpt>
      <trkpt lat="46.16977" lon="7.89499">
        <ele>2110.6</ele>
        <time>2000-01-02T06:46:58.000Z</time>
      </trkpt>
      <trkpt lat="46.16975" lon="7.89481">
        <ele>2123</ele>
        <time>2000-01-02T06:47:08.000Z</time>
      </trkpt>
      <trkpt lat="46.16967" lon="7.89466">
        <ele>2110.7</ele>
        <time>2000-01-02T06:47:18.000Z</time>
      </trkpt>
      <trkpt lat="46.1696" lon="7.89456">
        <ele>2120</ele>
        <time>2000-01-02T06:47:28.000Z</time>
      </trkpt>
      <trkpt lat="46.16958" lon="7.89435">
        <ele>2108</ele>
        <time>2000-01-02T06:47:38.000Z</time>
      </trkpt>
      <trkpt lat="46.16954" lon="7.89414">
        <ele>2118</ele>
        <time>2000-01-02T06:47:48.000Z</time>
      </trkpt>
      <trkpt lat="46.16947" lon="7.89393">
        <ele>2106.4</ele>
        <time>2000-01-02T06:47:58.000Z</time>
      </trkpt>
      <trkpt lat="46.16939" lon="7.89377">
        <ele>2116</ele>
        <time>2000-01-02T06:48:08.000Z</time>
      </trkpt>
      <trkpt lat="46.16936" lon="7.89338">
        <ele>2111</ele>
        <time>2000-01-02T06:48:18.000Z</time>
      </trkpt>
      <trkpt lat="46.16934" lon="7.89323">
        <ele>2103.2</ele>
        <time>2000-01-02T06:48:28.000Z</time>
      </trkpt>
      <trkpt lat="46.16937" lon="7.8929">
        <ele>2105</ele>
        <time>2000-01-02T06:48:38.000Z</time>
      </trkpt>
      <trkpt lat="46.1693" lon="7.89236">
        <ele>2105</ele>
        <time>2000-01-02T06:48:48.000Z</time>
      </trkpt>
      <trkpt lat="46.16931" lon="7.89223">
        <ele>2099.3</ele>
        <time>2000-01-02T06:48:58.000Z</time>
      </trkpt>
      <trkpt lat="46.16928" lon="7.89203">
        <ele>2102</ele>
        <time>2000-01-02T06:49:08.000Z</time>
      </trkpt>
      <trkpt lat="46.16927" lon="7.89186">
        <ele>2094.9</ele>
        <time>2000-01-02T06:49:18.000Z</time>
      </trkpt>
      <trkpt lat="46.16921" lon="7.89175">
        <ele>2102</ele>
        <time>2000-01-02T06:49:28.000Z</time>
      </trkpt>
      <trkpt lat="46.16918" lon="7.89156">
        <ele>2096.6</ele>
        <time>2000-01-02T06:49:38.000Z</time>
      </trkpt>
      <trkpt lat="46.16909" lon="7.89108">
        <ele>2102</ele>
        <time>2000-01-02T06:49:48.000Z</time>
      </trkpt>
      <trkpt lat="46.16904" lon="7.89095">
        <ele>2094.3</ele>
        <time>2000-01-02T06:49:58.000Z</time>
      </trkpt>
      <trkpt lat="46.16903" lon="7.89082">
        <ele>2101</ele>
        <time>2000-01-02T06:50:08.000Z</time>
      </trkpt>
      <trkpt lat="46.16898" lon="7.89065">
        <ele>2095.8</ele>
        <time>2000-01-02T06:50:18.000Z</time>
      </trkpt>
      <trkpt lat="46.16894" lon="7.89048">
        <ele>2100</ele>
        <time>2000-01-02T06:50:28.000Z</time>
      </trkpt>
      <trkpt lat="46.16883" lon="7.89028">
        <ele>2099.5</ele>
        <time>2000-01-02T06:50:38.000Z</time>
      </trkpt>
      <trkpt lat="46.16893" lon="7.89032">
        <ele>2100</ele>
        <time>2000-01-02T06:50:48.000Z</time>
      </trkpt>
      <trkpt lat="46.1689" lon="7.89015">
        <ele>2093.3</ele>
        <time>2000-01-02T06:50:58.000Z</time>
      </trkpt>
      <trkpt lat="46.16883" lon="7.88997">
        <ele>2100</ele>
        <time>2000-01-02T06:51:08.000Z</time>
      </trkpt>
      <trkpt lat="46.16874" lon="7.88977">
        <ele>2097.1</ele>
        <time>2000-01-02T06:51:18.000Z</time>
      </trkpt>
      <trkpt lat="46.16866" lon="7.88941">
        <ele>2104</ele>
        <time>2000-01-02T06:51:28.000Z</time>
      </trkpt>
      <trkpt lat="46.16864" lon="7.88926">
        <ele>2095.4</ele>
        <time>2000-01-02T06:51:38.000Z</time>
      </trkpt>
      <trkpt lat="46.16858" lon="7.88914">
        <ele>2108</ele>
        <time>2000-01-02T06:51:48.000Z</time>
      </trkpt>
      <trkpt lat="46.16854" lon="7.88892">
        <ele>2097.3</ele>
        <time>2000-01-02T06:51:58.000Z</time>
      </trkpt>
      <trkpt lat="46.16848" lon="7.88869">
        <ele>2107</ele>
        <time>2000-01-02T06:52:08.000Z</time>
      </trkpt>
      <trkpt lat="46.16845" lon="7.88842">
        <ele>2107</ele>
        <time>2000-01-02T06:52:18.000Z</time>
      </trkpt>
      <trkpt lat="46.16841" lon="7.88813">
        <ele>2107</ele>
        <time>2000-01-02T06:52:28.000Z</time>
      </trkpt>
      <trkpt lat="46.16835" lon="7.88796">
        <ele>2099.5</ele>
        <time>2000-01-02T06:52:38.000Z</time>
      </trkpt>
      <trkpt lat="46.1683" lon="7.88762">
        <ele>2106</ele>
        <time>2000-01-02T06:52:48.000Z</time>
      </trkpt>
      <trkpt lat="46.16829" lon="7.8874">
        <ele>2102.2</ele>
        <time>2000-01-02T06:52:58.000Z</time>
      </trkpt>
      <trkpt lat="46.16832" lon="7.88723">
        <ele>2105</ele>
        <time>2000-01-02T06:53:08.000Z</time>
      </trkpt>
      <trkpt lat="46.16837" lon="7.88707">
        <ele>2102.3</ele>
        <time>2000-01-02T06:53:18.000Z</time>
      </trkpt>
      <trkpt lat="46.16857" lon="7.88705">
        <ele>2105</ele>
        <time>2000-01-02T06:53:28.000Z</time>
      </trkpt>
      <trkpt lat="46.16866" lon="7.8871">
        <ele>2103.2</ele>
        <time>2000-01-02T06:53:38.000Z</time>
      </trkpt>
      <trkpt lat="46.16874" lon="7.887">
        <ele>2109</ele>
        <time>2000-01-02T06:53:48.000Z</time>
      </trkpt>
      <trkpt lat="46.16881" lon="7.88689">
        <ele>2109.9</ele>
        <time>2000-01-02T06:53:58.000Z</time>
      </trkpt>
      <trkpt lat="46.1689" lon="7.88691">
        <ele>2115</ele>
        <time>2000-01-02T06:54:08.000Z</time>
      </trkpt>
      <trkpt lat="46.16905" lon="7.88691">
        <ele>2112.2</ele>
        <time>2000-01-02T06:54:18.000Z</time>
      </trkpt>
      <trkpt lat="46.16917" lon="7.88683">
        <ele>2126</ele>
        <time>2000-01-02T06:54:28.000Z</time>
      </trkpt>
      <trkpt lat="46.1693" lon="7.88673">
        <ele>2119.8</ele>
        <time>2000-01-02T06:54:38.000Z</time>
      </trkpt>
      <trkpt lat="46.16943" lon="7.88672">
        <ele>2127</ele>
        <time>2000-01-02T06:54:48.000Z</time>
      </trkpt>
      <trkpt lat="46.16955" lon="7.88668">
        <ele>2126.1</ele>
        <time>2000-01-02T06:54:58.000Z</time>
      </trkpt>
      <trkpt lat="46.1697" lon="7.88669">
        <ele>2137</ele>
        <time>2000-01-02T06:55:08.000Z</time>
      </trkpt>
      <trkpt lat="46.16981" lon="7.88672">
        <ele>2136.4</ele>
        <time>2000-01-02T06:55:18.000Z</time>
      </trkpt>
      <trkpt lat="46.16993" lon="7.88683">
        <ele>2142</ele>
        <time>2000-01-02T06:55:28.000Z</time>
      </trkpt>
      <trkpt lat="46.16999" lon="7.88692">
        <ele>2138.4</ele>
        <time>2000-01-02T06:55:38.000Z</time>
      </trkpt>
      <trkpt lat="46.17032" lon="7.88703">
        <ele>2160</ele>
        <time>2000-01-02T06:55:48.000Z</time>
      </trkpt>
      <trkpt lat="46.17044" lon="7.88704">
        <ele>2151.9</ele>
        <time>2000-01-02T06:55:58.000Z</time>
      </trkpt>
      <trkpt lat="46.17053" lon="7.88713">
        <ele>2162</ele>
        <time>2000-01-02T06:56:08.000Z</time>
      </trkpt>
      <trkpt lat="46.17063" lon="7.8871">
        <ele>2157.3</ele>
        <time>2000-01-02T06:56:18.000Z</time>
      </trkpt>
      <trkpt lat="46.17069" lon="7.88721">
        <ele>2163</ele>
        <time>2000-01-02T06:56:28.000Z</time>
      </trkpt>
      <trkpt lat="46.17078" lon="7.88721">
        <ele>2159.2</ele>
        <time>2000-01-02T06:56:38.000Z</time>
      </trkpt>
      <trkpt lat="46.17097" lon="7.88726">
        <ele>2175</ele>
        <time>2000-01-02T06:56:48.000Z</time>
      </trkpt>
      <trkpt lat="46.17113" lon="7.88724">
        <ele>2165.7</ele>
        <time>2000-01-02T06:56:58.000Z</time>
      </trkpt>
      <trkpt lat="46.17139" lon="7.88725">
        <ele>2177</ele>
        <time>2000-01-02T06:57:08.000Z</time>
      </trkpt>
      <trkpt lat="46.17149" lon="7.88727">
        <ele>2170.6</ele>
        <time>2000-01-02T06:57:18.000Z</time>
      </trkpt>
      <trkpt lat="46.1717" lon="7.88721">
        <ele>2179</ele>
        <time>2000-01-02T06:57:28.000Z</time>
      </trkpt>
      <trkpt lat="46.17189" lon="7.88708">
        <ele>2187</ele>
        <time>2000-01-02T06:57:38.000Z</time>
      </trkpt>
      <trkpt lat="46.17198" lon="7.88715">
        <ele>2179.7</ele>
        <time>2000-01-02T06:57:48.000Z</time>
      </trkpt>
      <trkpt lat="46.17227" lon="7.88711">
        <ele>2187</ele>
        <time>2000-01-02T06:57:58.000Z</time>
      </trkpt>
      <trkpt lat="46.17242" lon="7.88724">
        <ele>2184.7</ele>
        <time>2000-01-02T06:58:08.000Z</time>
      </trkpt>
      <trkpt lat="46.17253" lon="7.88737">
        <ele>2192</ele>
        <time>2000-01-02T06:58:18.000Z</time>
      </trkpt>
      <trkpt lat="46.17264" lon="7.88745">
        <ele>2184.2</ele>
        <time>2000-01-02T06:58:28.000Z</time>
      </trkpt>
      <trkpt lat="46.17281" lon="7.88752">
        <ele>2196</ele>
        <time>2000-01-02T06:58:38.000Z</time>
      </trkpt>
      <trkpt lat="46.1731" lon="7.88752">
        <ele>2196</ele>
        <time>2000-01-02T06:58:48.000Z</time>
      </trkpt>
      <trkpt lat="46.17319" lon="7.8875">
        <ele>2193.8</ele>
        <time>2000-01-02T06:58:58.000Z</time>
      </trkpt>
      <trkpt lat="46.17332" lon="7.88758">
        <ele>2204</ele>
        <time>2000-01-02T06:59:08.000Z</time>
      </trkpt>
      <trkpt lat="46.17344" lon="7.88771">
        <ele>2194.3</ele>
        <time>2000-01-02T06:59:18.000Z</time>
      </trkpt>
      <trkpt lat="46.17355" lon="7.88772">
        <ele>2205</ele>
        <time>2000-01-02T06:59:28.000Z</time>
      </trkpt>
      <trkpt lat="46.17364" lon="7.88781">
        <ele>2198.9</ele>
        <time>2000-01-02T06:59:38.000Z</time>
      </trkpt>
      <trkpt lat="46.17375" lon="7.88793">
        <ele>2208</ele>
        <time>2000-01-02T06:59:48.000Z</time>
      </trkpt>
      <trkpt lat="46.174" lon="7.88797">
        <ele>2212</ele>
        <time>2000-01-02T06:59:58.000Z</time>
      </trkpt>
      <trkpt lat="46.17413" lon="7.888">
        <ele>2204.5</ele>
        <time>2000-01-02T07:00:08.000Z</time>
      </trkpt>
      <trkpt lat="46.17424" lon="7.88796">
        <ele>2218</ele>
        <time>2000-01-02T07:00:18.000Z</time>
      </trkpt>
      <trkpt lat="46.17436" lon="7.88807">
        <ele>2213.2</ele>
        <time>2000-01-02T07:00:28.000Z</time>
      </trkpt>
      <trkpt lat="46.17446" lon="7.88822">
        <ele>2218</ele>
        <time>2000-01-02T07:00:38.000Z</time>
      </trkpt>
      <trkpt lat="46.17454" lon="7.88829">
        <ele>2214.1</ele>
        <time>2000-01-02T07:00:48.000Z</time>
      </trkpt>
      <trkpt lat="46.17468" lon="7.8883">
        <ele>2226</ele>
        <time>2000-01-02T07:00:58.000Z</time>
      </trkpt>
      <trkpt lat="46.17479" lon="7.88835">
        <ele>2224.8</ele>
        <time>2000-01-02T07:01:08.000Z</time>
      </trkpt>
      <trkpt lat="46.17494" lon="7.88847">
        <ele>2232</ele>
        <time>2000-01-02T07:01:18.000Z</time>
      </trkpt>
      <trkpt lat="46.17503" lon="7.8886">
        <ele>2220.4</ele>
        <time>2000-01-02T07:01:28.000Z</time>
      </trkpt>
      <trkpt lat="46.17517" lon="7.88862">
        <ele>2235</ele>
        <time>2000-01-02T07:01:38.000Z</time>
      </trkpt>
      <trkpt lat="46.17529" lon="7.88861">
        <ele>2226.2</ele>
        <time>2000-01-02T07:01:48.000Z</time>
      </trkpt>
      <trkpt lat="46.17544" lon="7.88862">
        <ele>2236</ele>
        <time>2000-01-02T07:01:58.000Z</time>
      </trkpt>
      <trkpt lat="46.17568" lon="7.88861">
        <ele>2236</ele>
        <time>2000-01-02T07:02:08.000Z</time>
      </trkpt>
      <trkpt lat="46.17586" lon="7.88867">
        <ele>2233.7</ele>
        <time>2000-01-02T07:02:18.000Z</time>
      </trkpt>
      <trkpt lat="46.17598" lon="7.88869">
        <ele>2242</ele>
        <time>2000-01-02T07:02:28.000Z</time>
      </trkpt>
      <trkpt lat="46.17608" lon="7.88876">
        <ele>2242.4</ele>
        <time>2000-01-02T07:02:38.000Z</time>
      </trkpt>
      <trkpt lat="46.17621" lon="7.88885">
        <ele>2253</ele>
        <time>2000-01-02T07:02:48.000Z</time>
      </trkpt>
      <trkpt lat="46.17628" lon="7.88898">
        <ele>2253.3</ele>
        <time>2000-01-02T07:02:58.000Z</time>
      </trkpt>
      <trkpt lat="46.17633" lon="7.88933">
        <ele>2259</ele>
        <time>2000-01-02T07:03:08.000Z</time>
      </trkpt>
      <trkpt lat="46.17633" lon="7.8895">
        <ele>2257.4</ele>
        <time>2000-01-02T07:03:18.000Z</time>
      </trkpt>
      <trkpt lat="46.17633" lon="7.8897">
        <ele>2259</ele>
        <time>2000-01-02T07:03:28.000Z</time>
      </trkpt>
      <trkpt lat="46.17634" lon="7.88988">
        <ele>2259.5</ele>
        <time>2000-01-02T07:03:38.000Z</time>
      </trkpt>
      <trkpt lat="46.17638" lon="7.89002">
        <ele>2260</ele>
        <time>2000-01-02T07:03:48.000Z</time>
      </trkpt>
      <trkpt lat="46.17644" lon="7.89011">
        <ele>2261.7</ele>
        <time>2000-01-02T07:03:58.000Z</time>
      </trkpt>
      <trkpt lat="46.1765" lon="7.89028">
        <ele>2264</ele>
        <time>2000-01-02T07:04:08.000Z</time>
      </trkpt>
      <trkpt lat="46.1766" lon="7.89041">
        <ele>2264.9</ele>
        <time>2000-01-02T07:04:18.000Z</time>
      </trkpt>
      <trkpt lat="46.17675" lon="7.89045">
        <ele>2272</ele>
        <time>2000-01-02T07:04:28.000Z</time>
      </trkpt>
      <trkpt lat="46.17686" lon="7.89044">
        <ele>2271.8</ele>
        <time>2000-01-02T07:04:38.000Z</time>
      </trkpt>
      <trkpt lat="46.17697" lon="7.89047">
        <ele>2278</ele>
        <time>2000-01-02T07:04:48.000Z</time>
      </trkpt>
      <trkpt lat="46.17708" lon="7.89048">
        <ele>2273.5</ele>
        <time>2000-01-02T07:04:58.000Z</time>
      </trkpt>
      <trkpt lat="46.1772" lon="7.8904">
        <ele>2286</ele>
        <time>2000-01-02T07:05:08.000Z</time>
      </trkpt>
      <trkpt lat="46.17731" lon="7.89034">
        <ele>2282.6</ele>
        <time>2000-01-02T07:05:18.000Z</time>
      </trkpt>
      <trkpt lat="46.17741" lon="7.89038">
        <ele>2287</ele>
        <time>2000-01-02T07:05:28.000Z</time>
      </trkpt>
      <trkpt lat="46.1775" lon="7.89037">
        <ele>2281</ele>
        <time>2000-01-02T07:05:38.000Z</time>
      </trkpt>
      <trkpt lat="46.1776" lon="7.89031">
        <ele>2287</ele>
        <time>2000-01-02T07:05:48.000Z</time>
      </trkpt>
      <trkpt lat="46.1777" lon="7.89029">
        <ele>2282.5</ele>
        <time>2000-01-02T07:05:58.000Z</time>
      </trkpt>
      <trkpt lat="46.17778" lon="7.8902">
        <ele>2289</ele>
        <time>2000-01-02T07:06:08.000Z</time>
      </trkpt>
      <trkpt lat="46.1779" lon="7.89012">
        <ele>2281.1</ele>
        <time>2000-01-02T07:06:18.000Z</time>
      </trkpt>
      <trkpt lat="46.17798" lon="7.88996">
        <ele>2291</ele>
        <time>2000-01-02T07:06:28.000Z</time>
      </trkpt>
      <trkpt lat="46.17811" lon="7.88964">
        <ele>2291</ele>
        <time>2000-01-02T07:06:38.000Z</time>
      </trkpt>
      <trkpt lat="46.17819" lon="7.8895">
        <ele>2282.4</ele>
        <time>2000-01-02T07:06:48.000Z</time>
      </trkpt>
      <trkpt lat="46.17823" lon="7.88925">
        <ele>2295</ele>
        <time>2000-01-02T07:06:58.000Z</time>
      </trkpt>
      <trkpt lat="46.17825" lon="7.88904">
        <ele>2291.6</ele>
        <time>2000-01-02T07:07:08.000Z</time>
      </trkpt>
      <trkpt lat="46.17834" lon="7.8889">
        <ele>2300</ele>
        <time>2000-01-02T07:07:18.000Z</time>
      </trkpt>
      <trkpt lat="46.17839" lon="7.88875">
        <ele>2291.7</ele>
        <time>2000-01-02T07:07:28.000Z</time>
      </trkpt>
      <trkpt lat="46.17848" lon="7.88862">
        <ele>2303</ele>
        <time>2000-01-02T07:07:38.000Z</time>
      </trkpt>
      <trkpt lat="46.17857" lon="7.88845">
        <ele>2289.9</ele>
        <time>2000-01-02T07:07:48.000Z</time>
      </trkpt>
      <trkpt lat="46.17868" lon="7.88817">
        <ele>2304</ele>
        <time>2000-01-02T07:07:58.000Z</time>
      </trkpt>
      <trkpt lat="46.17874" lon="7.88797">
        <ele>2294.3</ele>
        <time>2000-01-02T07:08:08.000Z</time>
      </trkpt>
      <trkpt lat="46.1788" lon="7.88785">
        <ele>2305</ele>
        <time>2000-01-02T07:08:18.000Z</time>
      </trkpt>
      <trkpt lat="46.17891" lon="7.88778">
        <ele>2292.1</ele>
        <time>2000-01-02T07:08:28.000Z</time>
      </trkpt>
      <trkpt lat="46.17893" lon="7.88751">
        <ele>2307</ele>
        <time>2000-01-02T07:08:38.000Z</time>
      </trkpt>
      <trkpt lat="46.17892" lon="7.88732">
        <ele>2303</ele>
        <time>2000-01-02T07:08:48.000Z</time>
      </trkpt>
      <trkpt lat="46.17889" lon="7.88716">
        <ele>2311</ele>
        <time>2000-01-02T07:08:58.000Z</time>
      </trkpt>
      <trkpt lat="46.179" lon="7.88707">
        <ele>2303.8</ele>
        <time>2000-01-02T07:09:08.000Z</time>
      </trkpt>
      <trkpt lat="46.17926" lon="7.88685">
        <ele>2316</ele>
        <time>2000-01-02T07:09:18.000Z</time>
      </trkpt>
      <trkpt lat="46.17938" lon="7.88681">
        <ele>2306.1</ele>
        <time>2000-01-02T07:09:28.000Z</time>
      </trkpt>
      <trkpt lat="46.17948" lon="7.88675">
        <ele>2316</ele>
        <time>2000-01-02T07:09:38.000Z</time>
      </trkpt>
      <trkpt lat="46.17961" lon="7.88668">
        <ele>2308.5</ele>
        <time>2000-01-02T07:09:48.000Z</time>
      </trkpt>
      <trkpt lat="46.17972" lon="7.88664">
        <ele>2316</ele>
        <time>2000-01-02T07:09:58.000Z</time>
      </trkpt>
      <trkpt lat="46.17995" lon="7.88647">
        <ele>2325</ele>
        <time>2000-01-02T07:10:08.000Z</time>
      </trkpt>
      <trkpt lat="46.18005" lon="7.88655">
        <ele>2323</ele>
        <time>2000-01-02T07:10:18.000Z</time>
      </trkpt>
      <trkpt lat="46.18012" lon="7.88675">
        <ele>2324</ele>
        <time>2000-01-02T07:10:28.000Z</time>
      </trkpt>
      <trkpt lat="46.18018" lon="7.8869">
        <ele>2323.4</ele>
        <time>2000-01-02T07:10:38.000Z</time>
      </trkpt>
      <trkpt lat="46.18027" lon="7.88705">
        <ele>2324</ele>
        <time>2000-01-02T07:10:48.000Z</time>
      </trkpt>
      <trkpt lat="46.18037" lon="7.88709">
        <ele>2321.3</ele>
        <time>2000-01-02T07:10:58.000Z</time>
      </trkpt>
      <trkpt lat="46.18054" lon="7.88707">
        <ele>2325</ele>
        <time>2000-01-02T07:11:08.000Z</time>
      </trkpt>
      <trkpt lat="46.18062" lon="7.88693">
        <ele>2322.9</ele>
        <time>2000-01-02T07:11:18.000Z</time>
      </trkpt>
      <trkpt lat="46.18076" lon="7.88672">
        <ele>2331</ele>
        <time>2000-01-02T07:11:28.000Z</time>
      </trkpt>
      <trkpt lat="46.181" lon="7.88657">
        <ele>2334</ele>
        <time>2000-01-02T07:11:38.000Z</time>
      </trkpt>
      <trkpt lat="46.18109" lon="7.88645">
        <ele>2320.5</ele>
        <time>2000-01-02T07:11:48.000Z</time>
      </trkpt>
      <trkpt lat="46.18118" lon="7.88636">
        <ele>2334</ele>
        <time>2000-01-02T07:11:58.000Z</time>
      </trkpt>
      <trkpt lat="46.18135" lon="7.88636">
        <ele>2319.1</ele>
        <time>2000-01-02T07:12:08.000Z</time>
      </trkpt>
      <trkpt lat="46.18147" lon="7.88627">
        <ele>2331</ele>
        <time>2000-01-02T07:12:18.000Z</time>
      </trkpt>
      <trkpt lat="46.18158" lon="7.88625">
        <ele>2328.1</ele>
        <time>2000-01-02T07:12:28.000Z</time>
      </trkpt>
      <trkpt lat="46.18168" lon="7.88634">
        <ele>2332</ele>
        <time>2000-01-02T07:12:38.000Z</time>
      </trkpt>
      <trkpt lat="46.18192" lon="7.88637">
        <ele>2333</ele>
        <time>2000-01-02T07:12:48.000Z</time>
      </trkpt>
      <trkpt lat="46.18206" lon="7.88635">
        <ele>2323.3</ele>
        <time>2000-01-02T07:12:58.000Z</time>
      </trkpt>
      <trkpt lat="46.18226" lon="7.88616">
        <ele>2341</ele>
        <time>2000-01-02T07:13:08.000Z</time>
      </trkpt>
      <trkpt lat="46.18239" lon="7.88606">
        <ele>2335.3</ele>
        <time>2000-01-02T07:13:18.000Z</time>
      </trkpt>
      <trkpt lat="46.1825" lon="7.88602">
        <ele>2341</ele>
        <time>2000-01-02T07:13:28.000Z</time>
      </trkpt>
      <trkpt lat="46.18263" lon="7.8859">
        <ele>2337.6</ele>
        <time>2000-01-02T07:13:38.000Z</time>
      </trkpt>
      <trkpt lat="46.18279" lon="7.88567">
        <ele>2345</ele>
        <time>2000-01-02T07:13:48.000Z</time>
      </trkpt>
      <trkpt lat="46.18289" lon="7.88551">
        <ele>2339.5</ele>
        <time>2000-01-02T07:13:58.000Z</time>
      </trkpt>
      <trkpt lat="46.1829" lon="7.88537">
        <ele>2350</ele>
        <time>2000-01-02T07:14:08.000Z</time>
      </trkpt>
      <trkpt lat="46.18297" lon="7.88518">
        <ele>2343.8</ele>
        <time>2000-01-02T07:14:18.000Z</time>
      </trkpt>
      <trkpt lat="46.18303" lon="7.88508">
        <ele>2353</ele>
        <time>2000-01-02T07:14:28.000Z</time>
      </trkpt>
      <trkpt lat="46.18318" lon="7.88492">
        <ele>2338.9</ele>
        <time>2000-01-02T07:14:38.000Z</time>
      </trkpt>
      <trkpt lat="46.18326" lon="7.88479">
        <ele>2355</ele>
        <time>2000-01-02T07:14:48.000Z</time>
      </trkpt>
      <trkpt lat="46.18324" lon="7.88452">
        <ele>2358</ele>
        <time>2000-01-02T07:14:58.000Z</time>
      </trkpt>
      <trkpt lat="46.18316" lon="7.88439">
        <ele>2356</ele>
        <time>2000-01-02T07:15:08.000Z</time>
      </trkpt>
      <trkpt lat="46.18313" lon="7.88401">
        <ele>2363</ele>
        <time>2000-01-02T07:15:18.000Z</time>
      </trkpt>
      <trkpt lat="46.18299" lon="7.88374">
        <ele>2375</ele>
        <time>2000-01-02T07:15:28.000Z</time>
      </trkpt>
      <trkpt lat="46.183" lon="7.88341">
        <ele>2375</ele>
        <time>2000-01-02T07:15:38.000Z</time>
      </trkpt>
      <trkpt lat="46.18292" lon="7.88316">
        <ele>2377</ele>
        <time>2000-01-02T07:15:48.000Z</time>
      </trkpt>
      <trkpt lat="46.18291" lon="7.88303">
        <ele>2366.4</ele>
        <time>2000-01-02T07:15:58.000Z</time>
      </trkpt>
      <trkpt lat="46.18295" lon="7.88266">
        <ele>2374</ele>
        <time>2000-01-02T07:16:08.000Z</time>
      </trkpt>
      <trkpt lat="46.18314" lon="7.88237">
        <ele>2371</ele>
        <time>2000-01-02T07:16:18.000Z</time>
      </trkpt>
      <trkpt lat="46.18318" lon="7.8822">
        <ele>2361.6</ele>
        <time>2000-01-02T07:16:28.000Z</time>
      </trkpt>
      <trkpt lat="46.18327" lon="7.8821">
        <ele>2371</ele>
        <time>2000-01-02T07:16:38.000Z</time>
      </trkpt>
      <trkpt lat="46.18332" lon="7.88197">
        <ele>2360.8</ele>
        <time>2000-01-02T07:16:48.000Z</time>
      </trkpt>
      <trkpt lat="46.18333" lon="7.88182">
        <ele>2372</ele>
        <time>2000-01-02T07:16:58.000Z</time>
      </trkpt>
      <trkpt lat="46.18328" lon="7.88159">
        <ele>2369.9</ele>
        <time>2000-01-02T07:17:08.000Z</time>
      </trkpt>
      <trkpt lat="46.18327" lon="7.88144">
        <ele>2376</ele>
        <time>2000-01-02T07:17:18.000Z</time>
      </trkpt>
      <trkpt lat="46.18335" lon="7.88132">
        <ele>2368.5</ele>
        <time>2000-01-02T07:17:28.000Z</time>
      </trkpt>
      <trkpt lat="46.18341" lon="7.88121">
        <ele>2381</ele>
        <time>2000-01-02T07:17:38.000Z</time>
      </trkpt>
      <trkpt lat="46.18341" lon="7.88106">
        <ele>2379.9</ele>
        <time>2000-01-02T07:17:48.000Z</time>
      </trkpt>
      <trkpt lat="46.18338" lon="7.8809">
        <ele>2388</ele>
        <time>2000-01-02T07:17:58.000Z</time>
      </trkpt>
      <trkpt lat="46.18332" lon="7.88073">
        <ele>2393.3</ele>
        <time>2000-01-02T07:18:08.000Z</time>
      </trkpt>
      <trkpt lat="46.18333" lon="7.88055">
        <ele>2390</ele>
        <time>2000-01-02T07:18:18.000Z</time>
      </trkpt>
      <trkpt lat="46.1833" lon="7.88041">
        <ele>2386.5</ele>
        <time>2000-01-02T07:18:28.000Z</time>
      </trkpt>
      <trkpt lat="46.18325" lon="7.88027">
        <ele>2384</ele>
        <time>2000-01-02T07:18:38.000Z</time>
      </trkpt>
      <trkpt lat="46.18319" lon="7.88016">
        <ele>2387.4</ele>
        <time>2000-01-02T07:18:48.000Z</time>
      </trkpt>
      <trkpt lat="46.18321" lon="7.87999">
        <ele>2384</ele>
        <time>2000-01-02T07:18:58.000Z</time>
      </trkpt>
      <trkpt lat="46.18321" lon="7.8798">
        <ele>2371.4</ele>
        <time>2000-01-02T07:19:08.000Z</time>
      </trkpt>
      <trkpt lat="46.1831" lon="7.87971">
        <ele>2381</ele>
        <time>2000-01-02T07:19:18.000Z</time>
      </trkpt>
      <trkpt lat="46.18305" lon="7.87958">
        <ele>2378.6</ele>
        <time>2000-01-02T07:19:28.000Z</time>
      </trkpt>
      <trkpt lat="46.18297" lon="7.87929">
        <ele>2387</ele>
        <time>2000-01-02T07:19:38.000Z</time>
      </trkpt>
      <trkpt lat="46.1829" lon="7.87914">
        <ele>2373.2</ele>
        <time>2000-01-02T07:19:48.000Z</time>
      </trkpt>
      <trkpt lat="46.18279" lon="7.87905">
        <ele>2384</ele>
        <time>2000-01-02T07:19:58.000Z</time>
      </trkpt>
      <trkpt lat="46.18281" lon="7.87889">
        <ele>2373.1</ele>
        <time>2000-01-02T07:20:08.000Z</time>
      </trkpt>
      <trkpt lat="46.18288" lon="7.8788">
        <ele>2382</ele>
        <time>2000-01-02T07:20:18.000Z</time>
      </trkpt>
      <trkpt lat="46.18293" lon="7.87868">
        <ele>2369.3</ele>
        <time>2000-01-02T07:20:28.000Z</time>
      </trkpt>
      <trkpt lat="46.18299" lon="7.87848">
        <ele>2381</ele>
        <time>2000-01-02T07:20:38.000Z</time>
      </trkpt>
      <trkpt lat="46.18304" lon="7.87823">
        <ele>2371.1</ele>
        <time>2000-01-02T07:20:48.000Z</time>
      </trkpt>
      <trkpt lat="46.18316" lon="7.87812">
        <ele>2376</ele>
        <time>2000-01-02T07:20:58.000Z</time>
      </trkpt>
      <trkpt lat="46.18334" lon="7.87804">
        <ele>2370</ele>
        <time>2000-01-02T07:21:08.000Z</time>
      </trkpt>
      <trkpt lat="46.18347" lon="7.878">
        <ele>2359.9</ele>
        <time>2000-01-02T07:21:18.000Z</time>
      </trkpt>
      <trkpt lat="46.18354" lon="7.87787">
        <ele>2371</ele>
        <time>2000-01-02T07:21:28.000Z</time>
      </trkpt>
      <trkpt lat="46.18362" lon="7.87767">
        <ele>2358.9</ele>
        <time>2000-01-02T07:21:38.000Z</time>
      </trkpt>
      <trkpt lat="46.18369" lon="7.87756">
        <ele>2367</ele>
        <time>2000-01-02T07:21:48.000Z</time>
      </trkpt>
      <trkpt lat="46.18378" lon="7.87749">
        <ele>2356.3</ele>
        <time>2000-01-02T07:21:58.000Z</time>
      </trkpt>
      <trkpt lat="46.18408" lon="7.87729">
        <ele>2366</ele>
        <time>2000-01-02T07:22:08.000Z</time>
      </trkpt>
      <trkpt lat="46.1844" lon="7.87699">
        <ele>2365</ele>
        <time>2000-01-02T07:22:18.000Z</time>
      </trkpt>
      <trkpt lat="46.18455" lon="7.87689">
        <ele>2343</ele>
        <time>2000-01-02T07:22:28.000Z</time>
      </trkpt>
      <trkpt lat="46.18473" lon="7.8768">
        <ele>2360</ele>
        <time>2000-01-02T07:22:38.000Z</time>
      </trkpt>
      <trkpt lat="46.1849" lon="7.87683">
        <ele>2339.7</ele>
        <time>2000-01-02T07:22:48.000Z</time>
      </trkpt>
      <trkpt lat="46.18507" lon="7.8768">
        <ele>2356</ele>
        <time>2000-01-02T07:22:58.000Z</time>
      </trkpt>
      <trkpt lat="46.18518" lon="7.87683">
        <ele>2342.3</ele>
        <time>2000-01-02T07:23:08.000Z</time>
      </trkpt>
      <trkpt lat="46.18527" lon="7.87681">
        <ele>2357</ele>
        <time>2000-01-02T07:23:18.000Z</time>
      </trkpt>
      <trkpt lat="46.18552" lon="7.87661">
        <ele>2359</ele>
        <time>2000-01-02T07:23:28.000Z</time>
      </trkpt>
      <trkpt lat="46.18565" lon="7.87661">
        <ele>2350.3</ele>
        <time>2000-01-02T07:23:38.000Z</time>
      </trkpt>
      <trkpt lat="46.18578" lon="7.87659">
        <ele>2361</ele>
        <time>2000-01-02T07:23:48.000Z</time>
      </trkpt>
      <trkpt lat="46.18586" lon="7.87647">
        <ele>2353.7</ele>
        <time>2000-01-02T07:23:58.000Z</time>
      </trkpt>
      <trkpt lat="46.18593" lon="7.87629">
        <ele>2364</ele>
        <time>2000-01-02T07:24:08.000Z</time>
      </trkpt>
      <trkpt lat="46.18603" lon="7.87621">
        <ele>2363</ele>
        <time>2000-01-02T07:24:18.000Z</time>
      </trkpt>
      <trkpt lat="46.18613" lon="7.87621">
        <ele>2367</ele>
        <time>2000-01-02T07:24:28.000Z</time>
      </trkpt>
      <trkpt lat="46.18622" lon="7.87626">
        <ele>2354.3</ele>
        <time>2000-01-02T07:24:38.000Z</time>
      </trkpt>
      <trkpt lat="46.18631" lon="7.87615">
        <ele>2364</ele>
        <time>2000-01-02T07:24:48.000Z</time>
      </trkpt>
      <trkpt lat="46.18642" lon="7.87618">
        <ele>2357</ele>
        <time>2000-01-02T07:24:58.000Z</time>
      </trkpt>
      <trkpt lat="46.1866" lon="7.87621">
        <ele>2361</ele>
        <time>2000-01-02T07:25:08.000Z</time>
      </trkpt>
      <trkpt lat="46.1867" lon="7.87631">
        <ele>2353.4</ele>
        <time>2000-01-02T07:25:18.000Z</time>
      </trkpt>
      <trkpt lat="46.18705" lon="7.87614">
        <ele>2359</ele>
        <time>2000-01-02T07:25:28.000Z</time>
      </trkpt>
      <trkpt lat="46.18715" lon="7.87606">
        <ele>2347.5</ele>
        <time>2000-01-02T07:25:38.000Z</time>
      </trkpt>
      <trkpt lat="46.18731" lon="7.87602">
        <ele>2355</ele>
        <time>2000-01-02T07:25:48.000Z</time>
      </trkpt>
      <trkpt lat="46.1875" lon="7.87638">
        <ele>2344</ele>
        <time>2000-01-02T07:25:58.000Z</time>
      </trkpt>
      <trkpt lat="46.18756" lon="7.87653">
        <ele>2333.1</ele>
        <time>2000-01-02T07:26:08.000Z</time>
      </trkpt>
      <trkpt lat="46.18783" lon="7.87661">
        <ele>2343</ele>
        <time>2000-01-02T07:26:18.000Z</time>
      </trkpt>
      <trkpt lat="46.188" lon="7.87663">
        <ele>2329.8</ele>
        <time>2000-01-02T07:26:28.000Z</time>
      </trkpt>
      <trkpt lat="46.18814" lon="7.87659">
        <ele>2343</ele>
        <time>2000-01-02T07:26:38.000Z</time>
      </trkpt>
      <trkpt lat="46.18825" lon="7.8766">
        <ele>2336</ele>
        <time>2000-01-02T07:26:48.000Z</time>
      </trkpt>
      <trkpt lat="46.18828" lon="7.87687">
        <ele>2327</ele>
        <time>2000-01-02T07:26:58.000Z</time>
      </trkpt>
      <trkpt lat="46.18826" lon="7.87721">
        <ele>2328</ele>
        <time>2000-01-02T07:27:08.000Z</time>
      </trkpt>
      <trkpt lat="46.18823" lon="7.87742">
        <ele>2329.5</ele>
        <time>2000-01-02T07:27:18.000Z</time>
      </trkpt>
      <trkpt lat="46.1883" lon="7.87757">
        <ele>2330</ele>
        <time>2000-01-02T07:27:28.000Z</time>
      </trkpt>
      <trkpt lat="46.18834" lon="7.87776">
        <ele>2346.6</ele>
        <time>2000-01-02T07:27:38.000Z</time>
      </trkpt>
      <trkpt lat="46.18835" lon="7.8779">
        <ele>2340</ele>
        <time>2000-01-02T07:27:48.000Z</time>
      </trkpt>
      <trkpt lat="46.18842" lon="7.87799">
        <ele>2351.4</ele>
        <time>2000-01-02T07:27:58.000Z</time>
      </trkpt>
      <trkpt lat="46.18853" lon="7.87829">
        <ele>2357</ele>
        <time>2000-01-02T07:28:08.000Z</time>
      </trkpt>
      <trkpt lat="46.18861" lon="7.87838">
        <ele>2362.2</ele>
        <time>2000-01-02T07:28:18.000Z</time>
      </trkpt>
      <trkpt lat="46.18871" lon="7.87846">
        <ele>2374</ele>
        <time>2000-01-02T07:28:28.000Z</time>
      </trkpt>
      <trkpt lat="46.18882" lon="7.87877">
        <ele>2370</ele>
        <time>2000-01-02T07:28:38.000Z</time>
      </trkpt>
      <trkpt lat="46.18886" lon="7.87893">
        <ele>2372.4</ele>
        <time>2000-01-02T07:28:48.000Z</time>
      </trkpt>
      <trkpt lat="46.1889" lon="7.87918">
        <ele>2369</ele>
        <time>2000-01-02T07:28:58.000Z</time>
      </trkpt>
      <trkpt lat="46.18895" lon="7.87936">
        <ele>2373.3</ele>
        <time>2000-01-02T07:29:08.000Z</time>
      </trkpt>
      <trkpt lat="46.18892" lon="7.87963">
        <ele>2368</ele>
        <time>2000-01-02T07:29:18.000Z</time>
      </trkpt>
      <trkpt lat="46.18901" lon="7.87971">
        <ele>2358.8</ele>
        <time>2000-01-02T07:29:28.000Z</time>
      </trkpt>
      <trkpt lat="46.18912" lon="7.87979">
        <ele>2360</ele>
        <time>2000-01-02T07:29:38.000Z</time>
      </trkpt>
      <trkpt lat="46.18922" lon="7.87981">
        <ele>2338</ele>
        <time>2000-01-02T07:29:48.000Z</time>
      </trkpt>
      <trkpt lat="46.18934" lon="7.87974">
        <ele>2356</ele>
        <time>2000-01-02T07:29:58.000Z</time>
      </trkpt>
      <trkpt lat="46.18951" lon="7.87975">
        <ele>2330.2</ele>
        <time>2000-01-02T07:30:08.000Z</time>
      </trkpt>
      <trkpt lat="46.18959" lon="7.87967">
        <ele>2352</ele>
        <time>2000-01-02T07:30:18.000Z</time>
      </trkpt>
      <trkpt lat="46.18979" lon="7.87948">
        <ele>2352</ele>
        <time>2000-01-02T07:30:28.000Z</time>
      </trkpt>
      <trkpt lat="46.18992" lon="7.87932">
        <ele>2328.8</ele>
        <time>2000-01-02T07:30:38.000Z</time>
      </trkpt>
      <trkpt lat="46.19" lon="7.87916">
        <ele>2353</ele>
        <time>2000-01-02T07:30:48.000Z</time>
      </trkpt>
      <trkpt lat="46.19009" lon="7.87897">
        <ele>2341.7</ele>
        <time>2000-01-02T07:30:58.000Z</time>
      </trkpt>
      <trkpt lat="46.19023" lon="7.87889">
        <ele>2354</ele>
        <time>2000-01-02T07:31:08.000Z</time>
      </trkpt>
      <trkpt lat="46.19026" lon="7.87877">
        <ele>2343.1</ele>
        <time>2000-01-02T07:31:18.000Z</time>
      </trkpt>
      <trkpt lat="46.19034" lon="7.8786">
        <ele>2365</ele>
        <time>2000-01-02T07:31:28.000Z</time>
      </trkpt>
      <trkpt lat="46.19039" lon="7.87845">
        <ele>2364.8</ele>
        <time>2000-01-02T07:31:38.000Z</time>
      </trkpt>
      <trkpt lat="46.19038" lon="7.87825">
        <ele>2406</ele>
        <time>2000-01-02T07:31:48.000Z</time>
      </trkpt>
      <trkpt lat="46.19034" lon="7.87809">
        <ele>2399.8</ele>
        <time>2000-01-02T07:31:58.000Z</time>
      </trkpt>
      <trkpt lat="46.19035" lon="7.87793">
        <ele>2420</ele>
        <time>2000-01-02T07:32:08.000Z</time>
      </trkpt>
      <trkpt lat="46.19039" lon="7.87766">
        <ele>2407</ele>
        <time>2000-01-02T07:32:18.000Z</time>
      </trkpt>
      <trkpt lat="46.19045" lon="7.87755">
        <ele>2400.8</ele>
        <time>2000-01-02T07:32:28.000Z</time>
      </trkpt>
      <trkpt lat="46.19068" lon="7.87744">
        <ele>2395</ele>
        <time>2000-01-02T07:32:38.000Z</time>
      </trkpt>
      <trkpt lat="46.1909" lon="7.87746">
        <ele>2392</ele>
        <time>2000-01-02T07:32:48.000Z</time>
      </trkpt>
      <trkpt lat="46.1909" lon="7.87764">
        <ele>2341.9</ele>
        <time>2000-01-02T07:32:58.000Z</time>
      </trkpt>
      <trkpt lat="46.19097" lon="7.87783">
        <ele>2358</ele>
        <time>2000-01-02T07:33:08.000Z</time>
      </trkpt>
      <trkpt lat="46.1911" lon="7.8779">
        <ele>2332.3</ele>
        <time>2000-01-02T07:33:18.000Z</time>
      </trkpt>
      <trkpt lat="46.19113" lon="7.87806">
        <ele>2354</ele>
        <time>2000-01-02T07:33:28.000Z</time>
      </trkpt>
      <trkpt lat="46.19149" lon="7.87808">
        <ele>2351</ele>
        <time>2000-01-02T07:33:38.000Z</time>
      </trkpt>
      <trkpt lat="46.19162" lon="7.87807">
        <ele>2343.2</ele>
        <time>2000-01-02T07:33:48.000Z</time>
      </trkpt>
      <trkpt lat="46.19177" lon="7.87819">
        <ele>2350</ele>
        <time>2000-01-02T07:33:58.000Z</time>
      </trkpt>
      <trkpt lat="46.19187" lon="7.8784">
        <ele>2339</ele>
        <time>2000-01-02T07:34:08.000Z</time>
      </trkpt>
      <trkpt lat="46.19183" lon="7.87858">
        <ele>2334</ele>
        <time>2000-01-02T07:34:18.000Z</time>
      </trkpt>
      <trkpt lat="46.19192" lon="7.87875">
        <ele>2319.8</ele>
        <time>2000-01-02T07:34:28.000Z</time>
      </trkpt>
      <trkpt lat="46.19208" lon="7.87882">
        <ele>2321</ele>
        <time>2000-01-02T07:34:38.000Z</time>
      </trkpt>
      <trkpt lat="46.19219" lon="7.87878">
        <ele>2325.5</ele>
        <time>2000-01-02T07:34:48.000Z</time>
      </trkpt>
      <trkpt lat="46.19228" lon="7.87894">
        <ele>2319</ele>
        <time>2000-01-02T07:34:58.000Z</time>
      </trkpt>
      <trkpt lat="46.19238" lon="7.87907">
        <ele>2311.1</ele>
        <time>2000-01-02T07:35:08.000Z</time>
      </trkpt>
      <trkpt lat="46.19247" lon="7.87921">
        <ele>2311</ele>
        <time>2000-01-02T07:35:18.000Z</time>
      </trkpt>
      <trkpt lat="46.1926" lon="7.87926">
        <ele>2300.6</ele>
        <time>2000-01-02T07:35:28.000Z</time>
      </trkpt>
      <trkpt lat="46.19269" lon="7.87931">
        <ele>2310</ele>
        <time>2000-01-02T07:35:38.000Z</time>
      </trkpt>
      <trkpt lat="46.19295" lon="7.8792">
        <ele>2310</ele>
        <time>2000-01-02T07:35:48.000Z</time>
      </trkpt>
      <trkpt lat="46.19306" lon="7.87919">
        <ele>2289.6</ele>
        <time>2000-01-02T07:35:58.000Z</time>
      </trkpt>
      <trkpt lat="46.19315" lon="7.87913">
        <ele>2305</ele>
        <time>2000-01-02T07:36:08.000Z</time>
      </trkpt>
      <trkpt lat="46.19324" lon="7.879">
        <ele>2289.5</ele>
        <time>2000-01-02T07:36:18.000Z</time>
      </trkpt>
      <trkpt lat="46.19331" lon="7.87887">
        <ele>2300</ele>
        <time>2000-01-02T07:36:28.000Z</time>
      </trkpt>
      <trkpt lat="46.19344" lon="7.87868">
        <ele>2291.4</ele>
        <time>2000-01-02T07:36:38.000Z</time>
      </trkpt>
      <trkpt lat="46.19353" lon="7.87863">
        <ele>2299</ele>
        <time>2000-01-02T07:36:48.000Z</time>
      </trkpt>
      <trkpt lat="46.19359" lon="7.87848">
        <ele>2287.4</ele>
        <time>2000-01-02T07:36:58.000Z</time>
      </trkpt>
      <trkpt lat="46.19366" lon="7.87812">
        <ele>2299</ele>
        <time>2000-01-02T07:37:08.000Z</time>
      </trkpt>
      <trkpt lat="46.19363" lon="7.87786">
        <ele>2301</ele>
        <time>2000-01-02T07:37:18.000Z</time>
      </trkpt>
      <trkpt lat="46.19358" lon="7.87774">
        <ele>2292.8</ele>
        <time>2000-01-02T07:37:28.000Z</time>
      </trkpt>
      <trkpt lat="46.19357" lon="7.87758">
        <ele>2304</ele>
        <time>2000-01-02T07:37:38.000Z</time>
      </trkpt>
      <trkpt lat="46.19352" lon="7.87741">
        <ele>2297.6</ele>
        <time>2000-01-02T07:37:48.000Z</time>
      </trkpt>
      <trkpt lat="46.19353" lon="7.87723">
        <ele>2294</ele>
        <time>2000-01-02T07:37:58.000Z</time>
      </trkpt>
      <trkpt lat="46.19356" lon="7.87736">
        <ele>2293.9</ele>
        <time>2000-01-02T07:38:08.000Z</time>
      </trkpt>
      <trkpt lat="46.19376" lon="7.87744">
        <ele>2290</ele>
        <time>2000-01-02T07:38:18.000Z</time>
      </trkpt>
      <trkpt lat="46.19417" lon="7.87746">
        <ele>2287</ele>
        <time>2000-01-02T07:38:28.000Z</time>
      </trkpt>
      <trkpt lat="46.1943" lon="7.87746">
        <ele>2271.7</ele>
        <time>2000-01-02T07:38:38.000Z</time>
      </trkpt>
      <trkpt lat="46.1944" lon="7.87739">
        <ele>2289</ele>
        <time>2000-01-02T07:38:48.000Z</time>
      </trkpt>
      <trkpt lat="46.19446" lon="7.87725">
        <ele>2281.2</ele>
        <time>2000-01-02T07:38:58.000Z</time>
      </trkpt>
      <trkpt lat="46.19452" lon="7.87713">
        <ele>2289</ele>
        <time>2000-01-02T07:39:08.000Z</time>
      </trkpt>
      <trkpt lat="46.19463" lon="7.8771">
        <ele>2279.9</ele>
        <time>2000-01-02T07:39:18.000Z</time>
      </trkpt>
      <trkpt lat="46.19474" lon="7.87708">
        <ele>2288</ele>
        <time>2000-01-02T07:39:28.000Z</time>
      </trkpt>
      <trkpt lat="46.19488" lon="7.8771">
        <ele>2270.1</ele>
        <time>2000-01-02T07:39:38.000Z</time>
      </trkpt>
      <trkpt lat="46.19501" lon="7.87707">
        <ele>2287</ele>
        <time>2000-01-02T07:39:48.000Z</time>
      </trkpt>
      <trkpt lat="46.1951" lon="7.87717">
        <ele>2266.5</ele>
        <time>2000-01-02T07:39:58.000Z</time>
      </trkpt>
      <trkpt lat="46.19524" lon="7.87722">
        <ele>2283</ele>
        <time>2000-01-02T07:40:08.000Z</time>
      </trkpt>
      <trkpt lat="46.19544" lon="7.87723">
        <ele>2279</ele>
        <time>2000-01-02T07:40:18.000Z</time>
      </trkpt>
      <trkpt lat="46.19556" lon="7.87727">
        <ele>2273.6</ele>
        <time>2000-01-02T07:40:28.000Z</time>
      </trkpt>
      <trkpt lat="46.19568" lon="7.87737">
        <ele>2276</ele>
        <time>2000-01-02T07:40:38.000Z</time>
      </trkpt>
      <trkpt lat="46.19582" lon="7.87748">
        <ele>2261.3</ele>
        <time>2000-01-02T07:40:48.000Z</time>
      </trkpt>
      <trkpt lat="46.19593" lon="7.87744">
        <ele>2272</ele>
        <time>2000-01-02T07:40:58.000Z</time>
      </trkpt>
      <trkpt lat="46.19606" lon="7.87737">
        <ele>2260.7</ele>
        <time>2000-01-02T07:41:08.000Z</time>
      </trkpt>
      <trkpt lat="46.19624" lon="7.87737">
        <ele>2267</ele>
        <time>2000-01-02T07:41:18.000Z</time>
      </trkpt>
      <trkpt lat="46.19635" lon="7.87729">
        <ele>2256.2</ele>
        <time>2000-01-02T07:41:28.000Z</time>
      </trkpt>
      <trkpt lat="46.19651" lon="7.87727">
        <ele>2269</ele>
        <time>2000-01-02T07:41:38.000Z</time>
      </trkpt>
      <trkpt lat="46.19664" lon="7.87708">
        <ele>2271</ele>
        <time>2000-01-02T07:41:48.000Z</time>
      </trkpt>
      <trkpt lat="46.19671" lon="7.87693">
        <ele>2259.7</ele>
        <time>2000-01-02T07:41:58.000Z</time>
      </trkpt>
      <trkpt lat="46.19682" lon="7.87683">
        <ele>2271</ele>
        <time>2000-01-02T07:42:08.000Z</time>
      </trkpt>
      <trkpt lat="46.19694" lon="7.87668">
        <ele>2265.3</ele>
        <time>2000-01-02T07:42:18.000Z</time>
      </trkpt>
      <trkpt lat="46.19714" lon="7.87679">
        <ele>2270</ele>
        <time>2000-01-02T07:42:28.000Z</time>
      </trkpt>
      <trkpt lat="46.19723" lon="7.87692">
        <ele>2260.4</ele>
        <time>2000-01-02T07:42:38.000Z</time>
      </trkpt>
      <trkpt lat="46.19743" lon="7.87695">
        <ele>2270</ele>
        <time>2000-01-02T07:42:48.000Z</time>
      </trkpt>
      <trkpt lat="46.19755" lon="7.87693">
        <ele>2263.2</ele>
        <time>2000-01-02T07:42:58.000Z</time>
      </trkpt>
      <trkpt lat="46.19773" lon="7.87676">
        <ele>2271</ele>
        <time>2000-01-02T07:43:08.000Z</time>
      </trkpt>
      <trkpt lat="46.19779" lon="7.87666">
        <ele>2265.6</ele>
        <time>2000-01-02T07:43:18.000Z</time>
      </trkpt>
      <trkpt lat="46.19818" lon="7.87618">
        <ele>2272</ele>
        <time>2000-01-02T07:43:28.000Z</time>
      </trkpt>
      <trkpt lat="46.19828" lon="7.87612">
        <ele>2259.9</ele>
        <time>2000-01-02T07:43:38.000Z</time>
      </trkpt>
      <trkpt lat="46.19838" lon="7.87607">
        <ele>2270</ele>
        <time>2000-01-02T07:43:48.000Z</time>
      </trkpt>
      <trkpt lat="46.19853" lon="7.876">
        <ele>2261.9</ele>
        <time>2000-01-02T07:43:58.000Z</time>
      </trkpt>
      <trkpt lat="46.19868" lon="7.87599">
        <ele>2271</ele>
        <time>2000-01-02T07:44:08.000Z</time>
      </trkpt>
      <trkpt lat="46.1988" lon="7.87595">
        <ele>2259.3</ele>
        <time>2000-01-02T07:44:18.000Z</time>
      </trkpt>
      <trkpt lat="46.199" lon="7.87579">
        <ele>2270</ele>
        <time>2000-01-02T07:44:28.000Z</time>
      </trkpt>
      <trkpt lat="46.19912" lon="7.87569">
        <ele>2261.9</ele>
        <time>2000-01-02T07:44:38.000Z</time>
      </trkpt>
      <trkpt lat="46.1992" lon="7.87563">
        <ele>2270</ele>
        <time>2000-01-02T07:44:48.000Z</time>
      </trkpt>
      <trkpt lat="46.19931" lon="7.87555">
        <ele>2261.1</ele>
        <time>2000-01-02T07:44:58.000Z</time>
      </trkpt>
      <trkpt lat="46.19942" lon="7.8755">
        <ele>2270</ele>
        <time>2000-01-02T07:45:08.000Z</time>
      </trkpt>
      <trkpt lat="46.19953" lon="7.87553">
        <ele>2255.3</ele>
        <time>2000-01-02T07:45:18.000Z</time>
      </trkpt>
      <trkpt lat="46.19969" lon="7.87549">
        <ele>2271</ele>
        <time>2000-01-02T07:45:28.000Z</time>
      </trkpt>
      <trkpt lat="46.19998" lon="7.87548">
        <ele>2269</ele>
        <time>2000-01-02T07:45:38.000Z</time>
      </trkpt>
      <trkpt lat="46.20027" lon="7.87555">
        <ele>2268</ele>
        <time>2000-01-02T07:45:48.000Z</time>
      </trkpt>
      <trkpt lat="46.20044" lon="7.87544">
        <ele>2254.2</ele>
        <time>2000-01-02T07:45:58.000Z</time>
      </trkpt>
      <trkpt lat="46.20055" lon="7.87542">
        <ele>2259</ele>
        <time>2000-01-02T07:46:08.000Z</time>
      </trkpt>
      <trkpt lat="46.20083" lon="7.87531">
        <ele>2254</ele>
        <time>2000-01-02T07:46:18.000Z</time>
      </trkpt>
      <trkpt lat="46.20098" lon="7.87535">
        <ele>2239.4</ele>
        <time>2000-01-02T07:46:28.000Z</time>
      </trkpt>
      <trkpt lat="46.2011" lon="7.87542">
        <ele>2245</ele>
        <time>2000-01-02T07:46:38.000Z</time>
      </trkpt>
      <trkpt lat="46.20126" lon="7.87554">
        <ele>2235.4</ele>
        <time>2000-01-02T07:46:48.000Z</time>
      </trkpt>
      <trkpt lat="46.20139" lon="7.87579">
        <ele>2242</ele>
        <time>2000-01-02T07:46:58.000Z</time>
      </trkpt>
      <trkpt lat="46.20148" lon="7.87589">
        <ele>2227.3</ele>
        <time>2000-01-02T07:47:08.000Z</time>
      </trkpt>
      <trkpt lat="46.20165" lon="7.87592">
        <ele>2243</ele>
        <time>2000-01-02T07:47:18.000Z</time>
      </trkpt>
      <trkpt lat="46.20187" lon="7.87588">
        <ele>2240</ele>
        <time>2000-01-02T07:47:28.000Z</time>
      </trkpt>
      <trkpt lat="46.20202" lon="7.87582">
        <ele>2229.2</ele>
        <time>2000-01-02T07:47:38.000Z</time>
      </trkpt>
      <trkpt lat="46.20228" lon="7.87567">
        <ele>2238</ele>
        <time>2000-01-02T07:47:48.000Z</time>
      </trkpt>
      <trkpt lat="46.20246" lon="7.87562">
        <ele>2220.8</ele>
        <time>2000-01-02T07:47:58.000Z</time>
      </trkpt>
      <trkpt lat="46.20258" lon="7.87561">
        <ele>2229</ele>
        <time>2000-01-02T07:48:08.000Z</time>
      </trkpt>
      <trkpt lat="46.20269" lon="7.87562">
        <ele>2216</ele>
        <time>2000-01-02T07:48:18.000Z</time>
      </trkpt>
      <trkpt lat="46.20281" lon="7.87564">
        <ele>2222</ele>
        <time>2000-01-02T07:48:28.000Z</time>
      </trkpt>
      <trkpt lat="46.20293" lon="7.87568">
        <ele>2209.8</ele>
        <time>2000-01-02T07:48:38.000Z</time>
      </trkpt>
      <trkpt lat="46.20307" lon="7.8757">
        <ele>2216</ele>
        <time>2000-01-02T07:48:48.000Z</time>
      </trkpt>
      <trkpt lat="46.20323" lon="7.87568">
        <ele>2209.4</ele>
        <time>2000-01-02T07:48:58.000Z</time>
      </trkpt>
      <trkpt lat="46.20331" lon="7.87577">
        <ele>2215</ele>
        <time>2000-01-02T07:49:08.000Z</time>
      </trkpt>
      <trkpt lat="46.20341" lon="7.87611">
        <ele>2206</ele>
        <time>2000-01-02T07:49:18.000Z</time>
      </trkpt>
      <trkpt lat="46.20346" lon="7.87624">
        <ele>2194.8</ele>
        <time>2000-01-02T07:49:28.000Z</time>
      </trkpt>
      <trkpt lat="46.20358" lon="7.87629">
        <ele>2203</ele>
        <time>2000-01-02T07:49:38.000Z</time>
      </trkpt>
      <trkpt lat="46.20376" lon="7.87632">
        <ele>2201</ele>
        <time>2000-01-02T07:49:48.000Z</time>
      </trkpt>
      <trkpt lat="46.20389" lon="7.8763">
        <ele>2190.2</ele>
        <time>2000-01-02T07:49:58.000Z</time>
      </trkpt>
      <trkpt lat="46.20407" lon="7.8764">
        <ele>2192</ele>
        <time>2000-01-02T07:50:08.000Z</time>
      </trkpt>
      <trkpt lat="46.20421" lon="7.87638">
        <ele>2179</ele>
        <time>2000-01-02T07:50:18.000Z</time>
      </trkpt>
      <trkpt lat="46.2045" lon="7.87626">
        <ele>2183</ele>
        <time>2000-01-02T07:50:28.000Z</time>
      </trkpt>
      <trkpt lat="46.2046" lon="7.87619">
        <ele>2172.7</ele>
        <time>2000-01-02T07:50:38.000Z</time>
      </trkpt>
      <trkpt lat="46.20469" lon="7.87612">
        <ele>2182</ele>
        <time>2000-01-02T07:50:48.000Z</time>
      </trkpt>
      <trkpt lat="46.20482" lon="7.87604">
        <ele>2168.8</ele>
        <time>2000-01-02T07:50:58.000Z</time>
      </trkpt>
      <trkpt lat="46.20493" lon="7.87593">
        <ele>2184</ele>
        <time>2000-01-02T07:51:08.000Z</time>
      </trkpt>
      <trkpt lat="46.20506" lon="7.87574">
        <ele>2186</ele>
        <time>2000-01-02T07:51:18.000Z</time>
      </trkpt>
      <trkpt lat="46.20514" lon="7.87568">
        <ele>2169.5</ele>
        <time>2000-01-02T07:51:28.000Z</time>
      </trkpt>
      <trkpt lat="46.20522" lon="7.8755">
        <ele>2176</ele>
        <time>2000-01-02T07:51:38.000Z</time>
      </trkpt>
      <trkpt lat="46.20534" lon="7.87536">
        <ele>2172.8</ele>
        <time>2000-01-02T07:51:48.000Z</time>
      </trkpt>
      <trkpt lat="46.20563" lon="7.87531">
        <ele>2174</ele>
        <time>2000-01-02T07:51:58.000Z</time>
      </trkpt>
      <trkpt lat="46.2058" lon="7.87521">
        <ele>2153.8</ele>
        <time>2000-01-02T07:52:08.000Z</time>
      </trkpt>
      <trkpt lat="46.20596" lon="7.87508">
        <ele>2172</ele>
        <time>2000-01-02T07:52:18.000Z</time>
      </trkpt>
      <trkpt lat="46.20613" lon="7.87493">
        <ele>2172</ele>
        <time>2000-01-02T07:52:28.000Z</time>
      </trkpt>
      <trkpt lat="46.20633" lon="7.87471">
        <ele>2172</ele>
        <time>2000-01-02T07:52:38.000Z</time>
      </trkpt>
      <trkpt lat="46.20667" lon="7.87445">
        <ele>2172</ele>
        <time>2000-01-02T07:52:48.000Z</time>
      </trkpt>
      <trkpt lat="46.20686" lon="7.87424">
        <ele>2172</ele>
        <time>2000-01-02T07:52:58.000Z</time>
      </trkpt>
      <trkpt lat="46.20703" lon="7.87402">
        <ele>2168</ele>
        <time>2000-01-02T07:53:08.000Z</time>
      </trkpt>
      <trkpt lat="46.20718" lon="7.87384">
        <ele>2167</ele>
        <time>2000-01-02T07:53:18.000Z</time>
      </trkpt>
      <trkpt lat="46.20725" lon="7.8737">
        <ele>2149.7</ele>
        <time>2000-01-02T07:53:28.000Z</time>
      </trkpt>
      <trkpt lat="46.20737" lon="7.87342">
        <ele>2167</ele>
        <time>2000-01-02T07:53:38.000Z</time>
      </trkpt>
      <trkpt lat="46.20752" lon="7.87324">
        <ele>2164</ele>
        <time>2000-01-02T07:53:48.000Z</time>
      </trkpt>
      <trkpt lat="46.2077" lon="7.8731">
        <ele>2163</ele>
        <time>2000-01-02T07:53:58.000Z</time>
      </trkpt>
      <trkpt lat="46.20779" lon="7.87298">
        <ele>2145.2</ele>
        <time>2000-01-02T07:54:08.000Z</time>
      </trkpt>
      <trkpt lat="46.20785" lon="7.8728">
        <ele>2163</ele>
        <time>2000-01-02T07:54:18.000Z</time>
      </trkpt>
      <trkpt lat="46.20789" lon="7.8726">
        <ele>2150.5</ele>
        <time>2000-01-02T07:54:28.000Z</time>
      </trkpt>
      <trkpt lat="46.2079" lon="7.87229">
        <ele>2166</ele>
        <time>2000-01-02T07:54:38.000Z</time>
      </trkpt>
      <trkpt lat="46.20792" lon="7.87216">
        <ele>2149.8</ele>
        <time>2000-01-02T07:54:48.000Z</time>
      </trkpt>
      <trkpt lat="46.20788" lon="7.87197">
        <ele>2164</ele>
        <time>2000-01-02T07:54:58.000Z</time>
      </trkpt>
      <trkpt lat="46.20788" lon="7.87182">
        <ele>2149.8</ele>
        <time>2000-01-02T07:55:08.000Z</time>
      </trkpt>
      <trkpt lat="46.20789" lon="7.87155">
        <ele>2163</ele>
        <time>2000-01-02T07:55:18.000Z</time>
      </trkpt>
      <trkpt lat="46.20785" lon="7.87134">
        <ele>2146.9</ele>
        <time>2000-01-02T07:55:28.000Z</time>
      </trkpt>
      <trkpt lat="46.20781" lon="7.87102">
        <ele>2154</ele>
        <time>2000-01-02T07:55:38.000Z</time>
      </trkpt>
      <trkpt lat="46.20778" lon="7.87085">
        <ele>2142.2</ele>
        <time>2000-01-02T07:55:48.000Z</time>
      </trkpt>
      <trkpt lat="46.2078" lon="7.87048">
        <ele>2146</ele>
        <time>2000-01-02T07:55:58.000Z</time>
      </trkpt>
      <trkpt lat="46.20773" lon="7.8702">
        <ele>2145</ele>
        <time>2000-01-02T07:56:08.000Z</time>
      </trkpt>
      <trkpt lat="46.20761" lon="7.86999">
        <ele>2143</ele>
        <time>2000-01-02T07:56:18.000Z</time>
      </trkpt>
      <trkpt lat="46.20749" lon="7.86979">
        <ele>2136.7</ele>
        <time>2000-01-02T07:56:28.000Z</time>
      </trkpt>
      <trkpt lat="46.20734" lon="7.86957">
        <ele>2142</ele>
        <time>2000-01-02T07:56:38.000Z</time>
      </trkpt>
      <trkpt lat="46.20727" lon="7.86945">
        <ele>2135.9</ele>
        <time>2000-01-02T07:56:48.000Z</time>
      </trkpt>
      <trkpt lat="46.20719" lon="7.86929">
        <ele>2138</ele>
        <time>2000-01-02T07:56:58.000Z</time>
      </trkpt>
      <trkpt lat="46.20711" lon="7.86902">
        <ele>2135</ele>
        <time>2000-01-02T07:57:08.000Z</time>
      </trkpt>
      <trkpt lat="46.20711" lon="7.86883">
        <ele>2128.6</ele>
        <time>2000-01-02T07:57:18.000Z</time>
      </trkpt>
      <trkpt lat="46.20717" lon="7.86863">
        <ele>2129</ele>
        <time>2000-01-02T07:57:28.000Z</time>
      </trkpt>
      <trkpt lat="46.20715" lon="7.86841">
        <ele>2123.6</ele>
        <time>2000-01-02T07:57:38.000Z</time>
      </trkpt>
      <trkpt lat="46.20703" lon="7.8683">
        <ele>2127</ele>
        <time>2000-01-02T07:57:48.000Z</time>
      </trkpt>
      <trkpt lat="46.20686" lon="7.86814">
        <ele>2125</ele>
        <time>2000-01-02T07:57:58.000Z</time>
      </trkpt>
      <trkpt lat="46.20675" lon="7.86793">
        <ele>2121.6</ele>
        <time>2000-01-02T07:58:08.000Z</time>
      </trkpt>
      <trkpt lat="46.20686" lon="7.86783">
        <ele>2125</ele>
        <time>2000-01-02T07:58:18.000Z</time>
      </trkpt>
      <trkpt lat="46.20698" lon="7.86781">
        <ele>2120.9</ele>
        <time>2000-01-02T07:58:28.000Z</time>
      </trkpt>
      <trkpt lat="46.20707" lon="7.86782">
        <ele>2125</ele>
        <time>2000-01-02T07:58:38.000Z</time>
      </trkpt>
      <trkpt lat="46.20723" lon="7.8678">
        <ele>2120</ele>
        <time>2000-01-02T07:58:48.000Z</time>
      </trkpt>
      <trkpt lat="46.20732" lon="7.86778">
        <ele>2123</ele>
        <time>2000-01-02T07:58:58.000Z</time>
      </trkpt>
      <trkpt lat="46.20744" lon="7.86781">
        <ele>2117.9</ele>
        <time>2000-01-02T07:59:08.000Z</time>
      </trkpt>
      <trkpt lat="46.20763" lon="7.868">
        <ele>2121</ele>
        <time>2000-01-02T07:59:18.000Z</time>
      </trkpt>
      <trkpt lat="46.20773" lon="7.86803">
        <ele>2114.8</ele>
        <time>2000-01-02T07:59:28.000Z</time>
      </trkpt>
      <trkpt lat="46.20785" lon="7.868">
        <ele>2120</ele>
        <time>2000-01-02T07:59:38.000Z</time>
      </trkpt>
      <trkpt lat="46.20796" lon="7.86802">
        <ele>2112.5</ele>
        <time>2000-01-02T07:59:48.000Z</time>
      </trkpt>
      <trkpt lat="46.20818" lon="7.8681">
        <ele>2117</ele>
        <time>2000-01-02T07:59:58.000Z</time>
      </trkpt>
      <trkpt lat="46.20829" lon="7.86809">
        <ele>2110.6</ele>
        <time>2000-01-02T08:00:08.000Z</time>
      </trkpt>
      <trkpt lat="46.20842" lon="7.86791">
        <ele>2113</ele>
        <time>2000-01-02T08:00:18.000Z</time>
      </trkpt>
      <trkpt lat="46.20849" lon="7.86767">
        <ele>2102.4</ele>
        <time>2000-01-02T08:00:28.000Z</time>
      </trkpt>
      <trkpt lat="46.20854" lon="7.86754">
        <ele>2104</ele>
        <time>2000-01-02T08:00:38.000Z</time>
      </trkpt>
      <trkpt lat="46.20859" lon="7.8674">
        <ele>2096.9</ele>
        <time>2000-01-02T08:00:48.000Z</time>
      </trkpt>
      <trkpt lat="46.20865" lon="7.86722">
        <ele>2098</ele>
        <time>2000-01-02T08:00:58.000Z</time>
      </trkpt>
      <trkpt lat="46.20872" lon="7.86705">
        <ele>2089.7</ele>
        <time>2000-01-02T08:01:08.000Z</time>
      </trkpt>
      <trkpt lat="46.2091" lon="7.86663">
        <ele>2082</ele>
        <time>2000-01-02T08:01:18.000Z</time>
      </trkpt>
      <trkpt lat="46.2092" lon="7.86649">
        <ele>2076.5</ele>
        <time>2000-01-02T08:01:28.000Z</time>
      </trkpt>
      <trkpt lat="46.2093" lon="7.86633">
        <ele>2076</ele>
        <time>2000-01-02T08:01:38.000Z</time>
      </trkpt>
      <trkpt lat="46.20931" lon="7.86618">
        <ele>2071</ele>
        <time>2000-01-02T08:01:48.000Z</time>
      </trkpt>
      <trkpt lat="46.20925" lon="7.86604">
        <ele>2069</ele>
        <time>2000-01-02T08:01:58.000Z</time>
      </trkpt>
      <trkpt lat="46.20921" lon="7.86591">
        <ele>2065.6</ele>
        <time>2000-01-02T08:02:08.000Z</time>
      </trkpt>
      <trkpt lat="46.20922" lon="7.86578">
        <ele>2064</ele>
        <time>2000-01-02T08:02:18.000Z</time>
      </trkpt>
      <trkpt lat="46.20926" lon="7.86565">
        <ele>2059.8</ele>
        <time>2000-01-02T08:02:28.000Z</time>
      </trkpt>
      <trkpt lat="46.20937" lon="7.86561">
        <ele>2060</ele>
        <time>2000-01-02T08:02:38.000Z</time>
      </trkpt>
      <trkpt lat="46.20948" lon="7.86558">
        <ele>2056.1</ele>
        <time>2000-01-02T08:02:48.000Z</time>
      </trkpt>
      <trkpt lat="46.20972" lon="7.86551">
        <ele>2053</ele>
        <time>2000-01-02T08:02:58.000Z</time>
      </trkpt>
      <trkpt lat="46.20983" lon="7.86549">
        <ele>2049.3</ele>
        <time>2000-01-02T08:03:08.000Z</time>
      </trkpt>
      <trkpt lat="46.20973" lon="7.8653">
        <ele>2047</ele>
        <time>2000-01-02T08:03:18.000Z</time>
      </trkpt>
      <trkpt lat="46.20965" lon="7.86521">
        <ele>2044.2</ele>
        <time>2000-01-02T08:03:28.000Z</time>
      </trkpt>
      <trkpt lat="46.20962" lon="7.86506">
        <ele>2038</ele>
        <time>2000-01-02T08:03:38.000Z</time>
      </trkpt>
      <trkpt lat="46.20954" lon="7.86498">
        <ele>2036.3</ele>
        <time>2000-01-02T08:03:48.000Z</time>
      </trkpt>
      <trkpt lat="46.20944" lon="7.8649">
        <ele>2036</ele>
        <time>2000-01-02T08:03:58.000Z</time>
      </trkpt>
      <trkpt lat="46.20934" lon="7.86483">
        <ele>2031.5</ele>
        <time>2000-01-02T08:04:08.000Z</time>
      </trkpt>
      <trkpt lat="46.20917" lon="7.86468">
        <ele>2034</ele>
        <time>2000-01-02T08:04:18.000Z</time>
      </trkpt>
      <trkpt lat="46.20909" lon="7.86458">
        <ele>2023.1</ele>
        <time>2000-01-02T08:04:28.000Z</time>
      </trkpt>
      <trkpt lat="46.209" lon="7.86451">
        <ele>2032</ele>
        <time>2000-01-02T08:04:38.000Z</time>
      </trkpt>
      <trkpt lat="46.20888" lon="7.86445">
        <ele>2018.3</ele>
        <time>2000-01-02T08:04:48.000Z</time>
      </trkpt>
      <trkpt lat="46.2087" lon="7.86429">
        <ele>2023</ele>
        <time>2000-01-02T08:04:58.000Z</time>
      </trkpt>
      <trkpt lat="46.20862" lon="7.8642">
        <ele>2010.2</ele>
        <time>2000-01-02T08:05:08.000Z</time>
      </trkpt>
      <trkpt lat="46.20852" lon="7.86411">
        <ele>2020</ele>
        <time>2000-01-02T08:05:18.000Z</time>
      </trkpt>
      <trkpt lat="46.20836" lon="7.86389">
        <ele>2013</ele>
        <time>2000-01-02T08:05:28.000Z</time>
      </trkpt>
      <trkpt lat="46.20821" lon="7.86365">
        <ele>2009</ele>
        <time>2000-01-02T08:05:38.000Z</time>
      </trkpt>
      <trkpt lat="46.20806" lon="7.86342">
        <ele>2003</ele>
        <time>2000-01-02T08:05:48.000Z</time>
      </trkpt>
      <trkpt lat="46.20798" lon="7.86334">
        <ele>1987.2</ele>
        <time>2000-01-02T08:05:58.000Z</time>
      </trkpt>
      <trkpt lat="46.20791" lon="7.86322">
        <ele>1996</ele>
        <time>2000-01-02T08:06:08.000Z</time>
      </trkpt>
      <trkpt lat="46.20787" lon="7.86309">
        <ele>1982</ele>
        <time>2000-01-02T08:06:18.000Z</time>
      </trkpt>
      <trkpt lat="46.2078" lon="7.86298">
        <ele>1991</ele>
        <time>2000-01-02T08:06:28.000Z</time>
      </trkpt>
      <trkpt lat="46.20761" lon="7.86281">
        <ele>1989</ele>
        <time>2000-01-02T08:06:38.000Z</time>
      </trkpt>
      <trkpt lat="46.20741" lon="7.86267">
        <ele>1985</ele>
        <time>2000-01-02T08:06:48.000Z</time>
      </trkpt>
      <trkpt lat="46.20725" lon="7.86242">
        <ele>1982</ele>
        <time>2000-01-02T08:06:58.000Z</time>
      </trkpt>
      <trkpt lat="46.20708" lon="7.86222">
        <ele>1976</ele>
        <time>2000-01-02T08:07:08.000Z</time>
      </trkpt>
      <trkpt lat="46.20698" lon="7.86213">
        <ele>1958.8</ele>
        <time>2000-01-02T08:07:18.000Z</time>
      </trkpt>
      <trkpt lat="46.20688" lon="7.86206">
        <ele>1971</ele>
        <time>2000-01-02T08:07:28.000Z</time>
      </trkpt>
      <trkpt lat="46.20679" lon="7.86196">
        <ele>1954.6</ele>
        <time>2000-01-02T08:07:38.000Z</time>
      </trkpt>
      <trkpt lat="46.20674" lon="7.86184">
        <ele>1968</ele>
        <time>2000-01-02T08:07:48.000Z</time>
      </trkpt>
      <trkpt lat="46.20666" lon="7.86174">
        <ele>1950.6</ele>
        <time>2000-01-02T08:07:58.000Z</time>
      </trkpt>
      <trkpt lat="46.2066" lon="7.86162">
        <ele>1964</ele>
        <time>2000-01-02T08:08:08.000Z</time>
      </trkpt>
      <trkpt lat="46.20655" lon="7.86149">
        <ele>1944.2</ele>
        <time>2000-01-02T08:08:18.000Z</time>
      </trkpt>
      <trkpt lat="46.20651" lon="7.86134">
        <ele>1957</ele>
        <time>2000-01-02T08:08:28.000Z</time>
      </trkpt>
      <trkpt lat="46.20649" lon="7.86118">
        <ele>1936.4</ele>
        <time>2000-01-02T08:08:38.000Z</time>
      </trkpt>
      <trkpt lat="46.2064" lon="7.86109">
        <ele>1950</ele>
        <time>2000-01-02T08:08:48.000Z</time>
      </trkpt>
      <trkpt lat="46.20633" lon="7.86095">
        <ele>1930.4</ele>
        <time>2000-01-02T08:08:58.000Z</time>
      </trkpt>
      <trkpt lat="46.2063" lon="7.86051">
        <ele>1935</ele>
        <time>2000-01-02T08:09:08.000Z</time>
      </trkpt>
      <trkpt lat="46.20627" lon="7.86036">
        <ele>1910.3</ele>
        <time>2000-01-02T08:09:18.000Z</time>
      </trkpt>
      <trkpt lat="46.20623" lon="7.86023">
        <ele>1924</ele>
        <time>2000-01-02T08:09:28.000Z</time>
      </trkpt>
      <trkpt lat="46.20613" lon="7.86018">
        <ele>1904.7</ele>
        <time>2000-01-02T08:09:38.000Z</time>
      </trkpt>
      <trkpt lat="46.20603" lon="7.86014">
        <ele>1917</ele>
        <time>2000-01-02T08:09:48.000Z</time>
      </trkpt>
      <trkpt lat="46.20593" lon="7.86007">
        <ele>1898.9</ele>
        <time>2000-01-02T08:09:58.000Z</time>
      </trkpt>
      <trkpt lat="46.20583" lon="7.86001">
        <ele>1913</ele>
        <time>2000-01-02T08:10:08.000Z</time>
      </trkpt>
      <trkpt lat="46.20573" lon="7.85991">
        <ele>1892.6</ele>
        <time>2000-01-02T08:10:18.000Z</time>
      </trkpt>
      <trkpt lat="46.20565" lon="7.85978">
        <ele>1905</ele>
        <time>2000-01-02T08:10:28.000Z</time>
      </trkpt>
      <trkpt lat="46.20552" lon="7.85953">
        <ele>1900</ele>
        <time>2000-01-02T08:10:38.000Z</time>
      </trkpt>
      <trkpt lat="46.20542" lon="7.85928">
        <ele>1898</ele>
        <time>2000-01-02T08:10:48.000Z</time>
      </trkpt>
      <trkpt lat="46.20523" lon="7.85914">
        <ele>1896</ele>
        <time>2000-01-02T08:10:58.000Z</time>
      </trkpt>
      <trkpt lat="46.20516" lon="7.85902">
        <ele>1875.9</ele>
        <time>2000-01-02T08:11:08.000Z</time>
      </trkpt>
      <trkpt lat="46.20511" lon="7.85886">
        <ele>1889</ele>
        <time>2000-01-02T08:11:18.000Z</time>
      </trkpt>
      <trkpt lat="46.20504" lon="7.85856">
        <ele>1882</ele>
        <time>2000-01-02T08:11:28.000Z</time>
      </trkpt>
      <trkpt lat="46.20493" lon="7.85829">
        <ele>1873</ele>
        <time>2000-01-02T08:11:38.000Z</time>
      </trkpt>
      <trkpt lat="46.20465" lon="7.858">
        <ele>1870</ele>
        <time>2000-01-02T08:11:48.000Z</time>
      </trkpt>
      <trkpt lat="46.20456" lon="7.85791">
        <ele>1848.6</ele>
        <time>2000-01-02T08:11:58.000Z</time>
      </trkpt>
      <trkpt lat="46.20448" lon="7.8578">
        <ele>1865</ele>
        <time>2000-01-02T08:12:08.000Z</time>
      </trkpt>
      <trkpt lat="46.20439" lon="7.85771">
        <ele>1844.9</ele>
        <time>2000-01-02T08:12:18.000Z</time>
      </trkpt>
      <trkpt lat="46.20429" lon="7.85764">
        <ele>1863</ele>
        <time>2000-01-02T08:12:28.000Z</time>
      </trkpt>
      <trkpt lat="46.20421" lon="7.85752">
        <ele>1840.3</ele>
        <time>2000-01-02T08:12:38.000Z</time>
      </trkpt>
      <trkpt lat="46.20414" lon="7.85724">
        <ele>1854</ele>
        <time>2000-01-02T08:12:48.000Z</time>
      </trkpt>
      <trkpt lat="46.20416" lon="7.85706">
        <ele>1833.5</ele>
        <time>2000-01-02T08:12:58.000Z</time>
      </trkpt>
      <trkpt lat="46.20421" lon="7.85694">
        <ele>1844</ele>
        <time>2000-01-02T08:13:08.000Z</time>
      </trkpt>
      <trkpt lat="46.20414" lon="7.85684">
        <ele>1829.4</ele>
        <time>2000-01-02T08:13:18.000Z</time>
      </trkpt>
      <trkpt lat="46.20402" lon="7.85678">
        <ele>1840</ele>
        <time>2000-01-02T08:13:28.000Z</time>
      </trkpt>
      <trkpt lat="46.20393" lon="7.85673">
        <ele>1824.2</ele>
        <time>2000-01-02T08:13:38.000Z</time>
      </trkpt>
      <trkpt lat="46.20387" lon="7.85642">
        <ele>1838</ele>
        <time>2000-01-02T08:13:48.000Z</time>
      </trkpt>
      <trkpt lat="46.20386" lon="7.85626">
        <ele>1814.2</ele>
        <time>2000-01-02T08:13:58.000Z</time>
      </trkpt>
      <trkpt lat="46.20383" lon="7.85608">
        <ele>1831</ele>
        <time>2000-01-02T08:14:08.000Z</time>
      </trkpt>
      <trkpt lat="46.20389" lon="7.85558">
        <ele>1825</ele>
        <time>2000-01-02T08:14:18.000Z</time>
      </trkpt>
      <trkpt lat="46.20386" lon="7.85526">
        <ele>1820</ele>
        <time>2000-01-02T08:14:28.000Z</time>
      </trkpt>
      <trkpt lat="46.20386" lon="7.85511">
        <ele>1797.4</ele>
        <time>2000-01-02T08:14:38.000Z</time>
      </trkpt>
      <trkpt lat="46.20384" lon="7.85494">
        <ele>1816</ele>
        <time>2000-01-02T08:14:48.000Z</time>
      </trkpt>
      <trkpt lat="46.20386" lon="7.85477">
        <ele>1793.9</ele>
        <time>2000-01-02T08:14:58.000Z</time>
      </trkpt>
      <trkpt lat="46.20385" lon="7.85458">
        <ele>1810</ele>
        <time>2000-01-02T08:15:08.000Z</time>
      </trkpt>
      <trkpt lat="46.20383" lon="7.85443">
        <ele>1791.3</ele>
        <time>2000-01-02T08:15:18.000Z</time>
      </trkpt>
      <trkpt lat="46.20383" lon="7.85425">
        <ele>1804</ele>
        <time>2000-01-02T08:15:28.000Z</time>
      </trkpt>
      <trkpt lat="46.20381" lon="7.8541">
        <ele>1785.9</ele>
        <time>2000-01-02T08:15:38.000Z</time>
      </trkpt>
      <trkpt lat="46.20375" lon="7.85398">
        <ele>1801</ele>
        <time>2000-01-02T08:15:48.000Z</time>
      </trkpt>
      <trkpt lat="46.20371" lon="7.85384">
        <ele>1782</ele>
        <time>2000-01-02T08:15:58.000Z</time>
      </trkpt>
      <trkpt lat="46.20368" lon="7.85367">
        <ele>1798</ele>
        <time>2000-01-02T08:16:08.000Z</time>
      </trkpt>
      <trkpt lat="46.20368" lon="7.85319">
        <ele>1791</ele>
        <time>2000-01-02T08:16:18.000Z</time>
      </trkpt>
      <trkpt lat="46.20371" lon="7.85291">
        <ele>1786</ele>
        <time>2000-01-02T08:16:28.000Z</time>
      </trkpt>
      <trkpt lat="46.20374" lon="7.85276">
        <ele>1769.5</ele>
        <time>2000-01-02T08:16:38.000Z</time>
      </trkpt>
      <trkpt lat="46.20391" lon="7.85256">
        <ele>1777</ele>
        <time>2000-01-02T08:16:48.000Z</time>
      </trkpt>
      <trkpt lat="46.20392" lon="7.85224">
        <ele>1772</ele>
        <time>2000-01-02T08:16:58.000Z</time>
      </trkpt>
      <trkpt lat="46.20394" lon="7.85209">
        <ele>1752.5</ele>
        <time>2000-01-02T08:17:08.000Z</time>
      </trkpt>
      <trkpt lat="46.20398" lon="7.85196">
        <ele>1769</ele>
        <time>2000-01-02T08:17:18.000Z</time>
      </trkpt>
      <trkpt lat="46.20404" lon="7.85183">
        <ele>1747.6</ele>
        <time>2000-01-02T08:17:28.000Z</time>
      </trkpt>
      <trkpt lat="46.20406" lon="7.85167">
        <ele>1764</ele>
        <time>2000-01-02T08:17:38.000Z</time>
      </trkpt>
      <trkpt lat="46.20405" lon="7.85151">
        <ele>1746.4</ele>
        <time>2000-01-02T08:17:48.000Z</time>
      </trkpt>
      <trkpt lat="46.20406" lon="7.85134">
        <ele>1761</ele>
        <time>2000-01-02T08:17:58.000Z</time>
      </trkpt>
      <trkpt lat="46.20405" lon="7.85119">
        <ele>1741.8</ele>
        <time>2000-01-02T08:18:08.000Z</time>
      </trkpt>
      <trkpt lat="46.20393" lon="7.85092">
        <ele>1757</ele>
        <time>2000-01-02T08:18:18.000Z</time>
      </trkpt>
      <trkpt lat="46.20385" lon="7.8508">
        <ele>1738.2</ele>
        <time>2000-01-02T08:18:28.000Z</time>
      </trkpt>
      <trkpt lat="46.20378" lon="7.8507">
        <ele>1757</ele>
        <time>2000-01-02T08:18:38.000Z</time>
      </trkpt>
      <trkpt lat="46.20372" lon="7.85057">
        <ele>1732.3</ele>
        <time>2000-01-02T08:18:48.000Z</time>
      </trkpt>
      <trkpt lat="46.2034" lon="7.85057">
        <ele>1758</ele>
        <time>2000-01-02T08:18:58.000Z</time>
      </trkpt>
      <trkpt lat="46.20328" lon="7.85058">
        <ele>1736.4</ele>
        <time>2000-01-02T08:19:08.000Z</time>
      </trkpt>
      <trkpt lat="46.20306" lon="7.85051">
        <ele>1754</ele>
        <time>2000-01-02T08:19:18.000Z</time>
      </trkpt>
      <trkpt lat="46.20297" lon="7.85044">
        <ele>1740.7</ele>
        <time>2000-01-02T08:19:28.000Z</time>
      </trkpt>
      <trkpt lat="46.20292" lon="7.85031">
        <ele>1750</ele>
        <time>2000-01-02T08:19:38.000Z</time>
      </trkpt>
      <trkpt lat="46.20281" lon="7.85032">
        <ele>1743.4</ele>
        <time>2000-01-02T08:19:48.000Z</time>
      </trkpt>
      <trkpt lat="46.20271" lon="7.85031">
        <ele>1750</ele>
        <time>2000-01-02T08:19:58.000Z</time>
      </trkpt>
      <trkpt lat="46.20261" lon="7.85031">
        <ele>1748.4</ele>
        <time>2000-01-02T08:20:08.000Z</time>
      </trkpt>
      <trkpt lat="46.20252" lon="7.85025">
        <ele>1751</ele>
        <time>2000-01-02T08:20:18.000Z</time>
      </trkpt>
      <trkpt lat="46.20231" lon="7.85023">
        <ele>1752</ele>
        <time>2000-01-02T08:20:28.000Z</time>
      </trkpt>
      <trkpt lat="46.2022" lon="7.85025">
        <ele>1748.7</ele>
        <time>2000-01-02T08:20:38.000Z</time>
      </trkpt>
      <trkpt lat="46.20189" lon="7.85043">
        <ele>1766</ele>
        <time>2000-01-02T08:20:48.000Z</time>
      </trkpt>
      <trkpt lat="46.20177" lon="7.85045">
        <ele>1751.3</ele>
        <time>2000-01-02T08:20:58.000Z</time>
      </trkpt>
      <trkpt lat="46.20167" lon="7.85043">
        <ele>1766</ele>
        <time>2000-01-02T08:21:08.000Z</time>
      </trkpt>
      <trkpt lat="46.20146" lon="7.85029">
        <ele>1766</ele>
        <time>2000-01-02T08:21:18.000Z</time>
      </trkpt>
      <trkpt lat="46.20136" lon="7.85023">
        <ele>1748.7</ele>
        <time>2000-01-02T08:21:28.000Z</time>
      </trkpt>
      <trkpt lat="46.20115" lon="7.85015">
        <ele>1765</ele>
        <time>2000-01-02T08:21:38.000Z</time>
      </trkpt>
      <trkpt lat="46.20105" lon="7.85012">
        <ele>1747.4</ele>
        <time>2000-01-02T08:21:48.000Z</time>
      </trkpt>
      <trkpt lat="46.2008" lon="7.85003">
        <ele>1765</ele>
        <time>2000-01-02T08:21:58.000Z</time>
      </trkpt>
      <trkpt lat="46.2007" lon="7.84994">
        <ele>1747.8</ele>
        <time>2000-01-02T08:22:08.000Z</time>
      </trkpt>
      <trkpt lat="46.20057" lon="7.84969">
        <ele>1764</ele>
        <time>2000-01-02T08:22:18.000Z</time>
      </trkpt>
      <trkpt lat="46.20053" lon="7.84954">
        <ele>1747.7</ele>
        <time>2000-01-02T08:22:28.000Z</time>
      </trkpt>
      <trkpt lat="46.20047" lon="7.84943">
        <ele>1764</ele>
        <time>2000-01-02T08:22:38.000Z</time>
      </trkpt>
      <trkpt lat="46.20038" lon="7.84935">
        <ele>1750.3</ele>
        <time>2000-01-02T08:22:48.000Z</time>
      </trkpt>
      <trkpt lat="46.20029" lon="7.84928">
        <ele>1763</ele>
        <time>2000-01-02T08:22:58.000Z</time>
      </trkpt>
      <trkpt lat="46.2002" lon="7.84922">
        <ele>1753.8</ele>
        <time>2000-01-02T08:23:08.000Z</time>
      </trkpt>
      <trkpt lat="46.2001" lon="7.84927">
        <ele>1763</ele>
        <time>2000-01-02T08:23:18.000Z</time>
      </trkpt>
      <trkpt lat="46.2" lon="7.84925">
        <ele>1759.8</ele>
        <time>2000-01-02T08:23:28.000Z</time>
      </trkpt>
      <trkpt lat="46.1999" lon="7.8492">
        <ele>1766</ele>
        <time>2000-01-02T08:23:38.000Z</time>
      </trkpt>
      <trkpt lat="46.1997" lon="7.8491">
        <ele>1765</ele>
        <time>2000-01-02T08:23:48.000Z</time>
      </trkpt>
      <trkpt lat="46.19961" lon="7.84902">
        <ele>1762.5</ele>
        <time>2000-01-02T08:23:58.000Z</time>
      </trkpt>
      <trkpt lat="46.19953" lon="7.84892">
        <ele>1765</ele>
        <time>2000-01-02T08:24:08.000Z</time>
      </trkpt>
      <trkpt lat="46.19925" lon="7.84845">
        <ele>1760</ele>
        <time>2000-01-02T08:24:18.000Z</time>
      </trkpt>
      <trkpt lat="46.19911" lon="7.84822">
        <ele>1758</ele>
        <time>2000-01-02T08:24:28.000Z</time>
      </trkpt>
      <trkpt lat="46.19903" lon="7.84812">
        <ele>1753.6</ele>
        <time>2000-01-02T08:24:38.000Z</time>
      </trkpt>
      <trkpt lat="46.19884" lon="7.84795">
        <ele>1756</ele>
        <time>2000-01-02T08:24:48.000Z</time>
      </trkpt>
      <trkpt lat="46.19875" lon="7.84784">
        <ele>1751.7</ele>
        <time>2000-01-02T08:24:58.000Z</time>
      </trkpt>
      <trkpt lat="46.19833" lon="7.8473">
        <ele>1751</ele>
        <time>2000-01-02T08:25:08.000Z</time>
      </trkpt>
      <trkpt lat="46.19815" lon="7.84709">
        <ele>1746</ele>
        <time>2000-01-02T08:25:18.000Z</time>
      </trkpt>
      <trkpt lat="46.19806" lon="7.84701">
        <ele>1743.6</ele>
        <time>2000-01-02T08:25:28.000Z</time>
      </trkpt>
      <trkpt lat="46.19795" lon="7.84697">
        <ele>1745</ele>
        <time>2000-01-02T08:25:38.000Z</time>
      </trkpt>
      <trkpt lat="46.19785" lon="7.84696">
        <ele>1741.8</ele>
        <time>2000-01-02T08:25:48.000Z</time>
      </trkpt>
      <trkpt lat="46.19764" lon="7.84696">
        <ele>1745</ele>
        <time>2000-01-02T08:25:58.000Z</time>
      </trkpt>
      <trkpt lat="46.19753" lon="7.84694">
        <ele>1741.7</ele>
        <time>2000-01-02T08:26:08.000Z</time>
      </trkpt>
      <trkpt lat="46.19742" lon="7.84685">
        <ele>1742</ele>
        <time>2000-01-02T08:26:18.000Z</time>
      </trkpt>
      <trkpt lat="46.19712" lon="7.84638">
        <ele>1739</ele>
        <time>2000-01-02T08:26:28.000Z</time>
      </trkpt>
      <trkpt lat="46.19696" lon="7.84615">
        <ele>1738</ele>
        <time>2000-01-02T08:26:38.000Z</time>
      </trkpt>
      <trkpt lat="46.19689" lon="7.84603">
        <ele>1733</ele>
        <time>2000-01-02T08:26:48.000Z</time>
      </trkpt>
      <trkpt lat="46.19681" lon="7.84592">
        <ele>1734</ele>
        <time>2000-01-02T08:26:58.000Z</time>
      </trkpt>
      <trkpt lat="46.19672" lon="7.84583">
        <ele>1732.4</ele>
        <time>2000-01-02T08:27:08.000Z</time>
      </trkpt>
      <trkpt lat="46.19653" lon="7.84567">
        <ele>1731</ele>
        <time>2000-01-02T08:27:18.000Z</time>
      </trkpt>
      <trkpt lat="46.19654" lon="7.84549">
        <ele>1727.4</ele>
        <time>2000-01-02T08:27:28.000Z</time>
      </trkpt>
      <trkpt lat="46.19655" lon="7.84532">
        <ele>1727</ele>
        <time>2000-01-02T08:27:38.000Z</time>
      </trkpt>
      <trkpt lat="46.19651" lon="7.84519">
        <ele>1724.8</ele>
        <time>2000-01-02T08:27:48.000Z</time>
      </trkpt>
      <trkpt lat="46.19639" lon="7.84492">
        <ele>1724</ele>
        <time>2000-01-02T08:27:58.000Z</time>
      </trkpt>
      <trkpt lat="46.19633" lon="7.84481">
        <ele>1719.9</ele>
        <time>2000-01-02T08:28:08.000Z</time>
      </trkpt>
      <trkpt lat="46.19628" lon="7.84468">
        <ele>1724</ele>
        <time>2000-01-02T08:28:18.000Z</time>
      </trkpt>
      <trkpt lat="46.1962" lon="7.84455">
        <ele>1716.1</ele>
        <time>2000-01-02T08:28:28.000Z</time>
      </trkpt>
      <trkpt lat="46.19609" lon="7.84444">
        <ele>1724</ele>
        <time>2000-01-02T08:28:38.000Z</time>
      </trkpt>
      <trkpt lat="46.19601" lon="7.84436">
        <ele>1714.4</ele>
        <time>2000-01-02T08:28:48.000Z</time>
      </trkpt>
      <trkpt lat="46.1959" lon="7.84427">
        <ele>1721</ele>
        <time>2000-01-02T08:28:58.000Z</time>
      </trkpt>
      <trkpt lat="46.19563" lon="7.844">
        <ele>1720</ele>
        <time>2000-01-02T08:29:08.000Z</time>
      </trkpt>
      <trkpt lat="46.19537" lon="7.84373">
        <ele>1712</ele>
        <time>2000-01-02T08:29:18.000Z</time>
      </trkpt>
      <trkpt lat="46.19528" lon="7.84364">
        <ele>1695.5</ele>
        <time>2000-01-02T08:29:28.000Z</time>
      </trkpt>
      <trkpt lat="46.1952" lon="7.84356">
        <ele>1704</ele>
        <time>2000-01-02T08:29:38.000Z</time>
      </trkpt>
      <trkpt lat="46.19511" lon="7.84344">
        <ele>1689.2</ele>
        <time>2000-01-02T08:29:48.000Z</time>
      </trkpt>
      <trkpt lat="46.19492" lon="7.84325">
        <ele>1694</ele>
        <time>2000-01-02T08:29:58.000Z</time>
      </trkpt>
      <trkpt lat="46.19484" lon="7.84315">
        <ele>1681.1</ele>
        <time>2000-01-02T08:30:08.000Z</time>
      </trkpt>
      <trkpt lat="46.19477" lon="7.84299">
        <ele>1678</ele>
        <time>2000-01-02T08:30:18.000Z</time>
      </trkpt>
      <trkpt lat="46.19469" lon="7.84286">
        <ele>1673.1</ele>
        <time>2000-01-02T08:30:28.000Z</time>
      </trkpt>
      <trkpt lat="46.19454" lon="7.84258">
        <ele>1678</ele>
        <time>2000-01-02T08:30:38.000Z</time>
      </trkpt>
      <trkpt lat="46.19443" lon="7.8423">
        <ele>1674</ele>
        <time>2000-01-02T08:30:48.000Z</time>
      </trkpt>
      <trkpt lat="46.19441" lon="7.84213">
        <ele>1663.3</ele>
        <time>2000-01-02T08:30:58.000Z</time>
      </trkpt>
      <trkpt lat="46.19439" lon="7.84199">
        <ele>1671</ele>
        <time>2000-01-02T08:31:08.000Z</time>
      </trkpt>
      <trkpt lat="46.19431" lon="7.84185">
        <ele>1658.5</ele>
        <time>2000-01-02T08:31:18.000Z</time>
      </trkpt>
      <trkpt lat="46.19421" lon="7.84174">
        <ele>1665</ele>
        <time>2000-01-02T08:31:28.000Z</time>
      </trkpt>
      <trkpt lat="46.19412" lon="7.8416">
        <ele>1655.9</ele>
        <time>2000-01-02T08:31:38.000Z</time>
      </trkpt>
      <trkpt lat="46.19403" lon="7.8415">
        <ele>1664</ele>
        <time>2000-01-02T08:31:48.000Z</time>
      </trkpt>
      <trkpt lat="46.19396" lon="7.84138">
        <ele>1657.9</ele>
        <time>2000-01-02T08:31:58.000Z</time>
      </trkpt>
      <trkpt lat="46.19396" lon="7.84122">
        <ele>1662</ele>
        <time>2000-01-02T08:32:08.000Z</time>
      </trkpt>
      <trkpt lat="46.19402" lon="7.84109">
        <ele>1653.6</ele>
        <time>2000-01-02T08:32:18.000Z</time>
      </trkpt>
      <trkpt lat="46.19409" lon="7.84097">
        <ele>1658</ele>
        <time>2000-01-02T08:32:28.000Z</time>
      </trkpt>
      <trkpt lat="46.19415" lon="7.84083">
        <ele>1650.2</ele>
        <time>2000-01-02T08:32:38.000Z</time>
      </trkpt>
      <trkpt lat="46.19425" lon="7.84078">
        <ele>1651</ele>
        <time>2000-01-02T08:32:48.000Z</time>
      </trkpt>
      <trkpt lat="46.19436" lon="7.84085">
        <ele>1646.6</ele>
        <time>2000-01-02T08:32:58.000Z</time>
      </trkpt>
      <trkpt lat="46.19446" lon="7.84092">
        <ele>1648</ele>
        <time>2000-01-02T08:33:08.000Z</time>
      </trkpt>
      <trkpt lat="46.19456" lon="7.84092">
        <ele>1643.3</ele>
        <time>2000-01-02T08:33:18.000Z</time>
      </trkpt>
      <trkpt lat="46.19465" lon="7.84083">
        <ele>1644</ele>
        <time>2000-01-02T08:33:28.000Z</time>
      </trkpt>
      <trkpt lat="46.19471" lon="7.84069">
        <ele>1639.2</ele>
        <time>2000-01-02T08:33:38.000Z</time>
      </trkpt>
      <trkpt lat="46.19475" lon="7.84052">
        <ele>1642</ele>
        <time>2000-01-02T08:33:48.000Z</time>
      </trkpt>
      <trkpt lat="46.19476" lon="7.84039">
        <ele>1636.1</ele>
        <time>2000-01-02T08:33:58.000Z</time>
      </trkpt>
      <trkpt lat="46.19481" lon="7.84026">
        <ele>1638</ele>
        <time>2000-01-02T08:34:08.000Z</time>
      </trkpt>
      <trkpt lat="46.19496" lon="7.84005">
        <ele>1636</ele>
        <time>2000-01-02T08:34:18.000Z</time>
      </trkpt>
      <trkpt lat="46.19504" lon="7.83994">
        <ele>1629.1</ele>
        <time>2000-01-02T08:34:28.000Z</time>
      </trkpt>
      <trkpt lat="46.19511" lon="7.83978">
        <ele>1631</ele>
        <time>2000-01-02T08:34:38.000Z</time>
      </trkpt>
      <trkpt lat="46.19533" lon="7.83942">
        <ele>1628</ele>
        <time>2000-01-02T08:34:48.000Z</time>
      </trkpt>
      <trkpt lat="46.19558" lon="7.83918">
        <ele>1625</ele>
        <time>2000-01-02T08:34:58.000Z</time>
      </trkpt>
      <trkpt lat="46.19574" lon="7.83918">
        <ele>1620.1</ele>
        <time>2000-01-02T08:35:08.000Z</time>
      </trkpt>
      <trkpt lat="46.19576" lon="7.83893">
        <ele>1625</ele>
        <time>2000-01-02T08:35:18.000Z</time>
      </trkpt>
      <trkpt lat="46.19547" lon="7.83872">
        <ele>1625</ele>
        <time>2000-01-02T08:35:28.000Z</time>
      </trkpt>
      <trkpt lat="46.19547" lon="7.83875">
        <ele>1625</ele>
        <time>2000-01-02T08:35:38.000Z</time>
      </trkpt>
    </trkseg>
  </trk>
</gpx>